﻿<?xml version="1.0" encoding="utf-8"?><gpx creator="Garmin Desktop App" version="1.1" xsi:schemaLocation="http://www.topografix.com/GPX/1/1 http://www.topografix.com/GPX/1/1/gpx.xsd http://www.garmin.com/xmlschemas/WaypointExtension/v1 http://www8.garmin.com/xmlschemas/WaypointExtensionv1.xsd http://www.garmin.com/xmlschemas/TrackPointExtension/v1 http://www.garmin.com/xmlschemas/TrackPointExtensionv1.xsd http://www.garmin.com/xmlschemas/GpxExtensions/v3 http://www8.garmin.com/xmlschemas/GpxExtensionsv3.xsd http://www.garmin.com/xmlschemas/ActivityExtension/v1 http://www8.garmin.com/xmlschemas/ActivityExtensionv1.xsd http://www.garmin.com/xmlschemas/AdventuresExtensions/v1 http://www8.garmin.com/xmlschemas/AdventuresExtensionv1.xsd http://www.garmin.com/xmlschemas/PressureExtension/v1 http://www.garmin.com/xmlschemas/PressureExtensionv1.xsd http://www.garmin.com/xmlschemas/TripExtensions/v1 http://www.garmin.com/xmlschemas/TripExtensionsv1.xsd http://www.garmin.com/xmlschemas/TripMetaDataExtensions/v1 http://www.garmin.com/xmlschemas/TripMetaDataExtensionsv1.xsd http://www.garmin.com/xmlschemas/ViaPointTransportationModeExtensions/v1 http://www.garmin.com/xmlschemas/ViaPointTransportationModeExtensionsv1.xsd http://www.garmin.com/xmlschemas/CreationTimeExtension/v1 http://www.garmin.com/xmlschemas/CreationTimeExtensionsv1.xsd http://www.garmin.com/xmlschemas/AccelerationExtension/v1 http://www.garmin.com/xmlschemas/AccelerationExtensionv1.xsd http://www.garmin.com/xmlschemas/PowerExtension/v1 http://www.garmin.com/xmlschemas/PowerExtensionv1.xsd http://www.garmin.com/xmlschemas/VideoExtension/v1 http://www.garmin.com/xmlschemas/VideoExtensionv1.xsd" xmlns="http://www.topografix.com/GPX/1/1" xmlns:xsi="http://www.w3.org/2001/XMLSchema-instance" xmlns:wptx1="http://www.garmin.com/xmlschemas/WaypointExtension/v1" xmlns:gpxtrx="http://www.garmin.com/xmlschemas/GpxExtensions/v3" xmlns:gpxtpx="http://www.garmin.com/xmlschemas/TrackPointExtension/v1" xmlns:gpxx="http://www.garmin.com/xmlschemas/GpxExtensions/v3" xmlns:trp="http://www.garmin.com/xmlschemas/TripExtensions/v1" xmlns:adv="http://www.garmin.com/xmlschemas/AdventuresExtensions/v1" xmlns:prs="http://www.garmin.com/xmlschemas/PressureExtension/v1" xmlns:tmd="http://www.garmin.com/xmlschemas/TripMetaDataExtensions/v1" xmlns:vptm="http://www.garmin.com/xmlschemas/ViaPointTransportationModeExtensions/v1" xmlns:ctx="http://www.garmin.com/xmlschemas/CreationTimeExtension/v1" xmlns:gpxacc="http://www.garmin.com/xmlschemas/AccelerationExtension/v1" xmlns:gpxpx="http://www.garmin.com/xmlschemas/PowerExtension/v1" xmlns:vidx1="http://www.garmin.com/xmlschemas/VideoExtension/v1">

  <metadata>
    <link href="http://www.garmin.com">
      <text>Garmin International</text>
    </link>
    <time>2018-09-18T15:12:35Z</time>
    <bounds maxlat="47.569254990667105" maxlon="10.271669961512089" minlat="47.129148999229074" minlon="9.19203800149262" />
  </metadata>

  <trk>
    <name>Track vom: 2018-09-18 08:42</name>
    <extensions>
      <gpxx:TrackExtension>
        <gpxx:DisplayColor>DarkGray</gpxx:DisplayColor>
      </gpxx:TrackExtension>
    </extensions>
    <trkseg>
      <trkpt lat="47.442295979708433" lon="10.247442992404103">
        <ele>837.45000000000005</ele>
        <time>2018-09-18T06:42:50Z</time>
      </trkpt>
      <trkpt lat="47.442316012457013" lon="10.247425977140665">
        <ele>836.96000000000004</ele>
        <time>2018-09-18T06:43:15Z</time>
      </trkpt>
      <trkpt lat="47.442388013005257" lon="10.247409967705607">
        <ele>835.51999999999998</ele>
        <time>2018-09-18T06:43:19Z</time>
      </trkpt>
      <trkpt lat="47.442419026046991" lon="10.247381972149014">
        <ele>835.03999999999996</ele>
        <time>2018-09-18T06:43:20Z</time>
      </trkpt>
      <trkpt lat="47.442464958876371" lon="10.247339978814125">
        <ele>834.55999999999995</ele>
        <time>2018-09-18T06:43:21Z</time>
      </trkpt>
      <trkpt lat="47.442526984959841" lon="10.247282981872559">
        <ele>834.08000000000004</ele>
        <time>2018-09-18T06:43:22Z</time>
      </trkpt>
      <trkpt lat="47.442563027143478" lon="10.24722296744585">
        <ele>833.60000000000002</ele>
        <time>2018-09-18T06:43:23Z</time>
      </trkpt>
      <trkpt lat="47.44261097162962" lon="10.247143004089594">
        <ele>833.60000000000002</ele>
        <time>2018-09-18T06:43:24Z</time>
      </trkpt>
      <trkpt lat="47.442818004637957" lon="10.24679297581315">
        <ele>833.60000000000002</ele>
        <time>2018-09-18T06:43:28Z</time>
      </trkpt>
      <trkpt lat="47.442871984094381" lon="10.24670303799212">
        <ele>833.60000000000002</ele>
        <time>2018-09-18T06:43:29Z</time>
      </trkpt>
      <trkpt lat="47.44293199852109" lon="10.246659033000469">
        <ele>833.60000000000002</ele>
        <time>2018-09-18T06:43:30Z</time>
      </trkpt>
      <trkpt lat="47.442987989634275" lon="10.246617961674929">
        <ele>833.60000000000002</ele>
        <time>2018-09-18T06:43:31Z</time>
      </trkpt>
      <trkpt lat="47.443036017939448" lon="10.246583009138703">
        <ele>833.60000000000002</ele>
        <time>2018-09-18T06:43:32Z</time>
      </trkpt>
      <trkpt lat="47.443143976852298" lon="10.246528023853898">
        <ele>833.12</ele>
        <time>2018-09-18T06:43:34Z</time>
      </trkpt>
      <trkpt lat="47.44321396574378" lon="10.246520983055234">
        <ele>833.12</ele>
        <time>2018-09-18T06:43:35Z</time>
      </trkpt>
      <trkpt lat="47.443654015660286" lon="10.246487958356738">
        <ele>833.12</ele>
        <time>2018-09-18T06:43:42Z</time>
      </trkpt>
      <trkpt lat="47.443681005388498" lon="10.246429033577442">
        <ele>833.12</ele>
        <time>2018-09-18T06:43:43Z</time>
      </trkpt>
      <trkpt lat="47.443715035915375" lon="10.246357033029199">
        <ele>833.12</ele>
        <time>2018-09-18T06:43:44Z</time>
      </trkpt>
      <trkpt lat="47.443754011765122" lon="10.246273968368769">
        <ele>833.12</ele>
        <time>2018-09-18T06:43:45Z</time>
      </trkpt>
      <trkpt lat="47.443797010928392" lon="10.246182018890977">
        <ele>833.12</ele>
        <time>2018-09-18T06:43:46Z</time>
      </trkpt>
      <trkpt lat="47.443839004263282" lon="10.246091997250915">
        <ele>833.12</ele>
        <time>2018-09-18T06:43:47Z</time>
      </trkpt>
      <trkpt lat="47.443922990933061" lon="10.245913965627551">
        <ele>833.60000000000002</ele>
        <time>2018-09-18T06:43:49Z</time>
      </trkpt>
      <trkpt lat="47.443961966782808" lon="10.245830984786153">
        <ele>833.60000000000002</ele>
        <time>2018-09-18T06:43:50Z</time>
      </trkpt>
      <trkpt lat="47.443974958732724" lon="10.245752027258277">
        <ele>833.60000000000002</ele>
        <time>2018-09-18T06:43:51Z</time>
      </trkpt>
      <trkpt lat="47.443987028673291" lon="10.245671980082989">
        <ele>833.60000000000002</ele>
        <time>2018-09-18T06:43:52Z</time>
      </trkpt>
      <trkpt lat="47.443997003138065" lon="10.245597967877984">
        <ele>833.60000000000002</ele>
        <time>2018-09-18T06:43:53Z</time>
      </trkpt>
      <trkpt lat="47.44400798343122" lon="10.245525967329741">
        <ele>833.60000000000002</ele>
        <time>2018-09-18T06:43:54Z</time>
      </trkpt>
      <trkpt lat="47.443991973996162" lon="10.245509035885334">
        <ele>833.60000000000002</ele>
        <time>2018-09-18T06:43:55Z</time>
      </trkpt>
      <trkpt lat="47.443946041166782" lon="10.245466036722064">
        <ele>833.60000000000002</ele>
        <time>2018-09-18T06:43:56Z</time>
      </trkpt>
      <trkpt lat="47.443897007033229" lon="10.245419014245272">
        <ele>833.60000000000002</ele>
        <time>2018-09-18T06:43:57Z</time>
      </trkpt>
      <trkpt lat="47.443843027576804" lon="10.245368974283338">
        <ele>833.12</ele>
        <time>2018-09-18T06:43:58Z</time>
      </trkpt>
      <trkpt lat="47.443720987066627" lon="10.245254980400205">
        <ele>832.63999999999999</ele>
        <time>2018-09-18T06:44:00Z</time>
      </trkpt>
      <trkpt lat="47.443664995953441" lon="10.245202006772161">
        <ele>832.63999999999999</ele>
        <time>2018-09-18T06:44:01Z</time>
      </trkpt>
      <trkpt lat="47.44361998513341" lon="10.245098993182182">
        <ele>832.15999999999997</ele>
        <time>2018-09-18T06:44:02Z</time>
      </trkpt>
      <trkpt lat="47.443587966263294" lon="10.245025986805558">
        <ele>831.67999999999995</ele>
        <time>2018-09-18T06:44:03Z</time>
      </trkpt>
      <trkpt lat="47.443561982363462" lon="10.244966978207231">
        <ele>831.20000000000005</ele>
        <time>2018-09-18T06:44:04Z</time>
      </trkpt>
      <trkpt lat="47.443538010120392" lon="10.244828006252646">
        <ele>830.72000000000003</ele>
        <time>2018-09-18T06:44:05Z</time>
      </trkpt>
      <trkpt lat="47.443572962656617" lon="10.244780983775854">
        <ele>830.24000000000001</ele>
        <time>2018-09-18T06:44:06Z</time>
      </trkpt>
      <trkpt lat="47.443613028153777" lon="10.24472801014781">
        <ele>830.24000000000001</ele>
        <time>2018-09-18T06:44:07Z</time>
      </trkpt>
      <trkpt lat="47.443658960983157" lon="10.244665984064341">
        <ele>829.75999999999999</ele>
        <time>2018-09-18T06:44:08Z</time>
      </trkpt>
      <trkpt lat="47.444186015054584" lon="10.243864003568888">
        <ele>831.20000000000005</ele>
        <time>2018-09-18T06:44:16Z</time>
      </trkpt>
      <trkpt lat="47.444756990298629" lon="10.242639994248748">
        <ele>834.55999999999995</ele>
        <time>2018-09-18T06:44:25Z</time>
      </trkpt>
      <trkpt lat="47.445021020248532" lon="10.242140013724566">
        <ele>836</ele>
        <time>2018-09-18T06:44:29Z</time>
      </trkpt>
      <trkpt lat="47.445860970765352" lon="10.240875016897917">
        <ele>839.85000000000002</ele>
        <time>2018-09-18T06:44:41Z</time>
      </trkpt>
      <trkpt lat="47.446609977632761" lon="10.240041017532349">
        <ele>844.65999999999997</ele>
        <time>2018-09-18T06:44:52Z</time>
      </trkpt>
      <trkpt lat="47.447389997541904" lon="10.239224033430219">
        <ele>849.94000000000005</ele>
        <time>2018-09-18T06:45:03Z</time>
      </trkpt>
      <trkpt lat="47.447467027232051" lon="10.239190002903342">
        <ele>850.41999999999996</ele>
        <time>2018-09-18T06:45:04Z</time>
      </trkpt>
      <trkpt lat="47.447544978931546" lon="10.239161001518369">
        <ele>851.38</ele>
        <time>2018-09-18T06:45:05Z</time>
      </trkpt>
      <trkpt lat="47.447696020826697" lon="10.239105010405183">
        <ele>852.35000000000002</ele>
        <time>2018-09-18T06:45:07Z</time>
      </trkpt>
      <trkpt lat="47.447765003889799" lon="10.239080032333732">
        <ele>852.83000000000004</ele>
        <time>2018-09-18T06:45:08Z</time>
      </trkpt>
      <trkpt lat="47.44783298112452" lon="10.239067962393165">
        <ele>852.35000000000002</ele>
        <time>2018-09-18T06:45:09Z</time>
      </trkpt>
      <trkpt lat="47.447906993329525" lon="10.23907701484859">
        <ele>852.35000000000002</ele>
        <time>2018-09-18T06:45:10Z</time>
      </trkpt>
      <trkpt lat="47.447985028848052" lon="10.239087995141745">
        <ele>852.35000000000002</ele>
        <time>2018-09-18T06:45:11Z</time>
      </trkpt>
      <trkpt lat="47.448062980547547" lon="10.239102998748422">
        <ele>851.87</ele>
        <time>2018-09-18T06:45:12Z</time>
      </trkpt>
      <trkpt lat="47.44849699549377" lon="10.239285975694656">
        <ele>848.98000000000002</ele>
        <time>2018-09-18T06:45:20Z</time>
      </trkpt>
      <trkpt lat="47.448831014335155" lon="10.239429976791143">
        <ele>846.58000000000004</ele>
        <time>2018-09-18T06:45:28Z</time>
      </trkpt>
      <trkpt lat="47.448877030983567" lon="10.239369962364435">
        <ele>846.58000000000004</ele>
        <time>2018-09-18T06:45:29Z</time>
      </trkpt>
      <trkpt lat="47.448876025155187" lon="10.239326963201165">
        <ele>846.58000000000004</ele>
        <time>2018-09-18T06:45:30Z</time>
      </trkpt>
      <trkpt lat="47.448875019326806" lon="10.23927298374474">
        <ele>846.10000000000002</ele>
        <time>2018-09-18T06:45:31Z</time>
      </trkpt>
      <trkpt lat="47.448874013498425" lon="10.239212969318032">
        <ele>846.10000000000002</ele>
        <time>2018-09-18T06:45:32Z</time>
      </trkpt>
      <trkpt lat="47.448872001841664" lon="10.23914298042655">
        <ele>845.62</ele>
        <time>2018-09-18T06:45:33Z</time>
      </trkpt>
      <trkpt lat="47.448869990184903" lon="10.239067962393165">
        <ele>845.62</ele>
        <time>2018-09-18T06:45:34Z</time>
      </trkpt>
      <trkpt lat="47.448868984356523" lon="10.238983975723386">
        <ele>846.10000000000002</ele>
        <time>2018-09-18T06:45:35Z</time>
      </trkpt>
      <trkpt lat="47.448858004063368" lon="10.238533029332757">
        <ele>847.05999999999995</ele>
        <time>2018-09-18T06:45:40Z</time>
      </trkpt>
      <trkpt lat="47.448820034042001" lon="10.238373018801212">
        <ele>847.05999999999995</ele>
        <time>2018-09-18T06:45:42Z</time>
      </trkpt>
      <trkpt lat="47.448792960494757" lon="10.238292971625924">
        <ele>847.05999999999995</ele>
        <time>2018-09-18T06:45:43Z</time>
      </trkpt>
      <trkpt lat="47.448765970766544" lon="10.238210996612906">
        <ele>847.53999999999996</ele>
        <time>2018-09-18T06:45:44Z</time>
      </trkpt>
      <trkpt lat="47.448707967996597" lon="10.238035982474685">
        <ele>848.01999999999998</ele>
        <time>2018-09-18T06:45:46Z</time>
      </trkpt>
      <trkpt lat="47.448677960783243" lon="10.237946966663003">
        <ele>848.01999999999998</ele>
        <time>2018-09-18T06:45:47Z</time>
      </trkpt>
      <trkpt lat="47.448660023510456" lon="10.237856023013592">
        <ele>848.5</ele>
        <time>2018-09-18T06:45:48Z</time>
      </trkpt>
      <trkpt lat="47.448650971055031" lon="10.237754015251994">
        <ele>848.5</ele>
        <time>2018-09-18T06:45:49Z</time>
      </trkpt>
      <trkpt lat="47.448645019903779" lon="10.237656030803919">
        <ele>848.98000000000002</ele>
        <time>2018-09-18T06:45:50Z</time>
      </trkpt>
      <trkpt lat="47.448658011853695" lon="10.237553017213941">
        <ele>849.46000000000004</ele>
        <time>2018-09-18T06:45:51Z</time>
      </trkpt>
      <trkpt lat="47.448672009631991" lon="10.237443968653679">
        <ele>849.94000000000005</ele>
        <time>2018-09-18T06:45:52Z</time>
      </trkpt>
      <trkpt lat="47.448687013238668" lon="10.237333998084068">
        <ele>849.94000000000005</ele>
        <time>2018-09-18T06:45:53Z</time>
      </trkpt>
      <trkpt lat="47.448753984645009" lon="10.237001990899444">
        <ele>851.38</ele>
        <time>2018-09-18T06:45:56Z</time>
      </trkpt>
      <trkpt lat="47.448781980201602" lon="10.236894031986594">
        <ele>851.87</ele>
        <time>2018-09-18T06:45:57Z</time>
      </trkpt>
      <trkpt lat="47.448873007670045" lon="10.236722035333514">
        <ele>852.83000000000004</ele>
        <time>2018-09-18T06:45:59Z</time>
      </trkpt>
      <trkpt lat="47.448917012661695" lon="10.23664802312851">
        <ele>852.83000000000004</ele>
        <time>2018-09-18T06:46:00Z</time>
      </trkpt>
      <trkpt lat="47.448961017653346" lon="10.236574010923505">
        <ele>853.30999999999995</ele>
        <time>2018-09-18T06:46:01Z</time>
      </trkpt>
      <trkpt lat="47.449023965746164" lon="10.23652195930481">
        <ele>853.78999999999996</ele>
        <time>2018-09-18T06:46:02Z</time>
      </trkpt>
      <trkpt lat="47.449088003486395" lon="10.236503016203642">
        <ele>854.26999999999998</ele>
        <time>2018-09-18T06:46:03Z</time>
      </trkpt>
      <trkpt lat="47.449149023741484" lon="10.236484995111823">
        <ele>854.26999999999998</ele>
        <time>2018-09-18T06:46:04Z</time>
      </trkpt>
      <trkpt lat="47.449203003197908" lon="10.236468985676765">
        <ele>854.75</ele>
        <time>2018-09-18T06:46:05Z</time>
      </trkpt>
      <trkpt lat="47.449241979047656" lon="10.236458005383611">
        <ele>854.75</ele>
        <time>2018-09-18T06:46:06Z</time>
      </trkpt>
      <trkpt lat="47.449268968775868" lon="10.236449958756566">
        <ele>855.23000000000002</ele>
        <time>2018-09-18T06:46:07Z</time>
      </trkpt>
      <trkpt lat="47.449289001524448" lon="10.236444007605314">
        <ele>855.23000000000002</ele>
        <time>2018-09-18T06:46:08Z</time>
      </trkpt>
      <trkpt lat="47.449336024001241" lon="10.236344011500478">
        <ele>855.23000000000002</ele>
        <time>2018-09-18T06:46:09Z</time>
      </trkpt>
      <trkpt lat="47.449324037879705" lon="10.236277040094137">
        <ele>855.71000000000004</ele>
        <time>2018-09-18T06:46:10Z</time>
      </trkpt>
      <trkpt lat="47.449310040101409" lon="10.236192969605327">
        <ele>855.71000000000004</ele>
        <time>2018-09-18T06:46:11Z</time>
      </trkpt>
      <trkpt lat="47.449293024837971" lon="10.236100014299154">
        <ele>856.19000000000005</ele>
        <time>2018-09-18T06:46:12Z</time>
      </trkpt>
      <trkpt lat="47.449257988482714" lon="10.235903039574623">
        <ele>856.19000000000005</ele>
        <time>2018-09-18T06:46:14Z</time>
      </trkpt>
      <trkpt lat="47.449242984876037" lon="10.235799020156264">
        <ele>856.66999999999996</ele>
        <time>2018-09-18T06:46:15Z</time>
      </trkpt>
      <trkpt lat="47.449222030118108" lon="10.234944988042116">
        <ele>859.08000000000004</ele>
        <time>2018-09-18T06:46:22Z</time>
      </trkpt>
      <trkpt lat="47.44905699044466" lon="10.233910996466875">
        <ele>863.39999999999998</ele>
        <time>2018-09-18T06:46:29Z</time>
      </trkpt>
      <trkpt lat="47.449008040130138" lon="10.233764983713627">
        <ele>863.88</ele>
        <time>2018-09-18T06:46:30Z</time>
      </trkpt>
      <trkpt lat="47.448959005996585" lon="10.233619976788759">
        <ele>864.84000000000003</ele>
        <time>2018-09-18T06:46:31Z</time>
      </trkpt>
      <trkpt lat="47.448899997398257" lon="10.233443034812808">
        <ele>865.32000000000005</ele>
        <time>2018-09-18T06:46:32Z</time>
      </trkpt>
      <trkpt lat="47.44881902821362" lon="10.233356030657887">
        <ele>866.76999999999998</ele>
        <time>2018-09-18T06:46:33Z</time>
      </trkpt>
      <trkpt lat="47.448728000745177" lon="10.23325796239078">
        <ele>867.25</ele>
        <time>2018-09-18T06:46:34Z</time>
      </trkpt>
      <trkpt lat="47.448640996590257" lon="10.233164001256227">
        <ele>868.21000000000004</ele>
        <time>2018-09-18T06:46:35Z</time>
      </trkpt>
      <trkpt lat="47.448287028819323" lon="10.23278497159481">
        <ele>872.04999999999995</ele>
        <time>2018-09-18T06:46:39Z</time>
      </trkpt>
      <trkpt lat="47.448186026886106" lon="10.232677012681961">
        <ele>872.52999999999997</ele>
        <time>2018-09-18T06:46:40Z</time>
      </trkpt>
      <trkpt lat="47.447082968428731" lon="10.231429031118751">
        <ele>876.38</ele>
        <time>2018-09-18T06:46:50Z</time>
      </trkpt>
      <trkpt lat="47.446984983980656" lon="10.231285030022264">
        <ele>876.86000000000001</ele>
        <time>2018-09-18T06:46:51Z</time>
      </trkpt>
      <trkpt lat="47.446862021461129" lon="10.231103980913758">
        <ele>877.82000000000005</ele>
        <time>2018-09-18T06:46:52Z</time>
      </trkpt>
      <trkpt lat="47.446759007871151" lon="10.231027035042644">
        <ele>878.77999999999997</ele>
        <time>2018-09-18T06:46:53Z</time>
      </trkpt>
      <trkpt lat="47.445632982999086" lon="10.230367965996265">
        <ele>888.39999999999998</ele>
        <time>2018-09-18T06:47:01Z</time>
      </trkpt>
      <trkpt lat="47.445505997166038" lon="10.230241985991597">
        <ele>889.36000000000001</ele>
        <time>2018-09-18T06:47:02Z</time>
      </trkpt>
      <trkpt lat="47.445359984412789" lon="10.23007401265204">
        <ele>889.84000000000003</ele>
        <time>2018-09-18T06:47:03Z</time>
      </trkpt>
      <trkpt lat="47.445187987759709" lon="10.229966975748539">
        <ele>890.79999999999995</ele>
        <time>2018-09-18T06:47:04Z</time>
      </trkpt>
      <trkpt lat="47.445084974169731" lon="10.229949960485101">
        <ele>891.27999999999997</ele>
        <time>2018-09-18T06:47:05Z</time>
      </trkpt>
      <trkpt lat="47.444918006658554" lon="10.22992498241365">
        <ele>892.24000000000001</ele>
        <time>2018-09-18T06:47:06Z</time>
      </trkpt>
      <trkpt lat="47.444751961156726" lon="10.229935962706804">
        <ele>892.72000000000003</ele>
        <time>2018-09-18T06:47:07Z</time>
      </trkpt>
      <trkpt lat="47.444582981988788" lon="10.229947026818991">
        <ele>893.67999999999995</ele>
        <time>2018-09-18T06:47:08Z</time>
      </trkpt>
      <trkpt lat="47.444066992029548" lon="10.229982985183597">
        <ele>896.57000000000005</ele>
        <time>2018-09-18T06:47:11Z</time>
      </trkpt>
      <trkpt lat="47.44389901868999" lon="10.229975022375584">
        <ele>897.52999999999997</ele>
        <time>2018-09-18T06:47:12Z</time>
      </trkpt>
      <trkpt lat="47.443724004551768" lon="10.229948032647371">
        <ele>898.49000000000001</ele>
        <time>2018-09-18T06:47:13Z</time>
      </trkpt>
      <trkpt lat="47.443075999617577" lon="10.229699006304145">
        <ele>901.85000000000002</ele>
        <time>2018-09-18T06:47:17Z</time>
      </trkpt>
      <trkpt lat="47.44291196577251" lon="10.229634968563914">
        <ele>902.82000000000005</ele>
        <time>2018-09-18T06:47:18Z</time>
      </trkpt>
      <trkpt lat="47.441742019727826" lon="10.229469006881118">
        <ele>910.02999999999997</ele>
        <time>2018-09-18T06:47:25Z</time>
      </trkpt>
      <trkpt lat="47.441620985046029" lon="10.22942902520299">
        <ele>910.99000000000001</ele>
        <time>2018-09-18T06:47:26Z</time>
      </trkpt>
      <trkpt lat="47.441540015861392" lon="10.229378985241055">
        <ele>912.42999999999995</ele>
        <time>2018-09-18T06:47:27Z</time>
      </trkpt>
      <trkpt lat="47.441463991999626" lon="10.229276977479458">
        <ele>913.38999999999999</ele>
        <time>2018-09-18T06:47:28Z</time>
      </trkpt>
      <trkpt lat="47.441389979794621" lon="10.229175975546241">
        <ele>914.35000000000002</ele>
        <time>2018-09-18T06:47:29Z</time>
      </trkpt>
      <trkpt lat="47.441317979246378" lon="10.229080002754927">
        <ele>914.83000000000004</ele>
        <time>2018-09-18T06:47:30Z</time>
      </trkpt>
      <trkpt lat="47.441179007291794" lon="10.228890990838408">
        <ele>916.75</ele>
        <time>2018-09-18T06:47:32Z</time>
      </trkpt>
      <trkpt lat="47.44110700674355" lon="10.228794012218714">
        <ele>917.24000000000001</ele>
        <time>2018-09-18T06:47:33Z</time>
      </trkpt>
      <trkpt lat="47.441035006195307" lon="10.228696027770638">
        <ele>917.72000000000003</ele>
        <time>2018-09-18T06:47:34Z</time>
      </trkpt>
      <trkpt lat="47.440963005647063" lon="10.228597959503531">
        <ele>918.20000000000005</ele>
        <time>2018-09-18T06:47:35Z</time>
      </trkpt>
      <trkpt lat="47.440888993442059" lon="10.228498969227076">
        <ele>918.67999999999995</ele>
        <time>2018-09-18T06:47:36Z</time>
      </trkpt>
      <trkpt lat="47.440708028152585" lon="10.228167967870831">
        <ele>921.08000000000004</ele>
        <time>2018-09-18T06:47:39Z</time>
      </trkpt>
      <trkpt lat="47.440646002069116" lon="10.228041987866163">
        <ele>922.03999999999996</ele>
        <time>2018-09-18T06:47:40Z</time>
      </trkpt>
      <trkpt lat="47.440190026536584" lon="10.22708703763783">
        <ele>927.80999999999995</ele>
        <time>2018-09-18T06:47:49Z</time>
      </trkpt>
      <trkpt lat="47.44016395881772" lon="10.22700497880578">
        <ele>928.28999999999996</ele>
        <time>2018-09-18T06:47:50Z</time>
      </trkpt>
      <trkpt lat="47.440135963261127" lon="10.226914035156369">
        <ele>929.25</ele>
        <time>2018-09-18T06:47:51Z</time>
      </trkpt>
      <trkpt lat="47.440116014331579" lon="10.226819990202785">
        <ele>929.73000000000002</ele>
        <time>2018-09-18T06:47:52Z</time>
      </trkpt>
      <trkpt lat="47.440100004896522" lon="10.226698033511639">
        <ele>930.69000000000005</ele>
        <time>2018-09-18T06:47:53Z</time>
      </trkpt>
      <trkpt lat="47.440080977976322" lon="10.226555038243532">
        <ele>931.16999999999996</ele>
        <time>2018-09-18T06:47:54Z</time>
      </trkpt>
      <trkpt lat="47.44009698741138" lon="10.226418999955058">
        <ele>932.13999999999999</ele>
        <time>2018-09-18T06:47:55Z</time>
      </trkpt>
      <trkpt lat="47.440116014331579" lon="10.226257983595133">
        <ele>932.62</ele>
        <time>2018-09-18T06:47:56Z</time>
      </trkpt>
      <trkpt lat="47.44011702015996" lon="10.226069977506995">
        <ele>933.10000000000002</ele>
        <time>2018-09-18T06:47:57Z</time>
      </trkpt>
      <trkpt lat="47.440106961876154" lon="10.225879037752748">
        <ele>933.58000000000004</ele>
        <time>2018-09-18T06:47:58Z</time>
      </trkpt>
      <trkpt lat="47.44005499407649" lon="10.225679967552423">
        <ele>934.05999999999995</ele>
        <time>2018-09-18T06:47:59Z</time>
      </trkpt>
      <trkpt lat="47.439990034326911" lon="10.225514005869627">
        <ele>935.5</ele>
        <time>2018-09-18T06:48:00Z</time>
      </trkpt>
      <trkpt lat="47.43992599658668" lon="10.225348966196179">
        <ele>936.46000000000004</ele>
        <time>2018-09-18T06:48:01Z</time>
      </trkpt>
      <trkpt lat="47.43986296467483" lon="10.225187027826905">
        <ele>937.89999999999998</ele>
        <time>2018-09-18T06:48:02Z</time>
      </trkpt>
      <trkpt lat="47.439804039895535" lon="10.225036991760135">
        <ele>938.86000000000001</ele>
        <time>2018-09-18T06:48:03Z</time>
      </trkpt>
      <trkpt lat="47.439781995490193" lon="10.224896008148789">
        <ele>940.30999999999995</ele>
        <time>2018-09-18T06:48:04Z</time>
      </trkpt>
      <trkpt lat="47.439761962741613" lon="10.224753012880683">
        <ele>941.26999999999998</ele>
        <time>2018-09-18T06:48:05Z</time>
      </trkpt>
      <trkpt lat="47.439741007983685" lon="10.224611023440957">
        <ele>942.23000000000002</ele>
        <time>2018-09-18T06:48:06Z</time>
      </trkpt>
      <trkpt lat="47.439719969406724" lon="10.224470039829612">
        <ele>943.19000000000005</ele>
        <time>2018-09-18T06:48:07Z</time>
      </trkpt>
      <trkpt lat="47.439700020477176" lon="10.224330984055996">
        <ele>944.14999999999998</ele>
        <time>2018-09-18T06:48:08Z</time>
      </trkpt>
      <trkpt lat="47.439679987728596" lon="10.224193017929792">
        <ele>945.11000000000001</ele>
        <time>2018-09-18T06:48:09Z</time>
      </trkpt>
      <trkpt lat="47.439660038799047" lon="10.224056979641318">
        <ele>946.07000000000005</ele>
        <time>2018-09-18T06:48:10Z</time>
      </trkpt>
      <trkpt lat="47.439615027979016" lon="10.223919013515115">
        <ele>947.03999999999996</ele>
        <time>2018-09-18T06:48:11Z</time>
      </trkpt>
      <trkpt lat="47.43956197053194" lon="10.223798984661698">
        <ele>948.48000000000002</ele>
        <time>2018-09-18T06:48:12Z</time>
      </trkpt>
      <trkpt lat="47.439511008560658" lon="10.223682979121804">
        <ele>949.44000000000005</ele>
        <time>2018-09-18T06:48:13Z</time>
      </trkpt>
      <trkpt lat="47.439460968598723" lon="10.223570996895432">
        <ele>950.39999999999998</ele>
        <time>2018-09-18T06:48:14Z</time>
      </trkpt>
      <trkpt lat="47.439411012455821" lon="10.223459014669061">
        <ele>951.36000000000001</ele>
        <time>2018-09-18T06:48:15Z</time>
      </trkpt>
      <trkpt lat="47.439395003020763" lon="10.223421966657043">
        <ele>951.84000000000003</ele>
        <time>2018-09-18T06:48:16Z</time>
      </trkpt>
      <trkpt lat="47.439375976100564" lon="10.223191967234015">
        <ele>952.79999999999995</ele>
        <time>2018-09-18T06:48:17Z</time>
      </trkpt>
      <trkpt lat="47.439359966665506" lon="10.222999015823007">
        <ele>953.76999999999998</ele>
        <time>2018-09-18T06:48:18Z</time>
      </trkpt>
      <trkpt lat="47.43923700414598" lon="10.222304994240403">
        <ele>958.57000000000005</ele>
        <time>2018-09-18T06:48:21Z</time>
      </trkpt>
      <trkpt lat="47.439180007204413" lon="10.222123023122549">
        <ele>960.49000000000001</ele>
        <time>2018-09-18T06:48:22Z</time>
      </trkpt>
      <trkpt lat="47.439137008041143" lon="10.221984973177314">
        <ele>961.94000000000005</ele>
        <time>2018-09-18T06:48:23Z</time>
      </trkpt>
      <trkpt lat="47.439058972522616" lon="10.221858993172646">
        <ele>963.86000000000001</ele>
        <time>2018-09-18T06:48:24Z</time>
      </trkpt>
      <trkpt lat="47.438985966145992" lon="10.221741981804371">
        <ele>965.29999999999995</ele>
        <time>2018-09-18T06:48:25Z</time>
      </trkpt>
      <trkpt lat="47.438914971426129" lon="10.221626982092857">
        <ele>967.22000000000003</ele>
        <time>2018-09-18T06:48:26Z</time>
      </trkpt>
      <trkpt lat="47.438504006713629" lon="10.220754006877542">
        <ele>981.63999999999999</ele>
        <time>2018-09-18T06:48:35Z</time>
      </trkpt>
      <trkpt lat="47.438131012022495" lon="10.219776006415486">
        <ele>994.62</ele>
        <time>2018-09-18T06:48:44Z</time>
      </trkpt>
      <trkpt lat="47.437954992055893" lon="10.219330005347729">
        <ele>1005.2</ele>
        <time>2018-09-18T06:48:53Z</time>
      </trkpt>
      <trkpt lat="47.437949040904641" lon="10.219267979264259">
        <ele>1006.64</ele>
        <time>2018-09-18T06:48:54Z</time>
      </trkpt>
      <trkpt lat="47.437934959307313" lon="10.219131018966436">
        <ele>1009.04</ele>
        <time>2018-09-18T06:48:56Z</time>
      </trkpt>
      <trkpt lat="47.437974018976092" lon="10.218971008434892">
        <ele>1012.41</ele>
        <time>2018-09-18T06:48:59Z</time>
      </trkpt>
      <trkpt lat="47.43799002841115" lon="10.218903031200171">
        <ele>1013.37</ele>
        <time>2018-09-18T06:49:00Z</time>
      </trkpt>
      <trkpt lat="47.438058005645871" lon="10.218622991815209">
        <ele>1017.6900000000001</ele>
        <time>2018-09-18T06:49:04Z</time>
      </trkpt>
      <trkpt lat="47.438075020909309" lon="10.218553002923727">
        <ele>1018.65</ele>
        <time>2018-09-18T06:49:05Z</time>
      </trkpt>
      <trkpt lat="47.438225978985429" lon="10.217926036566496">
        <ele>1025.8599999999999</ele>
        <time>2018-09-18T06:49:13Z</time>
      </trkpt>
      <trkpt lat="47.438244000077248" lon="10.217852024361491">
        <ele>1026.8299999999999</ele>
        <time>2018-09-18T06:49:14Z</time>
      </trkpt>
      <trkpt lat="47.438452038913965" lon="10.21699002943933">
        <ele>1037.8800000000001</ele>
        <time>2018-09-18T06:49:23Z</time>
      </trkpt>
      <trkpt lat="47.438476011157036" lon="10.216889027506113">
        <ele>1038.8399999999999</ele>
        <time>2018-09-18T06:49:24Z</time>
      </trkpt>
      <trkpt lat="47.438503000885248" lon="10.216776039451361">
        <ele>1040.28</ele>
        <time>2018-09-18T06:49:25Z</time>
      </trkpt>
      <trkpt lat="47.438514987006783" lon="10.216727005317807">
        <ele>1041.25</ele>
        <time>2018-09-18T06:49:26Z</time>
      </trkpt>
      <trkpt lat="47.438590005040169" lon="10.216614017263055">
        <ele>1042.21</ele>
        <time>2018-09-18T06:49:27Z</time>
      </trkpt>
      <trkpt lat="47.438642978668213" lon="10.216565988957882">
        <ele>1043.6500000000001</ele>
        <time>2018-09-18T06:49:28Z</time>
      </trkpt>
      <trkpt lat="47.43872101418674" lon="10.216506980359554">
        <ele>1045.0899999999999</ele>
        <time>2018-09-18T06:49:29Z</time>
      </trkpt>
      <trkpt lat="47.438800977542996" lon="10.216445960104465">
        <ele>1046.53</ele>
        <time>2018-09-18T06:49:30Z</time>
      </trkpt>
      <trkpt lat="47.438885970041156" lon="10.216381000354886">
        <ele>1047.97</ele>
        <time>2018-09-18T06:49:31Z</time>
      </trkpt>
      <trkpt lat="47.438978003337979" lon="10.216311011463404">
        <ele>1049.4200000000001</ele>
        <time>2018-09-18T06:49:32Z</time>
      </trkpt>
      <trkpt lat="47.439067019149661" lon="10.21623901091516">
        <ele>1050.8599999999999</ele>
        <time>2018-09-18T06:49:33Z</time>
      </trkpt>
      <trkpt lat="47.439200961962342" lon="10.216104984283447">
        <ele>1052.3</ele>
        <time>2018-09-18T06:49:34Z</time>
      </trkpt>
      <trkpt lat="47.439232980832458" lon="10.216025020927191">
        <ele>1054.22</ele>
        <time>2018-09-18T06:49:35Z</time>
      </trkpt>
      <trkpt lat="47.439291989430785" lon="10.215879008173943">
        <ele>1055.1800000000001</ele>
        <time>2018-09-18T06:49:36Z</time>
      </trkpt>
      <trkpt lat="47.439329959452152" lon="10.215783035382628">
        <ele>1057.1099999999999</ele>
        <time>2018-09-18T06:49:37Z</time>
      </trkpt>
      <trkpt lat="47.439329959452152" lon="10.215783035382628">
        <ele>1059.03</ele>
        <time>2018-09-18T06:49:38Z</time>
      </trkpt>
      <trkpt lat="47.439372036606073" lon="10.215488998219371">
        <ele>1060.47</ele>
        <time>2018-09-18T06:49:39Z</time>
      </trkpt>
      <trkpt lat="47.439391985535622" lon="10.215350026264787">
        <ele>1061.4300000000001</ele>
        <time>2018-09-18T06:49:40Z</time>
      </trkpt>
      <trkpt lat="47.43938704021275" lon="10.215310966596007">
        <ele>1063.3599999999999</ele>
        <time>2018-09-18T06:49:41Z</time>
      </trkpt>
      <trkpt lat="47.4393430352211" lon="10.21518599241972">
        <ele>1065.28</ele>
        <time>2018-09-18T06:49:42Z</time>
      </trkpt>
      <trkpt lat="47.439299030229449" lon="10.215062024071813">
        <ele>1067.2</ele>
        <time>2018-09-18T06:49:43Z</time>
      </trkpt>
      <trkpt lat="47.439254019409418" lon="10.214935960248113">
        <ele>1069.1199999999999</ele>
        <time>2018-09-18T06:49:44Z</time>
      </trkpt>
      <trkpt lat="47.439206996932626" lon="10.214804029092193">
        <ele>1070.5699999999999</ele>
        <time>2018-09-18T06:49:45Z</time>
      </trkpt>
      <trkpt lat="47.439157962799072" lon="10.214622979983687">
        <ele>1072.01</ele>
        <time>2018-09-18T06:49:46Z</time>
      </trkpt>
      <trkpt lat="47.439154023304582" lon="10.214449977502227">
        <ele>1073.45</ele>
        <time>2018-09-18T06:49:47Z</time>
      </trkpt>
      <trkpt lat="47.43915100581944" lon="10.214267000555992">
        <ele>1074.8900000000001</ele>
        <time>2018-09-18T06:49:48Z</time>
      </trkpt>
      <trkpt lat="47.439090991392732" lon="10.213238960132003">
        <ele>1084.02</ele>
        <time>2018-09-18T06:49:53Z</time>
      </trkpt>
      <trkpt lat="47.439036006107926" lon="10.212870994582772">
        <ele>1087.8699999999999</ele>
        <time>2018-09-18T06:49:55Z</time>
      </trkpt>
      <trkpt lat="47.439013961702585" lon="10.212718024849892">
        <ele>1089.79</ele>
        <time>2018-09-18T06:49:56Z</time>
      </trkpt>
      <trkpt lat="47.438970040529966" lon="10.212422981858253">
        <ele>1093.1600000000001</ele>
        <time>2018-09-18T06:49:58Z</time>
      </trkpt>
      <trkpt lat="47.438914971426129" lon="10.212323991581798">
        <ele>1095.5599999999999</ele>
        <time>2018-09-18T06:49:59Z</time>
      </trkpt>
      <trkpt lat="47.438834002241492" lon="10.212213015183806">
        <ele>1097.48</ele>
        <time>2018-09-18T06:50:00Z</time>
      </trkpt>
      <trkpt lat="47.438664017245173" lon="10.211982009932399">
        <ele>1100.8499999999999</ele>
        <time>2018-09-18T06:50:02Z</time>
      </trkpt>
      <trkpt lat="47.438580030575395" lon="10.211866004392505">
        <ele>1102.29</ele>
        <time>2018-09-18T06:50:03Z</time>
      </trkpt>
      <trkpt lat="47.438495960086584" lon="10.211751004680991">
        <ele>1103.73</ele>
        <time>2018-09-18T06:50:04Z</time>
      </trkpt>
      <trkpt lat="47.438329998403788" lon="10.211524022743106">
        <ele>1107.5799999999999</ele>
        <time>2018-09-18T06:50:06Z</time>
      </trkpt>
      <trkpt lat="47.438277024775743" lon="10.211386978626251">
        <ele>1109.02</ele>
        <time>2018-09-18T06:50:07Z</time>
      </trkpt>
      <trkpt lat="47.438226984813809" lon="10.211241971701384">
        <ele>1110.9400000000001</ele>
        <time>2018-09-18T06:50:08Z</time>
      </trkpt>
      <trkpt lat="47.438179040327668" lon="10.21110400557518">
        <ele>1112.3800000000001</ele>
        <time>2018-09-18T06:50:09Z</time>
      </trkpt>
      <trkpt lat="47.438132017850876" lon="10.210971990600228">
        <ele>1113.8199999999999</ele>
        <time>2018-09-18T06:50:10Z</time>
      </trkpt>
      <trkpt lat="47.438083989545703" lon="10.210833018645644">
        <ele>1114.79</ele>
        <time>2018-09-18T06:50:11Z</time>
      </trkpt>
      <trkpt lat="47.438031015917659" lon="10.210682982578874">
        <ele>1115.75</ele>
        <time>2018-09-18T06:50:12Z</time>
      </trkpt>
      <trkpt lat="47.437964966520667" lon="10.210577035322785">
        <ele>1117.1900000000001</ele>
        <time>2018-09-18T06:50:13Z</time>
      </trkpt>
      <trkpt lat="47.437879974022508" lon="10.210461029782891">
        <ele>1118.1500000000001</ele>
        <time>2018-09-18T06:50:14Z</time>
      </trkpt>
      <trkpt lat="47.437805961817503" lon="10.210338989272714">
        <ele>1119.1099999999999</ele>
        <time>2018-09-18T06:50:15Z</time>
      </trkpt>
      <trkpt lat="47.437738990411162" lon="10.210217032581568">
        <ele>1120.0699999999999</ele>
        <time>2018-09-18T06:50:16Z</time>
      </trkpt>
      <trkpt lat="47.43766900151968" lon="10.210089962929487">
        <ele>1121.03</ele>
        <time>2018-09-18T06:50:17Z</time>
      </trkpt>
      <trkpt lat="47.437606975436211" lon="10.209958031773567">
        <ele>1122</ele>
        <time>2018-09-18T06:50:18Z</time>
      </trkpt>
      <trkpt lat="47.437571017071605" lon="10.209782011806965">
        <ele>1123.4400000000001</ele>
        <time>2018-09-18T06:50:19Z</time>
      </trkpt>
      <trkpt lat="47.437533969059587" lon="10.209603980183601">
        <ele>1124.8800000000001</ele>
        <time>2018-09-18T06:50:20Z</time>
      </trkpt>
      <trkpt lat="47.4374970048666" lon="10.209419997408986">
        <ele>1126.3199999999999</ele>
        <time>2018-09-18T06:50:21Z</time>
      </trkpt>
      <trkpt lat="47.437457023188472" lon="10.209226962178946">
        <ele>1128.24</ele>
        <time>2018-09-18T06:50:22Z</time>
      </trkpt>
      <trkpt lat="47.437330037355423" lon="10.208608964458108">
        <ele>1133.05</ele>
        <time>2018-09-18T06:50:25Z</time>
      </trkpt>
      <trkpt lat="47.437287960201502" lon="10.208406960591674">
        <ele>1134.49</ele>
        <time>2018-09-18T06:50:26Z</time>
      </trkpt>
      <trkpt lat="47.437212020158768" lon="10.208022985607386">
        <ele>1137.3800000000001</ele>
        <time>2018-09-18T06:50:28Z</time>
      </trkpt>
      <trkpt lat="47.437174972146749" lon="10.207836991176009">
        <ele>1139.3</ele>
        <time>2018-09-18T06:50:29Z</time>
      </trkpt>
      <trkpt lat="47.437102971598506" lon="10.207482017576694">
        <ele>1143.1400000000001</ele>
        <time>2018-09-18T06:50:31Z</time>
      </trkpt>
      <trkpt lat="47.437071036547422" lon="10.207291999831796">
        <ele>1144.5899999999999</ele>
        <time>2018-09-18T06:50:32Z</time>
      </trkpt>
      <trkpt lat="47.437048992142081" lon="10.207103993743658">
        <ele>1146.03</ele>
        <time>2018-09-18T06:50:33Z</time>
      </trkpt>
      <trkpt lat="47.437028037384152" lon="10.20691598765552">
        <ele>1147.47</ele>
        <time>2018-09-18T06:50:34Z</time>
      </trkpt>
      <trkpt lat="47.437005992978811" lon="10.20672395825386">
        <ele>1149.3900000000001</ele>
        <time>2018-09-18T06:50:35Z</time>
      </trkpt>
      <trkpt lat="47.436972968280315" lon="10.206546010449529">
        <ele>1151.3199999999999</ele>
        <time>2018-09-18T06:50:36Z</time>
      </trkpt>
      <trkpt lat="47.436915971338749" lon="10.206374013796449">
        <ele>1153.24</ele>
        <time>2018-09-18T06:50:37Z</time>
      </trkpt>
      <trkpt lat="47.436859980225563" lon="10.206206040456891">
        <ele>1155.1600000000001</ele>
        <time>2018-09-18T06:50:38Z</time>
      </trkpt>
      <trkpt lat="47.436806000769138" lon="10.206043012440205">
        <ele>1157.0799999999999</ele>
        <time>2018-09-18T06:50:39Z</time>
      </trkpt>
      <trkpt lat="47.436741963028908" lon="10.205893982201815">
        <ele>1159.01</ele>
        <time>2018-09-18T06:50:40Z</time>
      </trkpt>
      <trkpt lat="47.436672979965806" lon="10.205739000812173">
        <ele>1160.9300000000001</ele>
        <time>2018-09-18T06:50:41Z</time>
      </trkpt>
      <trkpt lat="47.436453038826585" lon="10.205283025279641">
        <ele>1165.74</ele>
        <time>2018-09-18T06:50:44Z</time>
      </trkpt>
      <trkpt lat="47.436356982216239" lon="10.205170959234238">
        <ele>1167.6600000000001</ele>
        <time>2018-09-18T06:50:45Z</time>
      </trkpt>
      <trkpt lat="47.435797993093729" lon="10.204612975940108">
        <ele>1174.3900000000001</ele>
        <time>2018-09-18T06:50:50Z</time>
      </trkpt>
      <trkpt lat="47.435696991160512" lon="10.20448699593544">
        <ele>1175.8299999999999</ele>
        <time>2018-09-18T06:50:51Z</time>
      </trkpt>
      <trkpt lat="47.43554200977087" lon="10.204194970428944">
        <ele>1178.71</ele>
        <time>2018-09-18T06:50:53Z</time>
      </trkpt>
      <trkpt lat="47.435469003394246" lon="10.204059015959501">
        <ele>1180.1600000000001</ele>
        <time>2018-09-18T06:50:54Z</time>
      </trkpt>
      <trkpt lat="47.435381999239326" lon="10.203895987942815">
        <ele>1181.5999999999999</ele>
        <time>2018-09-18T06:50:55Z</time>
      </trkpt>
      <trkpt lat="47.435313016176224" lon="10.203831028193235">
        <ele>1183.04</ele>
        <time>2018-09-18T06:50:56Z</time>
      </trkpt>
      <trkpt lat="47.435218971222639" lon="10.203743018209934">
        <ele>1184</ele>
        <time>2018-09-18T06:50:57Z</time>
      </trkpt>
      <trkpt lat="47.435122998431325" lon="10.203652996569872">
        <ele>1184.96</ele>
        <time>2018-09-18T06:50:58Z</time>
      </trkpt>
      <trkpt lat="47.435028031468391" lon="10.203555012121797">
        <ele>1185.9200000000001</ele>
        <time>2018-09-18T06:50:59Z</time>
      </trkpt>
      <trkpt lat="47.434946978464723" lon="10.203415034338832">
        <ele>1186.8800000000001</ele>
        <time>2018-09-18T06:51:00Z</time>
      </trkpt>
      <trkpt lat="47.434858968481421" lon="10.20326198078692">
        <ele>1187.3699999999999</ele>
        <time>2018-09-18T06:51:01Z</time>
      </trkpt>
      <trkpt lat="47.434666017070413" lon="10.202926034107804">
        <ele>1188.3299999999999</ele>
        <time>2018-09-18T06:51:03Z</time>
      </trkpt>
      <trkpt lat="47.43403997272253" lon="10.201978962868452">
        <ele>1190.73</ele>
        <time>2018-09-18T06:51:09Z</time>
      </trkpt>
      <trkpt lat="47.433975012972951" lon="10.201814007014036">
        <ele>1191.21</ele>
        <time>2018-09-18T06:51:10Z</time>
      </trkpt>
      <trkpt lat="47.433948023244739" lon="10.201627006754279">
        <ele>1191.6900000000001</ele>
        <time>2018-09-18T06:51:11Z</time>
      </trkpt>
      <trkpt lat="47.433920027688146" lon="10.201431959867477">
        <ele>1193.1300000000001</ele>
        <time>2018-09-18T06:51:12Z</time>
      </trkpt>
      <trkpt lat="47.433911981061101" lon="10.201228028163314">
        <ele>1194.5799999999999</ele>
        <time>2018-09-18T06:51:13Z</time>
      </trkpt>
      <trkpt lat="47.433941988274455" lon="10.20102996379137">
        <ele>1196.02</ele>
        <time>2018-09-18T06:51:14Z</time>
      </trkpt>
      <trkpt lat="47.433968978002667" lon="10.200848998501897">
        <ele>1197.46</ele>
        <time>2018-09-18T06:51:15Z</time>
      </trkpt>
      <trkpt lat="47.433992028236389" lon="10.200687982141972">
        <ele>1198.9000000000001</ele>
        <time>2018-09-18T06:51:16Z</time>
      </trkpt>
      <trkpt lat="47.434034021571279" lon="10.200406014919281">
        <ele>1201.79</ele>
        <time>2018-09-18T06:51:18Z</time>
      </trkpt>
      <trkpt lat="47.434031004086137" lon="10.200122036039829">
        <ele>1203.23</ele>
        <time>2018-09-18T06:51:20Z</time>
      </trkpt>
      <trkpt lat="47.434008959680796" lon="10.199947021901608">
        <ele>1203.71</ele>
        <time>2018-09-18T06:51:21Z</time>
      </trkpt>
      <trkpt lat="47.433957997709513" lon="10.19982598721981">
        <ele>1204.6700000000001</ele>
        <time>2018-09-18T06:51:22Z</time>
      </trkpt>
      <trkpt lat="47.433895971626043" lon="10.199676034972072">
        <ele>1205.1500000000001</ele>
        <time>2018-09-18T06:51:23Z</time>
      </trkpt>
      <trkpt lat="47.433830006048083" lon="10.199516024440527">
        <ele>1206.1099999999999</ele>
        <time>2018-09-18T06:51:24Z</time>
      </trkpt>
      <trkpt lat="47.433760017156601" lon="10.199348973110318">
        <ele>1206.5899999999999</ele>
        <time>2018-09-18T06:51:25Z</time>
      </trkpt>
      <trkpt lat="47.433691034093499" lon="10.199180999770761">
        <ele>1207.55</ele>
        <time>2018-09-18T06:51:26Z</time>
      </trkpt>
      <trkpt lat="47.433635964989662" lon="10.198988970369101">
        <ele>1208.51</ele>
        <time>2018-09-18T06:51:27Z</time>
      </trkpt>
      <trkpt lat="47.433614004403353" lon="10.198776992037892">
        <ele>1209.48</ele>
        <time>2018-09-18T06:51:28Z</time>
      </trkpt>
      <trkpt lat="47.433567987754941" lon="10.198331996798515">
        <ele>1212.3599999999999</ele>
        <time>2018-09-18T06:51:30Z</time>
      </trkpt>
      <trkpt lat="47.433529011905193" lon="10.198110966011882">
        <ele>1213.8</ele>
        <time>2018-09-18T06:51:31Z</time>
      </trkpt>
      <trkpt lat="47.433435972779989" lon="10.197722967714071">
        <ele>1216.21</ele>
        <time>2018-09-18T06:51:33Z</time>
      </trkpt>
      <trkpt lat="47.43341401219368" lon="10.197517024353147">
        <ele>1217.1700000000001</ele>
        <time>2018-09-18T06:51:34Z</time>
      </trkpt>
      <trkpt lat="47.433429015800357" lon="10.19728702493012">
        <ele>1218.1300000000001</ele>
        <time>2018-09-18T06:51:35Z</time>
      </trkpt>
      <trkpt lat="47.433465979993343" lon="10.197088960558176">
        <ele>1219.0899999999999</ele>
        <time>2018-09-18T06:51:36Z</time>
      </trkpt>
      <trkpt lat="47.433506967499852" lon="10.196868013590574">
        <ele>1220.05</ele>
        <time>2018-09-18T06:51:37Z</time>
      </trkpt>
      <trkpt lat="47.433591959998012" lon="10.196411032229662">
        <ele>1221.49</ele>
        <time>2018-09-18T06:51:39Z</time>
      </trkpt>
      <trkpt lat="47.433607969433069" lon="10.196170974522829">
        <ele>1222.45</ele>
        <time>2018-09-18T06:51:40Z</time>
      </trkpt>
      <trkpt lat="47.433616016060114" lon="10.195923959836364">
        <ele>1223.4200000000001</ele>
        <time>2018-09-18T06:51:41Z</time>
      </trkpt>
      <trkpt lat="47.433640994131565" lon="10.195214012637734">
        <ele>1226.78</ele>
        <time>2018-09-18T06:51:44Z</time>
      </trkpt>
      <trkpt lat="47.4336720071733" lon="10.19499197602272">
        <ele>1227.74</ele>
        <time>2018-09-18T06:51:45Z</time>
      </trkpt>
      <trkpt lat="47.433901000767946" lon="10.193878021091223">
        <ele>1234.47</ele>
        <time>2018-09-18T06:51:51Z</time>
      </trkpt>
      <trkpt lat="47.433901000767946" lon="10.193711975589395">
        <ele>1235.4300000000001</ele>
        <time>2018-09-18T06:51:52Z</time>
      </trkpt>
      <trkpt lat="47.433861019089818" lon="10.193560011684895">
        <ele>1236.3900000000001</ele>
        <time>2018-09-18T06:51:53Z</time>
      </trkpt>
      <trkpt lat="47.433816008269787" lon="10.193446017801762">
        <ele>1237.3499999999999</ele>
        <time>2018-09-18T06:51:54Z</time>
      </trkpt>
      <trkpt lat="47.433724980801344" lon="10.193349961191416">
        <ele>1238.3199999999999</ele>
        <time>2018-09-18T06:51:55Z</time>
      </trkpt>
      <trkpt lat="47.433634959161282" lon="10.193254994228482">
        <ele>1239.28</ele>
        <time>2018-09-18T06:51:56Z</time>
      </trkpt>
      <trkpt lat="47.433539992198348" lon="10.193154998123646">
        <ele>1239.76</ele>
        <time>2018-09-18T06:51:57Z</time>
      </trkpt>
      <trkpt lat="47.433447958901525" lon="10.193058019503951">
        <ele>1240.24</ele>
        <time>2018-09-18T06:51:58Z</time>
      </trkpt>
      <trkpt lat="47.433376964181662" lon="10.192922987043858">
        <ele>1241.2</ele>
        <time>2018-09-18T06:51:59Z</time>
      </trkpt>
      <trkpt lat="47.433321978896856" lon="10.192751996219158">
        <ele>1242.1600000000001</ele>
        <time>2018-09-18T06:52:00Z</time>
      </trkpt>
      <trkpt lat="47.433321978896856" lon="10.192581005394459">
        <ele>1243.1199999999999</ele>
        <time>2018-09-18T06:52:01Z</time>
      </trkpt>
      <trkpt lat="47.433321978896856" lon="10.192400962114334">
        <ele>1244.0799999999999</ele>
        <time>2018-09-18T06:52:02Z</time>
      </trkpt>
      <trkpt lat="47.433319967240095" lon="10.192213961854577">
        <ele>1245.04</ele>
        <time>2018-09-18T06:52:03Z</time>
      </trkpt>
      <trkpt lat="47.433305969461799" lon="10.192015981301665">
        <ele>1246.49</ele>
        <time>2018-09-18T06:52:04Z</time>
      </trkpt>
      <trkpt lat="47.433292977511883" lon="10.191818000748754">
        <ele>1247.9300000000001</ele>
        <time>2018-09-18T06:52:05Z</time>
      </trkpt>
      <trkpt lat="47.433279985561967" lon="10.191626977175474">
        <ele>1248.8900000000001</ele>
        <time>2018-09-18T06:52:06Z</time>
      </trkpt>
      <trkpt lat="47.433290965855122" lon="10.191451041027904">
        <ele>1250.3299999999999</ele>
        <time>2018-09-18T06:52:07Z</time>
      </trkpt>
      <trkpt lat="47.433326002210379" lon="10.191280972212553">
        <ele>1251.77</ele>
        <time>2018-09-18T06:52:08Z</time>
      </trkpt>
      <trkpt lat="47.433407977223396" lon="10.191152980551124">
        <ele>1253.22</ele>
        <time>2018-09-18T06:52:09Z</time>
      </trkpt>
      <trkpt lat="47.43350001052022" lon="10.191043009981513">
        <ele>1254.6600000000001</ele>
        <time>2018-09-18T06:52:10Z</time>
      </trkpt>
      <trkpt lat="47.43360998108983" lon="10.190948965027928">
        <ele>1256.0999999999999</ele>
        <time>2018-09-18T06:52:11Z</time>
      </trkpt>
      <trkpt lat="47.433720035478473" lon="10.190855003893375">
        <ele>1257.54</ele>
        <time>2018-09-18T06:52:12Z</time>
      </trkpt>
      <trkpt lat="47.433830006048083" lon="10.190760036930442">
        <ele>1258.98</ele>
        <time>2018-09-18T06:52:13Z</time>
      </trkpt>
      <trkpt lat="47.433936037123203" lon="10.190636990591884">
        <ele>1259.9400000000001</ele>
        <time>2018-09-18T06:52:14Z</time>
      </trkpt>
      <trkpt lat="47.434008959680796" lon="10.190505981445312">
        <ele>1261.3900000000001</ele>
        <time>2018-09-18T06:52:15Z</time>
      </trkpt>
      <trkpt lat="47.434054976329207" lon="10.190275982022285">
        <ele>1262.3499999999999</ele>
        <time>2018-09-18T06:52:16Z</time>
      </trkpt>
      <trkpt lat="47.434095963835716" lon="10.190070038661361">
        <ele>1263.79</ele>
        <time>2018-09-18T06:52:17Z</time>
      </trkpt>
      <trkpt lat="47.434135023504496" lon="10.189872980117798">
        <ele>1264.75</ele>
        <time>2018-09-18T06:52:18Z</time>
      </trkpt>
      <trkpt lat="47.434184979647398" lon="10.189693020656705">
        <ele>1265.71</ele>
        <time>2018-09-18T06:52:19Z</time>
      </trkpt>
      <trkpt lat="47.43425102904439" lon="10.189539967104793">
        <ele>1266.6700000000001</ele>
        <time>2018-09-18T06:52:20Z</time>
      </trkpt>
      <trkpt lat="47.434310037642717" lon="10.18940300680697">
        <ele>1267.6400000000001</ele>
        <time>2018-09-18T06:52:21Z</time>
      </trkpt>
      <trkpt lat="47.434352030977607" lon="10.18927501514554">
        <ele>1268.5999999999999</ele>
        <time>2018-09-18T06:52:22Z</time>
      </trkpt>
      <trkpt lat="47.434336021542549" lon="10.189153980463743">
        <ele>1269.5599999999999</ele>
        <time>2018-09-18T06:52:23Z</time>
      </trkpt>
      <trkpt lat="47.43429503403604" lon="10.189035041257739">
        <ele>1271</ele>
        <time>2018-09-18T06:52:24Z</time>
      </trkpt>
      <trkpt lat="47.43421196937561" lon="10.188965974375606">
        <ele>1271.96</ele>
        <time>2018-09-18T06:52:25Z</time>
      </trkpt>
      <trkpt lat="47.434127982705832" lon="10.188895985484123">
        <ele>1273.4000000000001</ele>
        <time>2018-09-18T06:52:26Z</time>
      </trkpt>
      <trkpt lat="47.434050031006336" lon="10.188830019906163">
        <ele>1274.3599999999999</ele>
        <time>2018-09-18T06:52:27Z</time>
      </trkpt>
      <trkpt lat="47.433991022408009" lon="10.188713008537889">
        <ele>1275.8099999999999</ele>
        <time>2018-09-18T06:52:28Z</time>
      </trkpt>
      <trkpt lat="47.434003008529544" lon="10.18858702853322">
        <ele>1276.77</ele>
        <time>2018-09-18T06:52:29Z</time>
      </trkpt>
      <trkpt lat="47.43401700630784" lon="10.188448978587985">
        <ele>1278.21</ele>
        <time>2018-09-18T06:52:30Z</time>
      </trkpt>
      <trkpt lat="47.434032009914517" lon="10.188301960006356">
        <ele>1279.6500000000001</ele>
        <time>2018-09-18T06:52:31Z</time>
      </trkpt>
      <trkpt lat="47.434051958844066" lon="10.188102973625064">
        <ele>1281.0899999999999</ele>
        <time>2018-09-18T06:52:32Z</time>
      </trkpt>
      <trkpt lat="47.433990016579628" lon="10.187991997227073">
        <ele>1283.02</ele>
        <time>2018-09-18T06:52:33Z</time>
      </trkpt>
      <trkpt lat="47.433912986889482" lon="10.187854031100869">
        <ele>1284.9400000000001</ele>
        <time>2018-09-18T06:52:34Z</time>
      </trkpt>
      <trkpt lat="47.433831011876464" lon="10.18770701251924">
        <ele>1286.8599999999999</ele>
        <time>2018-09-18T06:52:35Z</time>
      </trkpt>
      <trkpt lat="47.433747025206685" lon="10.18755697645247">
        <ele>1288.78</ele>
        <time>2018-09-18T06:52:36Z</time>
      </trkpt>
      <trkpt lat="47.433667983859777" lon="10.187414987012744">
        <ele>1291.1900000000001</ele>
        <time>2018-09-18T06:52:37Z</time>
      </trkpt>
      <trkpt lat="47.433596989139915" lon="10.187288001179695">
        <ele>1293.5899999999999</ele>
        <time>2018-09-18T06:52:38Z</time>
      </trkpt>
      <trkpt lat="47.433536974713206" lon="10.187155986204743">
        <ele>1295.51</ele>
        <time>2018-09-18T06:52:39Z</time>
      </trkpt>
      <trkpt lat="47.433536974713206" lon="10.18699798732996">
        <ele>1296.96</ele>
        <time>2018-09-18T06:52:40Z</time>
      </trkpt>
      <trkpt lat="47.43356597609818" lon="10.186839988455176">
        <ele>1298.8800000000001</ele>
        <time>2018-09-18T06:52:41Z</time>
      </trkpt>
      <trkpt lat="47.433601012453437" lon="10.186690036207438">
        <ele>1300.3199999999999</ele>
        <time>2018-09-18T06:52:42Z</time>
      </trkpt>
      <trkpt lat="47.433604029938579" lon="10.186528014019132">
        <ele>1301.76</ele>
        <time>2018-09-18T06:52:43Z</time>
      </trkpt>
      <trkpt lat="47.433564970269799" lon="10.186372026801109">
        <ele>1303.2</ele>
        <time>2018-09-18T06:52:44Z</time>
      </trkpt>
      <trkpt lat="47.433525994420052" lon="10.186216039583087">
        <ele>1304.6500000000001</ele>
        <time>2018-09-18T06:52:45Z</time>
      </trkpt>
      <trkpt lat="47.433488024398685" lon="10.186062986031175">
        <ele>1306.0899999999999</ele>
        <time>2018-09-18T06:52:46Z</time>
      </trkpt>
      <trkpt lat="47.433484001085162" lon="10.185893001034856">
        <ele>1307.53</ele>
        <time>2018-09-18T06:52:47Z</time>
      </trkpt>
      <trkpt lat="47.433502022176981" lon="10.185719998553395">
        <ele>1308.97</ele>
        <time>2018-09-18T06:52:48Z</time>
      </trkpt>
      <trkpt lat="47.433519959449768" lon="10.185551019385457">
        <ele>1310.4100000000001</ele>
        <time>2018-09-18T06:52:49Z</time>
      </trkpt>
      <trkpt lat="47.433532029390335" lon="10.185379022732377">
        <ele>1312.3399999999999</ele>
        <time>2018-09-18T06:52:50Z</time>
      </trkpt>
      <trkpt lat="47.433493975549936" lon="10.185226975008845">
        <ele>1313.78</ele>
        <time>2018-09-18T06:52:51Z</time>
      </trkpt>
      <trkpt lat="47.43345701135695" lon="10.185081968083978">
        <ele>1315.7</ele>
        <time>2018-09-18T06:52:52Z</time>
      </trkpt>
      <trkpt lat="47.433423986658454" lon="10.184948025271297">
        <ele>1317.6199999999999</ele>
        <time>2018-09-18T06:52:53Z</time>
      </trkpt>
      <trkpt lat="47.433435972779989" lon="10.184801006689668">
        <ele>1319.0699999999999</ele>
        <time>2018-09-18T06:52:54Z</time>
      </trkpt>
      <trkpt lat="47.433478971943259" lon="10.184685001149774">
        <ele>1320.51</ele>
        <time>2018-09-18T06:52:55Z</time>
      </trkpt>
      <trkpt lat="47.433552984148264" lon="10.184622975066304">
        <ele>1321.95</ele>
        <time>2018-09-18T06:52:56Z</time>
      </trkpt>
      <trkpt lat="47.433644011616707" lon="10.184605037793517">
        <ele>1323.3900000000001</ele>
        <time>2018-09-18T06:52:57Z</time>
      </trkpt>
      <trkpt lat="47.433745013549924" lon="10.184585005044937">
        <ele>1324.8299999999999</ele>
        <time>2018-09-18T06:52:58Z</time>
      </trkpt>
      <trkpt lat="47.433848027139902" lon="10.184564972296357">
        <ele>1325.8</ele>
        <time>2018-09-18T06:52:59Z</time>
      </trkpt>
      <trkpt lat="47.433946011587977" lon="10.184486014768481">
        <ele>1327.72</ele>
        <time>2018-09-18T06:53:00Z</time>
      </trkpt>
      <trkpt lat="47.434042990207672" lon="10.184378977864981">
        <ele>1329.1600000000001</ele>
        <time>2018-09-18T06:53:01Z</time>
      </trkpt>
      <trkpt lat="47.43410300463438" lon="10.184218967333436">
        <ele>1330.5999999999999</ele>
        <time>2018-09-18T06:53:02Z</time>
      </trkpt>
      <trkpt lat="47.43416796438396" lon="10.184048982337117">
        <ele>1332.52</ele>
        <time>2018-09-18T06:53:03Z</time>
      </trkpt>
      <trkpt lat="47.434234013780951" lon="10.183872962370515">
        <ele>1333.97</ele>
        <time>2018-09-18T06:53:04Z</time>
      </trkpt>
      <trkpt lat="47.43429696187377" lon="10.183707000687718">
        <ele>1335.8900000000001</ele>
        <time>2018-09-18T06:53:05Z</time>
      </trkpt>
      <trkpt lat="47.434378014877439" lon="10.183568028733134">
        <ele>1337.8099999999999</ele>
        <time>2018-09-18T06:53:06Z</time>
      </trkpt>
      <trkpt lat="47.434481028467417" lon="10.183458980172873">
        <ele>1339.73</ele>
        <time>2018-09-18T06:53:07Z</time>
      </trkpt>
      <trkpt lat="47.434583958238363" lon="10.183350015431643">
        <ele>1341.1800000000001</ele>
        <time>2018-09-18T06:53:08Z</time>
      </trkpt>
      <trkpt lat="47.434676997363567" lon="10.183251025155187">
        <ele>1342.6199999999999</ele>
        <time>2018-09-18T06:53:09Z</time>
      </trkpt>
      <trkpt lat="47.434756038710475" lon="10.183140970766544">
        <ele>1344.0599999999999</ele>
        <time>2018-09-18T06:53:10Z</time>
      </trkpt>
      <trkpt lat="47.434827033430338" lon="10.182995963841677">
        <ele>1345.02</ele>
        <time>2018-09-18T06:53:11Z</time>
      </trkpt>
      <trkpt lat="47.434836002066731" lon="10.182832013815641">
        <ele>1346.46</ele>
        <time>2018-09-18T06:53:12Z</time>
      </trkpt>
      <trkpt lat="47.434845976531506" lon="10.182674014940858">
        <ele>1347.4300000000001</ele>
        <time>2018-09-18T06:53:13Z</time>
      </trkpt>
      <trkpt lat="47.434783028438687" lon="10.182493971660733">
        <ele>1348.3900000000001</ele>
        <time>2018-09-18T06:53:14Z</time>
      </trkpt>
      <trkpt lat="47.434726031497121" lon="10.182330021634698">
        <ele>1349.8299999999999</ele>
        <time>2018-09-18T06:53:15Z</time>
      </trkpt>
      <trkpt lat="47.434673979878426" lon="10.182180991396308">
        <ele>1351.27</ele>
        <time>2018-09-18T06:53:16Z</time>
      </trkpt>
      <trkpt lat="47.434679009020329" lon="10.181950991973281">
        <ele>1353.1900000000001</ele>
        <time>2018-09-18T06:53:17Z</time>
      </trkpt>
      <trkpt lat="47.434683032333851" lon="10.181746976450086">
        <ele>1354.6300000000001</ele>
        <time>2018-09-18T06:53:18Z</time>
      </trkpt>
      <trkpt lat="47.434686971828341" lon="10.181531980633736">
        <ele>1356.0799999999999</ele>
        <time>2018-09-18T06:53:19Z</time>
      </trkpt>
      <trkpt lat="47.434692000970244" lon="10.181310027837753">
        <ele>1358</ele>
        <time>2018-09-18T06:53:20Z</time>
      </trkpt>
      <trkpt lat="47.434760984033346" lon="10.180866038426757">
        <ele>1361.3599999999999</ele>
        <time>2018-09-18T06:53:22Z</time>
      </trkpt>
      <trkpt lat="47.4348100181669" lon="10.180655987933278">
        <ele>1363.29</ele>
        <time>2018-09-18T06:53:23Z</time>
      </trkpt>
      <trkpt lat="47.434857962653041" lon="10.180449038743973">
        <ele>1365.21</ele>
        <time>2018-09-18T06:53:24Z</time>
      </trkpt>
      <trkpt lat="47.434904985129833" lon="10.180245023220778">
        <ele>1367.1300000000001</ele>
        <time>2018-09-18T06:53:25Z</time>
      </trkpt>
      <trkpt lat="47.434947984293103" lon="10.180061040446162">
        <ele>1368.5699999999999</ele>
        <time>2018-09-18T06:53:26Z</time>
      </trkpt>
      <trkpt lat="47.434986038133502" lon="10.179897006601095">
        <ele>1370.5</ele>
        <time>2018-09-18T06:53:27Z</time>
      </trkpt>
      <trkpt lat="47.435066001489758" lon="10.179592994973063">
        <ele>1373.3800000000001</ele>
        <time>2018-09-18T06:53:29Z</time>
      </trkpt>
      <trkpt lat="47.435118975117803" lon="10.179443964734674">
        <ele>1375.3</ele>
        <time>2018-09-18T06:53:30Z</time>
      </trkpt>
      <trkpt lat="47.435187036171556" lon="10.179308010265231">
        <ele>1376.75</ele>
        <time>2018-09-18T06:53:31Z</time>
      </trkpt>
      <trkpt lat="47.435275968164206" lon="10.179174989461899">
        <ele>1378.1900000000001</ele>
        <time>2018-09-18T06:53:32Z</time>
      </trkpt>
      <trkpt lat="47.435368001461029" lon="10.179036017507315">
        <ele>1380.1099999999999</ele>
        <time>2018-09-18T06:53:33Z</time>
      </trkpt>
      <trkpt lat="47.435464980080724" lon="10.178891010582447">
        <ele>1381.55</ele>
        <time>2018-09-18T06:53:34Z</time>
      </trkpt>
      <trkpt lat="47.435566987842321" lon="10.178738040849566">
        <ele>1383.47</ele>
        <time>2018-09-18T06:53:35Z</time>
      </trkpt>
      <trkpt lat="47.435672013089061" lon="10.178580963984132">
        <ele>1384.9200000000001</ele>
        <time>2018-09-18T06:53:36Z</time>
      </trkpt>
      <trkpt lat="47.43577997200191" lon="10.178418019786477">
        <ele>1386.8399999999999</ele>
        <time>2018-09-18T06:53:37Z</time>
      </trkpt>
      <trkpt lat="47.436108039692044" lon="10.177926002070308">
        <ele>1392.1300000000001</ele>
        <time>2018-09-18T06:53:40Z</time>
      </trkpt>
      <trkpt lat="47.436221027746797" lon="10.177757022902369">
        <ele>1394.05</ele>
        <time>2018-09-18T06:53:41Z</time>
      </trkpt>
      <trkpt lat="47.436347007751465" lon="10.177625007927418">
        <ele>1396.45</ele>
        <time>2018-09-18T06:53:42Z</time>
      </trkpt>
      <trkpt lat="47.436480028554797" lon="10.177512019872665">
        <ele>1398.3699999999999</ele>
        <time>2018-09-18T06:53:43Z</time>
      </trkpt>
      <trkpt lat="47.436603996902704" lon="10.177409006282687">
        <ele>1400.3</ele>
        <time>2018-09-18T06:53:44Z</time>
      </trkpt>
      <trkpt lat="47.436707010492682" lon="10.177322002127767">
        <ele>1402.7</ele>
        <time>2018-09-18T06:53:45Z</time>
      </trkpt>
      <trkpt lat="47.437333976849914" lon="10.176910031586885">
        <ele>1411.3499999999999</ele>
        <time>2018-09-18T06:53:53Z</time>
      </trkpt>
      <trkpt lat="47.437405977398157" lon="10.176865020766854">
        <ele>1411.3499999999999</ele>
        <time>2018-09-18T06:53:54Z</time>
      </trkpt>
      <trkpt lat="47.437462974339724" lon="10.176829984411597">
        <ele>1411.3499999999999</ele>
        <time>2018-09-18T06:53:55Z</time>
      </trkpt>
      <trkpt lat="47.437485018745065" lon="10.176815986633301">
        <ele>1411.3499999999999</ele>
        <time>2018-09-18T06:53:56Z</time>
      </trkpt>
      <trkpt lat="47.437485018745065" lon="10.176815986633301">
        <ele>1411.3499999999999</ele>
        <time>2018-09-18T06:53:57Z</time>
      </trkpt>
      <trkpt lat="47.437485018745065" lon="10.176815986633301">
        <ele>1411.3499999999999</ele>
        <time>2018-09-18T06:53:58Z</time>
      </trkpt>
      <trkpt lat="47.437586020678282" lon="10.176162030547857">
        <ele>1410.8699999999999</ele>
        <time>2018-09-18T06:54:00Z</time>
      </trkpt>
      <trkpt lat="47.437634970992804" lon="10.174520015716553">
        <ele>1407.51</ele>
        <time>2018-09-18T06:54:09Z</time>
      </trkpt>
      <trkpt lat="47.437630025669932" lon="10.174501994624734">
        <ele>1407.51</ele>
        <time>2018-09-18T06:54:10Z</time>
      </trkpt>
      <trkpt lat="47.437591971829534" lon="10.174346007406712">
        <ele>1407.03</ele>
        <time>2018-09-18T06:54:11Z</time>
      </trkpt>
      <trkpt lat="47.437550984323025" lon="10.174182979390025">
        <ele>1406.55</ele>
        <time>2018-09-18T06:54:12Z</time>
      </trkpt>
      <trkpt lat="47.437508990988135" lon="10.174016011878848">
        <ele>1406.0699999999999</ele>
        <time>2018-09-18T06:54:13Z</time>
      </trkpt>
      <trkpt lat="47.437445037066936" lon="10.173885002732277">
        <ele>1405.0999999999999</ele>
        <time>2018-09-18T06:54:14Z</time>
      </trkpt>
      <trkpt lat="47.437339005991817" lon="10.173793975263834">
        <ele>1404.6199999999999</ele>
        <time>2018-09-18T06:54:15Z</time>
      </trkpt>
      <trkpt lat="47.437220988795161" lon="10.173752987757325">
        <ele>1403.6600000000001</ele>
        <time>2018-09-18T06:54:16Z</time>
      </trkpt>
      <trkpt lat="47.437095008790493" lon="10.173710994422436">
        <ele>1402.7</ele>
        <time>2018-09-18T06:54:17Z</time>
      </trkpt>
      <trkpt lat="47.436965005472302" lon="10.173667995259166">
        <ele>1401.74</ele>
        <time>2018-09-18T06:54:18Z</time>
      </trkpt>
      <trkpt lat="47.436841959133744" lon="10.173615021631122">
        <ele>1401.26</ele>
        <time>2018-09-18T06:54:19Z</time>
      </trkpt>
      <trkpt lat="47.436714973300695" lon="10.173558024689555">
        <ele>1400.3</ele>
        <time>2018-09-18T06:54:20Z</time>
      </trkpt>
      <trkpt lat="47.436582958325744" lon="10.173499016091228">
        <ele>1399.3399999999999</ele>
        <time>2018-09-18T06:54:21Z</time>
      </trkpt>
      <trkpt lat="47.436066968366504" lon="10.173313021659851">
        <ele>1398.8599999999999</ele>
        <time>2018-09-18T06:54:25Z</time>
      </trkpt>
      <trkpt lat="47.435961021110415" lon="10.173275973647833">
        <ele>1398.8599999999999</ele>
        <time>2018-09-18T06:54:26Z</time>
      </trkpt>
      <trkpt lat="47.435801010578871" lon="10.1732690166682">
        <ele>1398.3699999999999</ele>
        <time>2018-09-18T06:54:27Z</time>
      </trkpt>
      <trkpt lat="47.435665978118777" lon="10.173262981697917">
        <ele>1397.4100000000001</ele>
        <time>2018-09-18T06:54:28Z</time>
      </trkpt>
      <trkpt lat="47.435533963143826" lon="10.173258036375046">
        <ele>1396.9300000000001</ele>
        <time>2018-09-18T06:54:29Z</time>
      </trkpt>
      <trkpt lat="47.435159962624311" lon="10.173221994191408">
        <ele>1392.1300000000001</ele>
        <time>2018-09-18T06:54:33Z</time>
      </trkpt>
      <trkpt lat="47.434926023706794" lon="10.173109006136656">
        <ele>1390.6800000000001</ele>
        <time>2018-09-18T06:54:34Z</time>
      </trkpt>
      <trkpt lat="47.434809012338519" lon="10.173018984496593">
        <ele>1389.24</ele>
        <time>2018-09-18T06:54:35Z</time>
      </trkpt>
      <trkpt lat="47.434685965999961" lon="10.172915970906615">
        <ele>1387.3199999999999</ele>
        <time>2018-09-18T06:54:36Z</time>
      </trkpt>
      <trkpt lat="47.434594016522169" lon="10.172757972031832">
        <ele>1385.8800000000001</ele>
        <time>2018-09-18T06:54:37Z</time>
      </trkpt>
      <trkpt lat="47.434500977396965" lon="10.172596033662558">
        <ele>1383.96</ele>
        <time>2018-09-18T06:54:38Z</time>
      </trkpt>
      <trkpt lat="47.43416603654623" lon="10.172013994306326">
        <ele>1377.23</ele>
        <time>2018-09-18T06:54:42Z</time>
      </trkpt>
      <trkpt lat="47.434095041826367" lon="10.17189203761518">
        <ele>1375.78</ele>
        <time>2018-09-18T06:54:43Z</time>
      </trkpt>
      <trkpt lat="47.43403603322804" lon="10.171760022640228">
        <ele>1374.3399999999999</ele>
        <time>2018-09-18T06:54:44Z</time>
      </trkpt>
      <trkpt lat="47.433997979387641" lon="10.171622978523374">
        <ele>1372.9000000000001</ele>
        <time>2018-09-18T06:54:45Z</time>
      </trkpt>
      <trkpt lat="47.433960009366274" lon="10.171483000740409">
        <ele>1371.46</ele>
        <time>2018-09-18T06:54:46Z</time>
      </trkpt>
      <trkpt lat="47.433922961354256" lon="10.171350985765457">
        <ele>1370.5</ele>
        <time>2018-09-18T06:54:47Z</time>
      </trkpt>
      <trkpt lat="47.43388800881803" lon="10.171222994104028">
        <ele>1369.05</ele>
        <time>2018-09-18T06:54:48Z</time>
      </trkpt>
      <trkpt lat="47.433869987726212" lon="10.17109701409936">
        <ele>1367.6099999999999</ele>
        <time>2018-09-18T06:54:49Z</time>
      </trkpt>
      <trkpt lat="47.433859007433057" lon="10.170980002731085">
        <ele>1366.6500000000001</ele>
        <time>2018-09-18T06:54:50Z</time>
      </trkpt>
      <trkpt lat="47.433862024918199" lon="10.170869026333094">
        <ele>1365.21</ele>
        <time>2018-09-18T06:54:51Z</time>
      </trkpt>
      <trkpt lat="47.433864958584309" lon="10.170757966116071">
        <ele>1363.77</ele>
        <time>2018-09-18T06:54:52Z</time>
      </trkpt>
      <trkpt lat="47.43386797606945" lon="10.170650007203221">
        <ele>1362.8099999999999</ele>
        <time>2018-09-18T06:54:53Z</time>
      </trkpt>
      <trkpt lat="47.433871999382973" lon="10.170542970299721">
        <ele>1361.8399999999999</ele>
        <time>2018-09-18T06:54:54Z</time>
      </trkpt>
      <trkpt lat="47.433875016868114" lon="10.170442974194884">
        <ele>1360.8800000000001</ele>
        <time>2018-09-18T06:54:55Z</time>
      </trkpt>
      <trkpt lat="47.433877028524876" lon="10.170362005010247">
        <ele>1359.9200000000001</ele>
        <time>2018-09-18T06:54:56Z</time>
      </trkpt>
      <trkpt lat="47.433879040181637" lon="10.170309031382203">
        <ele>1358.96</ele>
        <time>2018-09-18T06:54:57Z</time>
      </trkpt>
      <trkpt lat="47.433879962190986" lon="10.170271983370185">
        <ele>1358</ele>
        <time>2018-09-18T06:54:58Z</time>
      </trkpt>
      <trkpt lat="47.433879962190986" lon="10.170271983370185">
        <ele>1357.52</ele>
        <time>2018-09-18T06:54:59Z</time>
      </trkpt>
      <trkpt lat="47.433868981897831" lon="10.1701969653368">
        <ele>1356.5599999999999</ele>
        <time>2018-09-18T06:55:00Z</time>
      </trkpt>
      <trkpt lat="47.433861019089818" lon="10.170138040557504">
        <ele>1356.0799999999999</ele>
        <time>2018-09-18T06:55:01Z</time>
      </trkpt>
      <trkpt lat="47.433850038796663" lon="10.170058999210596">
        <ele>1355.5999999999999</ele>
        <time>2018-09-18T06:55:02Z</time>
      </trkpt>
      <trkpt lat="47.433835035189986" lon="10.169954979792237">
        <ele>1354.6300000000001</ele>
        <time>2018-09-18T06:55:03Z</time>
      </trkpt>
      <trkpt lat="47.433818019926548" lon="10.169836040586233">
        <ele>1354.1500000000001</ele>
        <time>2018-09-18T06:55:04Z</time>
      </trkpt>
      <trkpt lat="47.433791030198336" lon="10.169591959565878">
        <ele>1352.23</ele>
        <time>2018-09-18T06:55:06Z</time>
      </trkpt>
      <trkpt lat="47.43377803824842" lon="10.169266993179917">
        <ele>1348.3900000000001</ele>
        <time>2018-09-18T06:55:12Z</time>
      </trkpt>
      <trkpt lat="47.43377803824842" lon="10.169266993179917">
        <ele>1345.98</ele>
        <time>2018-09-18T06:55:23Z</time>
      </trkpt>
      <trkpt lat="47.43377803824842" lon="10.169256012886763">
        <ele>1345.98</ele>
        <time>2018-09-18T06:55:27Z</time>
      </trkpt>
      <trkpt lat="47.433810979127884" lon="10.16978801228106">
        <ele>1346.9400000000001</ele>
        <time>2018-09-18T06:55:33Z</time>
      </trkpt>
      <trkpt lat="47.433832017704844" lon="10.169935030862689">
        <ele>1347.9100000000001</ele>
        <time>2018-09-18T06:55:34Z</time>
      </trkpt>
      <trkpt lat="47.433854984119534" lon="10.170095963403583">
        <ele>1348.3900000000001</ele>
        <time>2018-09-18T06:55:35Z</time>
      </trkpt>
      <trkpt lat="47.433875016868114" lon="10.170442974194884">
        <ele>1350.3099999999999</ele>
        <time>2018-09-18T06:55:37Z</time>
      </trkpt>
      <trkpt lat="47.433863030746579" lon="10.170825021341443">
        <ele>1352.71</ele>
        <time>2018-09-18T06:55:39Z</time>
      </trkpt>
      <trkpt lat="47.433863030746579" lon="10.171025013551116">
        <ele>1354.1500000000001</ele>
        <time>2018-09-18T06:55:40Z</time>
      </trkpt>
      <trkpt lat="47.433892032131553" lon="10.171236991882324">
        <ele>1356.0799999999999</ele>
        <time>2018-09-18T06:55:41Z</time>
      </trkpt>
      <trkpt lat="47.434002002701163" lon="10.17163697630167">
        <ele>1359.4400000000001</ele>
        <time>2018-09-18T06:55:43Z</time>
      </trkpt>
      <trkpt lat="47.434051958844066" lon="10.171816013753414">
        <ele>1361.3599999999999</ele>
        <time>2018-09-18T06:55:44Z</time>
      </trkpt>
      <trkpt lat="47.434164024889469" lon="10.172011982649565">
        <ele>1362.8099999999999</ele>
        <time>2018-09-18T06:55:45Z</time>
      </trkpt>
      <trkpt lat="47.434265026822686" lon="10.172185990959406">
        <ele>1364.73</ele>
        <time>2018-09-18T06:55:46Z</time>
      </trkpt>
      <trkpt lat="47.434368040412664" lon="10.17236502841115">
        <ele>1366.6500000000001</ele>
        <time>2018-09-18T06:55:47Z</time>
      </trkpt>
      <trkpt lat="47.434688983485103" lon="10.172921000048518">
        <ele>1372.4200000000001</ele>
        <time>2018-09-18T06:55:50Z</time>
      </trkpt>
      <trkpt lat="47.43483298458159" lon="10.173038011416793">
        <ele>1374.3399999999999</ele>
        <time>2018-09-18T06:55:51Z</time>
      </trkpt>
      <trkpt lat="47.434970028698444" lon="10.173142030835152">
        <ele>1376.75</ele>
        <time>2018-09-18T06:55:52Z</time>
      </trkpt>
      <trkpt lat="47.435119980946183" lon="10.173217970877886">
        <ele>1378.1900000000001</ele>
        <time>2018-09-18T06:55:53Z</time>
      </trkpt>
      <trkpt lat="47.435278985649347" lon="10.173234986141324">
        <ele>1380.1099999999999</ele>
        <time>2018-09-18T06:55:54Z</time>
      </trkpt>
      <trkpt lat="47.435442013666034" lon="10.173254013061523">
        <ele>1381.55</ele>
        <time>2018-09-18T06:55:55Z</time>
      </trkpt>
      <trkpt lat="47.435603030025959" lon="10.173260970041156">
        <ele>1383.47</ele>
        <time>2018-09-18T06:55:56Z</time>
      </trkpt>
      <trkpt lat="47.435758011415601" lon="10.173267005011439">
        <ele>1384.9200000000001</ele>
        <time>2018-09-18T06:55:57Z</time>
      </trkpt>
      <trkpt lat="47.435907041653991" lon="10.173273039981723">
        <ele>1386.8399999999999</ele>
        <time>2018-09-18T06:55:58Z</time>
      </trkpt>
      <trkpt lat="47.436049031093717" lon="10.173306986689568">
        <ele>1388.28</ele>
        <time>2018-09-18T06:55:59Z</time>
      </trkpt>
      <trkpt lat="47.436191020533442" lon="10.173357026651502">
        <ele>1390.2</ele>
        <time>2018-09-18T06:56:00Z</time>
      </trkpt>
      <trkpt lat="47.436322029680014" lon="10.173403965309262">
        <ele>1391.6500000000001</ele>
        <time>2018-09-18T06:56:01Z</time>
      </trkpt>
      <trkpt lat="47.436813963577151" lon="10.173602029681206">
        <ele>1396.9300000000001</ele>
        <time>2018-09-18T06:56:05Z</time>
      </trkpt>
      <trkpt lat="47.43693801574409" lon="10.173657014966011">
        <ele>1397.8900000000001</ele>
        <time>2018-09-18T06:56:06Z</time>
      </trkpt>
      <trkpt lat="47.437191987410188" lon="10.173743013292551">
        <ele>1398.8599999999999</ele>
        <time>2018-09-18T06:56:08Z</time>
      </trkpt>
      <trkpt lat="47.437306987121701" lon="10.173780983313918">
        <ele>1399.3399999999999</ele>
        <time>2018-09-18T06:56:09Z</time>
      </trkpt>
      <trkpt lat="47.437416035681963" lon="10.173860024660826">
        <ele>1399.8199999999999</ele>
        <time>2018-09-18T06:56:10Z</time>
      </trkpt>
      <trkpt lat="47.437485018745065" lon="10.173919033259153">
        <ele>1400.3</ele>
        <time>2018-09-18T06:56:11Z</time>
      </trkpt>
      <trkpt lat="47.437529023736715" lon="10.174094969406724">
        <ele>1400.78</ele>
        <time>2018-09-18T06:56:12Z</time>
      </trkpt>
      <trkpt lat="47.437560958787799" lon="10.174222961068153">
        <ele>1401.26</ele>
        <time>2018-09-18T06:56:13Z</time>
      </trkpt>
      <trkpt lat="47.437593983486295" lon="10.174355981871486">
        <ele>1401.74</ele>
        <time>2018-09-18T06:56:14Z</time>
      </trkpt>
      <trkpt lat="47.437628014013171" lon="10.17449202015996">
        <ele>1402.22</ele>
        <time>2018-09-18T06:56:15Z</time>
      </trkpt>
      <trkpt lat="47.437634970992804" lon="10.174520015716553">
        <ele>1402.7</ele>
        <time>2018-09-18T06:56:16Z</time>
      </trkpt>
      <trkpt lat="47.437634970992804" lon="10.174520015716553">
        <ele>1403.1800000000001</ele>
        <time>2018-09-18T06:56:17Z</time>
      </trkpt>
      <trkpt lat="47.437634970992804" lon="10.174520015716553">
        <ele>1403.6600000000001</ele>
        <time>2018-09-18T06:56:18Z</time>
      </trkpt>
      <trkpt lat="47.437548972666264" lon="10.17616999335587">
        <ele>1407.03</ele>
        <time>2018-09-18T06:56:25Z</time>
      </trkpt>
      <trkpt lat="47.437485018745065" lon="10.176815986633301">
        <ele>1409.4300000000001</ele>
        <time>2018-09-18T06:56:28Z</time>
      </trkpt>
      <trkpt lat="47.437485018745065" lon="10.176815986633301">
        <ele>1410.3900000000001</ele>
        <time>2018-09-18T06:56:29Z</time>
      </trkpt>
      <trkpt lat="47.437485018745065" lon="10.176815986633301">
        <ele>1412.3099999999999</ele>
        <time>2018-09-18T06:56:32Z</time>
      </trkpt>
      <trkpt lat="47.437500022351742" lon="10.176810035482049">
        <ele>1412.79</ele>
        <time>2018-09-18T06:56:33Z</time>
      </trkpt>
      <trkpt lat="47.437529023736715" lon="10.176798971369863">
        <ele>1413.28</ele>
        <time>2018-09-18T06:56:34Z</time>
      </trkpt>
      <trkpt lat="47.437556013464928" lon="10.176788996905088">
        <ele>1413.76</ele>
        <time>2018-09-18T06:56:35Z</time>
      </trkpt>
      <trkpt lat="47.437576968222857" lon="10.176780028268695">
        <ele>1413.76</ele>
        <time>2018-09-18T06:56:36Z</time>
      </trkpt>
      <trkpt lat="47.437589038163424" lon="10.176776004955173">
        <ele>1414.24</ele>
        <time>2018-09-18T06:56:37Z</time>
      </trkpt>
      <trkpt lat="47.437589038163424" lon="10.176776004955173">
        <ele>1414.72</ele>
        <time>2018-09-18T06:56:48Z</time>
      </trkpt>
      <trkpt lat="47.437589038163424" lon="10.176776004955173">
        <ele>1415.6800000000001</ele>
        <time>2018-09-18T06:57:29Z</time>
      </trkpt>
      <trkpt lat="47.437589038163424" lon="10.176776004955173">
        <ele>1415.2</ele>
        <time>2018-09-18T06:58:18Z</time>
      </trkpt>
      <trkpt lat="47.437589038163424" lon="10.176776004955173">
        <ele>1414.72</ele>
        <time>2018-09-18T06:59:07Z</time>
      </trkpt>
      <trkpt lat="47.437589038163424" lon="10.176776004955173">
        <ele>1414.72</ele>
        <time>2018-09-18T06:59:13Z</time>
      </trkpt>
      <trkpt lat="47.437604963779449" lon="10.175909986719489">
        <ele>1411.8299999999999</ele>
        <time>2018-09-18T06:59:20Z</time>
      </trkpt>
      <trkpt lat="47.437634970992804" lon="10.174520015716553">
        <ele>1408.95</ele>
        <time>2018-09-18T06:59:29Z</time>
      </trkpt>
      <trkpt lat="47.437598006799817" lon="10.174372997134924">
        <ele>1408.47</ele>
        <time>2018-09-18T06:59:30Z</time>
      </trkpt>
      <trkpt lat="47.437556013464928" lon="10.174205023795366">
        <ele>1408.47</ele>
        <time>2018-09-18T06:59:31Z</time>
      </trkpt>
      <trkpt lat="47.437513014301658" lon="10.174032021313906">
        <ele>1407.51</ele>
        <time>2018-09-18T06:59:32Z</time>
      </trkpt>
      <trkpt lat="47.437449982389808" lon="10.173889026045799">
        <ele>1406.55</ele>
        <time>2018-09-18T06:59:33Z</time>
      </trkpt>
      <trkpt lat="47.437336994335055" lon="10.173792969435453">
        <ele>1406.0699999999999</ele>
        <time>2018-09-18T06:59:34Z</time>
      </trkpt>
      <trkpt lat="47.437207996845245" lon="10.173747958615422">
        <ele>1405.5799999999999</ele>
        <time>2018-09-18T06:59:35Z</time>
      </trkpt>
      <trkpt lat="47.437073970213532" lon="10.173704037442803">
        <ele>1405.5799999999999</ele>
        <time>2018-09-18T06:59:36Z</time>
      </trkpt>
      <trkpt lat="47.436947990208864" lon="10.173661960288882">
        <ele>1405.0999999999999</ele>
        <time>2018-09-18T06:59:37Z</time>
      </trkpt>
      <trkpt lat="47.436667028814554" lon="10.173536986112595">
        <ele>1404.6199999999999</ele>
        <time>2018-09-18T06:59:39Z</time>
      </trkpt>
      <trkpt lat="47.436521016061306" lon="10.173474960029125">
        <ele>1404.6199999999999</ele>
        <time>2018-09-18T06:59:40Z</time>
      </trkpt>
      <trkpt lat="47.436079038307071" lon="10.173317966982722">
        <ele>1403.1800000000001</ele>
        <time>2018-09-18T06:59:43Z</time>
      </trkpt>
      <trkpt lat="47.435763962566853" lon="10.173267005011439">
        <ele>1401.74</ele>
        <time>2018-09-18T06:59:45Z</time>
      </trkpt>
      <trkpt lat="47.435600012540817" lon="10.173260970041156">
        <ele>1400.78</ele>
        <time>2018-09-18T06:59:46Z</time>
      </trkpt>
      <trkpt lat="47.435118975117803" lon="10.173217970877886">
        <ele>1396.9300000000001</ele>
        <time>2018-09-18T06:59:49Z</time>
      </trkpt>
      <trkpt lat="47.434972040355206" lon="10.173143958672881">
        <ele>1395.49</ele>
        <time>2018-09-18T06:59:50Z</time>
      </trkpt>
      <trkpt lat="47.434837007895112" lon="10.173041028901935">
        <ele>1394.05</ele>
        <time>2018-09-18T06:59:51Z</time>
      </trkpt>
      <trkpt lat="47.434705998748541" lon="10.172941032797098">
        <ele>1392.1300000000001</ele>
        <time>2018-09-18T06:59:52Z</time>
      </trkpt>
      <trkpt lat="47.434607008472085" lon="10.172779010608792">
        <ele>1390.6800000000001</ele>
        <time>2018-09-18T06:59:53Z</time>
      </trkpt>
      <trkpt lat="47.434505000710487" lon="10.17260299064219">
        <ele>1388.76</ele>
        <time>2018-09-18T06:59:54Z</time>
      </trkpt>
      <trkpt lat="47.43429402820766" lon="10.172237036749721">
        <ele>1384.9200000000001</ele>
        <time>2018-09-18T06:59:56Z</time>
      </trkpt>
      <trkpt lat="47.434192020446062" lon="10.172060010954738">
        <ele>1382.99</ele>
        <time>2018-09-18T06:59:57Z</time>
      </trkpt>
      <trkpt lat="47.434090012684464" lon="10.171883990988135">
        <ele>1381.0699999999999</ele>
        <time>2018-09-18T06:59:58Z</time>
      </trkpt>
      <trkpt lat="47.434013988822699" lon="10.17167997546494">
        <ele>1379.1500000000001</ele>
        <time>2018-09-18T06:59:59Z</time>
      </trkpt>
      <trkpt lat="47.433951962739229" lon="10.171456011012197">
        <ele>1377.23</ele>
        <time>2018-09-18T07:00:00Z</time>
      </trkpt>
      <trkpt lat="47.433863030746579" lon="10.171028031036258">
        <ele>1373.3800000000001</ele>
        <time>2018-09-18T07:00:02Z</time>
      </trkpt>
      <trkpt lat="47.433862024918199" lon="10.170853016898036">
        <ele>1371.9400000000001</ele>
        <time>2018-09-18T07:00:03Z</time>
      </trkpt>
      <trkpt lat="47.43386697024107" lon="10.170707004144788">
        <ele>1370.5</ele>
        <time>2018-09-18T07:00:04Z</time>
      </trkpt>
      <trkpt lat="47.433871999382973" lon="10.170515980571508">
        <ele>1368.5699999999999</ele>
        <time>2018-09-18T07:00:06Z</time>
      </trkpt>
      <trkpt lat="47.433874011039734" lon="10.170458983629942">
        <ele>1367.1300000000001</ele>
        <time>2018-09-18T07:00:07Z</time>
      </trkpt>
      <trkpt lat="47.433876022696495" lon="10.170414978638291">
        <ele>1366.1700000000001</ele>
        <time>2018-09-18T07:00:08Z</time>
      </trkpt>
      <trkpt lat="47.433876022696495" lon="10.170384971424937">
        <ele>1364.73</ele>
        <time>2018-09-18T07:00:09Z</time>
      </trkpt>
      <trkpt lat="47.433876022696495" lon="10.170384971424937">
        <ele>1363.77</ele>
        <time>2018-09-18T07:00:10Z</time>
      </trkpt>
      <trkpt lat="47.433876022696495" lon="10.170384971424937">
        <ele>1359.4400000000001</ele>
        <time>2018-09-18T07:00:25Z</time>
      </trkpt>
      <trkpt lat="47.433877028524876" lon="10.17036703415215">
        <ele>1359.4400000000001</ele>
        <time>2018-09-18T07:00:55Z</time>
      </trkpt>
      <trkpt lat="47.433878034353256" lon="10.170327974483371">
        <ele>1358</ele>
        <time>2018-09-18T07:00:56Z</time>
      </trkpt>
      <trkpt lat="47.433877028524876" lon="10.170250022783875">
        <ele>1356.5599999999999</ele>
        <time>2018-09-18T07:00:57Z</time>
      </trkpt>
      <trkpt lat="47.43378097191453" lon="10.169352991506457">
        <ele>1349.8299999999999</ele>
        <time>2018-09-18T07:01:03Z</time>
      </trkpt>
      <trkpt lat="47.433773009106517" lon="10.169133972376585">
        <ele>1348.8699999999999</ele>
        <time>2018-09-18T07:01:04Z</time>
      </trkpt>
      <trkpt lat="47.433717017993331" lon="10.168932974338531">
        <ele>1347.9100000000001</ele>
        <time>2018-09-18T07:01:05Z</time>
      </trkpt>
      <trkpt lat="47.433596989139915" lon="10.168482027947903">
        <ele>1345.98</ele>
        <time>2018-09-18T07:01:07Z</time>
      </trkpt>
      <trkpt lat="47.433534963056445" lon="10.168035021051764">
        <ele>1345.02</ele>
        <time>2018-09-18T07:01:09Z</time>
      </trkpt>
      <trkpt lat="47.433464974164963" lon="10.16785497777164">
        <ele>1344.54</ele>
        <time>2018-09-18T07:01:10Z</time>
      </trkpt>
      <trkpt lat="47.433401020243764" lon="10.167691027745605">
        <ele>1343.5799999999999</ele>
        <time>2018-09-18T07:01:11Z</time>
      </trkpt>
      <trkpt lat="47.433338994160295" lon="10.167529005557299">
        <ele>1342.6199999999999</ele>
        <time>2018-09-18T07:01:12Z</time>
      </trkpt>
      <trkpt lat="47.433276968076825" lon="10.167353991419077">
        <ele>1341.1800000000001</ele>
        <time>2018-09-18T07:01:13Z</time>
      </trkpt>
      <trkpt lat="47.433251990005374" lon="10.16714695841074">
        <ele>1340.22</ele>
        <time>2018-09-18T07:01:14Z</time>
      </trkpt>
      <trkpt lat="47.433227011933923" lon="10.166932968422771">
        <ele>1338.77</ele>
        <time>2018-09-18T07:01:15Z</time>
      </trkpt>
      <trkpt lat="47.433202033862472" lon="10.166720990091562">
        <ele>1337.8099999999999</ele>
        <time>2018-09-18T07:01:16Z</time>
      </trkpt>
      <trkpt lat="47.433155011385679" lon="10.166322011500597">
        <ele>1334.45</ele>
        <time>2018-09-18T07:01:18Z</time>
      </trkpt>
      <trkpt lat="47.433161968365312" lon="10.166131993755698">
        <ele>1332.52</ele>
        <time>2018-09-18T07:01:19Z</time>
      </trkpt>
      <trkpt lat="47.433190969750285" lon="10.165949016809464">
        <ele>1331.0799999999999</ele>
        <time>2018-09-18T07:01:20Z</time>
      </trkpt>
      <trkpt lat="47.433246960863471" lon="10.165795963257551">
        <ele>1329.1600000000001</ele>
        <time>2018-09-18T07:01:21Z</time>
      </trkpt>
      <trkpt lat="47.433312004432082" lon="10.165627989917994">
        <ele>1327.72</ele>
        <time>2018-09-18T07:01:22Z</time>
      </trkpt>
      <trkpt lat="47.433408983051777" lon="10.165550960227847">
        <ele>1326.28</ele>
        <time>2018-09-18T07:01:23Z</time>
      </trkpt>
      <trkpt lat="47.433504033833742" lon="10.165477031841874">
        <ele>1325.3099999999999</ele>
        <time>2018-09-18T07:01:24Z</time>
      </trkpt>
      <trkpt lat="47.433592965826392" lon="10.16540695913136">
        <ele>1323.8699999999999</ele>
        <time>2018-09-18T07:01:25Z</time>
      </trkpt>
      <trkpt lat="47.433636970818043" lon="10.165286008268595">
        <ele>1322.4300000000001</ele>
        <time>2018-09-18T07:01:26Z</time>
      </trkpt>
      <trkpt lat="47.433675024658442" lon="10.165162039920688">
        <ele>1320.99</ele>
        <time>2018-09-18T07:01:27Z</time>
      </trkpt>
      <trkpt lat="47.433707965537906" lon="10.165023989975452">
        <ele>1319.55</ele>
        <time>2018-09-18T07:01:28Z</time>
      </trkpt>
      <trkpt lat="47.433686004951596" lon="10.164862973615527">
        <ele>1318.0999999999999</ele>
        <time>2018-09-18T07:01:29Z</time>
      </trkpt>
      <trkpt lat="47.43363001383841" lon="10.164702041074634">
        <ele>1317.1400000000001</ele>
        <time>2018-09-18T07:01:30Z</time>
      </trkpt>
      <trkpt lat="47.433571005240083" lon="10.164531972259283">
        <ele>1315.7</ele>
        <time>2018-09-18T07:01:31Z</time>
      </trkpt>
      <trkpt lat="47.433515014126897" lon="10.16437103971839">
        <ele>1314.26</ele>
        <time>2018-09-18T07:01:32Z</time>
      </trkpt>
      <trkpt lat="47.433534041047096" lon="10.164189990609884">
        <ele>1312.8199999999999</ele>
        <time>2018-09-18T07:01:33Z</time>
      </trkpt>
      <trkpt lat="47.433553989976645" lon="10.164003996178508">
        <ele>1311.3800000000001</ele>
        <time>2018-09-18T07:01:34Z</time>
      </trkpt>
      <trkpt lat="47.433576034381986" lon="10.163806015625596">
        <ele>1309.45</ele>
        <time>2018-09-18T07:01:35Z</time>
      </trkpt>
      <trkpt lat="47.433557007461786" lon="10.163588002324104">
        <ele>1308.01</ele>
        <time>2018-09-18T07:01:36Z</time>
      </trkpt>
      <trkpt lat="47.433529011905193" lon="10.163366971537471">
        <ele>1306.0899999999999</ele>
        <time>2018-09-18T07:01:37Z</time>
      </trkpt>
      <trkpt lat="47.433520965278149" lon="10.163132026791573">
        <ele>1303.6900000000001</ele>
        <time>2018-09-18T07:01:38Z</time>
      </trkpt>
      <trkpt lat="47.433532029390335" lon="10.162904961034656">
        <ele>1301.76</ele>
        <time>2018-09-18T07:01:39Z</time>
      </trkpt>
      <trkpt lat="47.433509984984994" lon="10.162696000188589">
        <ele>1299.3599999999999</ele>
        <time>2018-09-18T07:01:40Z</time>
      </trkpt>
      <trkpt lat="47.433464974164963" lon="10.162508999928832">
        <ele>1297.4400000000001</ele>
        <time>2018-09-18T07:01:41Z</time>
      </trkpt>
      <trkpt lat="47.433421975001693" lon="10.162330968305469">
        <ele>1295.51</ele>
        <time>2018-09-18T07:01:42Z</time>
      </trkpt>
      <trkpt lat="47.433379981666803" lon="10.162157965824008">
        <ele>1293.5899999999999</ele>
        <time>2018-09-18T07:01:43Z</time>
      </trkpt>
      <trkpt lat="47.433373024687171" lon="10.161984963342547">
        <ele>1292.1500000000001</ele>
        <time>2018-09-18T07:01:44Z</time>
      </trkpt>
      <trkpt lat="47.433388028293848" lon="10.161811038851738">
        <ele>1290.23</ele>
        <time>2018-09-18T07:01:45Z</time>
      </trkpt>
      <trkpt lat="47.433430021628737" lon="10.161632001399994">
        <ele>1288.78</ele>
        <time>2018-09-18T07:01:46Z</time>
      </trkpt>
      <trkpt lat="47.433476038277149" lon="10.161438966169953">
        <ele>1286.8599999999999</ele>
        <time>2018-09-18T07:01:47Z</time>
      </trkpt>
      <trkpt lat="47.43352398276329" lon="10.161239979788661">
        <ele>1284.9400000000001</ele>
        <time>2018-09-18T07:01:48Z</time>
      </trkpt>
      <trkpt lat="47.433569999411702" lon="10.161045016720891">
        <ele>1283.02</ele>
        <time>2018-09-18T07:01:49Z</time>
      </trkpt>
      <trkpt lat="47.433612998574972" lon="10.160853993147612">
        <ele>1281.0899999999999</ele>
        <time>2018-09-18T07:01:50Z</time>
      </trkpt>
      <trkpt lat="47.433710983023047" lon="10.160701023414731">
        <ele>1279.6500000000001</ele>
        <time>2018-09-18T07:01:51Z</time>
      </trkpt>
      <trkpt lat="47.433810979127884" lon="10.160578982904553">
        <ele>1278.21</ele>
        <time>2018-09-18T07:01:52Z</time>
      </trkpt>
      <trkpt lat="47.433922961354256" lon="10.160444034263492">
        <ele>1276.77</ele>
        <time>2018-09-18T07:01:53Z</time>
      </trkpt>
      <trkpt lat="47.433981969952583" lon="10.160281006246805">
        <ele>1275.3299999999999</ele>
        <time>2018-09-18T07:01:54Z</time>
      </trkpt>
      <trkpt lat="47.43403703905642" lon="10.160086965188384">
        <ele>1274.3599999999999</ele>
        <time>2018-09-18T07:01:55Z</time>
      </trkpt>
      <trkpt lat="47.434456972405314" lon="10.15827395953238">
        <ele>1261.3900000000001</ele>
        <time>2018-09-18T07:02:03Z</time>
      </trkpt>
      <trkpt lat="47.434481028467417" lon="10.158043960109353">
        <ele>1259.9400000000001</ele>
        <time>2018-09-18T07:02:04Z</time>
      </trkpt>
      <trkpt lat="47.434463007375598" lon="10.15781999565661">
        <ele>1258.02</ele>
        <time>2018-09-18T07:02:05Z</time>
      </trkpt>
      <trkpt lat="47.434434005990624" lon="10.157596031203866">
        <ele>1256.0999999999999</ele>
        <time>2018-09-18T07:02:06Z</time>
      </trkpt>
      <trkpt lat="47.434406010434031" lon="10.157376006245613">
        <ele>1254.6600000000001</ele>
        <time>2018-09-18T07:02:07Z</time>
      </trkpt>
      <trkpt lat="47.434415984898806" lon="10.157139971852303">
        <ele>1253.22</ele>
        <time>2018-09-18T07:02:08Z</time>
      </trkpt>
      <trkpt lat="47.434448003768921" lon="10.156916007399559">
        <ele>1251.29</ele>
        <time>2018-09-18T07:02:09Z</time>
      </trkpt>
      <trkpt lat="47.434481028467417" lon="10.156686007976532">
        <ele>1249.3699999999999</ele>
        <time>2018-09-18T07:02:10Z</time>
      </trkpt>
      <trkpt lat="47.434502989053726" lon="10.156447039917111">
        <ele>1247.45</ele>
        <time>2018-09-18T07:02:11Z</time>
      </trkpt>
      <trkpt lat="47.434507012367249" lon="10.156198013573885">
        <ele>1245.53</ele>
        <time>2018-09-18T07:02:12Z</time>
      </trkpt>
      <trkpt lat="47.434522015973926" lon="10.154982972890139">
        <ele>1237.3499999999999</ele>
        <time>2018-09-18T07:02:17Z</time>
      </trkpt>
      <trkpt lat="47.434547999873757" lon="10.154732018709183">
        <ele>1235.4300000000001</ele>
        <time>2018-09-18T07:02:18Z</time>
      </trkpt>
      <trkpt lat="47.434624023735523" lon="10.154504030942917">
        <ele>1233.51</ele>
        <time>2018-09-18T07:02:19Z</time>
      </trkpt>
      <trkpt lat="47.434721002355218" lon="10.15429699793458">
        <ele>1231.5899999999999</ele>
        <time>2018-09-18T07:02:20Z</time>
      </trkpt>
      <trkpt lat="47.434823010116816" lon="10.154074961319566">
        <ele>1229.6600000000001</ele>
        <time>2018-09-18T07:02:21Z</time>
      </trkpt>
      <trkpt lat="47.434927029535174" lon="10.153850996866822">
        <ele>1227.74</ele>
        <time>2018-09-18T07:02:22Z</time>
      </trkpt>
      <trkpt lat="47.434999030083418" lon="10.153599036857486">
        <ele>1225.8199999999999</ele>
        <time>2018-09-18T07:02:23Z</time>
      </trkpt>
      <trkpt lat="47.435041023418307" lon="10.153341041877866">
        <ele>1223.4200000000001</ele>
        <time>2018-09-18T07:02:24Z</time>
      </trkpt>
      <trkpt lat="47.435084022581577" lon="10.153079023584723">
        <ele>1220.53</ele>
        <time>2018-09-18T07:02:25Z</time>
      </trkpt>
      <trkpt lat="47.435128027573228" lon="10.152810970321298">
        <ele>1218.1300000000001</ele>
        <time>2018-09-18T07:02:26Z</time>
      </trkpt>
      <trkpt lat="47.435272028669715" lon="10.152061963453889">
        <ele>1212.8399999999999</ele>
        <time>2018-09-18T07:02:29Z</time>
      </trkpt>
      <trkpt lat="47.435360960662365" lon="10.151859959587455">
        <ele>1211.4000000000001</ele>
        <time>2018-09-18T07:02:30Z</time>
      </trkpt>
      <trkpt lat="47.435539998114109" lon="10.151501968502998">
        <ele>1208.51</ele>
        <time>2018-09-18T07:02:32Z</time>
      </trkpt>
      <trkpt lat="47.435594983398914" lon="10.151295019313693">
        <ele>1207.0699999999999</ele>
        <time>2018-09-18T07:02:33Z</time>
      </trkpt>
      <trkpt lat="47.435615016147494" lon="10.151077006012201">
        <ele>1205.6300000000001</ele>
        <time>2018-09-18T07:02:34Z</time>
      </trkpt>
      <trkpt lat="47.435600012540817" lon="10.150853041559458">
        <ele>1204.1900000000001</ele>
        <time>2018-09-18T07:02:35Z</time>
      </trkpt>
      <trkpt lat="47.43558500893414" lon="10.15062103047967">
        <ele>1202.75</ele>
        <time>2018-09-18T07:02:36Z</time>
      </trkpt>
      <trkpt lat="47.435570005327463" lon="10.150378039106727">
        <ele>1201.3</ele>
        <time>2018-09-18T07:02:37Z</time>
      </trkpt>
      <trkpt lat="47.435555001720786" lon="10.150114009156823">
        <ele>1199.8599999999999</ele>
        <time>2018-09-18T07:02:38Z</time>
      </trkpt>
      <trkpt lat="47.435596995055676" lon="10.149907981976867">
        <ele>1197.9400000000001</ele>
        <time>2018-09-18T07:02:39Z</time>
      </trkpt>
      <trkpt lat="47.435685005038977" lon="10.14965501613915">
        <ele>1196.5</ele>
        <time>2018-09-18T07:02:40Z</time>
      </trkpt>
      <trkpt lat="47.435768991708755" lon="10.14944102615118">
        <ele>1195.0599999999999</ele>
        <time>2018-09-18T07:02:41Z</time>
      </trkpt>
      <trkpt lat="47.435876028612256" lon="10.149254025891423">
        <ele>1194.0899999999999</ele>
        <time>2018-09-18T07:02:42Z</time>
      </trkpt>
      <trkpt lat="47.435987005010247" lon="10.149061996489763">
        <ele>1192.6500000000001</ele>
        <time>2018-09-18T07:02:43Z</time>
      </trkpt>
      <trkpt lat="47.436094963923097" lon="10.148872984573245">
        <ele>1191.6900000000001</ele>
        <time>2018-09-18T07:02:44Z</time>
      </trkpt>
      <trkpt lat="47.436203006654978" lon="10.148685984313488">
        <ele>1190.73</ele>
        <time>2018-09-18T07:02:45Z</time>
      </trkpt>
      <trkpt lat="47.436279030516744" lon="10.148467971011996">
        <ele>1190.25</ele>
        <time>2018-09-18T07:02:46Z</time>
      </trkpt>
      <trkpt lat="47.43633502162993" lon="10.148241994902492">
        <ele>1189.77</ele>
        <time>2018-09-18T07:02:47Z</time>
      </trkpt>
      <trkpt lat="47.436370979994535" lon="10.148034961894155">
        <ele>1188.8099999999999</ele>
        <time>2018-09-18T07:02:48Z</time>
      </trkpt>
      <trkpt lat="47.43637902662158" lon="10.14780999161303">
        <ele>1188.3299999999999</ele>
        <time>2018-09-18T07:02:49Z</time>
      </trkpt>
      <trkpt lat="47.436386989429593" lon="10.147602036595345">
        <ele>1187.3699999999999</ele>
        <time>2018-09-18T07:02:50Z</time>
      </trkpt>
      <trkpt lat="47.436424037441611" lon="10.147405983880162">
        <ele>1185.9200000000001</ele>
        <time>2018-09-18T07:02:51Z</time>
      </trkpt>
      <trkpt lat="47.436513975262642" lon="10.147260976955295">
        <ele>1184.96</ele>
        <time>2018-09-18T07:02:52Z</time>
      </trkpt>
      <trkpt lat="47.436605002731085" lon="10.147128961980343">
        <ele>1183.04</ele>
        <time>2018-09-18T07:02:53Z</time>
      </trkpt>
      <trkpt lat="47.436699969694018" lon="10.1469930075109">
        <ele>1181.5999999999999</ele>
        <time>2018-09-18T07:02:54Z</time>
      </trkpt>
      <trkpt lat="47.436776999384165" lon="10.14688303694129">
        <ele>1179.6700000000001</ele>
        <time>2018-09-18T07:02:55Z</time>
      </trkpt>
      <trkpt lat="47.436837013810873" lon="10.146654965355992">
        <ele>1178.23</ele>
        <time>2018-09-18T07:02:56Z</time>
      </trkpt>
      <trkpt lat="47.436888981610537" lon="10.146460002288222">
        <ele>1176.79</ele>
        <time>2018-09-18T07:02:57Z</time>
      </trkpt>
      <trkpt lat="47.436942039057612" lon="10.146263027563691">
        <ele>1175.8299999999999</ele>
        <time>2018-09-18T07:02:58Z</time>
      </trkpt>
      <trkpt lat="47.437014961615205" lon="10.146073009818792">
        <ele>1174.3900000000001</ele>
        <time>2018-09-18T07:02:59Z</time>
      </trkpt>
      <trkpt lat="47.437098026275635" lon="10.145885003730655">
        <ele>1173.4300000000001</ele>
        <time>2018-09-18T07:03:00Z</time>
      </trkpt>
      <trkpt lat="47.437199028208852" lon="10.145730022341013">
        <ele>1172.47</ele>
        <time>2018-09-18T07:03:01Z</time>
      </trkpt>
      <trkpt lat="47.437300030142069" lon="10.145575040951371">
        <ele>1171.02</ele>
        <time>2018-09-18T07:03:02Z</time>
      </trkpt>
      <trkpt lat="47.437503961846232" lon="10.145327020436525">
        <ele>1169.0999999999999</ele>
        <time>2018-09-18T07:03:04Z</time>
      </trkpt>
      <trkpt lat="47.437610998749733" lon="10.145228030160069">
        <ele>1168.1400000000001</ele>
        <time>2018-09-18T07:03:05Z</time>
      </trkpt>
      <trkpt lat="47.437916016206145" lon="10.144945979118347">
        <ele>1164.29</ele>
        <time>2018-09-18T07:03:08Z</time>
      </trkpt>
      <trkpt lat="47.438006037846208" lon="10.144799966365099">
        <ele>1162.8499999999999</ele>
        <time>2018-09-18T07:03:09Z</time>
      </trkpt>
      <trkpt lat="47.438660999760032" lon="10.1434460375458">
        <ele>1152.76</ele>
        <time>2018-09-18T07:03:17Z</time>
      </trkpt>
      <trkpt lat="47.438828973099589" lon="10.143162980675697">
        <ele>1149.3900000000001</ele>
        <time>2018-09-18T07:03:19Z</time>
      </trkpt>
      <trkpt lat="47.439176989719272" lon="10.142672974616289">
        <ele>1141.22</ele>
        <time>2018-09-18T07:03:25Z</time>
      </trkpt>
      <trkpt lat="47.439223006367683" lon="10.142612038180232">
        <ele>1138.8199999999999</ele>
        <time>2018-09-18T07:03:27Z</time>
      </trkpt>
      <trkpt lat="47.43923700414598" lon="10.142594017088413">
        <ele>1137.8599999999999</ele>
        <time>2018-09-18T07:03:28Z</time>
      </trkpt>
      <trkpt lat="47.439251001924276" lon="10.142574990168214">
        <ele>1136.9000000000001</ele>
        <time>2018-09-18T07:03:29Z</time>
      </trkpt>
      <trkpt lat="47.439286960288882" lon="10.142526961863041">
        <ele>1135.45</ele>
        <time>2018-09-18T07:03:30Z</time>
      </trkpt>
      <trkpt lat="47.439286960288882" lon="10.142526961863041">
        <ele>1134.49</ele>
        <time>2018-09-18T07:03:31Z</time>
      </trkpt>
      <trkpt lat="47.439286960288882" lon="10.142526961863041">
        <ele>1134.01</ele>
        <time>2018-09-18T07:03:32Z</time>
      </trkpt>
      <trkpt lat="47.439286960288882" lon="10.142526961863041">
        <ele>1132.5699999999999</ele>
        <time>2018-09-18T07:03:43Z</time>
      </trkpt>
      <trkpt lat="47.439286960288882" lon="10.142526961863041">
        <ele>1131.1300000000001</ele>
        <time>2018-09-18T07:04:19Z</time>
      </trkpt>
      <trkpt lat="47.439286960288882" lon="10.142526961863041">
        <ele>1131.1300000000001</ele>
        <time>2018-09-18T07:04:41Z</time>
      </trkpt>
      <trkpt lat="47.43930296972394" lon="10.142491003498435">
        <ele>1130.1700000000001</ele>
        <time>2018-09-18T07:04:42Z</time>
      </trkpt>
      <trkpt lat="47.439342029392719" lon="10.142402993515134">
        <ele>1130.1700000000001</ele>
        <time>2018-09-18T07:04:50Z</time>
      </trkpt>
      <trkpt lat="47.439374970272183" lon="10.14232998713851">
        <ele>1129.6900000000001</ele>
        <time>2018-09-18T07:04:51Z</time>
      </trkpt>
      <trkpt lat="47.439415035769343" lon="10.142238959670067">
        <ele>1129.6900000000001</ele>
        <time>2018-09-18T07:04:52Z</time>
      </trkpt>
      <trkpt lat="47.439559958875179" lon="10.141913993284106">
        <ele>1128.73</ele>
        <time>2018-09-18T07:04:55Z</time>
      </trkpt>
      <trkpt lat="47.439631037414074" lon="10.141753982752562">
        <ele>1128.73</ele>
        <time>2018-09-18T07:04:56Z</time>
      </trkpt>
      <trkpt lat="47.440477022901177" lon="10.140574984252453">
        <ele>1123.9200000000001</ele>
        <time>2018-09-18T07:05:05Z</time>
      </trkpt>
      <trkpt lat="47.440804000943899" lon="10.140118002891541">
        <ele>1122</ele>
        <time>2018-09-18T07:05:08Z</time>
      </trkpt>
      <trkpt lat="47.44091397151351" lon="10.13996503315866">
        <ele>1121.03</ele>
        <time>2018-09-18T07:05:09Z</time>
      </trkpt>
      <trkpt lat="47.441046992316842" lon="10.139779960736632">
        <ele>1119.5899999999999</ele>
        <time>2018-09-18T07:05:10Z</time>
      </trkpt>
      <trkpt lat="47.441639006137848" lon="10.139423981308937">
        <ele>1114.3099999999999</ele>
        <time>2018-09-18T07:05:14Z</time>
      </trkpt>
      <trkpt lat="47.441798010841012" lon="10.139264976605773">
        <ele>1112.8599999999999</ele>
        <time>2018-09-18T07:05:15Z</time>
      </trkpt>
      <trkpt lat="47.441892977803946" lon="10.139095997437835">
        <ele>1110.9400000000001</ele>
        <time>2018-09-18T07:05:16Z</time>
      </trkpt>
      <trkpt lat="47.442101016640663" lon="10.138725014403462">
        <ele>1107.0999999999999</ele>
        <time>2018-09-18T07:05:18Z</time>
      </trkpt>
      <trkpt lat="47.442205036059022" lon="10.138540025800467">
        <ele>1104.6900000000001</ele>
        <time>2018-09-18T07:05:19Z</time>
      </trkpt>
      <trkpt lat="47.442317018285394" lon="10.138363000005484">
        <ele>1102.77</ele>
        <time>2018-09-18T07:05:20Z</time>
      </trkpt>
      <trkpt lat="47.442465964704752" lon="10.138236014172435">
        <ele>1100.8499999999999</ele>
        <time>2018-09-18T07:05:21Z</time>
      </trkpt>
      <trkpt lat="47.442620024085045" lon="10.138103999197483">
        <ele>1098.4400000000001</ele>
        <time>2018-09-18T07:05:22Z</time>
      </trkpt>
      <trkpt lat="47.444282993674278" lon="10.136863980442286">
        <ele>1085.47</ele>
        <time>2018-09-18T07:05:32Z</time>
      </trkpt>
      <trkpt lat="47.446625987067819" lon="10.135725969448686">
        <ele>1080.6600000000001</ele>
        <time>2018-09-18T07:05:46Z</time>
      </trkpt>
      <trkpt lat="47.448542006313801" lon="10.134606985375285">
        <ele>1077.78</ele>
        <time>2018-09-18T07:05:58Z</time>
      </trkpt>
      <trkpt lat="47.450015963986516" lon="10.133701991289854">
        <ele>1073.45</ele>
        <time>2018-09-18T07:06:07Z</time>
      </trkpt>
      <trkpt lat="47.451943969354033" lon="10.132903028279543">
        <ele>1072.01</ele>
        <time>2018-09-18T07:06:18Z</time>
      </trkpt>
      <trkpt lat="47.454416966065764" lon="10.131677007302642">
        <ele>1070.0799999999999</ele>
        <time>2018-09-18T07:06:31Z</time>
      </trkpt>
      <trkpt lat="47.456250004470348" lon="10.130585012957454">
        <ele>1072.01</ele>
        <time>2018-09-18T07:06:42Z</time>
      </trkpt>
      <trkpt lat="47.457364965230227" lon="10.129879005253315">
        <ele>1076.3299999999999</ele>
        <time>2018-09-18T07:06:51Z</time>
      </trkpt>
      <trkpt lat="47.458585035055876" lon="10.128539996221662">
        <ele>1079.7</ele>
        <time>2018-09-18T07:07:02Z</time>
      </trkpt>
      <trkpt lat="47.459826981648803" lon="10.126567985862494">
        <ele>1078.26</ele>
        <time>2018-09-18T07:07:14Z</time>
      </trkpt>
      <trkpt lat="47.460897015407681" lon="10.124439988285303">
        <ele>1071.53</ele>
        <time>2018-09-18T07:07:25Z</time>
      </trkpt>
      <trkpt lat="47.461606962606311" lon="10.121981995180249">
        <ele>1063.8399999999999</ele>
        <time>2018-09-18T07:07:36Z</time>
      </trkpt>
      <trkpt lat="47.462496031075716" lon="10.118998037651181">
        <ele>1065.76</ele>
        <time>2018-09-18T07:07:50Z</time>
      </trkpt>
      <trkpt lat="47.463295999914408" lon="10.117038013413548">
        <ele>1069.5999999999999</ele>
        <time>2018-09-18T07:08:00Z</time>
      </trkpt>
      <trkpt lat="47.463757004588842" lon="10.115329027175903">
        <ele>1069.1199999999999</ele>
        <time>2018-09-18T07:08:08Z</time>
      </trkpt>
      <trkpt lat="47.464512968435884" lon="10.112945968285203">
        <ele>1065.76</ele>
        <time>2018-09-18T07:08:19Z</time>
      </trkpt>
      <trkpt lat="47.465082015842199" lon="10.110948979854584">
        <ele>1061.9100000000001</ele>
        <time>2018-09-18T07:08:29Z</time>
      </trkpt>
      <trkpt lat="47.465426009148359" lon="10.10917897336185">
        <ele>1058.0699999999999</ele>
        <time>2018-09-18T07:08:39Z</time>
      </trkpt>
      <trkpt lat="47.465743012726307" lon="10.107518015429378">
        <ele>1052.78</ele>
        <time>2018-09-18T07:08:50Z</time>
      </trkpt>
      <trkpt lat="47.465842003002763" lon="10.106310015544295">
        <ele>1047.97</ele>
        <time>2018-09-18T07:09:00Z</time>
      </trkpt>
      <trkpt lat="47.465808978304267" lon="10.10548297315836">
        <ele>1044.6099999999999</ele>
        <time>2018-09-18T07:09:09Z</time>
      </trkpt>
      <trkpt lat="47.465803027153015" lon="10.105399992316961">
        <ele>1044.6099999999999</ele>
        <time>2018-09-18T07:09:10Z</time>
      </trkpt>
      <trkpt lat="47.465787017717957" lon="10.105190025642514">
        <ele>1044.1300000000001</ele>
        <time>2018-09-18T07:09:12Z</time>
      </trkpt>
      <trkpt lat="47.465786011889577" lon="10.105149038136005">
        <ele>1043.6500000000001</ele>
        <time>2018-09-18T07:09:13Z</time>
      </trkpt>
      <trkpt lat="47.465779976919293" lon="10.104977041482925">
        <ele>1043.1700000000001</ele>
        <time>2018-09-18T07:09:15Z</time>
      </trkpt>
      <trkpt lat="47.465776959434152" lon="10.104890959337354">
        <ele>1043.1700000000001</ele>
        <time>2018-09-18T07:09:16Z</time>
      </trkpt>
      <trkpt lat="47.465774025768042" lon="10.104803033173084">
        <ele>1042.6900000000001</ele>
        <time>2018-09-18T07:09:17Z</time>
      </trkpt>
      <trkpt lat="47.465763967484236" lon="10.104541014879942">
        <ele>1042.6900000000001</ele>
        <time>2018-09-18T07:09:20Z</time>
      </trkpt>
      <trkpt lat="47.465761033818126" lon="10.104456022381783">
        <ele>1042.21</ele>
        <time>2018-09-18T07:09:21Z</time>
      </trkpt>
      <trkpt lat="47.465758016332984" lon="10.104375975206494">
        <ele>1042.21</ele>
        <time>2018-09-18T07:09:22Z</time>
      </trkpt>
      <trkpt lat="47.465748963877559" lon="10.103864008560777">
        <ele>1041.73</ele>
        <time>2018-09-18T07:09:28Z</time>
      </trkpt>
      <trkpt lat="47.465752987191081" lon="10.103771975263953">
        <ele>1041.73</ele>
        <time>2018-09-18T07:09:29Z</time>
      </trkpt>
      <trkpt lat="47.465756004676223" lon="10.103683965280652">
        <ele>1041.73</ele>
        <time>2018-09-18T07:09:30Z</time>
      </trkpt>
      <trkpt lat="47.465759022161365" lon="10.103593021631241">
        <ele>1041.25</ele>
        <time>2018-09-18T07:09:31Z</time>
      </trkpt>
      <trkpt lat="47.465762961655855" lon="10.103495959192514">
        <ele>1041.25</ele>
        <time>2018-09-18T07:09:32Z</time>
      </trkpt>
      <trkpt lat="47.465766984969378" lon="10.103394035249949">
        <ele>1041.25</ele>
        <time>2018-09-18T07:09:33Z</time>
      </trkpt>
      <trkpt lat="47.4657710082829" lon="10.10329001583159">
        <ele>1041.25</ele>
        <time>2018-09-18T07:09:34Z</time>
      </trkpt>
      <trkpt lat="47.465775031596422" lon="10.103180967271328">
        <ele>1041.25</ele>
        <time>2018-09-18T07:09:35Z</time>
      </trkpt>
      <trkpt lat="47.465792968869209" lon="10.102628013119102">
        <ele>1042.6900000000001</ele>
        <time>2018-09-18T07:09:40Z</time>
      </trkpt>
      <trkpt lat="47.465830016881227" lon="10.101509029045701">
        <ele>1045.5699999999999</ele>
        <time>2018-09-18T07:09:49Z</time>
      </trkpt>
      <trkpt lat="47.465817024931312" lon="10.100595988333225">
        <ele>1048.45</ele>
        <time>2018-09-18T07:09:55Z</time>
      </trkpt>
      <trkpt lat="47.465495998039842" lon="10.099027985706925">
        <ele>1052.3</ele>
        <time>2018-09-18T07:10:05Z</time>
      </trkpt>
      <trkpt lat="47.464945977553725" lon="10.096769984811544">
        <ele>1054.22</ele>
        <time>2018-09-18T07:10:17Z</time>
      </trkpt>
      <trkpt lat="47.464539958164096" lon="10.094335963949561">
        <ele>1056.6300000000001</ele>
        <time>2018-09-18T07:10:29Z</time>
      </trkpt>
      <trkpt lat="47.464004019275308" lon="10.092878015711904">
        <ele>1059.99</ele>
        <time>2018-09-18T07:10:38Z</time>
      </trkpt>
      <trkpt lat="47.46388197876513" lon="10.092560006305575">
        <ele>1060.95</ele>
        <time>2018-09-18T07:10:40Z</time>
      </trkpt>
      <trkpt lat="47.463844008743763" lon="10.092383986338973">
        <ele>1060.95</ele>
        <time>2018-09-18T07:10:41Z</time>
      </trkpt>
      <trkpt lat="47.463562963530421" lon="10.090527981519699">
        <ele>1062.3900000000001</ele>
        <time>2018-09-18T07:10:50Z</time>
      </trkpt>
      <trkpt lat="47.463470008224249" lon="10.088774990290403">
        <ele>1059.03</ele>
        <time>2018-09-18T07:10:58Z</time>
      </trkpt>
      <trkpt lat="47.463027024641633" lon="10.087191984057426">
        <ele>1053.26</ele>
        <time>2018-09-18T07:11:06Z</time>
      </trkpt>
      <trkpt lat="47.462215991690755" lon="10.084712030366063">
        <ele>1043.6500000000001</ele>
        <time>2018-09-18T07:11:18Z</time>
      </trkpt>
      <trkpt lat="47.461443012580276" lon="10.082657961174846">
        <ele>1042.6900000000001</ele>
        <time>2018-09-18T07:11:29Z</time>
      </trkpt>
      <trkpt lat="47.46089500375092" lon="10.080546978861094">
        <ele>1042.6900000000001</ele>
        <time>2018-09-18T07:11:39Z</time>
      </trkpt>
      <trkpt lat="47.460607001557946" lon="10.078031988814473">
        <ele>1040.28</ele>
        <time>2018-09-18T07:11:52Z</time>
      </trkpt>
      <trkpt lat="47.460254961624742" lon="10.07559796795249">
        <ele>1039.3199999999999</ele>
        <time>2018-09-18T07:12:05Z</time>
      </trkpt>
      <trkpt lat="47.459828993305564" lon="10.073849000036716">
        <ele>1039.8</ele>
        <time>2018-09-18T07:12:15Z</time>
      </trkpt>
      <trkpt lat="47.459759004414082" lon="10.072648962959647">
        <ele>1040.28</ele>
        <time>2018-09-18T07:12:21Z</time>
      </trkpt>
      <trkpt lat="47.459718016907573" lon="10.072452994063497">
        <ele>1040.28</ele>
        <time>2018-09-18T07:12:22Z</time>
      </trkpt>
      <trkpt lat="47.4596699886024" lon="10.072251996025443">
        <ele>1040.76</ele>
        <time>2018-09-18T07:12:23Z</time>
      </trkpt>
      <trkpt lat="47.459619026631117" lon="10.072055021300912">
        <ele>1041.25</ele>
        <time>2018-09-18T07:12:24Z</time>
      </trkpt>
      <trkpt lat="47.459546020254493" lon="10.071866009384394">
        <ele>1041.73</ele>
        <time>2018-09-18T07:12:25Z</time>
      </trkpt>
      <trkpt lat="47.458920981734991" lon="10.070235980674624">
        <ele>1046.05</ele>
        <time>2018-09-18T07:12:32Z</time>
      </trkpt>
      <trkpt lat="47.458869013935328" lon="10.069977985695004">
        <ele>1047.01</ele>
        <time>2018-09-18T07:12:33Z</time>
      </trkpt>
      <trkpt lat="47.458623005077243" lon="10.069118002429605">
        <ele>1049.9000000000001</ele>
        <time>2018-09-18T07:12:37Z</time>
      </trkpt>
      <trkpt lat="47.457935018464923" lon="10.067365011200309">
        <ele>1046.05</ele>
        <time>2018-09-18T07:12:44Z</time>
      </trkpt>
      <trkpt lat="47.456699023023248" lon="10.064010992646217">
        <ele>1031.1500000000001</ele>
        <time>2018-09-18T07:12:56Z</time>
      </trkpt>
      <trkpt lat="47.456599026918411" lon="10.063755009323359">
        <ele>1030.6700000000001</ele>
        <time>2018-09-18T07:12:57Z</time>
      </trkpt>
      <trkpt lat="47.456529038026929" lon="10.063475975766778">
        <ele>1030.1900000000001</ele>
        <time>2018-09-18T07:12:58Z</time>
      </trkpt>
      <trkpt lat="47.455681040883064" lon="10.060153976082802">
        <ele>1025.3800000000001</ele>
        <time>2018-09-18T07:13:10Z</time>
      </trkpt>
      <trkpt lat="47.455211989581585" lon="10.058549009263515">
        <ele>1019.62</ele>
        <time>2018-09-18T07:13:16Z</time>
      </trkpt>
      <trkpt lat="47.455148035660386" lon="10.058269975706935">
        <ele>1018.65</ele>
        <time>2018-09-18T07:13:17Z</time>
      </trkpt>
      <trkpt lat="47.455096989870071" lon="10.057997982949018">
        <ele>1017.21</ele>
        <time>2018-09-18T07:13:18Z</time>
      </trkpt>
      <trkpt lat="47.455077040940523" lon="10.05771903321147">
        <ele>1016.25</ele>
        <time>2018-09-18T07:13:19Z</time>
      </trkpt>
      <trkpt lat="47.455059019848704" lon="10.05744100548327">
        <ele>1015.29</ele>
        <time>2018-09-18T07:13:20Z</time>
      </trkpt>
      <trkpt lat="47.455065976828337" lon="10.057159038260579">
        <ele>1014.33</ele>
        <time>2018-09-18T07:13:21Z</time>
      </trkpt>
      <trkpt lat="47.455033035948873" lon="10.05632403306663">
        <ele>1010.96</ele>
        <time>2018-09-18T07:13:24Z</time>
      </trkpt>
      <trkpt lat="47.454979978501797" lon="10.056052962318063">
        <ele>1010</ele>
        <time>2018-09-18T07:13:25Z</time>
      </trkpt>
      <trkpt lat="47.454925999045372" lon="10.055779963731766">
        <ele>1009.04</ele>
        <time>2018-09-18T07:13:26Z</time>
      </trkpt>
      <trkpt lat="47.454841006547213" lon="10.055520962923765">
        <ele>1008.08</ele>
        <time>2018-09-18T07:13:27Z</time>
      </trkpt>
      <trkpt lat="47.454738998785615" lon="10.05527101457119">
        <ele>1007.12</ele>
        <time>2018-09-18T07:13:28Z</time>
      </trkpt>
      <trkpt lat="47.454635985195637" lon="10.055016959086061">
        <ele>1005.6799999999999</ele>
        <time>2018-09-18T07:13:29Z</time>
      </trkpt>
      <trkpt lat="47.454531965777278" lon="10.054759969934821">
        <ele>1004.72</ele>
        <time>2018-09-18T07:13:30Z</time>
      </trkpt>
      <trkpt lat="47.453752029687166" lon="10.052300971001387">
        <ele>994.13999999999999</ele>
        <time>2018-09-18T07:13:39Z</time>
      </trkpt>
      <trkpt lat="47.453298987820745" lon="10.049980022013187">
        <ele>986.45000000000005</ele>
        <time>2018-09-18T07:13:47Z</time>
      </trkpt>
      <trkpt lat="47.453241990879178" lon="10.049391025677323">
        <ele>984.04999999999995</ele>
        <time>2018-09-18T07:13:49Z</time>
      </trkpt>
      <trkpt lat="47.453235033899546" lon="10.049089025706053">
        <ele>983.57000000000005</ele>
        <time>2018-09-18T07:13:50Z</time>
      </trkpt>
      <trkpt lat="47.453133026137948" lon="10.046384017914534">
        <ele>985.00999999999999</ele>
        <time>2018-09-18T07:13:59Z</time>
      </trkpt>
      <trkpt lat="47.452885005623102" lon="10.04384296014905">
        <ele>994.62</ele>
        <time>2018-09-18T07:14:08Z</time>
      </trkpt>
      <trkpt lat="47.452828008681536" lon="10.043566022068262">
        <ele>995.10000000000002</ele>
        <time>2018-09-18T07:14:09Z</time>
      </trkpt>
      <trkpt lat="47.452312018722296" lon="10.041920989751816">
        <ele>996.05999999999995</ele>
        <time>2018-09-18T07:14:16Z</time>
      </trkpt>
      <trkpt lat="47.452272959053516" lon="10.041702976450324">
        <ele>995.58000000000004</ele>
        <time>2018-09-18T07:14:17Z</time>
      </trkpt>
      <trkpt lat="47.452245969325304" lon="10.041473982855678">
        <ele>994.62</ele>
        <time>2018-09-18T07:14:18Z</time>
      </trkpt>
      <trkpt lat="47.452274970710278" lon="10.039534997195005">
        <ele>987.88999999999999</ele>
        <time>2018-09-18T07:14:25Z</time>
      </trkpt>
      <trkpt lat="47.452241024002433" lon="10.039236014708877">
        <ele>986.45000000000005</ele>
        <time>2018-09-18T07:14:26Z</time>
      </trkpt>
      <trkpt lat="47.452187966555357" lon="10.038941977545619">
        <ele>985.49000000000001</ele>
        <time>2018-09-18T07:14:27Z</time>
      </trkpt>
      <trkpt lat="47.452118983492255" lon="10.038654981181026">
        <ele>983.57000000000005</ele>
        <time>2018-09-18T07:14:28Z</time>
      </trkpt>
      <trkpt lat="47.452026028186083" lon="10.038381982594728">
        <ele>982.60000000000002</ele>
        <time>2018-09-18T07:14:29Z</time>
      </trkpt>
      <trkpt lat="47.451919997110963" lon="10.038112001493573">
        <ele>981.15999999999997</ele>
        <time>2018-09-18T07:14:30Z</time>
      </trkpt>
      <trkpt lat="47.451816983520985" lon="10.03784897737205">
        <ele>979.72000000000003</ele>
        <time>2018-09-18T07:14:31Z</time>
      </trkpt>
      <trkpt lat="47.451384980231524" lon="10.036478033289313">
        <ele>972.50999999999999</ele>
        <time>2018-09-18T07:14:36Z</time>
      </trkpt>
      <trkpt lat="47.451339969411492" lon="10.036173015832901">
        <ele>971.07000000000005</ele>
        <time>2018-09-18T07:14:37Z</time>
      </trkpt>
      <trkpt lat="47.451301999390125" lon="10.035864980891347">
        <ele>969.63</ele>
        <time>2018-09-18T07:14:38Z</time>
      </trkpt>
      <trkpt lat="47.451194962486625" lon="10.033221999183297">
        <ele>957.61000000000001</ele>
        <time>2018-09-18T07:14:46Z</time>
      </trkpt>
      <trkpt lat="47.450724989175797" lon="10.03058698028326">
        <ele>945.59000000000003</ele>
        <time>2018-09-18T07:14:54Z</time>
      </trkpt>
      <trkpt lat="47.450029039755464" lon="10.027462039142847">
        <ele>935.98000000000002</ele>
        <time>2018-09-18T07:15:04Z</time>
      </trkpt>
      <trkpt lat="47.449311967939138" lon="10.024813022464514">
        <ele>930.69000000000005</ele>
        <time>2018-09-18T07:15:13Z</time>
      </trkpt>
      <trkpt lat="47.448567990213633" lon="10.022102985531092">
        <ele>923.96000000000004</ele>
        <time>2018-09-18T07:15:22Z</time>
      </trkpt>
      <trkpt lat="47.448161970824003" lon="10.018320987001061">
        <ele>915.30999999999995</ele>
        <time>2018-09-18T07:15:34Z</time>
      </trkpt>
      <trkpt lat="47.447991985827684" lon="10.014027021825314">
        <ele>900.88999999999999</ele>
        <time>2018-09-18T07:15:48Z</time>
      </trkpt>
      <trkpt lat="47.447891989722848" lon="10.010257009416819">
        <ele>885.50999999999999</ele>
        <time>2018-09-18T07:16:00Z</time>
      </trkpt>
      <trkpt lat="47.447877991944551" lon="10.008074026554823">
        <ele>886.47000000000003</ele>
        <time>2018-09-18T07:16:07Z</time>
      </trkpt>
      <trkpt lat="47.448232965543866" lon="10.006540976464748">
        <ele>894.15999999999997</ele>
        <time>2018-09-18T07:16:13Z</time>
      </trkpt>
      <trkpt lat="47.449180958792567" lon="10.004929974675179">
        <ele>901.37</ele>
        <time>2018-09-18T07:16:21Z</time>
      </trkpt>
      <trkpt lat="47.450748961418867" lon="10.003345962613821">
        <ele>902.33000000000004</ele>
        <time>2018-09-18T07:16:30Z</time>
      </trkpt>
      <trkpt lat="47.452195007354021" lon="10.001720041036606">
        <ele>905.22000000000003</ele>
        <time>2018-09-18T07:16:39Z</time>
      </trkpt>
      <trkpt lat="47.453318014740944" lon="10.000114990398288">
        <ele>902.82000000000005</ele>
        <time>2018-09-18T07:16:47Z</time>
      </trkpt>
      <trkpt lat="47.454619975760579" lon="9.998746979981661">
        <ele>900.88999999999999</ele>
        <time>2018-09-18T07:16:56Z</time>
      </trkpt>
      <trkpt lat="47.455534022301435" lon="9.99708903953433">
        <ele>900.88999999999999</ele>
        <time>2018-09-18T07:17:05Z</time>
      </trkpt>
      <trkpt lat="47.456229971721768" lon="9.995651040226221">
        <ele>899.92999999999995</ele>
        <time>2018-09-18T07:17:12Z</time>
      </trkpt>
      <trkpt lat="47.45631898753345" lon="9.995435960590839">
        <ele>899.92999999999995</ele>
        <time>2018-09-18T07:17:13Z</time>
      </trkpt>
      <trkpt lat="47.456366010010242" lon="9.995200010016561">
        <ele>899.45000000000005</ele>
        <time>2018-09-18T07:17:14Z</time>
      </trkpt>
      <trkpt lat="47.456395011395216" lon="9.994950983673334">
        <ele>898.97000000000003</ele>
        <time>2018-09-18T07:17:15Z</time>
      </trkpt>
      <trkpt lat="47.45642501860857" lon="9.994697012007237">
        <ele>898.49000000000001</ele>
        <time>2018-09-18T07:17:16Z</time>
      </trkpt>
      <trkpt lat="47.456420995295048" lon="9.994452008977532">
        <ele>897.52999999999997</ele>
        <time>2018-09-18T07:17:17Z</time>
      </trkpt>
      <trkpt lat="47.456405991688371" lon="9.994190996512771">
        <ele>896.57000000000005</ele>
        <time>2018-09-18T07:17:18Z</time>
      </trkpt>
      <trkpt lat="47.456389982253313" lon="9.993922021239996">
        <ele>895.61000000000001</ele>
        <time>2018-09-18T07:17:19Z</time>
      </trkpt>
      <trkpt lat="47.456402974203229" lon="9.991700984537602">
        <ele>889.84000000000003</ele>
        <time>2018-09-18T07:17:27Z</time>
      </trkpt>
      <trkpt lat="47.456282023340464" lon="9.989851014688611">
        <ele>884.07000000000005</ele>
        <time>2018-09-18T07:17:34Z</time>
      </trkpt>
      <trkpt lat="47.456151014193892" lon="9.987279027700424">
        <ele>868.69000000000005</ele>
        <time>2018-09-18T07:17:43Z</time>
      </trkpt>
      <trkpt lat="47.456144979223609" lon="9.985141977667809">
        <ele>857.14999999999998</ele>
        <time>2018-09-18T07:17:51Z</time>
      </trkpt>
      <trkpt lat="47.456337008625269" lon="9.981898013502359">
        <ele>842.25</ele>
        <time>2018-09-18T07:18:02Z</time>
      </trkpt>
      <trkpt lat="47.456703968346119" lon="9.979715030640364">
        <ele>828.30999999999995</ele>
        <time>2018-09-18T07:18:10Z</time>
      </trkpt>
      <trkpt lat="47.456883005797863" lon="9.978087013587356">
        <ele>819.65999999999997</ele>
        <time>2018-09-18T07:18:19Z</time>
      </trkpt>
      <trkpt lat="47.456883005797863" lon="9.975789031013846">
        <ele>813.40999999999997</ele>
        <time>2018-09-18T07:18:30Z</time>
      </trkpt>
      <trkpt lat="47.456981996074319" lon="9.973600013181567">
        <ele>807.15999999999997</ele>
        <time>2018-09-18T07:18:41Z</time>
      </trkpt>
      <trkpt lat="47.457271004095674" lon="9.97135098092258">
        <ele>803.32000000000005</ele>
        <time>2018-09-18T07:18:52Z</time>
      </trkpt>
      <trkpt lat="47.457248037680984" lon="9.968755021691322">
        <ele>799.95000000000005</ele>
        <time>2018-09-18T07:19:05Z</time>
      </trkpt>
      <trkpt lat="47.457033041864634" lon="9.967143014073372">
        <ele>798.99000000000001</ele>
        <time>2018-09-18T07:19:14Z</time>
      </trkpt>
      <trkpt lat="47.456912007182837" lon="9.966244976967573">
        <ele>797.07000000000005</ele>
        <time>2018-09-18T07:19:20Z</time>
      </trkpt>
      <trkpt lat="47.456721989437938" lon="9.965071007609367">
        <ele>795.14999999999998</ele>
        <time>2018-09-18T07:19:28Z</time>
      </trkpt>
      <trkpt lat="47.456694999709725" lon="9.964929018169642">
        <ele>794.19000000000005</ele>
        <time>2018-09-18T07:19:29Z</time>
      </trkpt>
      <trkpt lat="47.456616964191198" lon="9.96434697881341">
        <ele>792.74000000000001</ele>
        <time>2018-09-18T07:19:33Z</time>
      </trkpt>
      <trkpt lat="47.456611013039947" lon="9.964197026565671">
        <ele>792.25999999999999</ele>
        <time>2018-09-18T07:19:34Z</time>
      </trkpt>
      <trkpt lat="47.456604978069663" lon="9.96404598467052">
        <ele>792.25999999999999</ele>
        <time>2018-09-18T07:19:35Z</time>
      </trkpt>
      <trkpt lat="47.456626016646624" lon="9.9638950265944">
        <ele>791.77999999999997</ele>
        <time>2018-09-18T07:19:36Z</time>
      </trkpt>
      <trkpt lat="47.456652000546455" lon="9.963750019669533">
        <ele>791.29999999999995</ele>
        <time>2018-09-18T07:19:37Z</time>
      </trkpt>
      <trkpt lat="47.456677984446287" lon="9.963604006916285">
        <ele>790.82000000000005</ele>
        <time>2018-09-18T07:19:38Z</time>
      </trkpt>
      <trkpt lat="47.456703968346119" lon="9.963461011648178">
        <ele>790.82000000000005</ele>
        <time>2018-09-18T07:19:39Z</time>
      </trkpt>
      <trkpt lat="47.456745039671659" lon="9.96333503164351">
        <ele>790.34000000000003</ele>
        <time>2018-09-18T07:19:40Z</time>
      </trkpt>
      <trkpt lat="47.456796001642942" lon="9.963207961991429">
        <ele>790.34000000000003</ele>
        <time>2018-09-18T07:19:41Z</time>
      </trkpt>
      <trkpt lat="47.457046033814549" lon="9.96256398037076">
        <ele>789.86000000000001</ele>
        <time>2018-09-18T07:19:46Z</time>
      </trkpt>
      <trkpt lat="47.4570900388062" lon="9.962431965395808">
        <ele>789.86000000000001</ele>
        <time>2018-09-18T07:19:47Z</time>
      </trkpt>
      <trkpt lat="47.45717897079885" lon="9.962165001779795">
        <ele>789.38</ele>
        <time>2018-09-18T07:19:49Z</time>
      </trkpt>
      <trkpt lat="47.457650033757091" lon="9.960188968107104">
        <ele>790.34000000000003</ele>
        <time>2018-09-18T07:20:03Z</time>
      </trkpt>
      <trkpt lat="47.457736032083631" lon="9.959594020619988">
        <ele>788.89999999999998</ele>
        <time>2018-09-18T07:20:07Z</time>
      </trkpt>
      <trkpt lat="47.457724967971444" lon="9.95942797511816">
        <ele>788.41999999999996</ele>
        <time>2018-09-18T07:20:08Z</time>
      </trkpt>
      <trkpt lat="47.457591025158763" lon="9.95820295996964">
        <ele>792.74000000000001</ele>
        <time>2018-09-18T07:20:17Z</time>
      </trkpt>
      <trkpt lat="47.457620026543736" lon="9.958067005500197">
        <ele>793.22000000000003</ele>
        <time>2018-09-18T07:20:18Z</time>
      </trkpt>
      <trkpt lat="47.45765196159482" lon="9.957918981090188">
        <ele>793.22000000000003</ele>
        <time>2018-09-18T07:20:19Z</time>
      </trkpt>
      <trkpt lat="47.458086982369423" lon="9.95594403706491">
        <ele>788.41999999999996</ele>
        <time>2018-09-18T07:20:31Z</time>
      </trkpt>
      <trkpt lat="47.458485038951039" lon="9.953998010605574">
        <ele>788.89999999999998</ele>
        <time>2018-09-18T07:20:43Z</time>
      </trkpt>
      <trkpt lat="47.458608001470566" lon="9.953767005354166">
        <ele>788.89999999999998</ele>
        <time>2018-09-18T07:20:46Z</time>
      </trkpt>
      <trkpt lat="47.458690982311964" lon="9.953630967065692">
        <ele>788.41999999999996</ele>
        <time>2018-09-18T07:20:50Z</time>
      </trkpt>
      <trkpt lat="47.458718977868557" lon="9.953514961525798">
        <ele>787.94000000000005</ele>
        <time>2018-09-18T07:20:51Z</time>
      </trkpt>
      <trkpt lat="47.458701962605119" lon="9.953416977077723">
        <ele>788.41999999999996</ele>
        <time>2018-09-18T07:20:52Z</time>
      </trkpt>
      <trkpt lat="47.458675978705287" lon="9.953183038160205">
        <ele>788.41999999999996</ele>
        <time>2018-09-18T07:20:54Z</time>
      </trkpt>
      <trkpt lat="47.458606995642185" lon="9.952243007719517">
        <ele>790.34000000000003</ele>
        <time>2018-09-18T07:21:00Z</time>
      </trkpt>
      <trkpt lat="47.458241963759065" lon="9.950860999524593">
        <ele>796.11000000000001</ele>
        <time>2018-09-18T07:21:08Z</time>
      </trkpt>
      <trkpt lat="47.45818798430264" lon="9.95070300064981">
        <ele>796.59000000000003</ele>
        <time>2018-09-18T07:21:09Z</time>
      </trkpt>
      <trkpt lat="47.457749024033546" lon="9.949340019375086">
        <ele>794.66999999999996</ele>
        <time>2018-09-18T07:21:17Z</time>
      </trkpt>
      <trkpt lat="47.457406036555767" lon="9.94762902148068">
        <ele>795.63</ele>
        <time>2018-09-18T07:21:27Z</time>
      </trkpt>
      <trkpt lat="47.457494968548417" lon="9.945990024134517">
        <ele>793.22000000000003</ele>
        <time>2018-09-18T07:21:36Z</time>
      </trkpt>
      <trkpt lat="47.457340992987156" lon="9.944382039830089">
        <ele>789.38</ele>
        <time>2018-09-18T07:21:45Z</time>
      </trkpt>
      <trkpt lat="47.457311991602182" lon="9.94419302791357">
        <ele>788.89999999999998</ele>
        <time>2018-09-18T07:21:46Z</time>
      </trkpt>
      <trkpt lat="47.457263963297009" lon="9.944005021825433">
        <ele>788.41999999999996</ele>
        <time>2018-09-18T07:21:47Z</time>
      </trkpt>
      <trkpt lat="47.45689800940454" lon="9.942192016169429">
        <ele>787.94000000000005</ele>
        <time>2018-09-18T07:21:56Z</time>
      </trkpt>
      <trkpt lat="47.456711009144783" lon="9.941261960193515">
        <ele>787.94000000000005</ele>
        <time>2018-09-18T07:22:01Z</time>
      </trkpt>
      <trkpt lat="47.456711009144783" lon="9.941073032096028">
        <ele>787.46000000000004</ele>
        <time>2018-09-18T07:22:02Z</time>
      </trkpt>
      <trkpt lat="47.456750990822911" lon="9.940902041271329">
        <ele>786.98000000000002</ele>
        <time>2018-09-18T07:22:03Z</time>
      </trkpt>
      <trkpt lat="47.456812011078" lon="9.940728032961488">
        <ele>786.5</ele>
        <time>2018-09-18T07:22:04Z</time>
      </trkpt>
      <trkpt lat="47.456874037161469" lon="9.940551007166505">
        <ele>786.01999999999998</ele>
        <time>2018-09-18T07:22:05Z</time>
      </trkpt>
      <trkpt lat="47.456937991082668" lon="9.940370041877031">
        <ele>785.52999999999997</ele>
        <time>2018-09-18T07:22:06Z</time>
      </trkpt>
      <trkpt lat="47.457001022994518" lon="9.940188992768526">
        <ele>785.04999999999995</ele>
        <time>2018-09-18T07:22:07Z</time>
      </trkpt>
      <trkpt lat="47.457018038257957" lon="9.93998296558857">
        <ele>784.09000000000003</ele>
        <time>2018-09-18T07:22:08Z</time>
      </trkpt>
      <trkpt lat="47.457026001065969" lon="9.9397689756006">
        <ele>783.61000000000001</ele>
        <time>2018-09-18T07:22:09Z</time>
      </trkpt>
      <trkpt lat="47.457030024379492" lon="9.939551968127489">
        <ele>783.13</ele>
        <time>2018-09-18T07:22:10Z</time>
      </trkpt>
      <trkpt lat="47.45700697414577" lon="9.939332026988268">
        <ele>782.64999999999998</ele>
        <time>2018-09-18T07:22:11Z</time>
      </trkpt>
      <trkpt lat="47.456866996362805" lon="9.937959993258119">
        <ele>777.36000000000001</ele>
        <time>2018-09-18T07:22:17Z</time>
      </trkpt>
      <trkpt lat="47.456807987764478" lon="9.93774700909853">
        <ele>776.39999999999998</ele>
        <time>2018-09-18T07:22:18Z</time>
      </trkpt>
      <trkpt lat="47.456740010529757" lon="9.937543999403715">
        <ele>774.96000000000004</ele>
        <time>2018-09-18T07:22:19Z</time>
      </trkpt>
      <trkpt lat="47.456664992496371" lon="9.937353981658816">
        <ele>774.48000000000002</ele>
        <time>2018-09-18T07:22:20Z</time>
      </trkpt>
      <trkpt lat="47.456566002219915" lon="9.937199000269175">
        <ele>773.51999999999998</ele>
        <time>2018-09-18T07:22:21Z</time>
      </trkpt>
      <trkpt lat="47.456466006115079" lon="9.937056005001068">
        <ele>773.03999999999996</ele>
        <time>2018-09-18T07:22:22Z</time>
      </trkpt>
      <trkpt lat="47.456355029717088" lon="9.936928013339639">
        <ele>773.03999999999996</ele>
        <time>2018-09-18T07:22:23Z</time>
      </trkpt>
      <trkpt lat="47.456243969500065" lon="9.936800021678209">
        <ele>772.55999999999995</ele>
        <time>2018-09-18T07:22:24Z</time>
      </trkpt>
      <trkpt lat="47.456131987273693" lon="9.93667203001678">
        <ele>772.55999999999995</ele>
        <time>2018-09-18T07:22:25Z</time>
      </trkpt>
      <trkpt lat="47.456012964248657" lon="9.936561975628138">
        <ele>772.55999999999995</ele>
        <time>2018-09-18T07:22:26Z</time>
      </trkpt>
      <trkpt lat="47.455885978415608" lon="9.936476983129978">
        <ele>772.55999999999995</ele>
        <time>2018-09-18T07:22:27Z</time>
      </trkpt>
      <trkpt lat="47.455270998179913" lon="9.935984965413809">
        <ele>770.63</ele>
        <time>2018-09-18T07:22:32Z</time>
      </trkpt>
      <trkpt lat="47.455169996246696" lon="9.935864014551044">
        <ele>770.14999999999998</ele>
        <time>2018-09-18T07:22:33Z</time>
      </trkpt>
      <trkpt lat="47.455079974606633" lon="9.935707021504641">
        <ele>769.66999999999996</ele>
        <time>2018-09-18T07:22:34Z</time>
      </trkpt>
      <trkpt lat="47.455018032342196" lon="9.93553401902318">
        <ele>768.71000000000004</ele>
        <time>2018-09-18T07:22:35Z</time>
      </trkpt>
      <trkpt lat="47.454978972673416" lon="9.935328997671604">
        <ele>767.26999999999998</ele>
        <time>2018-09-18T07:22:36Z</time>
      </trkpt>
      <trkpt lat="47.454937985166907" lon="9.935115007683635">
        <ele>766.30999999999995</ele>
        <time>2018-09-18T07:22:37Z</time>
      </trkpt>
      <trkpt lat="47.454938990995288" lon="9.934890037402511">
        <ele>764.87</ele>
        <time>2018-09-18T07:22:38Z</time>
      </trkpt>
      <trkpt lat="47.454951982945204" lon="9.934646040201187">
        <ele>763.41999999999996</ele>
        <time>2018-09-18T07:22:39Z</time>
      </trkpt>
      <trkpt lat="47.45496497489512" lon="9.93439600802958">
        <ele>761.98000000000002</ele>
        <time>2018-09-18T07:22:40Z</time>
      </trkpt>
      <trkpt lat="47.454977966845036" lon="9.934142958372831">
        <ele>760.05999999999995</ele>
        <time>2018-09-18T07:22:41Z</time>
      </trkpt>
      <trkpt lat="47.455036975443363" lon="9.932418968528509">
        <ele>749.49000000000001</ele>
        <time>2018-09-18T07:22:48Z</time>
      </trkpt>
      <trkpt lat="47.455003028735518" lon="9.93220598436892">
        <ele>748.51999999999998</ele>
        <time>2018-09-18T07:22:49Z</time>
      </trkpt>
      <trkpt lat="47.454961035400629" lon="9.93201001547277">
        <ele>747.55999999999995</ele>
        <time>2018-09-18T07:22:50Z</time>
      </trkpt>
      <trkpt lat="47.454891968518496" lon="9.931836007162929">
        <ele>746.60000000000002</ele>
        <time>2018-09-18T07:22:51Z</time>
      </trkpt>
      <trkpt lat="47.454816028475761" lon="9.931673984974623">
        <ele>746.60000000000002</ele>
        <time>2018-09-18T07:22:52Z</time>
      </trkpt>
      <trkpt lat="47.454733969643712" lon="9.931523026898503">
        <ele>746.12</ele>
        <time>2018-09-18T07:22:53Z</time>
      </trkpt>
      <trkpt lat="47.454648977145553" lon="9.931375002488494">
        <ele>745.63999999999999</ele>
        <time>2018-09-18T07:22:54Z</time>
      </trkpt>
      <trkpt lat="47.453682962805033" lon="9.930174965411425">
        <ele>742.75999999999999</ele>
        <time>2018-09-18T07:23:03Z</time>
      </trkpt>
      <trkpt lat="47.452468005940318" lon="9.929209034889936">
        <ele>735.54999999999995</ele>
        <time>2018-09-18T07:23:12Z</time>
      </trkpt>
      <trkpt lat="47.451843973249197" lon="9.928855989128351">
        <ele>730.25999999999999</ele>
        <time>2018-09-18T07:23:17Z</time>
      </trkpt>
      <trkpt lat="47.451741965487599" lon="9.928746018558741">
        <ele>728.82000000000005</ele>
        <time>2018-09-18T07:23:18Z</time>
      </trkpt>
      <trkpt lat="47.451654961332679" lon="9.928614003583789">
        <ele>727.86000000000001</ele>
        <time>2018-09-18T07:23:19Z</time>
      </trkpt>
      <trkpt lat="47.45156804099679" lon="9.928480982780457">
        <ele>726.88999999999999</ele>
        <time>2018-09-18T07:23:20Z</time>
      </trkpt>
      <trkpt lat="47.451479025185108" lon="9.928347039967775">
        <ele>726.40999999999997</ele>
        <time>2018-09-18T07:23:21Z</time>
      </trkpt>
      <trkpt lat="47.451122039929032" lon="9.927597027271986">
        <ele>723.04999999999995</ele>
        <time>2018-09-18T07:23:26Z</time>
      </trkpt>
      <trkpt lat="47.451067976653576" lon="9.92743500508368">
        <ele>722.57000000000005</ele>
        <time>2018-09-18T07:23:27Z</time>
      </trkpt>
      <trkpt lat="47.451060013845563" lon="9.927268037572503">
        <ele>721.61000000000001</ele>
        <time>2018-09-18T07:23:28Z</time>
      </trkpt>
      <trkpt lat="47.451050961390138" lon="9.927089000120759">
        <ele>721.13</ele>
        <time>2018-09-18T07:23:29Z</time>
      </trkpt>
      <trkpt lat="47.451042998582125" lon="9.926909962669015">
        <ele>720.15999999999997</ele>
        <time>2018-09-18T07:23:30Z</time>
      </trkpt>
      <trkpt lat="47.451035035774112" lon="9.926730003207922">
        <ele>719.67999999999995</ele>
        <time>2018-09-18T07:23:31Z</time>
      </trkpt>
      <trkpt lat="47.450799001380801" lon="9.925107015296817">
        <ele>711.99000000000001</ele>
        <time>2018-09-18T07:23:40Z</time>
      </trkpt>
      <trkpt lat="47.450527008622885" lon="9.92440796457231">
        <ele>707.66999999999996</ele>
        <time>2018-09-18T07:23:45Z</time>
      </trkpt>
      <trkpt lat="47.450404968112707" lon="9.924073023721576">
        <ele>705.25999999999999</ele>
        <time>2018-09-18T07:23:48Z</time>
      </trkpt>
      <trkpt lat="47.450380995869637" lon="9.923941008746624">
        <ele>704.77999999999997</ele>
        <time>2018-09-18T07:23:49Z</time>
      </trkpt>
      <trkpt lat="47.450380995869637" lon="9.923816034570336">
        <ele>704.29999999999995</ele>
        <time>2018-09-18T07:23:50Z</time>
      </trkpt>
      <trkpt lat="47.450380995869637" lon="9.923687959089875">
        <ele>703.82000000000005</ele>
        <time>2018-09-18T07:23:51Z</time>
      </trkpt>
      <trkpt lat="47.450397005304694" lon="9.92356700822711">
        <ele>703.34000000000003</ele>
        <time>2018-09-18T07:23:52Z</time>
      </trkpt>
      <trkpt lat="47.450434975326061" lon="9.923457037657499">
        <ele>702.86000000000001</ele>
        <time>2018-09-18T07:23:53Z</time>
      </trkpt>
      <trkpt lat="47.450472023338079" lon="9.923350000753999">
        <ele>702.38</ele>
        <time>2018-09-18T07:23:54Z</time>
      </trkpt>
      <trkpt lat="47.450540000572801" lon="9.923151014372706">
        <ele>700.94000000000005</ele>
        <time>2018-09-18T07:23:56Z</time>
      </trkpt>
      <trkpt lat="47.450575036928058" lon="9.923050012439489">
        <ele>699.98000000000002</ele>
        <time>2018-09-18T07:23:57Z</time>
      </trkpt>
      <trkpt lat="47.450658017769456" lon="9.922732003033161">
        <ele>698.04999999999995</ele>
        <time>2018-09-18T07:24:00Z</time>
      </trkpt>
      <trkpt lat="47.450676038861275" lon="9.922610968351364">
        <ele>697.57000000000005</ele>
        <time>2018-09-18T07:24:01Z</time>
      </trkpt>
      <trkpt lat="47.450692970305681" lon="9.922500997781754">
        <ele>697.09000000000003</ele>
        <time>2018-09-18T07:24:02Z</time>
      </trkpt>
      <trkpt lat="47.450703028589487" lon="9.922389015555382">
        <ele>696.13</ele>
        <time>2018-09-18T07:24:03Z</time>
      </trkpt>
      <trkpt lat="47.450703028589487" lon="9.922274015843868">
        <ele>695.64999999999998</ele>
        <time>2018-09-18T07:24:04Z</time>
      </trkpt>
      <trkpt lat="47.450703028589487" lon="9.922163039445877">
        <ele>695.16999999999996</ele>
        <time>2018-09-18T07:24:05Z</time>
      </trkpt>
      <trkpt lat="47.450696993619204" lon="9.922050973400474">
        <ele>694.69000000000005</ele>
        <time>2018-09-18T07:24:06Z</time>
      </trkpt>
      <trkpt lat="47.45066799223423" lon="9.921745033934712">
        <ele>693.73000000000002</ele>
        <time>2018-09-18T07:24:09Z</time>
      </trkpt>
      <trkpt lat="47.450648965314031" lon="9.921545963734388">
        <ele>692.76999999999998</ele>
        <time>2018-09-18T07:24:11Z</time>
      </trkpt>
      <trkpt lat="47.450638990849257" lon="9.921448985114694">
        <ele>692.28999999999996</ele>
        <time>2018-09-18T07:24:12Z</time>
      </trkpt>
      <trkpt lat="47.450619963929057" lon="9.921243963763118">
        <ele>691.33000000000004</ele>
        <time>2018-09-18T07:24:14Z</time>
      </trkpt>
      <trkpt lat="47.450578976422548" lon="9.921049000695348">
        <ele>690.84000000000003</ele>
        <time>2018-09-18T07:24:16Z</time>
      </trkpt>
      <trkpt lat="47.450522985309362" lon="9.920811038464308">
        <ele>689.88</ele>
        <time>2018-09-18T07:24:19Z</time>
      </trkpt>
      <trkpt lat="47.450506975874305" lon="9.920741971582174">
        <ele>689.88</ele>
        <time>2018-09-18T07:24:20Z</time>
      </trkpt>
      <trkpt lat="47.450490966439247" lon="9.920673994347453">
        <ele>689.39999999999998</ele>
        <time>2018-09-18T07:24:21Z</time>
      </trkpt>
      <trkpt lat="47.450477974489331" lon="9.920615991577506">
        <ele>689.39999999999998</ele>
        <time>2018-09-18T07:24:22Z</time>
      </trkpt>
      <trkpt lat="47.450466994196177" lon="9.920568969100714">
        <ele>688.91999999999996</ele>
        <time>2018-09-18T07:24:23Z</time>
      </trkpt>
      <trkpt lat="47.450216040015221" lon="9.920092038810253">
        <ele>689.39999999999998</ele>
        <time>2018-09-18T07:24:32Z</time>
      </trkpt>
      <trkpt lat="47.449943963438272" lon="9.919600021094084">
        <ele>689.39999999999998</ele>
        <time>2018-09-18T07:24:37Z</time>
      </trkpt>
      <trkpt lat="47.449846984818578" lon="9.919332973659039">
        <ele>689.88</ele>
        <time>2018-09-18T07:24:39Z</time>
      </trkpt>
      <trkpt lat="47.44980700314045" lon="9.919174974784255">
        <ele>689.88</ele>
        <time>2018-09-18T07:24:40Z</time>
      </trkpt>
      <trkpt lat="47.449767021462321" lon="9.91901395842433">
        <ele>689.88</ele>
        <time>2018-09-18T07:24:41Z</time>
      </trkpt>
      <trkpt lat="47.449532998725772" lon="9.917679978534579">
        <ele>686.03999999999996</ele>
        <time>2018-09-18T07:24:49Z</time>
      </trkpt>
      <trkpt lat="47.449483964592218" lon="9.917521979659796">
        <ele>685.55999999999995</ele>
        <time>2018-09-18T07:24:50Z</time>
      </trkpt>
      <trkpt lat="47.449433002620935" lon="9.917360963299871">
        <ele>684.60000000000002</ele>
        <time>2018-09-18T07:24:51Z</time>
      </trkpt>
      <trkpt lat="47.448734035715461" lon="9.915207987651229">
        <ele>678.83000000000004</ele>
        <time>2018-09-18T07:25:04Z</time>
      </trkpt>
      <trkpt lat="47.448621969670057" lon="9.914646986871958">
        <ele>677.87</ele>
        <time>2018-09-18T07:25:07Z</time>
      </trkpt>
      <trkpt lat="47.448581987991929" lon="9.914448000490665">
        <ele>677.38999999999999</ele>
        <time>2018-09-18T07:25:08Z</time>
      </trkpt>
      <trkpt lat="47.448449973016977" lon="9.913788009434938">
        <ele>675.94000000000005</ele>
        <time>2018-09-18T07:25:11Z</time>
      </trkpt>
      <trkpt lat="47.448378978297114" lon="9.913609977811575">
        <ele>675.46000000000004</ele>
        <time>2018-09-18T07:25:12Z</time>
      </trkpt>
      <trkpt lat="47.447841027751565" lon="9.912157980725169">
        <ele>674.01999999999998</ele>
        <time>2018-09-18T07:25:19Z</time>
      </trkpt>
      <trkpt lat="47.44778897613287" lon="9.911940973252058">
        <ele>674.01999999999998</ele>
        <time>2018-09-18T07:25:20Z</time>
      </trkpt>
      <trkpt lat="47.447769027203321" lon="9.91172899492085">
        <ele>673.53999999999996</ele>
        <time>2018-09-18T07:25:21Z</time>
      </trkpt>
      <trkpt lat="47.447752011939883" lon="9.911518022418022">
        <ele>673.53999999999996</ele>
        <time>2018-09-18T07:25:22Z</time>
      </trkpt>
      <trkpt lat="47.447742037475109" lon="9.911311995238066">
        <ele>673.05999999999995</ele>
        <time>2018-09-18T07:25:23Z</time>
      </trkpt>
      <trkpt lat="47.447752011939883" lon="9.911100016906858">
        <ele>673.05999999999995</ele>
        <time>2018-09-18T07:25:24Z</time>
      </trkpt>
      <trkpt lat="47.447783024981618" lon="9.910882003605366">
        <ele>672.58000000000004</ele>
        <time>2018-09-18T07:25:25Z</time>
      </trkpt>
      <trkpt lat="47.448199018836021" lon="9.908210020512343">
        <ele>666.33000000000004</ele>
        <time>2018-09-18T07:25:36Z</time>
      </trkpt>
      <trkpt lat="47.44843396358192" lon="9.90545597858727">
        <ele>653.35000000000002</ele>
        <time>2018-09-18T07:25:46Z</time>
      </trkpt>
      <trkpt lat="47.448466988280416" lon="9.901772970333695">
        <ele>633.64999999999998</ele>
        <time>2018-09-18T07:26:00Z</time>
      </trkpt>
      <trkpt lat="47.448485009372234" lon="9.900392973795533">
        <ele>625.47000000000003</ele>
        <time>2018-09-18T07:26:05Z</time>
      </trkpt>
      <trkpt lat="47.448535971343517" lon="9.900120981037617">
        <ele>624.02999999999997</ele>
        <time>2018-09-18T07:26:06Z</time>
      </trkpt>
      <trkpt lat="47.448589028790593" lon="9.89984798245132">
        <ele>622.11000000000001</ele>
        <time>2018-09-18T07:26:07Z</time>
      </trkpt>
      <trkpt lat="47.448677960783243" lon="9.899298967793584">
        <ele>619.23000000000002</ele>
        <time>2018-09-18T07:26:09Z</time>
      </trkpt>
      <trkpt lat="47.448702016845345" lon="9.899023035541177">
        <ele>617.77999999999997</ele>
        <time>2018-09-18T07:26:10Z</time>
      </trkpt>
      <trkpt lat="47.44882196187973" lon="9.898003963753581">
        <ele>612.01999999999998</ele>
        <time>2018-09-18T07:26:14Z</time>
      </trkpt>
      <trkpt lat="47.448885999619961" lon="9.897787962108851">
        <ele>610.57000000000005</ele>
        <time>2018-09-18T07:26:15Z</time>
      </trkpt>
      <trkpt lat="47.448980966582894" lon="9.897597022354603">
        <ele>608.64999999999998</ele>
        <time>2018-09-18T07:26:16Z</time>
      </trkpt>
      <trkpt lat="47.449071994051337" lon="9.897415973246098">
        <ele>607.21000000000004</ele>
        <time>2018-09-18T07:26:17Z</time>
      </trkpt>
      <trkpt lat="47.449197974056005" lon="9.897289993241429">
        <ele>605.76999999999998</ele>
        <time>2018-09-18T07:26:18Z</time>
      </trkpt>
      <trkpt lat="47.449337029829621" lon="9.897186979651451">
        <ele>604.33000000000004</ele>
        <time>2018-09-18T07:26:19Z</time>
      </trkpt>
      <trkpt lat="47.449496034532785" lon="9.897140963003039">
        <ele>603.36000000000001</ele>
        <time>2018-09-18T07:26:20Z</time>
      </trkpt>
      <trkpt lat="47.449659984558821" lon="9.897093018516898">
        <ele>601.91999999999996</ele>
        <time>2018-09-18T07:26:21Z</time>
      </trkpt>
      <trkpt lat="47.44982703588903" lon="9.897044990211725">
        <ele>600.48000000000002</ele>
        <time>2018-09-18T07:26:22Z</time>
      </trkpt>
      <trkpt lat="47.45015200227499" lon="9.896937031298876">
        <ele>598.08000000000004</ele>
        <time>2018-09-18T07:26:24Z</time>
      </trkpt>
      <trkpt lat="47.450307989493012" lon="9.896848015487194">
        <ele>597.12</ele>
        <time>2018-09-18T07:26:25Z</time>
      </trkpt>
      <trkpt lat="47.450449978932738" lon="9.896729998290539">
        <ele>596.14999999999998</ele>
        <time>2018-09-18T07:26:26Z</time>
      </trkpt>
      <trkpt lat="47.450575958937407" lon="9.896564958617091">
        <ele>595.66999999999996</ele>
        <time>2018-09-18T07:26:27Z</time>
      </trkpt>
      <trkpt lat="47.450702022761106" lon="9.896400002762675">
        <ele>594.71000000000004</ele>
        <time>2018-09-18T07:26:28Z</time>
      </trkpt>
      <trkpt lat="47.450801013037562" lon="9.896190958097577">
        <ele>594.71000000000004</ele>
        <time>2018-09-18T07:26:29Z</time>
      </trkpt>
      <trkpt lat="47.450884999707341" lon="9.895962970331311">
        <ele>594.71000000000004</ele>
        <time>2018-09-18T07:26:30Z</time>
      </trkpt>
      <trkpt lat="47.451797034591436" lon="9.89346700720489">
        <ele>598.55999999999995</ele>
        <time>2018-09-18T07:26:40Z</time>
      </trkpt>
      <trkpt lat="47.451961990445852" lon="9.892982030287385">
        <ele>598.08000000000004</ele>
        <time>2018-09-18T07:26:42Z</time>
      </trkpt>
      <trkpt lat="47.452033990994096" lon="9.892753958702087">
        <ele>597.12</ele>
        <time>2018-09-18T07:26:43Z</time>
      </trkpt>
      <trkpt lat="47.452286034822464" lon="9.891882995143533">
        <ele>592.30999999999995</ele>
        <time>2018-09-18T07:26:47Z</time>
      </trkpt>
      <trkpt lat="47.452434981241822" lon="9.890303006395698">
        <ele>580.76999999999998</ele>
        <time>2018-09-18T07:26:55Z</time>
      </trkpt>
      <trkpt lat="47.452358035370708" lon="9.888276010751724">
        <ele>572.60000000000002</ele>
        <time>2018-09-18T07:27:05Z</time>
      </trkpt>
      <trkpt lat="47.452226020395756" lon="9.885008996352553">
        <ele>574.52999999999997</ele>
        <time>2018-09-18T07:27:20Z</time>
      </trkpt>
      <trkpt lat="47.451941035687923" lon="9.883071016520262">
        <ele>585.10000000000002</ele>
        <time>2018-09-18T07:27:29Z</time>
      </trkpt>
      <trkpt lat="47.451932989060879" lon="9.88287496380508">
        <ele>586.53999999999996</ele>
        <time>2018-09-18T07:27:30Z</time>
      </trkpt>
      <trkpt lat="47.451926032081246" lon="9.882696010172367">
        <ele>587.5</ele>
        <time>2018-09-18T07:27:31Z</time>
      </trkpt>
      <trkpt lat="47.451970959082246" lon="9.882484031841159">
        <ele>588.95000000000005</ele>
        <time>2018-09-18T07:27:32Z</time>
      </trkpt>
      <trkpt lat="47.452011024579406" lon="9.882296025753021">
        <ele>590.38999999999999</ele>
        <time>2018-09-18T07:27:33Z</time>
      </trkpt>
      <trkpt lat="47.452051006257534" lon="9.882103996351361">
        <ele>591.83000000000004</ele>
        <time>2018-09-18T07:27:34Z</time>
      </trkpt>
      <trkpt lat="47.452110014855862" lon="9.881921019405127">
        <ele>593.26999999999998</ele>
        <time>2018-09-18T07:27:35Z</time>
      </trkpt>
      <trkpt lat="47.452195007354021" lon="9.881754973903298">
        <ele>594.71000000000004</ele>
        <time>2018-09-18T07:27:36Z</time>
      </trkpt>
      <trkpt lat="47.45227999985218" lon="9.881588006392121">
        <ele>595.66999999999996</ele>
        <time>2018-09-18T07:27:37Z</time>
      </trkpt>
      <trkpt lat="47.453063037246466" lon="9.879669975489378">
        <ele>611.53999999999996</ele>
        <time>2018-09-18T07:27:48Z</time>
      </trkpt>
      <trkpt lat="47.453163033351302" lon="9.879120038822293">
        <ele>614.89999999999998</ele>
        <time>2018-09-18T07:27:51Z</time>
      </trkpt>
      <trkpt lat="47.453190023079515" lon="9.878974026069045">
        <ele>615.86000000000001</ele>
        <time>2018-09-18T07:27:52Z</time>
      </trkpt>
      <trkpt lat="47.45316001586616" lon="9.878844022750855">
        <ele>616.82000000000005</ele>
        <time>2018-09-18T07:27:53Z</time>
      </trkpt>
      <trkpt lat="47.453127996996045" lon="9.87872801721096">
        <ele>617.77999999999997</ele>
        <time>2018-09-18T07:27:54Z</time>
      </trkpt>
      <trkpt lat="47.45305398479104" lon="9.878676971420646">
        <ele>618.25999999999999</ele>
        <time>2018-09-18T07:27:55Z</time>
      </trkpt>
      <trkpt lat="47.452979972586036" lon="9.878651993349195">
        <ele>619.23000000000002</ele>
        <time>2018-09-18T07:27:56Z</time>
      </trkpt>
      <trkpt lat="47.45290202088654" lon="9.878698009997606">
        <ele>619.71000000000004</ele>
        <time>2018-09-18T07:27:57Z</time>
      </trkpt>
      <trkpt lat="47.452842006459832" lon="9.87877101637423">
        <ele>620.19000000000005</ele>
        <time>2018-09-18T07:27:58Z</time>
      </trkpt>
      <trkpt lat="47.452809987589717" lon="9.878871012479067">
        <ele>620.66999999999996</ele>
        <time>2018-09-18T07:27:59Z</time>
      </trkpt>
      <trkpt lat="47.452780986204743" lon="9.87900503911078">
        <ele>621.63</ele>
        <time>2018-09-18T07:28:00Z</time>
      </trkpt>
      <trkpt lat="47.45275198481977" lon="9.879140993580222">
        <ele>622.11000000000001</ele>
        <time>2018-09-18T07:28:01Z</time>
      </trkpt>
      <trkpt lat="47.452672021463513" lon="9.879512982442975">
        <ele>623.07000000000005</ele>
        <time>2018-09-18T07:28:04Z</time>
      </trkpt>
      <trkpt lat="47.452648971229792" lon="9.879620019346476">
        <ele>623.54999999999995</ele>
        <time>2018-09-18T07:28:05Z</time>
      </trkpt>
      <trkpt lat="47.452613012865186" lon="9.879706017673016">
        <ele>623.54999999999995</ele>
        <time>2018-09-18T07:28:06Z</time>
      </trkpt>
      <trkpt lat="47.452561967074871" lon="9.879742981866002">
        <ele>624.02999999999997</ele>
        <time>2018-09-18T07:28:07Z</time>
      </trkpt>
      <trkpt lat="47.452513016760349" lon="9.879778018221259">
        <ele>624.50999999999999</ele>
        <time>2018-09-18T07:28:08Z</time>
      </trkpt>
      <trkpt lat="47.452462976798415" lon="9.879800984635949">
        <ele>624.50999999999999</ele>
        <time>2018-09-18T07:28:09Z</time>
      </trkpt>
      <trkpt lat="47.452420983463526" lon="9.879806013777852">
        <ele>624.99000000000001</ele>
        <time>2018-09-18T07:28:10Z</time>
      </trkpt>
      <trkpt lat="47.452389970421791" lon="9.879809031262994">
        <ele>624.99000000000001</ele>
        <time>2018-09-18T07:28:11Z</time>
      </trkpt>
      <trkpt lat="47.452332973480225" lon="9.879815988242626">
        <ele>625.96000000000004</ele>
        <time>2018-09-18T07:28:20Z</time>
      </trkpt>
      <trkpt lat="47.452287040650845" lon="9.879829986020923">
        <ele>625.96000000000004</ele>
        <time>2018-09-18T07:28:21Z</time>
      </trkpt>
      <trkpt lat="47.452253010123968" lon="9.879922019317746">
        <ele>625.96000000000004</ele>
        <time>2018-09-18T07:28:22Z</time>
      </trkpt>
      <trkpt lat="47.452207999303937" lon="9.880023021250963">
        <ele>625.96000000000004</ele>
        <time>2018-09-18T07:28:23Z</time>
      </trkpt>
      <trkpt lat="47.452157037332654" lon="9.880137015134096">
        <ele>625.96000000000004</ele>
        <time>2018-09-18T07:28:24Z</time>
      </trkpt>
      <trkpt lat="47.451651021838188" lon="9.881067993119359">
        <ele>624.50999999999999</ele>
        <time>2018-09-18T07:28:30Z</time>
      </trkpt>
      <trkpt lat="47.45083998888731" lon="9.882382024079561">
        <ele>619.23000000000002</ele>
        <time>2018-09-18T07:28:37Z</time>
      </trkpt>
      <trkpt lat="47.450689030811191" lon="9.882518984377384">
        <ele>618.75</ele>
        <time>2018-09-18T07:28:38Z</time>
      </trkpt>
      <trkpt lat="47.450540000572801" lon="9.882656028494239">
        <ele>618.25999999999999</ele>
        <time>2018-09-18T07:28:39Z</time>
      </trkpt>
      <trkpt lat="47.450388036668301" lon="9.88278896547854">
        <ele>617.29999999999995</ele>
        <time>2018-09-18T07:28:40Z</time>
      </trkpt>
      <trkpt lat="47.450218973681331" lon="9.88287303596735">
        <ele>616.34000000000003</ele>
        <time>2018-09-18T07:28:41Z</time>
      </trkpt>
      <trkpt lat="47.450048988685012" lon="9.882955010980368">
        <ele>615.86000000000001</ele>
        <time>2018-09-18T07:28:42Z</time>
      </trkpt>
      <trkpt lat="47.449874980375171" lon="9.882995998486877">
        <ele>615.38</ele>
        <time>2018-09-18T07:28:43Z</time>
      </trkpt>
      <trkpt lat="47.449702983722091" lon="9.88300396129489">
        <ele>614.89999999999998</ele>
        <time>2018-09-18T07:28:44Z</time>
      </trkpt>
      <trkpt lat="47.449538027867675" lon="9.882974037900567">
        <ele>614.41999999999996</ele>
        <time>2018-09-18T07:28:45Z</time>
      </trkpt>
      <trkpt lat="47.44937801733613" lon="9.882945036515594">
        <ele>613.94000000000005</ele>
        <time>2018-09-18T07:28:46Z</time>
      </trkpt>
      <trkpt lat="47.449230998754501" lon="9.88287303596735">
        <ele>613.46000000000004</ele>
        <time>2018-09-18T07:28:47Z</time>
      </trkpt>
      <trkpt lat="47.449094960466027" lon="9.882769016548991">
        <ele>612.98000000000002</ele>
        <time>2018-09-18T07:28:48Z</time>
      </trkpt>
      <trkpt lat="47.448963029310107" lon="9.882669020444155">
        <ele>612.5</ele>
        <time>2018-09-18T07:28:49Z</time>
      </trkpt>
      <trkpt lat="47.448856998234987" lon="9.882588973268867">
        <ele>612.01999999999998</ele>
        <time>2018-09-18T07:28:50Z</time>
      </trkpt>
      <trkpt lat="47.448757002130151" lon="9.882420999929309">
        <ele>611.05999999999995</ele>
        <time>2018-09-18T07:28:51Z</time>
      </trkpt>
      <trkpt lat="47.448664968833327" lon="9.882268030196428">
        <ele>610.57000000000005</ele>
        <time>2018-09-18T07:28:52Z</time>
      </trkpt>
      <trkpt lat="47.448573019355536" lon="9.882114976644516">
        <ele>609.61000000000001</ele>
        <time>2018-09-18T07:28:53Z</time>
      </trkpt>
      <trkpt lat="47.448482997715473" lon="9.881964018568397">
        <ele>608.64999999999998</ele>
        <time>2018-09-18T07:28:54Z</time>
      </trkpt>
      <trkpt lat="47.448387024924159" lon="9.88182102330029">
        <ele>607.21000000000004</ele>
        <time>2018-09-18T07:28:55Z</time>
      </trkpt>
      <trkpt lat="47.447847984731197" lon="9.881158014759421">
        <ele>599.03999999999996</ele>
        <time>2018-09-18T07:29:02Z</time>
      </trkpt>
      <trkpt lat="47.447771960869431" lon="9.881104035302997">
        <ele>598.08000000000004</ele>
        <time>2018-09-18T07:29:03Z</time>
      </trkpt>
      <trkpt lat="47.447656039148569" lon="9.881021976470947">
        <ele>596.63999999999999</ele>
        <time>2018-09-18T07:29:05Z</time>
      </trkpt>
      <trkpt lat="47.447356972843409" lon="9.880961962044239">
        <ele>595.19000000000005</ele>
        <time>2018-09-18T07:29:08Z</time>
      </trkpt>
      <trkpt lat="47.447267035022378" lon="9.880944024771452">
        <ele>594.71000000000004</ele>
        <time>2018-09-18T07:29:09Z</time>
      </trkpt>
      <trkpt lat="47.447107024490833" lon="9.880918962880969">
        <ele>593.75</ele>
        <time>2018-09-18T07:29:11Z</time>
      </trkpt>
      <trkpt lat="47.44690996594727" lon="9.880995992571116">
        <ele>592.78999999999996</ele>
        <time>2018-09-18T07:29:13Z</time>
      </trkpt>
      <trkpt lat="47.446704022586346" lon="9.88109196536243">
        <ele>592.30999999999995</ele>
        <time>2018-09-18T07:29:15Z</time>
      </trkpt>
      <trkpt lat="47.446593968197703" lon="9.881196990609169">
        <ele>592.30999999999995</ele>
        <time>2018-09-18T07:29:16Z</time>
      </trkpt>
      <trkpt lat="47.44647704064846" lon="9.881309978663921">
        <ele>592.30999999999995</ele>
        <time>2018-09-18T07:29:17Z</time>
      </trkpt>
      <trkpt lat="47.446352988481522" lon="9.881426990032196">
        <ele>592.30999999999995</ele>
        <time>2018-09-18T07:29:18Z</time>
      </trkpt>
      <trkpt lat="47.446232037618756" lon="9.881554981693626">
        <ele>592.78999999999996</ele>
        <time>2018-09-18T07:29:19Z</time>
      </trkpt>
      <trkpt lat="47.445273986086249" lon="9.883134970441461">
        <ele>592.30999999999995</ele>
        <time>2018-09-18T07:29:28Z</time>
      </trkpt>
      <trkpt lat="47.444377038627863" lon="9.884401978924871">
        <ele>588.46000000000004</ele>
        <time>2018-09-18T07:29:36Z</time>
      </trkpt>
      <trkpt lat="47.443515965715051" lon="9.885347038507462">
        <ele>581.73000000000002</ele>
        <time>2018-09-18T07:29:45Z</time>
      </trkpt>
      <trkpt lat="47.442611977458" lon="9.885934023186564">
        <ele>575.97000000000003</ele>
        <time>2018-09-18T07:29:53Z</time>
      </trkpt>
      <trkpt lat="47.442326992750168" lon="9.88601197488606">
        <ele>574.03999999999996</ele>
        <time>2018-09-18T07:29:55Z</time>
      </trkpt>
      <trkpt lat="47.442171005532146" lon="9.886022033169866">
        <ele>573.55999999999995</ele>
        <time>2018-09-18T07:29:56Z</time>
      </trkpt>
      <trkpt lat="47.441073982045054" lon="9.886091016232967">
        <ele>567.79999999999995</ele>
        <time>2018-09-18T07:30:02Z</time>
      </trkpt>
      <trkpt lat="47.440873989835382" lon="9.886168967932463">
        <ele>566.35000000000002</ele>
        <time>2018-09-18T07:30:03Z</time>
      </trkpt>
      <trkpt lat="47.439458034932613" lon="9.886844968423247">
        <ele>557.70000000000005</ele>
        <time>2018-09-18T07:30:09Z</time>
      </trkpt>
      <trkpt lat="47.438212987035513" lon="9.887390965595841">
        <ele>549.04999999999995</ele>
        <time>2018-09-18T07:30:15Z</time>
      </trkpt>
      <trkpt lat="47.437891960144043" lon="9.887490961700678">
        <ele>546.64999999999998</ele>
        <time>2018-09-18T07:30:17Z</time>
      </trkpt>
      <trkpt lat="47.43773203343153" lon="9.887533960863948">
        <ele>545.69000000000005</ele>
        <time>2018-09-18T07:30:18Z</time>
      </trkpt>
      <trkpt lat="47.436543982475996" lon="9.887369005009532">
        <ele>538.96000000000004</ele>
        <time>2018-09-18T07:30:25Z</time>
      </trkpt>
      <trkpt lat="47.43638196028769" lon="9.887367999181151">
        <ele>537.99000000000001</ele>
        <time>2018-09-18T07:30:26Z</time>
      </trkpt>
      <trkpt lat="47.436220021918416" lon="9.887418039143086">
        <ele>537.02999999999997</ele>
        <time>2018-09-18T07:30:27Z</time>
      </trkpt>
      <trkpt lat="47.436061017215252" lon="9.887504037469626">
        <ele>536.54999999999995</ele>
        <time>2018-09-18T07:30:28Z</time>
      </trkpt>
      <trkpt lat="47.435924978926778" lon="9.887645021080971">
        <ele>535.59000000000003</ele>
        <time>2018-09-18T07:30:29Z</time>
      </trkpt>
      <trkpt lat="47.435789024457335" lon="9.887806959450245">
        <ele>534.63</ele>
        <time>2018-09-18T07:30:30Z</time>
      </trkpt>
      <trkpt lat="47.435673018917441" lon="9.887981973588467">
        <ele>533.66999999999996</ele>
        <time>2018-09-18T07:30:31Z</time>
      </trkpt>
      <trkpt lat="47.435578973963857" lon="9.88820199854672">
        <ele>532.71000000000004</ele>
        <time>2018-09-18T07:30:32Z</time>
      </trkpt>
      <trkpt lat="47.435485012829304" lon="9.888420011848211">
        <ele>532.23000000000002</ele>
        <time>2018-09-18T07:30:33Z</time>
      </trkpt>
      <trkpt lat="47.43539297953248" lon="9.888628972694278">
        <ele>531.26999999999998</ele>
        <time>2018-09-18T07:30:34Z</time>
      </trkpt>
      <trkpt lat="47.434901967644691" lon="9.890576004981995">
        <ele>526.46000000000004</ele>
        <time>2018-09-18T07:30:43Z</time>
      </trkpt>
      <trkpt lat="47.434818986803293" lon="9.892003023996949">
        <ele>525.98000000000002</ele>
        <time>2018-09-18T07:30:51Z</time>
      </trkpt>
      <trkpt lat="47.434708010405302" lon="9.892912041395903">
        <ele>527.41999999999996</ele>
        <time>2018-09-18T07:30:57Z</time>
      </trkpt>
      <trkpt lat="47.434668028727174" lon="9.893047995865345">
        <ele>527.41999999999996</ele>
        <time>2018-09-18T07:30:58Z</time>
      </trkpt>
      <trkpt lat="47.43461798876524" lon="9.893186967819929">
        <ele>527.89999999999998</ele>
        <time>2018-09-18T07:30:59Z</time>
      </trkpt>
      <trkpt lat="47.434557974338531" lon="9.893301967531443">
        <ele>528.38</ele>
        <time>2018-09-18T07:31:00Z</time>
      </trkpt>
      <trkpt lat="47.43448899127543" lon="9.89342400804162">
        <ele>528.38</ele>
        <time>2018-09-18T07:31:01Z</time>
      </trkpt>
      <trkpt lat="47.434415984898806" lon="9.89355300553143">
        <ele>528.86000000000001</ele>
        <time>2018-09-18T07:31:02Z</time>
      </trkpt>
      <trkpt lat="47.434341972693801" lon="9.893645960837603">
        <ele>528.86000000000001</ele>
        <time>2018-09-18T07:31:03Z</time>
      </trkpt>
      <trkpt lat="47.434259997680783" lon="9.893748974427581">
        <ele>529.34000000000003</ele>
        <time>2018-09-18T07:31:04Z</time>
      </trkpt>
      <trkpt lat="47.43416897021234" lon="9.893823992460966">
        <ele>528.86000000000001</ele>
        <time>2018-09-18T07:31:05Z</time>
      </trkpt>
      <trkpt lat="47.434071991592646" lon="9.89389599300921">
        <ele>528.86000000000001</ele>
        <time>2018-09-18T07:31:06Z</time>
      </trkpt>
      <trkpt lat="47.432897016406059" lon="9.894904000684619">
        <ele>535.11000000000001</ele>
        <time>2018-09-18T07:31:18Z</time>
      </trkpt>
      <trkpt lat="47.432806994765997" lon="9.895006008446217">
        <ele>536.07000000000005</ele>
        <time>2018-09-18T07:31:19Z</time>
      </trkpt>
      <trkpt lat="47.432461995631456" lon="9.895713021978736">
        <ele>538.96000000000004</ele>
        <time>2018-09-18T07:31:24Z</time>
      </trkpt>
      <trkpt lat="47.432364011183381" lon="9.8960239905864">
        <ele>540.39999999999998</ele>
        <time>2018-09-18T07:31:26Z</time>
      </trkpt>
      <trkpt lat="47.432317994534969" lon="9.896167991682887">
        <ele>541.36000000000001</ele>
        <time>2018-09-18T07:31:27Z</time>
      </trkpt>
      <trkpt lat="47.432271977886558" lon="9.896317021921277">
        <ele>542.32000000000005</ele>
        <time>2018-09-18T07:31:28Z</time>
      </trkpt>
      <trkpt lat="47.432176005095243" lon="9.896622039377689">
        <ele>543.75999999999999</ele>
        <time>2018-09-18T07:31:30Z</time>
      </trkpt>
      <trkpt lat="47.432125965133309" lon="9.896747013553977">
        <ele>543.75999999999999</ele>
        <time>2018-09-18T07:31:31Z</time>
      </trkpt>
      <trkpt lat="47.432039966806769" lon="9.896841980516911">
        <ele>544.72000000000003</ele>
        <time>2018-09-18T07:31:32Z</time>
      </trkpt>
      <trkpt lat="47.431949023157358" lon="9.896943988278508">
        <ele>545.20000000000005</ele>
        <time>2018-09-18T07:31:33Z</time>
      </trkpt>
      <trkpt lat="47.431852966547012" lon="9.897011965513229">
        <ele>546.16999999999996</ele>
        <time>2018-09-18T07:31:34Z</time>
      </trkpt>
      <trkpt lat="47.431741990149021" lon="9.897059993818402">
        <ele>546.64999999999998</ele>
        <time>2018-09-18T07:31:35Z</time>
      </trkpt>
      <trkpt lat="47.431629002094269" lon="9.897079020738602">
        <ele>547.61000000000001</ele>
        <time>2018-09-18T07:31:36Z</time>
      </trkpt>
      <trkpt lat="47.431516014039516" lon="9.897097963839769">
        <ele>548.09000000000003</ele>
        <time>2018-09-18T07:31:37Z</time>
      </trkpt>
      <trkpt lat="47.4313959851861" lon="9.897114979103208">
        <ele>548.09000000000003</ele>
        <time>2018-09-18T07:31:38Z</time>
      </trkpt>
      <trkpt lat="47.431167997419834" lon="9.897114979103208">
        <ele>548.57000000000005</ele>
        <time>2018-09-18T07:31:40Z</time>
      </trkpt>
      <trkpt lat="47.431068001314998" lon="9.897114979103208">
        <ele>548.57000000000005</ele>
        <time>2018-09-18T07:31:41Z</time>
      </trkpt>
      <trkpt lat="47.430964987725019" lon="9.897114979103208">
        <ele>549.04999999999995</ele>
        <time>2018-09-18T07:31:42Z</time>
      </trkpt>
      <trkpt lat="47.430865997448564" lon="9.897114979103208">
        <ele>549.52999999999997</ele>
        <time>2018-09-18T07:31:43Z</time>
      </trkpt>
      <trkpt lat="47.43077396415174" lon="9.897114979103208">
        <ele>549.52999999999997</ele>
        <time>2018-09-18T07:31:44Z</time>
      </trkpt>
      <trkpt lat="47.430692994967103" lon="9.897122019901872">
        <ele>549.52999999999997</ele>
        <time>2018-09-18T07:31:45Z</time>
      </trkpt>
      <trkpt lat="47.43060096167028" lon="9.897140040993691">
        <ele>549.52999999999997</ele>
        <time>2018-09-18T07:31:46Z</time>
      </trkpt>
      <trkpt lat="47.429539980366826" lon="9.897306002676487">
        <ele>547.13</ele>
        <time>2018-09-18T07:31:57Z</time>
      </trkpt>
      <trkpt lat="47.42890203371644" lon="9.897394012659788">
        <ele>544.72000000000003</ele>
        <time>2018-09-18T07:32:06Z</time>
      </trkpt>
      <trkpt lat="47.428869009017944" lon="9.897384960204363">
        <ele>544.72000000000003</ele>
        <time>2018-09-18T07:32:07Z</time>
      </trkpt>
      <trkpt lat="47.428671028465033" lon="9.897338021546602">
        <ele>544.72000000000003</ele>
        <time>2018-09-18T07:32:11Z</time>
      </trkpt>
      <trkpt lat="47.428629035130143" lon="9.897330980747938">
        <ele>544.72000000000003</ele>
        <time>2018-09-18T07:32:12Z</time>
      </trkpt>
      <trkpt lat="47.42858000099659" lon="9.897180022671819">
        <ele>544.24000000000001</ele>
        <time>2018-09-18T07:32:13Z</time>
      </trkpt>
      <trkpt lat="47.428541025146842" lon="9.897180022671819">
        <ele>543.75999999999999</ele>
        <time>2018-09-18T07:32:14Z</time>
      </trkpt>
      <trkpt lat="47.428483022376895" lon="9.897180022671819">
        <ele>543.75999999999999</ele>
        <time>2018-09-18T07:32:15Z</time>
      </trkpt>
      <trkpt lat="47.428429964929819" lon="9.897308014333248">
        <ele>543.27999999999997</ele>
        <time>2018-09-18T07:32:16Z</time>
      </trkpt>
      <trkpt lat="47.428358970209956" lon="9.897337015718222">
        <ele>543.27999999999997</ele>
        <time>2018-09-18T07:32:17Z</time>
      </trkpt>
      <trkpt lat="47.428269032388926" lon="9.89735696464777">
        <ele>543.27999999999997</ele>
        <time>2018-09-18T07:32:18Z</time>
      </trkpt>
      <trkpt lat="47.428179010748863" lon="9.897366017103195">
        <ele>543.27999999999997</ele>
        <time>2018-09-18T07:32:19Z</time>
      </trkpt>
      <trkpt lat="47.428082032129169" lon="9.897374985739589">
        <ele>543.27999999999997</ele>
        <time>2018-09-18T07:32:20Z</time>
      </trkpt>
      <trkpt lat="47.427980024367571" lon="9.897384960204363">
        <ele>542.79999999999995</ele>
        <time>2018-09-18T07:32:21Z</time>
      </trkpt>
      <trkpt lat="47.427869969978929" lon="9.897392001003027">
        <ele>542.79999999999995</ele>
        <time>2018-09-18T07:32:22Z</time>
      </trkpt>
      <trkpt lat="47.426655013114214" lon="9.897395018488169">
        <ele>548.57000000000005</ele>
        <time>2018-09-18T07:32:33Z</time>
      </trkpt>
      <trkpt lat="47.426164001226425" lon="9.897510018199682">
        <ele>552.89999999999998</ele>
        <time>2018-09-18T07:32:38Z</time>
      </trkpt>
      <trkpt lat="47.42606601677835" lon="9.897543964907527">
        <ele>553.38</ele>
        <time>2018-09-18T07:32:39Z</time>
      </trkpt>
      <trkpt lat="47.424929011613131" lon="9.89784998819232">
        <ele>560.11000000000001</ele>
        <time>2018-09-18T07:32:48Z</time>
      </trkpt>
      <trkpt lat="47.423804998397827" lon="9.89793598651886">
        <ele>566.83000000000004</ele>
        <time>2018-09-18T07:32:55Z</time>
      </trkpt>
      <trkpt lat="47.422691965475678" lon="9.898030031472445">
        <ele>575.00999999999999</ele>
        <time>2018-09-18T07:33:04Z</time>
      </trkpt>
      <trkpt lat="47.421799041330814" lon="9.89821401424706">
        <ele>580.28999999999996</ele>
        <time>2018-09-18T07:33:11Z</time>
      </trkpt>
      <trkpt lat="47.420979039743543" lon="9.898570999503136">
        <ele>586.05999999999995</ele>
        <time>2018-09-18T07:33:17Z</time>
      </trkpt>
      <trkpt lat="47.419722005724907" lon="9.899379014968872">
        <ele>595.66999999999996</ele>
        <time>2018-09-18T07:33:28Z</time>
      </trkpt>
      <trkpt lat="47.419586973264813" lon="9.899421008303762">
        <ele>596.63999999999999</ele>
        <time>2018-09-18T07:33:29Z</time>
      </trkpt>
      <trkpt lat="47.41944900713861" lon="9.899454033002257">
        <ele>598.08000000000004</ele>
        <time>2018-09-18T07:33:30Z</time>
      </trkpt>
      <trkpt lat="47.419308023527265" lon="9.899454033002257">
        <ele>599.03999999999996</ele>
        <time>2018-09-18T07:33:31Z</time>
      </trkpt>
      <trkpt lat="47.419165028259158" lon="9.899454033002257">
        <ele>600.48000000000002</ele>
        <time>2018-09-18T07:33:32Z</time>
      </trkpt>
      <trkpt lat="47.419023960828781" lon="9.89941799081862">
        <ele>601.44000000000005</ele>
        <time>2018-09-18T07:33:33Z</time>
      </trkpt>
      <trkpt lat="47.418885994702578" lon="9.899350013583899">
        <ele>602.39999999999998</ele>
        <time>2018-09-18T07:33:34Z</time>
      </trkpt>
      <trkpt lat="47.418750040233135" lon="9.899281030520797">
        <ele>603.36000000000001</ele>
        <time>2018-09-18T07:33:35Z</time>
      </trkpt>
      <trkpt lat="47.418625988066196" lon="9.899170976132155">
        <ele>604.33000000000004</ele>
        <time>2018-09-18T07:33:36Z</time>
      </trkpt>
      <trkpt lat="47.41850595921278" lon="9.899039966985583">
        <ele>605.28999999999996</ele>
        <time>2018-09-18T07:33:37Z</time>
      </trkpt>
      <trkpt lat="47.418386014178395" lon="9.898909963667393">
        <ele>606.25</ele>
        <time>2018-09-18T07:33:38Z</time>
      </trkpt>
      <trkpt lat="47.417342970147729" lon="9.897586964070797">
        <ele>617.29999999999995</ele>
        <time>2018-09-18T07:33:47Z</time>
      </trkpt>
      <trkpt lat="47.416024999693036" lon="9.896444007754326">
        <ele>622.11000000000001</ele>
        <time>2018-09-18T07:33:57Z</time>
      </trkpt>
      <trkpt lat="47.414527991786599" lon="9.895732970908284">
        <ele>621.14999999999998</ele>
        <time>2018-09-18T07:34:09Z</time>
      </trkpt>
      <trkpt lat="47.412987984716892" lon="9.894946999847889">
        <ele>618.25999999999999</ele>
        <time>2018-09-18T07:34:22Z</time>
      </trkpt>
      <trkpt lat="47.412057006731629" lon="9.894065978005529">
        <ele>618.25999999999999</ele>
        <time>2018-09-18T07:34:31Z</time>
      </trkpt>
      <trkpt lat="47.411085041239858" lon="9.892630996182561">
        <ele>619.23000000000002</ele>
        <time>2018-09-18T07:34:43Z</time>
      </trkpt>
      <trkpt lat="47.410078039392829" lon="9.891277989372611">
        <ele>621.14999999999998</ele>
        <time>2018-09-18T07:34:54Z</time>
      </trkpt>
      <trkpt lat="47.408796027302742" lon="9.889686014503241">
        <ele>622.59000000000003</ele>
        <time>2018-09-18T07:35:07Z</time>
      </trkpt>
      <trkpt lat="47.407587021589279" lon="9.888398973271251">
        <ele>623.07000000000005</ele>
        <time>2018-09-18T07:35:18Z</time>
      </trkpt>
      <trkpt lat="47.406874978914857" lon="9.887120984494686">
        <ele>623.07000000000005</ele>
        <time>2018-09-18T07:35:26Z</time>
      </trkpt>
      <trkpt lat="47.406394025310874" lon="9.886064026504755">
        <ele>622.11000000000001</ele>
        <time>2018-09-18T07:35:32Z</time>
      </trkpt>
      <trkpt lat="47.40627801977098" lon="9.885928994044662">
        <ele>622.11000000000001</ele>
        <time>2018-09-18T07:35:33Z</time>
      </trkpt>
      <trkpt lat="47.406156985089183" lon="9.885807037353516">
        <ele>622.11000000000001</ele>
        <time>2018-09-18T07:35:34Z</time>
      </trkpt>
      <trkpt lat="47.405813997611403" lon="9.885400012135506">
        <ele>622.11000000000001</ele>
        <time>2018-09-18T07:35:37Z</time>
      </trkpt>
      <trkpt lat="47.405722970142961" lon="9.885228015482426">
        <ele>622.59000000000003</ele>
        <time>2018-09-18T07:35:38Z</time>
      </trkpt>
      <trkpt lat="47.405646024271846" lon="9.885041015222669">
        <ele>623.07000000000005</ele>
        <time>2018-09-18T07:35:39Z</time>
      </trkpt>
      <trkpt lat="47.405581986531615" lon="9.884847979992628">
        <ele>623.54999999999995</ele>
        <time>2018-09-18T07:35:40Z</time>
      </trkpt>
      <trkpt lat="47.405536975711584" lon="9.884642036631703">
        <ele>624.02999999999997</ele>
        <time>2018-09-18T07:35:41Z</time>
      </trkpt>
      <trkpt lat="47.405490959063172" lon="9.884433997794986">
        <ele>624.50999999999999</ele>
        <time>2018-09-18T07:35:42Z</time>
      </trkpt>
      <trkpt lat="47.405092986300588" lon="9.882609006017447">
        <ele>629.32000000000005</ele>
        <time>2018-09-18T07:35:51Z</time>
      </trkpt>
      <trkpt lat="47.405115030705929" lon="9.881912972778082">
        <ele>630.75999999999999</ele>
        <time>2018-09-18T07:35:54Z</time>
      </trkpt>
      <trkpt lat="47.405396997928619" lon="9.880740009248257">
        <ele>629.32000000000005</ele>
        <time>2018-09-18T07:36:00Z</time>
      </trkpt>
      <trkpt lat="47.405436979606748" lon="9.880482014268637">
        <ele>629.32000000000005</ele>
        <time>2018-09-18T07:36:01Z</time>
      </trkpt>
      <trkpt lat="47.405448965728283" lon="9.880314040929079">
        <ele>629.32000000000005</ele>
        <time>2018-09-18T07:36:02Z</time>
      </trkpt>
      <trkpt lat="47.405402027070522" lon="9.880089992657304">
        <ele>629.32000000000005</ele>
        <time>2018-09-18T07:36:03Z</time>
      </trkpt>
      <trkpt lat="47.405361961573362" lon="9.879900980740786">
        <ele>629.32000000000005</ele>
        <time>2018-09-18T07:36:04Z</time>
      </trkpt>
      <trkpt lat="47.405303036794066" lon="9.879730995744467">
        <ele>628.84000000000003</ele>
        <time>2018-09-18T07:36:05Z</time>
      </trkpt>
      <trkpt lat="47.405233969911933" lon="9.879606021568179">
        <ele>628.36000000000001</ele>
        <time>2018-09-18T07:36:06Z</time>
      </trkpt>
      <trkpt lat="47.405092986300588" lon="9.879465037956834">
        <ele>628.36000000000001</ele>
        <time>2018-09-18T07:36:07Z</time>
      </trkpt>
      <trkpt lat="47.404975974932313" lon="9.879348026588559">
        <ele>628.36000000000001</ele>
        <time>2018-09-18T07:36:08Z</time>
      </trkpt>
      <trkpt lat="47.404859969392419" lon="9.879232021048665">
        <ele>627.88</ele>
        <time>2018-09-18T07:36:09Z</time>
      </trkpt>
      <trkpt lat="47.404349008575082" lon="9.878920968621969">
        <ele>628.36000000000001</ele>
        <time>2018-09-18T07:36:13Z</time>
      </trkpt>
      <trkpt lat="47.404206013306975" lon="9.878880986943841">
        <ele>628.36000000000001</ele>
        <time>2018-09-18T07:36:14Z</time>
      </trkpt>
      <trkpt lat="47.40292701870203" lon="9.878672026097775">
        <ele>626.44000000000005</ele>
        <time>2018-09-18T07:36:23Z</time>
      </trkpt>
      <trkpt lat="47.402482023462653" lon="9.878775039687753">
        <ele>624.50999999999999</ele>
        <time>2018-09-18T07:36:27Z</time>
      </trkpt>
      <trkpt lat="47.402399964630604" lon="9.878821978345513">
        <ele>624.02999999999997</ele>
        <time>2018-09-18T07:36:28Z</time>
      </trkpt>
      <trkpt lat="47.402337016537786" lon="9.878726005554199">
        <ele>624.02999999999997</ele>
        <time>2018-09-18T07:36:29Z</time>
      </trkpt>
      <trkpt lat="47.402268033474684" lon="9.878657022491098">
        <ele>624.02999999999997</ele>
        <time>2018-09-18T07:36:30Z</time>
      </trkpt>
      <trkpt lat="47.40211296826601" lon="9.878722988069058">
        <ele>623.54999999999995</ele>
        <time>2018-09-18T07:36:31Z</time>
      </trkpt>
      <trkpt lat="47.402070974931121" lon="9.878613017499447">
        <ele>624.02999999999997</ele>
        <time>2018-09-18T07:36:32Z</time>
      </trkpt>
      <trkpt lat="47.40202403627336" lon="9.878488965332508">
        <ele>624.02999999999997</ele>
        <time>2018-09-18T07:36:33Z</time>
      </trkpt>
      <trkpt lat="47.401973996311426" lon="9.878357034176588">
        <ele>624.02999999999997</ele>
        <time>2018-09-18T07:36:34Z</time>
      </trkpt>
      <trkpt lat="47.401684988290071" lon="9.877261016517878">
        <ele>624.99000000000001</ele>
        <time>2018-09-18T07:36:40Z</time>
      </trkpt>
      <trkpt lat="47.401582980528474" lon="9.876856002956629">
        <ele>624.50999999999999</ele>
        <time>2018-09-18T07:36:42Z</time>
      </trkpt>
      <trkpt lat="47.401233036071062" lon="9.875841960310936">
        <ele>624.99000000000001</ele>
        <time>2018-09-18T07:36:47Z</time>
      </trkpt>
      <trkpt lat="47.401174027472734" lon="9.875625958666205">
        <ele>624.99000000000001</ele>
        <time>2018-09-18T07:36:48Z</time>
      </trkpt>
      <trkpt lat="47.401162041351199" lon="9.875406017526984">
        <ele>625.47000000000003</ele>
        <time>2018-09-18T07:36:49Z</time>
      </trkpt>
      <trkpt lat="47.401149971410632" lon="9.875184986740351">
        <ele>625.47000000000003</ele>
        <time>2018-09-18T07:36:50Z</time>
      </trkpt>
      <trkpt lat="47.401136979460716" lon="9.874963033944368">
        <ele>625.47000000000003</ele>
        <time>2018-09-18T07:36:51Z</time>
      </trkpt>
      <trkpt lat="47.401115018874407" lon="9.874748038128018">
        <ele>625.96000000000004</ele>
        <time>2018-09-18T07:36:52Z</time>
      </trkpt>
      <trkpt lat="47.401089034974575" lon="9.874528013169766">
        <ele>625.96000000000004</ele>
        <time>2018-09-18T07:36:53Z</time>
      </trkpt>
      <trkpt lat="47.401013011112809" lon="9.873229991644621">
        <ele>627.39999999999998</ele>
        <time>2018-09-18T07:36:59Z</time>
      </trkpt>
      <trkpt lat="47.401038995012641" lon="9.87303402274847">
        <ele>627.39999999999998</ele>
        <time>2018-09-18T07:37:00Z</time>
      </trkpt>
      <trkpt lat="47.401064978912473" lon="9.872842999175191">
        <ele>627.88</ele>
        <time>2018-09-18T07:37:01Z</time>
      </trkpt>
      <trkpt lat="47.401090962812304" lon="9.872644012793899">
        <ele>627.88</ele>
        <time>2018-09-18T07:37:02Z</time>
      </trkpt>
      <trkpt lat="47.401118036359549" lon="9.872441003099084">
        <ele>628.36000000000001</ele>
        <time>2018-09-18T07:37:03Z</time>
      </trkpt>
      <trkpt lat="47.401129016652703" lon="9.872236987575889">
        <ele>628.84000000000003</ele>
        <time>2018-09-18T07:37:04Z</time>
      </trkpt>
      <trkpt lat="47.401110995560884" lon="9.872016040608287">
        <ele>628.84000000000003</ele>
        <time>2018-09-18T07:37:05Z</time>
      </trkpt>
      <trkpt lat="47.401093980297446" lon="9.871805990114808">
        <ele>628.84000000000003</ele>
        <time>2018-09-18T07:37:06Z</time>
      </trkpt>
      <trkpt lat="47.401076965034008" lon="9.871605997905135">
        <ele>628.84000000000003</ele>
        <time>2018-09-18T07:37:07Z</time>
      </trkpt>
      <trkpt lat="47.401088029146194" lon="9.871413968503475">
        <ele>629.32000000000005</ele>
        <time>2018-09-18T07:37:08Z</time>
      </trkpt>
      <trkpt lat="47.401112001389265" lon="9.87122998572886">
        <ele>628.84000000000003</ele>
        <time>2018-09-18T07:37:09Z</time>
      </trkpt>
      <trkpt lat="47.401182996109128" lon="9.871091013774276">
        <ele>628.84000000000003</ele>
        <time>2018-09-18T07:37:10Z</time>
      </trkpt>
      <trkpt lat="47.401262959465384" lon="9.870956987142563">
        <ele>629.32000000000005</ele>
        <time>2018-09-18T07:37:11Z</time>
      </trkpt>
      <trkpt lat="47.401347029954195" lon="9.87082296051085">
        <ele>629.32000000000005</ele>
        <time>2018-09-18T07:37:12Z</time>
      </trkpt>
      <trkpt lat="47.40153101272881" lon="9.870530012995005">
        <ele>628.84000000000003</ele>
        <time>2018-09-18T07:37:14Z</time>
      </trkpt>
      <trkpt lat="47.401607958599925" lon="9.870336977764964">
        <ele>629.32000000000005</ele>
        <time>2018-09-18T07:37:15Z</time>
      </trkpt>
      <trkpt lat="47.401651963591576" lon="9.870129022747278">
        <ele>629.32000000000005</ele>
        <time>2018-09-18T07:37:16Z</time>
      </trkpt>
      <trkpt lat="47.401693034917116" lon="9.869928024709225">
        <ele>629.79999999999995</ele>
        <time>2018-09-18T07:37:17Z</time>
      </trkpt>
      <trkpt lat="47.401649029925466" lon="9.869686961174011">
        <ele>630.27999999999997</ele>
        <time>2018-09-18T07:37:18Z</time>
      </trkpt>
      <trkpt lat="47.401611981913447" lon="9.869479006156325">
        <ele>630.27999999999997</ele>
        <time>2018-09-18T07:37:19Z</time>
      </trkpt>
      <trkpt lat="47.401575017720461" lon="9.86927398480475">
        <ele>630.75999999999999</ele>
        <time>2018-09-18T07:37:20Z</time>
      </trkpt>
      <trkpt lat="47.40148801356554" lon="9.869078015908599">
        <ele>630.75999999999999</ele>
        <time>2018-09-18T07:37:21Z</time>
      </trkpt>
      <trkpt lat="47.4009720236063" lon="9.867371963337064">
        <ele>632.20000000000005</ele>
        <time>2018-09-18T07:37:29Z</time>
      </trkpt>
      <trkpt lat="47.40058503113687" lon="9.864864014089108">
        <ele>636.04999999999995</ele>
        <time>2018-09-18T07:37:39Z</time>
      </trkpt>
      <trkpt lat="47.400193009525537" lon="9.86250501126051">
        <ele>636.52999999999997</ele>
        <time>2018-09-18T07:37:48Z</time>
      </trkpt>
      <trkpt lat="47.400214970111847" lon="9.859132971614599">
        <ele>636.52999999999997</ele>
        <time>2018-09-18T07:38:00Z</time>
      </trkpt>
      <trkpt lat="47.399891009554267" lon="9.857289036735892">
        <ele>634.13</ele>
        <time>2018-09-18T07:38:07Z</time>
      </trkpt>
      <trkpt lat="47.399879023432732" lon="9.857031963765621">
        <ele>634.61000000000001</ele>
        <time>2018-09-18T07:38:08Z</time>
      </trkpt>
      <trkpt lat="47.399841975420713" lon="9.855883978307247">
        <ele>635.09000000000003</ele>
        <time>2018-09-18T07:38:13Z</time>
      </trkpt>
      <trkpt lat="47.399820014834404" lon="9.855670994147658">
        <ele>635.09000000000003</ele>
        <time>2018-09-18T07:38:14Z</time>
      </trkpt>
      <trkpt lat="47.399779027327895" lon="9.855462033301592">
        <ele>635.57000000000005</ele>
        <time>2018-09-18T07:38:15Z</time>
      </trkpt>
      <trkpt lat="47.399736028164625" lon="9.855257011950016">
        <ele>635.57000000000005</ele>
        <time>2018-09-18T07:38:16Z</time>
      </trkpt>
      <trkpt lat="47.399679031223059" lon="9.855060959234834">
        <ele>635.57000000000005</ele>
        <time>2018-09-18T07:38:17Z</time>
      </trkpt>
      <trkpt lat="47.399617005139589" lon="9.854872031137347">
        <ele>635.57000000000005</ele>
        <time>2018-09-18T07:38:18Z</time>
      </trkpt>
      <trkpt lat="47.399538969621062" lon="9.854696011170745">
        <ele>635.57000000000005</ele>
        <time>2018-09-18T07:38:19Z</time>
      </trkpt>
      <trkpt lat="47.399459006264806" lon="9.854517979547381">
        <ele>636.04999999999995</ele>
        <time>2018-09-18T07:38:20Z</time>
      </trkpt>
      <trkpt lat="47.399379964917898" lon="9.85434103757143">
        <ele>636.04999999999995</ele>
        <time>2018-09-18T07:38:21Z</time>
      </trkpt>
      <trkpt lat="47.399281980469823" lon="9.854177003726363">
        <ele>636.04999999999995</ele>
        <time>2018-09-18T07:38:22Z</time>
      </trkpt>
      <trkpt lat="47.39888702519238" lon="9.853565040975809">
        <ele>636.52999999999997</ele>
        <time>2018-09-18T07:38:27Z</time>
      </trkpt>
      <trkpt lat="47.398840002715588" lon="9.853469990193844">
        <ele>636.52999999999997</ele>
        <time>2018-09-18T07:38:28Z</time>
      </trkpt>
      <trkpt lat="47.398840002715588" lon="9.853469990193844">
        <ele>636.52999999999997</ele>
        <time>2018-09-18T07:38:29Z</time>
      </trkpt>
      <trkpt lat="47.398783005774021" lon="9.853221969678998">
        <ele>636.04999999999995</ele>
        <time>2018-09-18T07:38:30Z</time>
      </trkpt>
      <trkpt lat="47.398688960820436" lon="9.853213001042604">
        <ele>636.52999999999997</ele>
        <time>2018-09-18T07:38:31Z</time>
      </trkpt>
      <trkpt lat="47.398688960820436" lon="9.853213001042604">
        <ele>636.04999999999995</ele>
        <time>2018-09-18T07:38:32Z</time>
      </trkpt>
      <trkpt lat="47.398573961108923" lon="9.853368988260627">
        <ele>636.52999999999997</ele>
        <time>2018-09-18T07:38:33Z</time>
      </trkpt>
      <trkpt lat="47.39847999997437" lon="9.853378962725401">
        <ele>636.52999999999997</ele>
        <time>2018-09-18T07:38:34Z</time>
      </trkpt>
      <trkpt lat="47.398372963070869" lon="9.853384997695684">
        <ele>636.04999999999995</ele>
        <time>2018-09-18T07:38:35Z</time>
      </trkpt>
      <trkpt lat="47.398254023864865" lon="9.853387009352446">
        <ele>636.52999999999997</ele>
        <time>2018-09-18T07:38:36Z</time>
      </trkpt>
      <trkpt lat="47.397422036156058" lon="9.853475019335747">
        <ele>637.00999999999999</ele>
        <time>2018-09-18T07:38:42Z</time>
      </trkpt>
      <trkpt lat="47.397287003695965" lon="9.853530004620552">
        <ele>637.00999999999999</ele>
        <time>2018-09-18T07:38:43Z</time>
      </trkpt>
      <trkpt lat="47.397160017862916" lon="9.853624971583486">
        <ele>637.49000000000001</ele>
        <time>2018-09-18T07:38:44Z</time>
      </trkpt>
      <trkpt lat="47.397029008716345" lon="9.853723039850593">
        <ele>637.49000000000001</ele>
        <time>2018-09-18T07:38:45Z</time>
      </trkpt>
      <trkpt lat="47.396896993741393" lon="9.853829992935062">
        <ele>637.00999999999999</ele>
        <time>2018-09-18T07:38:46Z</time>
      </trkpt>
      <trkpt lat="47.395569970831275" lon="9.854860967025161">
        <ele>637.97000000000003</ele>
        <time>2018-09-18T07:38:55Z</time>
      </trkpt>
      <trkpt lat="47.394414022564888" lon="9.855068000033498">
        <ele>637.97000000000003</ele>
        <time>2018-09-18T07:39:02Z</time>
      </trkpt>
      <trkpt lat="47.394232973456383" lon="9.85502801835537">
        <ele>637.97000000000003</ele>
        <time>2018-09-18T07:39:03Z</time>
      </trkpt>
      <trkpt lat="47.394062988460064" lon="9.854939002543688">
        <ele>637.49000000000001</ele>
        <time>2018-09-18T07:39:04Z</time>
      </trkpt>
      <trkpt lat="47.393886968493462" lon="9.854847975075245">
        <ele>637.49000000000001</ele>
        <time>2018-09-18T07:39:05Z</time>
      </trkpt>
      <trkpt lat="47.393713966012001" lon="9.854731969535351">
        <ele>637.49000000000001</ele>
        <time>2018-09-18T07:39:06Z</time>
      </trkpt>
      <trkpt lat="47.393546998500824" lon="9.854592997580767">
        <ele>637.49000000000001</ele>
        <time>2018-09-18T07:39:07Z</time>
      </trkpt>
      <trkpt lat="47.393381958827376" lon="9.854438016191125">
        <ele>637.49000000000001</ele>
        <time>2018-09-18T07:39:08Z</time>
      </trkpt>
      <trkpt lat="47.393242986872792" lon="9.854236012324691">
        <ele>637.00999999999999</ele>
        <time>2018-09-18T07:39:09Z</time>
      </trkpt>
      <trkpt lat="47.393103009089828" lon="9.854033002629876">
        <ele>637.00999999999999</ele>
        <time>2018-09-18T07:39:10Z</time>
      </trkpt>
      <trkpt lat="47.392967976629734" lon="9.85382404178381">
        <ele>637.00999999999999</ele>
        <time>2018-09-18T07:39:11Z</time>
      </trkpt>
      <trkpt lat="47.392864041030407" lon="9.853579038754106">
        <ele>636.52999999999997</ele>
        <time>2018-09-18T07:39:12Z</time>
      </trkpt>
      <trkpt lat="47.392759015783668" lon="9.853333029896021">
        <ele>636.52999999999997</ele>
        <time>2018-09-18T07:39:13Z</time>
      </trkpt>
      <trkpt lat="47.392338998615742" lon="9.852342959493399">
        <ele>635.57000000000005</ele>
        <time>2018-09-18T07:39:17Z</time>
      </trkpt>
      <trkpt lat="47.392201032489538" lon="9.852140033617616">
        <ele>635.09000000000003</ele>
        <time>2018-09-18T07:39:18Z</time>
      </trkpt>
      <trkpt lat="47.392059965059161" lon="9.851954961195588">
        <ele>635.09000000000003</ele>
        <time>2018-09-18T07:39:19Z</time>
      </trkpt>
      <trkpt lat="47.391897020861506" lon="9.851820012554526">
        <ele>634.61000000000001</ele>
        <time>2018-09-18T07:39:20Z</time>
      </trkpt>
      <trkpt lat="47.391721000894904" lon="9.851746000349522">
        <ele>634.13</ele>
        <time>2018-09-18T07:39:21Z</time>
      </trkpt>
      <trkpt lat="47.391542969271541" lon="9.851683974266052">
        <ele>633.64999999999998</ele>
        <time>2018-09-18T07:39:22Z</time>
      </trkpt>
      <trkpt lat="47.391365021467209" lon="9.851664025336504">
        <ele>633.64999999999998</ele>
        <time>2018-09-18T07:39:23Z</time>
      </trkpt>
      <trkpt lat="47.391183972358704" lon="9.851709036156535">
        <ele>633.16999999999996</ele>
        <time>2018-09-18T07:39:24Z</time>
      </trkpt>
      <trkpt lat="47.391007030382752" lon="9.851753963157535">
        <ele>632.67999999999995</ele>
        <time>2018-09-18T07:39:25Z</time>
      </trkpt>
      <trkpt lat="47.390848025679588" lon="9.851912967860699">
        <ele>632.20000000000005</ele>
        <time>2018-09-18T07:39:26Z</time>
      </trkpt>
      <trkpt lat="47.390693966299295" lon="9.852067027240992">
        <ele>631.72000000000003</ele>
        <time>2018-09-18T07:39:27Z</time>
      </trkpt>
      <trkpt lat="47.390578966587782" lon="9.852267019450665">
        <ele>631.24000000000001</ele>
        <time>2018-09-18T07:39:28Z</time>
      </trkpt>
      <trkpt lat="47.390467990189791" lon="9.852489978075028">
        <ele>630.75999999999999</ele>
        <time>2018-09-18T07:39:29Z</time>
      </trkpt>
      <trkpt lat="47.390371011570096" lon="9.852724000811577">
        <ele>629.79999999999995</ele>
        <time>2018-09-18T07:39:30Z</time>
      </trkpt>
      <trkpt lat="47.390277972444892" lon="9.852975960820913">
        <ele>629.32000000000005</ele>
        <time>2018-09-18T07:39:31Z</time>
      </trkpt>
      <trkpt lat="47.389858961105347" lon="9.853998972103">
        <ele>625.96000000000004</ele>
        <time>2018-09-18T07:39:35Z</time>
      </trkpt>
      <trkpt lat="47.389729041606188" lon="9.854232994839549">
        <ele>625.47000000000003</ele>
        <time>2018-09-18T07:39:36Z</time>
      </trkpt>
      <trkpt lat="47.388625983148813" lon="9.855592036619782">
        <ele>619.23000000000002</ele>
        <time>2018-09-18T07:39:43Z</time>
      </trkpt>
      <trkpt lat="47.387792989611626" lon="9.856913024559617">
        <ele>614.89999999999998</ele>
        <time>2018-09-18T07:39:49Z</time>
      </trkpt>
      <trkpt lat="47.387685030698776" lon="9.857171019539237">
        <ele>614.41999999999996</ele>
        <time>2018-09-18T07:39:50Z</time>
      </trkpt>
      <trkpt lat="47.387207010760903" lon="9.858492007479072">
        <ele>612.5</ele>
        <time>2018-09-18T07:39:55Z</time>
      </trkpt>
      <trkpt lat="47.386176958680153" lon="9.86033895984292">
        <ele>612.01999999999998</ele>
        <time>2018-09-18T07:40:03Z</time>
      </trkpt>
      <trkpt lat="47.385392999276519" lon="9.862832995131612">
        <ele>615.38</ele>
        <time>2018-09-18T07:40:12Z</time>
      </trkpt>
      <trkpt lat="47.384499991312623" lon="9.866332020610571">
        <ele>620.66999999999996</ele>
        <time>2018-09-18T07:40:25Z</time>
      </trkpt>
      <trkpt lat="47.384297987446189" lon="9.868579041212797">
        <ele>623.07000000000005</ele>
        <time>2018-09-18T07:40:33Z</time>
      </trkpt>
      <trkpt lat="47.384480964392424" lon="9.87058499827981">
        <ele>620.19000000000005</ele>
        <time>2018-09-18T07:40:41Z</time>
      </trkpt>
      <trkpt lat="47.384929982945323" lon="9.872381994500756">
        <ele>619.71000000000004</ele>
        <time>2018-09-18T07:40:48Z</time>
      </trkpt>
      <trkpt lat="47.38563297316432" lon="9.874522984027863">
        <ele>622.11000000000001</ele>
        <time>2018-09-18T07:40:57Z</time>
      </trkpt>
      <trkpt lat="47.386193973943591" lon="9.87692398019135">
        <ele>625.96000000000004</ele>
        <time>2018-09-18T07:41:08Z</time>
      </trkpt>
      <trkpt lat="47.386304028332233" lon="9.878560965880752">
        <ele>626.44000000000005</ele>
        <time>2018-09-18T07:41:16Z</time>
      </trkpt>
      <trkpt lat="47.385961040854454" lon="9.880462987348437">
        <ele>628.84000000000003</ele>
        <time>2018-09-18T07:41:24Z</time>
      </trkpt>
      <trkpt lat="47.385201975703239" lon="9.881982961669564">
        <ele>634.13</ele>
        <time>2018-09-18T07:41:31Z</time>
      </trkpt>
      <trkpt lat="47.384265968576074" lon="9.882997004315257">
        <ele>637.49000000000001</ele>
        <time>2018-09-18T07:41:38Z</time>
      </trkpt>
      <trkpt lat="47.38305302336812" lon="9.884240962564945">
        <ele>637.97000000000003</ele>
        <time>2018-09-18T07:41:47Z</time>
      </trkpt>
      <trkpt lat="47.382932994514704" lon="9.884422011673451">
        <ele>637.97000000000003</ele>
        <time>2018-09-18T07:41:48Z</time>
      </trkpt>
      <trkpt lat="47.382811037823558" lon="9.884604988619685">
        <ele>637.49000000000001</ele>
        <time>2018-09-18T07:41:49Z</time>
      </trkpt>
      <trkpt lat="47.381207998842001" lon="9.886745978146792">
        <ele>636.04999999999995</ele>
        <time>2018-09-18T07:42:01Z</time>
      </trkpt>
      <trkpt lat="47.379776034504175" lon="9.887969987466931">
        <ele>638.45000000000005</ele>
        <time>2018-09-18T07:42:11Z</time>
      </trkpt>
      <trkpt lat="47.378310961648822" lon="9.888484971597791">
        <ele>641.34000000000003</ele>
        <time>2018-09-18T07:42:21Z</time>
      </trkpt>
      <trkpt lat="47.37738199532032" lon="9.888522019609809">
        <ele>644.22000000000003</ele>
        <time>2018-09-18T07:42:28Z</time>
      </trkpt>
      <trkpt lat="47.377077983692288" lon="9.888543980196118">
        <ele>645.17999999999995</ele>
        <time>2018-09-18T07:42:32Z</time>
      </trkpt>
      <trkpt lat="47.377028027549386" lon="9.888548003509641">
        <ele>645.17999999999995</ele>
        <time>2018-09-18T07:42:33Z</time>
      </trkpt>
      <trkpt lat="47.377000031992793" lon="9.88871798850596">
        <ele>645.65999999999997</ele>
        <time>2018-09-18T07:42:34Z</time>
      </trkpt>
      <trkpt lat="47.377024004235864" lon="9.888801975175738">
        <ele>645.65999999999997</ele>
        <time>2018-09-18T07:42:35Z</time>
      </trkpt>
      <trkpt lat="47.37705702893436" lon="9.888895014300942">
        <ele>646.13999999999999</ele>
        <time>2018-09-18T07:42:36Z</time>
      </trkpt>
      <trkpt lat="47.37710002809763" lon="9.888989981263876">
        <ele>646.13999999999999</ele>
        <time>2018-09-18T07:42:37Z</time>
      </trkpt>
      <trkpt lat="47.377140009775758" lon="9.889078997075558">
        <ele>646.13999999999999</ele>
        <time>2018-09-18T07:42:38Z</time>
      </trkpt>
      <trkpt lat="47.37723003141582" lon="9.889278989285231">
        <ele>646.13999999999999</ele>
        <time>2018-09-18T07:42:40Z</time>
      </trkpt>
      <trkpt lat="47.377433963119984" lon="9.889725996181369">
        <ele>645.65999999999997</ele>
        <time>2018-09-18T07:42:45Z</time>
      </trkpt>
      <trkpt lat="47.377447038888931" lon="9.889853987842798">
        <ele>645.65999999999997</ele>
        <time>2018-09-18T07:42:46Z</time>
      </trkpt>
      <trkpt lat="47.377404039725661" lon="9.889928000047803">
        <ele>645.17999999999995</ele>
        <time>2018-09-18T07:42:47Z</time>
      </trkpt>
      <trkpt lat="47.37735802307725" lon="9.890004023909569">
        <ele>645.17999999999995</ele>
        <time>2018-09-18T07:42:48Z</time>
      </trkpt>
      <trkpt lat="47.37731602974236" lon="9.890075018629432">
        <ele>645.17999999999995</ele>
        <time>2018-09-18T07:42:49Z</time>
      </trkpt>
      <trkpt lat="47.37727202475071" lon="9.890148025006056">
        <ele>644.70000000000005</ele>
        <time>2018-09-18T07:42:50Z</time>
      </trkpt>
      <trkpt lat="47.377221984788775" lon="9.890233017504215">
        <ele>644.70000000000005</ele>
        <time>2018-09-18T07:42:51Z</time>
      </trkpt>
      <trkpt lat="47.37667397595942" lon="9.891235996037722">
        <ele>644.22000000000003</ele>
        <time>2018-09-18T07:42:59Z</time>
      </trkpt>
      <trkpt lat="47.376163015142083" lon="9.89217703230679">
        <ele>645.65999999999997</ele>
        <time>2018-09-18T07:43:07Z</time>
      </trkpt>
      <trkpt lat="47.376095959916711" lon="9.892259007319808">
        <ele>646.13999999999999</ele>
        <time>2018-09-18T07:43:08Z</time>
      </trkpt>
      <trkpt lat="47.376007027924061" lon="9.892317010089755">
        <ele>646.13999999999999</ele>
        <time>2018-09-18T07:43:09Z</time>
      </trkpt>
      <trkpt lat="47.375913988798857" lon="9.892357997596264">
        <ele>646.13999999999999</ele>
        <time>2018-09-18T07:43:10Z</time>
      </trkpt>
      <trkpt lat="47.37581399269402" lon="9.892402002587915">
        <ele>646.62</ele>
        <time>2018-09-18T07:43:11Z</time>
      </trkpt>
      <trkpt lat="47.374496022239327" lon="9.892911035567522">
        <ele>645.65999999999997</ele>
        <time>2018-09-18T07:43:22Z</time>
      </trkpt>
      <trkpt lat="47.373133962973952" lon="9.89323197863996">
        <ele>647.59000000000003</ele>
        <time>2018-09-18T07:43:32Z</time>
      </trkpt>
      <trkpt lat="47.371779028326273" lon="9.89299401640892">
        <ele>649.02999999999997</ele>
        <time>2018-09-18T07:43:41Z</time>
      </trkpt>
      <trkpt lat="47.371351970359683" lon="9.892867030575872">
        <ele>649.99000000000001</ele>
        <time>2018-09-18T07:43:45Z</time>
      </trkpt>
      <trkpt lat="47.371255997568369" lon="9.892867030575872">
        <ele>650.47000000000003</ele>
        <time>2018-09-18T07:43:46Z</time>
      </trkpt>
      <trkpt lat="47.371175028383732" lon="9.892902988940477">
        <ele>650.47000000000003</ele>
        <time>2018-09-18T07:43:47Z</time>
      </trkpt>
      <trkpt lat="47.371091041713953" lon="9.892966020852327">
        <ele>650.47000000000003</ele>
        <time>2018-09-18T07:43:48Z</time>
      </trkpt>
      <trkpt lat="47.371033960953355" lon="9.893050007522106">
        <ele>650.47000000000003</ele>
        <time>2018-09-18T07:43:49Z</time>
      </trkpt>
      <trkpt lat="47.370990039780736" lon="9.893182022497058">
        <ele>650.47000000000003</ele>
        <time>2018-09-18T07:43:50Z</time>
      </trkpt>
      <trkpt lat="47.370969001203775" lon="9.893299033865333">
        <ele>650.47000000000003</ele>
        <time>2018-09-18T07:43:51Z</time>
      </trkpt>
      <trkpt lat="47.370977969840169" lon="9.893447980284691">
        <ele>650.47000000000003</ele>
        <time>2018-09-18T07:43:52Z</time>
      </trkpt>
      <trkpt lat="47.370987022295594" lon="9.8935960046947">
        <ele>650.47000000000003</ele>
        <time>2018-09-18T07:43:53Z</time>
      </trkpt>
      <trkpt lat="47.3710229806602" lon="9.893749980255961">
        <ele>650.47000000000003</ele>
        <time>2018-09-18T07:43:54Z</time>
      </trkpt>
      <trkpt lat="47.371061034500599" lon="9.893904961645603">
        <ele>650.47000000000003</ele>
        <time>2018-09-18T07:43:55Z</time>
      </trkpt>
      <trkpt lat="47.371110990643501" lon="9.894063966348767">
        <ele>650.47000000000003</ele>
        <time>2018-09-18T07:43:56Z</time>
      </trkpt>
      <trkpt lat="47.37160200253129" lon="9.895967999473214">
        <ele>651.90999999999997</ele>
        <time>2018-09-18T07:44:07Z</time>
      </trkpt>
      <trkpt lat="47.371965022757649" lon="9.898272017017007">
        <ele>650.47000000000003</ele>
        <time>2018-09-18T07:44:18Z</time>
      </trkpt>
      <trkpt lat="47.372318990528584" lon="9.900626996532083">
        <ele>652.87</ele>
        <time>2018-09-18T07:44:29Z</time>
      </trkpt>
      <trkpt lat="47.372414963319898" lon="9.901783028617501">
        <ele>653.83000000000004</ele>
        <time>2018-09-18T07:44:35Z</time>
      </trkpt>
      <trkpt lat="47.372425021603703" lon="9.901986038312316">
        <ele>653.83000000000004</ele>
        <time>2018-09-18T07:44:36Z</time>
      </trkpt>
      <trkpt lat="47.372383028268814" lon="9.903538031503558">
        <ele>652.87</ele>
        <time>2018-09-18T07:44:43Z</time>
      </trkpt>
      <trkpt lat="47.372326031327248" lon="9.903750009834766">
        <ele>653.35000000000002</ele>
        <time>2018-09-18T07:44:44Z</time>
      </trkpt>
      <trkpt lat="47.372264005243778" lon="9.903967017307878">
        <ele>653.35000000000002</ele>
        <time>2018-09-18T07:44:45Z</time>
      </trkpt>
      <trkpt lat="47.371439980342984" lon="9.906558031216264">
        <ele>657.20000000000005</ele>
        <time>2018-09-18T07:44:56Z</time>
      </trkpt>
      <trkpt lat="47.37110897898674" lon="9.907671986147761">
        <ele>659.60000000000002</ele>
        <time>2018-09-18T07:45:01Z</time>
      </trkpt>
      <trkpt lat="47.371002025902271" lon="9.907833002507687">
        <ele>660.55999999999995</ele>
        <time>2018-09-18T07:45:02Z</time>
      </trkpt>
      <trkpt lat="47.37089297734201" lon="9.907997036352754">
        <ele>661.03999999999996</ele>
        <time>2018-09-18T07:45:03Z</time>
      </trkpt>
      <trkpt lat="47.370783006772399" lon="9.90816199220717">
        <ele>661.51999999999998</ele>
        <time>2018-09-18T07:45:04Z</time>
      </trkpt>
      <trkpt lat="47.370689967647195" lon="9.908330971375108">
        <ele>662.00999999999999</ele>
        <time>2018-09-18T07:45:05Z</time>
      </trkpt>
      <trkpt lat="47.370601035654545" lon="9.908509002998471">
        <ele>662.49000000000001</ele>
        <time>2018-09-18T07:45:06Z</time>
      </trkpt>
      <trkpt lat="47.370558958500624" lon="9.908707989379764">
        <ele>662.49000000000001</ele>
        <time>2018-09-18T07:45:07Z</time>
      </trkpt>
      <trkpt lat="47.37052702344954" lon="9.908930025994778">
        <ele>662.49000000000001</ele>
        <time>2018-09-18T07:45:08Z</time>
      </trkpt>
      <trkpt lat="47.370507996529341" lon="9.909169999882579">
        <ele>662.00999999999999</ele>
        <time>2018-09-18T07:45:09Z</time>
      </trkpt>
      <trkpt lat="47.370395008474588" lon="9.911973997950554">
        <ele>662.97000000000003</ele>
        <time>2018-09-18T07:45:20Z</time>
      </trkpt>
      <trkpt lat="47.370477989315987" lon="9.914309028536081">
        <ele>665.85000000000002</ele>
        <time>2018-09-18T07:45:31Z</time>
      </trkpt>
      <trkpt lat="47.370704971253872" lon="9.916302999481559">
        <ele>665.37</ele>
        <time>2018-09-18T07:45:44Z</time>
      </trkpt>
      <trkpt lat="47.370727015659213" lon="9.916439959779382">
        <ele>664.88999999999999</ele>
        <time>2018-09-18T07:45:45Z</time>
      </trkpt>
      <trkpt lat="47.371008982881904" lon="9.918181970715523">
        <ele>665.85000000000002</ele>
        <time>2018-09-18T07:45:58Z</time>
      </trkpt>
      <trkpt lat="47.371031027287245" lon="9.918313985690475">
        <ele>665.85000000000002</ele>
        <time>2018-09-18T07:45:59Z</time>
      </trkpt>
      <trkpt lat="47.371051982045174" lon="9.919128036126494">
        <ele>666.33000000000004</ele>
        <time>2018-09-18T07:46:05Z</time>
      </trkpt>
      <trkpt lat="47.371051982045174" lon="9.919267008081079">
        <ele>666.80999999999995</ele>
        <time>2018-09-18T07:46:06Z</time>
      </trkpt>
      <trkpt lat="47.37108601257205" lon="9.92027903907001">
        <ele>668.25</ele>
        <time>2018-09-18T07:46:13Z</time>
      </trkpt>
      <trkpt lat="47.371122976765037" lon="9.920723028481007">
        <ele>669.70000000000005</ele>
        <time>2018-09-18T07:46:16Z</time>
      </trkpt>
      <trkpt lat="47.371135968714952" lon="9.920873986557126">
        <ele>670.17999999999995</ele>
        <time>2018-09-18T07:46:17Z</time>
      </trkpt>
      <trkpt lat="47.371133035048842" lon="9.921026034280658">
        <ele>671.13999999999999</ele>
        <time>2018-09-18T07:46:18Z</time>
      </trkpt>
      <trkpt lat="47.37112800590694" lon="9.921184033155441">
        <ele>671.62</ele>
        <time>2018-09-18T07:46:19Z</time>
      </trkpt>
      <trkpt lat="47.371121970936656" lon="9.921345971524715">
        <ele>672.10000000000002</ele>
        <time>2018-09-18T07:46:20Z</time>
      </trkpt>
      <trkpt lat="47.371116019785404" lon="9.921513022854924">
        <ele>672.58000000000004</ele>
        <time>2018-09-18T07:46:21Z</time>
      </trkpt>
      <trkpt lat="47.371077965945005" lon="9.921659035608172">
        <ele>672.58000000000004</ele>
        <time>2018-09-18T07:46:22Z</time>
      </trkpt>
      <trkpt lat="47.371036978438497" lon="9.921816028654575">
        <ele>672.58000000000004</ele>
        <time>2018-09-18T07:46:23Z</time>
      </trkpt>
      <trkpt lat="47.370989033952355" lon="9.921972015872598">
        <ele>672.58000000000004</ele>
        <time>2018-09-18T07:46:24Z</time>
      </trkpt>
      <trkpt lat="47.370930025354028" lon="9.922122973948717">
        <ele>673.05999999999995</ele>
        <time>2018-09-18T07:46:25Z</time>
      </trkpt>
      <trkpt lat="47.370368018746376" lon="9.923475980758667">
        <ele>676.41999999999996</ele>
        <time>2018-09-18T07:46:34Z</time>
      </trkpt>
      <trkpt lat="47.370093008503318" lon="9.924016026780009">
        <ele>677.87</ele>
        <time>2018-09-18T07:46:38Z</time>
      </trkpt>
      <trkpt lat="47.370022013783455" lon="9.924153992906213">
        <ele>678.35000000000002</ele>
        <time>2018-09-18T07:46:39Z</time>
      </trkpt>
      <trkpt lat="47.369955964386463" lon="9.924291959032416">
        <ele>678.83000000000004</ele>
        <time>2018-09-18T07:46:40Z</time>
      </trkpt>
      <trkpt lat="47.369931992143393" lon="9.924460016191006">
        <ele>678.83000000000004</ele>
        <time>2018-09-18T07:46:41Z</time>
      </trkpt>
      <trkpt lat="47.369907014071941" lon="9.924627989530563">
        <ele>678.83000000000004</ele>
        <time>2018-09-18T07:46:42Z</time>
      </trkpt>
      <trkpt lat="47.36988203600049" lon="9.924799986183643">
        <ele>678.83000000000004</ele>
        <time>2018-09-18T07:46:43Z</time>
      </trkpt>
      <trkpt lat="47.369856974110007" lon="9.924971982836723">
        <ele>678.83000000000004</ele>
        <time>2018-09-18T07:46:44Z</time>
      </trkpt>
      <trkpt lat="47.36960400827229" lon="9.926172019913793">
        <ele>679.30999999999995</ele>
        <time>2018-09-18T07:46:52Z</time>
      </trkpt>
      <trkpt lat="47.369165970012546" lon="9.927817974239588">
        <ele>683.14999999999998</ele>
        <time>2018-09-18T07:47:05Z</time>
      </trkpt>
      <trkpt lat="47.369144009426236" lon="9.927952000871301">
        <ele>684.12</ele>
        <time>2018-09-18T07:47:06Z</time>
      </trkpt>
      <trkpt lat="47.369122970849276" lon="9.928085021674633">
        <ele>684.60000000000002</ele>
        <time>2018-09-18T07:47:07Z</time>
      </trkpt>
      <trkpt lat="47.369158007204533" lon="9.928227011114359">
        <ele>685.08000000000004</ele>
        <time>2018-09-18T07:47:08Z</time>
      </trkpt>
      <trkpt lat="47.369194971397519" lon="9.92835701443255">
        <ele>685.55999999999995</ele>
        <time>2018-09-18T07:47:09Z</time>
      </trkpt>
      <trkpt lat="47.369235036894679" lon="9.928490035235882">
        <ele>686.03999999999996</ele>
        <time>2018-09-18T07:47:10Z</time>
      </trkpt>
      <trkpt lat="47.369334027171135" lon="9.928889013826847">
        <ele>686.51999999999998</ele>
        <time>2018-09-18T07:47:13Z</time>
      </trkpt>
      <trkpt lat="47.369335032999516" lon="9.92902597412467">
        <ele>687</ele>
        <time>2018-09-18T07:47:14Z</time>
      </trkpt>
      <trkpt lat="47.369335032999516" lon="9.929160000756383">
        <ele>687.48000000000002</ele>
        <time>2018-09-18T07:47:15Z</time>
      </trkpt>
      <trkpt lat="47.369312988594174" lon="9.929298972710967">
        <ele>687.96000000000004</ele>
        <time>2018-09-18T07:47:16Z</time>
      </trkpt>
      <trkpt lat="47.369268983602524" lon="9.929419001564384">
        <ele>688.91999999999996</ele>
        <time>2018-09-18T07:47:17Z</time>
      </trkpt>
      <trkpt lat="47.369225984439254" lon="9.929537018761039">
        <ele>689.39999999999998</ele>
        <time>2018-09-18T07:47:18Z</time>
      </trkpt>
      <trkpt lat="47.369181979447603" lon="9.929655035957694">
        <ele>689.88</ele>
        <time>2018-09-18T07:47:19Z</time>
      </trkpt>
      <trkpt lat="47.369139986112714" lon="9.929771963506937">
        <ele>690.36000000000001</ele>
        <time>2018-09-18T07:47:20Z</time>
      </trkpt>
      <trkpt lat="47.368991961702704" lon="9.930243026465178">
        <ele>691.80999999999995</ele>
        <time>2018-09-18T07:47:24Z</time>
      </trkpt>
      <trkpt lat="47.368970001116395" lon="9.930365988984704">
        <ele>692.28999999999996</ele>
        <time>2018-09-18T07:47:25Z</time>
      </trkpt>
      <trkpt lat="47.36872399225831" lon="9.932018984109163">
        <ele>696.13</ele>
        <time>2018-09-18T07:47:36Z</time>
      </trkpt>
      <trkpt lat="47.368693985044956" lon="9.932197015732527">
        <ele>696.13</ele>
        <time>2018-09-18T07:47:37Z</time>
      </trkpt>
      <trkpt lat="47.368281008675694" lon="9.933912958949804">
        <ele>699.5</ele>
        <time>2018-09-18T07:47:48Z</time>
      </trkpt>
      <trkpt lat="47.36818503588438" lon="9.934833040460944">
        <ele>701.41999999999996</ele>
        <time>2018-09-18T07:47:54Z</time>
      </trkpt>
      <trkpt lat="47.368197022005916" lon="9.93499699048698">
        <ele>701.89999999999998</ele>
        <time>2018-09-18T07:47:55Z</time>
      </trkpt>
      <trkpt lat="47.368209008127451" lon="9.935159012675285">
        <ele>701.89999999999998</ele>
        <time>2018-09-18T07:47:56Z</time>
      </trkpt>
      <trkpt lat="47.368219988420606" lon="9.935322962701321">
        <ele>702.38</ele>
        <time>2018-09-18T07:47:57Z</time>
      </trkpt>
      <trkpt lat="47.368231974542141" lon="9.935489008203149">
        <ele>702.86000000000001</ele>
        <time>2018-09-18T07:47:58Z</time>
      </trkpt>
      <trkpt lat="47.368243960663676" lon="9.935655975714326">
        <ele>703.34000000000003</ele>
        <time>2018-09-18T07:47:59Z</time>
      </trkpt>
      <trkpt lat="47.368332976475358" lon="9.937492031604052">
        <ele>708.14999999999998</ele>
        <time>2018-09-18T07:48:10Z</time>
      </trkpt>
      <trkpt lat="47.368370024487376" lon="9.937992012128234">
        <ele>710.54999999999995</ele>
        <time>2018-09-18T07:48:14Z</time>
      </trkpt>
      <trkpt lat="47.368366001173854" lon="9.938013972714543">
        <ele>710.54999999999995</ele>
        <time>2018-09-18T07:48:15Z</time>
      </trkpt>
      <trkpt lat="47.368366001173854" lon="9.938013972714543">
        <ele>710.54999999999995</ele>
        <time>2018-09-18T07:48:27Z</time>
      </trkpt>
      <trkpt lat="47.368358038365841" lon="9.93806803599">
        <ele>711.99000000000001</ele>
        <time>2018-09-18T07:48:49Z</time>
      </trkpt>
      <trkpt lat="47.368355020880699" lon="9.938093014061451">
        <ele>712.47000000000003</ele>
        <time>2018-09-18T07:48:50Z</time>
      </trkpt>
      <trkpt lat="47.368409000337124" lon="9.938045991584659">
        <ele>712.95000000000005</ele>
        <time>2018-09-18T07:48:51Z</time>
      </trkpt>
      <trkpt lat="47.368409000337124" lon="9.938045991584659">
        <ele>712.95000000000005</ele>
        <time>2018-09-18T07:48:52Z</time>
      </trkpt>
      <trkpt lat="47.368354015052319" lon="9.938098965212703">
        <ele>712.95000000000005</ele>
        <time>2018-09-18T07:49:03Z</time>
      </trkpt>
      <trkpt lat="47.36835703253746" lon="9.938079016283155">
        <ele>712.47000000000003</ele>
        <time>2018-09-18T07:49:04Z</time>
      </trkpt>
      <trkpt lat="47.368361977860332" lon="9.938043979927898">
        <ele>712.47000000000003</ele>
        <time>2018-09-18T07:49:05Z</time>
      </trkpt>
      <trkpt lat="47.368370024487376" lon="9.937992012128234">
        <ele>711.99000000000001</ele>
        <time>2018-09-18T07:49:06Z</time>
      </trkpt>
      <trkpt lat="47.368367007002234" lon="9.937953036278486">
        <ele>711.50999999999999</ele>
        <time>2018-09-18T07:49:07Z</time>
      </trkpt>
      <trkpt lat="47.36831596121192" lon="9.936979981139302">
        <ele>708.63</ele>
        <time>2018-09-18T07:49:15Z</time>
      </trkpt>
      <trkpt lat="47.368199033662677" lon="9.935024986043572">
        <ele>704.29999999999995</ele>
        <time>2018-09-18T07:49:28Z</time>
      </trkpt>
      <trkpt lat="47.368177995085716" lon="9.934732038527727">
        <ele>703.34000000000003</ele>
        <time>2018-09-18T07:49:30Z</time>
      </trkpt>
      <trkpt lat="47.368212025612593" lon="9.934442024677992">
        <ele>702.86000000000001</ele>
        <time>2018-09-18T07:49:32Z</time>
      </trkpt>
      <trkpt lat="47.36863799393177" lon="9.932490969076753">
        <ele>697.57000000000005</ele>
        <time>2018-09-18T07:49:45Z</time>
      </trkpt>
      <trkpt lat="47.368863970041275" lon="9.931127987802029">
        <ele>692.76999999999998</ele>
        <time>2018-09-18T07:49:55Z</time>
      </trkpt>
      <trkpt lat="47.369013000279665" lon="9.930116962641478">
        <ele>688.44000000000005</ele>
        <time>2018-09-18T07:50:03Z</time>
      </trkpt>
      <trkpt lat="47.369052981957793" lon="9.930010009557009">
        <ele>687.96000000000004</ele>
        <time>2018-09-18T07:50:04Z</time>
      </trkpt>
      <trkpt lat="47.369335032999516" lon="9.929237030446529">
        <ele>684.60000000000002</ele>
        <time>2018-09-18T07:50:11Z</time>
      </trkpt>
      <trkpt lat="47.369335032999516" lon="9.929082971066237">
        <ele>684.60000000000002</ele>
        <time>2018-09-18T07:50:12Z</time>
      </trkpt>
      <trkpt lat="47.369335032999516" lon="9.928952967748046">
        <ele>684.60000000000002</ele>
        <time>2018-09-18T07:50:13Z</time>
      </trkpt>
      <trkpt lat="47.369319023564458" lon="9.928822964429855">
        <ele>684.60000000000002</ele>
        <time>2018-09-18T07:50:14Z</time>
      </trkpt>
      <trkpt lat="47.369287004694343" lon="9.928686004132032">
        <ele>684.60000000000002</ele>
        <time>2018-09-18T07:50:15Z</time>
      </trkpt>
      <trkpt lat="47.369254985824227" lon="9.928560024127364">
        <ele>684.60000000000002</ele>
        <time>2018-09-18T07:50:16Z</time>
      </trkpt>
      <trkpt lat="47.369186002761126" lon="9.928322983905673">
        <ele>684.12</ele>
        <time>2018-09-18T07:50:18Z</time>
      </trkpt>
      <trkpt lat="47.369150966405869" lon="9.928204966709018">
        <ele>684.12</ele>
        <time>2018-09-18T07:50:19Z</time>
      </trkpt>
      <trkpt lat="47.369120959192514" lon="9.92810002528131">
        <ele>683.63</ele>
        <time>2018-09-18T07:50:20Z</time>
      </trkpt>
      <trkpt lat="47.369138980284333" lon="9.927983013913035">
        <ele>683.14999999999998</ele>
        <time>2018-09-18T07:50:21Z</time>
      </trkpt>
      <trkpt lat="47.369160018861294" lon="9.927854016423225">
        <ele>682.66999999999996</ele>
        <time>2018-09-18T07:50:22Z</time>
      </trkpt>
      <trkpt lat="47.369179967790842" lon="9.927728036418557">
        <ele>682.66999999999996</ele>
        <time>2018-09-18T07:50:23Z</time>
      </trkpt>
      <trkpt lat="47.369201006367803" lon="9.927598033100367">
        <ele>682.19000000000005</ele>
        <time>2018-09-18T07:50:24Z</time>
      </trkpt>
      <trkpt lat="47.369695035740733" lon="9.925855016335845">
        <ele>677.87</ele>
        <time>2018-09-18T07:50:39Z</time>
      </trkpt>
      <trkpt lat="47.36983903683722" lon="9.925096035003662">
        <ele>676.90999999999997</ele>
        <time>2018-09-18T07:50:45Z</time>
      </trkpt>
      <trkpt lat="47.369856974110007" lon="9.924969971179962">
        <ele>676.90999999999997</ele>
        <time>2018-09-18T07:50:46Z</time>
      </trkpt>
      <trkpt lat="47.369950013235211" lon="9.924333030357957">
        <ele>675.46000000000004</ele>
        <time>2018-09-18T07:50:51Z</time>
      </trkpt>
      <trkpt lat="47.369988989084959" lon="9.924218030646443">
        <ele>675.46000000000004</ele>
        <time>2018-09-18T07:50:52Z</time>
      </trkpt>
      <trkpt lat="47.370041962713003" lon="9.924116022884846">
        <ele>674.98000000000002</ele>
        <time>2018-09-18T07:50:53Z</time>
      </trkpt>
      <trkpt lat="47.370093008503318" lon="9.924015020951629">
        <ele>674.5</ele>
        <time>2018-09-18T07:50:54Z</time>
      </trkpt>
      <trkpt lat="47.370145982131362" lon="9.92391100153327">
        <ele>674.5</ele>
        <time>2018-09-18T07:50:55Z</time>
      </trkpt>
      <trkpt lat="47.370199039578438" lon="9.923806982114911">
        <ele>674.01999999999998</ele>
        <time>2018-09-18T07:50:56Z</time>
      </trkpt>
      <trkpt lat="47.370251007378101" lon="9.923704974353313">
        <ele>673.53999999999996</ele>
        <time>2018-09-18T07:50:57Z</time>
      </trkpt>
      <trkpt lat="47.370303981006145" lon="9.923600032925606">
        <ele>673.05999999999995</ele>
        <time>2018-09-18T07:50:58Z</time>
      </trkpt>
      <trkpt lat="47.370953997597098" lon="9.922061031684279">
        <ele>669.22000000000003</ele>
        <time>2018-09-18T07:51:12Z</time>
      </trkpt>
      <trkpt lat="47.371118031442165" lon="9.92146197706461">
        <ele>669.70000000000005</ele>
        <time>2018-09-18T07:51:17Z</time>
      </trkpt>
      <trkpt lat="47.371122976765037" lon="9.921328034251928">
        <ele>669.70000000000005</ele>
        <time>2018-09-18T07:51:18Z</time>
      </trkpt>
      <trkpt lat="47.371127000078559" lon="9.921197025105357">
        <ele>669.70000000000005</ele>
        <time>2018-09-18T07:51:19Z</time>
      </trkpt>
      <trkpt lat="47.371130017563701" lon="9.920802991837263">
        <ele>669.70000000000005</ele>
        <time>2018-09-18T07:51:22Z</time>
      </trkpt>
      <trkpt lat="47.371051982045174" lon="9.919371027499437">
        <ele>668.25</ele>
        <time>2018-09-18T07:51:33Z</time>
      </trkpt>
      <trkpt lat="47.371051982045174" lon="9.91912099532783">
        <ele>667.28999999999996</ele>
        <time>2018-09-18T07:51:35Z</time>
      </trkpt>
      <trkpt lat="47.371051982045174" lon="9.91847600787878">
        <ele>663.92999999999995</ele>
        <time>2018-09-18T07:51:40Z</time>
      </trkpt>
      <trkpt lat="47.370768003165722" lon="9.91669200360775">
        <ele>660.55999999999995</ele>
        <time>2018-09-18T07:51:54Z</time>
      </trkpt>
      <trkpt lat="47.370511014014482" lon="9.914782019332051">
        <ele>661.03999999999996</ele>
        <time>2018-09-18T07:52:09Z</time>
      </trkpt>
      <trkpt lat="47.370415041223168" lon="9.912946969270706">
        <ele>659.60000000000002</ele>
        <time>2018-09-18T07:52:22Z</time>
      </trkpt>
      <trkpt lat="47.370406994596124" lon="9.911016030237079">
        <ele>658.15999999999997</ele>
        <time>2018-09-18T07:52:31Z</time>
      </trkpt>
      <trkpt lat="47.370498022064567" lon="9.909289022907615">
        <ele>658.15999999999997</ele>
        <time>2018-09-18T07:52:38Z</time>
      </trkpt>
      <trkpt lat="47.370536997914314" lon="9.908809997141361">
        <ele>658.15999999999997</ele>
        <time>2018-09-18T07:52:40Z</time>
      </trkpt>
      <trkpt lat="47.370576979592443" lon="9.908620985224843">
        <ele>658.15999999999997</ele>
        <time>2018-09-18T07:52:41Z</time>
      </trkpt>
      <trkpt lat="47.370631964877248" lon="9.908446976915002">
        <ele>658.15999999999997</ele>
        <time>2018-09-18T07:52:42Z</time>
      </trkpt>
      <trkpt lat="47.370707988739014" lon="9.908296018838882">
        <ele>658.63999999999999</ele>
        <time>2018-09-18T07:52:43Z</time>
      </trkpt>
      <trkpt lat="47.370791975408792" lon="9.908147994428873">
        <ele>658.63999999999999</ele>
        <time>2018-09-18T07:52:44Z</time>
      </trkpt>
      <trkpt lat="47.370889037847519" lon="9.908001981675625">
        <ele>658.63999999999999</ele>
        <time>2018-09-18T07:52:45Z</time>
      </trkpt>
      <trkpt lat="47.370989033952355" lon="9.907853035256267">
        <ele>658.15999999999997</ele>
        <time>2018-09-18T07:52:46Z</time>
      </trkpt>
      <trkpt lat="47.371096992865205" lon="9.907691013067961">
        <ele>658.15999999999997</ele>
        <time>2018-09-18T07:52:47Z</time>
      </trkpt>
      <trkpt lat="47.371182991191745" lon="9.907468976452947">
        <ele>657.67999999999995</ele>
        <time>2018-09-18T07:52:48Z</time>
      </trkpt>
      <trkpt lat="47.371835019439459" lon="9.905310971662402">
        <ele>653.35000000000002</ele>
        <time>2018-09-18T07:52:56Z</time>
      </trkpt>
      <trkpt lat="47.372356960549951" lon="9.903640961274505">
        <ele>651.90999999999997</ele>
        <time>2018-09-18T07:53:03Z</time>
      </trkpt>
      <trkpt lat="47.372389985248446" lon="9.903406016528606">
        <ele>651.90999999999997</ele>
        <time>2018-09-18T07:53:04Z</time>
      </trkpt>
      <trkpt lat="47.372402977198362" lon="9.903162019327283">
        <ele>651.42999999999995</ele>
        <time>2018-09-18T07:53:05Z</time>
      </trkpt>
      <trkpt lat="47.37235302105546" lon="9.900948023423553">
        <ele>650.95000000000005</ele>
        <time>2018-09-18T07:53:15Z</time>
      </trkpt>
      <trkpt lat="47.372339023277164" lon="9.900763034820557">
        <ele>650.95000000000005</ele>
        <time>2018-09-18T07:53:16Z</time>
      </trkpt>
      <trkpt lat="47.372307004407048" lon="9.900546027347446">
        <ele>650.95000000000005</ele>
        <time>2018-09-18T07:53:17Z</time>
      </trkpt>
      <trkpt lat="47.37196896225214" lon="9.898299006745219">
        <ele>649.99000000000001</ele>
        <time>2018-09-18T07:53:27Z</time>
      </trkpt>
      <trkpt lat="47.371677020564675" lon="9.896354991942644">
        <ele>649.50999999999999</ele>
        <time>2018-09-18T07:53:35Z</time>
      </trkpt>
      <trkpt lat="47.371374014765024" lon="9.89494800567627">
        <ele>649.50999999999999</ele>
        <time>2018-09-18T07:53:43Z</time>
      </trkpt>
      <trkpt lat="47.370987022295594" lon="9.8935960046947">
        <ele>647.10000000000002</ele>
        <time>2018-09-18T07:53:51Z</time>
      </trkpt>
      <trkpt lat="47.370977969840169" lon="9.893449991941452">
        <ele>646.62</ele>
        <time>2018-09-18T07:53:52Z</time>
      </trkpt>
      <trkpt lat="47.370969001203775" lon="9.893299033865333">
        <ele>646.62</ele>
        <time>2018-09-18T07:53:53Z</time>
      </trkpt>
      <trkpt lat="47.370996996760368" lon="9.893159978091717">
        <ele>646.13999999999999</ele>
        <time>2018-09-18T07:53:54Z</time>
      </trkpt>
      <trkpt lat="47.371037984266877" lon="9.893038021400571">
        <ele>646.13999999999999</ele>
        <time>2018-09-18T07:53:55Z</time>
      </trkpt>
      <trkpt lat="47.371102022007108" lon="9.892957974225283">
        <ele>645.65999999999997</ele>
        <time>2018-09-18T07:53:56Z</time>
      </trkpt>
      <trkpt lat="47.371185002848506" lon="9.892896031960845">
        <ele>645.65999999999997</ele>
        <time>2018-09-18T07:53:57Z</time>
      </trkpt>
      <trkpt lat="47.371269995346665" lon="9.892867030575872">
        <ele>645.65999999999997</ele>
        <time>2018-09-18T07:53:58Z</time>
      </trkpt>
      <trkpt lat="47.371375020593405" lon="9.892867030575872">
        <ele>645.65999999999997</ele>
        <time>2018-09-18T07:53:59Z</time>
      </trkpt>
      <trkpt lat="47.371460013091564" lon="9.892867030575872">
        <ele>645.17999999999995</ele>
        <time>2018-09-18T07:54:00Z</time>
      </trkpt>
      <trkpt lat="47.371613988652825" lon="9.892928972840309">
        <ele>644.70000000000005</ele>
        <time>2018-09-18T07:54:01Z</time>
      </trkpt>
      <trkpt lat="47.372935982421041" lon="9.89323197863996">
        <ele>643.74000000000001</ele>
        <time>2018-09-18T07:54:10Z</time>
      </trkpt>
      <trkpt lat="47.374436007812619" lon="9.892937019467354">
        <ele>641.82000000000005</ele>
        <time>2018-09-18T07:54:19Z</time>
      </trkpt>
      <trkpt lat="47.375738974660635" lon="9.892436033114791">
        <ele>639.88999999999999</ele>
        <time>2018-09-18T07:54:28Z</time>
      </trkpt>
      <trkpt lat="47.375953970476985" lon="9.892340982332826">
        <ele>639.40999999999997</ele>
        <time>2018-09-18T07:54:30Z</time>
      </trkpt>
      <trkpt lat="47.376052038744092" lon="9.892296977341175">
        <ele>639.40999999999997</ele>
        <time>2018-09-18T07:54:31Z</time>
      </trkpt>
      <trkpt lat="47.376125967130065" lon="9.89222296513617">
        <ele>639.40999999999997</ele>
        <time>2018-09-18T07:54:32Z</time>
      </trkpt>
      <trkpt lat="47.376197967678308" lon="9.892135038971901">
        <ele>639.40999999999997</ele>
        <time>2018-09-18T07:54:33Z</time>
      </trkpt>
      <trkpt lat="47.376270974054933" lon="9.892040994018316">
        <ele>639.40999999999997</ele>
        <time>2018-09-18T07:54:34Z</time>
      </trkpt>
      <trkpt lat="47.376335011795163" lon="9.891913002356887">
        <ele>639.40999999999997</ele>
        <time>2018-09-18T07:54:35Z</time>
      </trkpt>
      <trkpt lat="47.377182003110647" lon="9.890299988910556">
        <ele>638.45000000000005</ele>
        <time>2018-09-18T07:54:46Z</time>
      </trkpt>
      <trkpt lat="47.377309994772077" lon="9.890083987265825">
        <ele>637.97000000000003</ele>
        <time>2018-09-18T07:54:48Z</time>
      </trkpt>
      <trkpt lat="47.377352993935347" lon="9.890012992545962">
        <ele>637.97000000000003</ele>
        <time>2018-09-18T07:54:49Z</time>
      </trkpt>
      <trkpt lat="47.377404039725661" lon="9.889926994219422">
        <ele>637.00999999999999</ele>
        <time>2018-09-18T07:54:55Z</time>
      </trkpt>
      <trkpt lat="47.377417031675577" lon="9.889905033633113">
        <ele>637.00999999999999</ele>
        <time>2018-09-18T07:54:59Z</time>
      </trkpt>
      <trkpt lat="47.377436980605125" lon="9.889872008934617">
        <ele>637.00999999999999</ele>
        <time>2018-09-18T07:55:00Z</time>
      </trkpt>
      <trkpt lat="47.377460030838847" lon="9.889796990901232">
        <ele>637.00999999999999</ele>
        <time>2018-09-18T07:55:01Z</time>
      </trkpt>
      <trkpt lat="47.37742499448359" lon="9.889703029766679">
        <ele>637.00999999999999</ele>
        <time>2018-09-18T07:55:02Z</time>
      </trkpt>
      <trkpt lat="47.37738199532032" lon="9.889584006741643">
        <ele>637.49000000000001</ele>
        <time>2018-09-18T07:55:03Z</time>
      </trkpt>
      <trkpt lat="47.377039007842541" lon="9.888855032622814">
        <ele>639.88999999999999</ele>
        <time>2018-09-18T07:55:10Z</time>
      </trkpt>
      <trkpt lat="47.3770169634372" lon="9.888776997104287">
        <ele>639.88999999999999</ele>
        <time>2018-09-18T07:55:11Z</time>
      </trkpt>
      <trkpt lat="47.376998020336032" lon="9.888712037354708">
        <ele>639.88999999999999</ele>
        <time>2018-09-18T07:55:12Z</time>
      </trkpt>
      <trkpt lat="47.376982010900974" lon="9.888655040413141">
        <ele>639.88999999999999</ele>
        <time>2018-09-18T07:55:13Z</time>
      </trkpt>
      <trkpt lat="47.376963989809155" lon="9.888593014329672">
        <ele>639.88999999999999</ele>
        <time>2018-09-18T07:55:14Z</time>
      </trkpt>
      <trkpt lat="47.376886960119009" lon="9.888558983802795">
        <ele>640.38</ele>
        <time>2018-09-18T07:55:15Z</time>
      </trkpt>
      <trkpt lat="47.37682300619781" lon="9.888564012944698">
        <ele>640.38</ele>
        <time>2018-09-18T07:55:16Z</time>
      </trkpt>
      <trkpt lat="47.376746982336044" lon="9.888570969924331">
        <ele>640.86000000000001</ele>
        <time>2018-09-18T07:55:17Z</time>
      </trkpt>
      <trkpt lat="47.376660984009504" lon="9.888579016551375">
        <ele>640.86000000000001</ele>
        <time>2018-09-18T07:55:18Z</time>
      </trkpt>
      <trkpt lat="47.376554030925035" lon="9.888592008501291">
        <ele>640.86000000000001</ele>
        <time>2018-09-18T07:55:19Z</time>
      </trkpt>
      <trkpt lat="47.376046003773808" lon="9.888749001547694">
        <ele>641.34000000000003</ele>
        <time>2018-09-18T07:55:23Z</time>
      </trkpt>
      <trkpt lat="47.37495300360024" lon="9.889135994017124">
        <ele>640.86000000000001</ele>
        <time>2018-09-18T07:55:30Z</time>
      </trkpt>
      <trkpt lat="47.373591028153896" lon="9.889027029275894">
        <ele>638.45000000000005</ele>
        <time>2018-09-18T07:55:38Z</time>
      </trkpt>
      <trkpt lat="47.371906014159322" lon="9.888252960518003">
        <ele>640.86000000000001</ele>
        <time>2018-09-18T07:55:48Z</time>
      </trkpt>
      <trkpt lat="47.370431972667575" lon="9.886897020041943">
        <ele>642.77999999999997</ele>
        <time>2018-09-18T07:55:58Z</time>
      </trkpt>
      <trkpt lat="47.370196022093296" lon="9.886521007865667">
        <ele>643.25999999999999</ele>
        <time>2018-09-18T07:56:00Z</time>
      </trkpt>
      <trkpt lat="47.370079010725021" lon="9.886336019262672">
        <ele>643.74000000000001</ele>
        <time>2018-09-18T07:56:01Z</time>
      </trkpt>
      <trkpt lat="47.369828978553414" lon="9.885657001286745">
        <ele>645.17999999999995</ele>
        <time>2018-09-18T07:56:04Z</time>
      </trkpt>
      <trkpt lat="47.369624963030219" lon="9.884961973875761">
        <ele>646.62</ele>
        <time>2018-09-18T07:56:07Z</time>
      </trkpt>
      <trkpt lat="47.369606019929051" lon="9.884702973067761">
        <ele>647.10000000000002</ele>
        <time>2018-09-18T07:56:08Z</time>
      </trkpt>
      <trkpt lat="47.369596967473626" lon="9.884452018886805">
        <ele>647.59000000000003</ele>
        <time>2018-09-18T07:56:09Z</time>
      </trkpt>
      <trkpt lat="47.369587998837233" lon="9.884200980886817">
        <ele>648.07000000000005</ele>
        <time>2018-09-18T07:56:10Z</time>
      </trkpt>
      <trkpt lat="47.369579030200839" lon="9.883947009220719">
        <ele>648.07000000000005</ele>
        <time>2018-09-18T07:56:11Z</time>
      </trkpt>
      <trkpt lat="47.369587998837233" lon="9.883463038131595">
        <ele>649.02999999999997</ele>
        <time>2018-09-18T07:56:13Z</time>
      </trkpt>
      <trkpt lat="47.369600990787148" lon="9.88326002843678">
        <ele>649.02999999999997</ele>
        <time>2018-09-18T07:56:14Z</time>
      </trkpt>
      <trkpt lat="47.368216970935464" lon="9.880707990378141">
        <ele>652.38999999999999</ele>
        <time>2018-09-18T07:56:29Z</time>
      </trkpt>
      <trkpt lat="47.368095014244318" lon="9.880622997879982">
        <ele>652.87</ele>
        <time>2018-09-18T07:56:30Z</time>
      </trkpt>
      <trkpt lat="47.367955036461353" lon="9.880525013431907">
        <ele>652.87</ele>
        <time>2018-09-18T07:56:31Z</time>
      </trkpt>
      <trkpt lat="47.36779997125268" lon="9.880395010113716">
        <ele>652.87</ele>
        <time>2018-09-18T07:56:32Z</time>
      </trkpt>
      <trkpt lat="47.367652030661702" lon="9.880259977653623">
        <ele>653.35000000000002</ele>
        <time>2018-09-18T07:56:33Z</time>
      </trkpt>
      <trkpt lat="47.36588504165411" lon="9.878833964467049">
        <ele>655.75999999999999</ele>
        <time>2018-09-18T07:56:44Z</time>
      </trkpt>
      <trkpt lat="47.364128027111292" lon="9.878181014209986">
        <ele>661.03999999999996</ele>
        <time>2018-09-18T07:56:54Z</time>
      </trkpt>
      <trkpt lat="47.362610986456275" lon="9.878317974507809">
        <ele>666.80999999999995</ele>
        <time>2018-09-18T07:57:03Z</time>
      </trkpt>
      <trkpt lat="47.361120013520122" lon="9.878722988069058">
        <ele>668.73000000000002</ele>
        <time>2018-09-18T07:57:12Z</time>
      </trkpt>
      <trkpt lat="47.358742989599705" lon="9.879353977739811">
        <ele>671.62</ele>
        <time>2018-09-18T07:57:25Z</time>
      </trkpt>
      <trkpt lat="47.357375985011458" lon="9.879795033484697">
        <ele>674.98000000000002</ele>
        <time>2018-09-18T07:57:34Z</time>
      </trkpt>
      <trkpt lat="47.355312025174499" lon="9.88059600815177">
        <ele>679.30999999999995</ele>
        <time>2018-09-18T07:57:48Z</time>
      </trkpt>
      <trkpt lat="47.353795990347862" lon="9.881657995283604">
        <ele>683.14999999999998</ele>
        <time>2018-09-18T07:57:59Z</time>
      </trkpt>
      <trkpt lat="47.352187000215054" lon="9.882974959909916">
        <ele>684.60000000000002</ele>
        <time>2018-09-18T07:58:11Z</time>
      </trkpt>
      <trkpt lat="47.351456014439464" lon="9.883688008412719">
        <ele>685.55999999999995</ele>
        <time>2018-09-18T07:58:18Z</time>
      </trkpt>
      <trkpt lat="47.350750006735325" lon="9.884458975866437">
        <ele>685.08000000000004</ele>
        <time>2018-09-18T07:58:26Z</time>
      </trkpt>
      <trkpt lat="47.349766977131367" lon="9.885962018743157">
        <ele>685.55999999999995</ele>
        <time>2018-09-18T07:58:35Z</time>
      </trkpt>
      <trkpt lat="47.34869702719152" lon="9.888150030747056">
        <ele>686.51999999999998</ele>
        <time>2018-09-18T07:58:47Z</time>
      </trkpt>
      <trkpt lat="47.347850035876036" lon="9.890542980283499">
        <ele>688.91999999999996</ele>
        <time>2018-09-18T07:58:59Z</time>
      </trkpt>
      <trkpt lat="47.347204964607954" lon="9.893528027459979">
        <ele>690.84000000000003</ele>
        <time>2018-09-18T07:59:13Z</time>
      </trkpt>
      <trkpt lat="47.346930038183928" lon="9.896018039435148">
        <ele>691.80999999999995</ele>
        <time>2018-09-18T07:59:23Z</time>
      </trkpt>
      <trkpt lat="47.346901958808303" lon="9.898913986980915">
        <ele>692.76999999999998</ele>
        <time>2018-09-18T07:59:33Z</time>
      </trkpt>
      <trkpt lat="47.347083007916808" lon="9.901816975325346">
        <ele>694.69000000000005</ele>
        <time>2018-09-18T07:59:43Z</time>
      </trkpt>
      <trkpt lat="47.347298003733158" lon="9.905616994947195">
        <ele>698.04999999999995</ele>
        <time>2018-09-18T07:59:56Z</time>
      </trkpt>
      <trkpt lat="47.347276965156198" lon="9.908532975241542">
        <ele>703.82000000000005</ele>
        <time>2018-09-18T08:00:06Z</time>
      </trkpt>
      <trkpt lat="47.347256010398269" lon="9.912061002105475">
        <ele>707.19000000000005</ele>
        <time>2018-09-18T08:00:18Z</time>
      </trkpt>
      <trkpt lat="47.347221979871392" lon="9.915312007069588">
        <ele>710.54999999999995</ele>
        <time>2018-09-18T08:00:29Z</time>
      </trkpt>
      <trkpt lat="47.347174035385251" lon="9.920125985518098">
        <ele>714.88</ele>
        <time>2018-09-18T08:00:45Z</time>
      </trkpt>
      <trkpt lat="47.347121983766556" lon="9.925533989444375">
        <ele>718.72000000000003</ele>
        <time>2018-09-18T08:01:03Z</time>
      </trkpt>
      <trkpt lat="47.34706699848175" lon="9.931220021098852">
        <ele>723.04999999999995</ele>
        <time>2018-09-18T08:01:22Z</time>
      </trkpt>
      <trkpt lat="47.34706699848175" lon="9.936313033103943">
        <ele>729.29999999999995</ele>
        <time>2018-09-18T08:01:39Z</time>
      </trkpt>
      <trkpt lat="47.347264979034662" lon="9.939889004454017">
        <ele>734.58000000000004</ele>
        <time>2018-09-18T08:01:51Z</time>
      </trkpt>
      <trkpt lat="47.347807036712766" lon="9.942459985613823">
        <ele>736.99000000000001</ele>
        <time>2018-09-18T08:02:00Z</time>
      </trkpt>
      <trkpt lat="47.347934022545815" lon="9.943027021363378">
        <ele>737.47000000000003</ele>
        <time>2018-09-18T08:02:02Z</time>
      </trkpt>
      <trkpt lat="47.347999988123775" lon="9.943308988586068">
        <ele>737.47000000000003</ele>
        <time>2018-09-18T08:02:03Z</time>
      </trkpt>
      <trkpt lat="47.348579009994864" lon="9.946801979094744">
        <ele>739.38999999999999</ele>
        <time>2018-09-18T08:02:15Z</time>
      </trkpt>
      <trkpt lat="47.34846300445497" lon="9.948857976123691">
        <ele>742.75999999999999</ele>
        <time>2018-09-18T08:02:22Z</time>
      </trkpt>
      <trkpt lat="47.347824973985553" lon="9.950996031984687">
        <ele>746.60000000000002</ele>
        <time>2018-09-18T08:02:30Z</time>
      </trkpt>
      <trkpt lat="47.347482992336154" lon="9.951736992225051">
        <ele>747.55999999999995</ele>
        <time>2018-09-18T08:02:33Z</time>
      </trkpt>
      <trkpt lat="47.346211038529873" lon="9.953263001516461">
        <ele>749.97000000000003</ele>
        <time>2018-09-18T08:02:41Z</time>
      </trkpt>
      <trkpt lat="47.344880998134613" lon="9.955081036314368">
        <ele>753.33000000000004</ele>
        <time>2018-09-18T08:02:50Z</time>
      </trkpt>
      <trkpt lat="47.344114976003766" lon="9.957053968682885">
        <ele>755.25</ele>
        <time>2018-09-18T08:02:58Z</time>
      </trkpt>
      <trkpt lat="47.343807024881244" lon="9.957928033545613">
        <ele>756.21000000000004</ele>
        <time>2018-09-18T08:03:02Z</time>
      </trkpt>
      <trkpt lat="47.34369202516973" lon="9.958338998258114">
        <ele>756.69000000000005</ele>
        <time>2018-09-18T08:03:04Z</time>
      </trkpt>
      <trkpt lat="47.340312022715807" lon="9.963934002444148">
        <ele>757.17999999999995</ele>
        <time>2018-09-18T08:03:36Z</time>
      </trkpt>
      <trkpt lat="47.339268978685141" lon="9.964126031845808">
        <ele>757.17999999999995</ele>
        <time>2018-09-18T08:03:42Z</time>
      </trkpt>
      <trkpt lat="47.338599013164639" lon="9.964420991018415">
        <ele>757.17999999999995</ele>
        <time>2018-09-18T08:03:46Z</time>
      </trkpt>
      <trkpt lat="47.338153012096882" lon="9.964766995981336">
        <ele>764.87</ele>
        <time>2018-09-18T08:03:49Z</time>
      </trkpt>
      <trkpt lat="47.337899040430784" lon="9.965102020651102">
        <ele>765.83000000000004</ele>
        <time>2018-09-18T08:03:51Z</time>
      </trkpt>
      <trkpt lat="47.33778303489089" lon="9.965284997597337">
        <ele>766.30999999999995</ele>
        <time>2018-09-18T08:03:52Z</time>
      </trkpt>
      <trkpt lat="47.337687984108925" lon="9.965475015342236">
        <ele>766.78999999999996</ele>
        <time>2018-09-18T08:03:53Z</time>
      </trkpt>
      <trkpt lat="47.337599974125624" lon="9.965695040300489">
        <ele>768.23000000000002</ele>
        <time>2018-09-18T08:03:54Z</time>
      </trkpt>
      <trkpt lat="47.337514981627464" lon="9.965910036116839">
        <ele>769.19000000000005</ele>
        <time>2018-09-18T08:03:55Z</time>
      </trkpt>
      <trkpt lat="47.337429989129305" lon="9.966124026104808">
        <ele>770.63</ele>
        <time>2018-09-18T08:03:56Z</time>
      </trkpt>
      <trkpt lat="47.337341979146004" lon="9.96634497307241">
        <ele>771.60000000000002</ele>
        <time>2018-09-18T08:03:57Z</time>
      </trkpt>
      <trkpt lat="47.337141986936331" lon="9.966728026047349">
        <ele>772.55999999999995</ele>
        <time>2018-09-18T08:03:59Z</time>
      </trkpt>
      <trkpt lat="47.337034028023481" lon="9.966857023537159">
        <ele>772.55999999999995</ele>
        <time>2018-09-18T08:04:00Z</time>
      </trkpt>
      <trkpt lat="47.336901007220149" lon="9.966926006600261">
        <ele>772.08000000000004</ele>
        <time>2018-09-18T08:04:01Z</time>
      </trkpt>
      <trkpt lat="47.336754994466901" lon="9.966989038512111">
        <ele>772.08000000000004</ele>
        <time>2018-09-18T08:04:02Z</time>
      </trkpt>
      <trkpt lat="47.336604036390781" lon="9.96705399826169">
        <ele>771.60000000000002</ele>
        <time>2018-09-18T08:04:03Z</time>
      </trkpt>
      <trkpt lat="47.336144037544727" lon="9.967277962714434">
        <ele>771.11000000000001</ele>
        <time>2018-09-18T08:04:06Z</time>
      </trkpt>
      <trkpt lat="47.335998024791479" lon="9.967387011274695">
        <ele>771.60000000000002</ele>
        <time>2018-09-18T08:04:07Z</time>
      </trkpt>
      <trkpt lat="47.335707005113363" lon="9.967602007091045">
        <ele>771.60000000000002</ele>
        <time>2018-09-18T08:04:09Z</time>
      </trkpt>
      <trkpt lat="47.335559986531734" lon="9.967710971832275">
        <ele>772.08000000000004</ele>
        <time>2018-09-18T08:04:10Z</time>
      </trkpt>
      <trkpt lat="47.335397964343429" lon="9.967767968773842">
        <ele>771.60000000000002</ele>
        <time>2018-09-18T08:04:11Z</time>
      </trkpt>
      <trkpt lat="47.335084984079003" lon="9.967861007899046">
        <ele>772.55999999999995</ele>
        <time>2018-09-18T08:04:13Z</time>
      </trkpt>
      <trkpt lat="47.334933020174503" lon="9.967861007899046">
        <ele>773.03999999999996</ele>
        <time>2018-09-18T08:04:14Z</time>
      </trkpt>
      <trkpt lat="47.334784995764494" lon="9.96782697737217">
        <ele>774</ele>
        <time>2018-09-18T08:04:15Z</time>
      </trkpt>
      <trkpt lat="47.334637977182865" lon="9.967771992087364">
        <ele>774.48000000000002</ele>
        <time>2018-09-18T08:04:16Z</time>
      </trkpt>
      <trkpt lat="47.334495987743139" lon="9.967717006802559">
        <ele>774.96000000000004</ele>
        <time>2018-09-18T08:04:17Z</time>
      </trkpt>
      <trkpt lat="47.334203962236643" lon="9.967670990154147">
        <ele>776.39999999999998</ele>
        <time>2018-09-18T08:04:19Z</time>
      </trkpt>
      <trkpt lat="47.334060966968536" lon="9.967696974053979">
        <ele>777.36000000000001</ele>
        <time>2018-09-18T08:04:20Z</time>
      </trkpt>
      <trkpt lat="47.333911014720798" lon="9.967738967388868">
        <ele>777.84000000000003</ele>
        <time>2018-09-18T08:04:21Z</time>
      </trkpt>
      <trkpt lat="47.333756033331156" lon="9.967794958502054">
        <ele>778.32000000000005</ele>
        <time>2018-09-18T08:04:22Z</time>
      </trkpt>
      <trkpt lat="47.333614965900779" lon="9.967909958213568">
        <ele>778.80999999999995</ele>
        <time>2018-09-18T08:04:23Z</time>
      </trkpt>
      <trkpt lat="47.333472976461053" lon="9.968026969581842">
        <ele>778.80999999999995</ele>
        <time>2018-09-18T08:04:24Z</time>
      </trkpt>
      <trkpt lat="47.333326041698456" lon="9.968146998435259">
        <ele>779.28999999999996</ele>
        <time>2018-09-18T08:04:25Z</time>
      </trkpt>
      <trkpt lat="47.333084978163242" lon="9.968452015891671">
        <ele>779.76999999999998</ele>
        <time>2018-09-18T08:04:27Z</time>
      </trkpt>
      <trkpt lat="47.332975007593632" lon="9.968616971746087">
        <ele>779.76999999999998</ele>
        <time>2018-09-18T08:04:28Z</time>
      </trkpt>
      <trkpt lat="47.332865037024021" lon="9.968783017247915">
        <ele>780.25</ele>
        <time>2018-09-18T08:04:29Z</time>
      </trkpt>
      <trkpt lat="47.332360027357936" lon="9.969737967476249">
        <ele>780.73000000000002</ele>
        <time>2018-09-18T08:04:34Z</time>
      </trkpt>
      <trkpt lat="47.332246033474803" lon="9.969885991886258">
        <ele>780.73000000000002</ele>
        <time>2018-09-18T08:04:35Z</time>
      </trkpt>
      <trkpt lat="47.332131033763289" lon="9.970022030174732">
        <ele>780.25</ele>
        <time>2018-09-18T08:04:36Z</time>
      </trkpt>
      <trkpt lat="47.331999018788338" lon="9.970179023221135">
        <ele>780.25</ele>
        <time>2018-09-18T08:04:37Z</time>
      </trkpt>
      <trkpt lat="47.331888964399695" lon="9.970268039032817">
        <ele>780.25</ele>
        <time>2018-09-18T08:04:38Z</time>
      </trkpt>
      <trkpt lat="47.331758961081505" lon="9.970374992117286">
        <ele>780.25</ele>
        <time>2018-09-18T08:04:39Z</time>
      </trkpt>
      <trkpt lat="47.331365011632442" lon="9.970725020393729">
        <ele>781.21000000000004</ele>
        <time>2018-09-18T08:04:42Z</time>
      </trkpt>
      <trkpt lat="47.331250011920929" lon="9.970883019268513">
        <ele>782.16999999999996</ele>
        <time>2018-09-18T08:04:43Z</time>
      </trkpt>
      <trkpt lat="47.331133000552654" lon="9.971045041456819">
        <ele>782.64999999999998</ele>
        <time>2018-09-18T08:04:44Z</time>
      </trkpt>
      <trkpt lat="47.330808034166694" lon="9.971490958705545">
        <ele>783.61000000000001</ele>
        <time>2018-09-18T08:04:47Z</time>
      </trkpt>
      <trkpt lat="47.330696973949671" lon="9.971615010872483">
        <ele>783.61000000000001</ele>
        <time>2018-09-18T08:04:48Z</time>
      </trkpt>
      <trkpt lat="47.33056303113699" lon="9.971687011420727">
        <ele>783.61000000000001</ele>
        <time>2018-09-18T08:04:49Z</time>
      </trkpt>
      <trkpt lat="47.330421963706613" lon="9.971736967563629">
        <ele>784.09000000000003</ele>
        <time>2018-09-18T08:04:50Z</time>
      </trkpt>
      <trkpt lat="47.330276034772396" lon="9.971764041110873">
        <ele>784.09000000000003</ele>
        <time>2018-09-18T08:04:51Z</time>
      </trkpt>
      <trkpt lat="47.329828022047877" lon="9.97188800945878">
        <ele>784.57000000000005</ele>
        <time>2018-09-18T08:04:54Z</time>
      </trkpt>
      <trkpt lat="47.329672034829855" lon="9.97195003554225">
        <ele>785.04999999999995</ele>
        <time>2018-09-18T08:04:55Z</time>
      </trkpt>
      <trkpt lat="47.329528033733368" lon="9.972049025818706">
        <ele>785.04999999999995</ele>
        <time>2018-09-18T08:04:56Z</time>
      </trkpt>
      <trkpt lat="47.329391995444894" lon="9.972184980288148">
        <ele>785.04999999999995</ele>
        <time>2018-09-18T08:04:57Z</time>
      </trkpt>
      <trkpt lat="47.329271966591477" lon="9.972352031618357">
        <ele>785.52999999999997</ele>
        <time>2018-09-18T08:04:58Z</time>
      </trkpt>
      <trkpt lat="47.329154033213854" lon="9.972534002736211">
        <ele>785.52999999999997</ele>
        <time>2018-09-18T08:04:59Z</time>
      </trkpt>
      <trkpt lat="47.329054959118366" lon="9.9727279599756">
        <ele>786.01999999999998</ele>
        <time>2018-09-18T08:05:00Z</time>
      </trkpt>
      <trkpt lat="47.328980024904013" lon="9.972958965227008">
        <ele>785.52999999999997</ele>
        <time>2018-09-18T08:05:01Z</time>
      </trkpt>
      <trkpt lat="47.328906012699008" lon="9.973188964650035">
        <ele>786.01999999999998</ele>
        <time>2018-09-18T08:05:02Z</time>
      </trkpt>
      <trkpt lat="47.328842980787158" lon="9.97341301292181">
        <ele>786.01999999999998</ele>
        <time>2018-09-18T08:05:03Z</time>
      </trkpt>
      <trkpt lat="47.328457999974489" lon="9.974770965054631">
        <ele>786.01999999999998</ele>
        <time>2018-09-18T08:05:11Z</time>
      </trkpt>
      <trkpt lat="47.328189024701715" lon="9.975315034389496">
        <ele>786.5</ele>
        <time>2018-09-18T08:05:15Z</time>
      </trkpt>
      <trkpt lat="47.32809598557651" lon="9.975443026050925">
        <ele>786.5</ele>
        <time>2018-09-18T08:05:16Z</time>
      </trkpt>
      <trkpt lat="47.327635986730456" lon="9.975870000198484">
        <ele>786.5</ele>
        <time>2018-09-18T08:05:20Z</time>
      </trkpt>
      <trkpt lat="47.327499026432633" lon="9.975942000746727">
        <ele>786.5</ele>
        <time>2018-09-18T08:05:21Z</time>
      </trkpt>
      <trkpt lat="47.327359970659018" lon="9.976016012951732">
        <ele>786.98000000000002</ele>
        <time>2018-09-18T08:05:22Z</time>
      </trkpt>
      <trkpt lat="47.32721303589642" lon="9.976058006286621">
        <ele>786.98000000000002</ele>
        <time>2018-09-18T08:05:23Z</time>
      </trkpt>
      <trkpt lat="47.327065011486411" lon="9.976088013499975">
        <ele>786.98000000000002</ele>
        <time>2018-09-18T08:05:24Z</time>
      </trkpt>
      <trkpt lat="47.326917992904782" lon="9.976102011278272">
        <ele>786.98000000000002</ele>
        <time>2018-09-18T08:05:25Z</time>
      </trkpt>
      <trkpt lat="47.326771980151534" lon="9.976105028763413">
        <ele>786.98000000000002</ele>
        <time>2018-09-18T08:05:26Z</time>
      </trkpt>
      <trkpt lat="47.325123008340597" lon="9.976134030148387">
        <ele>791.29999999999995</ele>
        <time>2018-09-18T08:05:38Z</time>
      </trkpt>
      <trkpt lat="47.323934035375714" lon="9.976384984329343">
        <ele>796.11000000000001</ele>
        <time>2018-09-18T08:05:49Z</time>
      </trkpt>
      <trkpt lat="47.323792967945337" lon="9.976479029282928">
        <ele>796.59000000000003</ele>
        <time>2018-09-18T08:05:51Z</time>
      </trkpt>
      <trkpt lat="47.323730019852519" lon="9.976521022617817">
        <ele>797.07000000000005</ele>
        <time>2018-09-18T08:05:52Z</time>
      </trkpt>
      <trkpt lat="47.323633963242173" lon="9.976472994312644">
        <ele>797.54999999999995</ele>
        <time>2018-09-18T08:05:53Z</time>
      </trkpt>
      <trkpt lat="47.323555005714297" lon="9.976419014856219">
        <ele>798.02999999999997</ele>
        <time>2018-09-18T08:05:54Z</time>
      </trkpt>
      <trkpt lat="47.323464984074235" lon="9.976355982944369">
        <ele>798.50999999999999</ele>
        <time>2018-09-18T08:05:55Z</time>
      </trkpt>
      <trkpt lat="47.323262980207801" lon="9.976305020973086">
        <ele>799.47000000000003</ele>
        <time>2018-09-18T08:05:57Z</time>
      </trkpt>
      <trkpt lat="47.323172958567739" lon="9.976317007094622">
        <ele>799.95000000000005</ele>
        <time>2018-09-18T08:05:58Z</time>
      </trkpt>
      <trkpt lat="47.323094001039863" lon="9.976380039006472">
        <ele>800.44000000000005</ele>
        <time>2018-09-18T08:05:59Z</time>
      </trkpt>
      <trkpt lat="47.323041027411819" lon="9.97648598626256">
        <ele>801.39999999999998</ele>
        <time>2018-09-18T08:06:00Z</time>
      </trkpt>
      <trkpt lat="47.322995010763407" lon="9.976602997630835">
        <ele>801.88</ele>
        <time>2018-09-18T08:06:01Z</time>
      </trkpt>
      <trkpt lat="47.322956034913659" lon="9.976750016212463">
        <ele>802.84000000000003</ele>
        <time>2018-09-18T08:06:02Z</time>
      </trkpt>
      <trkpt lat="47.322915969416499" lon="9.976898962631822">
        <ele>803.79999999999995</ele>
        <time>2018-09-18T08:06:03Z</time>
      </trkpt>
      <trkpt lat="47.322597038000822" lon="9.978264039382339">
        <ele>811.00999999999999</ele>
        <time>2018-09-18T08:06:11Z</time>
      </trkpt>
      <trkpt lat="47.322506010532379" lon="9.978839959949255">
        <ele>813.88999999999999</ele>
        <time>2018-09-18T08:06:15Z</time>
      </trkpt>
      <trkpt lat="47.322455970570445" lon="9.978920007124543">
        <ele>814.85000000000002</ele>
        <time>2018-09-18T08:06:16Z</time>
      </trkpt>
      <trkpt lat="47.322377013042569" lon="9.978983039036393">
        <ele>815.82000000000005</ele>
        <time>2018-09-18T08:06:17Z</time>
      </trkpt>
      <trkpt lat="47.322318004444242" lon="9.978953031823039">
        <ele>816.77999999999997</ele>
        <time>2018-09-18T08:06:18Z</time>
      </trkpt>
      <trkpt lat="47.322255978360772" lon="9.978922018781304">
        <ele>817.74000000000001</ele>
        <time>2018-09-18T08:06:19Z</time>
      </trkpt>
      <trkpt lat="47.322215996682644" lon="9.978811964392662">
        <ele>818.22000000000003</ele>
        <time>2018-09-18T08:06:20Z</time>
      </trkpt>
      <trkpt lat="47.322190012782812" lon="9.978685984387994">
        <ele>819.17999999999995</ele>
        <time>2018-09-18T08:06:21Z</time>
      </trkpt>
      <trkpt lat="47.32216696254909" lon="9.97854701243341">
        <ele>820.13999999999999</ele>
        <time>2018-09-18T08:06:22Z</time>
      </trkpt>
      <trkpt lat="47.322150031104684" lon="9.978394964709878">
        <ele>820.62</ele>
        <time>2018-09-18T08:06:23Z</time>
      </trkpt>
      <trkpt lat="47.322113988921046" lon="9.97807502746582">
        <ele>821.10000000000002</ele>
        <time>2018-09-18T08:06:25Z</time>
      </trkpt>
      <trkpt lat="47.322236029431224" lon="9.976259004324675">
        <ele>819.17999999999995</ele>
        <time>2018-09-18T08:06:36Z</time>
      </trkpt>
      <trkpt lat="47.322236029431224" lon="9.976082984358072">
        <ele>819.65999999999997</ele>
        <time>2018-09-18T08:06:37Z</time>
      </trkpt>
      <trkpt lat="47.322199987247586" lon="9.975743014365435">
        <ele>819.65999999999997</ele>
        <time>2018-09-18T08:06:39Z</time>
      </trkpt>
      <trkpt lat="47.322178026661277" lon="9.975572023540735">
        <ele>819.65999999999997</ele>
        <time>2018-09-18T08:06:40Z</time>
      </trkpt>
      <trkpt lat="47.322139972820878" lon="9.975402038544416">
        <ele>819.65999999999997</ele>
        <time>2018-09-18T08:06:41Z</time>
      </trkpt>
      <trkpt lat="47.322095967829227" lon="9.975233981385827">
        <ele>820.13999999999999</ele>
        <time>2018-09-18T08:06:42Z</time>
      </trkpt>
      <trkpt lat="47.322052968665957" lon="9.97506701387465">
        <ele>820.62</ele>
        <time>2018-09-18T08:06:43Z</time>
      </trkpt>
      <trkpt lat="47.321790028363466" lon="9.974484974518418">
        <ele>823.50999999999999</ele>
        <time>2018-09-18T08:06:47Z</time>
      </trkpt>
      <trkpt lat="47.321138000115752" lon="9.973508985713124">
        <ele>829.26999999999998</ele>
        <time>2018-09-18T08:06:56Z</time>
      </trkpt>
      <trkpt lat="47.320713037624955" lon="9.972980003803968">
        <ele>833.12</ele>
        <time>2018-09-18T08:07:01Z</time>
      </trkpt>
      <trkpt lat="47.320652017369866" lon="9.972872966900468">
        <ele>833.60000000000002</ele>
        <time>2018-09-18T08:07:02Z</time>
      </trkpt>
      <trkpt lat="47.320609018206596" lon="9.972744975239039">
        <ele>834.08000000000004</ele>
        <time>2018-09-18T08:07:03Z</time>
      </trkpt>
      <trkpt lat="47.320566019043326" lon="9.972614971920848">
        <ele>834.55999999999995</ele>
        <time>2018-09-18T08:07:04Z</time>
      </trkpt>
      <trkpt lat="47.320521008223295" lon="9.972479017451406">
        <ele>835.51999999999998</ele>
        <time>2018-09-18T08:07:05Z</time>
      </trkpt>
      <trkpt lat="47.320114988833666" lon="9.97122298926115">
        <ele>836.48000000000002</ele>
        <time>2018-09-18T08:07:13Z</time>
      </trkpt>
      <trkpt lat="47.320011975243688" lon="9.970755027607083">
        <ele>837.45000000000005</ele>
        <time>2018-09-18T08:07:16Z</time>
      </trkpt>
      <trkpt lat="47.319983979687095" lon="9.970589987933636">
        <ele>837.45000000000005</ele>
        <time>2018-09-18T08:07:17Z</time>
      </trkpt>
      <trkpt lat="47.31995296664536" lon="9.970412040129304">
        <ele>836.96000000000004</ele>
        <time>2018-09-18T08:07:18Z</time>
      </trkpt>
      <trkpt lat="47.319557005539536" lon="9.968955013900995">
        <ele>833.60000000000002</ele>
        <time>2018-09-18T08:07:26Z</time>
      </trkpt>
      <trkpt lat="47.319272020831704" lon="9.968266021460295">
        <ele>832.15999999999997</ele>
        <time>2018-09-18T08:07:30Z</time>
      </trkpt>
      <trkpt lat="47.319202031940222" lon="9.968096036463976">
        <ele>831.67999999999995</ele>
        <time>2018-09-18T08:07:31Z</time>
      </trkpt>
      <trkpt lat="47.319150986149907" lon="9.96791398152709">
        <ele>831.20000000000005</ele>
        <time>2018-09-18T08:07:32Z</time>
      </trkpt>
      <trkpt lat="47.319118967279792" lon="9.967724969610572">
        <ele>830.72000000000003</ele>
        <time>2018-09-18T08:07:33Z</time>
      </trkpt>
      <trkpt lat="47.319088960066438" lon="9.967539981007576">
        <ele>830.24000000000001</ele>
        <time>2018-09-18T08:07:34Z</time>
      </trkpt>
      <trkpt lat="47.319080997258425" lon="9.967350969091058">
        <ele>829.75999999999999</ele>
        <time>2018-09-18T08:07:35Z</time>
      </trkpt>
      <trkpt lat="47.319080997258425" lon="9.967167992144823">
        <ele>829.75999999999999</ele>
        <time>2018-09-18T08:07:36Z</time>
      </trkpt>
      <trkpt lat="47.319083008915186" lon="9.966986021026969">
        <ele>829.26999999999998</ele>
        <time>2018-09-18T08:07:37Z</time>
      </trkpt>
      <trkpt lat="47.318962980061769" lon="9.965230012312532">
        <ele>828.78999999999996</ele>
        <time>2018-09-18T08:07:46Z</time>
      </trkpt>
      <trkpt lat="47.318757036700845" lon="9.964420991018415">
        <ele>827.83000000000004</ele>
        <time>2018-09-18T08:07:50Z</time>
      </trkpt>
      <trkpt lat="47.31859995983541" lon="9.964043973013759">
        <ele>827.35000000000002</ele>
        <time>2018-09-18T08:07:52Z</time>
      </trkpt>
      <trkpt lat="47.318069972097874" lon="9.96303697116673">
        <ele>826.38999999999999</ele>
        <time>2018-09-18T08:07:58Z</time>
      </trkpt>
      <trkpt lat="47.318007024005055" lon="9.962888024747372">
        <ele>826.38999999999999</ele>
        <time>2018-09-18T08:07:59Z</time>
      </trkpt>
      <trkpt lat="47.317995959892869" lon="9.962724996730685">
        <ele>826.38999999999999</ele>
        <time>2018-09-18T08:08:00Z</time>
      </trkpt>
      <trkpt lat="47.318010963499546" lon="9.962537996470928">
        <ele>826.38999999999999</ele>
        <time>2018-09-18T08:08:01Z</time>
      </trkpt>
      <trkpt lat="47.318027978762984" lon="9.962331969290972">
        <ele>826.38999999999999</ele>
        <time>2018-09-18T08:08:02Z</time>
      </trkpt>
      <trkpt lat="47.318087993189692" lon="9.962123008444905">
        <ele>826.38999999999999</ele>
        <time>2018-09-18T08:08:03Z</time>
      </trkpt>
      <trkpt lat="47.318171979859471" lon="9.961866019293666">
        <ele>826.87</ele>
        <time>2018-09-18T08:08:04Z</time>
      </trkpt>
      <trkpt lat="47.318266024813056" lon="9.96157399378717">
        <ele>827.83000000000004</ele>
        <time>2018-09-18T08:08:05Z</time>
      </trkpt>
      <trkpt lat="47.318371972069144" lon="9.961309041827917">
        <ele>828.78999999999996</ele>
        <time>2018-09-18T08:08:06Z</time>
      </trkpt>
      <trkpt lat="47.318548997864127" lon="9.960822975263">
        <ele>830.72000000000003</ele>
        <time>2018-09-18T08:08:08Z</time>
      </trkpt>
      <trkpt lat="47.318604988977313" lon="9.960589958354831">
        <ele>832.15999999999997</ele>
        <time>2018-09-18T08:08:09Z</time>
      </trkpt>
      <trkpt lat="47.318637007847428" lon="9.960358031094074">
        <ele>833.12</ele>
        <time>2018-09-18T08:08:10Z</time>
      </trkpt>
      <trkpt lat="47.318648993968964" lon="9.960124008357525">
        <ele>835.03999999999996</ele>
        <time>2018-09-18T08:08:11Z</time>
      </trkpt>
      <trkpt lat="47.318633990362287" lon="9.959888979792595">
        <ele>836.48000000000002</ele>
        <time>2018-09-18T08:08:12Z</time>
      </trkpt>
      <trkpt lat="47.318611023947597" lon="9.959655962884426">
        <ele>838.40999999999997</ele>
        <time>2018-09-18T08:08:13Z</time>
      </trkpt>
      <trkpt lat="47.318523013964295" lon="9.959435015916824">
        <ele>840.33000000000004</ele>
        <time>2018-09-18T08:08:14Z</time>
      </trkpt>
      <trkpt lat="47.318435003980994" lon="9.959223959594965">
        <ele>842.25</ele>
        <time>2018-09-18T08:08:15Z</time>
      </trkpt>
      <trkpt lat="47.318330984562635" lon="9.959035031497479">
        <ele>844.17999999999995</ele>
        <time>2018-09-18T08:08:16Z</time>
      </trkpt>
      <trkpt lat="47.318221013993025" lon="9.958874015137553">
        <ele>846.58000000000004</ele>
        <time>2018-09-18T08:08:17Z</time>
      </trkpt>
      <trkpt lat="47.318116994574666" lon="9.958721967414022">
        <ele>848.5</ele>
        <time>2018-09-18T08:08:18Z</time>
      </trkpt>
      <trkpt lat="47.317872997373343" lon="9.95850102044642">
        <ele>852.83000000000004</ele>
        <time>2018-09-18T08:08:20Z</time>
      </trkpt>
      <trkpt lat="47.317261034622788" lon="9.957946976646781">
        <ele>863.39999999999998</ele>
        <time>2018-09-18T08:08:25Z</time>
      </trkpt>
      <trkpt lat="47.317151986062527" lon="9.957789983600378">
        <ele>865.32000000000005</ele>
        <time>2018-09-18T08:08:26Z</time>
      </trkpt>
      <trkpt lat="47.317055007442832" lon="9.957612035796046">
        <ele>867.25</ele>
        <time>2018-09-18T08:08:27Z</time>
      </trkpt>
      <trkpt lat="47.316957022994757" lon="9.957431992515922">
        <ele>869.16999999999996</ele>
        <time>2018-09-18T08:08:28Z</time>
      </trkpt>
      <trkpt lat="47.316861972212791" lon="9.9572569783777">
        <ele>871.57000000000005</ele>
        <time>2018-09-18T08:08:29Z</time>
      </trkpt>
      <trkpt lat="47.31642996892333" lon="9.95646296069026">
        <ele>881.66999999999996</ele>
        <time>2018-09-18T08:08:34Z</time>
      </trkpt>
      <trkpt lat="47.316371966153383" lon="9.956289958208799">
        <ele>883.59000000000003</ele>
        <time>2018-09-18T08:08:35Z</time>
      </trkpt>
      <trkpt lat="47.316318992525339" lon="9.956120979040861">
        <ele>885.50999999999999</ele>
        <time>2018-09-18T08:08:36Z</time>
      </trkpt>
      <trkpt lat="47.316295020282269" lon="9.955951999872923">
        <ele>886.95000000000005</ele>
        <time>2018-09-18T08:08:37Z</time>
      </trkpt>
      <trkpt lat="47.316275993362069" lon="9.955802969634533">
        <ele>888.88</ele>
        <time>2018-09-18T08:08:38Z</time>
      </trkpt>
      <trkpt lat="47.31627800501883" lon="9.955643964931369">
        <ele>890.79999999999995</ele>
        <time>2018-09-18T08:08:39Z</time>
      </trkpt>
      <trkpt lat="47.316287979483604" lon="9.95547397993505">
        <ele>892.72000000000003</ele>
        <time>2018-09-18T08:08:40Z</time>
      </trkpt>
      <trkpt lat="47.3163210041821" lon="9.955303994938731">
        <ele>894.63999999999999</ele>
        <time>2018-09-18T08:08:41Z</time>
      </trkpt>
      <trkpt lat="47.316360985860229" lon="9.955145996063948">
        <ele>896.09000000000003</ele>
        <time>2018-09-18T08:08:42Z</time>
      </trkpt>
      <trkpt lat="47.316396022215486" lon="9.955010041594505">
        <ele>898.00999999999999</ele>
        <time>2018-09-18T08:08:43Z</time>
      </trkpt>
      <trkpt lat="47.316458970308304" lon="9.954768978059292">
        <ele>900.88999999999999</ele>
        <time>2018-09-18T08:08:45Z</time>
      </trkpt>
      <trkpt lat="47.316444972530007" lon="9.95465699583292">
        <ele>901.85000000000002</ele>
        <time>2018-09-18T08:08:46Z</time>
      </trkpt>
      <trkpt lat="47.316424017772079" lon="9.95454995892942">
        <ele>902.33000000000004</ele>
        <time>2018-09-18T08:08:47Z</time>
      </trkpt>
      <trkpt lat="47.316375989466906" lon="9.954516012221575">
        <ele>902.82000000000005</ele>
        <time>2018-09-18T08:08:48Z</time>
      </trkpt>
      <trkpt lat="47.316306000575423" lon="9.95448499917984">
        <ele>903.77999999999997</ele>
        <time>2018-09-18T08:08:49Z</time>
      </trkpt>
      <trkpt lat="47.316227965056896" lon="9.954449962824583">
        <ele>904.74000000000001</ele>
        <time>2018-09-18T08:08:50Z</time>
      </trkpt>
      <trkpt lat="47.316150013357401" lon="9.954495979472995">
        <ele>906.17999999999995</ele>
        <time>2018-09-18T08:08:51Z</time>
      </trkpt>
      <trkpt lat="47.316064015030861" lon="9.95454803109169">
        <ele>907.13999999999999</ele>
        <time>2018-09-18T08:08:52Z</time>
      </trkpt>
      <trkpt lat="47.315972987562418" lon="9.954592036083341">
        <ele>907.62</ele>
        <time>2018-09-18T08:08:53Z</time>
      </trkpt>
      <trkpt lat="47.315879026427865" lon="9.954623971134424">
        <ele>909.05999999999995</ele>
        <time>2018-09-18T08:08:54Z</time>
      </trkpt>
      <trkpt lat="47.315781963989139" lon="9.95465599000454">
        <ele>910.02999999999997</ele>
        <time>2018-09-18T08:08:55Z</time>
      </trkpt>
      <trkpt lat="47.315669981762767" lon="9.954652972519398">
        <ele>911.47000000000003</ele>
        <time>2018-09-18T08:08:56Z</time>
      </trkpt>
      <trkpt lat="47.315555987879634" lon="9.954605028033257">
        <ele>912.42999999999995</ele>
        <time>2018-09-18T08:08:57Z</time>
      </trkpt>
      <trkpt lat="47.315445011481643" lon="9.954521041363478">
        <ele>913.87</ele>
        <time>2018-09-18T08:08:58Z</time>
      </trkpt>
      <trkpt lat="47.315318025648594" lon="9.954423978924751">
        <ele>914.83000000000004</ele>
        <time>2018-09-18T08:08:59Z</time>
      </trkpt>
      <trkpt lat="47.315171007066965" lon="9.95431199669838">
        <ele>915.78999999999996</ele>
        <time>2018-09-18T08:09:00Z</time>
      </trkpt>
      <trkpt lat="47.314443038776517" lon="9.953756025061011">
        <ele>922.51999999999998</ele>
        <time>2018-09-18T08:09:05Z</time>
      </trkpt>
      <trkpt lat="47.31434497050941" lon="9.953609006479383">
        <ele>923.96000000000004</ele>
        <time>2018-09-18T08:09:06Z</time>
      </trkpt>
      <trkpt lat="47.314255032688379" lon="9.953457964584231">
        <ele>925.40999999999997</ele>
        <time>2018-09-18T08:09:07Z</time>
      </trkpt>
      <trkpt lat="47.314185965806246" lon="9.953270964324474">
        <ele>927.33000000000004</ele>
        <time>2018-09-18T08:09:08Z</time>
      </trkpt>
      <trkpt lat="47.31412704102695" lon="9.953076001256704">
        <ele>928.76999999999998</ele>
        <time>2018-09-18T08:09:09Z</time>
      </trkpt>
      <trkpt lat="47.31406501494348" lon="9.95287399739027">
        <ele>930.69000000000005</ele>
        <time>2018-09-18T08:09:10Z</time>
      </trkpt>
      <trkpt lat="47.31400097720325" lon="9.952665036544204">
        <ele>932.62</ele>
        <time>2018-09-18T08:09:11Z</time>
      </trkpt>
      <trkpt lat="47.313909027725458" lon="9.952473007142544">
        <ele>934.53999999999996</ele>
        <time>2018-09-18T08:09:12Z</time>
      </trkpt>
      <trkpt lat="47.313808025792241" lon="9.95227200910449">
        <ele>936.94000000000005</ele>
        <time>2018-09-18T08:09:13Z</time>
      </trkpt>
      <trkpt lat="47.313698977231979" lon="9.95207997970283">
        <ele>939.35000000000002</ele>
        <time>2018-09-18T08:09:14Z</time>
      </trkpt>
      <trkpt lat="47.313589006662369" lon="9.951894991099834">
        <ele>941.26999999999998</ele>
        <time>2018-09-18T08:09:15Z</time>
      </trkpt>
      <trkpt lat="47.313381973654032" lon="9.951544962823391">
        <ele>945.59000000000003</ele>
        <time>2018-09-18T08:09:17Z</time>
      </trkpt>
      <trkpt lat="47.313321037217975" lon="9.951324015855789">
        <ele>948</ele>
        <time>2018-09-18T08:09:18Z</time>
      </trkpt>
      <trkpt lat="47.313264040276408" lon="9.951102985069156">
        <ele>950.39999999999998</ele>
        <time>2018-09-18T08:09:19Z</time>
      </trkpt>
      <trkpt lat="47.313207965344191" lon="9.950882038101554">
        <ele>952.79999999999995</ele>
        <time>2018-09-18T08:09:20Z</time>
      </trkpt>
      <trkpt lat="47.313154991716146" lon="9.950672993436456">
        <ele>955.21000000000004</ele>
        <time>2018-09-18T08:09:21Z</time>
      </trkpt>
      <trkpt lat="47.313106963410974" lon="9.950485993176699">
        <ele>957.61000000000001</ele>
        <time>2018-09-18T08:09:22Z</time>
      </trkpt>
      <trkpt lat="47.313040997833014" lon="9.950339980423451">
        <ele>960.00999999999999</ele>
        <time>2018-09-18T08:09:23Z</time>
      </trkpt>
      <trkpt lat="47.312957011163235" lon="9.95023000985384">
        <ele>962.41999999999996</ele>
        <time>2018-09-18T08:09:24Z</time>
      </trkpt>
      <trkpt lat="47.312846034765244" lon="9.950174018740654">
        <ele>964.34000000000003</ele>
        <time>2018-09-18T08:09:25Z</time>
      </trkpt>
      <trkpt lat="47.312723994255066" lon="9.950112998485565">
        <ele>966.74000000000001</ele>
        <time>2018-09-18T08:09:26Z</time>
      </trkpt>
      <trkpt lat="47.312593990936875" lon="9.950052984058857">
        <ele>968.66999999999996</ele>
        <time>2018-09-18T08:09:27Z</time>
      </trkpt>
      <trkpt lat="47.312450995668769" lon="9.950076034292579">
        <ele>970.59000000000003</ele>
        <time>2018-09-18T08:09:28Z</time>
      </trkpt>
      <trkpt lat="47.31230397708714" lon="9.95010101236403">
        <ele>972.99000000000001</ele>
        <time>2018-09-18T08:09:29Z</time>
      </trkpt>
      <trkpt lat="47.312171040102839" lon="9.950122972950339">
        <ele>974.90999999999997</ele>
        <time>2018-09-18T08:09:30Z</time>
      </trkpt>
      <trkpt lat="47.312043970450759" lon="9.950121967121959">
        <ele>976.84000000000003</ele>
        <time>2018-09-18T08:09:31Z</time>
      </trkpt>
      <trkpt lat="47.311928970739245" lon="9.950077962130308">
        <ele>978.75999999999999</ele>
        <time>2018-09-18T08:09:32Z</time>
      </trkpt>
      <trkpt lat="47.311821011826396" lon="9.949984000995755">
        <ele>980.67999999999995</ele>
        <time>2018-09-18T08:09:33Z</time>
      </trkpt>
      <trkpt lat="47.311711963266134" lon="9.949880987405777">
        <ele>982.60000000000002</ele>
        <time>2018-09-18T08:09:34Z</time>
      </trkpt>
      <trkpt lat="47.311121039092541" lon="9.949320992454886">
        <ele>993.65999999999997</ele>
        <time>2018-09-18T08:09:39Z</time>
      </trkpt>
      <trkpt lat="47.31103403493762" lon="9.949171040207148">
        <ele>996.05999999999995</ele>
        <time>2018-09-18T08:09:40Z</time>
      </trkpt>
      <trkpt lat="47.310961028560996" lon="9.949002983048558">
        <ele>997.99000000000001</ele>
        <time>2018-09-18T08:09:41Z</time>
      </trkpt>
      <trkpt lat="47.310891039669514" lon="9.948819000273943">
        <ele>1000.39</ele>
        <time>2018-09-18T08:09:42Z</time>
      </trkpt>
      <trkpt lat="47.31081903912127" lon="9.948628982529044">
        <ele>1002.3099999999999</ele>
        <time>2018-09-18T08:09:43Z</time>
      </trkpt>
      <trkpt lat="47.310748966410756" lon="9.948443993926048">
        <ele>1004.23</ele>
        <time>2018-09-18T08:09:44Z</time>
      </trkpt>
      <trkpt lat="47.31067000888288" lon="9.948262022808194">
        <ele>1006.64</ele>
        <time>2018-09-18T08:09:45Z</time>
      </trkpt>
      <trkpt lat="47.31056297197938" lon="9.948112992569804">
        <ele>1009.04</ele>
        <time>2018-09-18T08:09:46Z</time>
      </trkpt>
      <trkpt lat="47.310451995581388" lon="9.947958011180162">
        <ele>1010.96</ele>
        <time>2018-09-18T08:09:47Z</time>
      </trkpt>
      <trkpt lat="47.310338001698256" lon="9.947800012305379">
        <ele>1013.37</ele>
        <time>2018-09-18T08:09:48Z</time>
      </trkpt>
      <trkpt lat="47.310028960928321" lon="9.947369014844298">
        <ele>1019.62</ele>
        <time>2018-09-18T08:09:51Z</time>
      </trkpt>
      <trkpt lat="47.309965007007122" lon="9.947207998484373">
        <ele>1021.54</ele>
        <time>2018-09-18T08:09:52Z</time>
      </trkpt>
      <trkpt lat="47.309931982308626" lon="9.94703097268939">
        <ele>1023.46</ele>
        <time>2018-09-18T08:09:53Z</time>
      </trkpt>
      <trkpt lat="47.309912033379078" lon="9.946838021278381">
        <ele>1025.3800000000001</ele>
        <time>2018-09-18T08:09:54Z</time>
      </trkpt>
      <trkpt lat="47.309900969266891" lon="9.946637023240328">
        <ele>1027.3099999999999</ele>
        <time>2018-09-18T08:09:55Z</time>
      </trkpt>
      <trkpt lat="47.309880014508963" lon="9.94623301550746">
        <ele>1031.6300000000001</ele>
        <time>2018-09-18T08:09:57Z</time>
      </trkpt>
      <trkpt lat="47.309826035052538" lon="9.946030005812645">
        <ele>1033.55</ele>
        <time>2018-09-18T08:09:58Z</time>
      </trkpt>
      <trkpt lat="47.309740036725998" lon="9.945855997502804">
        <ele>1035.96</ele>
        <time>2018-09-18T08:09:59Z</time>
      </trkpt>
      <trkpt lat="47.3096380289644" lon="9.945703027769923">
        <ele>1037.8800000000001</ele>
        <time>2018-09-18T08:10:00Z</time>
      </trkpt>
      <trkpt lat="47.309541972354054" lon="9.945560032501817">
        <ele>1039.8</ele>
        <time>2018-09-18T08:10:01Z</time>
      </trkpt>
      <trkpt lat="47.309416998177767" lon="9.945493983104825">
        <ele>1041.73</ele>
        <time>2018-09-18T08:10:02Z</time>
      </trkpt>
      <trkpt lat="47.30933996848762" lon="9.9454590305686">
        <ele>1043.1700000000001</ele>
        <time>2018-09-18T08:10:03Z</time>
      </trkpt>
      <trkpt lat="47.30916696600616" lon="9.945493983104825">
        <ele>1044.1300000000001</ele>
        <time>2018-09-18T08:10:04Z</time>
      </trkpt>
      <trkpt lat="47.309020031243563" lon="9.945522984489799">
        <ele>1045.5699999999999</ele>
        <time>2018-09-18T08:10:05Z</time>
      </trkpt>
      <trkpt lat="47.308861026540399" lon="9.945557015016675">
        <ele>1046.53</ele>
        <time>2018-09-18T08:10:06Z</time>
      </trkpt>
      <trkpt lat="47.308691963553429" lon="9.945594985038042">
        <ele>1047.97</ele>
        <time>2018-09-18T08:10:07Z</time>
      </trkpt>
      <trkpt lat="47.308211009949446" lon="9.945705039426684">
        <ele>1052.3</ele>
        <time>2018-09-18T08:10:10Z</time>
      </trkpt>
      <trkpt lat="47.307815970852971" lon="9.945777961984277">
        <ele>1057.1099999999999</ele>
        <time>2018-09-18T08:10:13Z</time>
      </trkpt>
      <trkpt lat="47.307698037475348" lon="9.945771005004644">
        <ele>1058.55</ele>
        <time>2018-09-18T08:10:14Z</time>
      </trkpt>
      <trkpt lat="47.307470971718431" lon="9.945765975862742">
        <ele>1060.95</ele>
        <time>2018-09-18T08:10:16Z</time>
      </trkpt>
      <trkpt lat="47.307355972006917" lon="9.94578299112618">
        <ele>1061.9100000000001</ele>
        <time>2018-09-18T08:10:17Z</time>
      </trkpt>
      <trkpt lat="47.307214988395572" lon="9.94580302387476">
        <ele>1063.3599999999999</ele>
        <time>2018-09-18T08:10:18Z</time>
      </trkpt>
      <trkpt lat="47.307119015604258" lon="9.945879969745874">
        <ele>1064.3199999999999</ele>
        <time>2018-09-18T08:10:19Z</time>
      </trkpt>
      <trkpt lat="47.307000998407602" lon="9.945974014699459">
        <ele>1065.28</ele>
        <time>2018-09-18T08:10:20Z</time>
      </trkpt>
      <trkpt lat="47.306885998696089" lon="9.946054983884096">
        <ele>1065.76</ele>
        <time>2018-09-18T08:10:21Z</time>
      </trkpt>
      <trkpt lat="47.306786002591252" lon="9.946124972775579">
        <ele>1066.72</ele>
        <time>2018-09-18T08:10:22Z</time>
      </trkpt>
      <trkpt lat="47.306669997051358" lon="9.946114998310804">
        <ele>1068.6400000000001</ele>
        <time>2018-09-18T08:10:24Z</time>
      </trkpt>
      <trkpt lat="47.306455001235008" lon="9.946016008034349">
        <ele>1070.0799999999999</ele>
        <time>2018-09-18T08:10:25Z</time>
      </trkpt>
      <trkpt lat="47.30635198764503" lon="9.945892039686441">
        <ele>1071.05</ele>
        <time>2018-09-18T08:10:26Z</time>
      </trkpt>
      <trkpt lat="47.305947979912162" lon="9.945409996435046">
        <ele>1074.8900000000001</ele>
        <time>2018-09-18T08:10:29Z</time>
      </trkpt>
      <trkpt lat="47.305790986865759" lon="9.945284016430378">
        <ele>1076.3299999999999</ele>
        <time>2018-09-18T08:10:30Z</time>
      </trkpt>
      <trkpt lat="47.305616978555918" lon="9.945221990346909">
        <ele>1077.29</ele>
        <time>2018-09-18T08:10:31Z</time>
      </trkpt>
      <trkpt lat="47.305440958589315" lon="9.945159964263439">
        <ele>1078.26</ele>
        <time>2018-09-18T08:10:32Z</time>
      </trkpt>
      <trkpt lat="47.305263010784984" lon="9.945098021999002">
        <ele>1079.22</ele>
        <time>2018-09-18T08:10:33Z</time>
      </trkpt>
      <trkpt lat="47.304586004465818" lon="9.944819994270802">
        <ele>1082.5799999999999</ele>
        <time>2018-09-18T08:10:37Z</time>
      </trkpt>
      <trkpt lat="47.304428005591035" lon="9.94473097845912">
        <ele>1083.54</ele>
        <time>2018-09-18T08:10:38Z</time>
      </trkpt>
      <trkpt lat="47.304305965080857" lon="9.944581026211381">
        <ele>1084.5</ele>
        <time>2018-09-18T08:10:39Z</time>
      </trkpt>
      <trkpt lat="47.30420102365315" lon="9.944449011236429">
        <ele>1084.99</ele>
        <time>2018-09-18T08:10:40Z</time>
      </trkpt>
      <trkpt lat="47.304134974256158" lon="9.944285983219743">
        <ele>1085.95</ele>
        <time>2018-09-18T08:10:41Z</time>
      </trkpt>
      <trkpt lat="47.304084012284875" lon="9.944104012101889">
        <ele>1086.4300000000001</ele>
        <time>2018-09-18T08:10:42Z</time>
      </trkpt>
      <trkpt lat="47.30403196066618" lon="9.943916006013751">
        <ele>1086.9100000000001</ele>
        <time>2018-09-18T08:10:43Z</time>
      </trkpt>
      <trkpt lat="47.303979992866516" lon="9.943725988268852">
        <ele>1086.9100000000001</ele>
        <time>2018-09-18T08:10:44Z</time>
      </trkpt>
      <trkpt lat="47.30385703034699" lon="9.943191977217794">
        <ele>1088.3499999999999</ele>
        <time>2018-09-18T08:10:47Z</time>
      </trkpt>
      <trkpt lat="47.303830040618777" lon="9.943025009706616">
        <ele>1088.8299999999999</ele>
        <time>2018-09-18T08:10:48Z</time>
      </trkpt>
      <trkpt lat="47.303830962628126" lon="9.942852007225156">
        <ele>1088.8299999999999</ele>
        <time>2018-09-18T08:10:49Z</time>
      </trkpt>
      <trkpt lat="47.303844960406423" lon="9.942554030567408">
        <ele>1089.3099999999999</ele>
        <time>2018-09-18T08:10:51Z</time>
      </trkpt>
      <trkpt lat="47.30381696484983" lon="9.942449005320668">
        <ele>1089.3099999999999</ele>
        <time>2018-09-18T08:10:52Z</time>
      </trkpt>
      <trkpt lat="47.30377203784883" lon="9.942341968417168">
        <ele>1089.3099999999999</ele>
        <time>2018-09-18T08:10:53Z</time>
      </trkpt>
      <trkpt lat="47.30370900593698" lon="9.942262005060911">
        <ele>1089.79</ele>
        <time>2018-09-18T08:10:54Z</time>
      </trkpt>
      <trkpt lat="47.303616972640157" lon="9.942262005060911">
        <ele>1089.79</ele>
        <time>2018-09-18T08:10:55Z</time>
      </trkpt>
      <trkpt lat="47.303511025384068" lon="9.942277008667588">
        <ele>1090.27</ele>
        <time>2018-09-18T08:10:56Z</time>
      </trkpt>
      <trkpt lat="47.303424021229148" lon="9.942370969802141">
        <ele>1090.75</ele>
        <time>2018-09-18T08:10:57Z</time>
      </trkpt>
      <trkpt lat="47.303329976275563" lon="9.942473983392119">
        <ele>1091.23</ele>
        <time>2018-09-18T08:10:58Z</time>
      </trkpt>
      <trkpt lat="47.302800994366407" lon="9.942914033308625">
        <ele>1091.71</ele>
        <time>2018-09-18T08:11:04Z</time>
      </trkpt>
      <trkpt lat="47.302688006311655" lon="9.942970024421811">
        <ele>1091.71</ele>
        <time>2018-09-18T08:11:05Z</time>
      </trkpt>
      <trkpt lat="47.302607959136367" lon="9.94292501360178">
        <ele>1092.2</ele>
        <time>2018-09-18T08:11:06Z</time>
      </trkpt>
      <trkpt lat="47.30250502936542" lon="9.942845972254872">
        <ele>1091.71</ele>
        <time>2018-09-18T08:11:07Z</time>
      </trkpt>
      <trkpt lat="47.302392963320017" lon="9.942714963108301">
        <ele>1092.2</ele>
        <time>2018-09-18T08:11:08Z</time>
      </trkpt>
      <trkpt lat="47.302167993038893" lon="9.942454034462571">
        <ele>1092.2</ele>
        <time>2018-09-18T08:11:10Z</time>
      </trkpt>
      <trkpt lat="47.302041007205844" lon="9.942392008379102">
        <ele>1092.6800000000001</ele>
        <time>2018-09-18T08:11:11Z</time>
      </trkpt>
      <trkpt lat="47.301931958645582" lon="9.942350015044212">
        <ele>1092.6800000000001</ele>
        <time>2018-09-18T08:11:12Z</time>
      </trkpt>
      <trkpt lat="47.301828023046255" lon="9.942311039194465">
        <ele>1092.6800000000001</ele>
        <time>2018-09-18T08:11:13Z</time>
      </trkpt>
      <trkpt lat="47.301719980314374" lon="9.942269967868924">
        <ele>1093.1600000000001</ele>
        <time>2018-09-18T08:11:14Z</time>
      </trkpt>
      <trkpt lat="47.301615960896015" lon="9.942190004512668">
        <ele>1093.6400000000001</ele>
        <time>2018-09-18T08:11:15Z</time>
      </trkpt>
      <trkpt lat="47.301510013639927" lon="9.942100988700986">
        <ele>1093.6400000000001</ele>
        <time>2018-09-18T08:11:16Z</time>
      </trkpt>
      <trkpt lat="47.30140901170671" lon="9.942015996202827">
        <ele>1094.1199999999999</ele>
        <time>2018-09-18T08:11:17Z</time>
      </trkpt>
      <trkpt lat="47.301310021430254" lon="9.941932009533048">
        <ele>1094.1199999999999</ele>
        <time>2018-09-18T08:11:18Z</time>
      </trkpt>
      <trkpt lat="47.301213964819908" lon="9.94185003452003">
        <ele>1094.1199999999999</ele>
        <time>2018-09-18T08:11:19Z</time>
      </trkpt>
      <trkpt lat="47.301125032827258" lon="9.941768981516361">
        <ele>1094.5999999999999</ele>
        <time>2018-09-18T08:11:20Z</time>
      </trkpt>
      <trkpt lat="47.301035011187196" lon="9.941661022603512">
        <ele>1094.1199999999999</ele>
        <time>2018-09-18T08:11:21Z</time>
      </trkpt>
      <trkpt lat="47.300998969003558" lon="9.94152800180018">
        <ele>1094.1199999999999</ele>
        <time>2018-09-18T08:11:22Z</time>
      </trkpt>
      <trkpt lat="47.300991006195545" lon="9.941345024853945">
        <ele>1094.5999999999999</ele>
        <time>2018-09-18T08:11:23Z</time>
      </trkpt>
      <trkpt lat="47.301041968166828" lon="9.941203035414219">
        <ele>1094.5999999999999</ele>
        <time>2018-09-18T08:11:24Z</time>
      </trkpt>
      <trkpt lat="47.3011090233922" lon="9.941080994904041">
        <ele>1094.5999999999999</ele>
        <time>2018-09-18T08:11:25Z</time>
      </trkpt>
      <trkpt lat="47.301179012283683" lon="9.940955014899373">
        <ele>1095.0799999999999</ele>
        <time>2018-09-18T08:11:26Z</time>
      </trkpt>
      <trkpt lat="47.301250007003546" lon="9.940825011581183">
        <ele>1095.0799999999999</ele>
        <time>2018-09-18T08:11:27Z</time>
      </trkpt>
      <trkpt lat="47.301296023651958" lon="9.940677992999554">
        <ele>1095.5599999999999</ele>
        <time>2018-09-18T08:11:28Z</time>
      </trkpt>
      <trkpt lat="47.301356960088015" lon="9.940481018275023">
        <ele>1096.04</ele>
        <time>2018-09-18T08:11:29Z</time>
      </trkpt>
      <trkpt lat="47.301374981179833" lon="9.940360989421606">
        <ele>1096.52</ele>
        <time>2018-09-18T08:11:30Z</time>
      </trkpt>
      <trkpt lat="47.301395013928413" lon="9.940214976668358">
        <ele>1097.48</ele>
        <time>2018-09-18T08:11:31Z</time>
      </trkpt>
      <trkpt lat="47.301361989229918" lon="9.940082039684057">
        <ele>1097.96</ele>
        <time>2018-09-18T08:11:32Z</time>
      </trkpt>
      <trkpt lat="47.301317984238267" lon="9.939966034144163">
        <ele>1098.4400000000001</ele>
        <time>2018-09-18T08:11:33Z</time>
      </trkpt>
      <trkpt lat="47.301240032538772" lon="9.93987500667572">
        <ele>1099.4000000000001</ele>
        <time>2018-09-18T08:11:34Z</time>
      </trkpt>
      <trkpt lat="47.301142970100045" lon="9.939844999462366">
        <ele>1099.8900000000001</ele>
        <time>2018-09-18T08:11:35Z</time>
      </trkpt>
      <trkpt lat="47.301052026450634" lon="9.939879029989243">
        <ele>1100.3699999999999</ele>
        <time>2018-09-18T08:11:36Z</time>
      </trkpt>
      <trkpt lat="47.300945995375514" lon="9.93991800583899">
        <ele>1101.3299999999999</ele>
        <time>2018-09-18T08:11:37Z</time>
      </trkpt>
      <trkpt lat="47.300836024805903" lon="9.939957987517119">
        <ele>1101.8099999999999</ele>
        <time>2018-09-18T08:11:38Z</time>
      </trkpt>
      <trkpt lat="47.300725970417261" lon="9.939966034144163">
        <ele>1102.77</ele>
        <time>2018-09-18T08:11:39Z</time>
      </trkpt>
      <trkpt lat="47.300629997625947" lon="9.93989797309041">
        <ele>1103.25</ele>
        <time>2018-09-18T08:11:40Z</time>
      </trkpt>
      <trkpt lat="47.300430005416274" lon="9.939756989479065">
        <ele>1105.1700000000001</ele>
        <time>2018-09-18T08:11:42Z</time>
      </trkpt>
      <trkpt lat="47.300335960462689" lon="9.939751960337162">
        <ele>1106.1300000000001</ele>
        <time>2018-09-18T08:11:43Z</time>
      </trkpt>
      <trkpt lat="47.300237976014614" lon="9.939790014177561">
        <ele>1107.0999999999999</ele>
        <time>2018-09-18T08:11:44Z</time>
      </trkpt>
      <trkpt lat="47.300025997683406" lon="9.939872995018959">
        <ele>1109.02</ele>
        <time>2018-09-18T08:11:46Z</time>
      </trkpt>
      <trkpt lat="47.299917032942176" lon="9.939915994182229">
        <ele>1109.98</ele>
        <time>2018-09-18T08:11:47Z</time>
      </trkpt>
      <trkpt lat="47.299819970503449" lon="9.939889004454017">
        <ele>1110.9400000000001</ele>
        <time>2018-09-18T08:11:48Z</time>
      </trkpt>
      <trkpt lat="47.299764985218644" lon="9.939863020554185">
        <ele>1111.9000000000001</ele>
        <time>2018-09-18T08:11:49Z</time>
      </trkpt>
      <trkpt lat="47.299764985218644" lon="9.939863020554185">
        <ele>1114.3099999999999</ele>
        <time>2018-09-18T08:11:56Z</time>
      </trkpt>
      <trkpt lat="47.29956298135221" lon="9.939772998914123">
        <ele>1116.71</ele>
        <time>2018-09-18T08:12:00Z</time>
      </trkpt>
      <trkpt lat="47.299372041597962" lon="9.939687000587583">
        <ele>1118.6300000000001</ele>
        <time>2018-09-18T08:12:02Z</time>
      </trkpt>
      <trkpt lat="47.298859991133213" lon="9.939628997817636">
        <ele>1123.9200000000001</ele>
        <time>2018-09-18T08:12:06Z</time>
      </trkpt>
      <trkpt lat="47.298711966723204" lon="9.939654981717467">
        <ele>1124.8800000000001</ele>
        <time>2018-09-18T08:12:07Z</time>
      </trkpt>
      <trkpt lat="47.29820704087615" lon="9.939718013629317">
        <ele>1129.21</ele>
        <time>2018-09-18T08:12:10Z</time>
      </trkpt>
      <trkpt lat="47.298039989545941" lon="9.93968297727406">
        <ele>1131.1300000000001</ele>
        <time>2018-09-18T08:12:11Z</time>
      </trkpt>
      <trkpt lat="47.297876039519906" lon="9.939648024737835">
        <ele>1133.05</ele>
        <time>2018-09-18T08:12:12Z</time>
      </trkpt>
      <trkpt lat="47.297720974311233" lon="9.939561020582914">
        <ele>1134.49</ele>
        <time>2018-09-18T08:12:13Z</time>
      </trkpt>
      <trkpt lat="47.297574961557984" lon="9.939474016427994">
        <ele>1136.4200000000001</ele>
        <time>2018-09-18T08:12:14Z</time>
      </trkpt>
      <trkpt lat="47.297443030402064" lon="9.939355999231339">
        <ele>1138.3399999999999</ele>
        <time>2018-09-18T08:12:15Z</time>
      </trkpt>
      <trkpt lat="47.297318978235126" lon="9.939232030883431">
        <ele>1139.78</ele>
        <time>2018-09-18T08:12:16Z</time>
      </trkpt>
      <trkpt lat="47.297199033200741" lon="9.9390799831599">
        <ele>1142.1800000000001</ele>
        <time>2018-09-18T08:12:17Z</time>
      </trkpt>
      <trkpt lat="47.297095013782382" lon="9.93888895958662">
        <ele>1144.1099999999999</ele>
        <time>2018-09-18T08:12:18Z</time>
      </trkpt>
      <trkpt lat="47.296600984409451" lon="9.937980026006699">
        <ele>1154.2</ele>
        <time>2018-09-18T08:12:22Z</time>
      </trkpt>
      <trkpt lat="47.296448014676571" lon="9.9377709813416">
        <ele>1156.5999999999999</ele>
        <time>2018-09-18T08:12:23Z</time>
      </trkpt>
      <trkpt lat="47.296150960028172" lon="9.937396980822086">
        <ele>1160.45</ele>
        <time>2018-09-18T08:12:25Z</time>
      </trkpt>
      <trkpt lat="47.295656008645892" lon="9.936458962038159">
        <ele>1168.1400000000001</ele>
        <time>2018-09-18T08:12:29Z</time>
      </trkpt>
      <trkpt lat="47.295511001721025" lon="9.93624203838408">
        <ele>1170.54</ele>
        <time>2018-09-18T08:12:30Z</time>
      </trkpt>
      <trkpt lat="47.294282969087362" lon="9.934613015502691">
        <ele>1192.1700000000001</ele>
        <time>2018-09-18T08:12:38Z</time>
      </trkpt>
      <trkpt lat="47.294217003509402" lon="9.934375975281">
        <ele>1195.0599999999999</ele>
        <time>2018-09-18T08:12:39Z</time>
      </trkpt>
      <trkpt lat="47.294150032103062" lon="9.934130972251296">
        <ele>1197.9400000000001</ele>
        <time>2018-09-18T08:12:40Z</time>
      </trkpt>
      <trkpt lat="47.294079959392548" lon="9.933877000585198">
        <ele>1200.8199999999999</ele>
        <time>2018-09-18T08:12:41Z</time>
      </trkpt>
      <trkpt lat="47.294019022956491" lon="9.933657981455326">
        <ele>1203.23</ele>
        <time>2018-09-18T08:12:42Z</time>
      </trkpt>
      <trkpt lat="47.293913997709751" lon="9.933412978425622">
        <ele>1205.1500000000001</ele>
        <time>2018-09-18T08:12:43Z</time>
      </trkpt>
      <trkpt lat="47.29382598772645" lon="9.933207035064697">
        <ele>1207.55</ele>
        <time>2018-09-18T08:12:44Z</time>
      </trkpt>
      <trkpt lat="47.293672012165189" lon="9.933038977906108">
        <ele>1209.48</ele>
        <time>2018-09-18T08:12:45Z</time>
      </trkpt>
      <trkpt lat="47.29352499358356" lon="9.932877039536834">
        <ele>1211.8800000000001</ele>
        <time>2018-09-18T08:12:46Z</time>
      </trkpt>
      <trkpt lat="47.293379986658692" lon="9.932717029005289">
        <ele>1213.8</ele>
        <time>2018-09-18T08:12:47Z</time>
      </trkpt>
      <trkpt lat="47.293006991967559" lon="9.932216964662075">
        <ele>1218.6099999999999</ele>
        <time>2018-09-18T08:12:50Z</time>
      </trkpt>
      <trkpt lat="47.29290003888309" lon="9.932038011029363">
        <ele>1219.5699999999999</ele>
        <time>2018-09-18T08:12:51Z</time>
      </trkpt>
      <trkpt lat="47.292827032506466" lon="9.931819997727871">
        <ele>1221.01</ele>
        <time>2018-09-18T08:12:52Z</time>
      </trkpt>
      <trkpt lat="47.292748996987939" lon="9.931586980819702">
        <ele>1221.97</ele>
        <time>2018-09-18T08:12:53Z</time>
      </trkpt>
      <trkpt lat="47.292668027803302" lon="9.931342983618379">
        <ele>1223.4200000000001</ele>
        <time>2018-09-18T08:12:54Z</time>
      </trkpt>
      <trkpt lat="47.292123958468437" lon="9.929826026782394">
        <ele>1228.22</ele>
        <time>2018-09-18T08:13:01Z</time>
      </trkpt>
      <trkpt lat="47.292052963748574" lon="9.929645983502269">
        <ele>1229.6600000000001</ele>
        <time>2018-09-18T08:13:02Z</time>
      </trkpt>
      <trkpt lat="47.291668988764286" lon="9.92842398583889">
        <ele>1235.9100000000001</ele>
        <time>2018-09-18T08:13:09Z</time>
      </trkpt>
      <trkpt lat="47.291502021253109" lon="9.928054008632898">
        <ele>1239.76</ele>
        <time>2018-09-18T08:13:14Z</time>
      </trkpt>
      <trkpt lat="47.291459022089839" lon="9.927979996427894">
        <ele>1240.24</ele>
        <time>2018-09-18T08:13:15Z</time>
      </trkpt>
      <trkpt lat="47.291404036805034" lon="9.92788502946496">
        <ele>1240.72</ele>
        <time>2018-09-18T08:13:16Z</time>
      </trkpt>
      <trkpt lat="47.290806993842125" lon="9.927244987338781">
        <ele>1244.5599999999999</ele>
        <time>2018-09-18T08:13:22Z</time>
      </trkpt>
      <trkpt lat="47.290695011615753" lon="9.927188996225596">
        <ele>1245.53</ele>
        <time>2018-09-18T08:13:23Z</time>
      </trkpt>
      <trkpt lat="47.290595015510917" lon="9.927101992070675">
        <ele>1246.49</ele>
        <time>2018-09-18T08:13:24Z</time>
      </trkpt>
      <trkpt lat="47.290499964728951" lon="9.927006019279361">
        <ele>1247.45</ele>
        <time>2018-09-18T08:13:25Z</time>
      </trkpt>
      <trkpt lat="47.290439028292894" lon="9.926872998476028">
        <ele>1248.4100000000001</ele>
        <time>2018-09-18T08:13:26Z</time>
      </trkpt>
      <trkpt lat="47.290382031351328" lon="9.926713993772864">
        <ele>1249.3699999999999</ele>
        <time>2018-09-18T08:13:27Z</time>
      </trkpt>
      <trkpt lat="47.29032201692462" lon="9.926546020433307">
        <ele>1250.3299999999999</ele>
        <time>2018-09-18T08:13:28Z</time>
      </trkpt>
      <trkpt lat="47.290190001949668" lon="9.926175959408283">
        <ele>1252.74</ele>
        <time>2018-09-18T08:13:30Z</time>
      </trkpt>
      <trkpt lat="47.290084976702929" lon="9.925999017432332">
        <ele>1254.1800000000001</ele>
        <time>2018-09-18T08:13:31Z</time>
      </trkpt>
      <trkpt lat="47.28995799086988" lon="9.925847975537181">
        <ele>1255.6199999999999</ele>
        <time>2018-09-18T08:13:32Z</time>
      </trkpt>
      <trkpt lat="47.289580972865224" lon="9.925337014719844">
        <ele>1259.9400000000001</ele>
        <time>2018-09-18T08:13:35Z</time>
      </trkpt>
      <trkpt lat="47.289238991215825" lon="9.924745000898838">
        <ele>1263.79</ele>
        <time>2018-09-18T08:13:38Z</time>
      </trkpt>
      <trkpt lat="47.288869014009833" lon="9.924216018989682">
        <ele>1268.1199999999999</ele>
        <time>2018-09-18T08:13:41Z</time>
      </trkpt>
      <trkpt lat="47.288745967671275" lon="9.924041004851461">
        <ele>1269.0799999999999</ele>
        <time>2018-09-18T08:13:42Z</time>
      </trkpt>
      <trkpt lat="47.28864898905158" lon="9.923829026520252">
        <ele>1270.52</ele>
        <time>2018-09-18T08:13:43Z</time>
      </trkpt>
      <trkpt lat="47.287993021309376" lon="9.921802030876279">
        <ele>1285.4200000000001</ele>
        <time>2018-09-18T08:13:51Z</time>
      </trkpt>
      <trkpt lat="47.287483988329768" lon="9.920045016333461">
        <ele>1298.8800000000001</ele>
        <time>2018-09-18T08:13:58Z</time>
      </trkpt>
      <trkpt lat="47.287402013316751" lon="9.91985198110342">
        <ele>1300.8</ele>
        <time>2018-09-18T08:13:59Z</time>
      </trkpt>
      <trkpt lat="47.287300005555153" lon="9.919689036905766">
        <ele>1302.24</ele>
        <time>2018-09-18T08:14:00Z</time>
      </trkpt>
      <trkpt lat="47.287191962823272" lon="9.919540006667376">
        <ele>1304.1700000000001</ele>
        <time>2018-09-18T08:14:01Z</time>
      </trkpt>
      <trkpt lat="47.287103030830622" lon="9.919387036934495">
        <ele>1305.6099999999999</ele>
        <time>2018-09-18T08:14:02Z</time>
      </trkpt>
      <trkpt lat="47.287050979211926" lon="9.91922602057457">
        <ele>1307.05</ele>
        <time>2018-09-18T08:14:03Z</time>
      </trkpt>
      <trkpt lat="47.287021977826953" lon="9.919043965637684">
        <ele>1308.49</ele>
        <time>2018-09-18T08:14:04Z</time>
      </trkpt>
      <trkpt lat="47.286975961178541" lon="9.918857971206307">
        <ele>1309.45</ele>
        <time>2018-09-18T08:14:05Z</time>
      </trkpt>
      <trkpt lat="47.286908989772201" lon="9.918706007301807">
        <ele>1310.4100000000001</ele>
        <time>2018-09-18T08:14:06Z</time>
      </trkpt>
      <trkpt lat="47.286846041679382" lon="9.918565023690462">
        <ele>1311.3800000000001</ele>
        <time>2018-09-18T08:14:07Z</time>
      </trkpt>
      <trkpt lat="47.286789966747165" lon="9.918435020372272">
        <ele>1312.3399999999999</ele>
        <time>2018-09-18T08:14:08Z</time>
      </trkpt>
      <trkpt lat="47.286765994504094" lon="9.918291019275785">
        <ele>1313.78</ele>
        <time>2018-09-18T08:14:09Z</time>
      </trkpt>
      <trkpt lat="47.286767000332475" lon="9.918141989037395">
        <ele>1314.74</ele>
        <time>2018-09-18T08:14:10Z</time>
      </trkpt>
      <trkpt lat="47.286813016980886" lon="9.91800301708281">
        <ele>1315.7</ele>
        <time>2018-09-18T08:14:11Z</time>
      </trkpt>
      <trkpt lat="47.286873031407595" lon="9.917855998501182">
        <ele>1316.6600000000001</ele>
        <time>2018-09-18T08:14:12Z</time>
      </trkpt>
      <trkpt lat="47.286935979500413" lon="9.917716020718217">
        <ele>1317.6199999999999</ele>
        <time>2018-09-18T08:14:13Z</time>
      </trkpt>
      <trkpt lat="47.287048967555165" lon="9.917488032951951">
        <ele>1319.0699999999999</ele>
        <time>2018-09-18T08:14:15Z</time>
      </trkpt>
      <trkpt lat="47.287104958668351" lon="9.917414020746946">
        <ele>1320.03</ele>
        <time>2018-09-18T08:14:16Z</time>
      </trkpt>
      <trkpt lat="47.287207972258329" lon="9.917275970801711">
        <ele>1320.99</ele>
        <time>2018-09-18T08:14:18Z</time>
      </trkpt>
      <trkpt lat="47.287280978634953" lon="9.917177986353636">
        <ele>1321.47</ele>
        <time>2018-09-18T08:14:19Z</time>
      </trkpt>
      <trkpt lat="47.287280978634953" lon="9.917088970541954">
        <ele>1321.95</ele>
        <time>2018-09-18T08:14:20Z</time>
      </trkpt>
      <trkpt lat="47.287280978634953" lon="9.916975982487202">
        <ele>1322.4300000000001</ele>
        <time>2018-09-18T08:14:21Z</time>
      </trkpt>
      <trkpt lat="47.287191040813923" lon="9.916899958625436">
        <ele>1322.4300000000001</ele>
        <time>2018-09-18T08:14:22Z</time>
      </trkpt>
      <trkpt lat="47.287098001688719" lon="9.916844973340631">
        <ele>1322.9100000000001</ele>
        <time>2018-09-18T08:14:23Z</time>
      </trkpt>
      <trkpt lat="47.286974033340812" lon="9.91680096834898">
        <ele>1323.3900000000001</ele>
        <time>2018-09-18T08:14:24Z</time>
      </trkpt>
      <trkpt lat="47.286829026415944" lon="9.916750006377697">
        <ele>1323.8699999999999</ele>
        <time>2018-09-18T08:14:25Z</time>
      </trkpt>
      <trkpt lat="47.28667002171278" lon="9.916694015264511">
        <ele>1324.3499999999999</ele>
        <time>2018-09-18T08:14:26Z</time>
      </trkpt>
      <trkpt lat="47.286375984549522" lon="9.916591001674533">
        <ele>1325.3099999999999</ele>
        <time>2018-09-18T08:14:28Z</time>
      </trkpt>
      <trkpt lat="47.286185966804624" lon="9.916387991979718">
        <ele>1326.76</ele>
        <time>2018-09-18T08:14:30Z</time>
      </trkpt>
      <trkpt lat="47.286125030368567" lon="9.91624197922647">
        <ele>1327.72</ele>
        <time>2018-09-18T08:14:31Z</time>
      </trkpt>
      <trkpt lat="47.285978011786938" lon="9.915891028940678">
        <ele>1329.6400000000001</ele>
        <time>2018-09-18T08:14:33Z</time>
      </trkpt>
      <trkpt lat="47.285880027338862" lon="9.915715008974075">
        <ele>1330.5999999999999</ele>
        <time>2018-09-18T08:14:34Z</time>
      </trkpt>
      <trkpt lat="47.285693027079105" lon="9.915420971810818">
        <ele>1332.04</ele>
        <time>2018-09-18T08:14:36Z</time>
      </trkpt>
      <trkpt lat="47.285642987117171" lon="9.91527202539146">
        <ele>1332.52</ele>
        <time>2018-09-18T08:14:37Z</time>
      </trkpt>
      <trkpt lat="47.285628989338875" lon="9.915117966011167">
        <ele>1333.49</ele>
        <time>2018-09-18T08:14:38Z</time>
      </trkpt>
      <trkpt lat="47.285657990723848" lon="9.914988968521357">
        <ele>1333.97</ele>
        <time>2018-09-18T08:14:39Z</time>
      </trkpt>
      <trkpt lat="47.28570400737226" lon="9.914883021265268">
        <ele>1334.9300000000001</ele>
        <time>2018-09-18T08:14:40Z</time>
      </trkpt>
      <trkpt lat="47.28578899987042" lon="9.914772966876626">
        <ele>1335.4100000000001</ele>
        <time>2018-09-18T08:14:41Z</time>
      </trkpt>
      <trkpt lat="47.285880027338862" lon="9.914654027670622">
        <ele>1335.8900000000001</ele>
        <time>2018-09-18T08:14:42Z</time>
      </trkpt>
      <trkpt lat="47.285979017615318" lon="9.914525030180812">
        <ele>1336.3699999999999</ele>
        <time>2018-09-18T08:14:43Z</time>
      </trkpt>
      <trkpt lat="47.286078007891774" lon="9.914397038519383">
        <ele>1336.8499999999999</ele>
        <time>2018-09-18T08:14:44Z</time>
      </trkpt>
      <trkpt lat="47.286143973469734" lon="9.914249014109373">
        <ele>1337.3299999999999</ele>
        <time>2018-09-18T08:14:45Z</time>
      </trkpt>
      <trkpt lat="47.286182027310133" lon="9.914084980264306">
        <ele>1337.3299999999999</ele>
        <time>2018-09-18T08:14:46Z</time>
      </trkpt>
      <trkpt lat="47.286166017875075" lon="9.913926981389523">
        <ele>1337.3299999999999</ele>
        <time>2018-09-18T08:14:47Z</time>
      </trkpt>
      <trkpt lat="47.286110026761889" lon="9.913775017485023">
        <ele>1337.3299999999999</ele>
        <time>2018-09-18T08:14:48Z</time>
      </trkpt>
      <trkpt lat="47.286046994850039" lon="9.913612995296717">
        <ele>1337.8099999999999</ele>
        <time>2018-09-18T08:14:49Z</time>
      </trkpt>
      <trkpt lat="47.286001984030008" lon="9.91342599503696">
        <ele>1338.29</ele>
        <time>2018-09-18T08:14:50Z</time>
      </trkpt>
      <trkpt lat="47.285978011786938" lon="9.913236983120441">
        <ele>1338.29</ele>
        <time>2018-09-18T08:14:51Z</time>
      </trkpt>
      <trkpt lat="47.285902993753552" lon="9.91308300755918">
        <ele>1338.77</ele>
        <time>2018-09-18T08:14:52Z</time>
      </trkpt>
      <trkpt lat="47.285818001255393" lon="9.912955015897751">
        <ele>1338.77</ele>
        <time>2018-09-18T08:14:53Z</time>
      </trkpt>
      <trkpt lat="47.285742983222008" lon="9.912805985659361">
        <ele>1338.77</ele>
        <time>2018-09-18T08:14:54Z</time>
      </trkpt>
      <trkpt lat="47.285672994330525" lon="9.912656033411622">
        <ele>1338.77</ele>
        <time>2018-09-18T08:14:55Z</time>
      </trkpt>
      <trkpt lat="47.285635024309158" lon="9.912470960989595">
        <ele>1339.25</ele>
        <time>2018-09-18T08:14:56Z</time>
      </trkpt>
      <trkpt lat="47.285612979903817" lon="9.912280021235347">
        <ele>1340.22</ele>
        <time>2018-09-18T08:14:57Z</time>
      </trkpt>
      <trkpt lat="47.285590013489127" lon="9.912077011540532">
        <ele>1340.7</ele>
        <time>2018-09-18T08:14:58Z</time>
      </trkpt>
      <trkpt lat="47.285564029589295" lon="9.911856986582279">
        <ele>1341.1800000000001</ele>
        <time>2018-09-18T08:14:59Z</time>
      </trkpt>
      <trkpt lat="47.285486999899149" lon="9.911708040162921">
        <ele>1342.1400000000001</ele>
        <time>2018-09-18T08:15:00Z</time>
      </trkpt>
      <trkpt lat="47.28540200740099" lon="9.911546017974615">
        <ele>1342.1400000000001</ele>
        <time>2018-09-18T08:15:01Z</time>
      </trkpt>
      <trkpt lat="47.285318020731211" lon="9.911383995786309">
        <ele>1342.6199999999999</ele>
        <time>2018-09-18T08:15:02Z</time>
      </trkpt>
      <trkpt lat="47.2852529771626" lon="9.911184003576636">
        <ele>1342.6199999999999</ele>
        <time>2018-09-18T08:15:03Z</time>
      </trkpt>
      <trkpt lat="47.28518701158464" lon="9.910966996103525">
        <ele>1342.6199999999999</ele>
        <time>2018-09-18T08:15:04Z</time>
      </trkpt>
      <trkpt lat="47.285120040178299" lon="9.910746971145272">
        <ele>1343.0999999999999</ele>
        <time>2018-09-18T08:15:05Z</time>
      </trkpt>
      <trkpt lat="47.285062037408352" lon="9.910516971722245">
        <ele>1343.0999999999999</ele>
        <time>2018-09-18T08:15:06Z</time>
      </trkpt>
      <trkpt lat="47.284906972199678" lon="9.90988296456635">
        <ele>1343.0999999999999</ele>
        <time>2018-09-18T08:15:09Z</time>
      </trkpt>
      <trkpt lat="47.284833965823054" lon="9.909706022590399">
        <ele>1343.0999999999999</ele>
        <time>2018-09-18T08:15:10Z</time>
      </trkpt>
      <trkpt lat="47.284695999696851" lon="9.909374015405774">
        <ele>1343.5799999999999</ele>
        <time>2018-09-18T08:15:12Z</time>
      </trkpt>
      <trkpt lat="47.284675966948271" lon="9.909174023196101">
        <ele>1344.0599999999999</ele>
        <time>2018-09-18T08:15:13Z</time>
      </trkpt>
      <trkpt lat="47.284665992483497" lon="9.908985011279583">
        <ele>1344.54</ele>
        <time>2018-09-18T08:15:14Z</time>
      </trkpt>
      <trkpt lat="47.284421995282173" lon="9.907383983954787">
        <ele>1352.23</ele>
        <time>2018-09-18T08:15:22Z</time>
      </trkpt>
      <trkpt lat="47.284415038302541" lon="9.907190026715398">
        <ele>1353.1900000000001</ele>
        <time>2018-09-18T08:15:23Z</time>
      </trkpt>
      <trkpt lat="47.284389976412058" lon="9.906846033409238">
        <ele>1355.5999999999999</ele>
        <time>2018-09-18T08:15:25Z</time>
      </trkpt>
      <trkpt lat="47.284363992512226" lon="9.906689962372184">
        <ele>1356.5599999999999</ele>
        <time>2018-09-18T08:15:26Z</time>
      </trkpt>
      <trkpt lat="47.284338008612394" lon="9.906535986810923">
        <ele>1357.52</ele>
        <time>2018-09-18T08:15:27Z</time>
      </trkpt>
      <trkpt lat="47.284325016662478" lon="9.906390979886055">
        <ele>1358</ele>
        <time>2018-09-18T08:15:28Z</time>
      </trkpt>
      <trkpt lat="47.284344965592027" lon="9.906248990446329">
        <ele>1358.48</ele>
        <time>2018-09-18T08:15:29Z</time>
      </trkpt>
      <trkpt lat="47.284403974190354" lon="9.906131979078054">
        <ele>1359.4400000000001</ele>
        <time>2018-09-18T08:15:30Z</time>
      </trkpt>
      <trkpt lat="47.284469017758965" lon="9.906001975759864">
        <ele>1360.4000000000001</ele>
        <time>2018-09-18T08:15:31Z</time>
      </trkpt>
      <trkpt lat="47.284535989165306" lon="9.905866021290422">
        <ele>1360.8800000000001</ele>
        <time>2018-09-18T08:15:32Z</time>
      </trkpt>
      <trkpt lat="47.284583011642098" lon="9.90571103990078">
        <ele>1361.3599999999999</ele>
        <time>2018-09-18T08:15:33Z</time>
      </trkpt>
      <trkpt lat="47.284594997763634" lon="9.905556980520487">
        <ele>1362.3299999999999</ele>
        <time>2018-09-18T08:15:34Z</time>
      </trkpt>
      <trkpt lat="47.284546969458461" lon="9.90541398525238">
        <ele>1363.29</ele>
        <time>2018-09-18T08:15:35Z</time>
      </trkpt>
      <trkpt lat="47.284484021365643" lon="9.90530401468277">
        <ele>1364.25</ele>
        <time>2018-09-18T08:15:36Z</time>
      </trkpt>
      <trkpt lat="47.284409003332257" lon="9.905192032456398">
        <ele>1364.73</ele>
        <time>2018-09-18T08:15:37Z</time>
      </trkpt>
      <trkpt lat="47.284313030540943" lon="9.905121037736535">
        <ele>1365.21</ele>
        <time>2018-09-18T08:15:38Z</time>
      </trkpt>
      <trkpt lat="47.284214040264487" lon="9.905049037188292">
        <ele>1365.6900000000001</ele>
        <time>2018-09-18T08:15:39Z</time>
      </trkpt>
      <trkpt lat="47.284104991704226" lon="9.904968990013003">
        <ele>1365.6900000000001</ele>
        <time>2018-09-18T08:15:40Z</time>
      </trkpt>
      <trkpt lat="47.284068027511239" lon="9.904892966151238">
        <ele>1365.6900000000001</ele>
        <time>2018-09-18T08:15:41Z</time>
      </trkpt>
      <trkpt lat="47.284081019461155" lon="9.904737984761596">
        <ele>1366.1700000000001</ele>
        <time>2018-09-18T08:15:42Z</time>
      </trkpt>
      <trkpt lat="47.284122006967664" lon="9.904631031677127">
        <ele>1366.6500000000001</ele>
        <time>2018-09-18T08:15:43Z</time>
      </trkpt>
      <trkpt lat="47.284169029444456" lon="9.90450999699533">
        <ele>1366.6500000000001</ele>
        <time>2018-09-18T08:15:44Z</time>
      </trkpt>
      <trkpt lat="47.284256033599377" lon="9.904282009229064">
        <ele>1367.6099999999999</ele>
        <time>2018-09-18T08:15:46Z</time>
      </trkpt>
      <trkpt lat="47.284256033599377" lon="9.904282009229064">
        <ele>1367.6099999999999</ele>
        <time>2018-09-18T08:15:47Z</time>
      </trkpt>
      <trkpt lat="47.284354018047452" lon="9.903396964073181">
        <ele>1368.5699999999999</ele>
        <time>2018-09-18T08:15:49Z</time>
      </trkpt>
      <trkpt lat="47.284127036109567" lon="9.903188003227115">
        <ele>1369.54</ele>
        <time>2018-09-18T08:15:50Z</time>
      </trkpt>
      <trkpt lat="47.284127036109567" lon="9.903188003227115">
        <ele>1370.02</ele>
        <time>2018-09-18T08:15:51Z</time>
      </trkpt>
      <trkpt lat="47.284102980047464" lon="9.903096975758672">
        <ele>1370.5</ele>
        <time>2018-09-18T08:15:52Z</time>
      </trkpt>
      <trkpt lat="47.284059980884194" lon="9.902931014075875">
        <ele>1370.5</ele>
        <time>2018-09-18T08:15:53Z</time>
      </trkpt>
      <trkpt lat="47.283947998657823" lon="9.902631025761366">
        <ele>1370.98</ele>
        <time>2018-09-18T08:15:55Z</time>
      </trkpt>
      <trkpt lat="47.283863006159663" lon="9.902523988857865">
        <ele>1370.5</ele>
        <time>2018-09-18T08:15:56Z</time>
      </trkpt>
      <trkpt lat="47.283699978142977" lon="9.90231703966856">
        <ele>1370.02</ele>
        <time>2018-09-18T08:15:58Z</time>
      </trkpt>
      <trkpt lat="47.283644992858171" lon="9.902191981673241">
        <ele>1369.05</ele>
        <time>2018-09-18T08:15:59Z</time>
      </trkpt>
      <trkpt lat="47.283541979268193" lon="9.901938010007143">
        <ele>1367.6099999999999</ele>
        <time>2018-09-18T08:16:01Z</time>
      </trkpt>
      <trkpt lat="47.283477019518614" lon="9.901815969496965">
        <ele>1366.6500000000001</ele>
        <time>2018-09-18T08:16:02Z</time>
      </trkpt>
      <trkpt lat="47.283419016748667" lon="9.901707004755735">
        <ele>1366.1700000000001</ele>
        <time>2018-09-18T08:16:03Z</time>
      </trkpt>
      <trkpt lat="47.283391021192074" lon="9.901556968688965">
        <ele>1365.21</ele>
        <time>2018-09-18T08:16:04Z</time>
      </trkpt>
      <trkpt lat="47.283376017585397" lon="9.901428977027535">
        <ele>1364.25</ele>
        <time>2018-09-18T08:16:05Z</time>
      </trkpt>
      <trkpt lat="47.283376017585397" lon="9.901283970102668">
        <ele>1363.77</ele>
        <time>2018-09-18T08:16:06Z</time>
      </trkpt>
      <trkpt lat="47.283376017585397" lon="9.901128988713026">
        <ele>1363.29</ele>
        <time>2018-09-18T08:16:07Z</time>
      </trkpt>
      <trkpt lat="47.283376017585397" lon="9.900955986231566">
        <ele>1362.8099999999999</ele>
        <time>2018-09-18T08:16:08Z</time>
      </trkpt>
      <trkpt lat="47.283376017585397" lon="9.899699036031961">
        <ele>1360.8800000000001</ele>
        <time>2018-09-18T08:16:15Z</time>
      </trkpt>
      <trkpt lat="47.283386997878551" lon="9.899239959195256">
        <ele>1360.8800000000001</ele>
        <time>2018-09-18T08:16:17Z</time>
      </trkpt>
      <trkpt lat="47.283429997041821" lon="9.898532023653388">
        <ele>1359.9200000000001</ele>
        <time>2018-09-18T08:16:20Z</time>
      </trkpt>
      <trkpt lat="47.283451035618782" lon="9.896611981093884">
        <ele>1357.52</ele>
        <time>2018-09-18T08:16:28Z</time>
      </trkpt>
      <trkpt lat="47.283550025895238" lon="9.894738961011171">
        <ele>1352.23</ele>
        <time>2018-09-18T08:16:37Z</time>
      </trkpt>
      <trkpt lat="47.283589001744986" lon="9.894571993499994">
        <ele>1351.75</ele>
        <time>2018-09-18T08:16:38Z</time>
      </trkpt>
      <trkpt lat="47.283626971766353" lon="9.894409971311688">
        <ele>1351.27</ele>
        <time>2018-09-18T08:16:39Z</time>
      </trkpt>
      <trkpt lat="47.283734008669853" lon="9.893952989950776">
        <ele>1349.8299999999999</ele>
        <time>2018-09-18T08:16:42Z</time>
      </trkpt>
      <trkpt lat="47.283762004226446" lon="9.89380999468267">
        <ele>1349.3499999999999</ele>
        <time>2018-09-18T08:16:43Z</time>
      </trkpt>
      <trkpt lat="47.283762004226446" lon="9.893654007464647">
        <ele>1348.8699999999999</ele>
        <time>2018-09-18T08:16:44Z</time>
      </trkpt>
      <trkpt lat="47.28377097286284" lon="9.89284398034215">
        <ele>1346.9400000000001</ele>
        <time>2018-09-18T08:16:49Z</time>
      </trkpt>
      <trkpt lat="47.283806009218097" lon="9.892676007002592">
        <ele>1346.9400000000001</ele>
        <time>2018-09-18T08:16:50Z</time>
      </trkpt>
      <trkpt lat="47.283936012536287" lon="9.892055997624993">
        <ele>1346.9400000000001</ele>
        <time>2018-09-18T08:16:54Z</time>
      </trkpt>
      <trkpt lat="47.283949004486203" lon="9.891901016235352">
        <ele>1346.9400000000001</ele>
        <time>2018-09-18T08:16:55Z</time>
      </trkpt>
      <trkpt lat="47.283935006707907" lon="9.891742011532188">
        <ele>1346.9400000000001</ele>
        <time>2018-09-18T08:16:56Z</time>
      </trkpt>
      <trkpt lat="47.283860994502902" lon="9.890989987179637">
        <ele>1349.3499999999999</ele>
        <time>2018-09-18T08:17:01Z</time>
      </trkpt>
      <trkpt lat="47.283825036138296" lon="9.890843974426389">
        <ele>1350.3099999999999</ele>
        <time>2018-09-18T08:17:02Z</time>
      </trkpt>
      <trkpt lat="47.283783964812756" lon="9.890678012743592">
        <ele>1350.79</ele>
        <time>2018-09-18T08:17:03Z</time>
      </trkpt>
      <trkpt lat="47.283672988414764" lon="9.890424963086844">
        <ele>1351.75</ele>
        <time>2018-09-18T08:17:05Z</time>
      </trkpt>
      <trkpt lat="47.283611968159676" lon="9.89030702970922">
        <ele>1352.23</ele>
        <time>2018-09-18T08:17:06Z</time>
      </trkpt>
      <trkpt lat="47.283542985096574" lon="9.890219019725919">
        <ele>1352.71</ele>
        <time>2018-09-18T08:17:07Z</time>
      </trkpt>
      <trkpt lat="47.283482970669866" lon="9.890141990035772">
        <ele>1353.1900000000001</ele>
        <time>2018-09-18T08:17:08Z</time>
      </trkpt>
      <trkpt lat="47.283407030627131" lon="9.890098990872502">
        <ele>1353.1900000000001</ele>
        <time>2018-09-18T08:17:09Z</time>
      </trkpt>
      <trkpt lat="47.283337963744998" lon="9.890061020851135">
        <ele>1353.1900000000001</ele>
        <time>2018-09-18T08:17:10Z</time>
      </trkpt>
      <trkpt lat="47.283195974305272" lon="9.890045011416078">
        <ele>1352.71</ele>
        <time>2018-09-18T08:17:12Z</time>
      </trkpt>
      <trkpt lat="47.283108970150352" lon="9.890055991709232">
        <ele>1352.71</ele>
        <time>2018-09-18T08:17:13Z</time>
      </trkpt>
      <trkpt lat="47.283015009015799" lon="9.890066972002387">
        <ele>1352.71</ele>
        <time>2018-09-18T08:17:14Z</time>
      </trkpt>
      <trkpt lat="47.282838989049196" lon="9.890155987814069">
        <ele>1352.23</ele>
        <time>2018-09-18T08:17:17Z</time>
      </trkpt>
      <trkpt lat="47.282810993492603" lon="9.890182977542281">
        <ele>1351.27</ele>
        <time>2018-09-18T08:17:23Z</time>
      </trkpt>
      <trkpt lat="47.282643020153046" lon="9.890339970588684">
        <ele>1350.3099999999999</ele>
        <time>2018-09-18T08:17:38Z</time>
      </trkpt>
      <trkpt lat="47.282484015449882" lon="9.890622021630406">
        <ele>1349.8299999999999</ele>
        <time>2018-09-18T08:17:40Z</time>
      </trkpt>
      <trkpt lat="47.282367004081607" lon="9.890827964991331">
        <ele>1349.8299999999999</ele>
        <time>2018-09-18T08:17:41Z</time>
      </trkpt>
      <trkpt lat="47.282122001051903" lon="9.891492985188961">
        <ele>1349.8299999999999</ele>
        <time>2018-09-18T08:17:44Z</time>
      </trkpt>
      <trkpt lat="47.281569968909025" lon="9.893432976678014">
        <ele>1348.8699999999999</ele>
        <time>2018-09-18T08:17:51Z</time>
      </trkpt>
      <trkpt lat="47.281475001946092" lon="9.893655013293028">
        <ele>1348.8699999999999</ele>
        <time>2018-09-18T08:17:52Z</time>
      </trkpt>
      <trkpt lat="47.281365031376481" lon="9.893841007724404">
        <ele>1348.8699999999999</ele>
        <time>2018-09-18T08:17:53Z</time>
      </trkpt>
      <trkpt lat="47.281247014179826" lon="9.894013004377484">
        <ele>1348.3900000000001</ele>
        <time>2018-09-18T08:17:54Z</time>
      </trkpt>
      <trkpt lat="47.281111981719732" lon="9.894151976332068">
        <ele>1347.9100000000001</ele>
        <time>2018-09-18T08:17:55Z</time>
      </trkpt>
      <trkpt lat="47.280972003936768" lon="9.894275022670627">
        <ele>1347.9100000000001</ele>
        <time>2018-09-18T08:17:56Z</time>
      </trkpt>
      <trkpt lat="47.280821967869997" lon="9.894383987411857">
        <ele>1347.9100000000001</ele>
        <time>2018-09-18T08:17:57Z</time>
      </trkpt>
      <trkpt lat="47.280663968995214" lon="9.894440984353423">
        <ele>1347.9100000000001</ele>
        <time>2018-09-18T08:17:58Z</time>
      </trkpt>
      <trkpt lat="47.280498007312417" lon="9.894473003223538">
        <ele>1347.9100000000001</ele>
        <time>2018-09-18T08:17:59Z</time>
      </trkpt>
      <trkpt lat="47.28033103980124" lon="9.894464034587145">
        <ele>1348.3900000000001</ele>
        <time>2018-09-18T08:18:00Z</time>
      </trkpt>
      <trkpt lat="47.280169017612934" lon="9.8944559879601">
        <ele>1347.9100000000001</ele>
        <time>2018-09-18T08:18:01Z</time>
      </trkpt>
      <trkpt lat="47.280013030394912" lon="9.894385999068618">
        <ele>1347.4300000000001</ele>
        <time>2018-09-18T08:18:02Z</time>
      </trkpt>
      <trkpt lat="47.27986098267138" lon="9.894300000742078">
        <ele>1346.9400000000001</ele>
        <time>2018-09-18T08:18:03Z</time>
      </trkpt>
      <trkpt lat="47.279715975746512" lon="9.894202016294003">
        <ele>1345.98</ele>
        <time>2018-09-18T08:18:04Z</time>
      </trkpt>
      <trkpt lat="47.279565017670393" lon="9.894062038511038">
        <ele>1345.02</ele>
        <time>2018-09-18T08:18:05Z</time>
      </trkpt>
      <trkpt lat="47.279436020180583" lon="9.89387596026063">
        <ele>1344.54</ele>
        <time>2018-09-18T08:18:06Z</time>
      </trkpt>
      <trkpt lat="47.279319008812308" lon="9.893666999414563">
        <ele>1343.5799999999999</ele>
        <time>2018-09-18T08:18:07Z</time>
      </trkpt>
      <trkpt lat="47.279080962762237" lon="9.893227033317089">
        <ele>1342.6199999999999</ele>
        <time>2018-09-18T08:18:09Z</time>
      </trkpt>
      <trkpt lat="47.276587011292577" lon="9.900566982105374">
        <ele>1341.6600000000001</ele>
        <time>2018-09-18T08:18:43Z</time>
      </trkpt>
      <trkpt lat="47.276503024622798" lon="9.902463974431157">
        <ele>1341.6600000000001</ele>
        <time>2018-09-18T08:18:49Z</time>
      </trkpt>
      <trkpt lat="47.276378972455859" lon="9.903395958244801">
        <ele>1341.6600000000001</ele>
        <time>2018-09-18T08:18:52Z</time>
      </trkpt>
      <trkpt lat="47.276234971359372" lon="9.903991995379329">
        <ele>1341.6600000000001</ele>
        <time>2018-09-18T08:18:54Z</time>
      </trkpt>
      <trkpt lat="47.276022993028164" lon="9.904540004208684">
        <ele>1341.6600000000001</ele>
        <time>2018-09-18T08:18:56Z</time>
      </trkpt>
      <trkpt lat="47.275877986103296" lon="9.904773021116853">
        <ele>1341.6600000000001</ele>
        <time>2018-09-18T08:18:57Z</time>
      </trkpt>
      <trkpt lat="47.275717975571752" lon="9.9049829877913">
        <ele>1341.6600000000001</ele>
        <time>2018-09-18T08:18:58Z</time>
      </trkpt>
      <trkpt lat="47.275145994499326" lon="9.90541398525238">
        <ele>1341.6600000000001</ele>
        <time>2018-09-18T08:19:01Z</time>
      </trkpt>
      <trkpt lat="47.274328004568815" lon="9.905806006863713">
        <ele>1341.6600000000001</ele>
        <time>2018-09-18T08:19:05Z</time>
      </trkpt>
      <trkpt lat="47.273029983043671" lon="9.906932031735778">
        <ele>1341.6600000000001</ele>
        <time>2018-09-18T08:19:12Z</time>
      </trkpt>
      <trkpt lat="47.272625975310802" lon="9.907151972874999">
        <ele>1341.6600000000001</ele>
        <time>2018-09-18T08:19:14Z</time>
      </trkpt>
      <trkpt lat="47.272415002807975" lon="9.90721701644361">
        <ele>1341.6600000000001</ele>
        <time>2018-09-18T08:19:15Z</time>
      </trkpt>
      <trkpt lat="47.272200006991625" lon="9.907251968979836">
        <ele>1341.6600000000001</ele>
        <time>2018-09-18T08:19:16Z</time>
      </trkpt>
      <trkpt lat="47.271985011175275" lon="9.907264960929751">
        <ele>1341.6600000000001</ele>
        <time>2018-09-18T08:19:17Z</time>
      </trkpt>
      <trkpt lat="47.271769009530544" lon="9.907253980636597">
        <ele>1341.6600000000001</ele>
        <time>2018-09-18T08:19:18Z</time>
      </trkpt>
      <trkpt lat="47.271339017897844" lon="9.907261021435261">
        <ele>1341.6600000000001</ele>
        <time>2018-09-18T08:19:20Z</time>
      </trkpt>
      <trkpt lat="47.270693024620414" lon="9.90732204169035">
        <ele>1341.6600000000001</ele>
        <time>2018-09-18T08:19:23Z</time>
      </trkpt>
      <trkpt lat="47.272826973348856" lon="9.907047031447291">
        <ele>1462.3</ele>
        <time>2018-09-18T08:19:34Z</time>
      </trkpt>
      <trkpt lat="47.272215010598302" lon="9.907250963151455">
        <ele>1482.01</ele>
        <time>2018-09-18T08:19:42Z</time>
      </trkpt>
      <trkpt lat="47.272143010050058" lon="9.9072590097785">
        <ele>1483.9300000000001</ele>
        <time>2018-09-18T08:19:45Z</time>
      </trkpt>
      <trkpt lat="47.272132029756904" lon="9.90726001560688">
        <ele>1484.4100000000001</ele>
        <time>2018-09-18T08:19:46Z</time>
      </trkpt>
      <trkpt lat="47.272084001451731" lon="9.907306032255292">
        <ele>1484.4100000000001</ele>
        <time>2018-09-18T08:19:47Z</time>
      </trkpt>
      <trkpt lat="47.27208198979497" lon="9.90732598118484">
        <ele>1484.8900000000001</ele>
        <time>2018-09-18T08:19:48Z</time>
      </trkpt>
      <trkpt lat="47.272078972309828" lon="9.907348025590181">
        <ele>1485.3699999999999</ele>
        <time>2018-09-18T08:19:49Z</time>
      </trkpt>
      <trkpt lat="47.272076960653067" lon="9.90736898034811">
        <ele>1485.8499999999999</ele>
        <time>2018-09-18T08:19:50Z</time>
      </trkpt>
      <trkpt lat="47.272134041413665" lon="9.90726001560688">
        <ele>1486.3399999999999</ele>
        <time>2018-09-18T08:19:51Z</time>
      </trkpt>
      <trkpt lat="47.272147033363581" lon="9.907258003950119">
        <ele>1486.3399999999999</ele>
        <time>2018-09-18T08:19:52Z</time>
      </trkpt>
      <trkpt lat="47.272161031141877" lon="9.907256998121738">
        <ele>1486.8199999999999</ele>
        <time>2018-09-18T08:19:53Z</time>
      </trkpt>
      <trkpt lat="47.272177962586284" lon="9.907254986464977">
        <ele>1487.3</ele>
        <time>2018-09-18T08:19:54Z</time>
      </trkpt>
      <trkpt lat="47.272193972021341" lon="9.907252974808216">
        <ele>1487.78</ele>
        <time>2018-09-18T08:19:55Z</time>
      </trkpt>
      <trkpt lat="47.27221098728478" lon="9.907250963151455">
        <ele>1487.78</ele>
        <time>2018-09-18T08:19:56Z</time>
      </trkpt>
      <trkpt lat="47.272281982004642" lon="9.907243000343442">
        <ele>1490.6600000000001</ele>
        <time>2018-09-18T08:20:11Z</time>
      </trkpt>
      <trkpt lat="47.272281982004642" lon="9.907243000343442">
        <ele>1485.3699999999999</ele>
        <time>2018-09-18T08:20:49Z</time>
      </trkpt>
      <trkpt lat="47.272281982004642" lon="9.907243000343442">
        <ele>1482.49</ele>
        <time>2018-09-18T08:21:38Z</time>
      </trkpt>
      <trkpt lat="47.272281982004642" lon="9.907243000343442">
        <ele>1482.49</ele>
        <time>2018-09-18T08:22:29Z</time>
      </trkpt>
      <trkpt lat="47.272281982004642" lon="9.907243000343442">
        <ele>1482.49</ele>
        <time>2018-09-18T08:23:27Z</time>
      </trkpt>
      <trkpt lat="47.272280976176262" lon="9.907255992293358">
        <ele>1482.49</ele>
        <time>2018-09-18T08:23:30Z</time>
      </trkpt>
      <trkpt lat="47.272281982004642" lon="9.907243000343442">
        <ele>1482.49</ele>
        <time>2018-09-18T08:23:31Z</time>
      </trkpt>
      <trkpt lat="47.272281982004642" lon="9.907243000343442">
        <ele>1482.01</ele>
        <time>2018-09-18T08:23:32Z</time>
      </trkpt>
      <trkpt lat="47.272265972569585" lon="9.907245012000203">
        <ele>1482.01</ele>
        <time>2018-09-18T08:23:33Z</time>
      </trkpt>
      <trkpt lat="47.272220039740205" lon="9.907250041142106">
        <ele>1482.01</ele>
        <time>2018-09-18T08:23:34Z</time>
      </trkpt>
      <trkpt lat="47.271593995392323" lon="9.907245012000203">
        <ele>1481.53</ele>
        <time>2018-09-18T08:23:43Z</time>
      </trkpt>
      <trkpt lat="47.271451000124216" lon="9.907250963151455">
        <ele>1480.5699999999999</ele>
        <time>2018-09-18T08:23:46Z</time>
      </trkpt>
      <trkpt lat="47.271391991525888" lon="9.907255992293358">
        <ele>1480.0899999999999</ele>
        <time>2018-09-18T08:23:47Z</time>
      </trkpt>
      <trkpt lat="47.27119904011488" lon="9.907272001728416">
        <ele>1479.1300000000001</ele>
        <time>2018-09-18T08:23:50Z</time>
      </trkpt>
      <trkpt lat="47.270388007164001" lon="9.907385995611548">
        <ele>1473.8399999999999</ele>
        <time>2018-09-18T08:23:59Z</time>
      </trkpt>
      <trkpt lat="47.26980403997004" lon="9.907440980896354">
        <ele>1469.03</ele>
        <time>2018-09-18T08:24:04Z</time>
      </trkpt>
      <trkpt lat="47.268722020089626" lon="9.907047031447291">
        <ele>1458.9400000000001</ele>
        <time>2018-09-18T08:24:12Z</time>
      </trkpt>
      <trkpt lat="47.26813000626862" lon="9.906454011797905">
        <ele>1449.3199999999999</ele>
        <time>2018-09-18T08:24:18Z</time>
      </trkpt>
      <trkpt lat="47.268061023205519" lon="9.906371030956507">
        <ele>1447.8800000000001</ele>
        <time>2018-09-18T08:24:19Z</time>
      </trkpt>
      <trkpt lat="47.267992040142417" lon="9.906331971287727">
        <ele>1446.9200000000001</ele>
        <time>2018-09-18T08:24:20Z</time>
      </trkpt>
      <trkpt lat="47.267930014058948" lon="9.906300958245993">
        <ele>1446.4400000000001</ele>
        <time>2018-09-18T08:24:21Z</time>
      </trkpt>
      <trkpt lat="47.267882991582155" lon="9.906277991831303">
        <ele>1445.48</ele>
        <time>2018-09-18T08:24:22Z</time>
      </trkpt>
      <trkpt lat="47.267859019339085" lon="9.906315039843321">
        <ele>1444.52</ele>
        <time>2018-09-18T08:24:23Z</time>
      </trkpt>
      <trkpt lat="47.267821971327066" lon="9.906370025128126">
        <ele>1444.04</ele>
        <time>2018-09-18T08:24:24Z</time>
      </trkpt>
      <trkpt lat="47.267797999083996" lon="9.906406989321113">
        <ele>1443.0799999999999</ele>
        <time>2018-09-18T08:24:25Z</time>
      </trkpt>
      <trkpt lat="47.267801016569138" lon="9.906476978212595">
        <ele>1442.1099999999999</ele>
        <time>2018-09-18T08:24:26Z</time>
      </trkpt>
      <trkpt lat="47.267839992418885" lon="9.906557025387883">
        <ele>1441.6300000000001</ele>
        <time>2018-09-18T08:24:27Z</time>
      </trkpt>
      <trkpt lat="47.267899001017213" lon="9.906625002622604">
        <ele>1440.6700000000001</ele>
        <time>2018-09-18T08:24:28Z</time>
      </trkpt>
      <trkpt lat="47.267972007393837" lon="9.906709995120764">
        <ele>1439.71</ele>
        <time>2018-09-18T08:24:29Z</time>
      </trkpt>
      <trkpt lat="47.268050964921713" lon="9.906788030639291">
        <ele>1438.75</ele>
        <time>2018-09-18T08:24:30Z</time>
      </trkpt>
      <trkpt lat="47.268124977126718" lon="9.906861959025264">
        <ele>1437.79</ele>
        <time>2018-09-18T08:24:31Z</time>
      </trkpt>
      <trkpt lat="47.268205024302006" lon="9.906943012028933">
        <ele>1437.3099999999999</ele>
        <time>2018-09-18T08:24:32Z</time>
      </trkpt>
      <trkpt lat="47.268250035122037" lon="9.907050970941782">
        <ele>1436.3499999999999</ele>
        <time>2018-09-18T08:24:33Z</time>
      </trkpt>
      <trkpt lat="47.268296973779798" lon="9.907163036987186">
        <ele>1435.3900000000001</ele>
        <time>2018-09-18T08:24:34Z</time>
      </trkpt>
      <trkpt lat="47.268312983214855" lon="9.907305026426911">
        <ele>1434.9100000000001</ele>
        <time>2018-09-18T08:24:35Z</time>
      </trkpt>
      <trkpt lat="47.268312983214855" lon="9.907437041401863">
        <ele>1434.4200000000001</ele>
        <time>2018-09-18T08:24:36Z</time>
      </trkpt>
      <trkpt lat="47.268274007365108" lon="9.907567966729403">
        <ele>1433.46</ele>
        <time>2018-09-18T08:24:37Z</time>
      </trkpt>
      <trkpt lat="47.268223967403173" lon="9.907685983926058">
        <ele>1432.98</ele>
        <time>2018-09-18T08:24:38Z</time>
      </trkpt>
      <trkpt lat="47.268167976289988" lon="9.907800983637571">
        <ele>1432.5</ele>
        <time>2018-09-18T08:24:39Z</time>
      </trkpt>
      <trkpt lat="47.268090024590492" lon="9.907909026369453">
        <ele>1432.02</ele>
        <time>2018-09-18T08:24:40Z</time>
      </trkpt>
      <trkpt lat="47.267129039391875" lon="9.909090958535671">
        <ele>1419.52</ele>
        <time>2018-09-18T08:24:50Z</time>
      </trkpt>
      <trkpt lat="47.267045974731445" lon="9.909219034016132">
        <ele>1418.0799999999999</ele>
        <time>2018-09-18T08:24:51Z</time>
      </trkpt>
      <trkpt lat="47.266971962526441" lon="9.90936697460711">
        <ele>1417.1199999999999</ele>
        <time>2018-09-18T08:24:52Z</time>
      </trkpt>
      <trkpt lat="47.266939021646976" lon="9.909432018175721">
        <ele>1415.6800000000001</ele>
        <time>2018-09-18T08:24:53Z</time>
      </trkpt>
      <trkpt lat="47.266939021646976" lon="9.909432018175721">
        <ele>1414.72</ele>
        <time>2018-09-18T08:24:54Z</time>
      </trkpt>
      <trkpt lat="47.266795020550489" lon="9.910071976482868">
        <ele>1412.79</ele>
        <time>2018-09-18T08:24:57Z</time>
      </trkpt>
      <trkpt lat="47.263855990022421" lon="9.911164976656437">
        <ele>1360.8800000000001</ele>
        <time>2018-09-18T08:25:22Z</time>
      </trkpt>
      <trkpt lat="47.263712994754314" lon="9.911080989986658">
        <ele>1359.4400000000001</ele>
        <time>2018-09-18T08:25:23Z</time>
      </trkpt>
      <trkpt lat="47.263436978682876" lon="9.910979988053441">
        <ele>1356.5599999999999</ele>
        <time>2018-09-18T08:25:25Z</time>
      </trkpt>
      <trkpt lat="47.263307981193066" lon="9.910939000546932">
        <ele>1354.1500000000001</ele>
        <time>2018-09-18T08:25:26Z</time>
      </trkpt>
      <trkpt lat="47.263180995360017" lon="9.910975964739919">
        <ele>1352.23</ele>
        <time>2018-09-18T08:25:27Z</time>
      </trkpt>
      <trkpt lat="47.263119975104928" lon="9.91099800914526">
        <ele>1349.8299999999999</ele>
        <time>2018-09-18T08:25:28Z</time>
      </trkpt>
      <trkpt lat="47.26295099593699" lon="9.911138992756605">
        <ele>1348.3900000000001</ele>
        <time>2018-09-18T08:25:29Z</time>
      </trkpt>
      <trkpt lat="47.262826021760702" lon="9.911242006346583">
        <ele>1346.9400000000001</ele>
        <time>2018-09-18T08:25:30Z</time>
      </trkpt>
      <trkpt lat="47.262699035927653" lon="9.911347031593323">
        <ele>1345.02</ele>
        <time>2018-09-18T08:25:31Z</time>
      </trkpt>
      <trkpt lat="47.262440035119653" lon="9.911562027409673">
        <ele>1341.6600000000001</ele>
        <time>2018-09-18T08:25:33Z</time>
      </trkpt>
      <trkpt lat="47.261292971670628" lon="9.912341963499785">
        <ele>1324.3499999999999</ele>
        <time>2018-09-18T08:25:41Z</time>
      </trkpt>
      <trkpt lat="47.261178977787495" lon="9.912433996796608">
        <ele>1322.9100000000001</ele>
        <time>2018-09-18T08:25:42Z</time>
      </trkpt>
      <trkpt lat="47.261080993339419" lon="9.912558970972896">
        <ele>1320.99</ele>
        <time>2018-09-18T08:25:43Z</time>
      </trkpt>
      <trkpt lat="47.260994995012879" lon="9.912692997604609">
        <ele>1319.0699999999999</ele>
        <time>2018-09-18T08:25:44Z</time>
      </trkpt>
      <trkpt lat="47.260700035840273" lon="9.913178980350494">
        <ele>1312.8199999999999</ele>
        <time>2018-09-18T08:25:47Z</time>
      </trkpt>
      <trkpt lat="47.260562991723418" lon="9.913309989497066">
        <ele>1310.9000000000001</ele>
        <time>2018-09-18T08:25:48Z</time>
      </trkpt>
      <trkpt lat="47.260419996455312" lon="9.913442004472017">
        <ele>1308.97</ele>
        <time>2018-09-18T08:25:49Z</time>
      </trkpt>
      <trkpt lat="47.25998698733747" lon="9.913798989728093">
        <ele>1303.2</ele>
        <time>2018-09-18T08:25:52Z</time>
      </trkpt>
      <trkpt lat="47.259849021211267" lon="9.913867972791195">
        <ele>1301.76</ele>
        <time>2018-09-18T08:25:53Z</time>
      </trkpt>
      <trkpt lat="47.259724969044328" lon="9.913928993046284">
        <ele>1299.8399999999999</ele>
        <time>2018-09-18T08:25:54Z</time>
      </trkpt>
      <trkpt lat="47.259632013738155" lon="9.91404801607132">
        <ele>1297.9200000000001</ele>
        <time>2018-09-18T08:25:55Z</time>
      </trkpt>
      <trkpt lat="47.259541992098093" lon="9.91417801938951">
        <ele>1295.99</ele>
        <time>2018-09-18T08:25:56Z</time>
      </trkpt>
      <trkpt lat="47.259449036791921" lon="9.914311962202191">
        <ele>1294.55</ele>
        <time>2018-09-18T08:25:57Z</time>
      </trkpt>
      <trkpt lat="47.259351974353194" lon="9.914452023804188">
        <ele>1293.1099999999999</ele>
        <time>2018-09-18T08:25:58Z</time>
      </trkpt>
      <trkpt lat="47.259236974641681" lon="9.914568029344082">
        <ele>1291.1900000000001</ele>
        <time>2018-09-18T08:25:59Z</time>
      </trkpt>
      <trkpt lat="47.259108982980251" lon="9.914644975215197">
        <ele>1289.27</ele>
        <time>2018-09-18T08:26:00Z</time>
      </trkpt>
      <trkpt lat="47.25897797383368" lon="9.914687974378467">
        <ele>1287.8199999999999</ele>
        <time>2018-09-18T08:26:01Z</time>
      </trkpt>
      <trkpt lat="47.25884503684938" lon="9.914729967713356">
        <ele>1286.3800000000001</ele>
        <time>2018-09-18T08:26:02Z</time>
      </trkpt>
      <trkpt lat="47.258716961368918" lon="9.914771961048245">
        <ele>1284.9400000000001</ele>
        <time>2018-09-18T08:26:03Z</time>
      </trkpt>
      <trkpt lat="47.25858997553587" lon="9.914813032373786">
        <ele>1283.5</ele>
        <time>2018-09-18T08:26:04Z</time>
      </trkpt>
      <trkpt lat="47.258442034944892" lon="9.914860976859927">
        <ele>1282.0599999999999</ele>
        <time>2018-09-18T08:26:05Z</time>
      </trkpt>
      <trkpt lat="47.25820398889482" lon="9.9150609690696">
        <ele>1278.21</ele>
        <time>2018-09-18T08:26:07Z</time>
      </trkpt>
      <trkpt lat="47.257605018094182" lon="9.915630016475916">
        <ele>1269.5599999999999</ele>
        <time>2018-09-18T08:26:12Z</time>
      </trkpt>
      <trkpt lat="47.257553972303867" lon="9.915776029229164">
        <ele>1267.6400000000001</ele>
        <time>2018-09-18T08:26:13Z</time>
      </trkpt>
      <trkpt lat="47.257500998675823" lon="9.915923969820142">
        <ele>1265.71</ele>
        <time>2018-09-18T08:26:14Z</time>
      </trkpt>
      <trkpt lat="47.257448025047779" lon="9.916074005886912">
        <ele>1263.3099999999999</ele>
        <time>2018-09-18T08:26:15Z</time>
      </trkpt>
      <trkpt lat="47.257395973429084" lon="9.916222030296922">
        <ele>1261.3900000000001</ele>
        <time>2018-09-18T08:26:16Z</time>
      </trkpt>
      <trkpt lat="47.257319027557969" lon="9.916367037221789">
        <ele>1259.9400000000001</ele>
        <time>2018-09-18T08:26:17Z</time>
      </trkpt>
      <trkpt lat="47.257222970947623" lon="9.916498968377709">
        <ele>1258.5</ele>
        <time>2018-09-18T08:26:18Z</time>
      </trkpt>
      <trkpt lat="47.257096990942955" lon="9.916597036644816">
        <ele>1256.5799999999999</ele>
        <time>2018-09-18T08:26:19Z</time>
      </trkpt>
      <trkpt lat="47.256962964311242" lon="9.916682029142976">
        <ele>1255.1400000000001</ele>
        <time>2018-09-18T08:26:20Z</time>
      </trkpt>
      <trkpt lat="47.256822986528277" lon="9.916770039126277">
        <ele>1253.7</ele>
        <time>2018-09-18T08:26:21Z</time>
      </trkpt>
      <trkpt lat="47.2558409627527" lon="9.917345959693193">
        <ele>1241.6800000000001</ele>
        <time>2018-09-18T08:26:28Z</time>
      </trkpt>
      <trkpt lat="47.255698973312974" lon="9.917371021583676">
        <ele>1239.76</ele>
        <time>2018-09-18T08:26:29Z</time>
      </trkpt>
      <trkpt lat="47.255563018843532" lon="9.917371021583676">
        <ele>1237.8299999999999</ele>
        <time>2018-09-18T08:26:30Z</time>
      </trkpt>
      <trkpt lat="47.255441984161735" lon="9.917329028248787">
        <ele>1236.3900000000001</ele>
        <time>2018-09-18T08:26:31Z</time>
      </trkpt>
      <trkpt lat="47.255326984450221" lon="9.917268007993698">
        <ele>1234.47</ele>
        <time>2018-09-18T08:26:32Z</time>
      </trkpt>
      <trkpt lat="47.25521701388061" lon="9.917211011052132">
        <ele>1233.03</ele>
        <time>2018-09-18T08:26:33Z</time>
      </trkpt>
      <trkpt lat="47.255121963098645" lon="9.917160971090198">
        <ele>1231.5899999999999</ele>
        <time>2018-09-18T08:26:34Z</time>
      </trkpt>
      <trkpt lat="47.255039988085628" lon="9.917157031595707">
        <ele>1230.1400000000001</ele>
        <time>2018-09-18T08:26:35Z</time>
      </trkpt>
      <trkpt lat="47.254965975880623" lon="9.917206987738609">
        <ele>1228.7</ele>
        <time>2018-09-18T08:26:36Z</time>
      </trkpt>
      <trkpt lat="47.254893975332379" lon="9.917255016043782">
        <ele>1227.74</ele>
        <time>2018-09-18T08:26:37Z</time>
      </trkpt>
      <trkpt lat="47.25483002141118" lon="9.917297009378672">
        <ele>1226.78</ele>
        <time>2018-09-18T08:26:38Z</time>
      </trkpt>
      <trkpt lat="47.254775036126375" lon="9.917333973571658">
        <ele>1225.8199999999999</ele>
        <time>2018-09-18T08:26:39Z</time>
      </trkpt>
      <trkpt lat="47.254730025306344" lon="9.917313018813729">
        <ele>1224.8599999999999</ele>
        <time>2018-09-18T08:26:40Z</time>
      </trkpt>
      <trkpt lat="47.254694988951087" lon="9.91725099273026">
        <ele>1223.9000000000001</ele>
        <time>2018-09-18T08:26:41Z</time>
      </trkpt>
      <trkpt lat="47.254672022536397" lon="9.917186032980681">
        <ele>1223.4200000000001</ele>
        <time>2018-09-18T08:26:42Z</time>
      </trkpt>
      <trkpt lat="47.254709992557764" lon="9.917117971926928">
        <ele>1222.45</ele>
        <time>2018-09-18T08:26:43Z</time>
      </trkpt>
      <trkpt lat="47.254750980064273" lon="9.917049994692206">
        <ele>1221.97</ele>
        <time>2018-09-18T08:26:44Z</time>
      </trkpt>
      <trkpt lat="47.254839995875955" lon="9.917001966387034">
        <ele>1221.01</ele>
        <time>2018-09-18T08:26:45Z</time>
      </trkpt>
      <trkpt lat="47.254923982545733" lon="9.916957039386034">
        <ele>1220.53</ele>
        <time>2018-09-18T08:26:46Z</time>
      </trkpt>
      <trkpt lat="47.255009980872273" lon="9.916910016909242">
        <ele>1219.5699999999999</ele>
        <time>2018-09-18T08:26:47Z</time>
      </trkpt>
      <trkpt lat="47.255106037482619" lon="9.916888978332281">
        <ele>1218.1300000000001</ele>
        <time>2018-09-18T08:26:48Z</time>
      </trkpt>
      <trkpt lat="47.255204021930695" lon="9.916874980553985">
        <ele>1217.1700000000001</ele>
        <time>2018-09-18T08:26:49Z</time>
      </trkpt>
      <trkpt lat="47.25547400303185" lon="9.916836004704237">
        <ele>1212.8399999999999</ele>
        <time>2018-09-18T08:26:52Z</time>
      </trkpt>
      <trkpt lat="47.255551032721996" lon="9.916795017197728">
        <ele>1211.4000000000001</ele>
        <time>2018-09-18T08:26:53Z</time>
      </trkpt>
      <trkpt lat="47.255630996078253" lon="9.916749000549316">
        <ele>1209.96</ele>
        <time>2018-09-18T08:26:54Z</time>
      </trkpt>
      <trkpt lat="47.255701990798116" lon="9.916657973080874">
        <ele>1208.51</ele>
        <time>2018-09-18T08:26:55Z</time>
      </trkpt>
      <trkpt lat="47.255781032145023" lon="9.916555965319276">
        <ele>1207.0699999999999</ele>
        <time>2018-09-18T08:26:56Z</time>
      </trkpt>
      <trkpt lat="47.255820007994771" lon="9.916425039991736">
        <ele>1205.6300000000001</ele>
        <time>2018-09-18T08:26:57Z</time>
      </trkpt>
      <trkpt lat="47.256085965782404" lon="9.915616018697619">
        <ele>1197.46</ele>
        <time>2018-09-18T08:27:02Z</time>
      </trkpt>
      <trkpt lat="47.256170958280563" lon="9.915507975965738">
        <ele>1195.54</ele>
        <time>2018-09-18T08:27:03Z</time>
      </trkpt>
      <trkpt lat="47.256246982142329" lon="9.915409991517663">
        <ele>1194.0899999999999</ele>
        <time>2018-09-18T08:27:04Z</time>
      </trkpt>
      <trkpt lat="47.256425013765693" lon="9.915183009579778">
        <ele>1188.3299999999999</ele>
        <time>2018-09-18T08:27:07Z</time>
      </trkpt>
      <trkpt lat="47.256430964916945" lon="9.915135987102985">
        <ele>1186.4000000000001</ele>
        <time>2018-09-18T08:27:08Z</time>
      </trkpt>
      <trkpt lat="47.256438005715609" lon="9.915075972676277">
        <ele>1184.96</ele>
        <time>2018-09-18T08:27:09Z</time>
      </trkpt>
      <trkpt lat="47.256445968523622" lon="9.915011012926698">
        <ele>1183.04</ele>
        <time>2018-09-18T08:27:10Z</time>
      </trkpt>
      <trkpt lat="47.256428031250834" lon="9.914992991834879">
        <ele>1182.0799999999999</ele>
        <time>2018-09-18T08:27:11Z</time>
      </trkpt>
      <trkpt lat="47.256385032087564" lon="9.914949992671609">
        <ele>1180.6400000000001</ele>
        <time>2018-09-18T08:27:12Z</time>
      </trkpt>
      <trkpt lat="47.25633499212563" lon="9.914946975186467">
        <ele>1179.6700000000001</ele>
        <time>2018-09-18T08:27:13Z</time>
      </trkpt>
      <trkpt lat="47.256271038204432" lon="9.914948986843228">
        <ele>1178.23</ele>
        <time>2018-09-18T08:27:14Z</time>
      </trkpt>
      <trkpt lat="47.256199037656188" lon="9.915004977956414">
        <ele>1177.27</ele>
        <time>2018-09-18T08:27:15Z</time>
      </trkpt>
      <trkpt lat="47.256115972995758" lon="9.915069015696645">
        <ele>1176.3099999999999</ele>
        <time>2018-09-18T08:27:16Z</time>
      </trkpt>
      <trkpt lat="47.256022011861205" lon="9.915141016244888">
        <ele>1175.3499999999999</ele>
        <time>2018-09-18T08:27:17Z</time>
      </trkpt>
      <trkpt lat="47.255736021324992" lon="9.915361041203141">
        <ele>1172.95</ele>
        <time>2018-09-18T08:27:20Z</time>
      </trkpt>
      <trkpt lat="47.255650022998452" lon="9.915442010387778">
        <ele>1172.47</ele>
        <time>2018-09-18T08:27:21Z</time>
      </trkpt>
      <trkpt lat="47.255567964166403" lon="9.915524991229177">
        <ele>1171.5</ele>
        <time>2018-09-18T08:27:22Z</time>
      </trkpt>
      <trkpt lat="47.255490012466908" lon="9.915603026747704">
        <ele>1171.02</ele>
        <time>2018-09-18T08:27:23Z</time>
      </trkpt>
      <trkpt lat="47.255418011918664" lon="9.915675027295947">
        <ele>1170.0599999999999</ele>
        <time>2018-09-18T08:27:24Z</time>
      </trkpt>
      <trkpt lat="47.255354980006814" lon="9.915737975388765">
        <ele>1169.5799999999999</ele>
        <time>2018-09-18T08:27:25Z</time>
      </trkpt>
      <trkpt lat="47.25530200637877" lon="9.915740992873907">
        <ele>1168.6199999999999</ele>
        <time>2018-09-18T08:27:26Z</time>
      </trkpt>
      <trkpt lat="47.255250960588455" lon="9.915718026459217">
        <ele>1167.6600000000001</ele>
        <time>2018-09-18T08:27:27Z</time>
      </trkpt>
      <trkpt lat="47.255227994173765" lon="9.915631022304297">
        <ele>1166.7</ele>
        <time>2018-09-18T08:27:28Z</time>
      </trkpt>
      <trkpt lat="47.25523897446692" lon="9.915536977350712">
        <ele>1165.74</ele>
        <time>2018-09-18T08:27:29Z</time>
      </trkpt>
      <trkpt lat="47.255275016650558" lon="9.915439998731017">
        <ele>1164.77</ele>
        <time>2018-09-18T08:27:30Z</time>
      </trkpt>
      <trkpt lat="47.255336958914995" lon="9.915347965434194">
        <ele>1163.3299999999999</ele>
        <time>2018-09-18T08:27:31Z</time>
      </trkpt>
      <trkpt lat="47.255403008311987" lon="9.91525299847126">
        <ele>1162.3699999999999</ele>
        <time>2018-09-18T08:27:32Z</time>
      </trkpt>
      <trkpt lat="47.255480960011482" lon="9.915140010416508">
        <ele>1160.9300000000001</ele>
        <time>2018-09-18T08:27:33Z</time>
      </trkpt>
      <trkpt lat="47.255557989701629" lon="9.914926020428538">
        <ele>1159.01</ele>
        <time>2018-09-18T08:27:35Z</time>
      </trkpt>
      <trkpt lat="47.255554972216487" lon="9.914782019332051">
        <ele>1158.05</ele>
        <time>2018-09-18T08:27:36Z</time>
      </trkpt>
      <trkpt lat="47.255541980266571" lon="9.914660984650254">
        <ele>1156.5999999999999</ele>
        <time>2018-09-18T08:27:37Z</time>
      </trkpt>
      <trkpt lat="47.255530999973416" lon="9.91454397328198">
        <ele>1155.6400000000001</ele>
        <time>2018-09-18T08:27:38Z</time>
      </trkpt>
      <trkpt lat="47.255490012466908" lon="9.914428973570466">
        <ele>1154.6800000000001</ele>
        <time>2018-09-18T08:27:39Z</time>
      </trkpt>
      <trkpt lat="47.255439972504973" lon="9.914363007992506">
        <ele>1153.24</ele>
        <time>2018-09-18T08:27:40Z</time>
      </trkpt>
      <trkpt lat="47.255390016362071" lon="9.914296036586165">
        <ele>1152.28</ele>
        <time>2018-09-18T08:27:41Z</time>
      </trkpt>
      <trkpt lat="47.255331007763743" lon="9.914216995239258">
        <ele>1151.3199999999999</ele>
        <time>2018-09-18T08:27:42Z</time>
      </trkpt>
      <trkpt lat="47.255266970023513" lon="9.914196040481329">
        <ele>1150.3499999999999</ele>
        <time>2018-09-18T08:27:43Z</time>
      </trkpt>
      <trkpt lat="47.255190024152398" lon="9.914169972762466">
        <ele>1149.8699999999999</ele>
        <time>2018-09-18T08:27:44Z</time>
      </trkpt>
      <trkpt lat="47.254605973139405" lon="9.914123034104705">
        <ele>1145.0699999999999</ele>
        <time>2018-09-18T08:27:50Z</time>
      </trkpt>
      <trkpt lat="47.25450798869133" lon="9.914154969155788">
        <ele>1144.1099999999999</ele>
        <time>2018-09-18T08:27:51Z</time>
      </trkpt>
      <trkpt lat="47.254424002021551" lon="9.914191011339426">
        <ele>1143.1400000000001</ele>
        <time>2018-09-18T08:27:52Z</time>
      </trkpt>
      <trkpt lat="47.254171958193183" lon="9.914354961365461">
        <ele>1140.26</ele>
        <time>2018-09-18T08:27:55Z</time>
      </trkpt>
      <trkpt lat="47.254085037857294" lon="9.914411036297679">
        <ele>1139.3</ele>
        <time>2018-09-18T08:27:56Z</time>
      </trkpt>
      <trkpt lat="47.254001973196864" lon="9.914443977177143">
        <ele>1137.8599999999999</ele>
        <time>2018-09-18T08:27:57Z</time>
      </trkpt>
      <trkpt lat="47.25379703566432" lon="9.914469039067626">
        <ele>1135.9400000000001</ele>
        <time>2018-09-18T08:27:59Z</time>
      </trkpt>
      <trkpt lat="47.253702990710735" lon="9.91443500854075">
        <ele>1134.97</ele>
        <time>2018-09-18T08:28:00Z</time>
      </trkpt>
      <trkpt lat="47.253608023747802" lon="9.914399972185493">
        <ele>1134.01</ele>
        <time>2018-09-18T08:28:01Z</time>
      </trkpt>
      <trkpt lat="47.252883994951844" lon="9.914210960268974">
        <ele>1127.28</ele>
        <time>2018-09-18T08:28:08Z</time>
      </trkpt>
      <trkpt lat="47.25179803557694" lon="9.914130996912718">
        <ele>1120.55</ele>
        <time>2018-09-18T08:28:17Z</time>
      </trkpt>
      <trkpt lat="47.250824980437756" lon="9.914315985515714">
        <ele>1117.1900000000001</ele>
        <time>2018-09-18T08:28:25Z</time>
      </trkpt>
      <trkpt lat="47.250711992383003" lon="9.914344986900687">
        <ele>1116.71</ele>
        <time>2018-09-18T08:28:26Z</time>
      </trkpt>
      <trkpt lat="47.250609984621406" lon="9.914319003000855">
        <ele>1116.23</ele>
        <time>2018-09-18T08:28:27Z</time>
      </trkpt>
      <trkpt lat="47.250502025708556" lon="9.914269968867302">
        <ele>1116.23</ele>
        <time>2018-09-18T08:28:28Z</time>
      </trkpt>
      <trkpt lat="47.25040596909821" lon="9.914196040481329">
        <ele>1116.23</ele>
        <time>2018-09-18T08:28:29Z</time>
      </trkpt>
      <trkpt lat="47.250309996306896" lon="9.914122028276324">
        <ele>1116.23</ele>
        <time>2018-09-18T08:28:30Z</time>
      </trkpt>
      <trkpt lat="47.250212011858821" lon="9.914014991372824">
        <ele>1116.23</ele>
        <time>2018-09-18T08:28:31Z</time>
      </trkpt>
      <trkpt lat="47.25012400187552" lon="9.913895968347788">
        <ele>1116.71</ele>
        <time>2018-09-18T08:28:32Z</time>
      </trkpt>
      <trkpt lat="47.250034986063838" lon="9.913775017485023">
        <ele>1117.1900000000001</ele>
        <time>2018-09-18T08:28:33Z</time>
      </trkpt>
      <trkpt lat="47.249776991084218" lon="9.91347000002861">
        <ele>1117.6700000000001</ele>
        <time>2018-09-18T08:28:36Z</time>
      </trkpt>
      <trkpt lat="47.249680012464523" lon="9.913408979773521">
        <ele>1118.1500000000001</ele>
        <time>2018-09-18T08:28:37Z</time>
      </trkpt>
      <trkpt lat="47.249583033844829" lon="9.913347037509084">
        <ele>1118.6300000000001</ele>
        <time>2018-09-18T08:28:38Z</time>
      </trkpt>
      <trkpt lat="47.248852970078588" lon="9.912759969010949">
        <ele>1119.1099999999999</ele>
        <time>2018-09-18T08:28:45Z</time>
      </trkpt>
      <trkpt lat="47.24877099506557" lon="9.912630971521139">
        <ele>1119.1099999999999</ele>
        <time>2018-09-18T08:28:46Z</time>
      </trkpt>
      <trkpt lat="47.248688014224172" lon="9.912500968202949">
        <ele>1119.5899999999999</ele>
        <time>2018-09-18T08:28:47Z</time>
      </trkpt>
      <trkpt lat="47.248606961220503" lon="9.9123739823699">
        <ele>1120.55</ele>
        <time>2018-09-18T08:28:48Z</time>
      </trkpt>
      <trkpt lat="47.24853596650064" lon="9.912248002365232">
        <ele>1121.52</ele>
        <time>2018-09-18T08:28:49Z</time>
      </trkpt>
      <trkpt lat="47.248481987044215" lon="9.912106012925506">
        <ele>1123.9200000000001</ele>
        <time>2018-09-18T08:28:50Z</time>
      </trkpt>
      <trkpt lat="47.24842700175941" lon="9.911961006000638">
        <ele>1125.8399999999999</ele>
        <time>2018-09-18T08:28:51Z</time>
      </trkpt>
      <trkpt lat="47.248371010646224" lon="9.91181499324739">
        <ele>1127.28</ele>
        <time>2018-09-18T08:28:52Z</time>
      </trkpt>
      <trkpt lat="47.248047972097993" lon="9.910598024725914">
        <ele>1128.73</ele>
        <time>2018-09-18T08:29:01Z</time>
      </trkpt>
      <trkpt lat="47.247979994863272" lon="9.910328965634108">
        <ele>1128.73</ele>
        <time>2018-09-18T08:29:04Z</time>
      </trkpt>
      <trkpt lat="47.247940013185143" lon="9.910253025591373">
        <ele>1128.73</ele>
        <time>2018-09-18T08:29:05Z</time>
      </trkpt>
      <trkpt lat="47.247900031507015" lon="9.910201979801059">
        <ele>1128.73</ele>
        <time>2018-09-18T08:29:06Z</time>
      </trkpt>
      <trkpt lat="47.247845968231559" lon="9.910190999507904">
        <ele>1128.73</ele>
        <time>2018-09-18T08:29:07Z</time>
      </trkpt>
      <trkpt lat="47.247797017917037" lon="9.910199968144298">
        <ele>1128.24</ele>
        <time>2018-09-18T08:29:08Z</time>
      </trkpt>
      <trkpt lat="47.247757958248258" lon="9.910242967307568">
        <ele>1128.24</ele>
        <time>2018-09-18T08:29:09Z</time>
      </trkpt>
      <trkpt lat="47.247725017368793" lon="9.910309016704559">
        <ele>1128.73</ele>
        <time>2018-09-18T08:29:10Z</time>
      </trkpt>
      <trkpt lat="47.247723005712032" lon="9.910405995324254">
        <ele>1128.73</ele>
        <time>2018-09-18T08:29:11Z</time>
      </trkpt>
      <trkpt lat="47.247741026803851" lon="9.910530969500542">
        <ele>1128.24</ele>
        <time>2018-09-18T08:29:12Z</time>
      </trkpt>
      <trkpt lat="47.24776198156178" lon="9.91067698225379">
        <ele>1127.28</ele>
        <time>2018-09-18T08:29:13Z</time>
      </trkpt>
      <trkpt lat="47.247764999046922" lon="9.910856019705534">
        <ele>1126.8</ele>
        <time>2018-09-18T08:29:14Z</time>
      </trkpt>
      <trkpt lat="47.247737003490329" lon="9.911027010530233">
        <ele>1125.8399999999999</ele>
        <time>2018-09-18T08:29:15Z</time>
      </trkpt>
      <trkpt lat="47.247699033468962" lon="9.911191966384649">
        <ele>1124.8800000000001</ele>
        <time>2018-09-18T08:29:16Z</time>
      </trkpt>
      <trkpt lat="47.247660979628563" lon="9.911348959431052">
        <ele>1124.4000000000001</ele>
        <time>2018-09-18T08:29:17Z</time>
      </trkpt>
      <trkpt lat="47.247627032920718" lon="9.91149203851819">
        <ele>1123.4400000000001</ele>
        <time>2018-09-18T08:29:18Z</time>
      </trkpt>
      <trkpt lat="47.247617980465293" lon="9.911673003807664">
        <ele>1122.48</ele>
        <time>2018-09-18T08:29:19Z</time>
      </trkpt>
      <trkpt lat="47.247609011828899" lon="9.911846006289125">
        <ele>1121.52</ele>
        <time>2018-09-18T08:29:20Z</time>
      </trkpt>
      <trkpt lat="47.247624015435576" lon="9.912020014598966">
        <ele>1120.55</ele>
        <time>2018-09-18T08:29:21Z</time>
      </trkpt>
      <trkpt lat="47.247649999335408" lon="9.912189999595285">
        <ele>1119.1099999999999</ele>
        <time>2018-09-18T08:29:22Z</time>
      </trkpt>
      <trkpt lat="47.247874969616532" lon="9.913221979513764">
        <ele>1108.0599999999999</ele>
        <time>2018-09-18T08:29:29Z</time>
      </trkpt>
      <trkpt lat="47.247885027900338" lon="9.913336979225278">
        <ele>1107.0999999999999</ele>
        <time>2018-09-18T08:29:30Z</time>
      </trkpt>
      <trkpt lat="47.247885027900338" lon="9.913438986986876">
        <ele>1105.6500000000001</ele>
        <time>2018-09-18T08:29:31Z</time>
      </trkpt>
      <trkpt lat="47.247834987938404" lon="9.913486009463668">
        <ele>1104.21</ele>
        <time>2018-09-18T08:29:32Z</time>
      </trkpt>
      <trkpt lat="47.247781008481979" lon="9.913531020283699">
        <ele>1102.77</ele>
        <time>2018-09-18T08:29:33Z</time>
      </trkpt>
      <trkpt lat="47.247725017368793" lon="9.913520961999893">
        <ele>1101.8099999999999</ele>
        <time>2018-09-18T08:29:34Z</time>
      </trkpt>
      <trkpt lat="47.247662991285324" lon="9.913459019735456">
        <ele>1100.3699999999999</ele>
        <time>2018-09-18T08:29:35Z</time>
      </trkpt>
      <trkpt lat="47.247584033757448" lon="9.913379978388548">
        <ele>1099.4000000000001</ele>
        <time>2018-09-18T08:29:36Z</time>
      </trkpt>
      <trkpt lat="47.247526030987501" lon="9.91327696479857">
        <ele>1098.4400000000001</ele>
        <time>2018-09-18T08:29:37Z</time>
      </trkpt>
      <trkpt lat="47.247024038806558" lon="9.912299970164895">
        <ele>1092.2</ele>
        <time>2018-09-18T08:29:45Z</time>
      </trkpt>
      <trkpt lat="47.246976010501385" lon="9.912168039008975">
        <ele>1091.71</ele>
        <time>2018-09-18T08:29:46Z</time>
      </trkpt>
      <trkpt lat="47.246878026053309" lon="9.911779034882784">
        <ele>1089.3099999999999</ele>
        <time>2018-09-18T08:29:49Z</time>
      </trkpt>
      <trkpt lat="47.246841983869672" lon="9.911680966615677">
        <ele>1088.3499999999999</ele>
        <time>2018-09-18T08:29:50Z</time>
      </trkpt>
      <trkpt lat="47.24677300080657" lon="9.911658000200987">
        <ele>1087.8699999999999</ele>
        <time>2018-09-18T08:29:51Z</time>
      </trkpt>
      <trkpt lat="47.246719021350145" lon="9.911652971059084">
        <ele>1086.9100000000001</ele>
        <time>2018-09-18T08:29:52Z</time>
      </trkpt>
      <trkpt lat="47.246669987216592" lon="9.911725977435708">
        <ele>1086.4300000000001</ele>
        <time>2018-09-18T08:29:53Z</time>
      </trkpt>
      <trkpt lat="47.246624976396561" lon="9.911825973540545">
        <ele>1085.47</ele>
        <time>2018-09-18T08:29:54Z</time>
      </trkpt>
      <trkpt lat="47.246587006375194" lon="9.911962011829019">
        <ele>1084.99</ele>
        <time>2018-09-18T08:29:55Z</time>
      </trkpt>
      <trkpt lat="47.246339991688728" lon="9.912936994805932">
        <ele>1078.74</ele>
        <time>2018-09-18T08:30:01Z</time>
      </trkpt>
      <trkpt lat="47.246339991688728" lon="9.91310304030776">
        <ele>1077.78</ele>
        <time>2018-09-18T08:30:02Z</time>
      </trkpt>
      <trkpt lat="47.246371004730463" lon="9.913258021697402">
        <ele>1076.8099999999999</ele>
        <time>2018-09-18T08:30:03Z</time>
      </trkpt>
      <trkpt lat="47.246468989178538" lon="9.913616012781858">
        <ele>1072.97</ele>
        <time>2018-09-18T08:30:06Z</time>
      </trkpt>
      <trkpt lat="47.246437976136804" lon="9.913739981129766">
        <ele>1071.53</ele>
        <time>2018-09-18T08:30:07Z</time>
      </trkpt>
      <trkpt lat="47.246392965316772" lon="9.913788009434938">
        <ele>1070.0799999999999</ele>
        <time>2018-09-18T08:30:08Z</time>
      </trkpt>
      <trkpt lat="47.246334040537477" lon="9.913788009434938">
        <ele>1069.1199999999999</ele>
        <time>2018-09-18T08:30:09Z</time>
      </trkpt>
      <trkpt lat="47.246253993362188" lon="9.913788009434938">
        <ele>1068.1600000000001</ele>
        <time>2018-09-18T08:30:10Z</time>
      </trkpt>
      <trkpt lat="47.246208982542157" lon="9.913689019158483">
        <ele>1067.2</ele>
        <time>2018-09-18T08:30:11Z</time>
      </trkpt>
      <trkpt lat="47.246153997257352" lon="9.913569996133447">
        <ele>1065.76</ele>
        <time>2018-09-18T08:30:12Z</time>
      </trkpt>
      <trkpt lat="47.246091971173882" lon="9.913434963673353">
        <ele>1064.8</ele>
        <time>2018-09-18T08:30:13Z</time>
      </trkpt>
      <trkpt lat="47.245761975646019" lon="9.912599036470056">
        <ele>1059.03</ele>
        <time>2018-09-18T08:30:18Z</time>
      </trkpt>
      <trkpt lat="47.245705984532833" lon="9.912422010675073">
        <ele>1057.5899999999999</ele>
        <time>2018-09-18T08:30:19Z</time>
      </trkpt>
      <trkpt lat="47.245683018118143" lon="9.91222302429378">
        <ele>1056.1500000000001</ele>
        <time>2018-09-18T08:30:20Z</time>
      </trkpt>
      <trkpt lat="47.24567798897624" lon="9.912023032084107">
        <ele>1054.7</ele>
        <time>2018-09-18T08:30:21Z</time>
      </trkpt>
      <trkpt lat="47.245686035603285" lon="9.911821028217673">
        <ele>1053.26</ele>
        <time>2018-09-18T08:30:22Z</time>
      </trkpt>
      <trkpt lat="47.245693998411298" lon="9.911622041836381">
        <ele>1051.3399999999999</ele>
        <time>2018-09-18T08:30:23Z</time>
      </trkpt>
      <trkpt lat="47.245696010068059" lon="9.911426994949579">
        <ele>1049.4200000000001</ele>
        <time>2018-09-18T08:30:24Z</time>
      </trkpt>
      <trkpt lat="47.245696010068059" lon="9.911225996911526">
        <ele>1047.49</ele>
        <time>2018-09-18T08:30:25Z</time>
      </trkpt>
      <trkpt lat="47.245683018118143" lon="9.911029022186995">
        <ele>1045.5699999999999</ele>
        <time>2018-09-18T08:30:26Z</time>
      </trkpt>
      <trkpt lat="47.245638007298112" lon="9.910831963643432">
        <ele>1044.1300000000001</ele>
        <time>2018-09-18T08:30:27Z</time>
      </trkpt>
      <trkpt lat="47.24556801840663" lon="9.910656027495861">
        <ele>1042.21</ele>
        <time>2018-09-18T08:30:28Z</time>
      </trkpt>
      <trkpt lat="47.245489982888103" lon="9.910485958680511">
        <ele>1040.28</ele>
        <time>2018-09-18T08:30:29Z</time>
      </trkpt>
      <trkpt lat="47.245385041460395" lon="9.910340029746294">
        <ele>1038.8399999999999</ele>
        <time>2018-09-18T08:30:30Z</time>
      </trkpt>
      <trkpt lat="47.245270041748881" lon="9.910195022821426">
        <ele>1036.9200000000001</ele>
        <time>2018-09-18T08:30:31Z</time>
      </trkpt>
      <trkpt lat="47.245140038430691" lon="9.910124028101564">
        <ele>1035</ele>
        <time>2018-09-18T08:30:32Z</time>
      </trkpt>
      <trkpt lat="47.2450100351125" lon="9.910054039210081">
        <ele>1033.55</ele>
        <time>2018-09-18T08:30:33Z</time>
      </trkpt>
      <trkpt lat="47.244881959632039" lon="9.909985978156328">
        <ele>1032.1099999999999</ele>
        <time>2018-09-18T08:30:34Z</time>
      </trkpt>
      <trkpt lat="47.244642991572618" lon="9.909825967624784">
        <ele>1028.75</ele>
        <time>2018-09-18T08:30:36Z</time>
      </trkpt>
      <trkpt lat="47.244527991861105" lon="9.909722032025456">
        <ele>1027.3099999999999</ele>
        <time>2018-09-18T08:30:37Z</time>
      </trkpt>
      <trkpt lat="47.244432019069791" lon="9.909573001787067">
        <ele>1025.3800000000001</ele>
        <time>2018-09-18T08:30:38Z</time>
      </trkpt>
      <trkpt lat="47.244335040450096" lon="9.909415002912283">
        <ele>1023.9400000000001</ele>
        <time>2018-09-18T08:30:39Z</time>
      </trkpt>
      <trkpt lat="47.244248036295176" lon="9.909248035401106">
        <ele>1022.5</ele>
        <time>2018-09-18T08:30:40Z</time>
      </trkpt>
      <trkpt lat="47.244175029918551" lon="9.909068997949362">
        <ele>1020.58</ele>
        <time>2018-09-18T08:30:41Z</time>
      </trkpt>
      <trkpt lat="47.244102023541927" lon="9.908889960497618">
        <ele>1018.65</ele>
        <time>2018-09-18T08:30:42Z</time>
      </trkpt>
      <trkpt lat="47.244053995236754" lon="9.90869902074337">
        <ele>1016.25</ele>
        <time>2018-09-18T08:30:43Z</time>
      </trkpt>
      <trkpt lat="47.243796000257134" lon="9.907681038603187">
        <ele>1005.2</ele>
        <time>2018-09-18T08:30:49Z</time>
      </trkpt>
      <trkpt lat="47.243730034679174" lon="9.907585987821221">
        <ele>1003.75</ele>
        <time>2018-09-18T08:30:50Z</time>
      </trkpt>
      <trkpt lat="47.243664991110563" lon="9.907543994486332">
        <ele>1002.3099999999999</ele>
        <time>2018-09-18T08:30:51Z</time>
      </trkpt>
      <trkpt lat="47.24359299056232" lon="9.907570984214544">
        <ele>1001.35</ele>
        <time>2018-09-18T08:30:52Z</time>
      </trkpt>
      <trkpt lat="47.243540016934276" lon="9.907637033611536">
        <ele>1000.39</ele>
        <time>2018-09-18T08:30:53Z</time>
      </trkpt>
      <trkpt lat="47.243516966700554" lon="9.90773300640285">
        <ele>999.42999999999995</ele>
        <time>2018-09-18T08:30:54Z</time>
      </trkpt>
      <trkpt lat="47.243515038862824" lon="9.907853035256267">
        <ele>997.99000000000001</ele>
        <time>2018-09-18T08:30:55Z</time>
      </trkpt>
      <trkpt lat="47.243535993620753" lon="9.908002987504005">
        <ele>997.01999999999998</ele>
        <time>2018-09-18T08:30:56Z</time>
      </trkpt>
      <trkpt lat="47.243558960035443" lon="9.908172972500324">
        <ele>996.05999999999995</ele>
        <time>2018-09-18T08:30:57Z</time>
      </trkpt>
      <trkpt lat="47.243616040796041" lon="9.908573962748051">
        <ele>993.17999999999995</ele>
        <time>2018-09-18T08:30:59Z</time>
      </trkpt>
      <trkpt lat="47.243645964190364" lon="9.908788958564401">
        <ele>991.74000000000001</ele>
        <time>2018-09-18T08:31:00Z</time>
      </trkpt>
      <trkpt lat="47.243649987503886" lon="9.909019041806459">
        <ele>990.29999999999995</ele>
        <time>2018-09-18T08:31:01Z</time>
      </trkpt>
      <trkpt lat="47.243638001382351" lon="9.909244012087584">
        <ele>988.37</ele>
        <time>2018-09-18T08:31:02Z</time>
      </trkpt>
      <trkpt lat="47.243627021089196" lon="9.909463031217456">
        <ele>986.45000000000005</ele>
        <time>2018-09-18T08:31:03Z</time>
      </trkpt>
      <trkpt lat="47.243603970855474" lon="9.909899979829788">
        <ele>983.09000000000003</ele>
        <time>2018-09-18T08:31:05Z</time>
      </trkpt>
      <trkpt lat="47.243596008047462" lon="9.910114975646138">
        <ele>981.15999999999997</ele>
        <time>2018-09-18T08:31:06Z</time>
      </trkpt>
      <trkpt lat="47.243628026917577" lon="9.910319996997714">
        <ele>979.24000000000001</ele>
        <time>2018-09-18T08:31:07Z</time>
      </trkpt>
      <trkpt lat="47.243664991110563" lon="9.910527030006051">
        <ele>977.79999999999995</ele>
        <time>2018-09-18T08:31:08Z</time>
      </trkpt>
      <trkpt lat="47.243726011365652" lon="9.910718975588679">
        <ele>975.88</ele>
        <time>2018-09-18T08:31:09Z</time>
      </trkpt>
      <trkpt lat="47.24378602579236" lon="9.910909999161959">
        <ele>974.42999999999995</ele>
        <time>2018-09-18T08:31:10Z</time>
      </trkpt>
      <trkpt lat="47.243846962228417" lon="9.911101022735238">
        <ele>972.50999999999999</ele>
        <time>2018-09-18T08:31:11Z</time>
      </trkpt>
      <trkpt lat="47.243965985253453" lon="9.911506958305836">
        <ele>969.14999999999998</ele>
        <time>2018-09-18T08:31:13Z</time>
      </trkpt>
      <trkpt lat="47.243994986638427" lon="9.911719020456076">
        <ele>967.70000000000005</ele>
        <time>2018-09-18T08:31:14Z</time>
      </trkpt>
      <trkpt lat="47.244021976366639" lon="9.91192102432251">
        <ele>965.77999999999997</ele>
        <time>2018-09-18T08:31:15Z</time>
      </trkpt>
      <trkpt lat="47.244021976366639" lon="9.912131996825337">
        <ele>964.34000000000003</ele>
        <time>2018-09-18T08:31:16Z</time>
      </trkpt>
      <trkpt lat="47.244021976366639" lon="9.912340035662055">
        <ele>962.41999999999996</ele>
        <time>2018-09-18T08:31:17Z</time>
      </trkpt>
      <trkpt lat="47.244021976366639" lon="9.912554025650024">
        <ele>960.49000000000001</ele>
        <time>2018-09-18T08:31:18Z</time>
      </trkpt>
      <trkpt lat="47.244186010211706" lon="9.914379017427564">
        <ele>944.14999999999998</ele>
        <time>2018-09-18T08:31:27Z</time>
      </trkpt>
      <trkpt lat="47.244296986609697" lon="9.915045965462923">
        <ele>939.35000000000002</ele>
        <time>2018-09-18T08:31:31Z</time>
      </trkpt>
      <trkpt lat="47.244287012144923" lon="9.915178986266255">
        <ele>938.38</ele>
        <time>2018-09-18T08:31:32Z</time>
      </trkpt>
      <trkpt lat="47.244247030466795" lon="9.915287028998137">
        <ele>937.41999999999996</ele>
        <time>2018-09-18T08:31:33Z</time>
      </trkpt>
      <trkpt lat="47.244177963584661" lon="9.915327010676265">
        <ele>936.94000000000005</ele>
        <time>2018-09-18T08:31:34Z</time>
      </trkpt>
      <trkpt lat="47.244104035198689" lon="9.915329022333026">
        <ele>935.98000000000002</ele>
        <time>2018-09-18T08:31:35Z</time>
      </trkpt>
      <trkpt lat="47.244048966094851" lon="9.915274037048221">
        <ele>935.01999999999998</ele>
        <time>2018-09-18T08:31:36Z</time>
      </trkpt>
      <trkpt lat="47.243994986638427" lon="9.91516700014472">
        <ele>934.05999999999995</ele>
        <time>2018-09-18T08:31:37Z</time>
      </trkpt>
      <trkpt lat="47.243984006345272" lon="9.915045965462923">
        <ele>933.58000000000004</ele>
        <time>2018-09-18T08:31:38Z</time>
      </trkpt>
      <trkpt lat="47.243970008566976" lon="9.914900036528707">
        <ele>933.10000000000002</ele>
        <time>2018-09-18T08:31:39Z</time>
      </trkpt>
      <trkpt lat="47.243953999131918" lon="9.91473600268364">
        <ele>932.62</ele>
        <time>2018-09-18T08:31:40Z</time>
      </trkpt>
      <trkpt lat="47.243897002190351" lon="9.914374994114041">
        <ele>931.64999999999998</ele>
        <time>2018-09-18T08:31:42Z</time>
      </trkpt>
      <trkpt lat="47.243847968056798" lon="9.914188999682665">
        <ele>930.69000000000005</ele>
        <time>2018-09-18T08:31:43Z</time>
      </trkpt>
      <trkpt lat="47.24378501996398" lon="9.914004011079669">
        <ele>929.73000000000002</ele>
        <time>2018-09-18T08:31:44Z</time>
      </trkpt>
      <trkpt lat="47.243135003373027" lon="9.912464004009962">
        <ele>920.12</ele>
        <time>2018-09-18T08:31:54Z</time>
      </trkpt>
      <trkpt lat="47.24267098121345" lon="9.911753972992301">
        <ele>914.35000000000002</ele>
        <time>2018-09-18T08:32:00Z</time>
      </trkpt>
      <trkpt lat="47.242582971230149" lon="9.91162003017962">
        <ele>913.38999999999999</ele>
        <time>2018-09-18T08:32:01Z</time>
      </trkpt>
      <trkpt lat="47.242496972903609" lon="9.911487009376288">
        <ele>912.42999999999995</ele>
        <time>2018-09-18T08:32:02Z</time>
      </trkpt>
      <trkpt lat="47.242439975962043" lon="9.91131903603673">
        <ele>911.47000000000003</ele>
        <time>2018-09-18T08:32:03Z</time>
      </trkpt>
      <trkpt lat="47.242384990677238" lon="9.911153996363282">
        <ele>910.50999999999999</ele>
        <time>2018-09-18T08:32:04Z</time>
      </trkpt>
      <trkpt lat="47.242331011220813" lon="9.910993985831738">
        <ele>909.53999999999996</ele>
        <time>2018-09-18T08:32:05Z</time>
      </trkpt>
      <trkpt lat="47.241754001006484" lon="9.909592028707266">
        <ele>902.33000000000004</ele>
        <time>2018-09-18T08:32:14Z</time>
      </trkpt>
      <trkpt lat="47.24153196439147" lon="9.909122977405787">
        <ele>899.45000000000005</ele>
        <time>2018-09-18T08:32:17Z</time>
      </trkpt>
      <trkpt lat="47.241219989955425" lon="9.908265005797148">
        <ele>898.00999999999999</ele>
        <time>2018-09-18T08:32:22Z</time>
      </trkpt>
      <trkpt lat="47.241147989407182" lon="9.908095020800829">
        <ele>897.52999999999997</ele>
        <time>2018-09-18T08:32:23Z</time>
      </trkpt>
      <trkpt lat="47.240722021088004" lon="9.907557992264628">
        <ele>897.04999999999995</ele>
        <time>2018-09-18T08:32:28Z</time>
      </trkpt>
      <trkpt lat="47.240131013095379" lon="9.906876962631941">
        <ele>897.52999999999997</ele>
        <time>2018-09-18T08:32:35Z</time>
      </trkpt>
      <trkpt lat="47.240061024203897" lon="9.90672399289906">
        <ele>897.52999999999997</ele>
        <time>2018-09-18T08:32:36Z</time>
      </trkpt>
      <trkpt lat="47.239990029484034" lon="9.90657102316618">
        <ele>897.52999999999997</ele>
        <time>2018-09-18T08:32:37Z</time>
      </trkpt>
      <trkpt lat="47.2399209626019" lon="9.906414030119777">
        <ele>897.04999999999995</ele>
        <time>2018-09-18T08:32:38Z</time>
      </trkpt>
      <trkpt lat="47.239877041429281" lon="9.906241027638316">
        <ele>896.57000000000005</ele>
        <time>2018-09-18T08:32:39Z</time>
      </trkpt>
      <trkpt lat="47.239846028387547" lon="9.906068025156856">
        <ele>896.57000000000005</ele>
        <time>2018-09-18T08:32:40Z</time>
      </trkpt>
      <trkpt lat="47.239822978153825" lon="9.905901979655027">
        <ele>896.09000000000003</ele>
        <time>2018-09-18T08:32:41Z</time>
      </trkpt>
      <trkpt lat="47.23974603228271" lon="9.905208963900805">
        <ele>894.15999999999997</ele>
        <time>2018-09-18T08:32:46Z</time>
      </trkpt>
      <trkpt lat="47.239731028676033" lon="9.905054988339543">
        <ele>893.67999999999995</ele>
        <time>2018-09-18T08:32:47Z</time>
      </trkpt>
      <trkpt lat="47.239751983433962" lon="9.90498399361968">
        <ele>893.20000000000005</ele>
        <time>2018-09-18T08:32:48Z</time>
      </trkpt>
      <trkpt lat="47.239794982597232" lon="9.904839992523193">
        <ele>892.24000000000001</ele>
        <time>2018-09-18T08:32:49Z</time>
      </trkpt>
      <trkpt lat="47.239848040044308" lon="9.904772015288472">
        <ele>891.27999999999997</ele>
        <time>2018-09-18T08:32:50Z</time>
      </trkpt>
      <trkpt lat="47.239920040592551" lon="9.904679981991649">
        <ele>890.79999999999995</ele>
        <time>2018-09-18T08:32:51Z</time>
      </trkpt>
      <trkpt lat="47.239992041140795" lon="9.904576968401671">
        <ele>890.32000000000005</ele>
        <time>2018-09-18T08:32:52Z</time>
      </trkpt>
      <trkpt lat="47.240074016153812" lon="9.904454005882144">
        <ele>889.84000000000003</ele>
        <time>2018-09-18T08:32:53Z</time>
      </trkpt>
      <trkpt lat="47.240086002275348" lon="9.904344035312533">
        <ele>889.36000000000001</ele>
        <time>2018-09-18T08:32:54Z</time>
      </trkpt>
      <trkpt lat="47.240065969526768" lon="9.904203973710537">
        <ele>888.88</ele>
        <time>2018-09-18T08:32:55Z</time>
      </trkpt>
      <trkpt lat="47.24000402726233" lon="9.904085034504533">
        <ele>888.88</ele>
        <time>2018-09-18T08:32:56Z</time>
      </trkpt>
      <trkpt lat="47.239937977865338" lon="9.903957964852452">
        <ele>888.39999999999998</ele>
        <time>2018-09-18T08:32:57Z</time>
      </trkpt>
      <trkpt lat="47.239868994802237" lon="9.903824022039771">
        <ele>887.42999999999995</ele>
        <time>2018-09-18T08:32:58Z</time>
      </trkpt>
      <trkpt lat="47.239803029224277" lon="9.903671974316239">
        <ele>886.95000000000005</ele>
        <time>2018-09-18T08:32:59Z</time>
      </trkpt>
      <trkpt lat="47.239758018404245" lon="9.903499977663159">
        <ele>886.47000000000003</ele>
        <time>2018-09-18T08:33:00Z</time>
      </trkpt>
      <trkpt lat="47.239242028445005" lon="9.901664005592465">
        <ele>877.82000000000005</ele>
        <time>2018-09-18T08:33:11Z</time>
      </trkpt>
      <trkpt lat="47.238832991570234" lon="9.900077981874347">
        <ele>868.21000000000004</ele>
        <time>2018-09-18T08:33:21Z</time>
      </trkpt>
      <trkpt lat="47.238806001842022" lon="9.899901961907744">
        <ele>867.25</ele>
        <time>2018-09-18T08:33:22Z</time>
      </trkpt>
      <trkpt lat="47.238637022674084" lon="9.899001996964216">
        <ele>861.96000000000004</ele>
        <time>2018-09-18T08:33:27Z</time>
      </trkpt>
      <trkpt lat="47.238592011854053" lon="9.89883603528142">
        <ele>861</ele>
        <time>2018-09-18T08:33:28Z</time>
      </trkpt>
      <trkpt lat="47.238547001034021" lon="9.898677030578256">
        <ele>860.03999999999996</ele>
        <time>2018-09-18T08:33:29Z</time>
      </trkpt>
      <trkpt lat="47.238470977172256" lon="9.89855800755322">
        <ele>859.08000000000004</ele>
        <time>2018-09-18T08:33:30Z</time>
      </trkpt>
      <trkpt lat="47.23839595913887" lon="9.898442002013326">
        <ele>858.11000000000001</ele>
        <time>2018-09-18T08:33:31Z</time>
      </trkpt>
      <trkpt lat="47.238314989954233" lon="9.898317027837038">
        <ele>857.14999999999998</ele>
        <time>2018-09-18T08:33:32Z</time>
      </trkpt>
      <trkpt lat="47.238234020769596" lon="9.89823698066175">
        <ele>856.19000000000005</ele>
        <time>2018-09-18T08:33:33Z</time>
      </trkpt>
      <trkpt lat="47.238149028271437" lon="9.89815098233521">
        <ele>855.23000000000002</ele>
        <time>2018-09-18T08:33:34Z</time>
      </trkpt>
      <trkpt lat="47.238063029944897" lon="9.898072024807334">
        <ele>854.75</ele>
        <time>2018-09-18T08:33:35Z</time>
      </trkpt>
      <trkpt lat="47.237975019961596" lon="9.897998012602329">
        <ele>853.78999999999996</ele>
        <time>2018-09-18T08:33:36Z</time>
      </trkpt>
      <trkpt lat="47.237907964736223" lon="9.897873038426042">
        <ele>852.83000000000004</ele>
        <time>2018-09-18T08:33:37Z</time>
      </trkpt>
      <trkpt lat="47.237844010815024" lon="9.897752003744245">
        <ele>851.87</ele>
        <time>2018-09-18T08:33:38Z</time>
      </trkpt>
      <trkpt lat="47.237778967246413" lon="9.897626023739576">
        <ele>850.89999999999998</ele>
        <time>2018-09-18T08:33:39Z</time>
      </trkpt>
      <trkpt lat="47.237710990011692" lon="9.897497026249766">
        <ele>850.41999999999996</ele>
        <time>2018-09-18T08:33:40Z</time>
      </trkpt>
      <trkpt lat="47.237644018605351" lon="9.897368028759956">
        <ele>849.46000000000004</ele>
        <time>2018-09-18T08:33:41Z</time>
      </trkpt>
      <trkpt lat="47.23757604137063" lon="9.897236013785005">
        <ele>848.98000000000002</ele>
        <time>2018-09-18T08:33:42Z</time>
      </trkpt>
      <trkpt lat="47.237506974488497" lon="9.897106010466814">
        <ele>848.5</ele>
        <time>2018-09-18T08:33:43Z</time>
      </trkpt>
      <trkpt lat="47.237010011449456" lon="9.896276034414768">
        <ele>844.65999999999997</ele>
        <time>2018-09-18T08:33:50Z</time>
      </trkpt>
      <trkpt lat="47.236710023134947" lon="9.895860962569714">
        <ele>842.73000000000002</ele>
        <time>2018-09-18T08:33:54Z</time>
      </trkpt>
      <trkpt lat="47.236639028415084" lon="9.895740011706948">
        <ele>841.76999999999998</ele>
        <time>2018-09-18T08:33:55Z</time>
      </trkpt>
      <trkpt lat="47.236569039523602" lon="9.89561696536839">
        <ele>841.28999999999996</ele>
        <time>2018-09-18T08:33:56Z</time>
      </trkpt>
      <trkpt lat="47.236507013440132" lon="9.895474975928664">
        <ele>840.33000000000004</ele>
        <time>2018-09-18T08:33:57Z</time>
      </trkpt>
      <trkpt lat="47.236442975699902" lon="9.895327035337687">
        <ele>839.85000000000002</ele>
        <time>2018-09-18T08:33:58Z</time>
      </trkpt>
      <trkpt lat="47.236376004293561" lon="9.895172975957394">
        <ele>838.88999999999999</ele>
        <time>2018-09-18T08:33:59Z</time>
      </trkpt>
      <trkpt lat="47.23630903288722" lon="9.895016988739371">
        <ele>837.92999999999995</ele>
        <time>2018-09-18T08:34:00Z</time>
      </trkpt>
      <trkpt lat="47.236243989318609" lon="9.894866030663252">
        <ele>836.96000000000004</ele>
        <time>2018-09-18T08:34:01Z</time>
      </trkpt>
      <trkpt lat="47.236213982105255" lon="9.894703002646565">
        <ele>835.51999999999998</ele>
        <time>2018-09-18T08:34:02Z</time>
      </trkpt>
      <trkpt lat="47.236193027347326" lon="9.894556989893317">
        <ele>834.55999999999995</ele>
        <time>2018-09-18T08:34:03Z</time>
      </trkpt>
      <trkpt lat="47.236220017075539" lon="9.894420029595494">
        <ele>833.12</ele>
        <time>2018-09-18T08:34:04Z</time>
      </trkpt>
      <trkpt lat="47.236253041774035" lon="9.89428298547864">
        <ele>832.15999999999997</ele>
        <time>2018-09-18T08:34:05Z</time>
      </trkpt>
      <trkpt lat="47.236286988481879" lon="9.894139990210533">
        <ele>830.72000000000003</ele>
        <time>2018-09-18T08:34:06Z</time>
      </trkpt>
      <trkpt lat="47.236324036493897" lon="9.893985008820891">
        <ele>829.75999999999999</ele>
        <time>2018-09-18T08:34:07Z</time>
      </trkpt>
      <trkpt lat="47.236333005130291" lon="9.893797002732754">
        <ele>828.78999999999996</ele>
        <time>2018-09-18T08:34:08Z</time>
      </trkpt>
      <trkpt lat="47.236322024837136" lon="9.89361897110939">
        <ele>827.83000000000004</ele>
        <time>2018-09-18T08:34:09Z</time>
      </trkpt>
      <trkpt lat="47.236300986260176" lon="9.893279001116753">
        <ele>825.90999999999997</ele>
        <time>2018-09-18T08:34:11Z</time>
      </trkpt>
      <trkpt lat="47.236305009573698" lon="9.893113039433956">
        <ele>824.95000000000005</ele>
        <time>2018-09-18T08:34:12Z</time>
      </trkpt>
      <trkpt lat="47.236324958503246" lon="9.892798969522119">
        <ele>823.02999999999997</ele>
        <time>2018-09-18T08:34:14Z</time>
      </trkpt>
      <trkpt lat="47.236334010958672" lon="9.892654968425632">
        <ele>821.58000000000004</ele>
        <time>2018-09-18T08:34:15Z</time>
      </trkpt>
      <trkpt lat="47.23633099347353" lon="9.892506022006273">
        <ele>820.62</ele>
        <time>2018-09-18T08:34:16Z</time>
      </trkpt>
      <trkpt lat="47.236297968775034" lon="9.892373001202941">
        <ele>819.65999999999997</ele>
        <time>2018-09-18T08:34:17Z</time>
      </trkpt>
      <trkpt lat="47.236216999590397" lon="9.892254984006286">
        <ele>818.70000000000005</ele>
        <time>2018-09-18T08:34:18Z</time>
      </trkpt>
      <trkpt lat="47.23613703623414" lon="9.892139984294772">
        <ele>817.74000000000001</ele>
        <time>2018-09-18T08:34:19Z</time>
      </trkpt>
      <trkpt lat="47.236062018200755" lon="9.892030013725162">
        <ele>816.77999999999997</ele>
        <time>2018-09-18T08:34:20Z</time>
      </trkpt>
      <trkpt lat="47.235931009054184" lon="9.891960024833679">
        <ele>815.82000000000005</ele>
        <time>2018-09-18T08:34:21Z</time>
      </trkpt>
      <trkpt lat="47.23581600934267" lon="9.891896992921829">
        <ele>814.85000000000002</ele>
        <time>2018-09-18T08:34:22Z</time>
      </trkpt>
      <trkpt lat="47.235695980489254" lon="9.891867991536856">
        <ele>813.40999999999997</ele>
        <time>2018-09-18T08:34:23Z</time>
      </trkpt>
      <trkpt lat="47.235574023798108" lon="9.891851982101798">
        <ele>812.45000000000005</ele>
        <time>2018-09-18T08:34:24Z</time>
      </trkpt>
      <trkpt lat="47.235461035743356" lon="9.891836978495121">
        <ele>811.00999999999999</ele>
        <time>2018-09-18T08:34:25Z</time>
      </trkpt>
      <trkpt lat="47.235372019931674" lon="9.891777969896793">
        <ele>810.04999999999995</ele>
        <time>2018-09-18T08:34:26Z</time>
      </trkpt>
      <trkpt lat="47.235279986634851" lon="9.891716027632356">
        <ele>809.09000000000003</ele>
        <time>2018-09-18T08:34:27Z</time>
      </trkpt>
      <trkpt lat="47.235245034098625" lon="9.89164000377059">
        <ele>807.63999999999999</ele>
        <time>2018-09-18T08:34:28Z</time>
      </trkpt>
      <trkpt lat="47.235182002186775" lon="9.891450991854072">
        <ele>806.67999999999995</ele>
        <time>2018-09-18T08:34:29Z</time>
      </trkpt>
      <trkpt lat="47.235176973044872" lon="9.891370022669435">
        <ele>804.75999999999999</ele>
        <time>2018-09-18T08:34:30Z</time>
      </trkpt>
      <trkpt lat="47.23499801941216" lon="9.889975022524595">
        <ele>793.71000000000004</ele>
        <time>2018-09-18T08:34:37Z</time>
      </trkpt>
      <trkpt lat="47.234845971688628" lon="9.889261974021792">
        <ele>787.46000000000004</ele>
        <time>2018-09-18T08:34:41Z</time>
      </trkpt>
      <trkpt lat="47.234688978642225" lon="9.888591002672911">
        <ele>779.76999999999998</ele>
        <time>2018-09-18T08:34:45Z</time>
      </trkpt>
      <trkpt lat="47.234644973650575" lon="9.888404002413154">
        <ele>778.32000000000005</ele>
        <time>2018-09-18T08:34:46Z</time>
      </trkpt>
      <trkpt lat="47.234519999474287" lon="9.888102002441883">
        <ele>774.96000000000004</ele>
        <time>2018-09-18T08:34:48Z</time>
      </trkpt>
      <trkpt lat="47.234455039724708" lon="9.887946015223861">
        <ele>773.51999999999998</ele>
        <time>2018-09-18T08:34:49Z</time>
      </trkpt>
      <trkpt lat="47.234373986721039" lon="9.887800002470613">
        <ele>771.60000000000002</ele>
        <time>2018-09-18T08:34:50Z</time>
      </trkpt>
      <trkpt lat="47.234287988394499" lon="9.88766698166728">
        <ele>770.14999999999998</ele>
        <time>2018-09-18T08:34:51Z</time>
      </trkpt>
      <trkpt lat="47.234198972582817" lon="9.887545024976134">
        <ele>768.23000000000002</ele>
        <time>2018-09-18T08:34:52Z</time>
      </trkpt>
      <trkpt lat="47.233917005360126" lon="9.887229027226567">
        <ele>763.41999999999996</ele>
        <time>2018-09-18T08:34:55Z</time>
      </trkpt>
      <trkpt lat="47.232971023768187" lon="9.886838011443615">
        <ele>751.88999999999999</ele>
        <time>2018-09-18T08:35:04Z</time>
      </trkpt>
      <trkpt lat="47.231495976448059" lon="9.886325038969517">
        <ele>738.90999999999997</ele>
        <time>2018-09-18T08:35:15Z</time>
      </trkpt>
      <trkpt lat="47.230459973216057" lon="9.885381991043687">
        <ele>731.70000000000005</ele>
        <time>2018-09-18T08:35:23Z</time>
      </trkpt>
      <trkpt lat="47.229951024055481" lon="9.884110037237406">
        <ele>730.25999999999999</ele>
        <time>2018-09-18T08:35:30Z</time>
      </trkpt>
      <trkpt lat="47.229537963867188" lon="9.881880031898618">
        <ele>731.70000000000005</ele>
        <time>2018-09-18T08:35:40Z</time>
      </trkpt>
      <trkpt lat="47.2288310341537" lon="9.879476018249989">
        <ele>732.65999999999997</ele>
        <time>2018-09-18T08:35:51Z</time>
      </trkpt>
      <trkpt lat="47.227826965972781" lon="9.877511970698834">
        <ele>728.82000000000005</ele>
        <time>2018-09-18T08:36:01Z</time>
      </trkpt>
      <trkpt lat="47.227451037615538" lon="9.876849967986345">
        <ele>727.37</ele>
        <time>2018-09-18T08:36:05Z</time>
      </trkpt>
      <trkpt lat="47.226895987987518" lon="9.875636016950011">
        <ele>724.00999999999999</ele>
        <time>2018-09-18T08:36:14Z</time>
      </trkpt>
      <trkpt lat="47.226623995229602" lon="9.874977031722665">
        <ele>722.57000000000005</ele>
        <time>2018-09-18T08:36:19Z</time>
      </trkpt>
      <trkpt lat="47.226605974137783" lon="9.874848034232855">
        <ele>722.09000000000003</ele>
        <time>2018-09-18T08:36:20Z</time>
      </trkpt>
      <trkpt lat="47.22661997191608" lon="9.874728005379438">
        <ele>722.09000000000003</ele>
        <time>2018-09-18T08:36:21Z</time>
      </trkpt>
      <trkpt lat="47.226652996614575" lon="9.874619962647557">
        <ele>722.09000000000003</ele>
        <time>2018-09-18T08:36:22Z</time>
      </trkpt>
      <trkpt lat="47.226686021313071" lon="9.874509992077947">
        <ele>722.09000000000003</ele>
        <time>2018-09-18T08:36:23Z</time>
      </trkpt>
      <trkpt lat="47.22674997523427" lon="9.874282004311681">
        <ele>722.57000000000005</ele>
        <time>2018-09-18T08:36:25Z</time>
      </trkpt>
      <trkpt lat="47.226774031296372" lon="9.874165998771787">
        <ele>722.57000000000005</ele>
        <time>2018-09-18T08:36:26Z</time>
      </trkpt>
      <trkpt lat="47.226789034903049" lon="9.874032977968454">
        <ele>722.57000000000005</ele>
        <time>2018-09-18T08:36:27Z</time>
      </trkpt>
      <trkpt lat="47.226780988276005" lon="9.873898029327393">
        <ele>722.57000000000005</ele>
        <time>2018-09-18T08:36:28Z</time>
      </trkpt>
      <trkpt lat="47.226764978840947" lon="9.873751010745764">
        <ele>723.04999999999995</ele>
        <time>2018-09-18T08:36:29Z</time>
      </trkpt>
      <trkpt lat="47.22674896940589" lon="9.873598041012883">
        <ele>723.04999999999995</ele>
        <time>2018-09-18T08:36:30Z</time>
      </trkpt>
      <trkpt lat="47.226681997999549" lon="9.873481029644609">
        <ele>723.04999999999995</ele>
        <time>2018-09-18T08:36:31Z</time>
      </trkpt>
      <trkpt lat="47.226612009108067" lon="9.87335697747767">
        <ele>723.52999999999997</ele>
        <time>2018-09-18T08:36:32Z</time>
      </trkpt>
      <trkpt lat="47.226537996903062" lon="9.87322898581624">
        <ele>724.00999999999999</ele>
        <time>2018-09-18T08:36:33Z</time>
      </trkpt>
      <trkpt lat="47.226464990526438" lon="9.873100994154811">
        <ele>724.49000000000001</ele>
        <time>2018-09-18T08:36:34Z</time>
      </trkpt>
      <trkpt lat="47.226357031613588" lon="9.872801005840302">
        <ele>725.92999999999995</ele>
        <time>2018-09-18T08:36:36Z</time>
      </trkpt>
      <trkpt lat="47.22631998360157" lon="9.872653987258673">
        <ele>726.40999999999997</ele>
        <time>2018-09-18T08:36:37Z</time>
      </trkpt>
      <trkpt lat="47.226282013580203" lon="9.872501017525792">
        <ele>727.37</ele>
        <time>2018-09-18T08:36:38Z</time>
      </trkpt>
      <trkpt lat="47.226249994710088" lon="9.872333966195583">
        <ele>728.34000000000003</ele>
        <time>2018-09-18T08:36:39Z</time>
      </trkpt>
      <trkpt lat="47.226235996931791" lon="9.872162975370884">
        <ele>729.29999999999995</ele>
        <time>2018-09-18T08:36:40Z</time>
      </trkpt>
      <trkpt lat="47.226157039403915" lon="9.87144498154521">
        <ele>733.13999999999999</ele>
        <time>2018-09-18T08:36:44Z</time>
      </trkpt>
      <trkpt lat="47.225804999470711" lon="9.870015028864145">
        <ele>739.38999999999999</ele>
        <time>2018-09-18T08:36:52Z</time>
      </trkpt>
      <trkpt lat="47.225804999470711" lon="9.869883013889194">
        <ele>739.87</ele>
        <time>2018-09-18T08:36:53Z</time>
      </trkpt>
      <trkpt lat="47.225818997249007" lon="9.869764996692538">
        <ele>740.83000000000004</ele>
        <time>2018-09-18T08:36:54Z</time>
      </trkpt>
      <trkpt lat="47.225864008069038" lon="9.869653014466167">
        <ele>741.78999999999996</ele>
        <time>2018-09-18T08:36:55Z</time>
      </trkpt>
      <trkpt lat="47.225918993353844" lon="9.869536003097892">
        <ele>742.75999999999999</ele>
        <time>2018-09-18T08:36:56Z</time>
      </trkpt>
      <trkpt lat="47.225983031094074" lon="9.869427960366011">
        <ele>743.72000000000003</ele>
        <time>2018-09-18T08:36:57Z</time>
      </trkpt>
      <trkpt lat="47.226040028035641" lon="9.869315978139639">
        <ele>745.15999999999997</ele>
        <time>2018-09-18T08:36:58Z</time>
      </trkpt>
      <trkpt lat="47.226027958095074" lon="9.869195027276874">
        <ele>746.12</ele>
        <time>2018-09-18T08:36:59Z</time>
      </trkpt>
      <trkpt lat="47.225998034700751" lon="9.86908296123147">
        <ele>747.08000000000004</ele>
        <time>2018-09-18T08:37:00Z</time>
      </trkpt>
      <trkpt lat="47.225912036374211" lon="9.868963016197085">
        <ele>748.03999999999996</ele>
        <time>2018-09-18T08:37:01Z</time>
      </trkpt>
      <trkpt lat="47.225836012512445" lon="9.868920017033815">
        <ele>748.51999999999998</ele>
        <time>2018-09-18T08:37:02Z</time>
      </trkpt>
      <trkpt lat="47.225736016407609" lon="9.86886402592063">
        <ele>749.49000000000001</ele>
        <time>2018-09-18T08:37:03Z</time>
      </trkpt>
      <trkpt lat="47.225635014474392" lon="9.868807028979063">
        <ele>749.97000000000003</ele>
        <time>2018-09-18T08:37:04Z</time>
      </trkpt>
      <trkpt lat="47.225539963692427" lon="9.868726981803775">
        <ele>750.45000000000005</ele>
        <time>2018-09-18T08:37:05Z</time>
      </trkpt>
      <trkpt lat="47.225462011992931" lon="9.8686099704355">
        <ele>750.92999999999995</ele>
        <time>2018-09-18T08:37:06Z</time>
      </trkpt>
      <trkpt lat="47.225411972030997" lon="9.868449037894607">
        <ele>751.88999999999999</ele>
        <time>2018-09-18T08:37:07Z</time>
      </trkpt>
      <trkpt lat="47.22537400200963" lon="9.868278969079256">
        <ele>752.85000000000002</ele>
        <time>2018-09-18T08:37:08Z</time>
      </trkpt>
      <trkpt lat="47.225347012281418" lon="9.868087023496628">
        <ele>754.28999999999996</ele>
        <time>2018-09-18T08:37:09Z</time>
      </trkpt>
      <trkpt lat="47.225290015339851" lon="9.867225028574467">
        <ele>760.53999999999996</ele>
        <time>2018-09-18T08:37:13Z</time>
      </trkpt>
      <trkpt lat="47.225233018398285" lon="9.867045991122723">
        <ele>761.98000000000002</ele>
        <time>2018-09-18T08:37:14Z</time>
      </trkpt>
      <trkpt lat="47.225118018686771" lon="9.866688000038266">
        <ele>764.87</ele>
        <time>2018-09-18T08:37:16Z</time>
      </trkpt>
      <trkpt lat="47.225109972059727" lon="9.866480967029929">
        <ele>766.78999999999996</ele>
        <time>2018-09-18T08:37:17Z</time>
      </trkpt>
      <trkpt lat="47.225101003423333" lon="9.866277035325766">
        <ele>768.23000000000002</ele>
        <time>2018-09-18T08:37:18Z</time>
      </trkpt>
      <trkpt lat="47.225084993988276" lon="9.865855006501079">
        <ele>772.08000000000004</ele>
        <time>2018-09-18T08:37:20Z</time>
      </trkpt>
      <trkpt lat="47.225075019523501" lon="9.865593994036317">
        <ele>773.51999999999998</ele>
        <time>2018-09-18T08:37:21Z</time>
      </trkpt>
      <trkpt lat="47.22504903562367" lon="9.865425014868379">
        <ele>774.96000000000004</ele>
        <time>2018-09-18T08:37:22Z</time>
      </trkpt>
      <trkpt lat="47.225017016753554" lon="9.865226028487086">
        <ele>776.88</ele>
        <time>2018-09-18T08:37:23Z</time>
      </trkpt>
      <trkpt lat="47.225044006481767" lon="9.865022012963891">
        <ele>778.32000000000005</ele>
        <time>2018-09-18T08:37:24Z</time>
      </trkpt>
      <trkpt lat="47.225083988159895" lon="9.864822020754218">
        <ele>779.76999999999998</ele>
        <time>2018-09-18T08:37:25Z</time>
      </trkpt>
      <trkpt lat="47.225121958181262" lon="9.864629991352558">
        <ele>781.21000000000004</ele>
        <time>2018-09-18T08:37:26Z</time>
      </trkpt>
      <trkpt lat="47.225161017850041" lon="9.864435028284788">
        <ele>783.13</ele>
        <time>2018-09-18T08:37:27Z</time>
      </trkpt>
      <trkpt lat="47.225161017850041" lon="9.86426898278296">
        <ele>784.09000000000003</ele>
        <time>2018-09-18T08:37:28Z</time>
      </trkpt>
      <trkpt lat="47.225139979273081" lon="9.864082988351584">
        <ele>785.04999999999995</ele>
        <time>2018-09-18T08:37:29Z</time>
      </trkpt>
      <trkpt lat="47.225107038393617" lon="9.86390202306211">
        <ele>786.01999999999998</ele>
        <time>2018-09-18T08:37:30Z</time>
      </trkpt>
      <trkpt lat="47.225075019523501" lon="9.863727008923888">
        <ele>786.98000000000002</ele>
        <time>2018-09-18T08:37:31Z</time>
      </trkpt>
      <trkpt lat="47.22509597428143" lon="9.863544031977654">
        <ele>788.41999999999996</ele>
        <time>2018-09-18T08:37:32Z</time>
      </trkpt>
      <trkpt lat="47.225139979273081" lon="9.863372035324574">
        <ele>789.38</ele>
        <time>2018-09-18T08:37:33Z</time>
      </trkpt>
      <trkpt lat="47.225182978436351" lon="9.863185035064817">
        <ele>790.82000000000005</ele>
        <time>2018-09-18T08:37:34Z</time>
      </trkpt>
      <trkpt lat="47.225182978436351" lon="9.863013038411737">
        <ele>791.77999999999997</ele>
        <time>2018-09-18T08:37:35Z</time>
      </trkpt>
      <trkpt lat="47.225131010636687" lon="9.86282897181809">
        <ele>793.22000000000003</ele>
        <time>2018-09-18T08:37:36Z</time>
      </trkpt>
      <trkpt lat="47.225066972896457" lon="9.862650018185377">
        <ele>794.66999999999996</ele>
        <time>2018-09-18T08:37:37Z</time>
      </trkpt>
      <trkpt lat="47.225000001490116" lon="9.862457988783717">
        <ele>796.11000000000001</ele>
        <time>2018-09-18T08:37:38Z</time>
      </trkpt>
      <trkpt lat="47.224817024543881" lon="9.861686015501618">
        <ele>801.88</ele>
        <time>2018-09-18T08:37:42Z</time>
      </trkpt>
      <trkpt lat="47.224797997623682" lon="9.861479988321662">
        <ele>803.79999999999995</ele>
        <time>2018-09-18T08:37:43Z</time>
      </trkpt>
      <trkpt lat="47.224604040384293" lon="9.859610991552472">
        <ele>816.29999999999995</ele>
        <time>2018-09-18T08:37:51Z</time>
      </trkpt>
      <trkpt lat="47.224508989602327" lon="9.857807038351893">
        <ele>827.35000000000002</ele>
        <time>2018-09-18T08:37:58Z</time>
      </trkpt>
      <trkpt lat="47.224461967125535" lon="9.857572009786964">
        <ele>828.78999999999996</ele>
        <time>2018-09-18T08:37:59Z</time>
      </trkpt>
      <trkpt lat="47.224238002672791" lon="9.856367027387023">
        <ele>838.40999999999997</ele>
        <time>2018-09-18T08:38:05Z</time>
      </trkpt>
      <trkpt lat="47.224267004057765" lon="9.856185978278518">
        <ele>839.85000000000002</ele>
        <time>2018-09-18T08:38:06Z</time>
      </trkpt>
      <trkpt lat="47.224334981292486" lon="9.855755986645818">
        <ele>843.21000000000004</ele>
        <time>2018-09-18T08:38:08Z</time>
      </trkpt>
      <trkpt lat="47.224370017647743" lon="9.855506960302591">
        <ele>845.13999999999999</ele>
        <time>2018-09-18T08:38:09Z</time>
      </trkpt>
      <trkpt lat="47.224418967962265" lon="9.854744961485267">
        <ele>850.41999999999996</ele>
        <time>2018-09-18T08:38:12Z</time>
      </trkpt>
      <trkpt lat="47.224441012367606" lon="9.854508005082607">
        <ele>852.35000000000002</ele>
        <time>2018-09-18T08:38:13Z</time>
      </trkpt>
      <trkpt lat="47.224501026794314" lon="9.854279011487961">
        <ele>853.78999999999996</ele>
        <time>2018-09-18T08:38:14Z</time>
      </trkpt>
      <trkpt lat="47.224559029564261" lon="9.854059992358089">
        <ele>855.23000000000002</ele>
        <time>2018-09-18T08:38:15Z</time>
      </trkpt>
      <trkpt lat="47.224613009020686" lon="9.853853965178132">
        <ele>857.14999999999998</ele>
        <time>2018-09-18T08:38:16Z</time>
      </trkpt>
      <trkpt lat="47.224659025669098" lon="9.853636035695672">
        <ele>859.08000000000004</ele>
        <time>2018-09-18T08:38:17Z</time>
      </trkpt>
      <trkpt lat="47.224691966548562" lon="9.853398995473981">
        <ele>860.51999999999998</ele>
        <time>2018-09-18T08:38:18Z</time>
      </trkpt>
      <trkpt lat="47.224723985418677" lon="9.853164972737432">
        <ele>861.96000000000004</ele>
        <time>2018-09-18T08:38:19Z</time>
      </trkpt>
      <trkpt lat="47.224754998460412" lon="9.852941008284688">
        <ele>863.39999999999998</ele>
        <time>2018-09-18T08:38:20Z</time>
      </trkpt>
      <trkpt lat="47.224785005673766" lon="9.852721989154816">
        <ele>864.84000000000003</ele>
        <time>2018-09-18T08:38:21Z</time>
      </trkpt>
      <trkpt lat="47.22485801205039" lon="9.852083036676049">
        <ele>869.16999999999996</ele>
        <time>2018-09-18T08:38:24Z</time>
      </trkpt>
      <trkpt lat="47.224912997335196" lon="9.851695038378239">
        <ele>871.57000000000005</ele>
        <time>2018-09-18T08:38:26Z</time>
      </trkpt>
      <trkpt lat="47.224949039518833" lon="9.851521030068398">
        <ele>872.04999999999995</ele>
        <time>2018-09-18T08:38:27Z</time>
      </trkpt>
      <trkpt lat="47.225011987611651" lon="9.851360013708472">
        <ele>873.00999999999999</ele>
        <time>2018-09-18T08:38:28Z</time>
      </trkpt>
      <trkpt lat="47.225099997594953" lon="9.851218024268746">
        <ele>873.98000000000002</ele>
        <time>2018-09-18T08:38:29Z</time>
      </trkpt>
      <trkpt lat="47.225192030891776" lon="9.851071005687118">
        <ele>874.46000000000004</ele>
        <time>2018-09-18T08:38:30Z</time>
      </trkpt>
      <trkpt lat="47.225268976762891" lon="9.850921975448728">
        <ele>875.41999999999996</ele>
        <time>2018-09-18T08:38:31Z</time>
      </trkpt>
      <trkpt lat="47.225319016724825" lon="9.850750984624028">
        <ele>876.38</ele>
        <time>2018-09-18T08:38:32Z</time>
      </trkpt>
      <trkpt lat="47.225346006453037" lon="9.850551998242736">
        <ele>876.86000000000001</ele>
        <time>2018-09-18T08:38:33Z</time>
      </trkpt>
      <trkpt lat="47.225328991189599" lon="9.850338008254767">
        <ele>877.34000000000003</ele>
        <time>2018-09-18T08:38:34Z</time>
      </trkpt>
      <trkpt lat="47.225292026996613" lon="9.850112032145262">
        <ele>877.82000000000005</ele>
        <time>2018-09-18T08:38:35Z</time>
      </trkpt>
      <trkpt lat="47.225162023678422" lon="9.848417965695262">
        <ele>882.14999999999998</ele>
        <time>2018-09-18T08:38:42Z</time>
      </trkpt>
      <trkpt lat="47.225127993151546" lon="9.848203975707293">
        <ele>883.11000000000001</ele>
        <time>2018-09-18T08:38:43Z</time>
      </trkpt>
      <trkpt lat="47.225089017301798" lon="9.847993003204465">
        <ele>883.59000000000003</ele>
        <time>2018-09-18T08:38:44Z</time>
      </trkpt>
      <trkpt lat="47.224967982620001" lon="9.847334017977119">
        <ele>885.99000000000001</ele>
        <time>2018-09-18T08:38:47Z</time>
      </trkpt>
      <trkpt lat="47.224826999008656" lon="9.845150029286742">
        <ele>893.67999999999995</ele>
        <time>2018-09-18T08:38:56Z</time>
      </trkpt>
      <trkpt lat="47.224775031208992" lon="9.844061974436045">
        <ele>897.04999999999995</ele>
        <time>2018-09-18T08:39:01Z</time>
      </trkpt>
      <trkpt lat="47.224775031208992" lon="9.843886038288474">
        <ele>897.52999999999997</ele>
        <time>2018-09-18T08:39:02Z</time>
      </trkpt>
      <trkpt lat="47.22479104064405" lon="9.843710018321872">
        <ele>898.00999999999999</ele>
        <time>2018-09-18T08:39:03Z</time>
      </trkpt>
      <trkpt lat="47.224848959594965" lon="9.843566017225385">
        <ele>898.49000000000001</ele>
        <time>2018-09-18T08:39:04Z</time>
      </trkpt>
      <trkpt lat="47.224935963749886" lon="9.843441965058446">
        <ele>898.97000000000003</ele>
        <time>2018-09-18T08:39:05Z</time>
      </trkpt>
      <trkpt lat="47.225021040067077" lon="9.843335011973977">
        <ele>899.45000000000005</ele>
        <time>2018-09-18T08:39:06Z</time>
      </trkpt>
      <trkpt lat="47.225099997594953" lon="9.843237027525902">
        <ele>899.92999999999995</ele>
        <time>2018-09-18T08:39:07Z</time>
      </trkpt>
      <trkpt lat="47.2251389734447" lon="9.843124039471149">
        <ele>900.40999999999997</ele>
        <time>2018-09-18T08:39:08Z</time>
      </trkpt>
      <trkpt lat="47.225167974829674" lon="9.84299797564745">
        <ele>900.88999999999999</ele>
        <time>2018-09-18T08:39:09Z</time>
      </trkpt>
      <trkpt lat="47.225174009799957" lon="9.842867972329259">
        <ele>901.37</ele>
        <time>2018-09-18T08:39:10Z</time>
      </trkpt>
      <trkpt lat="47.225133022293448" lon="9.842727994546294">
        <ele>901.37</ele>
        <time>2018-09-18T08:39:11Z</time>
      </trkpt>
      <trkpt lat="47.225050963461399" lon="9.842635961249471">
        <ele>901.37</ele>
        <time>2018-09-18T08:39:12Z</time>
      </trkpt>
      <trkpt lat="47.224959013983607" lon="9.842562032863498">
        <ele>901.85000000000002</ele>
        <time>2018-09-18T08:39:13Z</time>
      </trkpt>
      <trkpt lat="47.224868992343545" lon="9.842489026486874">
        <ele>901.85000000000002</ele>
        <time>2018-09-18T08:39:14Z</time>
      </trkpt>
      <trkpt lat="47.224776959046721" lon="9.842414008453488">
        <ele>901.85000000000002</ele>
        <time>2018-09-18T08:39:15Z</time>
      </trkpt>
      <trkpt lat="47.224680986255407" lon="9.842336978763342">
        <ele>901.85000000000002</ele>
        <time>2018-09-18T08:39:16Z</time>
      </trkpt>
      <trkpt lat="47.224595993757248" lon="9.842227008193731">
        <ele>901.85000000000002</ele>
        <time>2018-09-18T08:39:17Z</time>
      </trkpt>
      <trkpt lat="47.224538996815681" lon="9.842098010703921">
        <ele>901.85000000000002</ele>
        <time>2018-09-18T08:39:18Z</time>
      </trkpt>
      <trkpt lat="47.224516030400991" lon="9.841938000172377">
        <ele>902.33000000000004</ele>
        <time>2018-09-18T08:39:19Z</time>
      </trkpt>
      <trkpt lat="47.224498009309173" lon="9.841788969933987">
        <ele>901.85000000000002</ele>
        <time>2018-09-18T08:39:20Z</time>
      </trkpt>
      <trkpt lat="47.224532039836049" lon="9.841654021292925">
        <ele>901.85000000000002</ele>
        <time>2018-09-18T08:39:21Z</time>
      </trkpt>
      <trkpt lat="47.224569004029036" lon="9.841504991054535">
        <ele>901.85000000000002</ele>
        <time>2018-09-18T08:39:22Z</time>
      </trkpt>
      <trkpt lat="47.224608985707164" lon="9.841346992179751">
        <ele>902.33000000000004</ele>
        <time>2018-09-18T08:39:23Z</time>
      </trkpt>
      <trkpt lat="47.224650979042053" lon="9.841177007183433">
        <ele>902.82000000000005</ele>
        <time>2018-09-18T08:39:24Z</time>
      </trkpt>
      <trkpt lat="47.224695989862084" lon="9.840997969731689">
        <ele>902.82000000000005</ele>
        <time>2018-09-18T08:39:25Z</time>
      </trkpt>
      <trkpt lat="47.22470797598362" lon="9.840794960036874">
        <ele>903.29999999999995</ele>
        <time>2018-09-18T08:39:26Z</time>
      </trkpt>
      <trkpt lat="47.224713005125523" lon="9.839212959632278">
        <ele>905.70000000000005</ele>
        <time>2018-09-18T08:39:34Z</time>
      </trkpt>
      <trkpt lat="47.224727002903819" lon="9.838794032111764">
        <ele>906.17999999999995</ele>
        <time>2018-09-18T08:39:37Z</time>
      </trkpt>
      <trkpt lat="47.224710993468761" lon="9.838642990216613">
        <ele>906.17999999999995</ele>
        <time>2018-09-18T08:39:38Z</time>
      </trkpt>
      <trkpt lat="47.22466598264873" lon="9.838538970798254">
        <ele>906.17999999999995</ele>
        <time>2018-09-18T08:39:39Z</time>
      </trkpt>
      <trkpt lat="47.224589036777616" lon="9.838433023542166">
        <ele>906.17999999999995</ele>
        <time>2018-09-18T08:39:40Z</time>
      </trkpt>
      <trkpt lat="47.224501026794314" lon="9.838338978588581">
        <ele>906.65999999999997</ele>
        <time>2018-09-18T08:39:41Z</time>
      </trkpt>
      <trkpt lat="47.224409999325871" lon="9.838243005797267">
        <ele>906.65999999999997</ele>
        <time>2018-09-18T08:39:42Z</time>
      </trkpt>
      <trkpt lat="47.224319977685809" lon="9.838147033005953">
        <ele>906.17999999999995</ele>
        <time>2018-09-18T08:39:43Z</time>
      </trkpt>
      <trkpt lat="47.224248982965946" lon="9.838037984445691">
        <ele>906.65999999999997</ele>
        <time>2018-09-18T08:39:44Z</time>
      </trkpt>
      <trkpt lat="47.224134989082813" lon="9.837795998901129">
        <ele>907.13999999999999</ele>
        <time>2018-09-18T08:39:46Z</time>
      </trkpt>
      <trkpt lat="47.224095007404685" lon="9.837668007239699">
        <ele>907.13999999999999</ele>
        <time>2018-09-18T08:39:47Z</time>
      </trkpt>
      <trkpt lat="47.224066006019711" lon="9.837516965344548">
        <ele>907.62</ele>
        <time>2018-09-18T08:39:48Z</time>
      </trkpt>
      <trkpt lat="47.223756965249777" lon="9.835989028215408">
        <ele>906.17999999999995</ele>
        <time>2018-09-18T08:39:57Z</time>
      </trkpt>
      <trkpt lat="47.223444990813732" lon="9.834700981155038">
        <ele>903.29999999999995</ele>
        <time>2018-09-18T08:40:07Z</time>
      </trkpt>
      <trkpt lat="47.223410960286856" lon="9.834495959803462">
        <ele>903.29999999999995</ele>
        <time>2018-09-18T08:40:09Z</time>
      </trkpt>
      <trkpt lat="47.22339503467083" lon="9.834395963698626">
        <ele>903.29999999999995</ele>
        <time>2018-09-18T08:40:10Z</time>
      </trkpt>
      <trkpt lat="47.223336026072502" lon="9.834221033379436">
        <ele>903.29999999999995</ele>
        <time>2018-09-18T08:40:12Z</time>
      </trkpt>
      <trkpt lat="47.223297972232103" lon="9.834144003689289">
        <ele>902.82000000000005</ele>
        <time>2018-09-18T08:40:13Z</time>
      </trkpt>
      <trkpt lat="47.223258996382356" lon="9.834065968170762">
        <ele>902.82000000000005</ele>
        <time>2018-09-18T08:40:14Z</time>
      </trkpt>
      <trkpt lat="47.223057998344302" lon="9.833664977923036">
        <ele>902.33000000000004</ele>
        <time>2018-09-18T08:40:19Z</time>
      </trkpt>
      <trkpt lat="47.223040983080864" lon="9.833560958504677">
        <ele>902.33000000000004</ele>
        <time>2018-09-18T08:40:20Z</time>
      </trkpt>
      <trkpt lat="47.223025979474187" lon="9.833469009026885">
        <ele>902.33000000000004</ele>
        <time>2018-09-18T08:40:21Z</time>
      </trkpt>
      <trkpt lat="47.223014999181032" lon="9.833407988771796">
        <ele>902.33000000000004</ele>
        <time>2018-09-18T08:40:22Z</time>
      </trkpt>
      <trkpt lat="47.223040983080864" lon="9.833324002102017">
        <ele>902.33000000000004</ele>
        <time>2018-09-18T08:40:23Z</time>
      </trkpt>
      <trkpt lat="47.223059004172683" lon="9.833267005160451">
        <ele>902.33000000000004</ele>
        <time>2018-09-18T08:40:24Z</time>
      </trkpt>
      <trkpt lat="47.223079036921263" lon="9.83320196159184">
        <ele>902.33000000000004</ele>
        <time>2018-09-18T08:40:25Z</time>
      </trkpt>
      <trkpt lat="47.223100997507572" lon="9.833129039034247">
        <ele>902.33000000000004</ele>
        <time>2018-09-18T08:40:26Z</time>
      </trkpt>
      <trkpt lat="47.223151037469506" lon="9.833078999072313">
        <ele>902.33000000000004</ele>
        <time>2018-09-18T08:40:27Z</time>
      </trkpt>
      <trkpt lat="47.223212979733944" lon="9.833020996302366">
        <ele>902.33000000000004</ele>
        <time>2018-09-18T08:40:28Z</time>
      </trkpt>
      <trkpt lat="47.223295960575342" lon="9.833020996302366">
        <ele>902.33000000000004</ele>
        <time>2018-09-18T08:40:29Z</time>
      </trkpt>
      <trkpt lat="47.223388999700546" lon="9.833020996302366">
        <ele>902.33000000000004</ele>
        <time>2018-09-18T08:40:30Z</time>
      </trkpt>
      <trkpt lat="47.223573988303542" lon="9.832973973825574">
        <ele>902.82000000000005</ele>
        <time>2018-09-18T08:40:32Z</time>
      </trkpt>
      <trkpt lat="47.22365403547883" lon="9.832932986319065">
        <ele>902.33000000000004</ele>
        <time>2018-09-18T08:40:33Z</time>
      </trkpt>
      <trkpt lat="47.223712960258126" lon="9.832848999649286">
        <ele>901.85000000000002</ele>
        <time>2018-09-18T08:40:34Z</time>
      </trkpt>
      <trkpt lat="47.223770041018724" lon="9.832768030464649">
        <ele>901.37</ele>
        <time>2018-09-18T08:40:35Z</time>
      </trkpt>
      <trkpt lat="47.223808011040092" lon="9.832665016874671">
        <ele>900.88999999999999</ele>
        <time>2018-09-18T08:40:36Z</time>
      </trkpt>
      <trkpt lat="47.223841035738587" lon="9.832539958879352">
        <ele>899.92999999999995</ele>
        <time>2018-09-18T08:40:37Z</time>
      </trkpt>
      <trkpt lat="47.223922004923224" lon="9.832261009141803">
        <ele>898.97000000000003</ele>
        <time>2018-09-18T08:40:39Z</time>
      </trkpt>
      <trkpt lat="47.224155021831393" lon="9.831691961735487">
        <ele>897.04999999999995</ele>
        <time>2018-09-18T08:40:43Z</time>
      </trkpt>
      <trkpt lat="47.224233979359269" lon="9.831566987559199">
        <ele>896.57000000000005</ele>
        <time>2018-09-18T08:40:44Z</time>
      </trkpt>
      <trkpt lat="47.224312014877796" lon="9.831444025039673">
        <ele>896.09000000000003</ele>
        <time>2018-09-18T08:40:45Z</time>
      </trkpt>
      <trkpt lat="47.224402036517859" lon="9.831333970651031">
        <ele>895.61000000000001</ele>
        <time>2018-09-18T08:40:46Z</time>
      </trkpt>
      <trkpt lat="47.224488034844398" lon="9.831247972324491">
        <ele>895.12</ele>
        <time>2018-09-18T08:40:47Z</time>
      </trkpt>
      <trkpt lat="47.224567998200655" lon="9.831168008968234">
        <ele>894.63999999999999</ele>
        <time>2018-09-18T08:40:48Z</time>
      </trkpt>
      <trkpt lat="47.22464201040566" lon="9.831093996763229">
        <ele>894.15999999999997</ele>
        <time>2018-09-18T08:40:49Z</time>
      </trkpt>
      <trkpt lat="47.224674029275775" lon="9.830991989001632">
        <ele>893.67999999999995</ele>
        <time>2018-09-18T08:40:50Z</time>
      </trkpt>
      <trkpt lat="47.22468601539731" lon="9.830866008996964">
        <ele>893.67999999999995</ele>
        <time>2018-09-18T08:40:51Z</time>
      </trkpt>
      <trkpt lat="47.224667994305491" lon="9.830757966265082">
        <ele>893.20000000000005</ele>
        <time>2018-09-18T08:40:52Z</time>
      </trkpt>
      <trkpt lat="47.22462197765708" lon="9.830657970160246">
        <ele>892.72000000000003</ele>
        <time>2018-09-18T08:40:53Z</time>
      </trkpt>
      <trkpt lat="47.224543020129204" lon="9.83057901263237">
        <ele>892.72000000000003</ele>
        <time>2018-09-18T08:40:54Z</time>
      </trkpt>
      <trkpt lat="47.224446041509509" lon="9.830538025125861">
        <ele>892.72000000000003</ele>
        <time>2018-09-18T08:40:55Z</time>
      </trkpt>
      <trkpt lat="47.224333975464106" lon="9.830513969063759">
        <ele>892.72000000000003</ele>
        <time>2018-09-18T08:40:56Z</time>
      </trkpt>
      <trkpt lat="47.224217969924212" lon="9.830488990992308">
        <ele>892.24000000000001</ele>
        <time>2018-09-18T08:40:57Z</time>
      </trkpt>
      <trkpt lat="47.224112022668123" lon="9.830466024577618">
        <ele>892.24000000000001</ele>
        <time>2018-09-18T08:40:58Z</time>
      </trkpt>
      <trkpt lat="47.224006997421384" lon="9.830435011535883">
        <ele>892.24000000000001</ele>
        <time>2018-09-18T08:40:59Z</time>
      </trkpt>
      <trkpt lat="47.223907001316547" lon="9.830365022644401">
        <ele>892.24000000000001</ele>
        <time>2018-09-18T08:41:00Z</time>
      </trkpt>
      <trkpt lat="47.22380599938333" lon="9.830296039581299">
        <ele>891.75999999999999</ele>
        <time>2018-09-18T08:41:01Z</time>
      </trkpt>
      <trkpt lat="47.223710026592016" lon="9.830179028213024">
        <ele>891.27999999999997</ele>
        <time>2018-09-18T08:41:02Z</time>
      </trkpt>
      <trkpt lat="47.223648000508547" lon="9.830045001581311">
        <ele>891.27999999999997</ele>
        <time>2018-09-18T08:41:03Z</time>
      </trkpt>
      <trkpt lat="47.223593015223742" lon="9.82991399243474">
        <ele>891.27999999999997</ele>
        <time>2018-09-18T08:41:04Z</time>
      </trkpt>
      <trkpt lat="47.223580023273826" lon="9.829773008823395">
        <ele>891.75999999999999</ele>
        <time>2018-09-18T08:41:05Z</time>
      </trkpt>
      <trkpt lat="47.223585974425077" lon="9.829628001898527">
        <ele>892.72000000000003</ele>
        <time>2018-09-18T08:41:06Z</time>
      </trkpt>
      <trkpt lat="47.22361003048718" lon="9.829494981095195">
        <ele>893.67999999999995</ele>
        <time>2018-09-18T08:41:07Z</time>
      </trkpt>
      <trkpt lat="47.22367599606514" lon="9.82937796972692">
        <ele>894.63999999999999</ele>
        <time>2018-09-18T08:41:08Z</time>
      </trkpt>
      <trkpt lat="47.223747996613383" lon="9.829277973622084">
        <ele>895.12</ele>
        <time>2018-09-18T08:41:09Z</time>
      </trkpt>
      <trkpt lat="47.223833994939923" lon="9.829178983345628">
        <ele>896.09000000000003</ele>
        <time>2018-09-18T08:41:10Z</time>
      </trkpt>
      <trkpt lat="47.223928961902857" lon="9.829088039696217">
        <ele>897.04999999999995</ele>
        <time>2018-09-18T08:41:11Z</time>
      </trkpt>
      <trkpt lat="47.224507983773947" lon="9.828398041427136">
        <ele>903.77999999999997</ele>
        <time>2018-09-18T08:41:17Z</time>
      </trkpt>
      <trkpt lat="47.22457897849381" lon="9.828262003138661">
        <ele>904.74000000000001</ele>
        <time>2018-09-18T08:41:18Z</time>
      </trkpt>
      <trkpt lat="47.224604040384293" lon="9.828096041455865">
        <ele>906.17999999999995</ele>
        <time>2018-09-18T08:41:19Z</time>
      </trkpt>
      <trkpt lat="47.224628012627363" lon="9.827922033146024">
        <ele>907.13999999999999</ele>
        <time>2018-09-18T08:41:20Z</time>
      </trkpt>
      <trkpt lat="47.224652990698814" lon="9.827745007351041">
        <ele>908.10000000000002</ele>
        <time>2018-09-18T08:41:21Z</time>
      </trkpt>
      <trkpt lat="47.224669000133872" lon="9.827567981556058">
        <ele>909.05999999999995</ele>
        <time>2018-09-18T08:41:22Z</time>
      </trkpt>
      <trkpt lat="47.224672017619014" lon="9.827387016266584">
        <ele>909.53999999999996</ele>
        <time>2018-09-18T08:41:23Z</time>
      </trkpt>
      <trkpt lat="47.224675035104156" lon="9.827194986864924">
        <ele>910.02999999999997</ele>
        <time>2018-09-18T08:41:24Z</time>
      </trkpt>
      <trkpt lat="47.224678974598646" lon="9.827008992433548">
        <ele>910.99000000000001</ele>
        <time>2018-09-18T08:41:25Z</time>
      </trkpt>
      <trkpt lat="47.224680986255407" lon="9.826845964416862">
        <ele>911.95000000000005</ele>
        <time>2018-09-18T08:41:26Z</time>
      </trkpt>
      <trkpt lat="47.22468601539731" lon="9.826575983315706">
        <ele>913.38999999999999</ele>
        <time>2018-09-18T08:41:28Z</time>
      </trkpt>
      <trkpt lat="47.224688027054071" lon="9.82645696029067">
        <ele>914.35000000000002</ele>
        <time>2018-09-18T08:41:29Z</time>
      </trkpt>
      <trkpt lat="47.224657014012337" lon="9.826358975842595">
        <ele>915.30999999999995</ele>
        <time>2018-09-18T08:41:30Z</time>
      </trkpt>
      <trkpt lat="47.224616026505828" lon="9.826290998607874">
        <ele>915.78999999999996</ele>
        <time>2018-09-18T08:41:31Z</time>
      </trkpt>
      <trkpt lat="47.22457897849381" lon="9.826228972524405">
        <ele>916.75</ele>
        <time>2018-09-18T08:41:32Z</time>
      </trkpt>
      <trkpt lat="47.224560035392642" lon="9.82619795948267">
        <ele>917.24000000000001</ele>
        <time>2018-09-18T08:41:33Z</time>
      </trkpt>
      <trkpt lat="47.224495997652411" lon="9.826213968917728">
        <ele>918.20000000000005</ele>
        <time>2018-09-18T08:41:34Z</time>
      </trkpt>
      <trkpt lat="47.224446963518858" lon="9.826226038858295">
        <ele>919.15999999999997</ele>
        <time>2018-09-18T08:41:35Z</time>
      </trkpt>
      <trkpt lat="47.224397007375956" lon="9.82623802497983">
        <ele>919.63999999999999</ele>
        <time>2018-09-18T08:41:36Z</time>
      </trkpt>
      <trkpt lat="47.224379992112517" lon="9.826255040243268">
        <ele>920.60000000000002</ele>
        <time>2018-09-18T08:41:37Z</time>
      </trkpt>
      <trkpt lat="47.224332969635725" lon="9.826329974457622">
        <ele>921.55999999999995</ele>
        <time>2018-09-18T08:41:38Z</time>
      </trkpt>
      <trkpt lat="47.224281001836061" lon="9.826412033289671">
        <ele>922.51999999999998</ele>
        <time>2018-09-18T08:41:39Z</time>
      </trkpt>
      <trkpt lat="47.224257029592991" lon="9.826532984152436">
        <ele>923.48000000000002</ele>
        <time>2018-09-18T08:41:40Z</time>
      </trkpt>
      <trkpt lat="47.224227022379637" lon="9.826684026047587">
        <ele>924.92999999999995</ele>
        <time>2018-09-18T08:41:41Z</time>
      </trkpt>
      <trkpt lat="47.224197015166283" lon="9.826835989952087">
        <ele>925.88999999999999</ele>
        <time>2018-09-18T08:41:42Z</time>
      </trkpt>
      <trkpt lat="47.22412995994091" lon="9.826961969956756">
        <ele>926.37</ele>
        <time>2018-09-18T08:41:43Z</time>
      </trkpt>
      <trkpt lat="47.224067011848092" lon="9.82707797549665">
        <ele>927.33000000000004</ele>
        <time>2018-09-18T08:41:44Z</time>
      </trkpt>
      <trkpt lat="47.223966009914875" lon="9.827140001580119">
        <ele>927.80999999999995</ele>
        <time>2018-09-18T08:41:45Z</time>
      </trkpt>
      <trkpt lat="47.223860984668136" lon="9.82718501240015">
        <ele>928.76999999999998</ele>
        <time>2018-09-18T08:41:46Z</time>
      </trkpt>
      <trkpt lat="47.223754031583667" lon="9.82718501240015">
        <ele>929.25</ele>
        <time>2018-09-18T08:41:47Z</time>
      </trkpt>
      <trkpt lat="47.223660992458463" lon="9.827147964388132">
        <ele>929.25</ele>
        <time>2018-09-18T08:41:48Z</time>
      </trkpt>
      <trkpt lat="47.223573988303542" lon="9.827070012688637">
        <ele>929.73000000000002</ele>
        <time>2018-09-18T08:41:49Z</time>
      </trkpt>
      <trkpt lat="47.223486984148622" lon="9.82699197717011">
        <ele>929.73000000000002</ele>
        <time>2018-09-18T08:41:50Z</time>
      </trkpt>
      <trkpt lat="47.223455971106887" lon="9.826872032135725">
        <ele>929.73000000000002</ele>
        <time>2018-09-18T08:41:51Z</time>
      </trkpt>
      <trkpt lat="47.223428981378675" lon="9.826771030202508">
        <ele>929.73000000000002</ele>
        <time>2018-09-18T08:41:52Z</time>
      </trkpt>
      <trkpt lat="47.223408026620746" lon="9.826689977198839">
        <ele>929.73000000000002</ele>
        <time>2018-09-18T08:41:53Z</time>
      </trkpt>
      <trkpt lat="47.223391011357307" lon="9.82662501744926">
        <ele>929.73000000000002</ele>
        <time>2018-09-18T08:41:54Z</time>
      </trkpt>
      <trkpt lat="47.223380031064153" lon="9.826584029942751">
        <ele>929.73000000000002</ele>
        <time>2018-09-18T08:41:55Z</time>
      </trkpt>
      <trkpt lat="47.223380031064153" lon="9.826584029942751">
        <ele>930.21000000000004</ele>
        <time>2018-09-18T08:41:56Z</time>
      </trkpt>
      <trkpt lat="47.223380031064153" lon="9.826584029942751">
        <ele>930.21000000000004</ele>
        <time>2018-09-18T08:41:57Z</time>
      </trkpt>
      <trkpt lat="47.223380031064153" lon="9.826584029942751">
        <ele>929.73000000000002</ele>
        <time>2018-09-18T08:41:58Z</time>
      </trkpt>
      <trkpt lat="47.223382964730263" lon="9.82651999220252">
        <ele>930.21000000000004</ele>
        <time>2018-09-18T08:41:59Z</time>
      </trkpt>
      <trkpt lat="47.223382964730263" lon="9.82651999220252">
        <ele>930.21000000000004</ele>
        <time>2018-09-18T08:42:00Z</time>
      </trkpt>
      <trkpt lat="47.223385982215405" lon="9.826430976390839">
        <ele>930.69000000000005</ele>
        <time>2018-09-18T08:42:10Z</time>
      </trkpt>
      <trkpt lat="47.223385982215405" lon="9.826430976390839">
        <ele>930.69000000000005</ele>
        <time>2018-09-18T08:42:43Z</time>
      </trkpt>
      <trkpt lat="47.223385982215405" lon="9.826430976390839">
        <ele>929.25</ele>
        <time>2018-09-18T08:43:45Z</time>
      </trkpt>
      <trkpt lat="47.223388999700546" lon="9.826349001377821">
        <ele>928.76999999999998</ele>
        <time>2018-09-18T08:44:08Z</time>
      </trkpt>
      <trkpt lat="47.223392017185688" lon="9.826269038021565">
        <ele>928.76999999999998</ele>
        <time>2018-09-18T08:44:09Z</time>
      </trkpt>
      <trkpt lat="47.223396962508559" lon="9.826156971976161">
        <ele>928.76999999999998</ele>
        <time>2018-09-18T08:44:10Z</time>
      </trkpt>
      <trkpt lat="47.223405009135604" lon="9.826008025556803">
        <ele>928.28999999999996</ele>
        <time>2018-09-18T08:44:11Z</time>
      </trkpt>
      <trkpt lat="47.223427975550294" lon="9.825877016410232">
        <ele>928.28999999999996</ele>
        <time>2018-09-18T08:44:12Z</time>
      </trkpt>
      <trkpt lat="47.223580023273826" lon="9.825066989287734">
        <ele>929.73000000000002</ele>
        <time>2018-09-18T08:44:18Z</time>
      </trkpt>
      <trkpt lat="47.223587986081839" lon="9.824919970706105">
        <ele>929.73000000000002</ele>
        <time>2018-09-18T08:44:19Z</time>
      </trkpt>
      <trkpt lat="47.223595026880503" lon="9.824782004579902">
        <ele>929.73000000000002</ele>
        <time>2018-09-18T08:44:20Z</time>
      </trkpt>
      <trkpt lat="47.22356803715229" lon="9.824661975726485">
        <ele>929.73000000000002</ele>
        <time>2018-09-18T08:44:21Z</time>
      </trkpt>
      <trkpt lat="47.223530989140272" lon="9.824564997106791">
        <ele>930.21000000000004</ele>
        <time>2018-09-18T08:44:22Z</time>
      </trkpt>
      <trkpt lat="47.223458988592029" lon="9.824482016265392">
        <ele>930.21000000000004</ele>
        <time>2018-09-18T08:44:23Z</time>
      </trkpt>
      <trkpt lat="47.223383970558643" lon="9.824408004060388">
        <ele>930.69000000000005</ele>
        <time>2018-09-18T08:44:24Z</time>
      </trkpt>
      <trkpt lat="47.223286991938949" lon="9.824356036260724">
        <ele>930.69000000000005</ele>
        <time>2018-09-18T08:44:25Z</time>
      </trkpt>
      <trkpt lat="47.223186995834112" lon="9.824302978813648">
        <ele>930.69000000000005</ele>
        <time>2018-09-18T08:44:26Z</time>
      </trkpt>
      <trkpt lat="47.223083982244134" lon="9.824247993528843">
        <ele>930.69000000000005</ele>
        <time>2018-09-18T08:44:27Z</time>
      </trkpt>
      <trkpt lat="47.222990021109581" lon="9.824147997424007">
        <ele>930.69000000000005</ele>
        <time>2018-09-18T08:44:28Z</time>
      </trkpt>
      <trkpt lat="47.222930006682873" lon="9.824052024632692">
        <ele>930.21000000000004</ele>
        <time>2018-09-18T08:44:29Z</time>
      </trkpt>
      <trkpt lat="47.222883990034461" lon="9.823886984959245">
        <ele>930.21000000000004</ele>
        <time>2018-09-18T08:44:30Z</time>
      </trkpt>
      <trkpt lat="47.222841996699572" lon="9.823736026883125">
        <ele>929.73000000000002</ele>
        <time>2018-09-18T08:44:31Z</time>
      </trkpt>
      <trkpt lat="47.222800003364682" lon="9.823582973331213">
        <ele>929.25</ele>
        <time>2018-09-18T08:44:32Z</time>
      </trkpt>
      <trkpt lat="47.222321983426809" lon="9.822082025930286">
        <ele>924.45000000000005</ele>
        <time>2018-09-18T08:44:42Z</time>
      </trkpt>
      <trkpt lat="47.222097013145685" lon="9.821656979620457">
        <ele>923</ele>
        <time>2018-09-18T08:44:45Z</time>
      </trkpt>
      <trkpt lat="47.222014032304287" lon="9.821520019322634">
        <ele>922.51999999999998</ele>
        <time>2018-09-18T08:44:46Z</time>
      </trkpt>
      <trkpt lat="47.221430987119675" lon="9.820519974455237">
        <ele>918.20000000000005</ele>
        <time>2018-09-18T08:44:53Z</time>
      </trkpt>
      <trkpt lat="47.221125969663262" lon="9.819442983716726">
        <ele>914.83000000000004</ele>
        <time>2018-09-18T08:44:59Z</time>
      </trkpt>
      <trkpt lat="47.221101997420192" lon="9.819265035912395">
        <ele>913.87</ele>
        <time>2018-09-18T08:45:00Z</time>
      </trkpt>
      <trkpt lat="47.221084982156754" lon="9.818896986544132">
        <ele>912.90999999999997</ele>
        <time>2018-09-18T08:45:02Z</time>
      </trkpt>
      <trkpt lat="47.221052041277289" lon="9.818148985505104">
        <ele>910.99000000000001</ele>
        <time>2018-09-18T08:45:06Z</time>
      </trkpt>
      <trkpt lat="47.221042988821864" lon="9.817956034094095">
        <ele>910.50999999999999</ele>
        <time>2018-09-18T08:45:07Z</time>
      </trkpt>
      <trkpt lat="47.220851965248585" lon="9.817008962854743">
        <ele>906.65999999999997</ele>
        <time>2018-09-18T08:45:12Z</time>
      </trkpt>
      <trkpt lat="47.220803014934063" lon="9.816813999786973">
        <ele>905.70000000000005</ele>
        <time>2018-09-18T08:45:13Z</time>
      </trkpt>
      <trkpt lat="47.220563963055611" lon="9.816087037324905">
        <ele>901.85000000000002</ele>
        <time>2018-09-18T08:45:17Z</time>
      </trkpt>
      <trkpt lat="47.220544014126062" lon="9.815903976559639">
        <ele>900.88999999999999</ele>
        <time>2018-09-18T08:45:18Z</time>
      </trkpt>
      <trkpt lat="47.220525993034244" lon="9.815747989341617">
        <ele>899.92999999999995</ele>
        <time>2018-09-18T08:45:19Z</time>
      </trkpt>
      <trkpt lat="47.220565974712372" lon="9.815559983253479">
        <ele>899.45000000000005</ele>
        <time>2018-09-18T08:45:20Z</time>
      </trkpt>
      <trkpt lat="47.220602016896009" lon="9.815387986600399">
        <ele>898.97000000000003</ele>
        <time>2018-09-18T08:45:21Z</time>
      </trkpt>
      <trkpt lat="47.220637975260615" lon="9.8152169957757">
        <ele>898.49000000000001</ele>
        <time>2018-09-18T08:45:22Z</time>
      </trkpt>
      <trkpt lat="47.220673011615872" lon="9.815050028264523">
        <ele>897.52999999999997</ele>
        <time>2018-09-18T08:45:23Z</time>
      </trkpt>
      <trkpt lat="47.220978029072285" lon="9.81414302252233">
        <ele>893.67999999999995</ele>
        <time>2018-09-18T08:45:29Z</time>
      </trkpt>
      <trkpt lat="47.221057992428541" lon="9.813994998112321">
        <ele>893.20000000000005</ele>
        <time>2018-09-18T08:45:30Z</time>
      </trkpt>
      <trkpt lat="47.221166035160422" lon="9.813900031149387">
        <ele>892.72000000000003</ele>
        <time>2018-09-18T08:45:31Z</time>
      </trkpt>
      <trkpt lat="47.221282040700316" lon="9.81379802338779">
        <ele>892.24000000000001</ele>
        <time>2018-09-18T08:45:32Z</time>
      </trkpt>
      <trkpt lat="47.221403997391462" lon="9.813689980655909">
        <ele>891.75999999999999</ele>
        <time>2018-09-18T08:45:33Z</time>
      </trkpt>
      <trkpt lat="47.221753019839525" lon="9.813318997621536">
        <ele>889.36000000000001</ele>
        <time>2018-09-18T08:45:36Z</time>
      </trkpt>
      <trkpt lat="47.22184999845922" lon="9.813188994303346">
        <ele>888.88</ele>
        <time>2018-09-18T08:45:37Z</time>
      </trkpt>
      <trkpt lat="47.221928033977747" lon="9.813051028177142">
        <ele>887.90999999999997</ele>
        <time>2018-09-18T08:45:38Z</time>
      </trkpt>
      <trkpt lat="47.222028030082583" lon="9.812872996553779">
        <ele>887.42999999999995</ele>
        <time>2018-09-18T08:45:39Z</time>
      </trkpt>
      <trkpt lat="47.222028030082583" lon="9.812736958265305">
        <ele>886.95000000000005</ele>
        <time>2018-09-18T08:45:40Z</time>
      </trkpt>
      <trkpt lat="47.221990982070565" lon="9.812568984925747">
        <ele>886.47000000000003</ele>
        <time>2018-09-18T08:45:41Z</time>
      </trkpt>
      <trkpt lat="47.221873970702291" lon="9.812466977164149">
        <ele>885.99000000000001</ele>
        <time>2018-09-18T08:45:42Z</time>
      </trkpt>
      <trkpt lat="47.221760982647538" lon="9.812419032678008">
        <ele>885.99000000000001</ele>
        <time>2018-09-18T08:45:43Z</time>
      </trkpt>
      <trkpt lat="47.221647994592786" lon="9.812411991879344">
        <ele>885.99000000000001</ele>
        <time>2018-09-18T08:45:44Z</time>
      </trkpt>
      <trkpt lat="47.221530983224511" lon="9.812405034899712">
        <ele>885.50999999999999</ele>
        <time>2018-09-18T08:45:45Z</time>
      </trkpt>
      <trkpt lat="47.221397962421179" lon="9.812354994937778">
        <ele>885.50999999999999</ele>
        <time>2018-09-18T08:45:46Z</time>
      </trkpt>
      <trkpt lat="47.221284974366426" lon="9.812254998832941">
        <ele>885.02999999999997</ele>
        <time>2018-09-18T08:45:47Z</time>
      </trkpt>
      <trkpt lat="47.221171986311674" lon="9.812151985242963">
        <ele>885.02999999999997</ele>
        <time>2018-09-18T08:45:48Z</time>
      </trkpt>
      <trkpt lat="47.221065033227205" lon="9.812054000794888">
        <ele>885.99000000000001</ele>
        <time>2018-09-18T08:45:49Z</time>
      </trkpt>
      <trkpt lat="47.220962019637227" lon="9.811992980539799">
        <ele>886.95000000000005</ele>
        <time>2018-09-18T08:45:50Z</time>
      </trkpt>
      <trkpt lat="47.220838973298669" lon="9.811992980539799">
        <ele>887.90999999999997</ele>
        <time>2018-09-18T08:45:51Z</time>
      </trkpt>
      <trkpt lat="47.220716010779142" lon="9.812029022723436">
        <ele>888.88</ele>
        <time>2018-09-18T08:45:52Z</time>
      </trkpt>
      <trkpt lat="47.220608973875642" lon="9.812087025493383">
        <ele>889.84000000000003</ele>
        <time>2018-09-18T08:45:53Z</time>
      </trkpt>
      <trkpt lat="47.220513001084328" lon="9.812137987464666">
        <ele>890.79999999999995</ele>
        <time>2018-09-18T08:45:54Z</time>
      </trkpt>
      <trkpt lat="47.220405964180827" lon="9.812120972201228">
        <ele>890.79999999999995</ele>
        <time>2018-09-18T08:45:55Z</time>
      </trkpt>
      <trkpt lat="47.220298005267978" lon="9.812078978866339">
        <ele>890.32000000000005</ele>
        <time>2018-09-18T08:45:56Z</time>
      </trkpt>
      <trkpt lat="47.220228016376495" lon="9.811974037438631">
        <ele>889.84000000000003</ele>
        <time>2018-09-18T08:45:57Z</time>
      </trkpt>
      <trkpt lat="47.220157021656632" lon="9.811868006363511">
        <ele>889.36000000000001</ele>
        <time>2018-09-18T08:45:58Z</time>
      </trkpt>
      <trkpt lat="47.22013296559453" lon="9.811701960861683">
        <ele>889.36000000000001</ele>
        <time>2018-09-18T08:45:59Z</time>
      </trkpt>
      <trkpt lat="47.220126008614898" lon="9.811562988907099">
        <ele>889.36000000000001</ele>
        <time>2018-09-18T08:46:00Z</time>
      </trkpt>
      <trkpt lat="47.220118967816234" lon="9.81141303665936">
        <ele>888.88</ele>
        <time>2018-09-18T08:46:01Z</time>
      </trkpt>
      <trkpt lat="47.220142018049955" lon="9.81128697283566">
        <ele>888.88</ele>
        <time>2018-09-18T08:46:02Z</time>
      </trkpt>
      <trkpt lat="47.220169007778168" lon="9.811145989224315">
        <ele>888.88</ele>
        <time>2018-09-18T08:46:03Z</time>
      </trkpt>
      <trkpt lat="47.220197003334761" lon="9.810996036976576">
        <ele>889.36000000000001</ele>
        <time>2018-09-18T08:46:04Z</time>
      </trkpt>
      <trkpt lat="47.220228016376495" lon="9.810829991474748">
        <ele>889.36000000000001</ele>
        <time>2018-09-18T08:46:05Z</time>
      </trkpt>
      <trkpt lat="47.220234973356128" lon="9.810661012306809">
        <ele>889.36000000000001</ele>
        <time>2018-09-18T08:46:06Z</time>
      </trkpt>
      <trkpt lat="47.220199014991522" lon="9.810475017875433">
        <ele>889.36000000000001</ele>
        <time>2018-09-18T08:46:07Z</time>
      </trkpt>
      <trkpt lat="47.220160039141774" lon="9.81027502566576">
        <ele>889.36000000000001</ele>
        <time>2018-09-18T08:46:08Z</time>
      </trkpt>
      <trkpt lat="47.220105975866318" lon="9.810070004314184">
        <ele>889.36000000000001</ele>
        <time>2018-09-18T08:46:09Z</time>
      </trkpt>
      <trkpt lat="47.220035986974835" lon="9.80986699461937">
        <ele>889.36000000000001</ele>
        <time>2018-09-18T08:46:10Z</time>
      </trkpt>
      <trkpt lat="47.21955101005733" lon="9.808370992541313">
        <ele>891.75999999999999</ele>
        <time>2018-09-18T08:46:17Z</time>
      </trkpt>
      <trkpt lat="47.219524020329118" lon="9.808151973411441">
        <ele>892.24000000000001</ele>
        <time>2018-09-18T08:46:18Z</time>
      </trkpt>
      <trkpt lat="47.219427963718772" lon="9.807452000677586">
        <ele>891.75999999999999</ele>
        <time>2018-09-18T08:46:21Z</time>
      </trkpt>
      <trkpt lat="47.218917002901435" lon="9.805421987548471">
        <ele>890.32000000000005</ele>
        <time>2018-09-18T08:46:29Z</time>
      </trkpt>
      <trkpt lat="47.218360025435686" lon="9.803306981921196">
        <ele>885.02999999999997</ele>
        <time>2018-09-18T08:46:38Z</time>
      </trkpt>
      <trkpt lat="47.218212001025677" lon="9.802650008350611">
        <ele>884.54999999999995</ele>
        <time>2018-09-18T08:46:41Z</time>
      </trkpt>
      <trkpt lat="47.218118039891124" lon="9.802466025575995">
        <ele>884.07000000000005</ele>
        <time>2018-09-18T08:46:42Z</time>
      </trkpt>
      <trkpt lat="47.218027012422681" lon="9.802296040579677">
        <ele>884.07000000000005</ele>
        <time>2018-09-18T08:46:43Z</time>
      </trkpt>
      <trkpt lat="47.217867001891136" lon="9.801994040608406">
        <ele>883.59000000000003</ele>
        <time>2018-09-18T08:46:45Z</time>
      </trkpt>
      <trkpt lat="47.217844035476446" lon="9.801872000098229">
        <ele>883.11000000000001</ele>
        <time>2018-09-18T08:46:46Z</time>
      </trkpt>
      <trkpt lat="47.217844035476446" lon="9.801757000386715">
        <ele>882.63</ele>
        <time>2018-09-18T08:46:47Z</time>
      </trkpt>
      <trkpt lat="47.21787597052753" lon="9.801650969311595">
        <ele>882.14999999999998</ele>
        <time>2018-09-18T08:46:48Z</time>
      </trkpt>
      <trkpt lat="47.217931961640716" lon="9.801544016227126">
        <ele>881.66999999999996</ele>
        <time>2018-09-18T08:46:49Z</time>
      </trkpt>
      <trkpt lat="47.218017037957907" lon="9.801470004022121">
        <ele>881.19000000000005</ele>
        <time>2018-09-18T08:46:50Z</time>
      </trkpt>
      <trkpt lat="47.218105969950557" lon="9.801392974331975">
        <ele>880.22000000000003</ele>
        <time>2018-09-18T08:46:51Z</time>
      </trkpt>
      <trkpt lat="47.218199009075761" lon="9.801312005147338">
        <ele>879.74000000000001</ele>
        <time>2018-09-18T08:46:52Z</time>
      </trkpt>
      <trkpt lat="47.21826296299696" lon="9.80114403180778">
        <ele>879.25999999999999</ele>
        <time>2018-09-18T08:46:53Z</time>
      </trkpt>
      <trkpt lat="47.218290958553553" lon="9.800964994356036">
        <ele>878.77999999999997</ele>
        <time>2018-09-18T08:46:54Z</time>
      </trkpt>
      <trkpt lat="47.218276960775256" lon="9.800788974389434">
        <ele>877.82000000000005</ele>
        <time>2018-09-18T08:46:55Z</time>
      </trkpt>
      <trkpt lat="47.218233961611986" lon="9.800610020756722">
        <ele>876.86000000000001</ele>
        <time>2018-09-18T08:46:56Z</time>
      </trkpt>
      <trkpt lat="47.218181993812323" lon="9.800425032153726">
        <ele>876.38</ele>
        <time>2018-09-18T08:46:57Z</time>
      </trkpt>
      <trkpt lat="47.218122985213995" lon="9.800211964175105">
        <ele>875.41999999999996</ele>
        <time>2018-09-18T08:46:58Z</time>
      </trkpt>
      <trkpt lat="47.218035981059074" lon="9.800093024969101">
        <ele>874.46000000000004</ele>
        <time>2018-09-18T08:46:59Z</time>
      </trkpt>
      <trkpt lat="47.217934979125857" lon="9.799966039136052">
        <ele>873.98000000000002</ele>
        <time>2018-09-18T08:47:00Z</time>
      </trkpt>
      <trkpt lat="47.217813022434711" lon="9.799888003617525">
        <ele>873.5</ele>
        <time>2018-09-18T08:47:01Z</time>
      </trkpt>
      <trkpt lat="47.217688970267773" lon="9.799819020554423">
        <ele>873.5</ele>
        <time>2018-09-18T08:47:02Z</time>
      </trkpt>
      <trkpt lat="47.217565001919866" lon="9.799782978370786">
        <ele>873.5</ele>
        <time>2018-09-18T08:47:03Z</time>
      </trkpt>
      <trkpt lat="47.217443967238069" lon="9.799739979207516">
        <ele>873.00999999999999</ele>
        <time>2018-09-18T08:47:04Z</time>
      </trkpt>
      <trkpt lat="47.217332990840077" lon="9.799701003357768">
        <ele>872.52999999999997</ele>
        <time>2018-09-18T08:47:05Z</time>
      </trkpt>
      <trkpt lat="47.217232994735241" lon="9.799621040001512">
        <ele>872.52999999999997</ele>
        <time>2018-09-18T08:47:06Z</time>
      </trkpt>
      <trkpt lat="47.217163005843759" lon="9.799497993662953">
        <ele>871.57000000000005</ele>
        <time>2018-09-18T08:47:07Z</time>
      </trkpt>
      <trkpt lat="47.217091005295515" lon="9.799350975081325">
        <ele>871.57000000000005</ele>
        <time>2018-09-18T08:47:08Z</time>
      </trkpt>
      <trkpt lat="47.217076001688838" lon="9.799192976206541">
        <ele>871.09000000000003</ele>
        <time>2018-09-18T08:47:09Z</time>
      </trkpt>
      <trkpt lat="47.217060998082161" lon="9.799020979553461">
        <ele>871.09000000000003</ele>
        <time>2018-09-18T08:47:10Z</time>
      </trkpt>
      <trkpt lat="47.217044988647103" lon="9.798842025920749">
        <ele>872.04999999999995</ele>
        <time>2018-09-18T08:47:11Z</time>
      </trkpt>
      <trkpt lat="47.217010036110878" lon="9.798465007916093">
        <ele>873.00999999999999</ele>
        <time>2018-09-18T08:47:13Z</time>
      </trkpt>
      <trkpt lat="47.216992015019059" lon="9.798264009878039">
        <ele>873.5</ele>
        <time>2018-09-18T08:47:14Z</time>
      </trkpt>
      <trkpt lat="47.216464960947633" lon="9.795935014262795">
        <ele>867.73000000000002</ele>
        <time>2018-09-18T08:47:25Z</time>
      </trkpt>
      <trkpt lat="47.215922987088561" lon="9.794332981109619">
        <ele>864.84000000000003</ele>
        <time>2018-09-18T08:47:35Z</time>
      </trkpt>
      <trkpt lat="47.215733975172043" lon="9.793639965355396">
        <ele>864.36000000000001</ele>
        <time>2018-09-18T08:47:40Z</time>
      </trkpt>
      <trkpt lat="47.215558039024472" lon="9.793030014261603">
        <ele>864.36000000000001</ele>
        <time>2018-09-18T08:47:45Z</time>
      </trkpt>
      <trkpt lat="47.215500958263874" lon="9.792925994843245">
        <ele>863.88</ele>
        <time>2018-09-18T08:47:46Z</time>
      </trkpt>
      <trkpt lat="47.215443961322308" lon="9.792824992910028">
        <ele>863.39999999999998</ele>
        <time>2018-09-18T08:47:47Z</time>
      </trkpt>
      <trkpt lat="47.215387970209122" lon="9.79272298514843">
        <ele>863.39999999999998</ele>
        <time>2018-09-18T08:47:48Z</time>
      </trkpt>
      <trkpt lat="47.215316975489259" lon="9.792643021792173">
        <ele>862.91999999999996</ele>
        <time>2018-09-18T08:47:49Z</time>
      </trkpt>
      <trkpt lat="47.215241035446525" lon="9.792566997930408">
        <ele>862.91999999999996</ele>
        <time>2018-09-18T08:47:50Z</time>
      </trkpt>
      <trkpt lat="47.215164005756378" lon="9.792489968240261">
        <ele>862.44000000000005</ele>
        <time>2018-09-18T08:47:51Z</time>
      </trkpt>
      <trkpt lat="47.214880026876926" lon="9.792204983532429">
        <ele>861.48000000000002</ele>
        <time>2018-09-18T08:47:55Z</time>
      </trkpt>
      <trkpt lat="47.214819006621838" lon="9.79214396327734">
        <ele>861</ele>
        <time>2018-09-18T08:47:56Z</time>
      </trkpt>
      <trkpt lat="47.214770978316665" lon="9.792028963565826">
        <ele>860.51999999999998</ele>
        <time>2018-09-18T08:47:57Z</time>
      </trkpt>
      <trkpt lat="47.214723033830523" lon="9.791914969682694">
        <ele>859.08000000000004</ele>
        <time>2018-09-18T08:47:58Z</time>
      </trkpt>
      <trkpt lat="47.214691014960408" lon="9.791783038526774">
        <ele>858.11000000000001</ele>
        <time>2018-09-18T08:47:59Z</time>
      </trkpt>
      <trkpt lat="47.214657990261912" lon="9.791620010510087">
        <ele>857.14999999999998</ele>
        <time>2018-09-18T08:48:00Z</time>
      </trkpt>
      <trkpt lat="47.214618008583784" lon="9.791422029957175">
        <ele>855.71000000000004</ele>
        <time>2018-09-18T08:48:01Z</time>
      </trkpt>
      <trkpt lat="47.214574003592134" lon="9.791200999170542">
        <ele>854.26999999999998</ele>
        <time>2018-09-18T08:48:02Z</time>
      </trkpt>
      <trkpt lat="47.21437300555408" lon="9.790047984570265">
        <ele>846.58000000000004</ele>
        <time>2018-09-18T08:48:07Z</time>
      </trkpt>
      <trkpt lat="47.214275021106005" lon="9.789358992129564">
        <ele>842.25</ele>
        <time>2018-09-18T08:48:10Z</time>
      </trkpt>
      <trkpt lat="47.214203020557761" lon="9.789151959121227">
        <ele>840.80999999999995</ele>
        <time>2018-09-18T08:48:11Z</time>
      </trkpt>
      <trkpt lat="47.213988024741411" lon="9.78853496722877">
        <ele>836.48000000000002</ele>
        <time>2018-09-18T08:48:14Z</time>
      </trkpt>
      <trkpt lat="47.213962962850928" lon="9.78831997141242">
        <ele>834.55999999999995</ele>
        <time>2018-09-18T08:48:15Z</time>
      </trkpt>
      <trkpt lat="47.213942008092999" lon="9.78810396976769">
        <ele>832.63999999999999</ele>
        <time>2018-09-18T08:48:16Z</time>
      </trkpt>
      <trkpt lat="47.213860033079982" lon="9.787489995360375">
        <ele>826.87</ele>
        <time>2018-09-18T08:48:19Z</time>
      </trkpt>
      <trkpt lat="47.213802030310035" lon="9.787290003150702">
        <ele>824.47000000000003</ele>
        <time>2018-09-18T08:48:20Z</time>
      </trkpt>
      <trkpt lat="47.213729023933411" lon="9.787096967920661">
        <ele>822.54999999999995</ele>
        <time>2018-09-18T08:48:21Z</time>
      </trkpt>
      <trkpt lat="47.213630033656955" lon="9.786922037601471">
        <ele>820.62</ele>
        <time>2018-09-18T08:48:22Z</time>
      </trkpt>
      <trkpt lat="47.213497012853622" lon="9.786789016798139">
        <ele>818.70000000000005</ele>
        <time>2018-09-18T08:48:23Z</time>
      </trkpt>
      <trkpt lat="47.213353011757135" lon="9.786698995158076">
        <ele>817.25999999999999</ele>
        <time>2018-09-18T08:48:24Z</time>
      </trkpt>
      <trkpt lat="47.213199036195874" lon="9.786617020145059">
        <ele>815.82000000000005</ele>
        <time>2018-09-18T08:48:25Z</time>
      </trkpt>
      <trkpt lat="47.213041037321091" lon="9.786554994061589">
        <ele>814.37</ele>
        <time>2018-09-18T08:48:26Z</time>
      </trkpt>
      <trkpt lat="47.212879015132785" lon="9.786526998504996">
        <ele>812.92999999999995</ele>
        <time>2018-09-18T08:48:27Z</time>
      </trkpt>
      <trkpt lat="47.21256704069674" lon="9.786473019048572">
        <ele>810.04999999999995</ele>
        <time>2018-09-18T08:48:29Z</time>
      </trkpt>
      <trkpt lat="47.212422033771873" lon="9.786476958543062">
        <ele>808.61000000000001</ele>
        <time>2018-09-18T08:48:30Z</time>
      </trkpt>
      <trkpt lat="47.212282977998257" lon="9.786523981019855">
        <ele>807.15999999999997</ele>
        <time>2018-09-18T08:48:31Z</time>
      </trkpt>
      <trkpt lat="47.212153980508447" lon="9.786594975739718">
        <ele>805.72000000000003</ele>
        <time>2018-09-18T08:48:32Z</time>
      </trkpt>
      <trkpt lat="47.212034035474062" lon="9.78668499737978">
        <ele>804.75999999999999</ele>
        <time>2018-09-18T08:48:33Z</time>
      </trkpt>
      <trkpt lat="47.211921969428658" lon="9.786768984049559">
        <ele>803.32000000000005</ele>
        <time>2018-09-18T08:48:34Z</time>
      </trkpt>
      <trkpt lat="47.211805963888764" lon="9.786808965727687">
        <ele>801.88</ele>
        <time>2018-09-18T08:48:35Z</time>
      </trkpt>
      <trkpt lat="47.211691970005631" lon="9.786822041496635">
        <ele>800.44000000000005</ele>
        <time>2018-09-18T08:48:36Z</time>
      </trkpt>
      <trkpt lat="47.211587028577924" lon="9.786756997928023">
        <ele>798.99000000000001</ele>
        <time>2018-09-18T08:48:37Z</time>
      </trkpt>
      <trkpt lat="47.211485020816326" lon="9.786677034571767">
        <ele>797.54999999999995</ele>
        <time>2018-09-18T08:48:38Z</time>
      </trkpt>
      <trkpt lat="47.211416037753224" lon="9.786525992676616">
        <ele>796.11000000000001</ele>
        <time>2018-09-18T08:48:39Z</time>
      </trkpt>
      <trkpt lat="47.211340013891459" lon="9.7863610368222">
        <ele>795.14999999999998</ele>
        <time>2018-09-18T08:48:40Z</time>
      </trkpt>
      <trkpt lat="47.211262984201312" lon="9.786192979663611">
        <ele>793.71000000000004</ele>
        <time>2018-09-18T08:48:41Z</time>
      </trkpt>
      <trkpt lat="47.211157036945224" lon="9.786049984395504">
        <ele>792.25999999999999</ele>
        <time>2018-09-18T08:48:42Z</time>
      </trkpt>
      <trkpt lat="47.211048994213343" lon="9.785909000784159">
        <ele>790.82000000000005</ele>
        <time>2018-09-18T08:48:43Z</time>
      </trkpt>
      <trkpt lat="47.210905998945236" lon="9.785818979144096">
        <ele>788.89999999999998</ele>
        <time>2018-09-18T08:48:44Z</time>
      </trkpt>
      <trkpt lat="47.210755962878466" lon="9.785754019394517">
        <ele>787.46000000000004</ele>
        <time>2018-09-18T08:48:45Z</time>
      </trkpt>
      <trkpt lat="47.210594024509192" lon="9.785713031888008">
        <ele>786.01999999999998</ele>
        <time>2018-09-18T08:48:46Z</time>
      </trkpt>
      <trkpt lat="47.210427979007363" lon="9.785681013017893">
        <ele>784.09000000000003</ele>
        <time>2018-09-18T08:48:47Z</time>
      </trkpt>
      <trkpt lat="47.210262017324567" lon="9.785667015239596">
        <ele>782.64999999999998</ele>
        <time>2018-09-18T08:48:48Z</time>
      </trkpt>
      <trkpt lat="47.209446039050817" lon="9.785490995272994">
        <ele>775.91999999999996</ele>
        <time>2018-09-18T08:48:53Z</time>
      </trkpt>
      <trkpt lat="47.208842961117625" lon="9.785106014460325">
        <ele>769.66999999999996</ele>
        <time>2018-09-18T08:48:57Z</time>
      </trkpt>
      <trkpt lat="47.208702983334661" lon="9.784991014748812">
        <ele>767.75</ele>
        <time>2018-09-18T08:48:58Z</time>
      </trkpt>
      <trkpt lat="47.208583960309625" lon="9.784826980903745">
        <ele>766.30999999999995</ele>
        <time>2018-09-18T08:48:59Z</time>
      </trkpt>
      <trkpt lat="47.208462003618479" lon="9.784660013392568">
        <ele>764.38999999999999</ele>
        <time>2018-09-18T08:49:00Z</time>
      </trkpt>
      <trkpt lat="47.208339963108301" lon="9.78449204005301">
        <ele>762.94000000000005</ele>
        <time>2018-09-18T08:49:01Z</time>
      </trkpt>
      <trkpt lat="47.207537982612848" lon="9.783145990222693">
        <ele>750.45000000000005</ele>
        <time>2018-09-18T08:49:09Z</time>
      </trkpt>
      <trkpt lat="47.206599963828921" lon="9.781694998964667">
        <ele>732.17999999999995</ele>
        <time>2018-09-18T08:49:18Z</time>
      </trkpt>
      <trkpt lat="47.206479012966156" lon="9.78161402978003">
        <ele>730.25999999999999</ele>
        <time>2018-09-18T08:49:19Z</time>
      </trkpt>
      <trkpt lat="47.206344986334443" lon="9.781525013968349">
        <ele>728.34000000000003</ele>
        <time>2018-09-18T08:49:20Z</time>
      </trkpt>
      <trkpt lat="47.206222023814917" lon="9.78144203312695">
        <ele>725.92999999999995</ele>
        <time>2018-09-18T08:49:21Z</time>
      </trkpt>
      <trkpt lat="47.20612202771008" lon="9.781375983729959">
        <ele>724.00999999999999</ele>
        <time>2018-09-18T08:49:22Z</time>
      </trkpt>
      <trkpt lat="47.206065030768514" lon="9.781256038695574">
        <ele>722.09000000000003</ele>
        <time>2018-09-18T08:49:23Z</time>
      </trkpt>
      <trkpt lat="47.206032006070018" lon="9.78109996765852">
        <ele>720.15999999999997</ele>
        <time>2018-09-18T08:49:24Z</time>
      </trkpt>
      <trkpt lat="47.20599596388638" lon="9.78092897683382">
        <ele>718.72000000000003</ele>
        <time>2018-09-18T08:49:25Z</time>
      </trkpt>
      <trkpt lat="47.205954976379871" lon="9.780738959088922">
        <ele>716.79999999999995</ele>
        <time>2018-09-18T08:49:26Z</time>
      </trkpt>
      <trkpt lat="47.205893034115434" lon="9.780542990192771">
        <ele>714.88</ele>
        <time>2018-09-18T08:49:27Z</time>
      </trkpt>
      <trkpt lat="47.205744003877044" lon="9.780192039906979">
        <ele>711.50999999999999</ele>
        <time>2018-09-18T08:49:29Z</time>
      </trkpt>
      <trkpt lat="47.205688012763858" lon="9.780022976920009">
        <ele>710.07000000000005</ele>
        <time>2018-09-18T08:49:30Z</time>
      </trkpt>
      <trkpt lat="47.205656999722123" lon="9.779838994145393">
        <ele>708.63</ele>
        <time>2018-09-18T08:49:31Z</time>
      </trkpt>
      <trkpt lat="47.205669991672039" lon="9.779656017199159">
        <ele>707.19000000000005</ele>
        <time>2018-09-18T08:49:32Z</time>
      </trkpt>
      <trkpt lat="47.205689018592238" lon="9.779472034424543">
        <ele>705.75</ele>
        <time>2018-09-18T08:49:33Z</time>
      </trkpt>
      <trkpt lat="47.20571399666369" lon="9.779297020286322">
        <ele>704.29999999999995</ele>
        <time>2018-09-18T08:49:34Z</time>
      </trkpt>
      <trkpt lat="47.20573696307838" lon="9.779134998098016">
        <ele>702.86000000000001</ele>
        <time>2018-09-18T08:49:35Z</time>
      </trkpt>
      <trkpt lat="47.20575699582696" lon="9.778989991173148">
        <ele>701.89999999999998</ele>
        <time>2018-09-18T08:49:36Z</time>
      </trkpt>
      <trkpt lat="47.205753978341818" lon="9.778869962319732">
        <ele>700.94000000000005</ele>
        <time>2018-09-18T08:49:37Z</time>
      </trkpt>
      <trkpt lat="47.205740986391902" lon="9.778754962608218">
        <ele>700.46000000000004</ele>
        <time>2018-09-18T08:49:38Z</time>
      </trkpt>
      <trkpt lat="47.205727994441986" lon="9.778648009523749">
        <ele>699.98000000000002</ele>
        <time>2018-09-18T08:49:39Z</time>
      </trkpt>
      <trkpt lat="47.205707961693406" lon="9.778557987883687">
        <ele>699.01999999999998</ele>
        <time>2018-09-18T08:49:40Z</time>
      </trkpt>
      <trkpt lat="47.205669991672039" lon="9.778482969850302">
        <ele>699.01999999999998</ele>
        <time>2018-09-18T08:49:41Z</time>
      </trkpt>
      <trkpt lat="47.205634033307433" lon="9.778409041464329">
        <ele>698.04999999999995</ele>
        <time>2018-09-18T08:49:42Z</time>
      </trkpt>
      <trkpt lat="47.205590028315783" lon="9.778349027037621">
        <ele>697.57000000000005</ele>
        <time>2018-09-18T08:49:43Z</time>
      </trkpt>
      <trkpt lat="47.205530013889074" lon="9.778298987075687">
        <ele>697.09000000000003</ele>
        <time>2018-09-18T08:49:44Z</time>
      </trkpt>
      <trkpt lat="47.20545600168407" lon="9.778235033154488">
        <ele>696.13</ele>
        <time>2018-09-18T08:49:45Z</time>
      </trkpt>
      <trkpt lat="47.205333961173892" lon="9.77813302539289">
        <ele>695.64999999999998</ele>
        <time>2018-09-18T08:49:46Z</time>
      </trkpt>
      <trkpt lat="47.205248968675733" lon="9.778096983209252">
        <ele>695.16999999999996</ele>
        <time>2018-09-18T08:49:47Z</time>
      </trkpt>
      <trkpt lat="47.204442964866757" lon="9.777704039588571">
        <ele>690.84000000000003</ele>
        <time>2018-09-18T08:49:53Z</time>
      </trkpt>
      <trkpt lat="47.20431799069047" lon="9.777590967714787">
        <ele>690.36000000000001</ele>
        <time>2018-09-18T08:49:54Z</time>
      </trkpt>
      <trkpt lat="47.20405999571085" lon="9.777388041839004">
        <ele>689.39999999999998</ele>
        <time>2018-09-18T08:49:56Z</time>
      </trkpt>
      <trkpt lat="47.203923035413027" lon="9.777319980785251">
        <ele>688.91999999999996</ele>
        <time>2018-09-18T08:49:57Z</time>
      </trkpt>
      <trkpt lat="47.203676020726562" lon="9.777196012437344">
        <ele>687.96000000000004</ele>
        <time>2018-09-18T08:49:59Z</time>
      </trkpt>
      <trkpt lat="47.20356403850019" lon="9.77710003964603">
        <ele>687.48000000000002</ele>
        <time>2018-09-18T08:50:00Z</time>
      </trkpt>
      <trkpt lat="47.203455995768309" lon="9.777000965550542">
        <ele>687</ele>
        <time>2018-09-18T08:50:01Z</time>
      </trkpt>
      <trkpt lat="47.2032440174371" lon="9.776806002482772">
        <ele>685.55999999999995</ele>
        <time>2018-09-18T08:50:03Z</time>
      </trkpt>
      <trkpt lat="47.203146032989025" lon="9.77671598084271">
        <ele>684.60000000000002</ele>
        <time>2018-09-18T08:50:04Z</time>
      </trkpt>
      <trkpt lat="47.203015023842454" lon="9.776688991114497">
        <ele>684.12</ele>
        <time>2018-09-18T08:50:05Z</time>
      </trkpt>
      <trkpt lat="47.202902035787702" lon="9.776665018871427">
        <ele>683.14999999999998</ele>
        <time>2018-09-18T08:50:06Z</time>
      </trkpt>
      <trkpt lat="47.202790975570679" lon="9.776641968637705">
        <ele>682.19000000000005</ele>
        <time>2018-09-18T08:50:07Z</time>
      </trkpt>
      <trkpt lat="47.202703971415758" lon="9.776582038030028">
        <ele>681.23000000000002</ele>
        <time>2018-09-18T08:50:08Z</time>
      </trkpt>
      <trkpt lat="47.202627025544643" lon="9.776471983641386">
        <ele>679.78999999999996</ele>
        <time>2018-09-18T08:50:09Z</time>
      </trkpt>
      <trkpt lat="47.202561981976032" lon="9.77634902112186">
        <ele>678.83000000000004</ele>
        <time>2018-09-18T08:50:10Z</time>
      </trkpt>
      <trkpt lat="47.202509008347988" lon="9.776205020025373">
        <ele>677.87</ele>
        <time>2018-09-18T08:50:11Z</time>
      </trkpt>
      <trkpt lat="47.202461985871196" lon="9.776081973686814">
        <ele>677.38999999999999</ele>
        <time>2018-09-18T08:50:12Z</time>
      </trkpt>
      <trkpt lat="47.202382022514939" lon="9.776056995615363">
        <ele>676.41999999999996</ele>
        <time>2018-09-18T08:50:13Z</time>
      </trkpt>
      <trkpt lat="47.202352015301585" lon="9.77605096064508">
        <ele>675.94000000000005</ele>
        <time>2018-09-18T08:50:14Z</time>
      </trkpt>
      <trkpt lat="47.20231999643147" lon="9.776140982285142">
        <ele>674.98000000000002</ele>
        <time>2018-09-18T08:50:15Z</time>
      </trkpt>
      <trkpt lat="47.202292000874877" lon="9.776222035288811">
        <ele>674.5</ele>
        <time>2018-09-18T08:50:16Z</time>
      </trkpt>
      <trkpt lat="47.202257970348001" lon="9.776319013908505">
        <ele>673.53999999999996</ele>
        <time>2018-09-18T08:50:17Z</time>
      </trkpt>
      <trkpt lat="47.202222011983395" lon="9.776422027498484">
        <ele>672.58000000000004</ele>
        <time>2018-09-18T08:50:18Z</time>
      </trkpt>
      <trkpt lat="47.202175995334983" lon="9.776488998904824">
        <ele>671.13999999999999</ele>
        <time>2018-09-18T08:50:19Z</time>
      </trkpt>
      <trkpt lat="47.202116986736655" lon="9.776508025825024">
        <ele>669.70000000000005</ele>
        <time>2018-09-18T08:50:20Z</time>
      </trkpt>
      <trkpt lat="47.202046997845173" lon="9.776471983641386">
        <ele>668.25</ele>
        <time>2018-09-18T08:50:21Z</time>
      </trkpt>
      <trkpt lat="47.202010033652186" lon="9.776357989758253">
        <ele>667.28999999999996</ele>
        <time>2018-09-18T08:50:22Z</time>
      </trkpt>
      <trkpt lat="47.202017996460199" lon="9.776233015581965">
        <ele>665.85000000000002</ele>
        <time>2018-09-18T08:50:23Z</time>
      </trkpt>
      <trkpt lat="47.202025959268212" lon="9.776082979515195">
        <ele>664.88999999999999</ele>
        <time>2018-09-18T08:50:24Z</time>
      </trkpt>
      <trkpt lat="47.202035011723638" lon="9.775925986468792">
        <ele>663.92999999999995</ele>
        <time>2018-09-18T08:50:25Z</time>
      </trkpt>
      <trkpt lat="47.202022019773722" lon="9.775358028709889">
        <ele>660.08000000000004</ele>
        <time>2018-09-18T08:50:29Z</time>
      </trkpt>
      <trkpt lat="47.202007016167045" lon="9.775216039270163">
        <ele>659.12</ele>
        <time>2018-09-18T08:50:30Z</time>
      </trkpt>
      <trkpt lat="47.201986983418465" lon="9.775020992383361">
        <ele>658.15999999999997</ele>
        <time>2018-09-18T08:50:31Z</time>
      </trkpt>
      <trkpt lat="47.201952030882239" lon="9.774919990450144">
        <ele>657.20000000000005</ele>
        <time>2018-09-18T08:50:32Z</time>
      </trkpt>
      <trkpt lat="47.201904002577066" lon="9.774778001010418">
        <ele>655.75999999999999</ele>
        <time>2018-09-18T08:50:33Z</time>
      </trkpt>
      <trkpt lat="47.201854968443513" lon="9.774633999913931">
        <ele>654.79999999999995</ele>
        <time>2018-09-18T08:50:34Z</time>
      </trkpt>
      <trkpt lat="47.201685989275575" lon="9.774140976369381">
        <ele>650.47000000000003</ele>
        <time>2018-09-18T08:50:38Z</time>
      </trkpt>
      <trkpt lat="47.201648019254208" lon="9.773949030786753">
        <ele>649.02999999999997</ele>
        <time>2018-09-18T08:50:39Z</time>
      </trkpt>
      <trkpt lat="47.201621029525995" lon="9.77381500415504">
        <ele>647.59000000000003</ele>
        <time>2018-09-18T08:50:40Z</time>
      </trkpt>
      <trkpt lat="47.201602002605796" lon="9.77366597391665">
        <ele>645.65999999999997</ele>
        <time>2018-09-18T08:50:41Z</time>
      </trkpt>
      <trkpt lat="47.201607031747699" lon="9.773504035547376">
        <ele>644.22000000000003</ele>
        <time>2018-09-18T08:50:42Z</time>
      </trkpt>
      <trkpt lat="47.201610971242189" lon="9.773332960903645">
        <ele>642.77999999999997</ele>
        <time>2018-09-18T08:50:43Z</time>
      </trkpt>
      <trkpt lat="47.201606025919318" lon="9.77265696041286">
        <ele>634.61000000000001</ele>
        <time>2018-09-18T08:50:49Z</time>
      </trkpt>
      <trkpt lat="47.201602002605796" lon="9.772575991228223">
        <ele>633.64999999999998</ele>
        <time>2018-09-18T08:50:50Z</time>
      </trkpt>
      <trkpt lat="47.201598985120654" lon="9.772503990679979">
        <ele>632.20000000000005</ele>
        <time>2018-09-18T08:50:51Z</time>
      </trkpt>
      <trkpt lat="47.201591022312641" lon="9.772350015118718">
        <ele>629.79999999999995</ele>
        <time>2018-09-18T08:50:53Z</time>
      </trkpt>
      <trkpt lat="47.201584987342358" lon="9.772239038720727">
        <ele>628.84000000000003</ele>
        <time>2018-09-18T08:50:54Z</time>
      </trkpt>
      <trkpt lat="47.201579036191106" lon="9.772124039009213">
        <ele>627.39999999999998</ele>
        <time>2018-09-18T08:50:55Z</time>
      </trkpt>
      <trkpt lat="47.201594039797783" lon="9.771956987679005">
        <ele>625.96000000000004</ele>
        <time>2018-09-18T08:50:56Z</time>
      </trkpt>
      <trkpt lat="47.201608959585428" lon="9.771798988804221">
        <ele>624.99000000000001</ele>
        <time>2018-09-18T08:50:57Z</time>
      </trkpt>
      <trkpt lat="47.201689006760716" lon="9.770802967250347">
        <ele>616.82000000000005</ele>
        <time>2018-09-18T08:51:03Z</time>
      </trkpt>
      <trkpt lat="47.201693030074239" lon="9.77063599973917">
        <ele>615.38</ele>
        <time>2018-09-18T08:51:04Z</time>
      </trkpt>
      <trkpt lat="47.20173804089427" lon="9.76872400380671">
        <ele>599.51999999999998</ele>
        <time>2018-09-18T08:51:16Z</time>
      </trkpt>
      <trkpt lat="47.201798977330327" lon="9.768491992726922">
        <ele>598.08000000000004</ele>
        <time>2018-09-18T08:51:18Z</time>
      </trkpt>
      <trkpt lat="47.201827978715301" lon="9.76838001050055">
        <ele>597.12</ele>
        <time>2018-09-18T08:51:19Z</time>
      </trkpt>
      <trkpt lat="47.201888998970389" lon="9.768288983032107">
        <ele>596.63999999999999</ele>
        <time>2018-09-18T08:51:20Z</time>
      </trkpt>
      <trkpt lat="47.201957982033491" lon="9.768211031332612">
        <ele>596.14999999999998</ele>
        <time>2018-09-18T08:51:21Z</time>
      </trkpt>
      <trkpt lat="47.202028976753354" lon="9.768129978328943">
        <ele>595.66999999999996</ele>
        <time>2018-09-18T08:51:22Z</time>
      </trkpt>
      <trkpt lat="47.202101983129978" lon="9.768048003315926">
        <ele>595.19000000000005</ele>
        <time>2018-09-18T08:51:23Z</time>
      </trkpt>
      <trkpt lat="47.202236009761691" lon="9.767896039411426">
        <ele>594.71000000000004</ele>
        <time>2018-09-18T08:51:25Z</time>
      </trkpt>
      <trkpt lat="47.20229803584516" lon="9.767825966700912">
        <ele>594.71000000000004</ele>
        <time>2018-09-18T08:51:26Z</time>
      </trkpt>
      <trkpt lat="47.202329970896244" lon="9.767742985859513">
        <ele>594.71000000000004</ele>
        <time>2018-09-18T08:51:27Z</time>
      </trkpt>
      <trkpt lat="47.202329970896244" lon="9.767638966441155">
        <ele>594.71000000000004</ele>
        <time>2018-09-18T08:51:28Z</time>
      </trkpt>
      <trkpt lat="47.202323013916612" lon="9.767525978386402">
        <ele>594.71000000000004</ele>
        <time>2018-09-18T08:51:29Z</time>
      </trkpt>
      <trkpt lat="47.202304992824793" lon="9.767392035573721">
        <ele>594.23000000000002</ele>
        <time>2018-09-18T08:51:30Z</time>
      </trkpt>
      <trkpt lat="47.202144982293248" lon="9.76612301543355">
        <ele>589.42999999999995</ele>
        <time>2018-09-18T08:51:39Z</time>
      </trkpt>
      <trkpt lat="47.202124027535319" lon="9.766002986580133">
        <ele>588.95000000000005</ele>
        <time>2018-09-18T08:51:40Z</time>
      </trkpt>
      <trkpt lat="47.202097037807107" lon="9.765902990475297">
        <ele>587.98000000000002</ele>
        <time>2018-09-18T08:51:41Z</time>
      </trkpt>
      <trkpt lat="47.202054960653186" lon="9.765742979943752">
        <ele>586.53999999999996</ele>
        <time>2018-09-18T08:51:43Z</time>
      </trkpt>
      <trkpt lat="47.202051021158695" lon="9.765729987993836">
        <ele>585.58000000000004</ele>
        <time>2018-09-18T08:51:44Z</time>
      </trkpt>
      <trkpt lat="47.202051021158695" lon="9.765729987993836">
        <ele>585.10000000000002</ele>
        <time>2018-09-18T08:51:45Z</time>
      </trkpt>
      <trkpt lat="47.202048003673553" lon="9.765538964420557">
        <ele>584.13999999999999</ele>
        <time>2018-09-18T08:51:46Z</time>
      </trkpt>
      <trkpt lat="47.202085973694921" lon="9.765532007440925">
        <ele>583.65999999999997</ele>
        <time>2018-09-18T08:51:47Z</time>
      </trkpt>
      <trkpt lat="47.202140036970377" lon="9.765522032976151">
        <ele>583.17999999999995</ele>
        <time>2018-09-18T08:51:48Z</time>
      </trkpt>
      <trkpt lat="47.202209020033479" lon="9.765509041026235">
        <ele>583.17999999999995</ele>
        <time>2018-09-18T08:51:49Z</time>
      </trkpt>
      <trkpt lat="47.202359978109598" lon="9.76545799523592">
        <ele>583.17999999999995</ele>
        <time>2018-09-18T08:51:51Z</time>
      </trkpt>
      <trkpt lat="47.202442036941648" lon="9.765417007729411">
        <ele>584.13999999999999</ele>
        <time>2018-09-18T08:51:52Z</time>
      </trkpt>
      <trkpt lat="47.202523006126285" lon="9.765353975817561">
        <ele>585.58000000000004</ele>
        <time>2018-09-18T08:51:53Z</time>
      </trkpt>
      <trkpt lat="47.202590983361006" lon="9.765247022733092">
        <ele>586.53999999999996</ele>
        <time>2018-09-18T08:51:54Z</time>
      </trkpt>
      <trkpt lat="47.202659966424108" lon="9.76513403467834">
        <ele>587.5</ele>
        <time>2018-09-18T08:51:55Z</time>
      </trkpt>
      <trkpt lat="47.202719980850816" lon="9.765005959197879">
        <ele>588.95000000000005</ele>
        <time>2018-09-18T08:51:56Z</time>
      </trkpt>
      <trkpt lat="47.203166987746954" lon="9.763993006199598">
        <ele>600</ele>
        <time>2018-09-18T08:52:04Z</time>
      </trkpt>
      <trkpt lat="47.203322974964976" lon="9.763447009027004">
        <ele>606.73000000000002</ele>
        <time>2018-09-18T08:52:09Z</time>
      </trkpt>
      <trkpt lat="47.203363962471485" lon="9.763348018750548">
        <ele>607.69000000000005</ele>
        <time>2018-09-18T08:52:10Z</time>
      </trkpt>
      <trkpt lat="47.203420037403703" lon="9.763251962140203">
        <ele>609.13</ele>
        <time>2018-09-18T08:52:11Z</time>
      </trkpt>
      <trkpt lat="47.203941978514194" lon="9.76225602440536">
        <ele>623.07000000000005</ele>
        <time>2018-09-18T08:52:20Z</time>
      </trkpt>
      <trkpt lat="47.203987995162606" lon="9.762135995551944">
        <ele>624.50999999999999</ele>
        <time>2018-09-18T08:52:21Z</time>
      </trkpt>
      <trkpt lat="47.204012973234057" lon="9.76199702359736">
        <ele>625.96000000000004</ele>
        <time>2018-09-18T08:52:22Z</time>
      </trkpt>
      <trkpt lat="47.20403803512454" lon="9.761857967823744">
        <ele>627.88</ele>
        <time>2018-09-18T08:52:23Z</time>
      </trkpt>
      <trkpt lat="47.204062007367611" lon="9.761722013354302">
        <ele>629.32000000000005</ele>
        <time>2018-09-18T08:52:24Z</time>
      </trkpt>
      <trkpt lat="47.204164015129209" lon="9.761248016729951">
        <ele>634.13</ele>
        <time>2018-09-18T08:52:28Z</time>
      </trkpt>
      <trkpt lat="47.204207014292479" lon="9.761137962341309">
        <ele>635.09000000000003</ele>
        <time>2018-09-18T08:52:29Z</time>
      </trkpt>
      <trkpt lat="47.204324025660753" lon="9.760771002620459">
        <ele>638.92999999999995</ele>
        <time>2018-09-18T08:52:32Z</time>
      </trkpt>
      <trkpt lat="47.204369036480784" lon="9.760622978210449">
        <ele>639.88999999999999</ele>
        <time>2018-09-18T08:52:33Z</time>
      </trkpt>
      <trkpt lat="47.20436098985374" lon="9.760521976277232">
        <ele>641.34000000000003</ele>
        <time>2018-09-18T08:52:34Z</time>
      </trkpt>
      <trkpt lat="47.204352021217346" lon="9.760400019586086">
        <ele>642.29999999999995</ele>
        <time>2018-09-18T08:52:35Z</time>
      </trkpt>
      <trkpt lat="47.204343974590302" lon="9.760296000167728">
        <ele>643.74000000000001</ele>
        <time>2018-09-18T08:52:36Z</time>
      </trkpt>
      <trkpt lat="47.20433802343905" lon="9.76021402515471">
        <ele>645.17999999999995</ele>
        <time>2018-09-18T08:52:37Z</time>
      </trkpt>
      <trkpt lat="47.204332994297147" lon="9.760141018778086">
        <ele>646.62</ele>
        <time>2018-09-18T08:52:38Z</time>
      </trkpt>
      <trkpt lat="47.204327965155244" lon="9.760072035714984">
        <ele>647.59000000000003</ele>
        <time>2018-09-18T08:52:39Z</time>
      </trkpt>
      <trkpt lat="47.204341040924191" lon="9.760033981874585">
        <ele>648.54999999999995</ele>
        <time>2018-09-18T08:52:40Z</time>
      </trkpt>
      <trkpt lat="47.204384040087461" lon="9.760004980489612">
        <ele>649.50999999999999</ele>
        <time>2018-09-18T08:52:41Z</time>
      </trkpt>
      <trkpt lat="47.204454028978944" lon="9.759958041831851">
        <ele>650.47000000000003</ele>
        <time>2018-09-18T08:52:42Z</time>
      </trkpt>
      <trkpt lat="47.20447096042335" lon="9.759974973276258">
        <ele>651.42999999999995</ele>
        <time>2018-09-18T08:52:43Z</time>
      </trkpt>
      <trkpt lat="47.204523012042046" lon="9.760027024894953">
        <ele>651.90999999999997</ele>
        <time>2018-09-18T08:52:44Z</time>
      </trkpt>
      <trkpt lat="47.20457699149847" lon="9.760095002129674">
        <ele>652.87</ele>
        <time>2018-09-18T08:52:45Z</time>
      </trkpt>
      <trkpt lat="47.204623008146882" lon="9.760182006284595">
        <ele>653.83000000000004</ele>
        <time>2018-09-18T08:52:46Z</time>
      </trkpt>
      <trkpt lat="47.204671958461404" lon="9.760275967419148">
        <ele>655.27999999999997</ele>
        <time>2018-09-18T08:52:47Z</time>
      </trkpt>
      <trkpt lat="47.204721998423338" lon="9.760373029857874">
        <ele>656.24000000000001</ele>
        <time>2018-09-18T08:52:48Z</time>
      </trkpt>
      <trkpt lat="47.204821994528174" lon="9.760571010410786">
        <ele>658.15999999999997</ele>
        <time>2018-09-18T08:52:50Z</time>
      </trkpt>
      <trkpt lat="47.204848984256387" lon="9.760686010122299">
        <ele>659.12</ele>
        <time>2018-09-18T08:52:51Z</time>
      </trkpt>
      <trkpt lat="47.204884020611644" lon="9.760837974026799">
        <ele>660.08000000000004</ele>
        <time>2018-09-18T08:52:52Z</time>
      </trkpt>
      <trkpt lat="47.204931965097785" lon="9.761640038341284">
        <ele>667.28999999999996</ele>
        <time>2018-09-18T08:52:58Z</time>
      </trkpt>
      <trkpt lat="47.204950992017984" lon="9.761788984760642">
        <ele>668.73000000000002</ele>
        <time>2018-09-18T08:52:59Z</time>
      </trkpt>
      <trkpt lat="47.205004971474409" lon="9.761928040534258">
        <ele>670.17999999999995</ele>
        <time>2018-09-18T08:53:00Z</time>
      </trkpt>
      <trkpt lat="47.205308983102441" lon="9.762703031301498">
        <ele>676.90999999999997</ele>
        <time>2018-09-18T08:53:06Z</time>
      </trkpt>
      <trkpt lat="47.20534997060895" lon="9.762777965515852">
        <ele>677.87</ele>
        <time>2018-09-18T08:53:07Z</time>
      </trkpt>
      <trkpt lat="47.205407973378897" lon="9.762813001871109">
        <ele>678.35000000000002</ele>
        <time>2018-09-18T08:53:08Z</time>
      </trkpt>
      <trkpt lat="47.205468993633986" lon="9.762848960235715">
        <ele>679.30999999999995</ele>
        <time>2018-09-18T08:53:09Z</time>
      </trkpt>
      <trkpt lat="47.205520961433649" lon="9.76288097910583">
        <ele>680.26999999999998</ele>
        <time>2018-09-18T08:53:10Z</time>
      </trkpt>
      <trkpt lat="47.205569995567203" lon="9.762896988540888">
        <ele>680.75</ele>
        <time>2018-09-18T08:53:11Z</time>
      </trkpt>
      <trkpt lat="47.205618023872375" lon="9.762894976884127">
        <ele>681.71000000000004</ele>
        <time>2018-09-18T08:53:12Z</time>
      </trkpt>
      <trkpt lat="47.205677032470703" lon="9.762892965227366">
        <ele>682.19000000000005</ele>
        <time>2018-09-18T08:53:13Z</time>
      </trkpt>
      <trkpt lat="47.205918012186885" lon="9.762885002419353">
        <ele>683.63</ele>
        <time>2018-09-18T08:53:16Z</time>
      </trkpt>
      <trkpt lat="47.206012979149818" lon="9.762881984934211">
        <ele>683.63</ele>
        <time>2018-09-18T08:53:17Z</time>
      </trkpt>
      <trkpt lat="47.206112975254655" lon="9.762878967449069">
        <ele>683.63</ele>
        <time>2018-09-18T08:53:18Z</time>
      </trkpt>
      <trkpt lat="47.206331994384527" lon="9.76290101185441">
        <ele>684.12</ele>
        <time>2018-09-18T08:53:20Z</time>
      </trkpt>
      <trkpt lat="47.206455962732434" lon="9.762907968834043">
        <ele>684.12</ele>
        <time>2018-09-18T08:53:21Z</time>
      </trkpt>
      <trkpt lat="47.206589989364147" lon="9.762916015461087">
        <ele>684.12</ele>
        <time>2018-09-18T08:53:22Z</time>
      </trkpt>
      <trkpt lat="47.206729967147112" lon="9.762860024347901">
        <ele>684.12</ele>
        <time>2018-09-18T08:53:23Z</time>
      </trkpt>
      <trkpt lat="47.206871034577489" lon="9.762763967737556">
        <ele>684.60000000000002</ele>
        <time>2018-09-18T08:53:24Z</time>
      </trkpt>
      <trkpt lat="47.207016963511705" lon="9.762663971632719">
        <ele>684.60000000000002</ele>
        <time>2018-09-18T08:53:25Z</time>
      </trkpt>
      <trkpt lat="47.20878797583282" lon="9.761390006169677">
        <ele>684.12</ele>
        <time>2018-09-18T08:53:36Z</time>
      </trkpt>
      <trkpt lat="47.210811031982303" lon="9.759901966899633">
        <ele>684.60000000000002</ele>
        <time>2018-09-18T08:53:49Z</time>
      </trkpt>
      <trkpt lat="47.211014963686466" lon="9.759674984961748">
        <ele>685.08000000000004</ele>
        <time>2018-09-18T08:53:51Z</time>
      </trkpt>
      <trkpt lat="47.211434980854392" lon="9.759206017479301">
        <ele>687</ele>
        <time>2018-09-18T08:53:56Z</time>
      </trkpt>
      <trkpt lat="47.211516033858061" lon="9.759144997224212">
        <ele>687.48000000000002</ele>
        <time>2018-09-18T08:53:57Z</time>
      </trkpt>
      <trkpt lat="47.211605971679091" lon="9.759154971688986">
        <ele>687.96000000000004</ele>
        <time>2018-09-18T08:53:58Z</time>
      </trkpt>
      <trkpt lat="47.211704961955547" lon="9.759181961417198">
        <ele>688.44000000000005</ele>
        <time>2018-09-18T08:53:59Z</time>
      </trkpt>
      <trkpt lat="47.211799006909132" lon="9.759267959743738">
        <ele>689.39999999999998</ele>
        <time>2018-09-18T08:54:00Z</time>
      </trkpt>
      <trkpt lat="47.211891040205956" lon="9.75935404188931">
        <ele>689.88</ele>
        <time>2018-09-18T08:54:01Z</time>
      </trkpt>
      <trkpt lat="47.211979972198606" lon="9.759437022730708">
        <ele>690.84000000000003</ele>
        <time>2018-09-18T08:54:02Z</time>
      </trkpt>
      <trkpt lat="47.212064964696765" lon="9.759527966380119">
        <ele>691.80999999999995</ele>
        <time>2018-09-18T08:54:03Z</time>
      </trkpt>
      <trkpt lat="47.212390014901757" lon="9.759826026856899">
        <ele>697.09000000000003</ele>
        <time>2018-09-18T08:54:07Z</time>
      </trkpt>
      <trkpt lat="47.212469978258014" lon="9.759817980229855">
        <ele>698.52999999999997</ele>
        <time>2018-09-18T08:54:08Z</time>
      </trkpt>
      <trkpt lat="47.212551031261683" lon="9.759811023250222">
        <ele>699.98000000000002</ele>
        <time>2018-09-18T08:54:09Z</time>
      </trkpt>
      <trkpt lat="47.212616996839643" lon="9.759709015488625">
        <ele>700.94000000000005</ele>
        <time>2018-09-18T08:54:10Z</time>
      </trkpt>
      <trkpt lat="47.21265303902328" lon="9.759593009948731">
        <ele>701.89999999999998</ele>
        <time>2018-09-18T08:54:11Z</time>
      </trkpt>
      <trkpt lat="47.212669970467687" lon="9.759453032165766">
        <ele>702.86000000000001</ele>
        <time>2018-09-18T08:54:12Z</time>
      </trkpt>
      <trkpt lat="47.212663013488054" lon="9.759285980835557">
        <ele>703.82000000000005</ele>
        <time>2018-09-18T08:54:13Z</time>
      </trkpt>
      <trkpt lat="47.21265496686101" lon="9.759094035252929">
        <ele>704.29999999999995</ele>
        <time>2018-09-18T08:54:14Z</time>
      </trkpt>
      <trkpt lat="47.212638035416603" lon="9.7586689889431">
        <ele>704.77999999999997</ele>
        <time>2018-09-18T08:54:16Z</time>
      </trkpt>
      <trkpt lat="47.212714981287718" lon="9.757064022123814">
        <ele>703.82000000000005</ele>
        <time>2018-09-18T08:54:22Z</time>
      </trkpt>
      <trkpt lat="47.21274197101593" lon="9.756784988567233">
        <ele>703.82000000000005</ele>
        <time>2018-09-18T08:54:23Z</time>
      </trkpt>
      <trkpt lat="47.212859988212585" lon="9.755482021719217">
        <ele>706.23000000000002</ele>
        <time>2018-09-18T08:54:28Z</time>
      </trkpt>
      <trkpt lat="47.212940035387874" lon="9.754334036260843">
        <ele>709.11000000000001</ele>
        <time>2018-09-18T08:54:33Z</time>
      </trkpt>
      <trkpt lat="47.213108008727431" lon="9.753351006656885">
        <ele>711.99000000000001</ele>
        <time>2018-09-18T08:54:38Z</time>
      </trkpt>
      <trkpt lat="47.213123012334108" lon="9.753196025267243">
        <ele>712.95000000000005</ele>
        <time>2018-09-18T08:54:39Z</time>
      </trkpt>
      <trkpt lat="47.213123012334108" lon="9.753043977543712">
        <ele>713.91999999999996</ele>
        <time>2018-09-18T08:54:40Z</time>
      </trkpt>
      <trkpt lat="47.213123012334108" lon="9.752899976447225">
        <ele>714.88</ele>
        <time>2018-09-18T08:54:41Z</time>
      </trkpt>
      <trkpt lat="47.213123012334108" lon="9.752761004492641">
        <ele>715.36000000000001</ele>
        <time>2018-09-18T08:54:42Z</time>
      </trkpt>
      <trkpt lat="47.213123012334108" lon="9.752640975639224">
        <ele>716.32000000000005</ele>
        <time>2018-09-18T08:54:43Z</time>
      </trkpt>
      <trkpt lat="47.21312896348536" lon="9.752497980371118">
        <ele>717.27999999999997</ele>
        <time>2018-09-18T08:54:44Z</time>
      </trkpt>
      <trkpt lat="47.213139021769166" lon="9.752235962077975">
        <ele>719.67999999999995</ele>
        <time>2018-09-18T08:54:46Z</time>
      </trkpt>
      <trkpt lat="47.213144972920418" lon="9.752097995951772">
        <ele>720.64999999999998</ele>
        <time>2018-09-18T08:54:47Z</time>
      </trkpt>
      <trkpt lat="47.213150002062321" lon="9.751953994855285">
        <ele>721.61000000000001</ele>
        <time>2018-09-18T08:54:48Z</time>
      </trkpt>
      <trkpt lat="47.213156037032604" lon="9.751804964616895">
        <ele>722.57000000000005</ele>
        <time>2018-09-18T08:54:49Z</time>
      </trkpt>
      <trkpt lat="47.213161988183856" lon="9.751650989055634">
        <ele>723.52999999999997</ele>
        <time>2018-09-18T08:54:50Z</time>
      </trkpt>
      <trkpt lat="47.213179003447294" lon="9.751489972695708">
        <ele>724.49000000000001</ele>
        <time>2018-09-18T08:54:51Z</time>
      </trkpt>
      <trkpt lat="47.213372960686684" lon="9.750657984986901">
        <ele>727.86000000000001</ele>
        <time>2018-09-18T08:54:56Z</time>
      </trkpt>
      <trkpt lat="47.213677978143096" lon="9.749646037817001">
        <ele>730.25999999999999</ele>
        <time>2018-09-18T08:55:01Z</time>
      </trkpt>
      <trkpt lat="47.213688958436251" lon="9.749448979273439">
        <ele>730.74000000000001</ele>
        <time>2018-09-18T08:55:02Z</time>
      </trkpt>
      <trkpt lat="47.213699016720057" lon="9.749229038134217">
        <ele>730.25999999999999</ele>
        <time>2018-09-18T08:55:03Z</time>
      </trkpt>
      <trkpt lat="47.213689964264631" lon="9.749009013175964">
        <ele>730.25999999999999</ele>
        <time>2018-09-18T08:55:04Z</time>
      </trkpt>
      <trkpt lat="47.213669009506702" lon="9.748774990439415">
        <ele>729.29999999999995</ele>
        <time>2018-09-18T08:55:05Z</time>
      </trkpt>
      <trkpt lat="47.213579993695021" lon="9.747814005240798">
        <ele>727.37</ele>
        <time>2018-09-18T08:55:09Z</time>
      </trkpt>
      <trkpt lat="47.213603965938091" lon="9.747565984725952">
        <ele>726.88999999999999</ele>
        <time>2018-09-18T08:55:10Z</time>
      </trkpt>
      <trkpt lat="47.213845029473305" lon="9.745988007634878">
        <ele>721.61000000000001</ele>
        <time>2018-09-18T08:55:17Z</time>
      </trkpt>
      <trkpt lat="47.213945025578141" lon="9.744085986167193">
        <ele>719.67999999999995</ele>
        <time>2018-09-18T08:55:25Z</time>
      </trkpt>
      <trkpt lat="47.213924992829561" lon="9.74231799133122">
        <ele>719.20000000000005</ele>
        <time>2018-09-18T08:55:33Z</time>
      </trkpt>
      <trkpt lat="47.213956005871296" lon="9.741698987782002">
        <ele>720.64999999999998</ele>
        <time>2018-09-18T08:55:36Z</time>
      </trkpt>
      <trkpt lat="47.213978972285986" lon="9.741519028320909">
        <ele>720.15999999999997</ele>
        <time>2018-09-18T08:55:37Z</time>
      </trkpt>
      <trkpt lat="47.213999005034566" lon="9.741365974768996">
        <ele>720.15999999999997</ele>
        <time>2018-09-18T08:55:38Z</time>
      </trkpt>
      <trkpt lat="47.214058013632894" lon="9.74124401807785">
        <ele>720.15999999999997</ele>
        <time>2018-09-18T08:55:39Z</time>
      </trkpt>
      <trkpt lat="47.214104030281305" lon="9.741171011701226">
        <ele>720.15999999999997</ele>
        <time>2018-09-18T08:55:40Z</time>
      </trkpt>
      <trkpt lat="47.214181981980801" lon="9.741155002266169">
        <ele>719.67999999999995</ele>
        <time>2018-09-18T08:55:41Z</time>
      </trkpt>
      <trkpt lat="47.214237973093987" lon="9.741149973124266">
        <ele>719.67999999999995</ele>
        <time>2018-09-18T08:55:42Z</time>
      </trkpt>
      <trkpt lat="47.214278960600495" lon="9.741147039458156">
        <ele>719.67999999999995</ele>
        <time>2018-09-18T08:55:43Z</time>
      </trkpt>
      <trkpt lat="47.214318020269275" lon="9.741144021973014">
        <ele>719.20000000000005</ele>
        <time>2018-09-18T08:55:44Z</time>
      </trkpt>
      <trkpt lat="47.214379962533712" lon="9.741063974797726">
        <ele>719.20000000000005</ele>
        <time>2018-09-18T08:55:45Z</time>
      </trkpt>
      <trkpt lat="47.214398989453912" lon="9.740950986742973">
        <ele>719.20000000000005</ele>
        <time>2018-09-18T08:55:46Z</time>
      </trkpt>
      <trkpt lat="47.214422039687634" lon="9.740807991474867">
        <ele>718.72000000000003</ele>
        <time>2018-09-18T08:55:47Z</time>
      </trkpt>
      <trkpt lat="47.214449029415846" lon="9.74064202979207">
        <ele>718.24000000000001</ele>
        <time>2018-09-18T08:55:48Z</time>
      </trkpt>
      <trkpt lat="47.214479958638549" lon="9.740454023703933">
        <ele>717.27999999999997</ele>
        <time>2018-09-18T08:55:49Z</time>
      </trkpt>
      <trkpt lat="47.214811965823174" lon="9.738696003332734">
        <ele>709.11000000000001</ele>
        <time>2018-09-18T08:55:56Z</time>
      </trkpt>
      <trkpt lat="47.215214967727661" lon="9.736617961898446">
        <ele>695.16999999999996</ele>
        <time>2018-09-18T08:56:05Z</time>
      </trkpt>
      <trkpt lat="47.215242041274905" lon="9.735385989770293">
        <ele>686.51999999999998</ele>
        <time>2018-09-18T08:56:12Z</time>
      </trkpt>
      <trkpt lat="47.214903999119997" lon="9.733124971389771">
        <ele>675.94000000000005</ele>
        <time>2018-09-18T08:56:25Z</time>
      </trkpt>
      <trkpt lat="47.214546008035541" lon="9.731152961030603">
        <ele>668.73000000000002</ele>
        <time>2018-09-18T08:56:37Z</time>
      </trkpt>
      <trkpt lat="47.214176030829549" lon="9.729302991181612">
        <ele>661.51999999999998</ele>
        <time>2018-09-18T08:56:50Z</time>
      </trkpt>
      <trkpt lat="47.214150968939066" lon="9.729177011176944">
        <ele>661.51999999999998</ele>
        <time>2018-09-18T08:56:51Z</time>
      </trkpt>
      <trkpt lat="47.214145017787814" lon="9.729052959010005">
        <ele>661.51999999999998</ele>
        <time>2018-09-18T08:56:52Z</time>
      </trkpt>
      <trkpt lat="47.214139988645911" lon="9.728938965126872">
        <ele>661.51999999999998</ele>
        <time>2018-09-18T08:56:53Z</time>
      </trkpt>
      <trkpt lat="47.214134959504008" lon="9.728820025920868">
        <ele>661.51999999999998</ele>
        <time>2018-09-18T08:56:54Z</time>
      </trkpt>
      <trkpt lat="47.214129008352757" lon="9.728687005117536">
        <ele>661.03999999999996</ele>
        <time>2018-09-18T08:56:55Z</time>
      </trkpt>
      <trkpt lat="47.214168990030885" lon="9.727182034403086">
        <ele>662.00999999999999</ele>
        <time>2018-09-18T08:57:04Z</time>
      </trkpt>
      <trkpt lat="47.214304022490978" lon="9.725497020408511">
        <ele>660.08000000000004</ele>
        <time>2018-09-18T08:57:14Z</time>
      </trkpt>
      <trkpt lat="47.214738037437201" lon="9.722858984023333">
        <ele>654.30999999999995</ele>
        <time>2018-09-18T08:57:28Z</time>
      </trkpt>
      <trkpt lat="47.215420994907618" lon="9.720773985609412">
        <ele>649.99000000000001</ele>
        <time>2018-09-18T08:57:39Z</time>
      </trkpt>
      <trkpt lat="47.215836988762021" lon="9.719793973490596">
        <ele>649.02999999999997</ele>
        <time>2018-09-18T08:57:45Z</time>
      </trkpt>
      <trkpt lat="47.21587797626853" lon="9.719602027907968">
        <ele>649.02999999999997</ele>
        <time>2018-09-18T08:57:46Z</time>
      </trkpt>
      <trkpt lat="47.215913012623787" lon="9.719401029869914">
        <ele>649.02999999999997</ele>
        <time>2018-09-18T08:57:47Z</time>
      </trkpt>
      <trkpt lat="47.215947965160012" lon="9.719198020175099">
        <ele>648.54999999999995</ele>
        <time>2018-09-18T08:57:48Z</time>
      </trkpt>
      <trkpt lat="47.21598501317203" lon="9.718989981338382">
        <ele>648.54999999999995</ele>
        <time>2018-09-18T08:57:49Z</time>
      </trkpt>
      <trkpt lat="47.216004962101579" lon="9.718774985522032">
        <ele>648.54999999999995</ele>
        <time>2018-09-18T08:57:50Z</time>
      </trkpt>
      <trkpt lat="47.216102024540305" lon="9.71711402758956">
        <ele>649.99000000000001</ele>
        <time>2018-09-18T08:57:57Z</time>
      </trkpt>
      <trkpt lat="47.216280978173018" lon="9.714944958686829">
        <ele>644.70000000000005</ele>
        <time>2018-09-18T08:58:05Z</time>
      </trkpt>
      <trkpt lat="47.216019965708256" lon="9.712317986413837">
        <ele>637.49000000000001</ele>
        <time>2018-09-18T08:58:15Z</time>
      </trkpt>
      <trkpt lat="47.216086015105247" lon="9.710602965205908">
        <ele>637.49000000000001</ele>
        <time>2018-09-18T08:58:22Z</time>
      </trkpt>
      <trkpt lat="47.216180982068181" lon="9.707668963819742">
        <ele>630.75999999999999</ele>
        <time>2018-09-18T08:58:33Z</time>
      </trkpt>
      <trkpt lat="47.21624200232327" lon="9.706736980006099">
        <ele>628.36000000000001</ele>
        <time>2018-09-18T08:58:37Z</time>
      </trkpt>
      <trkpt lat="47.216279972344637" lon="9.706520978361368">
        <ele>627.39999999999998</ele>
        <time>2018-09-18T08:58:38Z</time>
      </trkpt>
      <trkpt lat="47.216510977596045" lon="9.705093959346414">
        <ele>623.07000000000005</ele>
        <time>2018-09-18T08:58:46Z</time>
      </trkpt>
      <trkpt lat="47.216416010633111" lon="9.703242983669043">
        <ele>616.82000000000005</ele>
        <time>2018-09-18T08:58:57Z</time>
      </trkpt>
      <trkpt lat="47.216226998716593" lon="9.701728960499167">
        <ele>612.5</ele>
        <time>2018-09-18T08:59:07Z</time>
      </trkpt>
      <trkpt lat="47.216119039803743" lon="9.700966961681843">
        <ele>611.05999999999995</ele>
        <time>2018-09-18T08:59:12Z</time>
      </trkpt>
      <trkpt lat="47.216073023155332" lon="9.700827989727259">
        <ele>610.57000000000005</ele>
        <time>2018-09-18T08:59:13Z</time>
      </trkpt>
      <trkpt lat="47.216018959879875" lon="9.700693963095546">
        <ele>610.09000000000003</ele>
        <time>2018-09-18T08:59:14Z</time>
      </trkpt>
      <trkpt lat="47.215956011787057" lon="9.700584998354316">
        <ele>609.61000000000001</ele>
        <time>2018-09-18T08:59:15Z</time>
      </trkpt>
      <trkpt lat="47.21589800901711" lon="9.700482990592718">
        <ele>609.13</ele>
        <time>2018-09-18T08:59:16Z</time>
      </trkpt>
      <trkpt lat="47.215707991272211" lon="9.700197000056505">
        <ele>609.13</ele>
        <time>2018-09-18T08:59:19Z</time>
      </trkpt>
      <trkpt lat="47.215496012941003" lon="9.699785029515624">
        <ele>609.61000000000001</ele>
        <time>2018-09-18T08:59:23Z</time>
      </trkpt>
      <trkpt lat="47.215477991849184" lon="9.699658965691924">
        <ele>609.61000000000001</ele>
        <time>2018-09-18T08:59:24Z</time>
      </trkpt>
      <trkpt lat="47.215460976585746" lon="9.699533991515636">
        <ele>609.61000000000001</ele>
        <time>2018-09-18T08:59:25Z</time>
      </trkpt>
      <trkpt lat="47.215443961322308" lon="9.699408011510968">
        <ele>610.09000000000003</ele>
        <time>2018-09-18T08:59:26Z</time>
      </trkpt>
      <trkpt lat="47.21542501822114" lon="9.699275996536017">
        <ele>609.61000000000001</ele>
        <time>2018-09-18T08:59:27Z</time>
      </trkpt>
      <trkpt lat="47.215330973267555" lon="9.698167992755771">
        <ele>606.73000000000002</ele>
        <time>2018-09-18T08:59:35Z</time>
      </trkpt>
      <trkpt lat="47.215216979384422" lon="9.697580002248287">
        <ele>605.76999999999998</ele>
        <time>2018-09-18T08:59:39Z</time>
      </trkpt>
      <trkpt lat="47.215192001312971" lon="9.69741496257484">
        <ele>605.76999999999998</ele>
        <time>2018-09-18T08:59:40Z</time>
      </trkpt>
      <trkpt lat="47.215171968564391" lon="9.697246989235282">
        <ele>606.25</ele>
        <time>2018-09-18T08:59:41Z</time>
      </trkpt>
      <trkpt lat="47.215024027973413" lon="9.696029014885426">
        <ele>605.76999999999998</ele>
        <time>2018-09-18T08:59:48Z</time>
      </trkpt>
      <trkpt lat="47.214983962476254" lon="9.695879984647036">
        <ele>606.25</ele>
        <time>2018-09-18T08:59:49Z</time>
      </trkpt>
      <trkpt lat="47.214908022433519" lon="9.695749981328845">
        <ele>606.25</ele>
        <time>2018-09-18T08:59:50Z</time>
      </trkpt>
      <trkpt lat="47.214827975258231" lon="9.695614026859403">
        <ele>606.73000000000002</ele>
        <time>2018-09-18T08:59:51Z</time>
      </trkpt>
      <trkpt lat="47.214744994416833" lon="9.695472037419677">
        <ele>606.73000000000002</ele>
        <time>2018-09-18T08:59:52Z</time>
      </trkpt>
      <trkpt lat="47.214663019403815" lon="9.6953309699893">
        <ele>606.73000000000002</ele>
        <time>2018-09-18T08:59:53Z</time>
      </trkpt>
      <trkpt lat="47.214508960023522" lon="9.695070963352919">
        <ele>606.73000000000002</ele>
        <time>2018-09-18T08:59:55Z</time>
      </trkpt>
      <trkpt lat="47.214432014152408" lon="9.694940038025379">
        <ele>606.25</ele>
        <time>2018-09-18T08:59:56Z</time>
      </trkpt>
      <trkpt lat="47.214403012767434" lon="9.694767035543919">
        <ele>605.76999999999998</ele>
        <time>2018-09-18T08:59:57Z</time>
      </trkpt>
      <trkpt lat="47.21437300555408" lon="9.694585986435413">
        <ele>605.76999999999998</ele>
        <time>2018-09-18T08:59:58Z</time>
      </trkpt>
      <trkpt lat="47.21435003913939" lon="9.694394040852785">
        <ele>604.80999999999995</ele>
        <time>2018-09-18T08:59:59Z</time>
      </trkpt>
      <trkpt lat="47.214326988905668" lon="9.694188013672829">
        <ele>604.33000000000004</ele>
        <time>2018-09-18T09:00:00Z</time>
      </trkpt>
      <trkpt lat="47.214353978633881" lon="9.693965977057815">
        <ele>604.33000000000004</ele>
        <time>2018-09-18T09:00:01Z</time>
      </trkpt>
      <trkpt lat="47.214385997503996" lon="9.693741006776691">
        <ele>603.85000000000002</ele>
        <time>2018-09-18T09:00:02Z</time>
      </trkpt>
      <trkpt lat="47.214419022202492" lon="9.693511007353663">
        <ele>602.88</ele>
        <time>2018-09-18T09:00:03Z</time>
      </trkpt>
      <trkpt lat="47.214423967525363" lon="9.693263992667198">
        <ele>602.88</ele>
        <time>2018-09-18T09:00:04Z</time>
      </trkpt>
      <trkpt lat="47.214408963918686" lon="9.693008009344339">
        <ele>602.39999999999998</ele>
        <time>2018-09-18T09:00:05Z</time>
      </trkpt>
      <trkpt lat="47.214378034695983" lon="9.6924729924649">
        <ele>601.44000000000005</ele>
        <time>2018-09-18T09:00:07Z</time>
      </trkpt>
      <trkpt lat="47.214308967813849" lon="9.691403964534402">
        <ele>600.48000000000002</ele>
        <time>2018-09-18T09:00:11Z</time>
      </trkpt>
      <trkpt lat="47.214282983914018" lon="9.691169019788504">
        <ele>600</ele>
        <time>2018-09-18T09:00:12Z</time>
      </trkpt>
      <trkpt lat="47.214261023327708" lon="9.69094798900187">
        <ele>599.51999999999998</ele>
        <time>2018-09-18T09:00:13Z</time>
      </trkpt>
      <trkpt lat="47.214261023327708" lon="9.690740033984184">
        <ele>599.03999999999996</ele>
        <time>2018-09-18T09:00:14Z</time>
      </trkpt>
      <trkpt lat="47.214265968650579" lon="9.690534006804228">
        <ele>599.03999999999996</ele>
        <time>2018-09-18T09:00:15Z</time>
      </trkpt>
      <trkpt lat="47.214304022490978" lon="9.690327979624271">
        <ele>598.55999999999995</ele>
        <time>2018-09-18T09:00:16Z</time>
      </trkpt>
      <trkpt lat="47.214367976412177" lon="9.690120024606586">
        <ele>598.55999999999995</ele>
        <time>2018-09-18T09:00:17Z</time>
      </trkpt>
      <trkpt lat="47.214439976960421" lon="9.689922966063023">
        <ele>598.08000000000004</ele>
        <time>2018-09-18T09:00:18Z</time>
      </trkpt>
      <trkpt lat="47.214526981115341" lon="9.68974401243031">
        <ele>597.60000000000002</ele>
        <time>2018-09-18T09:00:19Z</time>
      </trkpt>
      <trkpt lat="47.214609039947391" lon="9.689575033262372">
        <ele>597.12</ele>
        <time>2018-09-18T09:00:20Z</time>
      </trkpt>
      <trkpt lat="47.214689003303647" lon="9.689407981932163">
        <ele>596.14999999999998</ele>
        <time>2018-09-18T09:00:21Z</time>
      </trkpt>
      <trkpt lat="47.214723033830523" lon="9.689200026914477">
        <ele>595.19000000000005</ele>
        <time>2018-09-18T09:00:22Z</time>
      </trkpt>
      <trkpt lat="47.214738037437201" lon="9.689004980027676">
        <ele>594.71000000000004</ele>
        <time>2018-09-18T09:00:23Z</time>
      </trkpt>
      <trkpt lat="47.214752035215497" lon="9.688815968111157">
        <ele>593.75</ele>
        <time>2018-09-18T09:00:24Z</time>
      </trkpt>
      <trkpt lat="47.214816994965076" lon="9.688661992549896">
        <ele>592.78999999999996</ele>
        <time>2018-09-18T09:00:25Z</time>
      </trkpt>
      <trkpt lat="47.214890001341701" lon="9.688523020595312">
        <ele>591.83000000000004</ele>
        <time>2018-09-18T09:00:26Z</time>
      </trkpt>
      <trkpt lat="47.214962001889944" lon="9.688383964821696">
        <ele>590.87</ele>
        <time>2018-09-18T09:00:27Z</time>
      </trkpt>
      <trkpt lat="47.215012041851878" lon="9.688288997858763">
        <ele>589.90999999999997</ele>
        <time>2018-09-18T09:00:28Z</time>
      </trkpt>
      <trkpt lat="47.215034002438188" lon="9.688076013699174">
        <ele>588.95000000000005</ele>
        <time>2018-09-18T09:00:29Z</time>
      </trkpt>
      <trkpt lat="47.215055041015148" lon="9.687881972640753">
        <ele>587.98000000000002</ele>
        <time>2018-09-18T09:00:30Z</time>
      </trkpt>
      <trkpt lat="47.215050011873245" lon="9.687750963494182">
        <ele>587.01999999999998</ele>
        <time>2018-09-18T09:00:31Z</time>
      </trkpt>
      <trkpt lat="47.215043976902962" lon="9.687581984326243">
        <ele>586.53999999999996</ele>
        <time>2018-09-18T09:00:32Z</time>
      </trkpt>
      <trkpt lat="47.215034002438188" lon="9.687269004061818">
        <ele>584.62</ele>
        <time>2018-09-18T09:00:34Z</time>
      </trkpt>
      <trkpt lat="47.215056968852878" lon="9.687141012400389">
        <ele>583.65999999999997</ele>
        <time>2018-09-18T09:00:35Z</time>
      </trkpt>
      <trkpt lat="47.21508102491498" lon="9.687018971890211">
        <ele>582.70000000000005</ele>
        <time>2018-09-18T09:00:36Z</time>
      </trkpt>
      <trkpt lat="47.215115977451205" lon="9.686905983835459">
        <ele>581.73000000000002</ele>
        <time>2018-09-18T09:00:37Z</time>
      </trkpt>
      <trkpt lat="47.215181021019816" lon="9.686790984123945">
        <ele>581.25</ele>
        <time>2018-09-18T09:00:38Z</time>
      </trkpt>
      <trkpt lat="47.215515039861202" lon="9.686207016929984">
        <ele>579.33000000000004</ele>
        <time>2018-09-18T09:00:42Z</time>
      </trkpt>
      <trkpt lat="47.215698016807437" lon="9.685885990038514">
        <ele>577.88999999999999</ele>
        <time>2018-09-18T09:00:44Z</time>
      </trkpt>
      <trkpt lat="47.215928016230464" lon="9.685702007263899">
        <ele>576.92999999999995</ele>
        <time>2018-09-18T09:00:46Z</time>
      </trkpt>
      <trkpt lat="47.216061959043145" lon="9.685594970360398">
        <ele>576.92999999999995</ele>
        <time>2018-09-18T09:00:47Z</time>
      </trkpt>
      <trkpt lat="47.216195985674858" lon="9.685482988134027">
        <ele>576.92999999999995</ele>
        <time>2018-09-18T09:00:48Z</time>
      </trkpt>
      <trkpt lat="47.216336969286203" lon="9.685358013957739">
        <ele>576.45000000000005</ele>
        <time>2018-09-18T09:00:49Z</time>
      </trkpt>
      <trkpt lat="47.216492034494877" lon="9.685220969840884">
        <ele>575.49000000000001</ele>
        <time>2018-09-18T09:00:50Z</time>
      </trkpt>
      <trkpt lat="47.216611979529262" lon="9.685072023421526">
        <ele>575.00999999999999</ele>
        <time>2018-09-18T09:00:51Z</time>
      </trkpt>
      <trkpt lat="47.216746006160975" lon="9.684902960434556">
        <ele>574.52999999999997</ele>
        <time>2018-09-18T09:00:52Z</time>
      </trkpt>
      <trkpt lat="47.216889001429081" lon="9.684724006801844">
        <ele>573.55999999999995</ele>
        <time>2018-09-18T09:00:53Z</time>
      </trkpt>
      <trkpt lat="47.217029985040426" lon="9.684548992663622">
        <ele>573.08000000000004</ele>
        <time>2018-09-18T09:00:54Z</time>
      </trkpt>
      <trkpt lat="47.217386970296502" lon="9.684067033231258">
        <ele>569.72000000000003</ele>
        <time>2018-09-18T09:00:57Z</time>
      </trkpt>
      <trkpt lat="47.217473974451423" lon="9.683876009657979">
        <ele>568.27999999999997</ele>
        <time>2018-09-18T09:00:58Z</time>
      </trkpt>
      <trkpt lat="47.217561984434724" lon="9.683679034933448">
        <ele>567.32000000000005</ele>
        <time>2018-09-18T09:00:59Z</time>
      </trkpt>
      <trkpt lat="47.218017037957907" lon="9.68273900449276">
        <ele>560.59000000000003</ele>
        <time>2018-09-18T09:01:04Z</time>
      </trkpt>
      <trkpt lat="47.218137988820672" lon="9.682592991739512">
        <ele>559.62</ele>
        <time>2018-09-18T09:01:05Z</time>
      </trkpt>
      <trkpt lat="47.218264974653721" lon="9.682442033663392">
        <ele>558.65999999999997</ele>
        <time>2018-09-18T09:01:06Z</time>
      </trkpt>
      <trkpt lat="47.218507966026664" lon="9.682139027863741">
        <ele>556.74000000000001</ele>
        <time>2018-09-18T09:01:08Z</time>
      </trkpt>
      <trkpt lat="47.218606034293771" lon="9.681971976533532">
        <ele>555.77999999999997</ele>
        <time>2018-09-18T09:01:09Z</time>
      </trkpt>
      <trkpt lat="47.218668982386589" lon="9.681784976273775">
        <ele>554.34000000000003</ele>
        <time>2018-09-18T09:01:10Z</time>
      </trkpt>
      <trkpt lat="47.218714999035001" lon="9.681586995720863">
        <ele>553.38</ele>
        <time>2018-09-18T09:01:11Z</time>
      </trkpt>
      <trkpt lat="47.218732014298439" lon="9.681384991854429">
        <ele>551.92999999999995</ele>
        <time>2018-09-18T09:01:12Z</time>
      </trkpt>
      <trkpt lat="47.218741988763213" lon="9.681163961067796">
        <ele>550.49000000000001</ele>
        <time>2018-09-18T09:01:13Z</time>
      </trkpt>
      <trkpt lat="47.218726985156536" lon="9.680945025756955">
        <ele>549.04999999999995</ele>
        <time>2018-09-18T09:01:14Z</time>
      </trkpt>
      <trkpt lat="47.218698989599943" lon="9.680717037990689">
        <ele>547.61000000000001</ele>
        <time>2018-09-18T09:01:15Z</time>
      </trkpt>
      <trkpt lat="47.218671999871731" lon="9.680498018860817">
        <ele>546.16999999999996</ele>
        <time>2018-09-18T09:01:16Z</time>
      </trkpt>
      <trkpt lat="47.218645010143518" lon="9.680292997509241">
        <ele>544.72000000000003</ele>
        <time>2018-09-18T09:01:17Z</time>
      </trkpt>
      <trkpt lat="47.218697983771563" lon="9.680086970329285">
        <ele>543.75999999999999</ele>
        <time>2018-09-18T09:01:18Z</time>
      </trkpt>
      <trkpt lat="47.218745006248355" lon="9.679964007809758">
        <ele>542.32000000000005</ele>
        <time>2018-09-18T09:01:19Z</time>
      </trkpt>
      <trkpt lat="47.218865035101771" lon="9.679831992834806">
        <ele>541.36000000000001</ele>
        <time>2018-09-18T09:01:20Z</time>
      </trkpt>
      <trkpt lat="47.218964025378227" lon="9.679721016436815">
        <ele>540.39999999999998</ele>
        <time>2018-09-18T09:01:21Z</time>
      </trkpt>
      <trkpt lat="47.219072990119457" lon="9.679601993411779">
        <ele>538.96000000000004</ele>
        <time>2018-09-18T09:01:22Z</time>
      </trkpt>
      <trkpt lat="47.219288991764188" lon="9.679322959855199">
        <ele>536.54999999999995</ele>
        <time>2018-09-18T09:01:24Z</time>
      </trkpt>
      <trkpt lat="47.220071023330092" lon="9.678099034354091">
        <ele>527.89999999999998</ele>
        <time>2018-09-18T09:01:32Z</time>
      </trkpt>
      <trkpt lat="47.220624983310699" lon="9.676828002557159">
        <ele>520.69000000000005</ele>
        <time>2018-09-18T09:01:41Z</time>
      </trkpt>
      <trkpt lat="47.221134016290307" lon="9.675537021830678">
        <ele>513.96000000000004</ele>
        <time>2018-09-18T09:01:51Z</time>
      </trkpt>
      <trkpt lat="47.221704991534352" lon="9.674614006653428">
        <ele>507.70999999999998</ele>
        <time>2018-09-18T09:02:00Z</time>
      </trkpt>
      <trkpt lat="47.221923004835844" lon="9.674387024715543">
        <ele>506.26999999999998</ele>
        <time>2018-09-18T09:02:03Z</time>
      </trkpt>
      <trkpt lat="47.221992993727326" lon="9.674314018338919">
        <ele>505.79000000000002</ele>
        <time>2018-09-18T09:02:04Z</time>
      </trkpt>
      <trkpt lat="47.222075974568725" lon="9.674107991158962">
        <ele>504.82999999999998</ele>
        <time>2018-09-18T09:02:06Z</time>
      </trkpt>
      <trkpt lat="47.222110005095601" lon="9.673985028639436">
        <ele>504.35000000000002</ele>
        <time>2018-09-18T09:02:07Z</time>
      </trkpt>
      <trkpt lat="47.222178988158703" lon="9.673741031438112">
        <ele>503.87</ele>
        <time>2018-09-18T09:02:09Z</time>
      </trkpt>
      <trkpt lat="47.222247971221805" lon="9.673632988706231">
        <ele>503.87</ele>
        <time>2018-09-18T09:02:10Z</time>
      </trkpt>
      <trkpt lat="47.222309997305274" lon="9.673536010086536">
        <ele>502.91000000000003</ele>
        <time>2018-09-18T09:02:11Z</time>
      </trkpt>
      <trkpt lat="47.222371017560363" lon="9.673440959304571">
        <ele>502.43000000000001</ele>
        <time>2018-09-18T09:02:12Z</time>
      </trkpt>
      <trkpt lat="47.222456010058522" lon="9.673411035910249">
        <ele>501.94999999999999</ele>
        <time>2018-09-18T09:02:13Z</time>
      </trkpt>
      <trkpt lat="47.222539996728301" lon="9.673381028696895">
        <ele>501.45999999999998</ele>
        <time>2018-09-18T09:02:14Z</time>
      </trkpt>
      <trkpt lat="47.222631024196744" lon="9.673349009826779">
        <ele>500.5</ele>
        <time>2018-09-18T09:02:15Z</time>
      </trkpt>
      <trkpt lat="47.222732026129961" lon="9.673312967643142">
        <ele>499.54000000000002</ele>
        <time>2018-09-18T09:02:16Z</time>
      </trkpt>
      <trkpt lat="47.222936963662505" lon="9.673239961266518">
        <ele>497.62</ele>
        <time>2018-09-18T09:02:18Z</time>
      </trkpt>
      <trkpt lat="47.223038971424103" lon="9.67320098541677">
        <ele>496.66000000000003</ele>
        <time>2018-09-18T09:02:19Z</time>
      </trkpt>
      <trkpt lat="47.223102003335953" lon="9.673089003190398">
        <ele>496.18000000000001</ele>
        <time>2018-09-18T09:02:20Z</time>
      </trkpt>
      <trkpt lat="47.223166041076183" lon="9.672976015135646">
        <ele>495.22000000000003</ele>
        <time>2018-09-18T09:02:21Z</time>
      </trkpt>
      <trkpt lat="47.223229994997382" lon="9.672863027080894">
        <ele>494.74000000000001</ele>
        <time>2018-09-18T09:02:22Z</time>
      </trkpt>
      <trkpt lat="47.223295960575342" lon="9.672746015712619">
        <ele>494.25999999999999</ele>
        <time>2018-09-18T09:02:23Z</time>
      </trkpt>
      <trkpt lat="47.223367961123586" lon="9.672635961323977">
        <ele>494.25999999999999</ele>
        <time>2018-09-18T09:02:24Z</time>
      </trkpt>
      <trkpt lat="47.223466029390693" lon="9.672495983541012">
        <ele>493.76999999999998</ele>
        <time>2018-09-18T09:02:25Z</time>
      </trkpt>
      <trkpt lat="47.22412995994091" lon="9.67191000469029">
        <ele>492.81</ele>
        <time>2018-09-18T09:02:34Z</time>
      </trkpt>
      <trkpt lat="47.224183017387986" lon="9.671863988041878">
        <ele>492.32999999999998</ele>
        <time>2018-09-18T09:02:35Z</time>
      </trkpt>
      <trkpt lat="47.224211012944579" lon="9.671821994706988">
        <ele>492.32999999999998</ele>
        <time>2018-09-18T09:02:36Z</time>
      </trkpt>
      <trkpt lat="47.224228028208017" lon="9.671787964180112">
        <ele>492.32999999999998</ele>
        <time>2018-09-18T09:02:37Z</time>
      </trkpt>
      <trkpt lat="47.224241020157933" lon="9.6717609744519">
        <ele>492.32999999999998</ele>
        <time>2018-09-18T09:02:38Z</time>
      </trkpt>
      <trkpt lat="47.224253006279469" lon="9.671737002208829">
        <ele>492.32999999999998</ele>
        <time>2018-09-18T09:02:39Z</time>
      </trkpt>
      <trkpt lat="47.224262980744243" lon="9.67171797528863">
        <ele>492.32999999999998</ele>
        <time>2018-09-18T09:02:40Z</time>
      </trkpt>
      <trkpt lat="47.224271027371287" lon="9.671700960025191">
        <ele>492.32999999999998</ele>
        <time>2018-09-18T09:02:41Z</time>
      </trkpt>
      <trkpt lat="47.224281001836061" lon="9.671681011095643">
        <ele>491.85000000000002</ele>
        <time>2018-09-18T09:02:45Z</time>
      </trkpt>
      <trkpt lat="47.224275972694159" lon="9.671678999438882">
        <ele>492.32999999999998</ele>
        <time>2018-09-18T09:02:46Z</time>
      </trkpt>
      <trkpt lat="47.224231967702508" lon="9.671665001660585">
        <ele>492.32999999999998</ele>
        <time>2018-09-18T09:02:47Z</time>
      </trkpt>
      <trkpt lat="47.224175976589322" lon="9.671645974740386">
        <ele>491.85000000000002</ele>
        <time>2018-09-18T09:02:48Z</time>
      </trkpt>
      <trkpt lat="47.224100036546588" lon="9.671620996668935">
        <ele>491.85000000000002</ele>
        <time>2018-09-18T09:02:49Z</time>
      </trkpt>
      <trkpt lat="47.22393499687314" lon="9.67156601138413">
        <ele>490.88999999999999</ele>
        <time>2018-09-18T09:02:51Z</time>
      </trkpt>
      <trkpt lat="47.223854027688503" lon="9.671539021655917">
        <ele>490.41000000000003</ele>
        <time>2018-09-18T09:02:52Z</time>
      </trkpt>
      <trkpt lat="47.223585974425077" lon="9.671412035822868">
        <ele>488.97000000000003</ele>
        <time>2018-09-18T09:02:55Z</time>
      </trkpt>
      <trkpt lat="47.223408026620746" lon="9.671326037496328">
        <ele>487.05000000000001</ele>
        <time>2018-09-18T09:02:57Z</time>
      </trkpt>
      <trkpt lat="47.223235024139285" lon="9.671242972835898">
        <ele>485.60000000000002</ele>
        <time>2018-09-18T09:02:59Z</time>
      </trkpt>
      <trkpt lat="47.223151959478855" lon="9.671209026128054">
        <ele>485.12</ele>
        <time>2018-09-18T09:03:00Z</time>
      </trkpt>
      <trkpt lat="47.223064033314586" lon="9.671213971450925">
        <ele>484.63999999999999</ele>
        <time>2018-09-18T09:03:01Z</time>
      </trkpt>
      <trkpt lat="47.222975017502904" lon="9.671225035563111">
        <ele>484.16000000000003</ele>
        <time>2018-09-18T09:03:02Z</time>
      </trkpt>
      <trkpt lat="47.222887007519603" lon="9.671236015856266">
        <ele>483.19999999999999</ele>
        <time>2018-09-18T09:03:03Z</time>
      </trkpt>
      <trkpt lat="47.222801009193063" lon="9.67124599032104">
        <ele>482.72000000000003</ele>
        <time>2018-09-18T09:03:04Z</time>
      </trkpt>
      <trkpt lat="47.222188040614128" lon="9.671254958957434">
        <ele>480.31999999999999</ele>
        <time>2018-09-18T09:03:12Z</time>
      </trkpt>
      <trkpt lat="47.221937002614141" lon="9.671114981174469">
        <ele>479.83999999999997</ele>
        <time>2018-09-18T09:03:20Z</time>
      </trkpt>
      <trkpt lat="47.221903977915645" lon="9.67109696008265">
        <ele>479.83999999999997</ele>
        <time>2018-09-18T09:03:24Z</time>
      </trkpt>
      <trkpt lat="47.221834994852543" lon="9.671058990061283">
        <ele>479.83999999999997</ele>
        <time>2018-09-18T09:03:25Z</time>
      </trkpt>
      <trkpt lat="47.221900038421154" lon="9.670951031148434">
        <ele>479.83999999999997</ele>
        <time>2018-09-18T09:03:26Z</time>
      </trkpt>
      <trkpt lat="47.221920993179083" lon="9.670882970094681">
        <ele>479.83999999999997</ele>
        <time>2018-09-18T09:03:27Z</time>
      </trkpt>
      <trkpt lat="47.221954017877579" lon="9.670777022838593">
        <ele>480.31999999999999</ele>
        <time>2018-09-18T09:03:28Z</time>
      </trkpt>
      <trkpt lat="47.221990982070565" lon="9.670659005641937">
        <ele>480.31999999999999</ele>
        <time>2018-09-18T09:03:29Z</time>
      </trkpt>
      <trkpt lat="47.222326006740332" lon="9.669446982443333">
        <ele>481.27999999999997</ele>
        <time>2018-09-18T09:03:36Z</time>
      </trkpt>
      <trkpt lat="47.222844008356333" lon="9.667536998167634">
        <ele>484.16000000000003</ele>
        <time>2018-09-18T09:03:46Z</time>
      </trkpt>
      <trkpt lat="47.22348497249186" lon="9.665927002206445">
        <ele>486.56</ele>
        <time>2018-09-18T09:03:56Z</time>
      </trkpt>
      <trkpt lat="47.223786972463131" lon="9.665393996983767">
        <ele>485.60000000000002</ele>
        <time>2018-09-18T09:03:59Z</time>
      </trkpt>
      <trkpt lat="47.224752986803651" lon="9.663779977709055">
        <ele>484.16000000000003</ele>
        <time>2018-09-18T09:04:09Z</time>
      </trkpt>
      <trkpt lat="47.225853027775884" lon="9.661619961261749">
        <ele>482.24000000000001</ele>
        <time>2018-09-18T09:04:21Z</time>
      </trkpt>
      <trkpt lat="47.226186040788889" lon="9.659821959212422">
        <ele>478.87</ele>
        <time>2018-09-18T09:04:28Z</time>
      </trkpt>
      <trkpt lat="47.226116973906755" lon="9.656964987516403">
        <ele>476.94999999999999</ele>
        <time>2018-09-18T09:04:37Z</time>
      </trkpt>
      <trkpt lat="47.22593299113214" lon="9.655478037893772">
        <ele>475.99000000000001</ele>
        <time>2018-09-18T09:04:42Z</time>
      </trkpt>
      <trkpt lat="47.225099997594953" lon="9.652527021244168">
        <ele>473.11000000000001</ele>
        <time>2018-09-18T09:04:52Z</time>
      </trkpt>
      <trkpt lat="47.22472901456058" lon="9.650831026956439">
        <ele>472.63</ele>
        <time>2018-09-18T09:04:59Z</time>
      </trkpt>
      <trkpt lat="47.224703030660748" lon="9.650585018098354">
        <ele>473.11000000000001</ele>
        <time>2018-09-18T09:05:00Z</time>
      </trkpt>
      <trkpt lat="47.224779976531863" lon="9.648520974442363">
        <ele>474.55000000000001</ele>
        <time>2018-09-18T09:05:08Z</time>
      </trkpt>
      <trkpt lat="47.225176021456718" lon="9.645728962495923">
        <ele>477.91000000000003</ele>
        <time>2018-09-18T09:05:19Z</time>
      </trkpt>
      <trkpt lat="47.22535396926105" lon="9.644325999543071">
        <ele>481.75999999999999</ele>
        <time>2018-09-18T09:05:25Z</time>
      </trkpt>
      <trkpt lat="47.225340977311134" lon="9.644116032868624">
        <ele>482.24000000000001</ele>
        <time>2018-09-18T09:05:26Z</time>
      </trkpt>
      <trkpt lat="47.225325973704457" lon="9.643898019567132">
        <ele>483.19999999999999</ele>
        <time>2018-09-18T09:05:27Z</time>
      </trkpt>
      <trkpt lat="47.225311975926161" lon="9.643686963245273">
        <ele>484.16000000000003</ele>
        <time>2018-09-18T09:05:28Z</time>
      </trkpt>
      <trkpt lat="47.225251961499453" lon="9.643492000177503">
        <ele>484.63999999999999</ele>
        <time>2018-09-18T09:05:29Z</time>
      </trkpt>
      <trkpt lat="47.225190019235015" lon="9.643298964947462">
        <ele>485.12</ele>
        <time>2018-09-18T09:05:30Z</time>
      </trkpt>
      <trkpt lat="47.225124975666404" lon="9.643111964687705">
        <ele>485.60000000000002</ele>
        <time>2018-09-18T09:05:31Z</time>
      </trkpt>
      <trkpt lat="47.225035959854722" lon="9.642942985519767">
        <ele>486.07999999999998</ele>
        <time>2018-09-18T09:05:32Z</time>
      </trkpt>
      <trkpt lat="47.224932024255395" lon="9.642786998301745">
        <ele>486.07999999999998</ele>
        <time>2018-09-18T09:05:33Z</time>
      </trkpt>
      <trkpt lat="47.224817024543881" lon="9.642651965841651">
        <ele>486.07999999999998</ele>
        <time>2018-09-18T09:05:34Z</time>
      </trkpt>
      <trkpt lat="47.224692972376943" lon="9.642535960301757">
        <ele>485.60000000000002</ele>
        <time>2018-09-18T09:05:35Z</time>
      </trkpt>
      <trkpt lat="47.223685970529914" lon="9.641424017027021">
        <ele>482.72000000000003</ele>
        <time>2018-09-18T09:05:43Z</time>
      </trkpt>
      <trkpt lat="47.223095968365669" lon="9.640010995790362">
        <ele>476.94999999999999</ele>
        <time>2018-09-18T09:05:50Z</time>
      </trkpt>
      <trkpt lat="47.222228022292256" lon="9.637415958568454">
        <ele>473.58999999999997</ele>
        <time>2018-09-18T09:06:02Z</time>
      </trkpt>
      <trkpt lat="47.221987964585423" lon="9.636610960587859">
        <ele>473.58999999999997</ele>
        <time>2018-09-18T09:06:06Z</time>
      </trkpt>
      <trkpt lat="47.221952006220818" lon="9.63641800917685">
        <ele>473.11000000000001</ele>
        <time>2018-09-18T09:06:07Z</time>
      </trkpt>
      <trkpt lat="47.221814040094614" lon="9.63566699065268">
        <ele>472.13999999999999</ele>
        <time>2018-09-18T09:06:11Z</time>
      </trkpt>
      <trkpt lat="47.221750002354383" lon="9.635516032576561">
        <ele>471.66000000000003</ele>
        <time>2018-09-18T09:06:12Z</time>
      </trkpt>
      <trkpt lat="47.221688982099295" lon="9.635371025651693">
        <ele>471.18000000000001</ele>
        <time>2018-09-18T09:06:13Z</time>
      </trkpt>
      <trkpt lat="47.22161496989429" lon="9.635267006233335">
        <ele>470.22000000000003</ele>
        <time>2018-09-18T09:06:14Z</time>
      </trkpt>
      <trkpt lat="47.221513967961073" lon="9.635176984593272">
        <ele>469.74000000000001</ele>
        <time>2018-09-18T09:06:15Z</time>
      </trkpt>
      <trkpt lat="47.221416989341378" lon="9.635125016793609">
        <ele>469.25999999999999</ele>
        <time>2018-09-18T09:06:16Z</time>
      </trkpt>
      <trkpt lat="47.221298972144723" lon="9.635096015408635">
        <ele>468.30000000000001</ele>
        <time>2018-09-18T09:06:17Z</time>
      </trkpt>
      <trkpt lat="47.221172992140055" lon="9.635131973773241">
        <ele>467.81999999999999</ele>
        <time>2018-09-18T09:06:18Z</time>
      </trkpt>
      <trkpt lat="47.221049023792148" lon="9.635167010128498">
        <ele>466.86000000000001</ele>
        <time>2018-09-18T09:06:19Z</time>
      </trkpt>
      <trkpt lat="47.220953973010182" lon="9.635219983756542">
        <ele>466.38</ele>
        <time>2018-09-18T09:06:20Z</time>
      </trkpt>
      <trkpt lat="47.220838973298669" lon="9.635320985689759">
        <ele>465.89999999999998</ele>
        <time>2018-09-18T09:06:21Z</time>
      </trkpt>
      <trkpt lat="47.220724979415536" lon="9.635419975966215">
        <ele>466.38</ele>
        <time>2018-09-18T09:06:22Z</time>
      </trkpt>
      <trkpt lat="47.220630012452602" lon="9.635521983727813">
        <ele>466.86000000000001</ele>
        <time>2018-09-18T09:06:23Z</time>
      </trkpt>
      <trkpt lat="47.220552982762456" lon="9.635647041723132">
        <ele>467.33999999999997</ele>
        <time>2018-09-18T09:06:24Z</time>
      </trkpt>
      <trkpt lat="47.220485005527735" lon="9.635758018121123">
        <ele>467.81999999999999</ele>
        <time>2018-09-18T09:06:25Z</time>
      </trkpt>
      <trkpt lat="47.220466984435916" lon="9.635857008397579">
        <ele>467.81999999999999</ele>
        <time>2018-09-18T09:06:26Z</time>
      </trkpt>
      <trkpt lat="47.220448041334748" lon="9.635975025594235">
        <ele>468.77999999999997</ele>
        <time>2018-09-18T09:06:27Z</time>
      </trkpt>
      <trkpt lat="47.220447035506368" lon="9.636034034192562">
        <ele>468.77999999999997</ele>
        <time>2018-09-18T09:06:28Z</time>
      </trkpt>
      <trkpt lat="47.220479976385832" lon="9.63611701503396">
        <ele>469.25999999999999</ele>
        <time>2018-09-18T09:06:29Z</time>
      </trkpt>
      <trkpt lat="47.220511995255947" lon="9.636197984218597">
        <ele>469.25999999999999</ele>
        <time>2018-09-18T09:06:30Z</time>
      </trkpt>
      <trkpt lat="47.220525993034244" lon="9.636233020573854">
        <ele>468.77999999999997</ele>
        <time>2018-09-18T09:06:31Z</time>
      </trkpt>
      <trkpt lat="47.220548959448934" lon="9.636255986988545">
        <ele>468.77999999999997</ele>
        <time>2018-09-18T09:06:32Z</time>
      </trkpt>
      <trkpt lat="47.220565974712372" lon="9.636273002251983">
        <ele>468.30000000000001</ele>
        <time>2018-09-18T09:06:33Z</time>
      </trkpt>
      <trkpt lat="47.220611991360784" lon="9.636319018900394">
        <ele>468.30000000000001</ele>
        <time>2018-09-18T09:06:42Z</time>
      </trkpt>
      <trkpt lat="47.220621965825558" lon="9.636300997808576">
        <ele>468.77999999999997</ele>
        <time>2018-09-18T09:06:43Z</time>
      </trkpt>
      <trkpt lat="47.220673011615872" lon="9.636205025017262">
        <ele>468.77999999999997</ele>
        <time>2018-09-18T09:06:44Z</time>
      </trkpt>
      <trkpt lat="47.220727996900678" lon="9.636099999770522">
        <ele>469.25999999999999</ele>
        <time>2018-09-18T09:06:45Z</time>
      </trkpt>
      <trkpt lat="47.220793040469289" lon="9.635977959260345">
        <ele>469.25999999999999</ele>
        <time>2018-09-18T09:06:46Z</time>
      </trkpt>
      <trkpt lat="47.22135697491467" lon="9.634944973513484">
        <ele>470.22000000000003</ele>
        <time>2018-09-18T09:06:52Z</time>
      </trkpt>
      <trkpt lat="47.222646027803421" lon="9.633029038086534">
        <ele>472.13999999999999</ele>
        <time>2018-09-18T09:07:01Z</time>
      </trkpt>
      <trkpt lat="47.222786005586386" lon="9.632820999249816">
        <ele>472.13999999999999</ele>
        <time>2018-09-18T09:07:02Z</time>
      </trkpt>
      <trkpt lat="47.222907962277532" lon="9.632620001211762">
        <ele>472.63</ele>
        <time>2018-09-18T09:07:03Z</time>
      </trkpt>
      <trkpt lat="47.223002007231116" lon="9.632394025102258">
        <ele>473.11000000000001</ele>
        <time>2018-09-18T09:07:04Z</time>
      </trkpt>
      <trkpt lat="47.223089011386037" lon="9.63218598626554">
        <ele>473.11000000000001</ele>
        <time>2018-09-18T09:07:05Z</time>
      </trkpt>
      <trkpt lat="47.223128993064165" lon="9.631959004327655">
        <ele>473.11000000000001</ele>
        <time>2018-09-18T09:07:06Z</time>
      </trkpt>
      <trkpt lat="47.223159000277519" lon="9.631743002682924">
        <ele>473.58999999999997</ele>
        <time>2018-09-18T09:07:07Z</time>
      </trkpt>
      <trkpt lat="47.223251033574343" lon="9.630268961191177">
        <ele>475.99000000000001</ele>
        <time>2018-09-18T09:07:15Z</time>
      </trkpt>
      <trkpt lat="47.223294032737613" lon="9.628366017714143">
        <ele>475.99000000000001</ele>
        <time>2018-09-18T09:07:26Z</time>
      </trkpt>
      <trkpt lat="47.223322028294206" lon="9.627881040796638">
        <ele>475.50999999999999</ele>
        <time>2018-09-18T09:07:32Z</time>
      </trkpt>
      <trkpt lat="47.22333300858736" lon="9.627679958939552">
        <ele>474.55000000000001</ele>
        <time>2018-09-18T09:07:42Z</time>
      </trkpt>
      <trkpt lat="47.22335597500205" lon="9.627266982570291">
        <ele>475.02999999999997</ele>
        <time>2018-09-18T09:08:00Z</time>
      </trkpt>
      <trkpt lat="47.223539035767317" lon="9.6259989682585">
        <ele>473.58999999999997</ele>
        <time>2018-09-18T09:08:08Z</time>
      </trkpt>
      <trkpt lat="47.223786972463131" lon="9.624121002852917">
        <ele>470.22000000000003</ele>
        <time>2018-09-18T09:08:19Z</time>
      </trkpt>
      <trkpt lat="47.22404102794826" lon="9.622256029397249">
        <ele>468.30000000000001</ele>
        <time>2018-09-18T09:08:30Z</time>
      </trkpt>
      <trkpt lat="47.22425501793623" lon="9.620762038975954">
        <ele>470.22000000000003</ele>
        <time>2018-09-18T09:08:39Z</time>
      </trkpt>
      <trkpt lat="47.224275972694159" lon="9.620599010959268">
        <ele>470.69999999999999</ele>
        <time>2018-09-18T09:08:40Z</time>
      </trkpt>
      <trkpt lat="47.224533967673779" lon="9.61884199641645">
        <ele>468.30000000000001</ele>
        <time>2018-09-18T09:08:50Z</time>
      </trkpt>
      <trkpt lat="47.224770002067089" lon="9.617005018517375">
        <ele>468.30000000000001</ele>
        <time>2018-09-18T09:09:00Z</time>
      </trkpt>
      <trkpt lat="47.225002013146877" lon="9.615087993443012">
        <ele>468.30000000000001</ele>
        <time>2018-09-18T09:09:09Z</time>
      </trkpt>
      <trkpt lat="47.224917020648718" lon="9.613121012225747">
        <ele>468.30000000000001</ele>
        <time>2018-09-18T09:09:17Z</time>
      </trkpt>
      <trkpt lat="47.224631030112505" lon="9.610600993037224">
        <ele>467.81999999999999</ele>
        <time>2018-09-18T09:09:28Z</time>
      </trkpt>
      <trkpt lat="47.224748963490129" lon="9.609095016494393">
        <ele>467.81999999999999</ele>
        <time>2018-09-18T09:09:36Z</time>
      </trkpt>
      <trkpt lat="47.22479104064405" lon="9.608820006251335">
        <ele>466.86000000000001</ele>
        <time>2018-09-18T09:09:42Z</time>
      </trkpt>
      <trkpt lat="47.22479104064405" lon="9.608820006251335">
        <ele>466.86000000000001</ele>
        <time>2018-09-18T09:10:00Z</time>
      </trkpt>
      <trkpt lat="47.224835967645049" lon="9.608564022928476">
        <ele>465.42000000000002</ele>
        <time>2018-09-18T09:10:18Z</time>
      </trkpt>
      <trkpt lat="47.22513603977859" lon="9.607616029679775">
        <ele>465.42000000000002</ele>
        <time>2018-09-18T09:10:24Z</time>
      </trkpt>
      <trkpt lat="47.22522396594286" lon="9.607442021369934">
        <ele>464.93000000000001</ele>
        <time>2018-09-18T09:10:25Z</time>
      </trkpt>
      <trkpt lat="47.22565202973783" lon="9.606653032824397">
        <ele>464.44999999999999</ele>
        <time>2018-09-18T09:10:31Z</time>
      </trkpt>
      <trkpt lat="47.225742973387241" lon="9.606512971222401">
        <ele>463.49000000000001</ele>
        <time>2018-09-18T09:10:38Z</time>
      </trkpt>
      <trkpt lat="47.225927961990237" lon="9.60625003091991">
        <ele>463.97000000000003</ele>
        <time>2018-09-18T09:10:48Z</time>
      </trkpt>
      <trkpt lat="47.226560963317752" lon="9.605417959392071">
        <ele>464.44999999999999</ele>
        <time>2018-09-18T09:10:54Z</time>
      </trkpt>
      <trkpt lat="47.227835012599826" lon="9.604407018050551">
        <ele>463.49000000000001</ele>
        <time>2018-09-18T09:11:03Z</time>
      </trkpt>
      <trkpt lat="47.228299034759402" lon="9.60425203666091">
        <ele>463.49000000000001</ele>
        <time>2018-09-18T09:11:06Z</time>
      </trkpt>
      <trkpt lat="47.228457033634186" lon="9.604218006134033">
        <ele>463.49000000000001</ele>
        <time>2018-09-18T09:11:07Z</time>
      </trkpt>
      <trkpt lat="47.229982037097216" lon="9.604047015309334">
        <ele>468.30000000000001</ele>
        <time>2018-09-18T09:11:17Z</time>
      </trkpt>
      <trkpt lat="47.230093013495207" lon="9.60397501476109">
        <ele>468.77999999999997</ele>
        <time>2018-09-18T09:11:18Z</time>
      </trkpt>
      <trkpt lat="47.230203989893198" lon="9.603893039748073">
        <ele>469.25999999999999</ele>
        <time>2018-09-18T09:11:19Z</time>
      </trkpt>
      <trkpt lat="47.230555023998022" lon="9.603472016751766">
        <ele>471.66000000000003</ele>
        <time>2018-09-18T09:11:23Z</time>
      </trkpt>
      <trkpt lat="47.230627024546266" lon="9.603353999555111">
        <ele>472.13999999999999</ele>
        <time>2018-09-18T09:11:24Z</time>
      </trkpt>
      <trkpt lat="47.230693995952606" lon="9.603232964873314">
        <ele>472.13999999999999</ele>
        <time>2018-09-18T09:11:25Z</time>
      </trkpt>
      <trkpt lat="47.231201017275453" lon="9.602023959159851">
        <ele>473.58999999999997</ele>
        <time>2018-09-18T09:11:35Z</time>
      </trkpt>
      <trkpt lat="47.231340995058417" lon="9.601710978895426">
        <ele>473.11000000000001</ele>
        <time>2018-09-18T09:11:38Z</time>
      </trkpt>
      <trkpt lat="47.23147401586175" lon="9.601453989744186">
        <ele>473.11000000000001</ele>
        <time>2018-09-18T09:11:42Z</time>
      </trkpt>
      <trkpt lat="47.231498993933201" lon="9.601405961439014">
        <ele>473.11000000000001</ele>
        <time>2018-09-18T09:11:43Z</time>
      </trkpt>
      <trkpt lat="47.231523972004652" lon="9.601359022781253">
        <ele>472.63</ele>
        <time>2018-09-18T09:11:44Z</time>
      </trkpt>
      <trkpt lat="47.231549033895135" lon="9.601309988647699">
        <ele>472.63</ele>
        <time>2018-09-18T09:11:45Z</time>
      </trkpt>
      <trkpt lat="47.231577029451728" lon="9.601257015019655">
        <ele>472.63</ele>
        <time>2018-09-18T09:11:46Z</time>
      </trkpt>
      <trkpt lat="47.231651041656733" lon="9.601162970066071">
        <ele>472.63</ele>
        <time>2018-09-18T09:11:54Z</time>
      </trkpt>
      <trkpt lat="47.231665961444378" lon="9.601144026964903">
        <ele>472.63</ele>
        <time>2018-09-18T09:12:01Z</time>
      </trkpt>
      <trkpt lat="47.231679037213326" lon="9.601127011701465">
        <ele>472.63</ele>
        <time>2018-09-18T09:12:02Z</time>
      </trkpt>
      <trkpt lat="47.231679037213326" lon="9.601127011701465">
        <ele>472.63</ele>
        <time>2018-09-18T09:12:17Z</time>
      </trkpt>
      <trkpt lat="47.231857990846038" lon="9.600899023935199">
        <ele>473.58999999999997</ele>
        <time>2018-09-18T09:12:27Z</time>
      </trkpt>
      <trkpt lat="47.231972990557551" lon="9.60075200535357">
        <ele>473.58999999999997</ele>
        <time>2018-09-18T09:12:29Z</time>
      </trkpt>
      <trkpt lat="47.232049014419317" lon="9.600656032562256">
        <ele>473.58999999999997</ele>
        <time>2018-09-18T09:12:30Z</time>
      </trkpt>
      <trkpt lat="47.232907991856337" lon="9.599985983222723">
        <ele>473.11000000000001</ele>
        <time>2018-09-18T09:12:38Z</time>
      </trkpt>
      <trkpt lat="47.233205968514085" lon="9.599771993234754">
        <ele>473.58999999999997</ele>
        <time>2018-09-18T09:12:41Z</time>
      </trkpt>
      <trkpt lat="47.233298001810908" lon="9.59972002543509">
        <ele>473.11000000000001</ele>
        <time>2018-09-18T09:12:42Z</time>
      </trkpt>
      <trkpt lat="47.233485002070665" lon="9.599616006016731">
        <ele>472.63</ele>
        <time>2018-09-18T09:12:44Z</time>
      </trkpt>
      <trkpt lat="47.233574017882347" lon="9.599565966054797">
        <ele>472.13999999999999</ele>
        <time>2018-09-18T09:12:45Z</time>
      </trkpt>
      <trkpt lat="47.233934020623565" lon="9.599406039342284">
        <ele>471.18000000000001</ele>
        <time>2018-09-18T09:12:49Z</time>
      </trkpt>
      <trkpt lat="47.234175000339746" lon="9.59933496080339">
        <ele>470.69999999999999</ele>
        <time>2018-09-18T09:12:52Z</time>
      </trkpt>
      <trkpt lat="47.234249012544751" lon="9.599314006045461">
        <ele>470.22000000000003</ele>
        <time>2018-09-18T09:12:53Z</time>
      </trkpt>
      <trkpt lat="47.234645979478955" lon="9.599238988012075">
        <ele>470.69999999999999</ele>
        <time>2018-09-18T09:13:01Z</time>
      </trkpt>
      <trkpt lat="47.234831973910332" lon="9.599230019375682">
        <ele>472.13999999999999</ele>
        <time>2018-09-18T09:13:07Z</time>
      </trkpt>
      <trkpt lat="47.234831973910332" lon="9.599230019375682">
        <ele>473.58999999999997</ele>
        <time>2018-09-18T09:13:14Z</time>
      </trkpt>
      <trkpt lat="47.234875978901982" lon="9.599228007718921">
        <ele>473.58999999999997</ele>
        <time>2018-09-18T09:13:15Z</time>
      </trkpt>
      <trkpt lat="47.234897017478943" lon="9.59922700189054">
        <ele>473.58999999999997</ele>
        <time>2018-09-18T09:13:16Z</time>
      </trkpt>
      <trkpt lat="47.234924007207155" lon="9.59922599606216">
        <ele>473.58999999999997</ele>
        <time>2018-09-18T09:13:17Z</time>
      </trkpt>
      <trkpt lat="47.234949991106987" lon="9.599223984405398">
        <ele>473.58999999999997</ele>
        <time>2018-09-18T09:13:18Z</time>
      </trkpt>
      <trkpt lat="47.234975975006819" lon="9.599222978577018">
        <ele>473.58999999999997</ele>
        <time>2018-09-18T09:13:19Z</time>
      </trkpt>
      <trkpt lat="47.235165992751718" lon="9.59922700189054">
        <ele>472.63</ele>
        <time>2018-09-18T09:13:31Z</time>
      </trkpt>
      <trkpt lat="47.235394986346364" lon="9.59924896247685">
        <ele>472.13999999999999</ele>
        <time>2018-09-18T09:13:46Z</time>
      </trkpt>
      <trkpt lat="47.235632026568055" lon="9.599276036024094">
        <ele>472.63</ele>
        <time>2018-09-18T09:13:49Z</time>
      </trkpt>
      <trkpt lat="47.235704027116299" lon="9.599285004660487">
        <ele>473.11000000000001</ele>
        <time>2018-09-18T09:13:50Z</time>
      </trkpt>
      <trkpt lat="47.237156024202704" lon="9.599261032417417">
        <ele>474.55000000000001</ele>
        <time>2018-09-18T09:14:14Z</time>
      </trkpt>
      <trkpt lat="47.237089974805713" lon="9.599291039630771">
        <ele>475.02999999999997</ele>
        <time>2018-09-18T09:14:15Z</time>
      </trkpt>
      <trkpt lat="47.237144960090518" lon="9.599265977740288">
        <ele>475.02999999999997</ele>
        <time>2018-09-18T09:14:16Z</time>
      </trkpt>
      <trkpt lat="47.237159041687846" lon="9.599260026589036">
        <ele>475.02999999999997</ele>
        <time>2018-09-18T09:14:17Z</time>
      </trkpt>
      <trkpt lat="47.237206986173987" lon="9.599229013547301">
        <ele>475.02999999999997</ele>
        <time>2018-09-18T09:14:18Z</time>
      </trkpt>
      <trkpt lat="47.237241016700864" lon="9.599207974970341">
        <ele>475.02999999999997</ele>
        <time>2018-09-18T09:14:19Z</time>
      </trkpt>
      <trkpt lat="47.237286027520895" lon="9.599178973585367">
        <ele>474.55000000000001</ele>
        <time>2018-09-18T09:14:20Z</time>
      </trkpt>
      <trkpt lat="47.237335983663797" lon="9.599147038534284">
        <ele>474.06999999999999</ele>
        <time>2018-09-18T09:14:21Z</time>
      </trkpt>
      <trkpt lat="47.237596996128559" lon="9.598975041881204">
        <ele>470.69999999999999</ele>
        <time>2018-09-18T09:14:27Z</time>
      </trkpt>
      <trkpt lat="47.237649969756603" lon="9.598940005525947">
        <ele>470.22000000000003</ele>
        <time>2018-09-18T09:14:28Z</time>
      </trkpt>
      <trkpt lat="47.237777961418033" lon="9.598831962794066">
        <ele>468.30000000000001</ele>
        <time>2018-09-18T09:14:30Z</time>
      </trkpt>
      <trkpt lat="47.237817021086812" lon="9.598802961409092">
        <ele>467.81999999999999</ele>
        <time>2018-09-18T09:14:31Z</time>
      </trkpt>
      <trkpt lat="47.237849039956927" lon="9.598777983337641">
        <ele>467.33999999999997</ele>
        <time>2018-09-18T09:14:32Z</time>
      </trkpt>
      <trkpt lat="47.237906036898494" lon="9.59873297251761">
        <ele>465.89999999999998</ele>
        <time>2018-09-18T09:14:34Z</time>
      </trkpt>
      <trkpt lat="47.23794300109148" lon="9.598703971132636">
        <ele>465.42000000000002</ele>
        <time>2018-09-18T09:14:35Z</time>
      </trkpt>
      <trkpt lat="47.238013995811343" lon="9.598652003332973">
        <ele>463.97000000000003</ele>
        <time>2018-09-18T09:14:37Z</time>
      </trkpt>
      <trkpt lat="47.23805196583271" lon="9.59862400777638">
        <ele>463.49000000000001</ele>
        <time>2018-09-18T09:14:38Z</time>
      </trkpt>
      <trkpt lat="47.238151039928198" lon="9.598553013056517">
        <ele>462.05000000000001</ele>
        <time>2018-09-18T09:14:41Z</time>
      </trkpt>
      <trkpt lat="47.238151039928198" lon="9.598553013056517">
        <ele>461.56999999999999</ele>
        <time>2018-09-18T09:14:50Z</time>
      </trkpt>
      <trkpt lat="47.238151039928198" lon="9.598553013056517">
        <ele>461.08999999999997</ele>
        <time>2018-09-18T09:15:15Z</time>
      </trkpt>
      <trkpt lat="47.238167971372604" lon="9.598541026934981">
        <ele>461.08999999999997</ele>
        <time>2018-09-18T09:15:25Z</time>
      </trkpt>
      <trkpt lat="47.238194039091468" lon="9.598520994186401">
        <ele>460.61000000000001</ele>
        <time>2018-09-18T09:15:26Z</time>
      </trkpt>
      <trkpt lat="47.238452034071088" lon="9.598329970613122">
        <ele>458.20999999999998</ele>
        <time>2018-09-18T09:15:35Z</time>
      </trkpt>
      <trkpt lat="47.238452034071088" lon="9.598329970613122">
        <ele>458.20999999999998</ele>
        <time>2018-09-18T09:15:50Z</time>
      </trkpt>
      <trkpt lat="47.238452034071088" lon="9.598329970613122">
        <ele>458.20999999999998</ele>
        <time>2018-09-18T09:16:33Z</time>
      </trkpt>
      <trkpt lat="47.238539960235357" lon="9.598265010863543">
        <ele>457.72000000000003</ele>
        <time>2018-09-18T09:16:40Z</time>
      </trkpt>
      <trkpt lat="47.238796027377248" lon="9.598040040582418">
        <ele>456.27999999999997</ele>
        <time>2018-09-18T09:16:46Z</time>
      </trkpt>
      <trkpt lat="47.238831985741854" lon="9.597999975085259">
        <ele>456.27999999999997</ele>
        <time>2018-09-18T09:16:47Z</time>
      </trkpt>
      <trkpt lat="47.23886501044035" lon="9.597963010892272">
        <ele>456.27999999999997</ele>
        <time>2018-09-18T09:16:48Z</time>
      </trkpt>
      <trkpt lat="47.238894011825323" lon="9.597930992022157">
        <ele>455.80000000000001</ele>
        <time>2018-09-18T09:16:49Z</time>
      </trkpt>
      <trkpt lat="47.238895017653704" lon="9.597920011729002">
        <ele>455.31999999999999</ele>
        <time>2018-09-18T09:16:50Z</time>
      </trkpt>
      <trkpt lat="47.238897029310465" lon="9.597869971767068">
        <ele>454.83999999999997</ele>
        <time>2018-09-18T09:16:51Z</time>
      </trkpt>
      <trkpt lat="47.238900968804955" lon="9.597812974825501">
        <ele>454.83999999999997</ele>
        <time>2018-09-18T09:16:52Z</time>
      </trkpt>
      <trkpt lat="47.238904992118478" lon="9.597738962620497">
        <ele>454.36000000000001</ele>
        <time>2018-09-18T09:16:53Z</time>
      </trkpt>
      <trkpt lat="47.238909015432" lon="9.597660005092621">
        <ele>454.36000000000001</ele>
        <time>2018-09-18T09:16:54Z</time>
      </trkpt>
      <trkpt lat="47.238913960754871" lon="9.597541987895966">
        <ele>453.39999999999998</ele>
        <time>2018-09-18T09:16:56Z</time>
      </trkpt>
      <trkpt lat="47.238889988511801" lon="9.597467975690961">
        <ele>453.39999999999998</ele>
        <time>2018-09-18T09:16:57Z</time>
      </trkpt>
      <trkpt lat="47.23886601626873" lon="9.597394969314337">
        <ele>453.39999999999998</ele>
        <time>2018-09-18T09:16:58Z</time>
      </trkpt>
      <trkpt lat="47.23877901211381" lon="9.597158012911677">
        <ele>451.95999999999998</ele>
        <time>2018-09-18T09:17:01Z</time>
      </trkpt>
      <trkpt lat="47.238616989925504" lon="9.596801027655602">
        <ele>451.48000000000002</ele>
        <time>2018-09-18T09:17:05Z</time>
      </trkpt>
      <trkpt lat="47.238577008247375" lon="9.596711006015539">
        <ele>451.48000000000002</ele>
        <time>2018-09-18T09:17:06Z</time>
      </trkpt>
      <trkpt lat="47.238533003255725" lon="9.596614027395845">
        <ele>451.48000000000002</ele>
        <time>2018-09-18T09:17:07Z</time>
      </trkpt>
      <trkpt lat="47.238317001610994" lon="9.596057971939445">
        <ele>451.48000000000002</ele>
        <time>2018-09-18T09:17:12Z</time>
      </trkpt>
      <trkpt lat="47.238208958879113" lon="9.595437040552497">
        <ele>450.02999999999997</ele>
        <time>2018-09-18T09:17:20Z</time>
      </trkpt>
      <trkpt lat="47.238207031041384" lon="9.59542203694582">
        <ele>450.02999999999997</ele>
        <time>2018-09-18T09:17:22Z</time>
      </trkpt>
      <trkpt lat="47.238202001899481" lon="9.595389012247324">
        <ele>449.55000000000001</ele>
        <time>2018-09-18T09:17:23Z</time>
      </trkpt>
      <trkpt lat="47.238194961100817" lon="9.595335032790899">
        <ele>449.06999999999999</ele>
        <time>2018-09-18T09:17:24Z</time>
      </trkpt>
      <trkpt lat="47.238136036321521" lon="9.594881990924478">
        <ele>447.63</ele>
        <time>2018-09-18T09:17:29Z</time>
      </trkpt>
      <trkpt lat="47.237975019961596" lon="9.594277990981937">
        <ele>448.11000000000001</ele>
        <time>2018-09-18T09:17:36Z</time>
      </trkpt>
      <trkpt lat="47.237924979999661" lon="9.594189980998635">
        <ele>448.58999999999997</ele>
        <time>2018-09-18T09:17:37Z</time>
      </trkpt>
      <trkpt lat="47.237874018028378" lon="9.594099037349224">
        <ele>448.58999999999997</ele>
        <time>2018-09-18T09:17:38Z</time>
      </trkpt>
      <trkpt lat="47.237820960581303" lon="9.594003986567259">
        <ele>449.06999999999999</ele>
        <time>2018-09-18T09:17:39Z</time>
      </trkpt>
      <trkpt lat="47.237759018316865" lon="9.593941960483789">
        <ele>449.06999999999999</ele>
        <time>2018-09-18T09:17:40Z</time>
      </trkpt>
      <trkpt lat="47.237695986405015" lon="9.593879012390971">
        <ele>449.55000000000001</ele>
        <time>2018-09-18T09:17:41Z</time>
      </trkpt>
      <trkpt lat="47.237014034762979" lon="9.593209968879819">
        <ele>453.88</ele>
        <time>2018-09-18T09:17:52Z</time>
      </trkpt>
      <trkpt lat="47.236969023942947" lon="9.593162024393678">
        <ele>453.39999999999998</ele>
        <time>2018-09-18T09:17:53Z</time>
      </trkpt>
      <trkpt lat="47.236938010901213" lon="9.593126988038421">
        <ele>453.39999999999998</ele>
        <time>2018-09-18T09:17:54Z</time>
      </trkpt>
      <trkpt lat="47.236894005909562" lon="9.593079965561628">
        <ele>453.39999999999998</ele>
        <time>2018-09-18T09:17:58Z</time>
      </trkpt>
      <trkpt lat="47.236852012574673" lon="9.593034032732248">
        <ele>452.92000000000002</ele>
        <time>2018-09-18T09:17:59Z</time>
      </trkpt>
      <trkpt lat="47.236342979595065" lon="9.592403965070844">
        <ele>451.48000000000002</ele>
        <time>2018-09-18T09:18:06Z</time>
      </trkpt>
      <trkpt lat="47.235842999070883" lon="9.591696029528976">
        <ele>451.95999999999998</ele>
        <time>2018-09-18T09:18:12Z</time>
      </trkpt>
      <trkpt lat="47.235761024057865" lon="9.591579018160701">
        <ele>452.44</ele>
        <time>2018-09-18T09:18:13Z</time>
      </trkpt>
      <trkpt lat="47.235303958877921" lon="9.590938976034522">
        <ele>454.36000000000001</ele>
        <time>2018-09-18T09:18:21Z</time>
      </trkpt>
      <trkpt lat="47.234782017767429" lon="9.590240009129047">
        <ele>457.72000000000003</ele>
        <time>2018-09-18T09:18:29Z</time>
      </trkpt>
      <trkpt lat="47.233622968196869" lon="9.589296039193869">
        <ele>463.00999999999999</ele>
        <time>2018-09-18T09:18:40Z</time>
      </trkpt>
      <trkpt lat="47.23287396132946" lon="9.588347962126136">
        <ele>469.25999999999999</ele>
        <time>2018-09-18T09:18:48Z</time>
      </trkpt>
      <trkpt lat="47.23252896219492" lon="9.587819986045361">
        <ele>470.69999999999999</ele>
        <time>2018-09-18T09:18:52Z</time>
      </trkpt>
      <trkpt lat="47.231590021401644" lon="9.586976012215018">
        <ele>474.06999999999999</ele>
        <time>2018-09-18T09:19:01Z</time>
      </trkpt>
      <trkpt lat="47.23020700737834" lon="9.586208984255791">
        <ele>475.99000000000001</ele>
        <time>2018-09-18T09:19:13Z</time>
      </trkpt>
      <trkpt lat="47.229105960577726" lon="9.585350006818771">
        <ele>479.35000000000002</ele>
        <time>2018-09-18T09:19:23Z</time>
      </trkpt>
      <trkpt lat="47.227926962077618" lon="9.584378041327">
        <ele>484.63999999999999</ele>
        <time>2018-09-18T09:19:34Z</time>
      </trkpt>
      <trkpt lat="47.226628018543124" lon="9.583273977041245">
        <ele>491.85000000000002</ele>
        <time>2018-09-18T09:19:46Z</time>
      </trkpt>
      <trkpt lat="47.226138012483716" lon="9.582835016772151">
        <ele>493.29000000000002</ele>
        <time>2018-09-18T09:19:53Z</time>
      </trkpt>
      <trkpt lat="47.225804999470711" lon="9.582474008202553">
        <ele>498.57999999999998</ele>
        <time>2018-09-18T09:20:02Z</time>
      </trkpt>
      <trkpt lat="47.225664015859365" lon="9.582321038469672">
        <ele>500.01999999999998</ele>
        <time>2018-09-18T09:20:06Z</time>
      </trkpt>
      <trkpt lat="47.225614981725812" lon="9.582266975194216">
        <ele>500.01999999999998</ele>
        <time>2018-09-18T09:20:07Z</time>
      </trkpt>
      <trkpt lat="47.225370984524488" lon="9.582001017406583">
        <ele>500.01999999999998</ele>
        <time>2018-09-18T09:20:12Z</time>
      </trkpt>
      <trkpt lat="47.224773019552231" lon="9.581210017204285">
        <ele>498.10000000000002</ele>
        <time>2018-09-18T09:20:19Z</time>
      </trkpt>
      <trkpt lat="47.224082015454769" lon="9.580007968470454">
        <ele>493.29000000000002</ele>
        <time>2018-09-18T09:20:28Z</time>
      </trkpt>
      <trkpt lat="47.223126981407404" lon="9.578333012759686">
        <ele>484.63999999999999</ele>
        <time>2018-09-18T09:20:40Z</time>
      </trkpt>
      <trkpt lat="47.22217203117907" lon="9.576654033735395">
        <ele>482.24000000000001</ele>
        <time>2018-09-18T09:20:52Z</time>
      </trkpt>
      <trkpt lat="47.221229989081621" lon="9.574952004477382">
        <ele>478.87</ele>
        <time>2018-09-18T09:21:04Z</time>
      </trkpt>
      <trkpt lat="47.22021795809269" lon="9.573604026809335">
        <ele>471.18000000000001</ele>
        <time>2018-09-18T09:21:15Z</time>
      </trkpt>
      <trkpt lat="47.219274993985891" lon="9.572471966966987">
        <ele>461.56999999999999</ele>
        <time>2018-09-18T09:21:25Z</time>
      </trkpt>
      <trkpt lat="47.218682980164886" lon="9.571566972881556">
        <ele>461.08999999999997</ele>
        <time>2018-09-18T09:21:33Z</time>
      </trkpt>
      <trkpt lat="47.218578960746527" lon="9.571272013708949">
        <ele>462.05000000000001</ele>
        <time>2018-09-18T09:21:36Z</time>
      </trkpt>
      <trkpt lat="47.218550965189934" lon="9.571196995675564">
        <ele>462.52999999999997</ele>
        <time>2018-09-18T09:21:37Z</time>
      </trkpt>
      <trkpt lat="47.218526992946863" lon="9.571131030097604">
        <ele>463.00999999999999</ele>
        <time>2018-09-18T09:21:38Z</time>
      </trkpt>
      <trkpt lat="47.218395983800292" lon="9.570777984336019">
        <ele>464.44999999999999</ele>
        <time>2018-09-18T09:21:46Z</time>
      </trkpt>
      <trkpt lat="47.218337981030345" lon="9.570641024038196">
        <ele>464.93000000000001</ele>
        <time>2018-09-18T09:21:49Z</time>
      </trkpt>
      <trkpt lat="47.21830696798861" lon="9.570583021268249">
        <ele>464.93000000000001</ele>
        <time>2018-09-18T09:21:50Z</time>
      </trkpt>
      <trkpt lat="47.218271009624004" lon="9.570516971871257">
        <ele>465.42000000000002</ele>
        <time>2018-09-18T09:21:51Z</time>
      </trkpt>
      <trkpt lat="47.218196997419" lon="9.570379005745053">
        <ele>465.42000000000002</ele>
        <time>2018-09-18T09:21:53Z</time>
      </trkpt>
      <trkpt lat="47.218163972720504" lon="9.570321002975106">
        <ele>464.93000000000001</ele>
        <time>2018-09-18T09:21:54Z</time>
      </trkpt>
      <trkpt lat="47.21802500076592" lon="9.570068959146738">
        <ele>463.97000000000003</ele>
        <time>2018-09-18T09:21:59Z</time>
      </trkpt>
      <trkpt lat="47.217969009652734" lon="9.569969968870282">
        <ele>463.97000000000003</ele>
        <time>2018-09-18T09:22:01Z</time>
      </trkpt>
      <trkpt lat="47.217945037409663" lon="9.569925963878632">
        <ele>463.97000000000003</ele>
        <time>2018-09-18T09:22:02Z</time>
      </trkpt>
      <trkpt lat="47.217923998832703" lon="9.569887993857265">
        <ele>463.97000000000003</ele>
        <time>2018-09-18T09:22:03Z</time>
      </trkpt>
      <trkpt lat="47.217887034639716" lon="9.569821022450924">
        <ele>463.97000000000003</ele>
        <time>2018-09-18T09:22:04Z</time>
      </trkpt>
      <trkpt lat="47.217880999669433" lon="9.569809958338738">
        <ele>463.49000000000001</ele>
        <time>2018-09-18T09:22:05Z</time>
      </trkpt>
      <trkpt lat="47.217859961092472" lon="9.569766959175468">
        <ele>463.00999999999999</ele>
        <time>2018-09-18T09:22:06Z</time>
      </trkpt>
      <trkpt lat="47.217836994677782" lon="9.569722032174468">
        <ele>463.00999999999999</ele>
        <time>2018-09-18T09:22:07Z</time>
      </trkpt>
      <trkpt lat="47.217806987464428" lon="9.56966201774776">
        <ele>463.49000000000001</ele>
        <time>2018-09-18T09:22:08Z</time>
      </trkpt>
      <trkpt lat="47.217715037986636" lon="9.569449033588171">
        <ele>463.00999999999999</ele>
        <time>2018-09-18T09:22:11Z</time>
      </trkpt>
      <trkpt lat="47.217543041333556" lon="9.569018036127091">
        <ele>462.05000000000001</ele>
        <time>2018-09-18T09:22:16Z</time>
      </trkpt>
      <trkpt lat="47.217511022463441" lon="9.568927008658648">
        <ele>462.05000000000001</ele>
        <time>2018-09-18T09:22:17Z</time>
      </trkpt>
      <trkpt lat="47.217260990291834" lon="9.568296018987894">
        <ele>459.64999999999998</ele>
        <time>2018-09-18T09:22:24Z</time>
      </trkpt>
      <trkpt lat="47.217224026098847" lon="9.568199962377548">
        <ele>459.64999999999998</ele>
        <time>2018-09-18T09:22:25Z</time>
      </trkpt>
      <trkpt lat="47.217089999467134" lon="9.567940039560199">
        <ele>459.64999999999998</ele>
        <time>2018-09-18T09:22:28Z</time>
      </trkpt>
      <trkpt lat="47.216953039169312" lon="9.567718002945185">
        <ele>459.64999999999998</ele>
        <time>2018-09-18T09:22:31Z</time>
      </trkpt>
      <trkpt lat="47.216905010864139" lon="9.567641979083419">
        <ele>459.64999999999998</ele>
        <time>2018-09-18T09:22:32Z</time>
      </trkpt>
      <trkpt lat="47.216812977567315" lon="9.56749202683568">
        <ele>459.64999999999998</ele>
        <time>2018-09-18T09:22:34Z</time>
      </trkpt>
      <trkpt lat="47.216680040583014" lon="9.567278036847711">
        <ele>459.17000000000002</ele>
        <time>2018-09-18T09:22:37Z</time>
      </trkpt>
      <trkpt lat="47.216636035591364" lon="9.567206036299467">
        <ele>459.17000000000002</ele>
        <time>2018-09-18T09:22:38Z</time>
      </trkpt>
      <trkpt lat="47.216588007286191" lon="9.567136969417334">
        <ele>458.69</ele>
        <time>2018-09-18T09:22:39Z</time>
      </trkpt>
      <trkpt lat="47.216538973152637" lon="9.567069998010993">
        <ele>458.20999999999998</ele>
        <time>2018-09-18T09:22:40Z</time>
      </trkpt>
      <trkpt lat="47.216488011181355" lon="9.56699799746275">
        <ele>458.20999999999998</ele>
        <time>2018-09-18T09:22:41Z</time>
      </trkpt>
      <trkpt lat="47.215788038447499" lon="9.566070958971977">
        <ele>456.75999999999999</ele>
        <time>2018-09-18T09:22:50Z</time>
      </trkpt>
      <trkpt lat="47.214808026328683" lon="9.5650630351156">
        <ele>457.24000000000001</ele>
        <time>2018-09-18T09:23:00Z</time>
      </trkpt>
      <trkpt lat="47.213602960109711" lon="9.563965005800128">
        <ele>455.80000000000001</ele>
        <time>2018-09-18T09:23:11Z</time>
      </trkpt>
      <trkpt lat="47.212679022923112" lon="9.563295962288976">
        <ele>453.88</ele>
        <time>2018-09-18T09:23:19Z</time>
      </trkpt>
      <trkpt lat="47.211393993347883" lon="9.562234980985522">
        <ele>450.02999999999997</ele>
        <time>2018-09-18T09:23:31Z</time>
      </trkpt>
      <trkpt lat="47.21091597341001" lon="9.561685966327786">
        <ele>451</ele>
        <time>2018-09-18T09:23:36Z</time>
      </trkpt>
      <trkpt lat="47.210641968995333" lon="9.5612190105021">
        <ele>451.48000000000002</ele>
        <time>2018-09-18T09:23:40Z</time>
      </trkpt>
      <trkpt lat="47.210524035617709" lon="9.560963027179241">
        <ele>451.95999999999998</ele>
        <time>2018-09-18T09:23:42Z</time>
      </trkpt>
      <trkpt lat="47.209834959357977" lon="9.559079026803374">
        <ele>452.92000000000002</ele>
        <time>2018-09-18T09:23:54Z</time>
      </trkpt>
      <trkpt lat="47.209462970495224" lon="9.557912014424801">
        <ele>454.83999999999997</ele>
        <time>2018-09-18T09:24:01Z</time>
      </trkpt>
      <trkpt lat="47.209076983854175" lon="9.555833972990513">
        <ele>458.69</ele>
        <time>2018-09-18T09:24:13Z</time>
      </trkpt>
      <trkpt lat="47.208837009966373" lon="9.554206039756537">
        <ele>458.69</ele>
        <time>2018-09-18T09:24:22Z</time>
      </trkpt>
      <trkpt lat="47.208452029153705" lon="9.552308041602373">
        <ele>458.20999999999998</ele>
        <time>2018-09-18T09:24:33Z</time>
      </trkpt>
      <trkpt lat="47.207920029759407" lon="9.550874987617135">
        <ele>458.69</ele>
        <time>2018-09-18T09:24:42Z</time>
      </trkpt>
      <trkpt lat="47.206973964348435" lon="9.549451991915703">
        <ele>456.27999999999997</ele>
        <time>2018-09-18T09:24:53Z</time>
      </trkpt>
      <trkpt lat="47.205976014956832" lon="9.548367960378528">
        <ele>455.31999999999999</ele>
        <time>2018-09-18T09:25:03Z</time>
      </trkpt>
      <trkpt lat="47.204740019515157" lon="9.547105981037021">
        <ele>456.75999999999999</ele>
        <time>2018-09-18T09:25:15Z</time>
      </trkpt>
      <trkpt lat="47.203510981053114" lon="9.546237029135227">
        <ele>456.75999999999999</ele>
        <time>2018-09-18T09:25:26Z</time>
      </trkpt>
      <trkpt lat="47.202094020321965" lon="9.545585000887513">
        <ele>456.75999999999999</ele>
        <time>2018-09-18T09:25:38Z</time>
      </trkpt>
      <trkpt lat="47.200938994064927" lon="9.545133970677853">
        <ele>457.72000000000003</ele>
        <time>2018-09-18T09:25:49Z</time>
      </trkpt>
      <trkpt lat="47.200804967433214" lon="9.545047972351313">
        <ele>458.20999999999998</ele>
        <time>2018-09-18T09:25:53Z</time>
      </trkpt>
      <trkpt lat="47.200804967433214" lon="9.545047972351313">
        <ele>458.69</ele>
        <time>2018-09-18T09:26:05Z</time>
      </trkpt>
      <trkpt lat="47.200763979926705" lon="9.5450209826231">
        <ele>459.17000000000002</ele>
        <time>2018-09-18T09:26:18Z</time>
      </trkpt>
      <trkpt lat="47.20030196942389" lon="9.544671960175037">
        <ele>459.64999999999998</ele>
        <time>2018-09-18T09:26:24Z</time>
      </trkpt>
      <trkpt lat="47.199174016714096" lon="9.543634029105306">
        <ele>458.69</ele>
        <time>2018-09-18T09:26:36Z</time>
      </trkpt>
      <trkpt lat="47.198379999026656" lon="9.542876975610852">
        <ele>459.17000000000002</ele>
        <time>2018-09-18T09:26:44Z</time>
      </trkpt>
      <trkpt lat="47.198274973779917" lon="9.542787037789822">
        <ele>459.17000000000002</ele>
        <time>2018-09-18T09:26:45Z</time>
      </trkpt>
      <trkpt lat="47.197637027129531" lon="9.542232993990183">
        <ele>463.00999999999999</ele>
        <time>2018-09-18T09:26:51Z</time>
      </trkpt>
      <trkpt lat="47.19752999022603" lon="9.542138027027249">
        <ele>464.93000000000001</ele>
        <time>2018-09-18T09:26:52Z</time>
      </trkpt>
      <trkpt lat="47.196415029466152" lon="9.541349960491061">
        <ele>471.66000000000003</ele>
        <time>2018-09-18T09:27:02Z</time>
      </trkpt>
      <trkpt lat="47.195195965468884" lon="9.540469022467732">
        <ele>469.74000000000001</ele>
        <time>2018-09-18T09:27:13Z</time>
      </trkpt>
      <trkpt lat="47.194713000208139" lon="9.540210021659732">
        <ele>470.22000000000003</ele>
        <time>2018-09-18T09:27:17Z</time>
      </trkpt>
      <trkpt lat="47.193268965929747" lon="9.539844989776611">
        <ele>468.30000000000001</ele>
        <time>2018-09-18T09:27:29Z</time>
      </trkpt>
      <trkpt lat="47.192024001851678" lon="9.539909027516842">
        <ele>467.81999999999999</ele>
        <time>2018-09-18T09:27:37Z</time>
      </trkpt>
      <trkpt lat="47.190066995099187" lon="9.539997959509492">
        <ele>464.44999999999999</ele>
        <time>2018-09-18T09:27:47Z</time>
      </trkpt>
      <trkpt lat="47.188928984105587" lon="9.539506025612354">
        <ele>459.64999999999998</ele>
        <time>2018-09-18T09:27:53Z</time>
      </trkpt>
      <trkpt lat="47.18783900141716" lon="9.53831696882844">
        <ele>457.24000000000001</ele>
        <time>2018-09-18T09:28:00Z</time>
      </trkpt>
      <trkpt lat="47.186154993250966" lon="9.535939022898674">
        <ele>454.83999999999997</ele>
        <time>2018-09-18T09:28:12Z</time>
      </trkpt>
      <trkpt lat="47.185329040512443" lon="9.533988973125815">
        <ele>456.75999999999999</ele>
        <time>2018-09-18T09:28:20Z</time>
      </trkpt>
      <trkpt lat="47.184589002281427" lon="9.531020019203425">
        <ele>458.20999999999998</ele>
        <time>2018-09-18T09:28:31Z</time>
      </trkpt>
      <trkpt lat="47.183880982920527" lon="9.528452977538109">
        <ele>459.64999999999998</ele>
        <time>2018-09-18T09:28:41Z</time>
      </trkpt>
      <trkpt lat="47.183297015726566" lon="9.52707801014185">
        <ele>461.08999999999997</ele>
        <time>2018-09-18T09:28:49Z</time>
      </trkpt>
      <trkpt lat="47.182304011657834" lon="9.525414034724236">
        <ele>462.52999999999997</ele>
        <time>2018-09-18T09:29:00Z</time>
      </trkpt>
      <trkpt lat="47.18128502368927" lon="9.524164041504264">
        <ele>463.49000000000001</ele>
        <time>2018-09-18T09:29:11Z</time>
      </trkpt>
      <trkpt lat="47.180155981332064" lon="9.523218981921673">
        <ele>463.97000000000003</ele>
        <time>2018-09-18T09:29:21Z</time>
      </trkpt>
      <trkpt lat="47.178890984505415" lon="9.522467963397503">
        <ele>466.38</ele>
        <time>2018-09-18T09:29:32Z</time>
      </trkpt>
      <trkpt lat="47.178739020600915" lon="9.52235103584826">
        <ele>466.86000000000001</ele>
        <time>2018-09-18T09:29:35Z</time>
      </trkpt>
      <trkpt lat="47.178704990074039" lon="9.522325973957777">
        <ele>466.86000000000001</ele>
        <time>2018-09-18T09:29:36Z</time>
      </trkpt>
      <trkpt lat="47.178675988689065" lon="9.522306025028229">
        <ele>466.86000000000001</ele>
        <time>2018-09-18T09:29:37Z</time>
      </trkpt>
      <trkpt lat="47.178647993132472" lon="9.522285992279649">
        <ele>466.86000000000001</ele>
        <time>2018-09-18T09:29:38Z</time>
      </trkpt>
      <trkpt lat="47.178618991747499" lon="9.522056998685002">
        <ele>467.33999999999997</ele>
        <time>2018-09-18T09:29:39Z</time>
      </trkpt>
      <trkpt lat="47.178587978705764" lon="9.522013999521732">
        <ele>466.86000000000001</ele>
        <time>2018-09-18T09:29:41Z</time>
      </trkpt>
      <trkpt lat="47.1785550378263" lon="9.521971000358462">
        <ele>466.86000000000001</ele>
        <time>2018-09-18T09:29:42Z</time>
      </trkpt>
      <trkpt lat="47.178473984822631" lon="9.521971000358462">
        <ele>466.86000000000001</ele>
        <time>2018-09-18T09:29:43Z</time>
      </trkpt>
      <trkpt lat="47.17842604033649" lon="9.521971000358462">
        <ele>466.86000000000001</ele>
        <time>2018-09-18T09:29:44Z</time>
      </trkpt>
      <trkpt lat="47.178389998152852" lon="9.522055992856622">
        <ele>466.86000000000001</ele>
        <time>2018-09-18T09:29:45Z</time>
      </trkpt>
      <trkpt lat="47.178282039240003" lon="9.522121036425233">
        <ele>466.38</ele>
        <time>2018-09-18T09:29:47Z</time>
      </trkpt>
      <trkpt lat="47.178097972646356" lon="9.522094968706369">
        <ele>466.38</ele>
        <time>2018-09-18T09:29:48Z</time>
      </trkpt>
      <trkpt lat="47.177996970713139" lon="9.522059010341764">
        <ele>466.86000000000001</ele>
        <time>2018-09-18T09:29:49Z</time>
      </trkpt>
      <trkpt lat="47.177887000143528" lon="9.522018022835255">
        <ele>466.86000000000001</ele>
        <time>2018-09-18T09:29:50Z</time>
      </trkpt>
      <trkpt lat="47.176662990823388" lon="9.521474037319422">
        <ele>468.30000000000001</ele>
        <time>2018-09-18T09:29:59Z</time>
      </trkpt>
      <trkpt lat="47.174643035978079" lon="9.520636014640331">
        <ele>470.69999999999999</ele>
        <time>2018-09-18T09:30:15Z</time>
      </trkpt>
      <trkpt lat="47.172998003661633" lon="9.519861023873091">
        <ele>470.69999999999999</ele>
        <time>2018-09-18T09:30:29Z</time>
      </trkpt>
      <trkpt lat="47.171978009864688" lon="9.518843041732907">
        <ele>469.74000000000001</ele>
        <time>2018-09-18T09:30:40Z</time>
      </trkpt>
      <trkpt lat="47.170913005247712" lon="9.517355002462864">
        <ele>467.81999999999999</ele>
        <time>2018-09-18T09:30:53Z</time>
      </trkpt>
      <trkpt lat="47.170770009979606" lon="9.517084015533328">
        <ele>468.30000000000001</ele>
        <time>2018-09-18T09:30:55Z</time>
      </trkpt>
      <trkpt lat="47.170705972239375" lon="9.51693800278008">
        <ele>468.77999999999997</ele>
        <time>2018-09-18T09:30:56Z</time>
      </trkpt>
      <trkpt lat="47.170189982280135" lon="9.515693038702011">
        <ele>469.25999999999999</ele>
        <time>2018-09-18T09:31:05Z</time>
      </trkpt>
      <trkpt lat="47.169406022876501" lon="9.514498030766845">
        <ele>466.38</ele>
        <time>2018-09-18T09:31:15Z</time>
      </trkpt>
      <trkpt lat="47.169033028185368" lon="9.513829993084073">
        <ele>465.89999999999998</ele>
        <time>2018-09-18T09:31:20Z</time>
      </trkpt>
      <trkpt lat="47.168386029079556" lon="9.512513028457761">
        <ele>464.93000000000001</ele>
        <time>2018-09-18T09:31:30Z</time>
      </trkpt>
      <trkpt lat="47.168075982481241" lon="9.511681040748954">
        <ele>462.05000000000001</ele>
        <time>2018-09-18T09:31:37Z</time>
      </trkpt>
      <trkpt lat="47.168024014681578" lon="9.511559000238776">
        <ele>462.52999999999997</ele>
        <time>2018-09-18T09:31:38Z</time>
      </trkpt>
      <trkpt lat="47.167971963062882" lon="9.51143603771925">
        <ele>462.52999999999997</ele>
        <time>2018-09-18T09:31:39Z</time>
      </trkpt>
      <trkpt lat="47.167868027463555" lon="9.511191034689546">
        <ele>462.52999999999997</ele>
        <time>2018-09-18T09:31:41Z</time>
      </trkpt>
      <trkpt lat="47.167608020827174" lon="9.510702034458518">
        <ele>461.08999999999997</ele>
        <time>2018-09-18T09:31:46Z</time>
      </trkpt>
      <trkpt lat="47.167568961158395" lon="9.510632967576385">
        <ele>460.13</ele>
        <time>2018-09-18T09:31:47Z</time>
      </trkpt>
      <trkpt lat="47.16755697503686" lon="9.510497013106942">
        <ele>459.17000000000002</ele>
        <time>2018-09-18T09:31:48Z</time>
      </trkpt>
      <trkpt lat="47.167594023048878" lon="9.510426018387079">
        <ele>458.69</ele>
        <time>2018-09-18T09:31:49Z</time>
      </trkpt>
      <trkpt lat="47.1676429733634" lon="9.510333985090256">
        <ele>457.72000000000003</ele>
        <time>2018-09-18T09:31:50Z</time>
      </trkpt>
      <trkpt lat="47.167704999446869" lon="9.510214040055871">
        <ele>456.75999999999999</ele>
        <time>2018-09-18T09:31:51Z</time>
      </trkpt>
      <trkpt lat="47.167774988338351" lon="9.510082025080919">
        <ele>455.80000000000001</ele>
        <time>2018-09-18T09:31:52Z</time>
      </trkpt>
      <trkpt lat="47.167843971401453" lon="9.509952021762729">
        <ele>454.83999999999997</ele>
        <time>2018-09-18T09:31:53Z</time>
      </trkpt>
      <trkpt lat="47.168006999418139" lon="9.509578021243215">
        <ele>453.39999999999998</ele>
        <time>2018-09-18T09:31:56Z</time>
      </trkpt>
      <trkpt lat="47.168026026338339" lon="9.509463021531701">
        <ele>453.39999999999998</ele>
        <time>2018-09-18T09:31:57Z</time>
      </trkpt>
      <trkpt lat="47.168043963611126" lon="9.509357996284962">
        <ele>452.92000000000002</ele>
        <time>2018-09-18T09:31:58Z</time>
      </trkpt>
      <trkpt lat="47.168061984702945" lon="9.509240984916687">
        <ele>452.44</ele>
        <time>2018-09-18T09:31:59Z</time>
      </trkpt>
      <trkpt lat="47.168052010238171" lon="9.509143000468612">
        <ele>452.44</ele>
        <time>2018-09-18T09:32:00Z</time>
      </trkpt>
      <trkpt lat="47.167971041053534" lon="9.509018026292324">
        <ele>452.44</ele>
        <time>2018-09-18T09:32:01Z</time>
      </trkpt>
      <trkpt lat="47.167905997484922" lon="9.509004028514028">
        <ele>451.95999999999998</ele>
        <time>2018-09-18T09:32:02Z</time>
      </trkpt>
      <trkpt lat="47.167829973623157" lon="9.50898801907897">
        <ele>451.95999999999998</ele>
        <time>2018-09-18T09:32:03Z</time>
      </trkpt>
      <trkpt lat="47.1677500102669" lon="9.508972009643912">
        <ele>451.48000000000002</ele>
        <time>2018-09-18T09:32:04Z</time>
      </trkpt>
      <trkpt lat="47.167670968919992" lon="9.508954994380474">
        <ele>451</ele>
        <time>2018-09-18T09:32:05Z</time>
      </trkpt>
      <trkpt lat="47.16727601364255" lon="9.508878970518708">
        <ele>450.51999999999998</ele>
        <time>2018-09-18T09:32:10Z</time>
      </trkpt>
      <trkpt lat="47.167200995609164" lon="9.508866984397173">
        <ele>450.51999999999998</ele>
        <time>2018-09-18T09:32:11Z</time>
      </trkpt>
      <trkpt lat="47.16712698340416" lon="9.508854998275638">
        <ele>450.51999999999998</ele>
        <time>2018-09-18T09:32:12Z</time>
      </trkpt>
      <trkpt lat="47.167054982855916" lon="9.508843012154102">
        <ele>451</ele>
        <time>2018-09-18T09:32:13Z</time>
      </trkpt>
      <trkpt lat="47.166979964822531" lon="9.508830020204186">
        <ele>451.48000000000002</ele>
        <time>2018-09-18T09:32:14Z</time>
      </trkpt>
      <trkpt lat="47.166904024779797" lon="9.508817028254271">
        <ele>451.95999999999998</ele>
        <time>2018-09-18T09:32:15Z</time>
      </trkpt>
      <trkpt lat="47.166603030636907" lon="9.50868702493608">
        <ele>452.44</ele>
        <time>2018-09-18T09:32:19Z</time>
      </trkpt>
      <trkpt lat="47.166527006775141" lon="9.508638996630907">
        <ele>451.95999999999998</ele>
        <time>2018-09-18T09:32:20Z</time>
      </trkpt>
      <trkpt lat="47.165663000196218" lon="9.508089981973171">
        <ele>449.06999999999999</ele>
        <time>2018-09-18T09:32:31Z</time>
      </trkpt>
      <trkpt lat="47.165014995262027" lon="9.507852019742131">
        <ele>449.06999999999999</ele>
        <time>2018-09-18T09:32:40Z</time>
      </trkpt>
      <trkpt lat="47.164136990904808" lon="9.507815977558494">
        <ele>446.19</ele>
        <time>2018-09-18T09:32:51Z</time>
      </trkpt>
      <trkpt lat="47.163890982046723" lon="9.507780019193888">
        <ele>443.79000000000002</ele>
        <time>2018-09-18T09:32:55Z</time>
      </trkpt>
      <trkpt lat="47.163426959887147" lon="9.507727967575193">
        <ele>442.81999999999999</ele>
        <time>2018-09-18T09:33:01Z</time>
      </trkpt>
      <trkpt lat="47.163186985999346" lon="9.507794016972184">
        <ele>442.33999999999997</ele>
        <time>2018-09-18T09:33:06Z</time>
      </trkpt>
      <trkpt lat="47.16310903429985" lon="9.508227026090026">
        <ele>443.31</ele>
        <time>2018-09-18T09:33:13Z</time>
      </trkpt>
      <trkpt lat="47.163097970187664" lon="9.508556015789509">
        <ele>443.79000000000002</ele>
        <time>2018-09-18T09:33:15Z</time>
      </trkpt>
      <trkpt lat="47.163078021258116" lon="9.50855802744627">
        <ele>443.79000000000002</ele>
        <time>2018-09-18T09:33:16Z</time>
      </trkpt>
      <trkpt lat="47.163043990731239" lon="9.508560039103031">
        <ele>444.26999999999998</ele>
        <time>2018-09-18T09:33:17Z</time>
      </trkpt>
      <trkpt lat="47.162997974082828" lon="9.508563978597522">
        <ele>444.75</ele>
        <time>2018-09-18T09:33:18Z</time>
      </trkpt>
      <trkpt lat="47.162940977141261" lon="9.508568001911044">
        <ele>445.23000000000002</ele>
        <time>2018-09-18T09:33:19Z</time>
      </trkpt>
      <trkpt lat="47.162877023220062" lon="9.508573031052947">
        <ele>445.23000000000002</ele>
        <time>2018-09-18T09:33:20Z</time>
      </trkpt>
      <trkpt lat="47.162654986605048" lon="9.508592979982495">
        <ele>445.70999999999998</ele>
        <time>2018-09-18T09:33:23Z</time>
      </trkpt>
      <trkpt lat="47.162150982767344" lon="9.508648971095681">
        <ele>445.70999999999998</ele>
        <time>2018-09-18T09:33:29Z</time>
      </trkpt>
      <trkpt lat="47.162090968340635" lon="9.508656011894345">
        <ele>445.70999999999998</ele>
        <time>2018-09-18T09:33:30Z</time>
      </trkpt>
      <trkpt lat="47.161782011389732" lon="9.508690964430571">
        <ele>445.23000000000002</ele>
        <time>2018-09-18T09:33:38Z</time>
      </trkpt>
      <trkpt lat="47.161738006398082" lon="9.508699011057615">
        <ele>445.23000000000002</ele>
        <time>2018-09-18T09:33:39Z</time>
      </trkpt>
      <trkpt lat="47.161035016179085" lon="9.508819961920381">
        <ele>446.67000000000002</ele>
        <time>2018-09-18T09:33:50Z</time>
      </trkpt>
      <trkpt lat="47.160434033721685" lon="9.508977960795164">
        <ele>448.58999999999997</ele>
        <time>2018-09-18T09:33:57Z</time>
      </trkpt>
      <trkpt lat="47.160349963232875" lon="9.509000005200505">
        <ele>448.58999999999997</ele>
        <time>2018-09-18T09:33:58Z</time>
      </trkpt>
      <trkpt lat="47.159662982448936" lon="9.509179964661598">
        <ele>449.55000000000001</ele>
        <time>2018-09-18T09:34:06Z</time>
      </trkpt>
      <trkpt lat="47.159577989950776" lon="9.509202009066939">
        <ele>449.06999999999999</ele>
        <time>2018-09-18T09:34:07Z</time>
      </trkpt>
      <trkpt lat="47.15950096026063" lon="9.509222963824868">
        <ele>448.58999999999997</ele>
        <time>2018-09-18T09:34:08Z</time>
      </trkpt>
      <trkpt lat="47.159431977197528" lon="9.509240984916687">
        <ele>448.11000000000001</ele>
        <time>2018-09-18T09:34:09Z</time>
      </trkpt>
      <trkpt lat="47.159367017447948" lon="9.509258000180125">
        <ele>448.11000000000001</ele>
        <time>2018-09-18T09:34:10Z</time>
      </trkpt>
      <trkpt lat="47.15930599719286" lon="9.509274009615183">
        <ele>447.63</ele>
        <time>2018-09-18T09:34:11Z</time>
      </trkpt>
      <trkpt lat="47.159244976937771" lon="9.509290019050241">
        <ele>447.14999999999998</ele>
        <time>2018-09-18T09:34:12Z</time>
      </trkpt>
      <trkpt lat="47.158954041078687" lon="9.509366964921355">
        <ele>446.19</ele>
        <time>2018-09-18T09:34:16Z</time>
      </trkpt>
      <trkpt lat="47.15887701138854" lon="9.509386997669935">
        <ele>446.19</ele>
        <time>2018-09-18T09:34:17Z</time>
      </trkpt>
      <trkpt lat="47.158086011186242" lon="9.509605010971427">
        <ele>449.55000000000001</ele>
        <time>2018-09-18T09:34:27Z</time>
      </trkpt>
      <trkpt lat="47.157466001808643" lon="9.509627977386117">
        <ele>451.95999999999998</ele>
        <time>2018-09-18T09:34:35Z</time>
      </trkpt>
      <trkpt lat="47.157425014302135" lon="9.509628983214498">
        <ele>452.44</ele>
        <time>2018-09-18T09:34:36Z</time>
      </trkpt>
      <trkpt lat="47.157200966030359" lon="9.509637029841542">
        <ele>454.83999999999997</ele>
        <time>2018-09-18T09:34:46Z</time>
      </trkpt>
      <trkpt lat="47.157090995460749" lon="9.509640969336033">
        <ele>457.24000000000001</ele>
        <time>2018-09-18T09:35:01Z</time>
      </trkpt>
      <trkpt lat="47.156891003251076" lon="9.509649015963078">
        <ele>458.20999999999998</ele>
        <time>2018-09-18T09:35:16Z</time>
      </trkpt>
      <trkpt lat="47.156178960576653" lon="9.509952021762729">
        <ele>459.17000000000002</ele>
        <time>2018-09-18T09:35:25Z</time>
      </trkpt>
      <trkpt lat="47.155299028381705" lon="9.510372038930655">
        <ele>463.97000000000003</ele>
        <time>2018-09-18T09:35:35Z</time>
      </trkpt>
      <trkpt lat="47.154952017590404" lon="9.510444961488247">
        <ele>465.42000000000002</ele>
        <time>2018-09-18T09:35:39Z</time>
      </trkpt>
      <trkpt lat="47.154853027313948" lon="9.510466000065208">
        <ele>466.38</ele>
        <time>2018-09-18T09:35:40Z</time>
      </trkpt>
      <trkpt lat="47.153845019638538" lon="9.51066599227488">
        <ele>471.66000000000003</ele>
        <time>2018-09-18T09:35:50Z</time>
      </trkpt>
      <trkpt lat="47.153663970530033" lon="9.510712008923292">
        <ele>472.13999999999999</ele>
        <time>2018-09-18T09:35:52Z</time>
      </trkpt>
      <trkpt lat="47.153575038537383" lon="9.510735981166363">
        <ele>472.63</ele>
        <time>2018-09-18T09:35:53Z</time>
      </trkpt>
      <trkpt lat="47.152543980628252" lon="9.510990958660841">
        <ele>473.58999999999997</ele>
        <time>2018-09-18T09:36:04Z</time>
      </trkpt>
      <trkpt lat="47.152330996468663" lon="9.511049967259169">
        <ele>472.63</ele>
        <time>2018-09-18T09:36:07Z</time>
      </trkpt>
      <trkpt lat="47.152268970385194" lon="9.511070000007749">
        <ele>472.63</ele>
        <time>2018-09-18T09:36:08Z</time>
      </trkpt>
      <trkpt lat="47.152263019233942" lon="9.511226993054152">
        <ele>472.13999999999999</ele>
        <time>2018-09-18T09:36:09Z</time>
      </trkpt>
      <trkpt lat="47.152257990092039" lon="9.511342998594046">
        <ele>472.63</ele>
        <time>2018-09-18T09:36:10Z</time>
      </trkpt>
      <trkpt lat="47.152252038940787" lon="9.511466966941953">
        <ele>473.11000000000001</ele>
        <time>2018-09-18T09:36:11Z</time>
      </trkpt>
      <trkpt lat="47.152232006192207" lon="9.51160904020071">
        <ele>474.06999999999999</ele>
        <time>2018-09-18T09:36:12Z</time>
      </trkpt>
      <trkpt lat="47.152188001200557" lon="9.511735020205379">
        <ele>474.55000000000001</ele>
        <time>2018-09-18T09:36:13Z</time>
      </trkpt>
      <trkpt lat="47.152095967903733" lon="9.51199603267014">
        <ele>475.99000000000001</ele>
        <time>2018-09-18T09:36:15Z</time>
      </trkpt>
      <trkpt lat="47.151372022926807" lon="9.512995993718505">
        <ele>482.72000000000003</ele>
        <time>2018-09-18T09:36:25Z</time>
      </trkpt>
      <trkpt lat="47.150602983310819" lon="9.513982040807605">
        <ele>488.49000000000001</ele>
        <time>2018-09-18T09:36:34Z</time>
      </trkpt>
      <trkpt lat="47.150514973327518" lon="9.514093017205596">
        <ele>489.44999999999999</ele>
        <time>2018-09-18T09:36:35Z</time>
      </trkpt>
      <trkpt lat="47.149622971192002" lon="9.515017960220575">
        <ele>495.22000000000003</ele>
        <time>2018-09-18T09:36:45Z</time>
      </trkpt>
      <trkpt lat="47.148671038448811" lon="9.515537973493338">
        <ele>496.66000000000003</ele>
        <time>2018-09-18T09:36:55Z</time>
      </trkpt>
      <trkpt lat="47.148331990465522" lon="9.515720028430224">
        <ele>495.69999999999999</ele>
        <time>2018-09-18T09:37:00Z</time>
      </trkpt>
      <trkpt lat="47.148297959938645" lon="9.515736037865281">
        <ele>495.69999999999999</ele>
        <time>2018-09-18T09:37:01Z</time>
      </trkpt>
      <trkpt lat="47.148280022665858" lon="9.515742994844914">
        <ele>495.22000000000003</ele>
        <time>2018-09-18T09:37:02Z</time>
      </trkpt>
      <trkpt lat="47.147957989946008" lon="9.515939969569445">
        <ele>495.22000000000003</ele>
        <time>2018-09-18T09:37:09Z</time>
      </trkpt>
      <trkpt lat="47.147794961929321" lon="9.516049018129706">
        <ele>494.74000000000001</ele>
        <time>2018-09-18T09:37:11Z</time>
      </trkpt>
      <trkpt lat="47.147019971162081" lon="9.51687203720212">
        <ele>494.74000000000001</ele>
        <time>2018-09-18T09:37:20Z</time>
      </trkpt>
      <trkpt lat="47.146170968189836" lon="9.518233006820083">
        <ele>497.62</ele>
        <time>2018-09-18T09:37:31Z</time>
      </trkpt>
      <trkpt lat="47.146091004833579" lon="9.518353035673499">
        <ele>497.62</ele>
        <time>2018-09-18T09:37:32Z</time>
      </trkpt>
      <trkpt lat="47.146010035648942" lon="9.518473986536264">
        <ele>498.10000000000002</ele>
        <time>2018-09-18T09:37:33Z</time>
      </trkpt>
      <trkpt lat="47.145937029272318" lon="9.518588986247778">
        <ele>498.10000000000002</ele>
        <time>2018-09-18T09:37:34Z</time>
      </trkpt>
      <trkpt lat="47.145889000967145" lon="9.518738016486168">
        <ele>498.57999999999998</ele>
        <time>2018-09-18T09:37:35Z</time>
      </trkpt>
      <trkpt lat="47.145841978490353" lon="9.518885035067797">
        <ele>499.54000000000002</ele>
        <time>2018-09-18T09:37:36Z</time>
      </trkpt>
      <trkpt lat="47.145795039832592" lon="9.519031969830394">
        <ele>500.01999999999998</ele>
        <time>2018-09-18T09:37:37Z</time>
      </trkpt>
      <trkpt lat="47.145747011527419" lon="9.519181000068784">
        <ele>500.98000000000002</ele>
        <time>2018-09-18T09:37:38Z</time>
      </trkpt>
      <trkpt lat="47.145277038216591" lon="9.520666021853685">
        <ele>506.26999999999998</ele>
        <time>2018-09-18T09:37:48Z</time>
      </trkpt>
      <trkpt lat="47.1450209710747" lon="9.521576967090368">
        <ele>510.12</ele>
        <time>2018-09-18T09:37:55Z</time>
      </trkpt>
      <trkpt lat="47.144994987174869" lon="9.521670006215572">
        <ele>510.60000000000002</ele>
        <time>2018-09-18T09:37:56Z</time>
      </trkpt>
      <trkpt lat="47.14497403241694" lon="9.521949039772153">
        <ele>511.56</ele>
        <time>2018-09-18T09:37:58Z</time>
      </trkpt>
      <trkpt lat="47.14497403241694" lon="9.522084994241595">
        <ele>512.03999999999996</ele>
        <time>2018-09-18T09:37:59Z</time>
      </trkpt>
      <trkpt lat="47.145070005208254" lon="9.523068023845553">
        <ele>516.37</ele>
        <time>2018-09-18T09:38:06Z</time>
      </trkpt>
      <trkpt lat="47.145047960802913" lon="9.523199032992125">
        <ele>517.33000000000004</ele>
        <time>2018-09-18T09:38:07Z</time>
      </trkpt>
      <trkpt lat="47.144990963861346" lon="9.523321995511651">
        <ele>518.28999999999996</ele>
        <time>2018-09-18T09:38:08Z</time>
      </trkpt>
      <trkpt lat="47.144924998283386" lon="9.523410005494952">
        <ele>519.25</ele>
        <time>2018-09-18T09:38:09Z</time>
      </trkpt>
      <trkpt lat="47.144833970814943" lon="9.523445041850209">
        <ele>519.73000000000002</ele>
        <time>2018-09-18T09:38:10Z</time>
      </trkpt>
      <trkpt lat="47.144744032993913" lon="9.523450993001461">
        <ele>520.69000000000005</ele>
        <time>2018-09-18T09:38:11Z</time>
      </trkpt>
      <trkpt lat="47.14465300552547" lon="9.523450993001461">
        <ele>521.64999999999998</ele>
        <time>2018-09-18T09:38:12Z</time>
      </trkpt>
      <trkpt lat="47.144558960571885" lon="9.523450993001461">
        <ele>522.61000000000001</ele>
        <time>2018-09-18T09:38:13Z</time>
      </trkpt>
      <trkpt lat="47.144379001110792" lon="9.523450993001461">
        <ele>524.05999999999995</ele>
        <time>2018-09-18T09:38:15Z</time>
      </trkpt>
      <trkpt lat="47.144308006390929" lon="9.523473959416151">
        <ele>525.01999999999998</ele>
        <time>2018-09-18T09:38:16Z</time>
      </trkpt>
      <trkpt lat="47.144229970872402" lon="9.523515030741692">
        <ele>525.5</ele>
        <time>2018-09-18T09:38:17Z</time>
      </trkpt>
      <trkpt lat="47.144146990031004" lon="9.523558029904962">
        <ele>525.5</ele>
        <time>2018-09-18T09:38:18Z</time>
      </trkpt>
      <trkpt lat="47.144061997532845" lon="9.523603040724993">
        <ele>525.98000000000002</ele>
        <time>2018-09-18T09:38:19Z</time>
      </trkpt>
      <trkpt lat="47.143972981721163" lon="9.523649979382753">
        <ele>526.46000000000004</ele>
        <time>2018-09-18T09:38:20Z</time>
      </trkpt>
      <trkpt lat="47.143883965909481" lon="9.523700019344688">
        <ele>526.94000000000005</ele>
        <time>2018-09-18T09:38:21Z</time>
      </trkpt>
      <trkpt lat="47.143712975084782" lon="9.523830022662878">
        <ele>527.89999999999998</ele>
        <time>2018-09-18T09:38:23Z</time>
      </trkpt>
      <trkpt lat="47.143627982586622" lon="9.523893976584077">
        <ele>528.86000000000001</ele>
        <time>2018-09-18T09:38:24Z</time>
      </trkpt>
      <trkpt lat="47.143540978431702" lon="9.523960025981069">
        <ele>529.34000000000003</ele>
        <time>2018-09-18T09:38:25Z</time>
      </trkpt>
      <trkpt lat="47.143018031492829" lon="9.524311982095242">
        <ele>534.14999999999998</ele>
        <time>2018-09-18T09:38:31Z</time>
      </trkpt>
      <trkpt lat="47.14293303899467" lon="9.524336038157344">
        <ele>535.11000000000001</ele>
        <time>2018-09-18T09:38:32Z</time>
      </trkpt>
      <trkpt lat="47.142757019028068" lon="9.524361016228795">
        <ele>536.54999999999995</ele>
        <time>2018-09-18T09:38:34Z</time>
      </trkpt>
      <trkpt lat="47.141475006937981" lon="9.524454977363348">
        <ele>548.57000000000005</ele>
        <time>2018-09-18T09:38:47Z</time>
      </trkpt>
      <trkpt lat="47.141110980883241" lon="9.52448096126318">
        <ele>550.97000000000003</ele>
        <time>2018-09-18T09:38:51Z</time>
      </trkpt>
      <trkpt lat="47.140994975343347" lon="9.524460006505251">
        <ele>551.45000000000005</ele>
        <time>2018-09-18T09:38:52Z</time>
      </trkpt>
      <trkpt lat="47.140913000330329" lon="9.524445002898574">
        <ele>551.92999999999995</ele>
        <time>2018-09-18T09:38:53Z</time>
      </trkpt>
      <trkpt lat="47.140856003388762" lon="9.524425975978375">
        <ele>552.40999999999997</ele>
        <time>2018-09-18T09:38:54Z</time>
      </trkpt>
      <trkpt lat="47.140805963426828" lon="9.52439202927053">
        <ele>552.89999999999998</ele>
        <time>2018-09-18T09:38:55Z</time>
      </trkpt>
      <trkpt lat="47.140760030597448" lon="9.524361016228795">
        <ele>553.38</ele>
        <time>2018-09-18T09:38:56Z</time>
      </trkpt>
      <trkpt lat="47.140710996463895" lon="9.52432899735868">
        <ele>553.86000000000001</ele>
        <time>2018-09-18T09:38:57Z</time>
      </trkpt>
      <trkpt lat="47.140666991472244" lon="9.524299995973706">
        <ele>554.34000000000003</ele>
        <time>2018-09-18T09:38:58Z</time>
      </trkpt>
      <trkpt lat="47.140629021450877" lon="9.524274012073875">
        <ele>554.34000000000003</ele>
        <time>2018-09-18T09:38:59Z</time>
      </trkpt>
      <trkpt lat="47.140618041157722" lon="9.52426697127521">
        <ele>554.34000000000003</ele>
        <time>2018-09-18T09:39:00Z</time>
      </trkpt>
      <trkpt lat="47.140575964003801" lon="9.524301001802087">
        <ele>554.82000000000005</ele>
        <time>2018-09-18T09:39:01Z</time>
      </trkpt>
      <trkpt lat="47.140542017295957" lon="9.524326985701919">
        <ele>555.29999999999995</ele>
        <time>2018-09-18T09:39:02Z</time>
      </trkpt>
      <trkpt lat="47.140511004254222" lon="9.52435296960175">
        <ele>555.77999999999997</ele>
        <time>2018-09-18T09:39:03Z</time>
      </trkpt>
      <trkpt lat="47.140502035617828" lon="9.524405021220446">
        <ele>556.25999999999999</ele>
        <time>2018-09-18T09:39:04Z</time>
      </trkpt>
      <trkpt lat="47.140488959848881" lon="9.52448096126318">
        <ele>557.22000000000003</ele>
        <time>2018-09-18T09:39:05Z</time>
      </trkpt>
      <trkpt lat="47.140497006475925" lon="9.524512980133295">
        <ele>557.70000000000005</ele>
        <time>2018-09-18T09:39:06Z</time>
      </trkpt>
      <trkpt lat="47.140511004254222" lon="9.52456695958972">
        <ele>558.65999999999997</ele>
        <time>2018-09-18T09:39:07Z</time>
      </trkpt>
      <trkpt lat="47.140543023124337" lon="9.524582969024777">
        <ele>559.62</ele>
        <time>2018-09-18T09:39:08Z</time>
      </trkpt>
      <trkpt lat="47.140594990924001" lon="9.524609036743641">
        <ele>560.11000000000001</ele>
        <time>2018-09-18T09:39:09Z</time>
      </trkpt>
      <trkpt lat="47.140651987865567" lon="9.524638038128614">
        <ele>561.07000000000005</ele>
        <time>2018-09-18T09:39:10Z</time>
      </trkpt>
      <trkpt lat="47.140705967321992" lon="9.524665027856827">
        <ele>561.54999999999995</ele>
        <time>2018-09-18T09:39:11Z</time>
      </trkpt>
      <trkpt lat="47.140758018940687" lon="9.524691011756659">
        <ele>562.02999999999997</ele>
        <time>2018-09-18T09:39:12Z</time>
      </trkpt>
      <trkpt lat="47.140800012275577" lon="9.524711966514587">
        <ele>562.50999999999999</ele>
        <time>2018-09-18T09:39:13Z</time>
      </trkpt>
      <trkpt lat="47.140858015045524" lon="9.524764018133283">
        <ele>562.99000000000001</ele>
        <time>2018-09-18T09:39:14Z</time>
      </trkpt>
      <trkpt lat="47.140831025317311" lon="9.52491195872426">
        <ele>563.47000000000003</ele>
        <time>2018-09-18T09:39:15Z</time>
      </trkpt>
      <trkpt lat="47.140810992568731" lon="9.52493199147284">
        <ele>563.47000000000003</ele>
        <time>2018-09-18T09:39:16Z</time>
      </trkpt>
      <trkpt lat="47.14072298258543" lon="9.524917993694544">
        <ele>563.95000000000005</ele>
        <time>2018-09-18T09:39:17Z</time>
      </trkpt>
      <trkpt lat="47.140667997300625" lon="9.524910030886531">
        <ele>563.95000000000005</ele>
        <time>2018-09-18T09:39:18Z</time>
      </trkpt>
      <trkpt lat="47.140606977045536" lon="9.524899972602725">
        <ele>564.42999999999995</ele>
        <time>2018-09-18T09:39:19Z</time>
      </trkpt>
      <trkpt lat="47.139912033453584" lon="9.524791007861495">
        <ele>568.27999999999997</ele>
        <time>2018-09-18T09:39:26Z</time>
      </trkpt>
      <trkpt lat="47.139792004600167" lon="9.524771980941296">
        <ele>569.72000000000003</ele>
        <time>2018-09-18T09:39:27Z</time>
      </trkpt>
      <trkpt lat="47.139515988528728" lon="9.524728981778026">
        <ele>573.08000000000004</ele>
        <time>2018-09-18T09:39:30Z</time>
      </trkpt>
      <trkpt lat="47.139451028779149" lon="9.524718001484871">
        <ele>574.03999999999996</ele>
        <time>2018-09-18T09:39:31Z</time>
      </trkpt>
      <trkpt lat="47.139337034896016" lon="9.524699980393052">
        <ele>575.97000000000003</ele>
        <time>2018-09-18T09:39:33Z</time>
      </trkpt>
      <trkpt lat="47.139275008812547" lon="9.524709032848477">
        <ele>576.92999999999995</ele>
        <time>2018-09-18T09:39:34Z</time>
      </trkpt>
      <trkpt lat="47.139223963022232" lon="9.524729987606406">
        <ele>577.88999999999999</ele>
        <time>2018-09-18T09:39:35Z</time>
      </trkpt>
      <trkpt lat="47.139209965243936" lon="9.524811962619424">
        <ele>579.33000000000004</ele>
        <time>2018-09-18T09:39:36Z</time>
      </trkpt>
      <trkpt lat="47.139216000214219" lon="9.52486602589488">
        <ele>579.80999999999995</ele>
        <time>2018-09-18T09:39:37Z</time>
      </trkpt>
      <trkpt lat="47.139223041012883" lon="9.52493199147284">
        <ele>580.76999999999998</ele>
        <time>2018-09-18T09:39:38Z</time>
      </trkpt>
      <trkpt lat="47.139262016862631" lon="9.524960992857814">
        <ele>581.73000000000002</ele>
        <time>2018-09-18T09:39:39Z</time>
      </trkpt>
      <trkpt lat="47.139314990490675" lon="9.525000974535942">
        <ele>581.73000000000002</ele>
        <time>2018-09-18T09:39:40Z</time>
      </trkpt>
      <trkpt lat="47.139512971043587" lon="9.525169031694531">
        <ele>582.70000000000005</ele>
        <time>2018-09-18T09:39:43Z</time>
      </trkpt>
      <trkpt lat="47.139821005985141" lon="9.525586031377316">
        <ele>587.01999999999998</ele>
        <time>2018-09-18T09:39:49Z</time>
      </trkpt>
      <trkpt lat="47.139830980449915" lon="9.525677980855107">
        <ele>588.95000000000005</ele>
        <time>2018-09-18T09:39:52Z</time>
      </trkpt>
      <trkpt lat="47.139816982671618" lon="9.525731960311532">
        <ele>589.42999999999995</ele>
        <time>2018-09-18T09:39:53Z</time>
      </trkpt>
      <trkpt lat="47.139802984893322" lon="9.525789963081479">
        <ele>589.90999999999997</ele>
        <time>2018-09-18T09:39:54Z</time>
      </trkpt>
      <trkpt lat="47.139769960194826" lon="9.525785017758608">
        <ele>589.90999999999997</ele>
        <time>2018-09-18T09:39:55Z</time>
      </trkpt>
      <trkpt lat="47.139712041243911" lon="9.525775965303183">
        <ele>589.90999999999997</ele>
        <time>2018-09-18T09:39:56Z</time>
      </trkpt>
      <trkpt lat="47.13964800350368" lon="9.525765990838409">
        <ele>590.38999999999999</ele>
        <time>2018-09-18T09:39:57Z</time>
      </trkpt>
      <trkpt lat="47.139122961089015" lon="9.525713017210364">
        <ele>594.71000000000004</ele>
        <time>2018-09-18T09:40:03Z</time>
      </trkpt>
      <trkpt lat="47.138710990548134" lon="9.525778982788324">
        <ele>600.48000000000002</ele>
        <time>2018-09-18T09:40:08Z</time>
      </trkpt>
      <trkpt lat="47.138651981949806" lon="9.525794992223382">
        <ele>600.96000000000004</ele>
        <time>2018-09-18T09:40:09Z</time>
      </trkpt>
      <trkpt lat="47.138593979179859" lon="9.52581100165844">
        <ele>601.91999999999996</ele>
        <time>2018-09-18T09:40:10Z</time>
      </trkpt>
      <trkpt lat="47.138515021651983" lon="9.525832962244749">
        <ele>602.88</ele>
        <time>2018-09-18T09:40:11Z</time>
      </trkpt>
      <trkpt lat="47.1384899597615" lon="9.525848971679807">
        <ele>603.85000000000002</ele>
        <time>2018-09-18T09:40:12Z</time>
      </trkpt>
      <trkpt lat="47.138435980305076" lon="9.525881996378303">
        <ele>604.80999999999995</ele>
        <time>2018-09-18T09:40:13Z</time>
      </trkpt>
      <trkpt lat="47.13837998919189" lon="9.525916026905179">
        <ele>605.76999999999998</ele>
        <time>2018-09-18T09:40:14Z</time>
      </trkpt>
      <trkpt lat="47.138332966715097" lon="9.525945028290153">
        <ele>606.25</ele>
        <time>2018-09-18T09:40:15Z</time>
      </trkpt>
      <trkpt lat="47.13829499669373" lon="9.525969000533223">
        <ele>607.21000000000004</ele>
        <time>2018-09-18T09:40:16Z</time>
      </trkpt>
      <trkpt lat="47.138259960338473" lon="9.525990039110184">
        <ele>607.69000000000005</ele>
        <time>2018-09-18T09:40:17Z</time>
      </trkpt>
      <trkpt lat="47.13823196478188" lon="9.526007976382971">
        <ele>608.64999999999998</ele>
        <time>2018-09-18T09:40:18Z</time>
      </trkpt>
      <trkpt lat="47.13823196478188" lon="9.526007976382971">
        <ele>610.09000000000003</ele>
        <time>2018-09-18T09:40:29Z</time>
      </trkpt>
      <trkpt lat="47.138205980882049" lon="9.526022979989648">
        <ele>610.09000000000003</ele>
        <time>2018-09-18T09:40:33Z</time>
      </trkpt>
      <trkpt lat="47.138170022517443" lon="9.526045024394989">
        <ele>611.05999999999995</ele>
        <time>2018-09-18T09:40:34Z</time>
      </trkpt>
      <trkpt lat="47.138117970898747" lon="9.526077965274453">
        <ele>611.53999999999996</ele>
        <time>2018-09-18T09:40:35Z</time>
      </trkpt>
      <trkpt lat="47.138049993664026" lon="9.526119036599994">
        <ele>612.01999999999998</ele>
        <time>2018-09-18T09:40:36Z</time>
      </trkpt>
      <trkpt lat="47.137976987287402" lon="9.526164969429374">
        <ele>612.5</ele>
        <time>2018-09-18T09:40:37Z</time>
      </trkpt>
      <trkpt lat="47.137902975082397" lon="9.526215009391308">
        <ele>612.98000000000002</ele>
        <time>2018-09-18T09:40:38Z</time>
      </trkpt>
      <trkpt lat="47.137828040868044" lon="9.526266977190971">
        <ele>612.98000000000002</ele>
        <time>2018-09-18T09:40:39Z</time>
      </trkpt>
      <trkpt lat="47.137667024508119" lon="9.526387006044388">
        <ele>613.94000000000005</ele>
        <time>2018-09-18T09:40:41Z</time>
      </trkpt>
      <trkpt lat="47.137481030076742" lon="9.526536036282778">
        <ele>613.94000000000005</ele>
        <time>2018-09-18T09:40:43Z</time>
      </trkpt>
      <trkpt lat="47.13704701513052" lon="9.526849016547203">
        <ele>614.41999999999996</ele>
        <time>2018-09-18T09:40:47Z</time>
      </trkpt>
      <trkpt lat="47.136926986277103" lon="9.526934009045363">
        <ele>614.89999999999998</ele>
        <time>2018-09-18T09:40:48Z</time>
      </trkpt>
      <trkpt lat="47.136418037116528" lon="9.527264004573226">
        <ele>618.25999999999999</ele>
        <time>2018-09-18T09:40:52Z</time>
      </trkpt>
      <trkpt lat="47.136297002434731" lon="9.527319995686412">
        <ele>619.23000000000002</ele>
        <time>2018-09-18T09:40:53Z</time>
      </trkpt>
      <trkpt lat="47.136086029931903" lon="9.527400964871049">
        <ele>621.63</ele>
        <time>2018-09-18T09:40:55Z</time>
      </trkpt>
      <trkpt lat="47.135949991643429" lon="9.527455028146505">
        <ele>622.11000000000001</ele>
        <time>2018-09-18T09:40:56Z</time>
      </trkpt>
      <trkpt lat="47.135853013023734" lon="9.527559969574213">
        <ele>623.07000000000005</ele>
        <time>2018-09-18T09:40:57Z</time>
      </trkpt>
      <trkpt lat="47.135753016918898" lon="9.527668012306094">
        <ele>624.02999999999997</ele>
        <time>2018-09-18T09:40:58Z</time>
      </trkpt>
      <trkpt lat="47.135652014985681" lon="9.527777982875705">
        <ele>624.99000000000001</ele>
        <time>2018-09-18T09:40:59Z</time>
      </trkpt>
      <trkpt lat="47.135551013052464" lon="9.527887031435967">
        <ele>625.96000000000004</ele>
        <time>2018-09-18T09:41:00Z</time>
      </trkpt>
      <trkpt lat="47.135274996981025" lon="9.528215015307069">
        <ele>630.27999999999997</ele>
        <time>2018-09-18T09:41:03Z</time>
      </trkpt>
      <trkpt lat="47.135130995884538" lon="9.528310988098383">
        <ele>633.16999999999996</ele>
        <time>2018-09-18T09:41:05Z</time>
      </trkpt>
      <trkpt lat="47.135038040578365" lon="9.528362033888698">
        <ele>634.13</ele>
        <time>2018-09-18T09:41:06Z</time>
      </trkpt>
      <trkpt lat="47.134936032816768" lon="9.528406038880348">
        <ele>635.57000000000005</ele>
        <time>2018-09-18T09:41:07Z</time>
      </trkpt>
      <trkpt lat="47.13483402505517" lon="9.528449960052967">
        <ele>636.52999999999997</ele>
        <time>2018-09-18T09:41:08Z</time>
      </trkpt>
      <trkpt lat="47.134728999808431" lon="9.528494970872998">
        <ele>637.49000000000001</ele>
        <time>2018-09-18T09:41:09Z</time>
      </trkpt>
      <trkpt lat="47.134624980390072" lon="9.528547022491694">
        <ele>638.92999999999995</ele>
        <time>2018-09-18T09:41:10Z</time>
      </trkpt>
      <trkpt lat="47.134549962356687" lon="9.528666967526078">
        <ele>639.88999999999999</ele>
        <time>2018-09-18T09:41:11Z</time>
      </trkpt>
      <trkpt lat="47.134466981515288" lon="9.528797976672649">
        <ele>640.86000000000001</ele>
        <time>2018-09-18T09:41:12Z</time>
      </trkpt>
      <trkpt lat="47.134380983188748" lon="9.528934014961124">
        <ele>641.34000000000003</ele>
        <time>2018-09-18T09:41:13Z</time>
      </trkpt>
      <trkpt lat="47.134294984862208" lon="9.529070975258946">
        <ele>642.29999999999995</ele>
        <time>2018-09-18T09:41:14Z</time>
      </trkpt>
      <trkpt lat="47.134095998480916" lon="9.529255041852593">
        <ele>644.22000000000003</ele>
        <time>2018-09-18T09:41:16Z</time>
      </trkpt>
      <trkpt lat="47.133988039568067" lon="9.529315978288651">
        <ele>645.65999999999997</ele>
        <time>2018-09-18T09:41:17Z</time>
      </trkpt>
      <trkpt lat="47.133853007107973" lon="9.529339028522372">
        <ele>646.62</ele>
        <time>2018-09-18T09:41:18Z</time>
      </trkpt>
      <trkpt lat="47.132970979437232" lon="9.529494009912014">
        <ele>654.30999999999995</ele>
        <time>2018-09-18T09:41:24Z</time>
      </trkpt>
      <trkpt lat="47.131755016744137" lon="9.529998013749719">
        <ele>665.85000000000002</ele>
        <time>2018-09-18T09:41:33Z</time>
      </trkpt>
      <trkpt lat="47.130838958546519" lon="9.530175039544702">
        <ele>674.98000000000002</ele>
        <time>2018-09-18T09:41:40Z</time>
      </trkpt>
      <trkpt lat="47.130736028775573" lon="9.530227007344365">
        <ele>675.94000000000005</ele>
        <time>2018-09-18T09:41:41Z</time>
      </trkpt>
      <trkpt lat="47.130627986043692" lon="9.53028098680079">
        <ele>676.90999999999997</ele>
        <time>2018-09-18T09:41:42Z</time>
      </trkpt>
      <trkpt lat="47.130524972453713" lon="9.530333038419485">
        <ele>678.35000000000002</ele>
        <time>2018-09-18T09:41:43Z</time>
      </trkpt>
      <trkpt lat="47.130432017147541" lon="9.530378971248865">
        <ele>679.30999999999995</ele>
        <time>2018-09-18T09:41:44Z</time>
      </trkpt>
      <trkpt lat="47.130341995507479" lon="9.53034795820713">
        <ele>680.75</ele>
        <time>2018-09-18T09:41:45Z</time>
      </trkpt>
      <trkpt lat="47.130240993574262" lon="9.530305964872241">
        <ele>682.66999999999996</ele>
        <time>2018-09-18T09:41:46Z</time>
      </trkpt>
      <trkpt lat="47.130137979984283" lon="9.530263971537352">
        <ele>683.63</ele>
        <time>2018-09-18T09:41:47Z</time>
      </trkpt>
      <trkpt lat="47.130033038556576" lon="9.530232036486268">
        <ele>685.55999999999995</ele>
        <time>2018-09-18T09:41:48Z</time>
      </trkpt>
      <trkpt lat="47.129929019138217" lon="9.530232036486268">
        <ele>687</ele>
        <time>2018-09-18T09:41:49Z</time>
      </trkpt>
      <trkpt lat="47.129826005548239" lon="9.530232036486268">
        <ele>688.44000000000005</ele>
        <time>2018-09-18T09:41:50Z</time>
      </trkpt>
      <trkpt lat="47.129760039970279" lon="9.530232036486268">
        <ele>689.88</ele>
        <time>2018-09-18T09:41:51Z</time>
      </trkpt>
      <trkpt lat="47.129667000845075" lon="9.530300013720989">
        <ele>690.84000000000003</ele>
        <time>2018-09-18T09:41:52Z</time>
      </trkpt>
      <trkpt lat="47.129602963104844" lon="9.530347036197782">
        <ele>691.80999999999995</ele>
        <time>2018-09-18T09:41:53Z</time>
      </trkpt>
      <trkpt lat="47.129524005576968" lon="9.530404033139348">
        <ele>692.76999999999998</ele>
        <time>2018-09-18T09:41:54Z</time>
      </trkpt>
      <trkpt lat="47.129476983100176" lon="9.530482990667224">
        <ele>692.76999999999998</ele>
        <time>2018-09-18T09:41:55Z</time>
      </trkpt>
      <trkpt lat="47.12942099198699" lon="9.530576029792428">
        <ele>693.25</ele>
        <time>2018-09-18T09:41:56Z</time>
      </trkpt>
      <trkpt lat="47.129370030015707" lon="9.530660016462207">
        <ele>693.25</ele>
        <time>2018-09-18T09:41:57Z</time>
      </trkpt>
      <trkpt lat="47.129296017810702" lon="9.530784990638495">
        <ele>693.73000000000002</ele>
        <time>2018-09-18T09:41:59Z</time>
      </trkpt>
      <trkpt lat="47.129265004768968" lon="9.530836036428809">
        <ele>693.73000000000002</ele>
        <time>2018-09-18T09:42:00Z</time>
      </trkpt>
      <trkpt lat="47.129236003383994" lon="9.53088398091495">
        <ele>693.73000000000002</ele>
        <time>2018-09-18T09:42:01Z</time>
      </trkpt>
      <trkpt lat="47.129212031140924" lon="9.530924968421459">
        <ele>693.73000000000002</ele>
        <time>2018-09-18T09:42:02Z</time>
      </trkpt>
      <trkpt lat="47.129189986735582" lon="9.530961010605097">
        <ele>694.21000000000004</ele>
        <time>2018-09-18T09:42:03Z</time>
      </trkpt>
      <trkpt lat="47.129172971472144" lon="9.53098900616169">
        <ele>694.69000000000005</ele>
        <time>2018-09-18T09:42:04Z</time>
      </trkpt>
      <trkpt lat="47.129232985898852" lon="9.531225962564349">
        <ele>694.21000000000004</ele>
        <time>2018-09-18T09:42:11Z</time>
      </trkpt>
      <trkpt lat="47.129232985898852" lon="9.531225962564349">
        <ele>694.21000000000004</ele>
        <time>2018-09-18T09:42:37Z</time>
      </trkpt>
      <trkpt lat="47.129242038354278" lon="9.531202996149659">
        <ele>695.16999999999996</ele>
        <time>2018-09-18T09:43:02Z</time>
      </trkpt>
      <trkpt lat="47.129148999229074" lon="9.531029993668199">
        <ele>695.64999999999998</ele>
        <time>2018-09-18T09:43:04Z</time>
      </trkpt>
      <trkpt lat="47.129417974501848" lon="9.530580975115299">
        <ele>696.13</ele>
        <time>2018-09-18T09:43:11Z</time>
      </trkpt>
      <trkpt lat="47.129632970318198" lon="9.53032398596406">
        <ele>695.64999999999998</ele>
        <time>2018-09-18T09:43:15Z</time>
      </trkpt>
      <trkpt lat="47.129688039422035" lon="9.530285010114312">
        <ele>695.16999999999996</ele>
        <time>2018-09-18T09:43:16Z</time>
      </trkpt>
      <trkpt lat="47.129739001393318" lon="9.530247962102294">
        <ele>695.16999999999996</ele>
        <time>2018-09-18T09:43:17Z</time>
      </trkpt>
      <trkpt lat="47.129760039970279" lon="9.530232036486268">
        <ele>694.69000000000005</ele>
        <time>2018-09-18T09:43:18Z</time>
      </trkpt>
      <trkpt lat="47.129838997498155" lon="9.530232036486268">
        <ele>694.21000000000004</ele>
        <time>2018-09-18T09:43:19Z</time>
      </trkpt>
      <trkpt lat="47.129892976954579" lon="9.530232036486268">
        <ele>694.21000000000004</ele>
        <time>2018-09-18T09:43:20Z</time>
      </trkpt>
      <trkpt lat="47.129943016916513" lon="9.530232036486268">
        <ele>693.73000000000002</ele>
        <time>2018-09-18T09:43:21Z</time>
      </trkpt>
      <trkpt lat="47.129992973059416" lon="9.530232036486268">
        <ele>693.73000000000002</ele>
        <time>2018-09-18T09:43:22Z</time>
      </trkpt>
      <trkpt lat="47.130061034113169" lon="9.530232036486268">
        <ele>693.25</ele>
        <time>2018-09-18T09:43:23Z</time>
      </trkpt>
      <trkpt lat="47.130106966942549" lon="9.530250979587436">
        <ele>693.25</ele>
        <time>2018-09-18T09:43:24Z</time>
      </trkpt>
      <trkpt lat="47.130163041874766" lon="9.530274029821158">
        <ele>692.76999999999998</ele>
        <time>2018-09-18T09:43:25Z</time>
      </trkpt>
      <trkpt lat="47.130217021331191" lon="9.530295990407467">
        <ele>692.76999999999998</ele>
        <time>2018-09-18T09:43:26Z</time>
      </trkpt>
      <trkpt lat="47.130283992737532" lon="9.53032398596406">
        <ele>692.28999999999996</ele>
        <time>2018-09-18T09:43:27Z</time>
      </trkpt>
      <trkpt lat="47.130338978022337" lon="9.530346030369401">
        <ele>691.80999999999995</ele>
        <time>2018-09-18T09:43:28Z</time>
      </trkpt>
      <trkpt lat="47.130425982177258" lon="9.530381988734007">
        <ele>691.33000000000004</ele>
        <time>2018-09-18T09:43:29Z</time>
      </trkpt>
      <trkpt lat="47.130468981340528" lon="9.530361033976078">
        <ele>690.84000000000003</ele>
        <time>2018-09-18T09:43:30Z</time>
      </trkpt>
      <trkpt lat="47.130530001595616" lon="9.530330020934343">
        <ele>690.84000000000003</ele>
        <time>2018-09-18T09:43:31Z</time>
      </trkpt>
      <trkpt lat="47.130588004365563" lon="9.53030101954937">
        <ele>690.84000000000003</ele>
        <time>2018-09-18T09:43:32Z</time>
      </trkpt>
      <trkpt lat="47.130648018792272" lon="9.530271012336016">
        <ele>690.84000000000003</ele>
        <time>2018-09-18T09:43:33Z</time>
      </trkpt>
      <trkpt lat="47.130705015733838" lon="9.530242010951042">
        <ele>691.33000000000004</ele>
        <time>2018-09-18T09:43:34Z</time>
      </trkpt>
      <trkpt lat="47.130766035988927" lon="9.530212003737688">
        <ele>691.80999999999995</ele>
        <time>2018-09-18T09:43:35Z</time>
      </trkpt>
      <trkpt lat="47.130834013223648" lon="9.530177973210812">
        <ele>692.28999999999996</ele>
        <time>2018-09-18T09:43:36Z</time>
      </trkpt>
      <trkpt lat="47.130905007943511" lon="9.530142014846206">
        <ele>692.76999999999998</ele>
        <time>2018-09-18T09:43:37Z</time>
      </trkpt>
      <trkpt lat="47.130960999056697" lon="9.530121982097626">
        <ele>693.25</ele>
        <time>2018-09-18T09:43:38Z</time>
      </trkpt>
      <trkpt lat="47.131042974069715" lon="9.53010899014771">
        <ele>693.73000000000002</ele>
        <time>2018-09-18T09:43:39Z</time>
      </trkpt>
      <trkpt lat="47.131506996229291" lon="9.530036989599466">
        <ele>695.64999999999998</ele>
        <time>2018-09-18T09:43:44Z</time>
      </trkpt>
      <trkpt lat="47.131600035354495" lon="9.530021985992789">
        <ele>696.13</ele>
        <time>2018-09-18T09:43:45Z</time>
      </trkpt>
      <trkpt lat="47.1318069845438" lon="9.529989967122674">
        <ele>696.61000000000001</ele>
        <time>2018-09-18T09:43:47Z</time>
      </trkpt>
      <trkpt lat="47.132766963914037" lon="9.529585959389806">
        <ele>690.84000000000003</ele>
        <time>2018-09-18T09:43:56Z</time>
      </trkpt>
      <trkpt lat="47.133624013513327" lon="9.529376998543739">
        <ele>685.55999999999995</ele>
        <time>2018-09-18T09:44:03Z</time>
      </trkpt>
      <trkpt lat="47.133853007107973" lon="9.529339028522372">
        <ele>683.63</ele>
        <time>2018-09-18T09:44:05Z</time>
      </trkpt>
      <trkpt lat="47.134070014581084" lon="9.529277002438903">
        <ele>681.71000000000004</ele>
        <time>2018-09-18T09:44:07Z</time>
      </trkpt>
      <trkpt lat="47.134157018736005" lon="9.529205001890659">
        <ele>679.78999999999996</ele>
        <time>2018-09-18T09:44:08Z</time>
      </trkpt>
      <trkpt lat="47.134265983477235" lon="9.529115986078978">
        <ele>677.87</ele>
        <time>2018-09-18T09:44:09Z</time>
      </trkpt>
      <trkpt lat="47.134331027045846" lon="9.52901397831738">
        <ele>675.46000000000004</ele>
        <time>2018-09-18T09:44:10Z</time>
      </trkpt>
      <trkpt lat="47.1344059612602" lon="9.528895039111376">
        <ele>673.53999999999996</ele>
        <time>2018-09-18T09:44:11Z</time>
      </trkpt>
      <trkpt lat="47.134477961808443" lon="9.528780039399862">
        <ele>671.13999999999999</ele>
        <time>2018-09-18T09:44:12Z</time>
      </trkpt>
      <trkpt lat="47.134607965126634" lon="9.528574012219906">
        <ele>667.76999999999998</ele>
        <time>2018-09-18T09:44:14Z</time>
      </trkpt>
      <trkpt lat="47.134690023958683" lon="9.528511986136437">
        <ele>666.33000000000004</ele>
        <time>2018-09-18T09:44:15Z</time>
      </trkpt>
      <trkpt lat="47.134774010628462" lon="9.528476027771831">
        <ele>664.88999999999999</ele>
        <time>2018-09-18T09:44:16Z</time>
      </trkpt>
      <trkpt lat="47.134866965934634" lon="9.528435962274671">
        <ele>663.45000000000005</ele>
        <time>2018-09-18T09:44:17Z</time>
      </trkpt>
      <trkpt lat="47.134962016716599" lon="9.528394974768162">
        <ele>662.00999999999999</ele>
        <time>2018-09-18T09:44:18Z</time>
      </trkpt>
      <trkpt lat="47.135054972022772" lon="9.528354993090034">
        <ele>660.55999999999995</ele>
        <time>2018-09-18T09:44:19Z</time>
      </trkpt>
      <trkpt lat="47.13513501919806" lon="9.528307970613241">
        <ele>658.63999999999999</ele>
        <time>2018-09-18T09:44:20Z</time>
      </trkpt>
      <trkpt lat="47.135222023352981" lon="9.528250973671675">
        <ele>657.67999999999995</ele>
        <time>2018-09-18T09:44:21Z</time>
      </trkpt>
      <trkpt lat="47.135306010022759" lon="9.528176039457321">
        <ele>656.24000000000001</ele>
        <time>2018-09-18T09:44:22Z</time>
      </trkpt>
      <trkpt lat="47.135388990864158" lon="9.528073025867343">
        <ele>654.79999999999995</ele>
        <time>2018-09-18T09:44:23Z</time>
      </trkpt>
      <trkpt lat="47.135729966685176" lon="9.527692990377545">
        <ele>648.07000000000005</ele>
        <time>2018-09-18T09:44:27Z</time>
      </trkpt>
      <trkpt lat="47.135813031345606" lon="9.527602968737483">
        <ele>645.65999999999997</ele>
        <time>2018-09-18T09:44:28Z</time>
      </trkpt>
      <trkpt lat="47.13597203604877" lon="9.527439018711448">
        <ele>641.34000000000003</ele>
        <time>2018-09-18T09:44:30Z</time>
      </trkpt>
      <trkpt lat="47.136061973869801" lon="9.527409011498094">
        <ele>639.40999999999997</ele>
        <time>2018-09-18T09:44:31Z</time>
      </trkpt>
      <trkpt lat="47.136160964146256" lon="9.527375986799598">
        <ele>637.49000000000001</ele>
        <time>2018-09-18T09:44:32Z</time>
      </trkpt>
      <trkpt lat="47.136269006878138" lon="9.527332987636328">
        <ele>635.57000000000005</ele>
        <time>2018-09-18T09:44:33Z</time>
      </trkpt>
      <trkpt lat="47.136388029903173" lon="9.527278002351522">
        <ele>633.64999999999998</ele>
        <time>2018-09-18T09:44:34Z</time>
      </trkpt>
      <trkpt lat="47.1365109924227" lon="9.527221005409956">
        <ele>632.20000000000005</ele>
        <time>2018-09-18T09:44:35Z</time>
      </trkpt>
      <trkpt lat="47.136626997962594" lon="9.527145987376571">
        <ele>630.27999999999997</ele>
        <time>2018-09-18T09:44:36Z</time>
      </trkpt>
      <trkpt lat="47.136995969340205" lon="9.526884974911809">
        <ele>624.99000000000001</ele>
        <time>2018-09-18T09:44:39Z</time>
      </trkpt>
      <trkpt lat="47.137117004022002" lon="9.526798976585269">
        <ele>623.07000000000005</ele>
        <time>2018-09-18T09:44:40Z</time>
      </trkpt>
      <trkpt lat="47.137612961232662" lon="9.526430005207658">
        <ele>614.89999999999998</ele>
        <time>2018-09-18T09:44:44Z</time>
      </trkpt>
      <trkpt lat="47.137727960944176" lon="9.526338977739215">
        <ele>613.46000000000004</ele>
        <time>2018-09-18T09:44:45Z</time>
      </trkpt>
      <trkpt lat="47.138352999463677" lon="9.525932958349586">
        <ele>604.33000000000004</ele>
        <time>2018-09-18T09:44:51Z</time>
      </trkpt>
      <trkpt lat="47.138432962819934" lon="9.525884008035064">
        <ele>602.88</ele>
        <time>2018-09-18T09:44:52Z</time>
      </trkpt>
      <trkpt lat="47.13855299167335" lon="9.525822987779975">
        <ele>600.96000000000004</ele>
        <time>2018-09-18T09:44:54Z</time>
      </trkpt>
      <trkpt lat="47.138589033856988" lon="9.525813013315201">
        <ele>600</ele>
        <time>2018-09-18T09:44:55Z</time>
      </trkpt>
      <trkpt lat="47.138620968908072" lon="9.525803960859776">
        <ele>599.03999999999996</ele>
        <time>2018-09-18T09:44:56Z</time>
      </trkpt>
      <trkpt lat="47.138653993606567" lon="9.525794992223382">
        <ele>598.08000000000004</ele>
        <time>2018-09-18T09:44:57Z</time>
      </trkpt>
      <trkpt lat="47.138676960021257" lon="9.52578803524375">
        <ele>597.12</ele>
        <time>2018-09-18T09:44:58Z</time>
      </trkpt>
      <trkpt lat="47.138688024133444" lon="9.525785017758608">
        <ele>596.14999999999998</ele>
        <time>2018-09-18T09:44:59Z</time>
      </trkpt>
      <trkpt lat="47.138688024133444" lon="9.525785017758608">
        <ele>594.71000000000004</ele>
        <time>2018-09-18T09:45:12Z</time>
      </trkpt>
      <trkpt lat="47.138688024133444" lon="9.525785017758608">
        <ele>594.71000000000004</ele>
        <time>2018-09-18T09:45:33Z</time>
      </trkpt>
      <trkpt lat="47.138688024133444" lon="9.525785017758608">
        <ele>594.71000000000004</ele>
        <time>2018-09-18T09:46:17Z</time>
      </trkpt>
      <trkpt lat="47.138765975832939" lon="9.5260030310601">
        <ele>602.39999999999998</ele>
        <time>2018-09-18T09:57:59Z</time>
      </trkpt>
      <trkpt lat="47.138715013861656" lon="9.525999007746577">
        <ele>604.33000000000004</ele>
        <time>2018-09-18T09:58:40Z</time>
      </trkpt>
      <trkpt lat="47.138748960569501" lon="9.526000013574958">
        <ele>600.48000000000002</ele>
        <time>2018-09-18T09:59:21Z</time>
      </trkpt>
      <trkpt lat="47.138720965012908" lon="9.525998001918197">
        <ele>602.39999999999998</ele>
        <time>2018-09-18T09:59:43Z</time>
      </trkpt>
      <trkpt lat="47.138731023296714" lon="9.52591703273356">
        <ele>597.60000000000002</ele>
        <time>2018-09-18T09:59:49Z</time>
      </trkpt>
      <trkpt lat="47.138679977506399" lon="9.525787029415369">
        <ele>594.23000000000002</ele>
        <time>2018-09-18T09:59:52Z</time>
      </trkpt>
      <trkpt lat="47.13868198916316" lon="9.525884008035064">
        <ele>585.58000000000004</ele>
        <time>2018-09-18T09:59:57Z</time>
      </trkpt>
      <trkpt lat="47.13902598246932" lon="9.525718968361616">
        <ele>571.63999999999999</ele>
        <time>2018-09-18T10:00:05Z</time>
      </trkpt>
      <trkpt lat="47.13967096991837" lon="9.52576900832355">
        <ele>562.99000000000001</ele>
        <time>2018-09-18T10:00:15Z</time>
      </trkpt>
      <trkpt lat="47.139717992395163" lon="9.525776971131563">
        <ele>562.50999999999999</ele>
        <time>2018-09-18T10:00:16Z</time>
      </trkpt>
      <trkpt lat="47.139758979901671" lon="9.525783006101847">
        <ele>562.02999999999997</ele>
        <time>2018-09-18T10:00:17Z</time>
      </trkpt>
      <trkpt lat="47.139802984893322" lon="9.525789963081479">
        <ele>561.54999999999995</ele>
        <time>2018-09-18T10:00:18Z</time>
      </trkpt>
      <trkpt lat="47.139802984893322" lon="9.525789963081479">
        <ele>561.07000000000005</ele>
        <time>2018-09-18T10:00:19Z</time>
      </trkpt>
      <trkpt lat="47.139812037348747" lon="9.525750987231731">
        <ele>561.07000000000005</ele>
        <time>2018-09-18T10:00:20Z</time>
      </trkpt>
      <trkpt lat="47.139823017641902" lon="9.525706982240081">
        <ele>561.07000000000005</ele>
        <time>2018-09-18T10:00:21Z</time>
      </trkpt>
      <trkpt lat="47.139844978228211" lon="9.52561897225678">
        <ele>561.07000000000005</ele>
        <time>2018-09-18T10:00:22Z</time>
      </trkpt>
      <trkpt lat="47.139835003763437" lon="9.525604974478483">
        <ele>561.07000000000005</ele>
        <time>2018-09-18T10:00:23Z</time>
      </trkpt>
      <trkpt lat="47.139807008206844" lon="9.525567004457116">
        <ele>561.07000000000005</ele>
        <time>2018-09-18T10:00:24Z</time>
      </trkpt>
      <trkpt lat="47.139779012650251" lon="9.525529034435749">
        <ele>561.07000000000005</ele>
        <time>2018-09-18T10:00:25Z</time>
      </trkpt>
      <trkpt lat="47.139473995193839" lon="9.525119997560978">
        <ele>560.59000000000003</ele>
        <time>2018-09-18T10:00:33Z</time>
      </trkpt>
      <trkpt lat="47.139436025172472" lon="9.525092002004385">
        <ele>560.59000000000003</ele>
        <time>2018-09-18T10:00:34Z</time>
      </trkpt>
      <trkpt lat="47.139223041012883" lon="9.52493199147284">
        <ele>559.62</ele>
        <time>2018-09-18T10:00:40Z</time>
      </trkpt>
      <trkpt lat="47.139221029356122" lon="9.524913970381022">
        <ele>559.13999999999999</ele>
        <time>2018-09-18T10:00:41Z</time>
      </trkpt>
      <trkpt lat="47.139214994385839" lon="9.524862002581358">
        <ele>559.13999999999999</ele>
        <time>2018-09-18T10:00:42Z</time>
      </trkpt>
      <trkpt lat="47.139234021306038" lon="9.524725964292884">
        <ele>558.65999999999997</ele>
        <time>2018-09-18T10:00:43Z</time>
      </trkpt>
      <trkpt lat="47.139264028519392" lon="9.524713978171349">
        <ele>558.17999999999995</ele>
        <time>2018-09-18T10:00:44Z</time>
      </trkpt>
      <trkpt lat="47.139315996319056" lon="9.52469696290791">
        <ele>557.70000000000005</ele>
        <time>2018-09-18T10:00:45Z</time>
      </trkpt>
      <trkpt lat="47.13936997577548" lon="9.524705009534955">
        <ele>556.74000000000001</ele>
        <time>2018-09-18T10:00:46Z</time>
      </trkpt>
      <trkpt lat="47.139434013515711" lon="9.524714983999729">
        <ele>556.74000000000001</ele>
        <time>2018-09-18T10:00:47Z</time>
      </trkpt>
      <trkpt lat="47.139505008235574" lon="9.524726970121265">
        <ele>556.25999999999999</ele>
        <time>2018-09-18T10:00:48Z</time>
      </trkpt>
      <trkpt lat="47.139586983248591" lon="9.52473996207118">
        <ele>556.25999999999999</ele>
        <time>2018-09-18T10:00:49Z</time>
      </trkpt>
      <trkpt lat="47.14055098593235" lon="9.524891003966332">
        <ele>549.04999999999995</ele>
        <time>2018-09-18T10:01:02Z</time>
      </trkpt>
      <trkpt lat="47.140644025057554" lon="9.524906007573009">
        <ele>547.61000000000001</ele>
        <time>2018-09-18T10:01:04Z</time>
      </trkpt>
      <trkpt lat="47.140680989250541" lon="9.524911036714912">
        <ele>547.13</ele>
        <time>2018-09-18T10:01:05Z</time>
      </trkpt>
      <trkpt lat="47.140706973150373" lon="9.524915982037783">
        <ele>546.64999999999998</ele>
        <time>2018-09-18T10:01:06Z</time>
      </trkpt>
      <trkpt lat="47.140810992568731" lon="9.52493199147284">
        <ele>546.16999999999996</ele>
        <time>2018-09-18T10:01:07Z</time>
      </trkpt>
      <trkpt lat="47.140810992568731" lon="9.52493199147284">
        <ele>545.69000000000005</ele>
        <time>2018-09-18T10:01:08Z</time>
      </trkpt>
      <trkpt lat="47.140864972025156" lon="9.524806011468172">
        <ele>545.69000000000005</ele>
        <time>2018-09-18T10:01:09Z</time>
      </trkpt>
      <trkpt lat="47.140858015045524" lon="9.524762006476522">
        <ele>545.20000000000005</ele>
        <time>2018-09-18T10:01:10Z</time>
      </trkpt>
      <trkpt lat="47.1407850086689" lon="9.524704003706574">
        <ele>545.20000000000005</ele>
        <time>2018-09-18T10:01:11Z</time>
      </trkpt>
      <trkpt lat="47.140746032819152" lon="9.524684976786375">
        <ele>544.72000000000003</ele>
        <time>2018-09-18T10:01:12Z</time>
      </trkpt>
      <trkpt lat="47.140707978978753" lon="9.524666033685207">
        <ele>544.72000000000003</ele>
        <time>2018-09-18T10:01:13Z</time>
      </trkpt>
      <trkpt lat="47.14067897759378" lon="9.524652035906911">
        <ele>544.72000000000003</ele>
        <time>2018-09-18T10:01:14Z</time>
      </trkpt>
      <trkpt lat="47.140646958723664" lon="9.524636026471853">
        <ele>544.72000000000003</ele>
        <time>2018-09-18T10:01:15Z</time>
      </trkpt>
      <trkpt lat="47.14061301201582" lon="9.524618005380034">
        <ele>544.72000000000003</ele>
        <time>2018-09-18T10:01:16Z</time>
      </trkpt>
      <trkpt lat="47.140577975660563" lon="9.524600990116596">
        <ele>544.72000000000003</ele>
        <time>2018-09-18T10:01:17Z</time>
      </trkpt>
      <trkpt lat="47.140513015910983" lon="9.5245679654181">
        <ele>544.72000000000003</ele>
        <time>2018-09-18T10:01:19Z</time>
      </trkpt>
      <trkpt lat="47.140511004254222" lon="9.52456695958972">
        <ele>544.24000000000001</ele>
        <time>2018-09-18T10:01:20Z</time>
      </trkpt>
      <trkpt lat="47.140488959848881" lon="9.52448096126318">
        <ele>543.27999999999997</ele>
        <time>2018-09-18T10:01:22Z</time>
      </trkpt>
      <trkpt lat="47.140488959848881" lon="9.52448096126318">
        <ele>542.79999999999995</ele>
        <time>2018-09-18T10:01:23Z</time>
      </trkpt>
      <trkpt lat="47.140500023961067" lon="9.524413989856839">
        <ele>542.32000000000005</ele>
        <time>2018-09-18T10:01:24Z</time>
      </trkpt>
      <trkpt lat="47.140511004254222" lon="9.52435296960175">
        <ele>541.84000000000003</ele>
        <time>2018-09-18T10:01:25Z</time>
      </trkpt>
      <trkpt lat="47.140513015910983" lon="9.524351041764021">
        <ele>541.36000000000001</ele>
        <time>2018-09-18T10:01:26Z</time>
      </trkpt>
      <trkpt lat="47.140618041157722" lon="9.52426697127521">
        <ele>540.88</ele>
        <time>2018-09-18T10:01:27Z</time>
      </trkpt>
      <trkpt lat="47.140644025057554" lon="9.524283986538649">
        <ele>540.39999999999998</ele>
        <time>2018-09-18T10:01:28Z</time>
      </trkpt>
      <trkpt lat="47.14069901034236" lon="9.524321034550667">
        <ele>540.39999999999998</ele>
        <time>2018-09-18T10:01:29Z</time>
      </trkpt>
      <trkpt lat="47.140752989798784" lon="9.524356992915273">
        <ele>540.88</ele>
        <time>2018-09-18T10:01:30Z</time>
      </trkpt>
      <trkpt lat="47.140818033367395" lon="9.524400997906923">
        <ele>541.36000000000001</ele>
        <time>2018-09-18T10:01:31Z</time>
      </trkpt>
      <trkpt lat="47.140890033915639" lon="9.524440979585052">
        <ele>541.36000000000001</ele>
        <time>2018-09-18T10:01:32Z</time>
      </trkpt>
      <trkpt lat="47.140976032242179" lon="9.524456989020109">
        <ele>541.36000000000001</ele>
        <time>2018-09-18T10:01:33Z</time>
      </trkpt>
      <trkpt lat="47.141075022518635" lon="9.524475010111928">
        <ele>541.36000000000001</ele>
        <time>2018-09-18T10:01:34Z</time>
      </trkpt>
      <trkpt lat="47.141180969774723" lon="9.524476015940309">
        <ele>540.88</ele>
        <time>2018-09-18T10:01:35Z</time>
      </trkpt>
      <trkpt lat="47.14128197170794" lon="9.524468975141645">
        <ele>540.39999999999998</ele>
        <time>2018-09-18T10:01:36Z</time>
      </trkpt>
      <trkpt lat="47.141380039975047" lon="9.524462018162012">
        <ele>539.44000000000005</ele>
        <time>2018-09-18T10:01:37Z</time>
      </trkpt>
      <trkpt lat="47.14170902967453" lon="9.52443796209991">
        <ele>536.54999999999995</ele>
        <time>2018-09-18T10:01:40Z</time>
      </trkpt>
      <trkpt lat="47.142675966024399" lon="9.524366967380047">
        <ele>525.5</ele>
        <time>2018-09-18T10:01:49Z</time>
      </trkpt>
      <trkpt lat="47.142780991271138" lon="9.524359004572034">
        <ele>524.05999999999995</ele>
        <time>2018-09-18T10:01:50Z</time>
      </trkpt>
      <trkpt lat="47.142968997359276" lon="9.524325979873538">
        <ele>521.64999999999998</ele>
        <time>2018-09-18T10:01:52Z</time>
      </trkpt>
      <trkpt lat="47.143052984029055" lon="9.524303013458848">
        <ele>520.21000000000004</ele>
        <time>2018-09-18T10:01:53Z</time>
      </trkpt>
      <trkpt lat="47.143135964870453" lon="9.52426596544683">
        <ele>518.76999999999998</ele>
        <time>2018-09-18T10:01:54Z</time>
      </trkpt>
      <trkpt lat="47.143262028694153" lon="9.524170998483896">
        <ele>516.37</ele>
        <time>2018-09-18T10:01:56Z</time>
      </trkpt>
      <trkpt lat="47.143323970958591" lon="9.524123976007104">
        <ele>515.39999999999998</ele>
        <time>2018-09-18T10:01:57Z</time>
      </trkpt>
      <trkpt lat="47.143997037783265" lon="9.523636987432838">
        <ele>505.79000000000002</ele>
        <time>2018-09-18T10:02:06Z</time>
      </trkpt>
      <trkpt lat="47.144457036629319" lon="9.523450993001461">
        <ele>501.94999999999999</ele>
        <time>2018-09-18T10:02:12Z</time>
      </trkpt>
      <trkpt lat="47.144530965015292" lon="9.523450993001461">
        <ele>501.45999999999998</ele>
        <time>2018-09-18T10:02:13Z</time>
      </trkpt>
      <trkpt lat="47.144605983048677" lon="9.523450993001461">
        <ele>500.98000000000002</ele>
        <time>2018-09-18T10:02:14Z</time>
      </trkpt>
      <trkpt lat="47.144765993580222" lon="9.523450993001461">
        <ele>500.5</ele>
        <time>2018-09-18T10:02:16Z</time>
      </trkpt>
      <trkpt lat="47.144851991906762" lon="9.523442024365068">
        <ele>500.01999999999998</ele>
        <time>2018-09-18T10:02:17Z</time>
      </trkpt>
      <trkpt lat="47.144908988848329" lon="9.523430038243532">
        <ele>500.01999999999998</ele>
        <time>2018-09-18T10:02:18Z</time>
      </trkpt>
      <trkpt lat="47.144973026588559" lon="9.523345967754722">
        <ele>499.54000000000002</ele>
        <time>2018-09-18T10:02:19Z</time>
      </trkpt>
      <trkpt lat="47.145021976903081" lon="9.523280002176762">
        <ele>499.54000000000002</ele>
        <time>2018-09-18T10:02:20Z</time>
      </trkpt>
      <trkpt lat="47.145045027136803" lon="9.523214958608151">
        <ele>499.06</ele>
        <time>2018-09-18T10:02:21Z</time>
      </trkpt>
      <trkpt lat="47.14506103657186" lon="9.523120997473598">
        <ele>499.06</ele>
        <time>2018-09-18T10:02:22Z</time>
      </trkpt>
      <trkpt lat="47.145075034350157" lon="9.523037010803819">
        <ele>499.06</ele>
        <time>2018-09-18T10:02:23Z</time>
      </trkpt>
      <trkpt lat="47.145077968016267" lon="9.522976996377111">
        <ele>499.06</ele>
        <time>2018-09-18T10:02:24Z</time>
      </trkpt>
      <trkpt lat="47.145064976066351" lon="9.522880017757416">
        <ele>498.57999999999998</ele>
        <time>2018-09-18T10:02:25Z</time>
      </trkpt>
      <trkpt lat="47.145013008266687" lon="9.522481961175799">
        <ele>497.62</ele>
        <time>2018-09-18T10:02:29Z</time>
      </trkpt>
      <trkpt lat="47.14497403241694" lon="9.522093962877989">
        <ele>497.13999999999999</ele>
        <time>2018-09-18T10:02:33Z</time>
      </trkpt>
      <trkpt lat="47.14497403241694" lon="9.522006036713719">
        <ele>497.13999999999999</ele>
        <time>2018-09-18T10:02:34Z</time>
      </trkpt>
      <trkpt lat="47.14497696608305" lon="9.521760027855635">
        <ele>496.66000000000003</ele>
        <time>2018-09-18T10:02:37Z</time>
      </trkpt>
      <trkpt lat="47.14495399966836" lon="9.521603034809232">
        <ele>496.18000000000001</ele>
        <time>2018-09-18T10:02:42Z</time>
      </trkpt>
      <trkpt lat="47.144937990233302" lon="9.521575961261988">
        <ele>496.18000000000001</ele>
        <time>2018-09-18T10:02:43Z</time>
      </trkpt>
      <trkpt lat="47.144917035475373" lon="9.521542014554143">
        <ele>495.69999999999999</ele>
        <time>2018-09-18T10:02:44Z</time>
      </trkpt>
      <trkpt lat="47.144725006073713" lon="9.521225010976195">
        <ele>492.32999999999998</ele>
        <time>2018-09-18T10:02:54Z</time>
      </trkpt>
      <trkpt lat="47.144712014123797" lon="9.521203972399235">
        <ele>492.32999999999998</ele>
        <time>2018-09-18T10:02:55Z</time>
      </trkpt>
      <trkpt lat="47.144712014123797" lon="9.521203972399235">
        <ele>491.37</ele>
        <time>2018-09-18T10:03:08Z</time>
      </trkpt>
      <trkpt lat="47.144712014123797" lon="9.521203972399235">
        <ele>491.37</ele>
        <time>2018-09-18T10:03:38Z</time>
      </trkpt>
      <trkpt lat="47.144712014123797" lon="9.521203972399235">
        <ele>491.37</ele>
        <time>2018-09-18T10:04:31Z</time>
      </trkpt>
      <trkpt lat="47.144712014123797" lon="9.521203972399235">
        <ele>491.37</ele>
        <time>2018-09-18T10:05:07Z</time>
      </trkpt>
      <trkpt lat="47.144627021625638" lon="9.521061982959509">
        <ele>491.37</ele>
        <time>2018-09-18T10:05:08Z</time>
      </trkpt>
      <trkpt lat="47.144606988877058" lon="9.521016972139478">
        <ele>491.85000000000002</ele>
        <time>2018-09-18T10:05:09Z</time>
      </trkpt>
      <trkpt lat="47.144581004977226" lon="9.520958969369531">
        <ele>491.85000000000002</ele>
        <time>2018-09-18T10:05:10Z</time>
      </trkpt>
      <trkpt lat="47.14430901221931" lon="9.520511962473393">
        <ele>488.49000000000001</ele>
        <time>2018-09-18T10:05:17Z</time>
      </trkpt>
      <trkpt lat="47.144262995570898" lon="9.520467035472393">
        <ele>487.05000000000001</ele>
        <time>2018-09-18T10:05:18Z</time>
      </trkpt>
      <trkpt lat="47.144213961437345" lon="9.520424036309123">
        <ele>486.56</ele>
        <time>2018-09-18T10:05:19Z</time>
      </trkpt>
      <trkpt lat="47.144127041101456" lon="9.520348012447357">
        <ele>484.63999999999999</ele>
        <time>2018-09-18T10:05:21Z</time>
      </trkpt>
      <trkpt lat="47.14409401640296" lon="9.520319011062384">
        <ele>483.68000000000001</ele>
        <time>2018-09-18T10:05:22Z</time>
      </trkpt>
      <trkpt lat="47.144064009189606" lon="9.520258996635675">
        <ele>482.72000000000003</ele>
        <time>2018-09-18T10:05:23Z</time>
      </trkpt>
      <trkpt lat="47.144040958955884" lon="9.520212979987264">
        <ele>481.75999999999999</ele>
        <time>2018-09-18T10:05:24Z</time>
      </trkpt>
      <trkpt lat="47.144018998369575" lon="9.520166041329503">
        <ele>481.27999999999997</ele>
        <time>2018-09-18T10:05:25Z</time>
      </trkpt>
      <trkpt lat="47.143998965620995" lon="9.52011801302433">
        <ele>480.31999999999999</ele>
        <time>2018-09-18T10:05:26Z</time>
      </trkpt>
      <trkpt lat="47.143983040004969" lon="9.520080965012312">
        <ele>479.83999999999997</ele>
        <time>2018-09-18T10:05:27Z</time>
      </trkpt>
      <trkpt lat="47.143983040004969" lon="9.520005024969578">
        <ele>478.87</ele>
        <time>2018-09-18T10:05:28Z</time>
      </trkpt>
      <trkpt lat="47.14396501891315" lon="9.520039977505803">
        <ele>478.38999999999999</ele>
        <time>2018-09-18T10:05:29Z</time>
      </trkpt>
      <trkpt lat="47.144010029733181" lon="9.519950039684773">
        <ele>477.43000000000001</ele>
        <time>2018-09-18T10:05:30Z</time>
      </trkpt>
      <trkpt lat="47.144012041389942" lon="9.51988197863102">
        <ele>476.94999999999999</ele>
        <time>2018-09-18T10:05:31Z</time>
      </trkpt>
      <trkpt lat="47.143994020298123" lon="9.519852977246046">
        <ele>476.47000000000003</ele>
        <time>2018-09-18T10:05:32Z</time>
      </trkpt>
      <trkpt lat="47.143973987549543" lon="9.519819030538201">
        <ele>475.99000000000001</ele>
        <time>2018-09-18T10:05:33Z</time>
      </trkpt>
      <trkpt lat="47.143900981172919" lon="9.519699001684785">
        <ele>474.06999999999999</ele>
        <time>2018-09-18T10:05:36Z</time>
      </trkpt>
      <trkpt lat="47.143870973959565" lon="9.519650973379612">
        <ele>473.58999999999997</ele>
        <time>2018-09-18T10:05:37Z</time>
      </trkpt>
      <trkpt lat="47.14370802976191" lon="9.519398007541895">
        <ele>471.18000000000001</ele>
        <time>2018-09-18T10:05:41Z</time>
      </trkpt>
      <trkpt lat="47.14329999871552" lon="9.519027024507523">
        <ele>466.86000000000001</ele>
        <time>2018-09-18T10:05:49Z</time>
      </trkpt>
      <trkpt lat="47.143289018422365" lon="9.519016966223717">
        <ele>466.38</ele>
        <time>2018-09-18T10:05:50Z</time>
      </trkpt>
      <trkpt lat="47.143136970698833" lon="9.51889400370419">
        <ele>464.44999999999999</ele>
        <time>2018-09-18T10:05:55Z</time>
      </trkpt>
      <trkpt lat="47.143048038706183" lon="9.51861497014761">
        <ele>461.08999999999997</ele>
        <time>2018-09-18T10:06:02Z</time>
      </trkpt>
      <trkpt lat="47.143086008727551" lon="9.518558979034424">
        <ele>460.61000000000001</ele>
        <time>2018-09-18T10:06:03Z</time>
      </trkpt>
      <trkpt lat="47.143118027597666" lon="9.518504999577999">
        <ele>460.61000000000001</ele>
        <time>2018-09-18T10:06:04Z</time>
      </trkpt>
      <trkpt lat="47.143796039745212" lon="9.517363971099258">
        <ele>463.00999999999999</ele>
        <time>2018-09-18T10:06:15Z</time>
      </trkpt>
      <trkpt lat="47.14458997361362" lon="9.515931000933051">
        <ele>468.30000000000001</ele>
        <time>2018-09-18T10:06:27Z</time>
      </trkpt>
      <trkpt lat="47.145531009882689" lon="9.514561984688044">
        <ele>469.25999999999999</ele>
        <time>2018-09-18T10:06:40Z</time>
      </trkpt>
      <trkpt lat="47.146692993119359" lon="9.513508966192603">
        <ele>468.77999999999997</ele>
        <time>2018-09-18T10:06:54Z</time>
      </trkpt>
      <trkpt lat="47.147740982472897" lon="9.512775968760252">
        <ele>469.25999999999999</ele>
        <time>2018-09-18T10:07:05Z</time>
      </trkpt>
      <trkpt lat="47.148933978751302" lon="9.512248998507857">
        <ele>468.77999999999997</ele>
        <time>2018-09-18T10:07:16Z</time>
      </trkpt>
      <trkpt lat="47.150368960574269" lon="9.511629994958639">
        <ele>469.25999999999999</ele>
        <time>2018-09-18T10:07:30Z</time>
      </trkpt>
      <trkpt lat="47.151420973241329" lon="9.511234033852816">
        <ele>469.74000000000001</ele>
        <time>2018-09-18T10:07:40Z</time>
      </trkpt>
      <trkpt lat="47.15152901597321" lon="9.511212995275855">
        <ele>469.74000000000001</ele>
        <time>2018-09-18T10:07:41Z</time>
      </trkpt>
      <trkpt lat="47.151639992371202" lon="9.511195980012417">
        <ele>470.22000000000003</ele>
        <time>2018-09-18T10:07:42Z</time>
      </trkpt>
      <trkpt lat="47.15262696146965" lon="9.510971009731293">
        <ele>472.13999999999999</ele>
        <time>2018-09-18T10:07:51Z</time>
      </trkpt>
      <trkpt lat="47.153943004086614" lon="9.510641014203429">
        <ele>471.18000000000001</ele>
        <time>2018-09-18T10:08:03Z</time>
      </trkpt>
      <trkpt lat="47.154044006019831" lon="9.510619975626469">
        <ele>470.69999999999999</ele>
        <time>2018-09-18T10:08:04Z</time>
      </trkpt>
      <trkpt lat="47.154562007635832" lon="9.510519979521632">
        <ele>469.74000000000001</ele>
        <time>2018-09-18T10:08:11Z</time>
      </trkpt>
      <trkpt lat="47.154842969030142" lon="9.510469017550349">
        <ele>468.77999999999997</ele>
        <time>2018-09-18T10:08:20Z</time>
      </trkpt>
      <trkpt lat="47.155445963144302" lon="9.510340020060539">
        <ele>468.30000000000001</ele>
        <time>2018-09-18T10:08:30Z</time>
      </trkpt>
      <trkpt lat="47.155698006972671" lon="9.510209010913968">
        <ele>468.30000000000001</ele>
        <time>2018-09-18T10:08:35Z</time>
      </trkpt>
      <trkpt lat="47.155780987814069" lon="9.510165005922318">
        <ele>467.81999999999999</ele>
        <time>2018-09-18T10:08:37Z</time>
      </trkpt>
      <trkpt lat="47.155875032767653" lon="9.510116977617145">
        <ele>467.81999999999999</ele>
        <time>2018-09-18T10:08:39Z</time>
      </trkpt>
      <trkpt lat="47.155938986688852" lon="9.5100830309093">
        <ele>468.30000000000001</ele>
        <time>2018-09-18T10:08:40Z</time>
      </trkpt>
      <trkpt lat="47.156024985015392" lon="9.51004003174603">
        <ele>468.30000000000001</ele>
        <time>2018-09-18T10:08:41Z</time>
      </trkpt>
      <trkpt lat="47.156700985506177" lon="9.509682040661573">
        <ele>465.89999999999998</ele>
        <time>2018-09-18T10:08:50Z</time>
      </trkpt>
      <trkpt lat="47.157079009339213" lon="9.509641975164414">
        <ele>466.38</ele>
        <time>2018-09-18T10:08:54Z</time>
      </trkpt>
      <trkpt lat="47.157176993787289" lon="9.509639041498303">
        <ele>466.86000000000001</ele>
        <time>2018-09-18T10:08:55Z</time>
      </trkpt>
      <trkpt lat="47.1578049659729" lon="9.509614985436201">
        <ele>467.81999999999999</ele>
        <time>2018-09-18T10:09:02Z</time>
      </trkpt>
      <trkpt lat="47.157893981784582" lon="9.509611967951059">
        <ele>467.81999999999999</ele>
        <time>2018-09-18T10:09:03Z</time>
      </trkpt>
      <trkpt lat="47.158265970647335" lon="9.509554971009493">
        <ele>467.81999999999999</ele>
        <time>2018-09-18T10:09:07Z</time>
      </trkpt>
      <trkpt lat="47.159376991912723" lon="9.509255988523364">
        <ele>462.52999999999997</ele>
        <time>2018-09-18T10:09:18Z</time>
      </trkpt>
      <trkpt lat="47.160585997626185" lon="9.508937979117036">
        <ele>461.56999999999999</ele>
        <time>2018-09-18T10:09:29Z</time>
      </trkpt>
      <trkpt lat="47.160804010927677" lon="9.508880982175469">
        <ele>461.56999999999999</ele>
        <time>2018-09-18T10:09:31Z</time>
      </trkpt>
      <trkpt lat="47.162079988047481" lon="9.508657017722726">
        <ele>458.69</ele>
        <time>2018-09-18T10:09:43Z</time>
      </trkpt>
      <trkpt lat="47.162138996645808" lon="9.508650982752442">
        <ele>458.20999999999998</ele>
        <time>2018-09-18T10:09:44Z</time>
      </trkpt>
      <trkpt lat="47.162190964445472" lon="9.508645031601191">
        <ele>458.20999999999998</ele>
        <time>2018-09-18T10:09:45Z</time>
      </trkpt>
      <trkpt lat="47.162447031587362" lon="9.508616030216217">
        <ele>456.27999999999997</ele>
        <time>2018-09-18T10:09:54Z</time>
      </trkpt>
      <trkpt lat="47.162510985508561" lon="9.508608989417553">
        <ele>455.80000000000001</ele>
        <time>2018-09-18T10:10:05Z</time>
      </trkpt>
      <trkpt lat="47.162525989115238" lon="9.508607983589172">
        <ele>454.83999999999997</ele>
        <time>2018-09-18T10:10:17Z</time>
      </trkpt>
      <trkpt lat="47.162725981324911" lon="9.508585017174482">
        <ele>453.88</ele>
        <time>2018-09-18T10:10:30Z</time>
      </trkpt>
      <trkpt lat="47.162992022931576" lon="9.508563978597522">
        <ele>454.83999999999997</ele>
        <time>2018-09-18T10:10:40Z</time>
      </trkpt>
      <trkpt lat="47.163325035944581" lon="9.508540006354451">
        <ele>455.80000000000001</ele>
        <time>2018-09-18T10:10:52Z</time>
      </trkpt>
      <trkpt lat="47.163680009543896" lon="9.508581999689341">
        <ele>455.80000000000001</ele>
        <time>2018-09-18T10:11:00Z</time>
      </trkpt>
      <trkpt lat="47.163699958473444" lon="9.508585017174482">
        <ele>455.80000000000001</ele>
        <time>2018-09-18T10:11:04Z</time>
      </trkpt>
      <trkpt lat="47.163967005908489" lon="9.508627010509372">
        <ele>455.31999999999999</ele>
        <time>2018-09-18T10:11:11Z</time>
      </trkpt>
      <trkpt lat="47.164255008101463" lon="9.508680989965797">
        <ele>452.44</ele>
        <time>2018-09-18T10:11:23Z</time>
      </trkpt>
      <trkpt lat="47.164494981989264" lon="9.508726000785828">
        <ele>450.02999999999997</ele>
        <time>2018-09-18T10:11:34Z</time>
      </trkpt>
      <trkpt lat="47.164727998897433" lon="9.508770005777478">
        <ele>449.06999999999999</ele>
        <time>2018-09-18T10:11:44Z</time>
      </trkpt>
      <trkpt lat="47.165029998868704" lon="9.508827002719045">
        <ele>450.02999999999997</ele>
        <time>2018-09-18T10:11:50Z</time>
      </trkpt>
      <trkpt lat="47.165076015517116" lon="9.508834965527058">
        <ele>450.02999999999997</ele>
        <time>2018-09-18T10:11:51Z</time>
      </trkpt>
      <trkpt lat="47.165117003023624" lon="9.508843012154102">
        <ele>450.02999999999997</ele>
        <time>2018-09-18T10:11:52Z</time>
      </trkpt>
      <trkpt lat="47.165395030751824" lon="9.508929010480642">
        <ele>452.44</ele>
        <time>2018-09-18T10:12:01Z</time>
      </trkpt>
      <trkpt lat="47.165649002417922" lon="9.509021965786815">
        <ele>452.44</ele>
        <time>2018-09-18T10:12:13Z</time>
      </trkpt>
      <trkpt lat="47.165965000167489" lon="9.509174013510346">
        <ele>451.95999999999998</ele>
        <time>2018-09-18T10:12:24Z</time>
      </trkpt>
      <trkpt lat="47.166261970996857" lon="9.5093750115484">
        <ele>451</ele>
        <time>2018-09-18T10:12:41Z</time>
      </trkpt>
      <trkpt lat="47.166575035080314" lon="9.509601993486285">
        <ele>451</ele>
        <time>2018-09-18T10:12:48Z</time>
      </trkpt>
      <trkpt lat="47.16691299341619" lon="9.509874992072582">
        <ele>451</ele>
        <time>2018-09-18T10:12:58Z</time>
      </trkpt>
      <trkpt lat="47.166968984529376" lon="9.509920002892613">
        <ele>451.48000000000002</ele>
        <time>2018-09-18T10:13:01Z</time>
      </trkpt>
      <trkpt lat="47.166980970650911" lon="9.509929977357388">
        <ele>451.48000000000002</ele>
        <time>2018-09-18T10:13:02Z</time>
      </trkpt>
      <trkpt lat="47.16699798591435" lon="9.509943975135684">
        <ele>451.48000000000002</ele>
        <time>2018-09-18T10:13:03Z</time>
      </trkpt>
      <trkpt lat="47.167178029194474" lon="9.510115971788764">
        <ele>451.95999999999998</ele>
        <time>2018-09-18T10:13:08Z</time>
      </trkpt>
      <trkpt lat="47.167237959802151" lon="9.51019199565053">
        <ele>451.95999999999998</ele>
        <time>2018-09-18T10:13:09Z</time>
      </trkpt>
      <trkpt lat="47.16729898005724" lon="9.510268019512296">
        <ele>451.95999999999998</ele>
        <time>2018-09-18T10:13:10Z</time>
      </trkpt>
      <trkpt lat="47.16740501113236" lon="9.510402968153358">
        <ele>451.48000000000002</ele>
        <time>2018-09-18T10:13:12Z</time>
      </trkpt>
      <trkpt lat="47.167447004467249" lon="9.510455019772053">
        <ele>451.48000000000002</ele>
        <time>2018-09-18T10:13:13Z</time>
      </trkpt>
      <trkpt lat="47.167562004178762" lon="9.510486032813788">
        <ele>451.48000000000002</ele>
        <time>2018-09-18T10:13:14Z</time>
      </trkpt>
      <trkpt lat="47.167603997513652" lon="9.51040799729526">
        <ele>451.48000000000002</ele>
        <time>2018-09-18T10:13:15Z</time>
      </trkpt>
      <trkpt lat="47.167654959484935" lon="9.510311018675566">
        <ele>451.48000000000002</ele>
        <time>2018-09-18T10:13:16Z</time>
      </trkpt>
      <trkpt lat="47.167710028588772" lon="9.510205993428826">
        <ele>451.48000000000002</ele>
        <time>2018-09-18T10:13:17Z</time>
      </trkpt>
      <trkpt lat="47.167765013873577" lon="9.510100968182087">
        <ele>451.48000000000002</ele>
        <time>2018-09-18T10:13:18Z</time>
      </trkpt>
      <trkpt lat="47.167817987501621" lon="9.50999996624887">
        <ele>451.48000000000002</ele>
        <time>2018-09-18T10:13:19Z</time>
      </trkpt>
      <trkpt lat="47.168025020509958" lon="9.509680029004812">
        <ele>451</ele>
        <time>2018-09-18T10:13:23Z</time>
      </trkpt>
      <trkpt lat="47.168076988309622" lon="9.509635018184781">
        <ele>451</ele>
        <time>2018-09-18T10:13:24Z</time>
      </trkpt>
      <trkpt lat="47.168131973594427" lon="9.509597970172763">
        <ele>451</ele>
        <time>2018-09-18T10:13:25Z</time>
      </trkpt>
      <trkpt lat="47.168201040476561" lon="9.50956704095006">
        <ele>451</ele>
        <time>2018-09-18T10:13:26Z</time>
      </trkpt>
      <trkpt lat="47.168284021317959" lon="9.509553965181112">
        <ele>451</ele>
        <time>2018-09-18T10:13:27Z</time>
      </trkpt>
      <trkpt lat="47.168569006025791" lon="9.509510966017842">
        <ele>450.02999999999997</ele>
        <time>2018-09-18T10:13:30Z</time>
      </trkpt>
      <trkpt lat="47.168659027665854" lon="9.509497974067926">
        <ele>450.02999999999997</ele>
        <time>2018-09-18T10:13:31Z</time>
      </trkpt>
      <trkpt lat="47.168732034042478" lon="9.509487999603152">
        <ele>449.55000000000001</ele>
        <time>2018-09-18T10:13:32Z</time>
      </trkpt>
      <trkpt lat="47.168930014595389" lon="9.509460004046559">
        <ele>449.55000000000001</ele>
        <time>2018-09-18T10:13:35Z</time>
      </trkpt>
      <trkpt lat="47.169191027060151" lon="9.509422034025192">
        <ele>448.58999999999997</ele>
        <time>2018-09-18T10:13:38Z</time>
      </trkpt>
      <trkpt lat="47.170192999765277" lon="9.509293958544731">
        <ele>451</ele>
        <time>2018-09-18T10:13:48Z</time>
      </trkpt>
      <trkpt lat="47.171303015202284" lon="9.509134031832218">
        <ele>451.48000000000002</ele>
        <time>2018-09-18T10:13:58Z</time>
      </trkpt>
      <trkpt lat="47.173059023916721" lon="9.508910989388824">
        <ele>453.39999999999998</ele>
        <time>2018-09-18T10:14:14Z</time>
      </trkpt>
      <trkpt lat="47.174704978242517" lon="9.508700016885996">
        <ele>452.92000000000002</ele>
        <time>2018-09-18T10:14:29Z</time>
      </trkpt>
      <trkpt lat="47.176239034160972" lon="9.508474040776491">
        <ele>453.88</ele>
        <time>2018-09-18T10:14:43Z</time>
      </trkpt>
      <trkpt lat="47.177447034046054" lon="9.508271031081677">
        <ele>451.95999999999998</ele>
        <time>2018-09-18T10:14:54Z</time>
      </trkpt>
      <trkpt lat="47.177666975185275" lon="9.50821403414011">
        <ele>451.95999999999998</ele>
        <time>2018-09-18T10:14:56Z</time>
      </trkpt>
      <trkpt lat="47.177768982946873" lon="9.508185032755137">
        <ele>451.95999999999998</ele>
        <time>2018-09-18T10:14:57Z</time>
      </trkpt>
      <trkpt lat="47.177865039557219" lon="9.508285028859973">
        <ele>451.48000000000002</ele>
        <time>2018-09-18T10:14:58Z</time>
      </trkpt>
      <trkpt lat="47.177971992641687" lon="9.508275976404548">
        <ele>451.48000000000002</ele>
        <time>2018-09-18T10:14:59Z</time>
      </trkpt>
      <trkpt lat="47.17801901511848" lon="9.5081299636513">
        <ele>451.48000000000002</ele>
        <time>2018-09-18T10:15:00Z</time>
      </trkpt>
      <trkpt lat="47.178097972646356" lon="9.508099034428597">
        <ele>451</ele>
        <time>2018-09-18T10:15:01Z</time>
      </trkpt>
      <trkpt lat="47.178187994286418" lon="9.508061986416578">
        <ele>451</ele>
        <time>2018-09-18T10:15:02Z</time>
      </trkpt>
      <trkpt lat="47.178294025361538" lon="9.508018987253308">
        <ele>451</ele>
        <time>2018-09-18T10:15:03Z</time>
      </trkpt>
      <trkpt lat="47.178416987881064" lon="9.507968025282025">
        <ele>450.51999999999998</ele>
        <time>2018-09-18T10:15:04Z</time>
      </trkpt>
      <trkpt lat="47.178547997027636" lon="9.507918991148472">
        <ele>450.02999999999997</ele>
        <time>2018-09-18T10:15:05Z</time>
      </trkpt>
      <trkpt lat="47.18014701269567" lon="9.507400989532471">
        <ele>445.70999999999998</ele>
        <time>2018-09-18T10:15:17Z</time>
      </trkpt>
      <trkpt lat="47.181614013388753" lon="9.506944008171558">
        <ele>445.23000000000002</ele>
        <time>2018-09-18T10:15:28Z</time>
      </trkpt>
      <trkpt lat="47.183273965492845" lon="9.506417037919164">
        <ele>443.79000000000002</ele>
        <time>2018-09-18T10:15:39Z</time>
      </trkpt>
      <trkpt lat="47.185814017429948" lon="9.505610028281808">
        <ele>442.81999999999999</ele>
        <time>2018-09-18T10:15:52Z</time>
      </trkpt>
      <trkpt lat="47.18816002830863" lon="9.504868984222412">
        <ele>441.38</ele>
        <time>2018-09-18T10:16:04Z</time>
      </trkpt>
      <trkpt lat="47.190895965322852" lon="9.50400497764349">
        <ele>440.42000000000002</ele>
        <time>2018-09-18T10:16:18Z</time>
      </trkpt>
      <trkpt lat="47.193636009469628" lon="9.503149017691612">
        <ele>439.45999999999998</ele>
        <time>2018-09-18T10:16:32Z</time>
      </trkpt>
      <trkpt lat="47.196202967315912" lon="9.502319041639566">
        <ele>438.98000000000002</ele>
        <time>2018-09-18T10:16:45Z</time>
      </trkpt>
      <trkpt lat="47.198556018993258" lon="9.501557964831591">
        <ele>438.98000000000002</ele>
        <time>2018-09-18T10:16:57Z</time>
      </trkpt>
      <trkpt lat="47.200682004913688" lon="9.501020014286041">
        <ele>438.5</ele>
        <time>2018-09-18T10:17:08Z</time>
      </trkpt>
      <trkpt lat="47.20242703333497" lon="9.501159992069006">
        <ele>438.98000000000002</ele>
        <time>2018-09-18T10:17:17Z</time>
      </trkpt>
      <trkpt lat="47.204540027305484" lon="9.501647986471653">
        <ele>438.5</ele>
        <time>2018-09-18T10:17:28Z</time>
      </trkpt>
      <trkpt lat="47.205534037202597" lon="9.50187798589468">
        <ele>436.10000000000002</ele>
        <time>2018-09-18T10:17:36Z</time>
      </trkpt>
      <trkpt lat="47.206986034289002" lon="9.502099016681314">
        <ele>432.25</ele>
        <time>2018-09-18T10:17:47Z</time>
      </trkpt>
      <trkpt lat="47.208344992250204" lon="9.502270007506013">
        <ele>432.25</ele>
        <time>2018-09-18T10:17:58Z</time>
      </trkpt>
      <trkpt lat="47.209644019603729" lon="9.502359023317695">
        <ele>434.17000000000002</ele>
        <time>2018-09-18T10:18:09Z</time>
      </trkpt>
      <trkpt lat="47.210440970957279" lon="9.502316024154425">
        <ele>434.17000000000002</ele>
        <time>2018-09-18T10:18:17Z</time>
      </trkpt>
      <trkpt lat="47.210525963455439" lon="9.502335973083973">
        <ele>434.17000000000002</ele>
        <time>2018-09-18T10:18:18Z</time>
      </trkpt>
      <trkpt lat="47.210586983710527" lon="9.502396993339062">
        <ele>434.17000000000002</ele>
        <time>2018-09-18T10:18:19Z</time>
      </trkpt>
      <trkpt lat="47.210648003965616" lon="9.502458013594151">
        <ele>434.17000000000002</ele>
        <time>2018-09-18T10:18:20Z</time>
      </trkpt>
      <trkpt lat="47.210709024220705" lon="9.502544011920691">
        <ele>434.17000000000002</ele>
        <time>2018-09-18T10:18:21Z</time>
      </trkpt>
      <trkpt lat="47.210740959271789" lon="9.50265197083354">
        <ele>434.17000000000002</ele>
        <time>2018-09-18T10:18:22Z</time>
      </trkpt>
      <trkpt lat="47.210773983970284" lon="9.502765964716673">
        <ele>434.17000000000002</ele>
        <time>2018-09-18T10:18:23Z</time>
      </trkpt>
      <trkpt lat="47.210789993405342" lon="9.502966962754726">
        <ele>434.17000000000002</ele>
        <time>2018-09-18T10:18:24Z</time>
      </trkpt>
      <trkpt lat="47.21076400950551" lon="9.503110963851214">
        <ele>434.64999999999998</ele>
        <time>2018-09-18T10:18:25Z</time>
      </trkpt>
      <trkpt lat="47.210586983710527" lon="9.504062980413437">
        <ele>437.54000000000002</ele>
        <time>2018-09-18T10:18:32Z</time>
      </trkpt>
      <trkpt lat="47.210526969283819" lon="9.504182003438473">
        <ele>438.5</ele>
        <time>2018-09-18T10:18:33Z</time>
      </trkpt>
      <trkpt lat="47.210486987605691" lon="9.504205975681543">
        <ele>438.98000000000002</ele>
        <time>2018-09-18T10:18:34Z</time>
      </trkpt>
      <trkpt lat="47.21037701703608" lon="9.504232965409756">
        <ele>439.94</ele>
        <time>2018-09-18T10:18:35Z</time>
      </trkpt>
      <trkpt lat="47.210256988182664" lon="9.504135986790061">
        <ele>440.42000000000002</ele>
        <time>2018-09-18T10:18:36Z</time>
      </trkpt>
      <trkpt lat="47.21022698096931" lon="9.504074966534972">
        <ele>440.89999999999998</ele>
        <time>2018-09-18T10:18:37Z</time>
      </trkpt>
      <trkpt lat="47.210165038704872" lon="9.503886038437486">
        <ele>441.38</ele>
        <time>2018-09-18T10:18:38Z</time>
      </trkpt>
      <trkpt lat="47.210117010399699" lon="9.503740025684238">
        <ele>441.86000000000001</ele>
        <time>2018-09-18T10:18:39Z</time>
      </trkpt>
      <trkpt lat="47.210064958781004" lon="9.503581020981073">
        <ele>442.33999999999997</ele>
        <time>2018-09-18T10:18:40Z</time>
      </trkpt>
      <trkpt lat="47.209799000993371" lon="9.501958033069968">
        <ele>446.67000000000002</ele>
        <time>2018-09-18T10:18:48Z</time>
      </trkpt>
      <trkpt lat="47.209965968504548" lon="9.500134969130158">
        <ele>449.06999999999999</ele>
        <time>2018-09-18T10:18:56Z</time>
      </trkpt>
      <trkpt lat="47.210174007341266" lon="9.498651036992669">
        <ele>450.51999999999998</ele>
        <time>2018-09-18T10:19:05Z</time>
      </trkpt>
      <trkpt lat="47.21022798679769" lon="9.498314000666142">
        <ele>451</ele>
        <time>2018-09-18T10:19:12Z</time>
      </trkpt>
      <trkpt lat="47.21022798679769" lon="9.498314000666142">
        <ele>452.44</ele>
        <time>2018-09-18T10:19:23Z</time>
      </trkpt>
      <trkpt lat="47.210300993174314" lon="9.49786095879972">
        <ele>451.95999999999998</ele>
        <time>2018-09-18T10:19:33Z</time>
      </trkpt>
      <trkpt lat="47.210470978170633" lon="9.496710039675236">
        <ele>451</ele>
        <time>2018-09-18T10:19:42Z</time>
      </trkpt>
      <trkpt lat="47.210640963166952" lon="9.495451999828219">
        <ele>448.11000000000001</ele>
        <time>2018-09-18T10:19:51Z</time>
      </trkpt>
      <trkpt lat="47.210610033944249" lon="9.494321029633284">
        <ele>445.23000000000002</ele>
        <time>2018-09-18T10:19:58Z</time>
      </trkpt>
      <trkpt lat="47.210346003994346" lon="9.493275973945856">
        <ele>440.89999999999998</ele>
        <time>2018-09-18T10:20:06Z</time>
      </trkpt>
      <trkpt lat="47.210286995396018" lon="9.493096014484763">
        <ele>439.45999999999998</ele>
        <time>2018-09-18T10:20:11Z</time>
      </trkpt>
      <trkpt lat="47.210281966254115" lon="9.493076987564564">
        <ele>439.45999999999998</ele>
        <time>2018-09-18T10:20:18Z</time>
      </trkpt>
      <trkpt lat="47.210266962647438" lon="9.4930250197649">
        <ele>438.98000000000002</ele>
        <time>2018-09-18T10:20:19Z</time>
      </trkpt>
      <trkpt lat="47.210089014843106" lon="9.492137040942907">
        <ele>437.06</ele>
        <time>2018-09-18T10:20:26Z</time>
      </trkpt>
      <trkpt lat="47.209936967119575" lon="9.490805994719267">
        <ele>436.10000000000002</ele>
        <time>2018-09-18T10:20:35Z</time>
      </trkpt>
      <trkpt lat="47.209785003215075" lon="9.489639988169074">
        <ele>436.10000000000002</ele>
        <time>2018-09-18T10:20:45Z</time>
      </trkpt>
      <trkpt lat="47.209776034578681" lon="9.489573016762734">
        <ele>436.10000000000002</ele>
        <time>2018-09-18T10:20:46Z</time>
      </trkpt>
      <trkpt lat="47.209769999608397" lon="9.489518031477928">
        <ele>436.10000000000002</ele>
        <time>2018-09-18T10:20:47Z</time>
      </trkpt>
      <trkpt lat="47.209763964638114" lon="9.489473020657897">
        <ele>436.10000000000002</ele>
        <time>2018-09-18T10:20:48Z</time>
      </trkpt>
      <trkpt lat="47.209760025143623" lon="9.489438990131021">
        <ele>436.10000000000002</ele>
        <time>2018-09-18T10:20:57Z</time>
      </trkpt>
      <trkpt lat="47.209716020151973" lon="9.489088961854577">
        <ele>436.10000000000002</ele>
        <time>2018-09-18T10:21:06Z</time>
      </trkpt>
      <trkpt lat="47.209565984085202" lon="9.48784701526165">
        <ele>435.61000000000001</ele>
        <time>2018-09-18T10:21:14Z</time>
      </trkpt>
      <trkpt lat="47.209300026297569" lon="9.485751036554575">
        <ele>432.73000000000002</ele>
        <time>2018-09-18T10:21:25Z</time>
      </trkpt>
      <trkpt lat="47.209058040753007" lon="9.483695039525628">
        <ele>432.25</ele>
        <time>2018-09-18T10:21:34Z</time>
      </trkpt>
      <trkpt lat="47.208760986104608" lon="9.481259007006884">
        <ele>433.20999999999998</ele>
        <time>2018-09-18T10:21:45Z</time>
      </trkpt>
      <trkpt lat="47.208719998598099" lon="9.480919037014246">
        <ele>434.17000000000002</ele>
        <time>2018-09-18T10:21:47Z</time>
      </trkpt>
      <trkpt lat="47.20870197750628" lon="9.480767995119095">
        <ele>434.17000000000002</ele>
        <time>2018-09-18T10:21:48Z</time>
      </trkpt>
      <trkpt lat="47.208669958636165" lon="9.480507988482714">
        <ele>434.64999999999998</ele>
        <time>2018-09-18T10:21:50Z</time>
      </trkpt>
      <trkpt lat="47.208655960857868" lon="9.480399023741484">
        <ele>435.13</ele>
        <time>2018-09-18T10:21:51Z</time>
      </trkpt>
      <trkpt lat="47.208580020815134" lon="9.479811033234">
        <ele>436.57999999999998</ele>
        <time>2018-09-18T10:22:00Z</time>
      </trkpt>
      <trkpt lat="47.208580020815134" lon="9.479811033234">
        <ele>436.10000000000002</ele>
        <time>2018-09-18T10:22:13Z</time>
      </trkpt>
      <trkpt lat="47.208570968359709" lon="9.479730986058712">
        <ele>436.57999999999998</ele>
        <time>2018-09-18T10:22:55Z</time>
      </trkpt>
      <trkpt lat="47.208495028316975" lon="9.479049034416676">
        <ele>437.54000000000002</ele>
        <time>2018-09-18T10:23:01Z</time>
      </trkpt>
      <trkpt lat="47.208267962560058" lon="9.477261006832123">
        <ele>438.98000000000002</ele>
        <time>2018-09-18T10:23:11Z</time>
      </trkpt>
      <trkpt lat="47.208033017814159" lon="9.475180031731725">
        <ele>439.94</ele>
        <time>2018-09-18T10:23:19Z</time>
      </trkpt>
      <trkpt lat="47.20734897069633" lon="9.469688963145018">
        <ele>441.38</ele>
        <time>2018-09-18T10:23:38Z</time>
      </trkpt>
      <trkpt lat="47.20696097239852" lon="9.466518005356193">
        <ele>442.81999999999999</ele>
        <time>2018-09-18T10:23:49Z</time>
      </trkpt>
      <trkpt lat="47.206393014639616" lon="9.461920028552413">
        <ele>448.11000000000001</ele>
        <time>2018-09-18T10:24:05Z</time>
      </trkpt>
      <trkpt lat="47.205938966944814" lon="9.458193015307188">
        <ele>454.36000000000001</ele>
        <time>2018-09-18T10:24:18Z</time>
      </trkpt>
      <trkpt lat="47.205768981948495" lon="9.456748981028795">
        <ele>456.27999999999997</ele>
        <time>2018-09-18T10:24:25Z</time>
      </trkpt>
      <trkpt lat="47.205573013052344" lon="9.455099003389478">
        <ele>457.72000000000003</ele>
        <time>2018-09-18T10:24:35Z</time>
      </trkpt>
      <trkpt lat="47.20526397228241" lon="9.452601028606296">
        <ele>460.61000000000001</ele>
        <time>2018-09-18T10:24:49Z</time>
      </trkpt>
      <trkpt lat="47.204969013109803" lon="9.450109004974365">
        <ele>464.44999999999999</ele>
        <time>2018-09-18T10:25:03Z</time>
      </trkpt>
      <trkpt lat="47.204700037837029" lon="9.447987964376807">
        <ele>467.33999999999997</ele>
        <time>2018-09-18T10:25:15Z</time>
      </trkpt>
      <trkpt lat="47.204407006502151" lon="9.445502981543541">
        <ele>471.66000000000003</ele>
        <time>2018-09-18T10:25:29Z</time>
      </trkpt>
      <trkpt lat="47.204183964058757" lon="9.443361992016435">
        <ele>475.02999999999997</ele>
        <time>2018-09-18T10:25:41Z</time>
      </trkpt>
      <trkpt lat="47.203939966857433" lon="9.44141898304224">
        <ele>478.87</ele>
        <time>2018-09-18T10:25:52Z</time>
      </trkpt>
      <trkpt lat="47.203857991844416" lon="9.441291997209191">
        <ele>479.35000000000002</ele>
        <time>2018-09-18T10:25:53Z</time>
      </trkpt>
      <trkpt lat="47.203778028488159" lon="9.441168028861284">
        <ele>479.83999999999997</ele>
        <time>2018-09-18T10:25:54Z</time>
      </trkpt>
      <trkpt lat="47.203691024333239" lon="9.441070966422558">
        <ele>480.31999999999999</ele>
        <time>2018-09-18T10:25:55Z</time>
      </trkpt>
      <trkpt lat="47.203589016571641" lon="9.440985973924398">
        <ele>480.31999999999999</ele>
        <time>2018-09-18T10:25:56Z</time>
      </trkpt>
      <trkpt lat="47.203276958316565" lon="9.440724039450288">
        <ele>481.75999999999999</ele>
        <time>2018-09-18T10:25:59Z</time>
      </trkpt>
      <trkpt lat="47.203177968040109" lon="9.44062203168869">
        <ele>482.72000000000003</ele>
        <time>2018-09-18T10:26:00Z</time>
      </trkpt>
      <trkpt lat="47.203092975541949" lon="9.440498985350132">
        <ele>483.19999999999999</ele>
        <time>2018-09-18T10:26:01Z</time>
      </trkpt>
      <trkpt lat="47.201865026727319" lon="9.438720010221005">
        <ele>496.18000000000001</ele>
        <time>2018-09-18T10:26:15Z</time>
      </trkpt>
      <trkpt lat="47.200779989361763" lon="9.437330961227417">
        <ele>508.19</ele>
        <time>2018-09-18T10:26:26Z</time>
      </trkpt>
      <trkpt lat="47.200476983562112" lon="9.436930976808071">
        <ele>511.56</ele>
        <time>2018-09-18T10:26:29Z</time>
      </trkpt>
      <trkpt lat="47.200404983013868" lon="9.436760991811752">
        <ele>512.51999999999998</ele>
        <time>2018-09-18T10:26:30Z</time>
      </trkpt>
      <trkpt lat="47.200184036046267" lon="9.436247013509274">
        <ele>515.88</ele>
        <time>2018-09-18T10:26:33Z</time>
      </trkpt>
      <trkpt lat="47.200074987486005" lon="9.436096977442503">
        <ele>516.85000000000002</ele>
        <time>2018-09-18T10:26:34Z</time>
      </trkpt>
      <trkpt lat="47.199965016916394" lon="9.435970997437835">
        <ele>518.28999999999996</ele>
        <time>2018-09-18T10:26:35Z</time>
      </trkpt>
      <trkpt lat="47.198633970692754" lon="9.434971958398819">
        <ele>530.78999999999996</ele>
        <time>2018-09-18T10:26:44Z</time>
      </trkpt>
      <trkpt lat="47.197516998276114" lon="9.434248013421893">
        <ele>542.32000000000005</ele>
        <time>2018-09-18T10:26:52Z</time>
      </trkpt>
      <trkpt lat="47.197425970807672" lon="9.434132007881999">
        <ele>543.27999999999997</ele>
        <time>2018-09-18T10:26:53Z</time>
      </trkpt>
      <trkpt lat="47.197333015501499" lon="9.433985995128751">
        <ele>544.72000000000003</ele>
        <time>2018-09-18T10:26:54Z</time>
      </trkpt>
      <trkpt lat="47.197180967777967" lon="9.433579975739121">
        <ele>547.61000000000001</ele>
        <time>2018-09-18T10:26:56Z</time>
      </trkpt>
      <trkpt lat="47.197050964459777" lon="9.433394987136126">
        <ele>549.04999999999995</ele>
        <time>2018-09-18T10:26:57Z</time>
      </trkpt>
      <trkpt lat="47.196903023868799" lon="9.433219972997904">
        <ele>550.49000000000001</ele>
        <time>2018-09-18T10:26:58Z</time>
      </trkpt>
      <trkpt lat="47.196753993630409" lon="9.433044036850333">
        <ele>551.92999999999995</ele>
        <time>2018-09-18T10:26:59Z</time>
      </trkpt>
      <trkpt lat="47.196598006412387" lon="9.432916967198253">
        <ele>553.86000000000001</ele>
        <time>2018-09-18T10:27:00Z</time>
      </trkpt>
      <trkpt lat="47.196448976173997" lon="9.432834992185235">
        <ele>554.82000000000005</ele>
        <time>2018-09-18T10:27:01Z</time>
      </trkpt>
      <trkpt lat="47.196310004219413" lon="9.43276097998023">
        <ele>556.25999999999999</ele>
        <time>2018-09-18T10:27:02Z</time>
      </trkpt>
      <trkpt lat="47.196102971211076" lon="9.432599963620305">
        <ele>560.11000000000001</ele>
        <time>2018-09-18T10:27:04Z</time>
      </trkpt>
      <trkpt lat="47.196044968441129" lon="9.432460991665721">
        <ele>562.02999999999997</ele>
        <time>2018-09-18T10:27:05Z</time>
      </trkpt>
      <trkpt lat="47.195986965671182" lon="9.432297963649035">
        <ele>563.95000000000005</ele>
        <time>2018-09-18T10:27:06Z</time>
      </trkpt>
      <trkpt lat="47.195794014260173" lon="9.431793037801981">
        <ele>568.27999999999997</ele>
        <time>2018-09-18T10:27:09Z</time>
      </trkpt>
      <trkpt lat="47.195576000958681" lon="9.431387018412352">
        <ele>572.12</ele>
        <time>2018-09-18T10:27:13Z</time>
      </trkpt>
      <trkpt lat="47.195584969595075" lon="9.431301020085812">
        <ele>572.60000000000002</ele>
        <time>2018-09-18T10:27:14Z</time>
      </trkpt>
      <trkpt lat="47.195623023435473" lon="9.431204041466117">
        <ele>573.08000000000004</ele>
        <time>2018-09-18T10:27:15Z</time>
      </trkpt>
      <trkpt lat="47.195711033418775" lon="9.431177973747253">
        <ele>573.55999999999995</ele>
        <time>2018-09-18T10:27:16Z</time>
      </trkpt>
      <trkpt lat="47.195789990946651" lon="9.431231031194329">
        <ele>574.03999999999996</ele>
        <time>2018-09-18T10:27:17Z</time>
      </trkpt>
      <trkpt lat="47.195872971788049" lon="9.431313006207347">
        <ele>575.00999999999999</ele>
        <time>2018-09-18T10:27:18Z</time>
      </trkpt>
      <trkpt lat="47.195966010913253" lon="9.4314069673419">
        <ele>575.49000000000001</ele>
        <time>2018-09-18T10:27:19Z</time>
      </trkpt>
      <trkpt lat="47.196071036159992" lon="9.431511992588639">
        <ele>575.97000000000003</ele>
        <time>2018-09-18T10:27:20Z</time>
      </trkpt>
      <trkpt lat="47.196436990052462" lon="9.431826984509826">
        <ele>578.37</ele>
        <time>2018-09-18T10:27:23Z</time>
      </trkpt>
      <trkpt lat="47.19658300280571" lon="9.431908959522843">
        <ele>579.80999999999995</ele>
        <time>2018-09-18T10:27:24Z</time>
      </trkpt>
      <trkpt lat="47.196737984195352" lon="9.431969979777932">
        <ele>580.76999999999998</ele>
        <time>2018-09-18T10:27:25Z</time>
      </trkpt>
      <trkpt lat="47.196901012212038" lon="9.432003004476428">
        <ele>581.73000000000002</ele>
        <time>2018-09-18T10:27:26Z</time>
      </trkpt>
      <trkpt lat="47.197062028571963" lon="9.432018008083105">
        <ele>583.17999999999995</ele>
        <time>2018-09-18T10:27:27Z</time>
      </trkpt>
      <trkpt lat="47.197216004133224" lon="9.432011973112822">
        <ele>584.62</ele>
        <time>2018-09-18T10:27:28Z</time>
      </trkpt>
      <trkpt lat="47.197503000497818" lon="9.432000992819667">
        <ele>587.01999999999998</ele>
        <time>2018-09-18T10:27:30Z</time>
      </trkpt>
      <trkpt lat="47.197653036564589" lon="9.432038962841034">
        <ele>588.95000000000005</ele>
        <time>2018-09-18T10:27:31Z</time>
      </trkpt>
      <trkpt lat="47.197924023494124" lon="9.432164020836353">
        <ele>591.35000000000002</ele>
        <time>2018-09-18T10:27:33Z</time>
      </trkpt>
      <trkpt lat="47.198059977963567" lon="9.432225963100791">
        <ele>592.78999999999996</ele>
        <time>2018-09-18T10:27:34Z</time>
      </trkpt>
      <trkpt lat="47.198198027908802" lon="9.432255970314145">
        <ele>594.23000000000002</ele>
        <time>2018-09-18T10:27:35Z</time>
      </trkpt>
      <trkpt lat="47.199405021965504" lon="9.432081962004304">
        <ele>607.21000000000004</ele>
        <time>2018-09-18T10:27:44Z</time>
      </trkpt>
      <trkpt lat="47.200680999085307" lon="9.4318369589746">
        <ele>622.59000000000003</ele>
        <time>2018-09-18T10:27:53Z</time>
      </trkpt>
      <trkpt lat="47.201534025371075" lon="9.431851040571928">
        <ele>630.75999999999999</ele>
        <time>2018-09-18T10:27:59Z</time>
      </trkpt>
      <trkpt lat="47.201651036739349" lon="9.431875012814999">
        <ele>631.72000000000003</ele>
        <time>2018-09-18T10:28:00Z</time>
      </trkpt>
      <trkpt lat="47.20174097456038" lon="9.431928992271423">
        <ele>633.16999999999996</ele>
        <time>2018-09-18T10:28:01Z</time>
      </trkpt>
      <trkpt lat="47.201821021735668" lon="9.431978026404977">
        <ele>634.13</ele>
        <time>2018-09-18T10:28:02Z</time>
      </trkpt>
      <trkpt lat="47.201888998970389" lon="9.432020019739866">
        <ele>634.61000000000001</ele>
        <time>2018-09-18T10:28:03Z</time>
      </trkpt>
      <trkpt lat="47.201951025053859" lon="9.432057989761233">
        <ele>635.57000000000005</ele>
        <time>2018-09-18T10:28:04Z</time>
      </trkpt>
      <trkpt lat="47.202009027823806" lon="9.43209302611649">
        <ele>636.52999999999997</ele>
        <time>2018-09-18T10:28:05Z</time>
      </trkpt>
      <trkpt lat="47.202058983966708" lon="9.432067964226008">
        <ele>637.00999999999999</ele>
        <time>2018-09-18T10:28:06Z</time>
      </trkpt>
      <trkpt lat="47.202094020321965" lon="9.432020019739866">
        <ele>637.97000000000003</ele>
        <time>2018-09-18T10:28:07Z</time>
      </trkpt>
      <trkpt lat="47.202081028372049" lon="9.431904014199972">
        <ele>638.92999999999995</ele>
        <time>2018-09-18T10:28:08Z</time>
      </trkpt>
      <trkpt lat="47.20206200145185" lon="9.431810975074768">
        <ele>639.40999999999997</ele>
        <time>2018-09-18T10:28:09Z</time>
      </trkpt>
      <trkpt lat="47.20199896954" lon="9.431717013940215">
        <ele>640.38</ele>
        <time>2018-09-18T10:28:10Z</time>
      </trkpt>
      <trkpt lat="47.201926968991756" lon="9.431608971208334">
        <ele>640.86000000000001</ele>
        <time>2018-09-18T10:28:11Z</time>
      </trkpt>
      <trkpt lat="47.201851028949022" lon="9.431486008688808">
        <ele>641.34000000000003</ele>
        <time>2018-09-18T10:28:12Z</time>
      </trkpt>
      <trkpt lat="47.201791014522314" lon="9.431327003985643">
        <ele>641.82000000000005</ele>
        <time>2018-09-18T10:28:13Z</time>
      </trkpt>
      <trkpt lat="47.201727982610464" lon="9.431156013160944">
        <ele>642.77999999999997</ele>
        <time>2018-09-18T10:28:14Z</time>
      </trkpt>
      <trkpt lat="47.201690012589097" lon="9.430957026779652">
        <ele>643.74000000000001</ele>
        <time>2018-09-18T10:28:15Z</time>
      </trkpt>
      <trkpt lat="47.201649025082588" lon="9.430741025134921">
        <ele>645.17999999999995</ele>
        <time>2018-09-18T10:28:16Z</time>
      </trkpt>
      <trkpt lat="47.201619017869234" lon="9.430508008226752">
        <ele>646.13999999999999</ele>
        <time>2018-09-18T10:28:17Z</time>
      </trkpt>
      <trkpt lat="47.201609965413809" lon="9.430272979661822">
        <ele>647.59000000000003</ele>
        <time>2018-09-18T10:28:18Z</time>
      </trkpt>
      <trkpt lat="47.20154601149261" lon="9.429851034656167">
        <ele>649.99000000000001</ele>
        <time>2018-09-18T10:28:20Z</time>
      </trkpt>
      <trkpt lat="47.201487002894282" lon="9.42966403439641">
        <ele>651.42999999999995</ele>
        <time>2018-09-18T10:28:21Z</time>
      </trkpt>
      <trkpt lat="47.201395975425839" lon="9.429512992501259">
        <ele>652.38999999999999</ele>
        <time>2018-09-18T10:28:22Z</time>
      </trkpt>
      <trkpt lat="47.201289022341371" lon="9.429377038031817">
        <ele>653.83000000000004</ele>
        <time>2018-09-18T10:28:23Z</time>
      </trkpt>
      <trkpt lat="47.201154995709658" lon="9.429328003898263">
        <ele>655.27999999999997</ele>
        <time>2018-09-18T10:28:24Z</time>
      </trkpt>
      <trkpt lat="47.201012000441551" lon="9.429303025826812">
        <ele>656.24000000000001</ele>
        <time>2018-09-18T10:28:25Z</time>
      </trkpt>
      <trkpt lat="47.2008609585464" lon="9.429330015555024">
        <ele>657.67999999999995</ele>
        <time>2018-09-18T10:28:26Z</time>
      </trkpt>
      <trkpt lat="47.200702037662268" lon="9.429371003061533">
        <ele>658.63999999999999</ele>
        <time>2018-09-18T10:28:27Z</time>
      </trkpt>
      <trkpt lat="47.200538003817201" lon="9.429412996396422">
        <ele>659.60000000000002</ele>
        <time>2018-09-18T10:28:28Z</time>
      </trkpt>
      <trkpt lat="47.20010700635612" lon="9.429490026086569">
        <ele>662.49000000000001</ele>
        <time>2018-09-18T10:28:31Z</time>
      </trkpt>
      <trkpt lat="47.199981026351452" lon="9.429445015266538">
        <ele>663.45000000000005</ele>
        <time>2018-09-18T10:28:32Z</time>
      </trkpt>
      <trkpt lat="47.199846999719739" lon="9.429391035810113">
        <ele>664.40999999999997</ele>
        <time>2018-09-18T10:28:33Z</time>
      </trkpt>
      <trkpt lat="47.199716996401548" lon="9.429297996684909">
        <ele>665.37</ele>
        <time>2018-09-18T10:28:34Z</time>
      </trkpt>
      <trkpt lat="47.199580036103725" lon="9.429201018065214">
        <ele>666.33000000000004</ele>
        <time>2018-09-18T10:28:35Z</time>
      </trkpt>
      <trkpt lat="47.198740001767874" lon="9.428816959261894">
        <ele>673.05999999999995</ele>
        <time>2018-09-18T10:28:41Z</time>
      </trkpt>
      <trkpt lat="47.198632964864373" lon="9.428710006177425">
        <ele>674.01999999999998</ele>
        <time>2018-09-18T10:28:42Z</time>
      </trkpt>
      <trkpt lat="47.198522994294763" lon="9.428599029779434">
        <ele>675.46000000000004</ele>
        <time>2018-09-18T10:28:43Z</time>
      </trkpt>
      <trkpt lat="47.19841000624001" lon="9.428472965955734">
        <ele>676.41999999999996</ele>
        <time>2018-09-18T10:28:44Z</time>
      </trkpt>
      <trkpt lat="47.198317972943187" lon="9.428295018151403">
        <ele>677.38999999999999</ele>
        <time>2018-09-18T10:28:45Z</time>
      </trkpt>
      <trkpt lat="47.198218982666731" lon="9.428107012063265">
        <ele>678.83000000000004</ele>
        <time>2018-09-18T10:28:46Z</time>
      </trkpt>
      <trkpt lat="47.197481039911509" lon="9.42661302164197">
        <ele>687.96000000000004</ele>
        <time>2018-09-18T10:28:53Z</time>
      </trkpt>
      <trkpt lat="47.197447009384632" lon="9.426352009177208">
        <ele>689.39999999999998</ele>
        <time>2018-09-18T10:28:54Z</time>
      </trkpt>
      <trkpt lat="47.197415996342897" lon="9.426118992269039">
        <ele>690.84000000000003</ele>
        <time>2018-09-18T10:28:55Z</time>
      </trkpt>
      <trkpt lat="47.197447009384632" lon="9.425870971754193">
        <ele>691.80999999999995</ele>
        <time>2018-09-18T10:28:56Z</time>
      </trkpt>
      <trkpt lat="47.197478022426367" lon="9.425623035058379">
        <ele>693.25</ele>
        <time>2018-09-18T10:28:57Z</time>
      </trkpt>
      <trkpt lat="47.197509035468102" lon="9.425380965694785">
        <ele>694.21000000000004</ele>
        <time>2018-09-18T10:28:58Z</time>
      </trkpt>
      <trkpt lat="47.197538036853075" lon="9.425143003463745">
        <ele>695.64999999999998</ele>
        <time>2018-09-18T10:28:59Z</time>
      </trkpt>
      <trkpt lat="47.197526972740889" lon="9.42489699460566">
        <ele>697.09000000000003</ele>
        <time>2018-09-18T10:29:00Z</time>
      </trkpt>
      <trkpt lat="47.197482967749238" lon="9.424421992152929">
        <ele>699.5</ele>
        <time>2018-09-18T10:29:02Z</time>
      </trkpt>
      <trkpt lat="47.197508029639721" lon="9.424181012436748">
        <ele>700.46000000000004</ele>
        <time>2018-09-18T10:29:03Z</time>
      </trkpt>
      <trkpt lat="47.197538036853075" lon="9.423937015235424">
        <ele>701.41999999999996</ele>
        <time>2018-09-18T10:29:04Z</time>
      </trkpt>
      <trkpt lat="47.197864009067416" lon="9.421917982399464">
        <ele>709.59000000000003</ele>
        <time>2018-09-18T10:29:12Z</time>
      </trkpt>
      <trkpt lat="47.197881024330854" lon="9.421644983813167">
        <ele>711.02999999999997</ele>
        <time>2018-09-18T10:29:13Z</time>
      </trkpt>
      <trkpt lat="47.197924023494124" lon="9.420815007761121">
        <ele>715.84000000000003</ele>
        <time>2018-09-18T10:29:16Z</time>
      </trkpt>
      <trkpt lat="47.197859985753894" lon="9.420584002509713">
        <ele>717.27999999999997</ele>
        <time>2018-09-18T10:29:17Z</time>
      </trkpt>
      <trkpt lat="47.197737023234367" lon="9.420143030583859">
        <ele>720.15999999999997</ele>
        <time>2018-09-18T10:29:19Z</time>
      </trkpt>
      <trkpt lat="47.197677008807659" lon="9.419886041432619">
        <ele>721.61000000000001</ele>
        <time>2018-09-18T10:29:20Z</time>
      </trkpt>
      <trkpt lat="47.197699975222349" lon="9.419641960412264">
        <ele>723.04999999999995</ele>
        <time>2018-09-18T10:29:21Z</time>
      </trkpt>
      <trkpt lat="47.197651024907827" lon="9.418295994400978">
        <ele>728.82000000000005</ele>
        <time>2018-09-18T10:29:26Z</time>
      </trkpt>
      <trkpt lat="47.197605008259416" lon="9.418016038835049">
        <ele>729.77999999999997</ele>
        <time>2018-09-18T10:29:27Z</time>
      </trkpt>
      <trkpt lat="47.197515992447734" lon="9.417758965864778">
        <ele>730.74000000000001</ele>
        <time>2018-09-18T10:29:28Z</time>
      </trkpt>
      <trkpt lat="47.19681903719902" lon="9.415738005191088">
        <ele>736.99000000000001</ele>
        <time>2018-09-18T10:29:36Z</time>
      </trkpt>
      <trkpt lat="47.196745024994016" lon="9.415509011596441">
        <ele>737.95000000000005</ele>
        <time>2018-09-18T10:29:37Z</time>
      </trkpt>
      <trkpt lat="47.196699008345604" lon="9.415258979424834">
        <ele>738.42999999999995</ele>
        <time>2018-09-18T10:29:38Z</time>
      </trkpt>
      <trkpt lat="47.196254013106227" lon="9.412853959947825">
        <ele>747.08000000000004</ele>
        <time>2018-09-18T10:29:48Z</time>
      </trkpt>
      <trkpt lat="47.19621998257935" lon="9.412669977173209">
        <ele>748.03999999999996</ele>
        <time>2018-09-18T10:29:49Z</time>
      </trkpt>
      <trkpt lat="47.196226017549634" lon="9.412488006055355">
        <ele>749</ele>
        <time>2018-09-18T10:29:50Z</time>
      </trkpt>
      <trkpt lat="47.196244960650802" lon="9.412320032715797">
        <ele>749.97000000000003</ele>
        <time>2018-09-18T10:29:51Z</time>
      </trkpt>
      <trkpt lat="47.196306986734271" lon="9.412157004699111">
        <ele>750.92999999999995</ele>
        <time>2018-09-18T10:29:52Z</time>
      </trkpt>
      <trkpt lat="47.196375969797373" lon="9.411976961418986">
        <ele>751.88999999999999</ele>
        <time>2018-09-18T10:29:53Z</time>
      </trkpt>
      <trkpt lat="47.196591971442103" lon="9.41138100810349">
        <ele>755.73000000000002</ele>
        <time>2018-09-18T10:29:56Z</time>
      </trkpt>
      <trkpt lat="47.196630025282502" lon="9.411189984530211">
        <ele>757.17999999999995</ele>
        <time>2018-09-18T10:29:57Z</time>
      </trkpt>
      <trkpt lat="47.196629019454122" lon="9.410964008420706">
        <ele>758.62</ele>
        <time>2018-09-18T10:29:58Z</time>
      </trkpt>
      <trkpt lat="47.19660697504878" lon="9.410737026482821">
        <ele>760.05999999999995</ele>
        <time>2018-09-18T10:29:59Z</time>
      </trkpt>
      <trkpt lat="47.19658400863409" lon="9.410501997917891">
        <ele>761.5</ele>
        <time>2018-09-18T10:30:00Z</time>
      </trkpt>
      <trkpt lat="47.196560958400369" lon="9.410273004323244">
        <ele>762.94000000000005</ele>
        <time>2018-09-18T10:30:01Z</time>
      </trkpt>
      <trkpt lat="47.196479989215732" lon="9.410049039870501">
        <ele>764.87</ele>
        <time>2018-09-18T10:30:02Z</time>
      </trkpt>
      <trkpt lat="47.196331964805722" lon="9.409685013815761">
        <ele>768.23000000000002</ele>
        <time>2018-09-18T10:30:04Z</time>
      </trkpt>
      <trkpt lat="47.196297012269497" lon="9.409484015777707">
        <ele>769.66999999999996</ele>
        <time>2018-09-18T10:30:05Z</time>
      </trkpt>
      <trkpt lat="47.196267005056143" lon="9.409273965284228">
        <ele>771.11000000000001</ele>
        <time>2018-09-18T10:30:06Z</time>
      </trkpt>
      <trkpt lat="47.196276979520917" lon="9.409071961417794">
        <ele>772.08000000000004</ele>
        <time>2018-09-18T10:30:07Z</time>
      </trkpt>
      <trkpt lat="47.196308998391032" lon="9.408850008621812">
        <ele>773.51999999999998</ele>
        <time>2018-09-18T10:30:08Z</time>
      </trkpt>
      <trkpt lat="47.196364989504218" lon="9.408395038917661">
        <ele>776.39999999999998</ele>
        <time>2018-09-18T10:30:10Z</time>
      </trkpt>
      <trkpt lat="47.196364989504218" lon="9.40813796594739">
        <ele>777.84000000000003</ele>
        <time>2018-09-18T10:30:11Z</time>
      </trkpt>
      <trkpt lat="47.196313021704555" lon="9.407930010929704">
        <ele>779.28999999999996</ele>
        <time>2018-09-18T10:30:12Z</time>
      </trkpt>
      <trkpt lat="47.196053015068173" lon="9.40689199604094">
        <ele>785.52999999999997</ele>
        <time>2018-09-18T10:30:17Z</time>
      </trkpt>
      <trkpt lat="47.19600398093462" lon="9.406525958329439">
        <ele>788.41999999999996</ele>
        <time>2018-09-18T10:30:19Z</time>
      </trkpt>
      <trkpt lat="47.195988977327943" lon="9.406321020796895">
        <ele>789.86000000000001</ele>
        <time>2018-09-18T10:30:20Z</time>
      </trkpt>
      <trkpt lat="47.195973973721266" lon="9.406107030808926">
        <ele>791.29999999999995</ele>
        <time>2018-09-18T10:30:21Z</time>
      </trkpt>
      <trkpt lat="47.195955030620098" lon="9.405878959223628">
        <ele>792.74000000000001</ele>
        <time>2018-09-18T10:30:22Z</time>
      </trkpt>
      <trkpt lat="47.19587498344481" lon="9.405678967013955">
        <ele>794.19000000000005</ele>
        <time>2018-09-18T10:30:23Z</time>
      </trkpt>
      <trkpt lat="47.195778004825115" lon="9.405480986461043">
        <ele>795.14999999999998</ele>
        <time>2018-09-18T10:30:24Z</time>
      </trkpt>
      <trkpt lat="47.195663005113602" lon="9.405294992029667">
        <ele>796.59000000000003</ele>
        <time>2018-09-18T10:30:25Z</time>
      </trkpt>
      <trkpt lat="47.195352958515286" lon="9.404800040647388">
        <ele>799.47000000000003</ele>
        <time>2018-09-18T10:30:28Z</time>
      </trkpt>
      <trkpt lat="47.195242987945676" lon="9.4047009665519">
        <ele>800.44000000000005</ele>
        <time>2018-09-18T10:30:29Z</time>
      </trkpt>
      <trkpt lat="47.195120025426149" lon="9.404618991538882">
        <ele>801.39999999999998</ele>
        <time>2018-09-18T10:30:30Z</time>
      </trkpt>
      <trkpt lat="47.194998990744352" lon="9.404575992375612">
        <ele>801.88</ele>
        <time>2018-09-18T10:30:31Z</time>
      </trkpt>
      <trkpt lat="47.194880973547697" lon="9.404535004869103">
        <ele>802.84000000000003</ele>
        <time>2018-09-18T10:30:32Z</time>
      </trkpt>
      <trkpt lat="47.194775026291609" lon="9.404497034847736">
        <ele>803.32000000000005</ele>
        <time>2018-09-18T10:30:33Z</time>
      </trkpt>
      <trkpt lat="47.194677963852882" lon="9.404383040964603">
        <ele>804.27999999999997</ele>
        <time>2018-09-18T10:30:34Z</time>
      </trkpt>
      <trkpt lat="47.194587020203471" lon="9.404258988797665">
        <ele>804.75999999999999</ele>
        <time>2018-09-18T10:30:35Z</time>
      </trkpt>
      <trkpt lat="47.194522982463241" lon="9.404071988537908">
        <ele>805.72000000000003</ele>
        <time>2018-09-18T10:30:36Z</time>
      </trkpt>
      <trkpt lat="47.194459028542042" lon="9.403882976621389">
        <ele>806.20000000000005</ele>
        <time>2018-09-18T10:30:37Z</time>
      </trkpt>
      <trkpt lat="47.194395996630192" lon="9.403704022988677">
        <ele>807.15999999999997</ele>
        <time>2018-09-18T10:30:38Z</time>
      </trkpt>
      <trkpt lat="47.194346040487289" lon="9.403549963608384">
        <ele>807.63999999999999</ele>
        <time>2018-09-18T10:30:39Z</time>
      </trkpt>
      <trkpt lat="47.194328019395471" lon="9.403405040502548">
        <ele>808.13</ele>
        <time>2018-09-18T10:30:40Z</time>
      </trkpt>
      <trkpt lat="47.194312009960413" lon="9.403278976678848">
        <ele>808.61000000000001</ele>
        <time>2018-09-18T10:30:41Z</time>
      </trkpt>
      <trkpt lat="47.194348974153399" lon="9.403162971138954">
        <ele>808.61000000000001</ele>
        <time>2018-09-18T10:30:42Z</time>
      </trkpt>
      <trkpt lat="47.194416029378772" lon="9.403071021661162">
        <ele>809.09000000000003</ele>
        <time>2018-09-18T10:30:43Z</time>
      </trkpt>
      <trkpt lat="47.194488029927015" lon="9.402970019727945">
        <ele>810.04999999999995</ele>
        <time>2018-09-18T10:30:44Z</time>
      </trkpt>
      <trkpt lat="47.194571010768414" lon="9.402854014188051">
        <ele>811.00999999999999</ele>
        <time>2018-09-18T10:30:45Z</time>
      </trkpt>
      <trkpt lat="47.194662960246205" lon="9.402727028355002">
        <ele>811.97000000000003</ele>
        <time>2018-09-18T10:30:46Z</time>
      </trkpt>
      <trkpt lat="47.194719035178423" lon="9.40257296897471">
        <ele>813.40999999999997</ele>
        <time>2018-09-18T10:30:47Z</time>
      </trkpt>
      <trkpt lat="47.194764968007803" lon="9.402383035048842">
        <ele>814.37</ele>
        <time>2018-09-18T10:30:48Z</time>
      </trkpt>
      <trkpt lat="47.194812996312976" lon="9.402182037010789">
        <ele>815.82000000000005</ele>
        <time>2018-09-18T10:30:49Z</time>
      </trkpt>
      <trkpt lat="47.194878039881587" lon="9.401983972638845">
        <ele>816.29999999999995</ele>
        <time>2018-09-18T10:30:50Z</time>
      </trkpt>
      <trkpt lat="47.194965966045856" lon="9.401788003742695">
        <ele>817.25999999999999</ele>
        <time>2018-09-18T10:30:51Z</time>
      </trkpt>
      <trkpt lat="47.195056993514299" lon="9.4015839882195">
        <ele>818.70000000000005</ele>
        <time>2018-09-18T10:30:52Z</time>
      </trkpt>
      <trkpt lat="47.195135029032826" lon="9.40136999823153">
        <ele>819.65999999999997</ele>
        <time>2018-09-18T10:30:53Z</time>
      </trkpt>
      <trkpt lat="47.195179034024477" lon="9.401151984930039">
        <ele>821.10000000000002</ele>
        <time>2018-09-18T10:30:54Z</time>
      </trkpt>
      <trkpt lat="47.195241982117295" lon="9.400946041569114">
        <ele>822.54999999999995</ele>
        <time>2018-09-18T10:30:55Z</time>
      </trkpt>
      <trkpt lat="47.195335021242499" lon="9.400770021602511">
        <ele>823.99000000000001</ele>
        <time>2018-09-18T10:30:56Z</time>
      </trkpt>
      <trkpt lat="47.195514980703592" lon="9.400428039953113">
        <ele>827.83000000000004</ele>
        <time>2018-09-18T10:30:58Z</time>
      </trkpt>
      <trkpt lat="47.195613970980048" lon="9.400241039693356">
        <ele>829.75999999999999</ele>
        <time>2018-09-18T10:30:59Z</time>
      </trkpt>
      <trkpt lat="47.195642972365022" lon="9.400084968656302">
        <ele>832.15999999999997</ele>
        <time>2018-09-18T10:31:00Z</time>
      </trkpt>
      <trkpt lat="47.195677002891898" lon="9.399902997538447">
        <ele>834.08000000000004</ele>
        <time>2018-09-18T10:31:01Z</time>
      </trkpt>
      <trkpt lat="47.195704998448491" lon="9.399708034470677">
        <ele>835.51999999999998</ele>
        <time>2018-09-18T10:31:02Z</time>
      </trkpt>
      <trkpt lat="47.195732994005084" lon="9.399519022554159">
        <ele>836.96000000000004</ele>
        <time>2018-09-18T10:31:03Z</time>
      </trkpt>
      <trkpt lat="47.195758977904916" lon="9.399334033951163">
        <ele>838.40999999999997</ele>
        <time>2018-09-18T10:31:04Z</time>
      </trkpt>
      <trkpt lat="47.195764007046819" lon="9.399144016206265">
        <ele>839.37</ele>
        <time>2018-09-18T10:31:05Z</time>
      </trkpt>
      <trkpt lat="47.195755960419774" lon="9.398943018168211">
        <ele>840.33000000000004</ele>
        <time>2018-09-18T10:31:06Z</time>
      </trkpt>
      <trkpt lat="47.195701980963349" lon="9.398754006251693">
        <ele>840.80999999999995</ele>
        <time>2018-09-18T10:31:07Z</time>
      </trkpt>
      <trkpt lat="47.195645989850163" lon="9.398567005991936">
        <ele>841.28999999999996</ele>
        <time>2018-09-18T10:31:08Z</time>
      </trkpt>
      <trkpt lat="47.195591004565358" lon="9.398384029045701">
        <ele>842.25</ele>
        <time>2018-09-18T10:31:09Z</time>
      </trkpt>
      <trkpt lat="47.195550017058849" lon="9.398186970502138">
        <ele>843.21000000000004</ele>
        <time>2018-09-18T10:31:10Z</time>
      </trkpt>
      <trkpt lat="47.195550017058849" lon="9.397969041019678">
        <ele>844.17999999999995</ele>
        <time>2018-09-18T10:31:11Z</time>
      </trkpt>
      <trkpt lat="47.195571977645159" lon="9.397729989141226">
        <ele>845.13999999999999</ele>
        <time>2018-09-18T10:31:12Z</time>
      </trkpt>
      <trkpt lat="47.195597961544991" lon="9.397478029131889">
        <ele>846.58000000000004</ele>
        <time>2018-09-18T10:31:13Z</time>
      </trkpt>
      <trkpt lat="47.195694018155336" lon="9.396541016176343">
        <ele>851.87</ele>
        <time>2018-09-18T10:31:17Z</time>
      </trkpt>
      <trkpt lat="47.195665016770363" lon="9.396321997046471">
        <ele>852.83000000000004</ele>
        <time>2018-09-18T10:31:18Z</time>
      </trkpt>
      <trkpt lat="47.195625035092235" lon="9.396133990958333">
        <ele>854.26999999999998</ele>
        <time>2018-09-18T10:31:19Z</time>
      </trkpt>
      <trkpt lat="47.195588992908597" lon="9.395965011790395">
        <ele>855.23000000000002</ele>
        <time>2018-09-18T10:31:20Z</time>
      </trkpt>
      <trkpt lat="47.195556974038482" lon="9.395813969895244">
        <ele>856.19000000000005</ele>
        <time>2018-09-18T10:31:21Z</time>
      </trkpt>
      <trkpt lat="47.195581030100584" lon="9.395650019869208">
        <ele>857.14999999999998</ele>
        <time>2018-09-18T10:31:22Z</time>
      </trkpt>
      <trkpt lat="47.195622017607093" lon="9.39548003487289">
        <ele>858.11000000000001</ele>
        <time>2018-09-18T10:31:23Z</time>
      </trkpt>
      <trkpt lat="47.195668034255505" lon="9.39528901129961">
        <ele>859.08000000000004</ele>
        <time>2018-09-18T10:31:24Z</time>
      </trkpt>
      <trkpt lat="47.195721007883549" lon="9.395069992169738">
        <ele>859.55999999999995</ele>
        <time>2018-09-18T10:31:25Z</time>
      </trkpt>
      <trkpt lat="47.195721007883549" lon="9.394850973039866">
        <ele>860.51999999999998</ele>
        <time>2018-09-18T10:31:26Z</time>
      </trkpt>
      <trkpt lat="47.195721007883549" lon="9.394614016637206">
        <ele>861.48000000000002</ele>
        <time>2018-09-18T10:31:27Z</time>
      </trkpt>
      <trkpt lat="47.195721007883549" lon="9.394394997507334">
        <ele>862.91999999999996</ele>
        <time>2018-09-18T10:31:28Z</time>
      </trkpt>
      <trkpt lat="47.195721007883549" lon="9.394009010866284">
        <ele>864.36000000000001</ele>
        <time>2018-09-18T10:31:30Z</time>
      </trkpt>
      <trkpt lat="47.195760989561677" lon="9.39380700699985">
        <ele>864.84000000000003</ele>
        <time>2018-09-18T10:31:31Z</time>
      </trkpt>
      <trkpt lat="47.196232974529266" lon="9.392277980223298">
        <ele>870.61000000000001</ele>
        <time>2018-09-18T10:31:38Z</time>
      </trkpt>
      <trkpt lat="47.196436990052462" lon="9.390925979241729">
        <ele>875.89999999999998</ele>
        <time>2018-09-18T10:31:43Z</time>
      </trkpt>
      <trkpt lat="47.196450987830758" lon="9.390640994533896">
        <ele>876.86000000000001</ele>
        <time>2018-09-18T10:31:44Z</time>
      </trkpt>
      <trkpt lat="47.196464985609055" lon="9.389383038505912">
        <ele>879.74000000000001</ele>
        <time>2018-09-18T10:31:49Z</time>
      </trkpt>
      <trkpt lat="47.196503961458802" lon="9.389195032417774">
        <ele>880.71000000000004</ele>
        <time>2018-09-18T10:31:50Z</time>
      </trkpt>
      <trkpt lat="47.196536986157298" lon="9.389040973037481">
        <ele>881.19000000000005</ele>
        <time>2018-09-18T10:31:51Z</time>
      </trkpt>
      <trkpt lat="47.196644023060799" lon="9.388890014961362">
        <ele>882.14999999999998</ele>
        <time>2018-09-18T10:31:52Z</time>
      </trkpt>
      <trkpt lat="47.196747036650777" lon="9.388744002208114">
        <ele>882.63</ele>
        <time>2018-09-18T10:31:53Z</time>
      </trkpt>
      <trkpt lat="47.196858013048768" lon="9.388588014990091">
        <ele>883.59000000000003</ele>
        <time>2018-09-18T10:31:54Z</time>
      </trkpt>
      <trkpt lat="47.197090024128556" lon="9.38826103694737">
        <ele>885.50999999999999</ele>
        <time>2018-09-18T10:31:56Z</time>
      </trkpt>
      <trkpt lat="47.197217009961605" lon="9.388159029185772">
        <ele>886.47000000000003</ele>
        <time>2018-09-18T10:31:57Z</time>
      </trkpt>
      <trkpt lat="47.197472993284464" lon="9.387992983683944">
        <ele>887.90999999999997</ele>
        <time>2018-09-18T10:31:59Z</time>
      </trkpt>
      <trkpt lat="47.197596961632371" lon="9.387869015336037">
        <ele>888.39999999999998</ele>
        <time>2018-09-18T10:32:00Z</time>
      </trkpt>
      <trkpt lat="47.197676002979279" lon="9.387674974277616">
        <ele>888.39999999999998</ele>
        <time>2018-09-18T10:32:01Z</time>
      </trkpt>
      <trkpt lat="47.197739034891129" lon="9.387474982067943">
        <ele>888.88</ele>
        <time>2018-09-18T10:32:02Z</time>
      </trkpt>
      <trkpt lat="47.197793014347553" lon="9.387251017615199">
        <ele>889.36000000000001</ele>
        <time>2018-09-18T10:32:03Z</time>
      </trkpt>
      <trkpt lat="47.198224011808634" lon="9.385509006679058">
        <ele>895.12</ele>
        <time>2018-09-18T10:32:11Z</time>
      </trkpt>
      <trkpt lat="47.198294000700116" lon="9.385332986712456">
        <ele>896.57000000000005</ele>
        <time>2018-09-18T10:32:12Z</time>
      </trkpt>
      <trkpt lat="47.198344962671399" lon="9.385143974795938">
        <ele>898.00999999999999</ele>
        <time>2018-09-18T10:32:13Z</time>
      </trkpt>
      <trkpt lat="47.198358960449696" lon="9.384939037263393">
        <ele>898.97000000000003</ele>
        <time>2018-09-18T10:32:14Z</time>
      </trkpt>
      <trkpt lat="47.198313027620316" lon="9.384728986769915">
        <ele>899.92999999999995</ele>
        <time>2018-09-18T10:32:15Z</time>
      </trkpt>
      <trkpt lat="47.198257958516479" lon="9.384521031752229">
        <ele>900.88999999999999</ele>
        <time>2018-09-18T10:32:16Z</time>
      </trkpt>
      <trkpt lat="47.19819501042366" lon="9.384305030107498">
        <ele>901.85000000000002</ele>
        <time>2018-09-18T10:32:17Z</time>
      </trkpt>
      <trkpt lat="47.198124015703797" lon="9.384062038734555">
        <ele>903.29999999999995</ele>
        <time>2018-09-18T10:32:18Z</time>
      </trkpt>
      <trkpt lat="47.198124015703797" lon="9.383822986856103">
        <ele>904.25999999999999</ele>
        <time>2018-09-18T10:32:19Z</time>
      </trkpt>
      <trkpt lat="47.198124015703797" lon="9.383563986048102">
        <ele>905.22000000000003</ele>
        <time>2018-09-18T10:32:20Z</time>
      </trkpt>
      <trkpt lat="47.198138013482094" lon="9.383297022432089">
        <ele>906.17999999999995</ele>
        <time>2018-09-18T10:32:21Z</time>
      </trkpt>
      <trkpt lat="47.198157040402293" lon="9.383025029674172">
        <ele>907.13999999999999</ele>
        <time>2018-09-18T10:32:22Z</time>
      </trkpt>
      <trkpt lat="47.198200961574912" lon="9.382755970582366">
        <ele>908.10000000000002</ele>
        <time>2018-09-18T10:32:23Z</time>
      </trkpt>
      <trkpt lat="47.198264999315143" lon="9.382514990866184">
        <ele>909.53999999999996</ele>
        <time>2018-09-18T10:32:24Z</time>
      </trkpt>
      <trkpt lat="47.19832400791347" lon="9.382294965907931">
        <ele>910.99000000000001</ele>
        <time>2018-09-18T10:32:25Z</time>
      </trkpt>
      <trkpt lat="47.198339011520147" lon="9.382065972313285">
        <ele>912.90999999999997</ele>
        <time>2018-09-18T10:32:26Z</time>
      </trkpt>
      <trkpt lat="47.198339011520147" lon="9.381831027567387">
        <ele>915.30999999999995</ele>
        <time>2018-09-18T10:32:27Z</time>
      </trkpt>
      <trkpt lat="47.198291989043355" lon="9.381593987345696">
        <ele>917.24000000000001</ele>
        <time>2018-09-18T10:32:28Z</time>
      </trkpt>
      <trkpt lat="47.198242032900453" lon="9.381344961002469">
        <ele>919.15999999999997</ele>
        <time>2018-09-18T10:32:29Z</time>
      </trkpt>
      <trkpt lat="47.198137007653713" lon="9.380823019891977">
        <ele>923</ele>
        <time>2018-09-18T10:32:31Z</time>
      </trkpt>
      <trkpt lat="47.198064001277089" lon="9.380267970263958">
        <ele>926.37</ele>
        <time>2018-09-18T10:32:33Z</time>
      </trkpt>
      <trkpt lat="47.197896027937531" lon="9.37859502620995">
        <ele>937.89999999999998</ele>
        <time>2018-09-18T10:32:40Z</time>
      </trkpt>
      <trkpt lat="47.19787398353219" lon="9.378382964059711">
        <ele>939.83000000000004</ele>
        <time>2018-09-18T10:32:41Z</time>
      </trkpt>
      <trkpt lat="47.197895022109151" lon="9.378163022920489">
        <ele>941.75</ele>
        <time>2018-09-18T10:32:42Z</time>
      </trkpt>
      <trkpt lat="47.197930980473757" lon="9.377967976033688">
        <ele>943.66999999999996</ele>
        <time>2018-09-18T10:32:43Z</time>
      </trkpt>
      <trkpt lat="47.198027959093451" lon="9.377798996865749">
        <ele>945.11000000000001</ele>
        <time>2018-09-18T10:32:44Z</time>
      </trkpt>
      <trkpt lat="47.198123009875417" lon="9.377631023526192">
        <ele>947.03999999999996</ele>
        <time>2018-09-18T10:32:45Z</time>
      </trkpt>
      <trkpt lat="47.198219988495111" lon="9.377460032701492">
        <ele>948.48000000000002</ele>
        <time>2018-09-18T10:32:46Z</time>
      </trkpt>
      <trkpt lat="47.198318978771567" lon="9.377285018563271">
        <ele>950.39999999999998</ele>
        <time>2018-09-18T10:32:47Z</time>
      </trkpt>
      <trkpt lat="47.198407994583249" lon="9.377097012475133">
        <ele>951.84000000000003</ele>
        <time>2018-09-18T10:32:48Z</time>
      </trkpt>
      <trkpt lat="47.198476977646351" lon="9.376888973638415">
        <ele>953.27999999999997</ele>
        <time>2018-09-18T10:32:49Z</time>
      </trkpt>
      <trkpt lat="47.198511008173227" lon="9.376666015014052">
        <ele>954.25</ele>
        <time>2018-09-18T10:32:50Z</time>
      </trkpt>
      <trkpt lat="47.198531040921807" lon="9.376434003934264">
        <ele>955.69000000000005</ele>
        <time>2018-09-18T10:32:51Z</time>
      </trkpt>
      <trkpt lat="47.198525005951524" lon="9.376180032268167">
        <ele>957.13</ele>
        <time>2018-09-18T10:32:52Z</time>
      </trkpt>
      <trkpt lat="47.19851897098124" lon="9.375922959297895">
        <ele>958.57000000000005</ele>
        <time>2018-09-18T10:32:53Z</time>
      </trkpt>
      <trkpt lat="47.198513019829988" lon="9.37567301094532">
        <ele>960.00999999999999</ele>
        <time>2018-09-18T10:32:54Z</time>
      </trkpt>
      <trkpt lat="47.1985590364784" lon="9.375016959384084">
        <ele>964.34000000000003</ele>
        <time>2018-09-18T10:32:57Z</time>
      </trkpt>
      <trkpt lat="47.198571022599936" lon="9.374832976609469">
        <ele>965.29999999999995</ele>
        <time>2018-09-18T10:32:58Z</time>
      </trkpt>
      <trkpt lat="47.198760034516454" lon="9.372590985149145">
        <ele>972.02999999999997</ele>
        <time>2018-09-18T10:33:11Z</time>
      </trkpt>
      <trkpt lat="47.198857013136148" lon="9.370865989476442">
        <ele>976.84000000000003</ele>
        <time>2018-09-18T10:33:19Z</time>
      </trkpt>
      <trkpt lat="47.199005037546158" lon="9.368742015212774">
        <ele>986.45000000000005</ele>
        <time>2018-09-18T10:33:28Z</time>
      </trkpt>
      <trkpt lat="47.199237970635295" lon="9.366316040977836">
        <ele>997.50999999999999</ele>
        <time>2018-09-18T10:33:36Z</time>
      </trkpt>
      <trkpt lat="47.199594033882022" lon="9.36347097158432">
        <ele>1014.8099999999999</ele>
        <time>2018-09-18T10:33:45Z</time>
      </trkpt>
      <trkpt lat="47.200196022167802" lon="9.361660983413458">
        <ele>1024.9000000000001</ele>
        <time>2018-09-18T10:33:53Z</time>
      </trkpt>
      <trkpt lat="47.201111996546388" lon="9.358790013939142">
        <ele>1035.96</ele>
        <time>2018-09-18T10:34:07Z</time>
      </trkpt>
      <trkpt lat="47.201289022341371" lon="9.357114974409342">
        <ele>1044.6099999999999</ele>
        <time>2018-09-18T10:34:15Z</time>
      </trkpt>
      <trkpt lat="47.201537964865565" lon="9.355187974870205">
        <ele>1056.1500000000001</ele>
        <time>2018-09-18T10:34:24Z</time>
      </trkpt>
      <trkpt lat="47.201606025919318" lon="9.355016984045506">
        <ele>1057.5899999999999</ele>
        <time>2018-09-18T10:34:25Z</time>
      </trkpt>
      <trkpt lat="47.201685989275575" lon="9.3548549618572">
        <ele>1059.03</ele>
        <time>2018-09-18T10:34:26Z</time>
      </trkpt>
      <trkpt lat="47.201781962066889" lon="9.35470400378108">
        <ele>1060.47</ele>
        <time>2018-09-18T10:34:27Z</time>
      </trkpt>
      <trkpt lat="47.201880030333996" lon="9.354549022391439">
        <ele>1061.9100000000001</ele>
        <time>2018-09-18T10:34:28Z</time>
      </trkpt>
      <trkpt lat="47.201959993690252" lon="9.354356992989779">
        <ele>1063.3599999999999</ele>
        <time>2018-09-18T10:34:29Z</time>
      </trkpt>
      <trkpt lat="47.202034005895257" lon="9.354147026315332">
        <ele>1065.28</ele>
        <time>2018-09-18T10:34:30Z</time>
      </trkpt>
      <trkpt lat="47.202074993401766" lon="9.353919038549066">
        <ele>1066.72</ele>
        <time>2018-09-18T10:34:31Z</time>
      </trkpt>
      <trkpt lat="47.202115980908275" lon="9.353687027469277">
        <ele>1067.6800000000001</ele>
        <time>2018-09-18T10:34:32Z</time>
      </trkpt>
      <trkpt lat="47.202586038038135" lon="9.351580990478396">
        <ele>1080.1800000000001</ele>
        <time>2018-09-18T10:34:42Z</time>
      </trkpt>
      <trkpt lat="47.202695002779365" lon="9.351168014109135">
        <ele>1083.54</ele>
        <time>2018-09-18T10:34:45Z</time>
      </trkpt>
      <trkpt lat="47.202784018591046" lon="9.351061983034015">
        <ele>1084.5</ele>
        <time>2018-09-18T10:34:46Z</time>
      </trkpt>
      <trkpt lat="47.202863981947303" lon="9.350968021899462">
        <ele>1085.47</ele>
        <time>2018-09-18T10:34:47Z</time>
      </trkpt>
      <trkpt lat="47.202947968617082" lon="9.350880011916161">
        <ele>1086.4300000000001</ele>
        <time>2018-09-18T10:34:48Z</time>
      </trkpt>
      <trkpt lat="47.203038996085525" lon="9.350827038288117">
        <ele>1087.3900000000001</ele>
        <time>2018-09-18T10:34:49Z</time>
      </trkpt>
      <trkpt lat="47.203121976926923" lon="9.350780015811324">
        <ele>1088.3499999999999</ele>
        <time>2018-09-18T10:34:50Z</time>
      </trkpt>
      <trkpt lat="47.203194983303547" lon="9.350738022476435">
        <ele>1089.3099999999999</ele>
        <time>2018-09-18T10:34:51Z</time>
      </trkpt>
      <trkpt lat="47.203261032700539" lon="9.350665016099811">
        <ele>1090.27</ele>
        <time>2018-09-18T10:34:52Z</time>
      </trkpt>
      <trkpt lat="47.203319035470486" lon="9.350550016388297">
        <ele>1090.75</ele>
        <time>2018-09-18T10:34:53Z</time>
      </trkpt>
      <trkpt lat="47.203334039077163" lon="9.350418001413345">
        <ele>1090.75</ele>
        <time>2018-09-18T10:34:54Z</time>
      </trkpt>
      <trkpt lat="47.203328004106879" lon="9.350269977003336">
        <ele>1091.23</ele>
        <time>2018-09-18T10:34:55Z</time>
      </trkpt>
      <trkpt lat="47.203311994671822" lon="9.350110972300172">
        <ele>1091.23</ele>
        <time>2018-09-18T10:34:56Z</time>
      </trkpt>
      <trkpt lat="47.203293973580003" lon="9.349940987303853">
        <ele>1091.23</ele>
        <time>2018-09-18T10:34:57Z</time>
      </trkpt>
      <trkpt lat="47.203274024650455" lon="9.349747030064464">
        <ele>1090.75</ele>
        <time>2018-09-18T10:34:58Z</time>
      </trkpt>
      <trkpt lat="47.202944029122591" lon="9.34799998998642">
        <ele>1085.95</ele>
        <time>2018-09-18T10:35:08Z</time>
      </trkpt>
      <trkpt lat="47.202576985582709" lon="9.345897976309061">
        <ele>1072.97</ele>
        <time>2018-09-18T10:35:21Z</time>
      </trkpt>
      <trkpt lat="47.202498028054833" lon="9.345376035198569">
        <ele>1070.0799999999999</ele>
        <time>2018-09-18T10:35:26Z</time>
      </trkpt>
      <trkpt lat="47.202489981427789" lon="9.345318032428622">
        <ele>1069.1199999999999</ele>
        <time>2018-09-18T10:35:27Z</time>
      </trkpt>
      <trkpt lat="47.202482018619776" lon="9.345268998295069">
        <ele>1068.6400000000001</ele>
        <time>2018-09-18T10:35:28Z</time>
      </trkpt>
      <trkpt lat="47.202475983649492" lon="9.345223987475038">
        <ele>1068.1600000000001</ele>
        <time>2018-09-18T10:35:29Z</time>
      </trkpt>
      <trkpt lat="47.20246902666986" lon="9.345181994140148">
        <ele>1067.6800000000001</ele>
        <time>2018-09-18T10:35:30Z</time>
      </trkpt>
      <trkpt lat="47.202461985871196" lon="9.345132037997246">
        <ele>1065.28</ele>
        <time>2018-09-18T10:35:40Z</time>
      </trkpt>
      <trkpt lat="47.20244999974966" lon="9.345052996650338">
        <ele>1064.8</ele>
        <time>2018-09-18T10:36:19Z</time>
      </trkpt>
      <trkpt lat="47.202438013628125" lon="9.344972027465701">
        <ele>1064.8</ele>
        <time>2018-09-18T10:36:20Z</time>
      </trkpt>
      <trkpt lat="47.202420998364687" lon="9.344861973077059">
        <ele>1064.8</ele>
        <time>2018-09-18T10:36:21Z</time>
      </trkpt>
      <trkpt lat="47.202402977272868" lon="9.344739010557532">
        <ele>1064.3199999999999</ele>
        <time>2018-09-18T10:36:22Z</time>
      </trkpt>
      <trkpt lat="47.20238302834332" lon="9.344610013067722">
        <ele>1064.3199999999999</ele>
        <time>2018-09-18T10:36:23Z</time>
      </trkpt>
      <trkpt lat="47.202150011435151" lon="9.343130020424724">
        <ele>1060.47</ele>
        <time>2018-09-18T10:36:33Z</time>
      </trkpt>
      <trkpt lat="47.201744997873902" lon="9.341364037245512">
        <ele>1055.6700000000001</ele>
        <time>2018-09-18T10:36:44Z</time>
      </trkpt>
      <trkpt lat="47.201266977936029" lon="9.339195974171162">
        <ele>1048.45</ele>
        <time>2018-09-18T10:36:57Z</time>
      </trkpt>
      <trkpt lat="47.200898006558418" lon="9.337593019008637">
        <ele>1046.53</ele>
        <time>2018-09-18T10:37:07Z</time>
      </trkpt>
      <trkpt lat="47.200761968269944" lon="9.335171990096569">
        <ele>1038.3599999999999</ele>
        <time>2018-09-18T10:37:20Z</time>
      </trkpt>
      <trkpt lat="47.200598018243909" lon="9.3331119697541">
        <ele>1029.23</ele>
        <time>2018-09-18T10:37:31Z</time>
      </trkpt>
      <trkpt lat="47.200591983273625" lon="9.332729000598192">
        <ele>1027.3099999999999</ele>
        <time>2018-09-18T10:37:33Z</time>
      </trkpt>
      <trkpt lat="47.200628025457263" lon="9.332525990903378">
        <ele>1026.3399999999999</ele>
        <time>2018-09-18T10:37:34Z</time>
      </trkpt>
      <trkpt lat="47.200663983821869" lon="9.332327004522085">
        <ele>1025.3800000000001</ele>
        <time>2018-09-18T10:37:35Z</time>
      </trkpt>
      <trkpt lat="47.200803039595485" lon="9.331473978236318">
        <ele>1020.58</ele>
        <time>2018-09-18T10:37:39Z</time>
      </trkpt>
      <trkpt lat="47.200791975483298" lon="9.331260994076729">
        <ele>1019.13</ele>
        <time>2018-09-18T10:37:40Z</time>
      </trkpt>
      <trkpt lat="47.200779989361763" lon="9.331053961068392">
        <ele>1018.17</ele>
        <time>2018-09-18T10:37:41Z</time>
      </trkpt>
      <trkpt lat="47.200769009068608" lon="9.330852041020989">
        <ele>1017.21</ele>
        <time>2018-09-18T10:37:42Z</time>
      </trkpt>
      <trkpt lat="47.200752999633551" lon="9.330657999962568">
        <ele>1016.25</ele>
        <time>2018-09-18T10:37:43Z</time>
      </trkpt>
      <trkpt lat="47.200476983562112" lon="9.328022981062532">
        <ele>1003.27</ele>
        <time>2018-09-18T10:37:57Z</time>
      </trkpt>
      <trkpt lat="47.200325019657612" lon="9.325866987928748">
        <ele>994.13999999999999</ele>
        <time>2018-09-18T10:38:09Z</time>
      </trkpt>
      <trkpt lat="47.200271040201187" lon="9.325129967182875">
        <ele>991.25999999999999</ele>
        <time>2018-09-18T10:38:13Z</time>
      </trkpt>
      <trkpt lat="47.200248995795846" lon="9.32494699023664">
        <ele>990.29999999999995</ele>
        <time>2018-09-18T10:38:14Z</time>
      </trkpt>
      <trkpt lat="47.200197027996182" lon="9.324766024947166">
        <ele>989.33000000000004</ele>
        <time>2018-09-18T10:38:15Z</time>
      </trkpt>
      <trkpt lat="47.199675003066659" lon="9.323037005960941">
        <ele>985.00999999999999</ele>
        <time>2018-09-18T10:38:25Z</time>
      </trkpt>
      <trkpt lat="47.199600990861654" lon="9.322878001257777">
        <ele>984.52999999999997</ele>
        <time>2018-09-18T10:38:26Z</time>
      </trkpt>
      <trkpt lat="47.199508035555482" lon="9.32273400016129">
        <ele>984.04999999999995</ele>
        <time>2018-09-18T10:38:27Z</time>
      </trkpt>
      <trkpt lat="47.199410973116755" lon="9.322592010721564">
        <ele>983.57000000000005</ele>
        <time>2018-09-18T10:38:28Z</time>
      </trkpt>
      <trkpt lat="47.199307037517428" lon="9.322451027110219">
        <ele>982.60000000000002</ele>
        <time>2018-09-18T10:38:29Z</time>
      </trkpt>
      <trkpt lat="47.19920301809907" lon="9.322298979386687">
        <ele>982.12</ele>
        <time>2018-09-18T10:38:30Z</time>
      </trkpt>
      <trkpt lat="47.198885008692741" lon="9.321836968883872">
        <ele>980.67999999999995</ele>
        <time>2018-09-18T10:38:33Z</time>
      </trkpt>
      <trkpt lat="47.198801022022963" lon="9.321635970845819">
        <ele>980.20000000000005</ele>
        <time>2018-09-18T10:38:34Z</time>
      </trkpt>
      <trkpt lat="47.198724998161197" lon="9.321413012221456">
        <ele>979.72000000000003</ele>
        <time>2018-09-18T10:38:35Z</time>
      </trkpt>
      <trkpt lat="47.198219988495111" lon="9.319399008527398">
        <ele>975.88</ele>
        <time>2018-09-18T10:38:43Z</time>
      </trkpt>
      <trkpt lat="47.19778798520565" lon="9.317995039746165">
        <ele>969.14999999999998</ele>
        <time>2018-09-18T10:38:49Z</time>
      </trkpt>
      <trkpt lat="47.19778798520565" lon="9.317765040323138">
        <ele>967.22000000000003</ele>
        <time>2018-09-18T10:38:50Z</time>
      </trkpt>
      <trkpt lat="47.197796031832695" lon="9.31753596290946">
        <ele>965.77999999999997</ele>
        <time>2018-09-18T10:38:51Z</time>
      </trkpt>
      <trkpt lat="47.197812041267753" lon="9.317305963486433">
        <ele>964.34000000000003</ele>
        <time>2018-09-18T10:38:52Z</time>
      </trkpt>
      <trkpt lat="47.197861997410655" lon="9.317069007083774">
        <ele>962.41999999999996</ele>
        <time>2018-09-18T10:38:53Z</time>
      </trkpt>
      <trkpt lat="47.197920000180602" lon="9.316822998225689">
        <ele>960.98000000000002</ele>
        <time>2018-09-18T10:38:54Z</time>
      </trkpt>
      <trkpt lat="47.19849600456655" lon="9.3143530189991">
        <ele>940.78999999999996</ele>
        <time>2018-09-18T10:39:05Z</time>
      </trkpt>
      <trkpt lat="47.198574962094426" lon="9.313982035964727">
        <ele>937.89999999999998</ele>
        <time>2018-09-18T10:39:07Z</time>
      </trkpt>
      <trkpt lat="47.198564987629652" lon="9.313812972977758">
        <ele>936.94000000000005</ele>
        <time>2018-09-18T10:39:08Z</time>
      </trkpt>
      <trkpt lat="47.198550989851356" lon="9.313631001859903">
        <ele>935.98000000000002</ele>
        <time>2018-09-18T10:39:09Z</time>
      </trkpt>
      <trkpt lat="47.198489969596267" lon="9.313479037955403">
        <ele>935.01999999999998</ele>
        <time>2018-09-18T10:39:10Z</time>
      </trkpt>
      <trkpt lat="47.198427021503448" lon="9.313321961089969">
        <ele>934.53999999999996</ele>
        <time>2018-09-18T10:39:11Z</time>
      </trkpt>
      <trkpt lat="47.198317972943187" lon="9.313209978863597">
        <ele>933.58000000000004</ele>
        <time>2018-09-18T10:39:12Z</time>
      </trkpt>
      <trkpt lat="47.198203979060054" lon="9.313113000243902">
        <ele>932.62</ele>
        <time>2018-09-18T10:39:13Z</time>
      </trkpt>
      <trkpt lat="47.198076993227005" lon="9.313064971938729">
        <ele>931.64999999999998</ele>
        <time>2018-09-18T10:39:14Z</time>
      </trkpt>
      <trkpt lat="47.197949001565576" lon="9.313059020787478">
        <ele>930.69000000000005</ele>
        <time>2018-09-18T10:39:15Z</time>
      </trkpt>
      <trkpt lat="47.19782997854054" lon="9.313059020787478">
        <ele>929.73000000000002</ele>
        <time>2018-09-18T10:39:16Z</time>
      </trkpt>
      <trkpt lat="47.197724031284451" lon="9.313059020787478">
        <ele>928.76999999999998</ele>
        <time>2018-09-18T10:39:17Z</time>
      </trkpt>
      <trkpt lat="47.197176022455096" lon="9.313052985817194">
        <ele>922.03999999999996</ele>
        <time>2018-09-18T10:39:25Z</time>
      </trkpt>
      <trkpt lat="47.196910986676812" lon="9.313038988038898">
        <ele>915.78999999999996</ele>
        <time>2018-09-18T10:39:35Z</time>
      </trkpt>
      <trkpt lat="47.196894977241755" lon="9.313037982210517">
        <ele>915.30999999999995</ele>
        <time>2018-09-18T10:39:49Z</time>
      </trkpt>
      <trkpt lat="47.196894977241755" lon="9.313037982210517">
        <ele>914.83000000000004</ele>
        <time>2018-09-18T10:40:41Z</time>
      </trkpt>
      <trkpt lat="47.196766985580325" lon="9.312975034117699">
        <ele>917.24000000000001</ele>
        <time>2018-09-18T10:41:23Z</time>
      </trkpt>
      <trkpt lat="47.196704959496856" lon="9.312939997762442">
        <ele>917.72000000000003</ele>
        <time>2018-09-18T10:41:24Z</time>
      </trkpt>
      <trkpt lat="47.196642011404037" lon="9.312880989164114">
        <ele>917.24000000000001</ele>
        <time>2018-09-18T10:41:25Z</time>
      </trkpt>
      <trkpt lat="47.196572022512555" lon="9.312803959473968">
        <ele>916.75</ele>
        <time>2018-09-18T10:41:26Z</time>
      </trkpt>
      <trkpt lat="47.196501027792692" lon="9.312726007774472">
        <ele>915.78999999999996</ele>
        <time>2018-09-18T10:41:27Z</time>
      </trkpt>
      <trkpt lat="47.196441013365984" lon="9.312616959214211">
        <ele>915.30999999999995</ele>
        <time>2018-09-18T10:41:28Z</time>
      </trkpt>
      <trkpt lat="47.196394996717572" lon="9.312500031664968">
        <ele>914.83000000000004</ele>
        <time>2018-09-18T10:41:29Z</time>
      </trkpt>
      <trkpt lat="47.196363983675838" lon="9.312364999204874">
        <ele>914.35000000000002</ele>
        <time>2018-09-18T10:41:30Z</time>
      </trkpt>
      <trkpt lat="47.196336993947625" lon="9.312230972573161">
        <ele>913.38999999999999</ele>
        <time>2018-09-18T10:41:31Z</time>
      </trkpt>
      <trkpt lat="47.19632601365447" lon="9.312084037810564">
        <ele>912.90999999999997</ele>
        <time>2018-09-18T10:41:32Z</time>
      </trkpt>
      <trkpt lat="47.196334982290864" lon="9.311937019228935">
        <ele>911.95000000000005</ele>
        <time>2018-09-18T10:41:33Z</time>
      </trkpt>
      <trkpt lat="47.196533968672156" lon="9.310067016631365">
        <ele>904.25999999999999</ele>
        <time>2018-09-18T10:41:45Z</time>
      </trkpt>
      <trkpt lat="47.196833034977317" lon="9.307246003299952">
        <ele>899.92999999999995</ele>
        <time>2018-09-18T10:42:00Z</time>
      </trkpt>
      <trkpt lat="47.197011988610029" lon="9.305120017379522">
        <ele>898.00999999999999</ele>
        <time>2018-09-18T10:42:11Z</time>
      </trkpt>
      <trkpt lat="47.196966977789998" lon="9.302608966827393">
        <ele>895.61000000000001</ele>
        <time>2018-09-18T10:42:25Z</time>
      </trkpt>
      <trkpt lat="47.19677603803575" lon="9.30079897865653">
        <ele>895.12</ele>
        <time>2018-09-18T10:42:34Z</time>
      </trkpt>
      <trkpt lat="47.196459034457803" lon="9.298022976145148">
        <ele>894.15999999999997</ele>
        <time>2018-09-18T10:42:44Z</time>
      </trkpt>
      <trkpt lat="47.196207996457815" lon="9.294540965929627">
        <ele>891.75999999999999</ele>
        <time>2018-09-18T10:42:56Z</time>
      </trkpt>
      <trkpt lat="47.195826033130288" lon="9.291703021153808">
        <ele>892.24000000000001</ele>
        <time>2018-09-18T10:43:06Z</time>
      </trkpt>
      <trkpt lat="47.194873010739684" lon="9.287988999858499">
        <ele>889.36000000000001</ele>
        <time>2018-09-18T10:43:20Z</time>
      </trkpt>
      <trkpt lat="47.194369006901979" lon="9.286764990538359">
        <ele>888.88</ele>
        <time>2018-09-18T10:43:28Z</time>
      </trkpt>
      <trkpt lat="47.193857962265611" lon="9.285640977323055">
        <ele>889.84000000000003</ele>
        <time>2018-09-18T10:43:36Z</time>
      </trkpt>
      <trkpt lat="47.19293000176549" lon="9.283104026690126">
        <ele>889.84000000000003</ele>
        <time>2018-09-18T10:43:52Z</time>
      </trkpt>
      <trkpt lat="47.192235980182886" lon="9.281018022447825">
        <ele>887.42999999999995</ele>
        <time>2018-09-18T10:44:05Z</time>
      </trkpt>
      <trkpt lat="47.191596021875739" lon="9.278887007385492">
        <ele>889.36000000000001</ele>
        <time>2018-09-18T10:44:18Z</time>
      </trkpt>
      <trkpt lat="47.191035021096468" lon="9.277518996968865">
        <ele>889.36000000000001</ele>
        <time>2018-09-18T10:44:27Z</time>
      </trkpt>
      <trkpt lat="47.189968004822731" lon="9.275697022676468">
        <ele>888.39999999999998</ele>
        <time>2018-09-18T10:44:39Z</time>
      </trkpt>
      <trkpt lat="47.1887849830091" lon="9.273655023425818">
        <ele>891.75999999999999</ele>
        <time>2018-09-18T10:44:48Z</time>
      </trkpt>
      <trkpt lat="47.187860039994121" lon="9.271973026916385">
        <ele>893.67999999999995</ele>
        <time>2018-09-18T10:44:56Z</time>
      </trkpt>
      <trkpt lat="47.187779992818832" lon="9.271741015836597">
        <ele>893.67999999999995</ele>
        <time>2018-09-18T10:44:57Z</time>
      </trkpt>
      <trkpt lat="47.186925960704684" lon="9.268644992262125">
        <ele>888.39999999999998</ele>
        <time>2018-09-18T10:45:10Z</time>
      </trkpt>
      <trkpt lat="47.186096990481019" lon="9.266132013872266">
        <ele>887.42999999999995</ele>
        <time>2018-09-18T10:45:21Z</time>
      </trkpt>
      <trkpt lat="47.184710958972573" lon="9.262306010350585">
        <ele>887.90999999999997</ele>
        <time>2018-09-18T10:45:38Z</time>
      </trkpt>
      <trkpt lat="47.183745028451085" lon="9.259564038366079">
        <ele>889.36000000000001</ele>
        <time>2018-09-18T10:45:49Z</time>
      </trkpt>
      <trkpt lat="47.183689959347248" lon="9.259294979274273">
        <ele>889.36000000000001</ele>
        <time>2018-09-18T10:45:50Z</time>
      </trkpt>
      <trkpt lat="47.183658024296165" lon="9.259022986516357">
        <ele>889.84000000000003</ele>
        <time>2018-09-18T10:45:51Z</time>
      </trkpt>
      <trkpt lat="47.18364997766912" lon="9.258744036778808">
        <ele>889.84000000000003</ele>
        <time>2018-09-18T10:45:52Z</time>
      </trkpt>
      <trkpt lat="47.183642014861107" lon="9.258466009050608">
        <ele>890.32000000000005</ele>
        <time>2018-09-18T10:45:53Z</time>
      </trkpt>
      <trkpt lat="47.183679984882474" lon="9.258200973272324">
        <ele>890.79999999999995</ele>
        <time>2018-09-18T10:45:54Z</time>
      </trkpt>
      <trkpt lat="47.183731030672789" lon="9.257937027141452">
        <ele>890.79999999999995</ele>
        <time>2018-09-18T10:45:55Z</time>
      </trkpt>
      <trkpt lat="47.183781992644072" lon="9.257685989141464">
        <ele>890.79999999999995</ele>
        <time>2018-09-18T10:45:56Z</time>
      </trkpt>
      <trkpt lat="47.184225982055068" lon="9.256247989833355">
        <ele>890.79999999999995</ele>
        <time>2018-09-18T10:46:03Z</time>
      </trkpt>
      <trkpt lat="47.184767033904791" lon="9.254222000017762">
        <ele>891.75999999999999</ele>
        <time>2018-09-18T10:46:13Z</time>
      </trkpt>
      <trkpt lat="47.185529032722116" lon="9.250747030600905">
        <ele>890.32000000000005</ele>
        <time>2018-09-18T10:46:28Z</time>
      </trkpt>
      <trkpt lat="47.185957012698054" lon="9.248736966401339">
        <ele>883.59000000000003</ele>
        <time>2018-09-18T10:46:37Z</time>
      </trkpt>
      <trkpt lat="47.186690010130405" lon="9.246186017990112">
        <ele>878.29999999999995</ele>
        <time>2018-09-18T10:46:47Z</time>
      </trkpt>
      <trkpt lat="47.187334997579455" lon="9.242766033858061">
        <ele>870.61000000000001</ele>
        <time>2018-09-18T10:46:59Z</time>
      </trkpt>
      <trkpt lat="47.187975039705634" lon="9.239877965301275">
        <ele>867.25</ele>
        <time>2018-09-18T10:47:10Z</time>
      </trkpt>
      <trkpt lat="47.188049973919988" lon="9.239689037203789">
        <ele>867.25</ele>
        <time>2018-09-18T10:47:11Z</time>
      </trkpt>
      <trkpt lat="47.188132032752037" lon="9.239492984488607">
        <ele>867.25</ele>
        <time>2018-09-18T10:47:12Z</time>
      </trkpt>
      <trkpt lat="47.188245020806789" lon="9.2393499892205">
        <ele>866.76999999999998</ele>
        <time>2018-09-18T10:47:13Z</time>
      </trkpt>
      <trkpt lat="47.188355997204781" lon="9.239210011437535">
        <ele>866.76999999999998</ele>
        <time>2018-09-18T10:47:14Z</time>
      </trkpt>
      <trkpt lat="47.188447024673223" lon="9.239094005897641">
        <ele>866.28999999999996</ele>
        <time>2018-09-18T10:47:15Z</time>
      </trkpt>
      <trkpt lat="47.188605023548007" lon="9.239012030884624">
        <ele>866.28999999999996</ele>
        <time>2018-09-18T10:47:16Z</time>
      </trkpt>
      <trkpt lat="47.188743995502591" lon="9.23894003033638">
        <ele>865.79999999999995</ele>
        <time>2018-09-18T10:47:17Z</time>
      </trkpt>
      <trkpt lat="47.188881961628795" lon="9.238868029788137">
        <ele>865.32000000000005</ele>
        <time>2018-09-18T10:47:18Z</time>
      </trkpt>
      <trkpt lat="47.189025962725282" lon="9.238822013139725">
        <ele>865.32000000000005</ele>
        <time>2018-09-18T10:47:19Z</time>
      </trkpt>
      <trkpt lat="47.189175998792052" lon="9.238797035068274">
        <ele>864.84000000000003</ele>
        <time>2018-09-18T10:47:20Z</time>
      </trkpt>
      <trkpt lat="47.189594004303217" lon="9.23872503452003">
        <ele>864.84000000000003</ele>
        <time>2018-09-18T10:47:23Z</time>
      </trkpt>
      <trkpt lat="47.189715960994363" lon="9.238683041185141">
        <ele>864.36000000000001</ele>
        <time>2018-09-18T10:47:24Z</time>
      </trkpt>
      <trkpt lat="47.189812017604709" lon="9.238581033423543">
        <ele>864.36000000000001</ele>
        <time>2018-09-18T10:47:25Z</time>
      </trkpt>
      <trkpt lat="47.189910002052784" lon="9.238476008176804">
        <ele>863.88</ele>
        <time>2018-09-18T10:47:26Z</time>
      </trkpt>
      <trkpt lat="47.190034976229072" lon="9.238342987373471">
        <ele>863.88</ele>
        <time>2018-09-18T10:47:27Z</time>
      </trkpt>
      <trkpt lat="47.190103037282825" lon="9.238241985440254">
        <ele>863.88</ele>
        <time>2018-09-18T10:47:28Z</time>
      </trkpt>
      <trkpt lat="47.190156010910869" lon="9.238050039857626">
        <ele>863.88</ele>
        <time>2018-09-18T10:47:29Z</time>
      </trkpt>
      <trkpt lat="47.190194986760616" lon="9.237851975485683">
        <ele>863.88</ele>
        <time>2018-09-18T10:47:30Z</time>
      </trkpt>
      <trkpt lat="47.190230023115873" lon="9.237639997154474">
        <ele>863.39999999999998</ele>
        <time>2018-09-18T10:47:31Z</time>
      </trkpt>
      <trkpt lat="47.190458010882139" lon="9.236011980101466">
        <ele>859.55999999999995</ele>
        <time>2018-09-18T10:47:38Z</time>
      </trkpt>
      <trkpt lat="47.190448958426714" lon="9.235771000385284">
        <ele>858.59000000000003</ele>
        <time>2018-09-18T10:47:39Z</time>
      </trkpt>
      <trkpt lat="47.190405959263444" lon="9.235303960740566">
        <ele>855.71000000000004</ele>
        <time>2018-09-18T10:47:41Z</time>
      </trkpt>
      <trkpt lat="47.190371006727219" lon="9.2350759729743">
        <ele>854.75</ele>
        <time>2018-09-18T10:47:42Z</time>
      </trkpt>
      <trkpt lat="47.190190041437745" lon="9.234294025227428">
        <ele>850.89999999999998</ele>
        <time>2018-09-18T10:47:46Z</time>
      </trkpt>
      <trkpt lat="47.190210996195674" lon="9.234123034402728">
        <ele>849.94000000000005</ele>
        <time>2018-09-18T10:47:47Z</time>
      </trkpt>
      <trkpt lat="47.190241003409028" lon="9.233962018042803">
        <ele>848.98000000000002</ele>
        <time>2018-09-18T10:47:48Z</time>
      </trkpt>
      <trkpt lat="47.190306968986988" lon="9.233830003067851">
        <ele>848.01999999999998</ele>
        <time>2018-09-18T10:47:49Z</time>
      </trkpt>
      <trkpt lat="47.190414005890489" lon="9.233756996691227">
        <ele>847.05999999999995</ele>
        <time>2018-09-18T10:47:50Z</time>
      </trkpt>
      <trkpt lat="47.190527999773622" lon="9.233691031113267">
        <ele>846.58000000000004</ele>
        <time>2018-09-18T10:47:51Z</time>
      </trkpt>
      <trkpt lat="47.19065498560667" lon="9.233647026121616">
        <ele>846.10000000000002</ele>
        <time>2018-09-18T10:47:52Z</time>
      </trkpt>
      <trkpt lat="47.190794963389635" lon="9.233617018908262">
        <ele>845.13999999999999</ele>
        <time>2018-09-18T10:47:53Z</time>
      </trkpt>
      <trkpt lat="47.192186024039984" lon="9.233277970924974">
        <ele>837.45000000000005</ele>
        <time>2018-09-18T10:48:02Z</time>
      </trkpt>
      <trkpt lat="47.192309992387891" lon="9.233163977041841">
        <ele>836.96000000000004</ele>
        <time>2018-09-18T10:48:03Z</time>
      </trkpt>
      <trkpt lat="47.192422980442643" lon="9.233006983995438">
        <ele>836.48000000000002</ele>
        <time>2018-09-18T10:48:04Z</time>
      </trkpt>
      <trkpt lat="47.192494980990887" lon="9.232805985957384">
        <ele>836.48000000000002</ele>
        <time>2018-09-18T10:48:05Z</time>
      </trkpt>
      <trkpt lat="47.192567987367511" lon="9.232601970434189">
        <ele>836</ele>
        <time>2018-09-18T10:48:06Z</time>
      </trkpt>
      <trkpt lat="47.19329696148634" lon="9.230425022542477">
        <ele>834.08000000000004</ele>
        <time>2018-09-18T10:48:16Z</time>
      </trkpt>
      <trkpt lat="47.193412967026234" lon="9.230279009789228">
        <ele>834.08000000000004</ele>
        <time>2018-09-18T10:48:17Z</time>
      </trkpt>
      <trkpt lat="47.19355202279985" lon="9.230146994814277">
        <ele>834.08000000000004</ele>
        <time>2018-09-18T10:48:18Z</time>
      </trkpt>
      <trkpt lat="47.193698035553098" lon="9.230036018416286">
        <ele>833.60000000000002</ele>
        <time>2018-09-18T10:48:19Z</time>
      </trkpt>
      <trkpt lat="47.193851005285978" lon="9.229920012876391">
        <ele>833.60000000000002</ele>
        <time>2018-09-18T10:48:20Z</time>
      </trkpt>
      <trkpt lat="47.194009004160762" lon="9.229800989851356">
        <ele>833.60000000000002</ele>
        <time>2018-09-18T10:48:21Z</time>
      </trkpt>
      <trkpt lat="47.19565998762846" lon="9.228964978829026">
        <ele>837.45000000000005</ele>
        <time>2018-09-18T10:48:31Z</time>
      </trkpt>
      <trkpt lat="47.197266966104507" lon="9.228150006383658">
        <ele>836.96000000000004</ele>
        <time>2018-09-18T10:48:43Z</time>
      </trkpt>
      <trkpt lat="47.198105994611979" lon="9.227414997294545">
        <ele>834.08000000000004</ele>
        <time>2018-09-18T10:48:52Z</time>
      </trkpt>
      <trkpt lat="47.198154022917151" lon="9.227366968989372">
        <ele>834.08000000000004</ele>
        <time>2018-09-18T10:48:53Z</time>
      </trkpt>
      <trkpt lat="47.198186963796616" lon="9.227335033938289">
        <ele>833.60000000000002</ele>
        <time>2018-09-18T10:48:54Z</time>
      </trkpt>
      <trkpt lat="47.198210014030337" lon="9.227313995361328">
        <ele>833.60000000000002</ele>
        <time>2018-09-18T10:48:55Z</time>
      </trkpt>
      <trkpt lat="47.198228035122156" lon="9.227294968441129">
        <ele>833.60000000000002</ele>
        <time>2018-09-18T10:48:56Z</time>
      </trkpt>
      <trkpt lat="47.198239015415311" lon="9.227220034226775">
        <ele>833.60000000000002</ele>
        <time>2018-09-18T10:48:57Z</time>
      </trkpt>
      <trkpt lat="47.198227029293776" lon="9.227180974557996">
        <ele>834.08000000000004</ele>
        <time>2018-09-18T10:48:58Z</time>
      </trkpt>
      <trkpt lat="47.198188975453377" lon="9.227103022858501">
        <ele>834.08000000000004</ele>
        <time>2018-09-18T10:48:59Z</time>
      </trkpt>
      <trkpt lat="47.198136001825333" lon="9.227056000381708">
        <ele>834.55999999999995</ele>
        <time>2018-09-18T10:49:00Z</time>
      </trkpt>
      <trkpt lat="47.197940032929182" lon="9.226884003728628">
        <ele>836</ele>
        <time>2018-09-18T10:49:03Z</time>
      </trkpt>
      <trkpt lat="47.197867026552558" lon="9.226820971816778">
        <ele>836.96000000000004</ele>
        <time>2018-09-18T10:49:04Z</time>
      </trkpt>
      <trkpt lat="47.197798965498805" lon="9.226718964055181">
        <ele>837.92999999999995</ele>
        <time>2018-09-18T10:49:05Z</time>
      </trkpt>
      <trkpt lat="47.196949040517211" lon="9.225274007767439">
        <ele>850.89999999999998</ele>
        <time>2018-09-18T10:49:18Z</time>
      </trkpt>
      <trkpt lat="47.19604698009789" lon="9.223367962986231">
        <ele>862.91999999999996</ele>
        <time>2018-09-18T10:49:30Z</time>
      </trkpt>
      <trkpt lat="47.195541970431805" lon="9.221406010910869">
        <ele>877.34000000000003</ele>
        <time>2018-09-18T10:49:40Z</time>
      </trkpt>
      <trkpt lat="47.195492014288902" lon="9.221203001216054">
        <ele>878.77999999999997</ele>
        <time>2018-09-18T10:49:41Z</time>
      </trkpt>
      <trkpt lat="47.195429988205433" lon="9.221012983471155">
        <ele>880.71000000000004</ele>
        <time>2018-09-18T10:49:42Z</time>
      </trkpt>
      <trkpt lat="47.195348013192415" lon="9.220825983211398">
        <ele>882.14999999999998</ele>
        <time>2018-09-18T10:49:43Z</time>
      </trkpt>
      <trkpt lat="47.195269977673888" lon="9.220645017921925">
        <ele>884.07000000000005</ele>
        <time>2018-09-18T10:49:44Z</time>
      </trkpt>
      <trkpt lat="47.195165036246181" lon="9.220522977411747">
        <ele>885.99000000000001</ele>
        <time>2018-09-18T10:49:45Z</time>
      </trkpt>
      <trkpt lat="47.195051964372396" lon="9.22042197547853">
        <ele>887.90999999999997</ele>
        <time>2018-09-18T10:49:46Z</time>
      </trkpt>
      <trkpt lat="47.194939982146025" lon="9.220322985202074">
        <ele>889.84000000000003</ele>
        <time>2018-09-18T10:49:47Z</time>
      </trkpt>
      <trkpt lat="47.194825988262892" lon="9.220232963562012">
        <ele>891.75999999999999</ele>
        <time>2018-09-18T10:49:48Z</time>
      </trkpt>
      <trkpt lat="47.194485012441874" lon="9.220024002715945">
        <ele>896.57000000000005</ele>
        <time>2018-09-18T10:49:51Z</time>
      </trkpt>
      <trkpt lat="47.194389039650559" lon="9.219911014661193">
        <ele>898.00999999999999</ele>
        <time>2018-09-18T10:49:52Z</time>
      </trkpt>
      <trkpt lat="47.194294994696975" lon="9.219799032434821">
        <ele>899.45000000000005</ele>
        <time>2018-09-18T10:49:53Z</time>
      </trkpt>
      <trkpt lat="47.194225005805492" lon="9.219663999974728">
        <ele>900.88999999999999</ele>
        <time>2018-09-18T10:49:54Z</time>
      </trkpt>
      <trkpt lat="47.194171026349068" lon="9.219525028020144">
        <ele>902.82000000000005</ele>
        <time>2018-09-18T10:49:55Z</time>
      </trkpt>
      <trkpt lat="47.194150993600488" lon="9.219375997781754">
        <ele>904.25999999999999</ele>
        <time>2018-09-18T10:49:56Z</time>
      </trkpt>
      <trkpt lat="47.194144958630204" lon="9.219219004735351">
        <ele>905.22000000000003</ele>
        <time>2018-09-18T10:49:57Z</time>
      </trkpt>
      <trkpt lat="47.194138001650572" lon="9.219056982547045">
        <ele>906.65999999999997</ele>
        <time>2018-09-18T10:49:58Z</time>
      </trkpt>
      <trkpt lat="47.194118974730372" lon="9.218549961224198">
        <ele>910.99000000000001</ele>
        <time>2018-09-18T10:50:01Z</time>
      </trkpt>
      <trkpt lat="47.19411201775074" lon="9.218365978449583">
        <ele>911.95000000000005</ele>
        <time>2018-09-18T10:50:02Z</time>
      </trkpt>
      <trkpt lat="47.194121992215514" lon="9.218296995386481">
        <ele>912.90999999999997</ele>
        <time>2018-09-18T10:50:03Z</time>
      </trkpt>
      <trkpt lat="47.194160968065262" lon="9.218196999281645">
        <ele>913.87</ele>
        <time>2018-09-18T10:50:04Z</time>
      </trkpt>
      <trkpt lat="47.194231040775776" lon="9.218149976804853">
        <ele>914.83000000000004</ele>
        <time>2018-09-18T10:50:05Z</time>
      </trkpt>
      <trkpt lat="47.194309998303652" lon="9.218095997348428">
        <ele>915.78999999999996</ele>
        <time>2018-09-18T10:50:06Z</time>
      </trkpt>
      <trkpt lat="47.194401025772095" lon="9.218033971264958">
        <ele>917.24000000000001</ele>
        <time>2018-09-18T10:50:07Z</time>
      </trkpt>
      <trkpt lat="47.194697996601462" lon="9.217832973226905">
        <ele>921.55999999999995</ele>
        <time>2018-09-18T10:50:10Z</time>
      </trkpt>
      <trkpt lat="47.194775026291609" lon="9.217758039012551">
        <ele>923</ele>
        <time>2018-09-18T10:50:11Z</time>
      </trkpt>
      <trkpt lat="47.194833029061556" lon="9.217663994058967">
        <ele>923.96000000000004</ele>
        <time>2018-09-18T10:50:12Z</time>
      </trkpt>
      <trkpt lat="47.194873010739684" lon="9.217553017660976">
        <ele>924.92999999999995</ele>
        <time>2018-09-18T10:50:13Z</time>
      </trkpt>
      <trkpt lat="47.194915004074574" lon="9.21743500046432">
        <ele>925.88999999999999</ele>
        <time>2018-09-18T10:50:14Z</time>
      </trkpt>
      <trkpt lat="47.195005025714636" lon="9.217354031279683">
        <ele>926.85000000000002</ele>
        <time>2018-09-18T10:50:15Z</time>
      </trkpt>
      <trkpt lat="47.195105021819472" lon="9.217294016852975">
        <ele>927.80999999999995</ele>
        <time>2018-09-18T10:50:16Z</time>
      </trkpt>
      <trkpt lat="47.195211974903941" lon="9.21724003739655">
        <ele>929.25</ele>
        <time>2018-09-18T10:50:17Z</time>
      </trkpt>
      <trkpt lat="47.195320017635822" lon="9.217189997434616">
        <ele>930.21000000000004</ele>
        <time>2018-09-18T10:50:18Z</time>
      </trkpt>
      <trkpt lat="47.195431999862194" lon="9.217144986614585">
        <ele>931.64999999999998</ele>
        <time>2018-09-18T10:50:19Z</time>
      </trkpt>
      <trkpt lat="47.195539958775043" lon="9.217167031019926">
        <ele>933.58000000000004</ele>
        <time>2018-09-18T10:50:20Z</time>
      </trkpt>
      <trkpt lat="47.195645989850163" lon="9.217187985777855">
        <ele>935.01999999999998</ele>
        <time>2018-09-18T10:50:21Z</time>
      </trkpt>
      <trkpt lat="47.195928040891886" lon="9.217243976891041">
        <ele>939.35000000000002</ele>
        <time>2018-09-18T10:50:24Z</time>
      </trkpt>
      <trkpt lat="47.196011021733284" lon="9.217212041839957">
        <ele>940.30999999999995</ele>
        <time>2018-09-18T10:50:25Z</time>
      </trkpt>
      <trkpt lat="47.196078998968005" lon="9.217164013534784">
        <ele>941.26999999999998</ele>
        <time>2018-09-18T10:50:26Z</time>
      </trkpt>
      <trkpt lat="47.196148987859488" lon="9.217088995501399">
        <ele>942.23000000000002</ele>
        <time>2018-09-18T10:50:27Z</time>
      </trkpt>
      <trkpt lat="47.196215959265828" lon="9.217001991346479">
        <ele>942.71000000000004</ele>
        <time>2018-09-18T10:50:28Z</time>
      </trkpt>
      <trkpt lat="47.196963038295507" lon="9.216105965897441">
        <ele>948.96000000000004</ele>
        <time>2018-09-18T10:50:36Z</time>
      </trkpt>
      <trkpt lat="47.197363022714853" lon="9.215662982314825">
        <ele>950.88</ele>
        <time>2018-09-18T10:50:40Z</time>
      </trkpt>
      <trkpt lat="47.197428988292813" lon="9.215559968724847">
        <ele>950.88</ele>
        <time>2018-09-18T10:50:41Z</time>
      </trkpt>
      <trkpt lat="47.197473999112844" lon="9.215425020083785">
        <ele>950.88</ele>
        <time>2018-09-18T10:50:42Z</time>
      </trkpt>
      <trkpt lat="47.197499983012676" lon="9.215270038694143">
        <ele>950.88</ele>
        <time>2018-09-18T10:50:43Z</time>
      </trkpt>
      <trkpt lat="47.197513980790973" lon="9.215103993192315">
        <ele>951.36000000000001</ele>
        <time>2018-09-18T10:50:44Z</time>
      </trkpt>
      <trkpt lat="47.197527978569269" lon="9.214928979054093">
        <ele>951.36000000000001</ele>
        <time>2018-09-18T10:50:45Z</time>
      </trkpt>
      <trkpt lat="47.197541976347566" lon="9.214752037078142">
        <ele>951.36000000000001</ele>
        <time>2018-09-18T10:50:46Z</time>
      </trkpt>
      <trkpt lat="47.197580030187964" lon="9.214380970224738">
        <ele>950.88</ele>
        <time>2018-09-18T10:50:48Z</time>
      </trkpt>
      <trkpt lat="47.197800977155566" lon="9.212724035605788">
        <ele>949.44000000000005</ele>
        <time>2018-09-18T10:50:57Z</time>
      </trkpt>
      <trkpt lat="47.197853028774261" lon="9.212452964857221">
        <ele>948.96000000000004</ele>
        <time>2018-09-18T10:50:59Z</time>
      </trkpt>
      <trkpt lat="47.197888987138867" lon="9.212332013994455">
        <ele>948.96000000000004</ele>
        <time>2018-09-18T10:51:00Z</time>
      </trkpt>
      <trkpt lat="47.197939027100801" lon="9.212221037596464">
        <ele>948.48000000000002</ele>
        <time>2018-09-18T10:51:01Z</time>
      </trkpt>
      <trkpt lat="47.198029970750213" lon="9.21202096156776">
        <ele>948</ele>
        <time>2018-09-18T10:51:03Z</time>
      </trkpt>
      <trkpt lat="47.198064001277089" lon="9.211947033181787">
        <ele>947.51999999999998</ele>
        <time>2018-09-18T10:51:04Z</time>
      </trkpt>
      <trkpt lat="47.198067018762231" lon="9.211856005713344">
        <ele>947.51999999999998</ele>
        <time>2018-09-18T10:51:05Z</time>
      </trkpt>
      <trkpt lat="47.198050003498793" lon="9.211790962144733">
        <ele>947.51999999999998</ele>
        <time>2018-09-18T10:51:06Z</time>
      </trkpt>
      <trkpt lat="47.198031982406974" lon="9.211723990738392">
        <ele>947.03999999999996</ele>
        <time>2018-09-18T10:51:07Z</time>
      </trkpt>
      <trkpt lat="47.197993006557226" lon="9.211660036817193">
        <ele>947.03999999999996</ele>
        <time>2018-09-18T10:51:08Z</time>
      </trkpt>
      <trkpt lat="47.19793701544404" lon="9.211632963269949">
        <ele>947.03999999999996</ele>
        <time>2018-09-18T10:51:09Z</time>
      </trkpt>
      <trkpt lat="47.19787297770381" lon="9.211602034047246">
        <ele>946.55999999999995</ele>
        <time>2018-09-18T10:51:10Z</time>
      </trkpt>
      <trkpt lat="47.197798965498805" lon="9.211565991863608">
        <ele>946.55999999999995</ele>
        <time>2018-09-18T10:51:11Z</time>
      </trkpt>
      <trkpt lat="47.197376014664769" lon="9.211348984390497">
        <ele>945.59000000000003</ele>
        <time>2018-09-18T10:51:16Z</time>
      </trkpt>
      <trkpt lat="47.197319017723203" lon="9.211280001327395">
        <ele>945.11000000000001</ele>
        <time>2018-09-18T10:51:17Z</time>
      </trkpt>
      <trkpt lat="47.197288004681468" lon="9.211242031306028">
        <ele>944.63</ele>
        <time>2018-09-18T10:51:18Z</time>
      </trkpt>
      <trkpt lat="47.197263026610017" lon="9.211108004674316">
        <ele>944.63</ele>
        <time>2018-09-18T10:51:19Z</time>
      </trkpt>
      <trkpt lat="47.197246011346579" lon="9.211012031883001">
        <ele>944.14999999999998</ele>
        <time>2018-09-18T10:51:20Z</time>
      </trkpt>
      <trkpt lat="47.197278030216694" lon="9.21094698831439">
        <ele>944.14999999999998</ele>
        <time>2018-09-18T10:51:21Z</time>
      </trkpt>
      <trkpt lat="47.197328992187977" lon="9.210858978331089">
        <ele>943.66999999999996</ele>
        <time>2018-09-18T10:51:22Z</time>
      </trkpt>
      <trkpt lat="47.197385989129543" lon="9.210758982226253">
        <ele>943.19000000000005</ele>
        <time>2018-09-18T10:51:23Z</time>
      </trkpt>
      <trkpt lat="47.197447009384632" lon="9.210653034970164">
        <ele>942.71000000000004</ele>
        <time>2018-09-18T10:51:24Z</time>
      </trkpt>
      <trkpt lat="47.197706010192633" lon="9.210160011425614">
        <ele>941.75</ele>
        <time>2018-09-18T10:51:28Z</time>
      </trkpt>
      <trkpt lat="47.197746997699142" lon="9.210035959258676">
        <ele>941.75</ele>
        <time>2018-09-18T10:51:29Z</time>
      </trkpt>
      <trkpt lat="47.197781028226018" lon="9.209896987304092">
        <ele>941.75</ele>
        <time>2018-09-18T10:51:30Z</time>
      </trkpt>
      <trkpt lat="47.197781028226018" lon="9.209766983985901">
        <ele>941.75</ele>
        <time>2018-09-18T10:51:31Z</time>
      </trkpt>
      <trkpt lat="47.197755966335535" lon="9.209623988717794">
        <ele>941.75</ele>
        <time>2018-09-18T10:51:32Z</time>
      </trkpt>
      <trkpt lat="47.197711961343884" lon="9.209494991227984">
        <ele>941.75</ele>
        <time>2018-09-18T10:51:33Z</time>
      </trkpt>
      <trkpt lat="47.197659993544221" lon="9.209344033151865">
        <ele>941.26999999999998</ele>
        <time>2018-09-18T10:51:34Z</time>
      </trkpt>
      <trkpt lat="47.197544993832707" lon="9.20901102013886">
        <ele>941.26999999999998</ele>
        <time>2018-09-18T10:51:36Z</time>
      </trkpt>
      <trkpt lat="47.197479028254747" lon="9.208858972415328">
        <ele>940.78999999999996</ele>
        <time>2018-09-18T10:51:37Z</time>
      </trkpt>
      <trkpt lat="47.197415996342897" lon="9.20871396549046">
        <ele>940.30999999999995</ele>
        <time>2018-09-18T10:51:38Z</time>
      </trkpt>
      <trkpt lat="47.19735698774457" lon="9.208579016849399">
        <ele>940.30999999999995</ele>
        <time>2018-09-18T10:51:39Z</time>
      </trkpt>
      <trkpt lat="47.197323041036725" lon="9.208428980782628">
        <ele>940.30999999999995</ele>
        <time>2018-09-18T10:51:40Z</time>
      </trkpt>
      <trkpt lat="47.197308959439397" lon="9.208265030756593">
        <ele>940.30999999999995</ele>
        <time>2018-09-18T10:51:41Z</time>
      </trkpt>
      <trkpt lat="47.1972949616611" lon="9.208095967769623">
        <ele>939.83000000000004</ele>
        <time>2018-09-18T10:51:42Z</time>
      </trkpt>
      <trkpt lat="47.197222961112857" lon="9.2072509881109">
        <ele>938.86000000000001</ele>
        <time>2018-09-18T10:51:47Z</time>
      </trkpt>
      <trkpt lat="47.197198988869786" lon="9.20716498978436">
        <ele>938.86000000000001</ele>
        <time>2018-09-18T10:51:48Z</time>
      </trkpt>
      <trkpt lat="47.197134029120207" lon="9.207050995901227">
        <ele>938.86000000000001</ele>
        <time>2018-09-18T10:51:49Z</time>
      </trkpt>
      <trkpt lat="47.197060016915202" lon="9.206971032544971">
        <ele>938.38</ele>
        <time>2018-09-18T10:51:50Z</time>
      </trkpt>
      <trkpt lat="47.196988016366959" lon="9.206892997026444">
        <ele>937.89999999999998</ele>
        <time>2018-09-18T10:51:51Z</time>
      </trkpt>
      <trkpt lat="47.196919033303857" lon="9.206806998699904">
        <ele>937.89999999999998</ele>
        <time>2018-09-18T10:51:52Z</time>
      </trkpt>
      <trkpt lat="47.196890031918883" lon="9.206688981503248">
        <ele>937.89999999999998</ele>
        <time>2018-09-18T10:51:53Z</time>
      </trkpt>
      <trkpt lat="47.196875028312206" lon="9.206554032862186">
        <ele>937.89999999999998</ele>
        <time>2018-09-18T10:51:54Z</time>
      </trkpt>
      <trkpt lat="47.196867987513542" lon="9.206416988745332">
        <ele>937.41999999999996</ele>
        <time>2018-09-18T10:51:55Z</time>
      </trkpt>
      <trkpt lat="47.196860024705529" lon="9.206274999305606">
        <ele>937.41999999999996</ele>
        <time>2018-09-18T10:51:56Z</time>
      </trkpt>
      <trkpt lat="47.196852983906865" lon="9.206130998209119">
        <ele>937.41999999999996</ele>
        <time>2018-09-18T10:51:57Z</time>
      </trkpt>
      <trkpt lat="47.196845021098852" lon="9.205981967970729">
        <ele>936.94000000000005</ele>
        <time>2018-09-18T10:51:58Z</time>
      </trkpt>
      <trkpt lat="47.196830017492175" lon="9.205816006287932">
        <ele>936.94000000000005</ele>
        <time>2018-09-18T10:51:59Z</time>
      </trkpt>
      <trkpt lat="47.196773020550609" lon="9.205670999363065">
        <ele>936.46000000000004</ele>
        <time>2018-09-18T10:52:00Z</time>
      </trkpt>
      <trkpt lat="47.1967130061239" lon="9.205519035458565">
        <ele>936.46000000000004</ele>
        <time>2018-09-18T10:52:01Z</time>
      </trkpt>
      <trkpt lat="47.196587026119232" lon="9.205199014395475">
        <ele>935.98000000000002</ele>
        <time>2018-09-18T10:52:03Z</time>
      </trkpt>
      <trkpt lat="47.196537991985679" lon="9.205025006085634">
        <ele>935.5</ele>
        <time>2018-09-18T10:52:04Z</time>
      </trkpt>
      <trkpt lat="47.196500021964312" lon="9.204839011654258">
        <ele>935.01999999999998</ele>
        <time>2018-09-18T10:52:05Z</time>
      </trkpt>
      <trkpt lat="47.196353003382683" lon="9.204100985080004">
        <ele>934.05999999999995</ele>
        <time>2018-09-18T10:52:09Z</time>
      </trkpt>
      <trkpt lat="47.196317967027426" lon="9.203924965113401">
        <ele>933.58000000000004</ele>
        <time>2018-09-18T10:52:10Z</time>
      </trkpt>
      <trkpt lat="47.196319978684187" lon="9.203693959861994">
        <ele>933.10000000000002</ele>
        <time>2018-09-18T10:52:11Z</time>
      </trkpt>
      <trkpt lat="47.196346968412399" lon="9.203496985137463">
        <ele>933.10000000000002</ele>
        <time>2018-09-18T10:52:12Z</time>
      </trkpt>
      <trkpt lat="47.196380998939276" lon="9.203305961564183">
        <ele>932.62</ele>
        <time>2018-09-18T10:52:13Z</time>
      </trkpt>
      <trkpt lat="47.196558024734259" lon="9.202315974980593">
        <ele>932.13999999999999</ele>
        <time>2018-09-18T10:52:18Z</time>
      </trkpt>
      <trkpt lat="47.196544026955962" lon="9.202123023569584">
        <ele>932.13999999999999</ele>
        <time>2018-09-18T10:52:19Z</time>
      </trkpt>
      <trkpt lat="47.196529023349285" lon="9.201925965026021">
        <ele>932.13999999999999</ele>
        <time>2018-09-18T10:52:20Z</time>
      </trkpt>
      <trkpt lat="47.196514019742608" lon="9.20172899030149">
        <ele>931.64999999999998</ele>
        <time>2018-09-18T10:52:21Z</time>
      </trkpt>
      <trkpt lat="47.196500021964312" lon="9.201545007526875">
        <ele>931.64999999999998</ele>
        <time>2018-09-18T10:52:22Z</time>
      </trkpt>
      <trkpt lat="47.196457022801042" lon="9.201383991166949">
        <ele>931.16999999999996</ele>
        <time>2018-09-18T10:52:23Z</time>
      </trkpt>
      <trkpt lat="47.196392985060811" lon="9.201253987848759">
        <ele>930.69000000000005</ele>
        <time>2018-09-18T10:52:24Z</time>
      </trkpt>
      <trkpt lat="47.19632601365447" lon="9.201119961217046">
        <ele>930.69000000000005</ele>
        <time>2018-09-18T10:52:25Z</time>
      </trkpt>
      <trkpt lat="47.196254013106227" lon="9.200974032282829">
        <ele>930.21000000000004</ele>
        <time>2018-09-18T10:52:26Z</time>
      </trkpt>
      <trkpt lat="47.195546999573708" lon="9.199550030753017">
        <ele>928.28999999999996</ele>
        <time>2018-09-18T10:52:34Z</time>
      </trkpt>
      <trkpt lat="47.195182973518968" lon="9.198817033320665">
        <ele>928.76999999999998</ele>
        <time>2018-09-18T10:52:38Z</time>
      </trkpt>
      <trkpt lat="47.194898994639516" lon="9.197940034791827">
        <ele>930.21000000000004</ele>
        <time>2018-09-18T10:52:44Z</time>
      </trkpt>
      <trkpt lat="47.194732027128339" lon="9.196868995204568">
        <ele>933.58000000000004</ele>
        <time>2018-09-18T10:52:52Z</time>
      </trkpt>
      <trkpt lat="47.194730015471578" lon="9.196664979681373">
        <ele>933.58000000000004</ele>
        <time>2018-09-18T10:52:53Z</time>
      </trkpt>
      <trkpt lat="47.194731021299958" lon="9.195107035338879">
        <ele>936.46000000000004</ele>
        <time>2018-09-18T10:53:01Z</time>
      </trkpt>
      <trkpt lat="47.194748958572745" lon="9.194978037849069">
        <ele>936.94000000000005</ele>
        <time>2018-09-18T10:53:02Z</time>
      </trkpt>
      <trkpt lat="47.194765973836184" lon="9.194861026480794">
        <ele>937.41999999999996</ele>
        <time>2018-09-18T10:53:03Z</time>
      </trkpt>
      <trkpt lat="47.19480000436306" lon="9.194744015112519">
        <ele>937.89999999999998</ele>
        <time>2018-09-18T10:53:04Z</time>
      </trkpt>
      <trkpt lat="47.194839986041188" lon="9.194675032049418">
        <ele>938.38</ele>
        <time>2018-09-18T10:53:05Z</time>
      </trkpt>
      <trkpt lat="47.194872004911304" lon="9.194618035107851">
        <ele>938.86000000000001</ele>
        <time>2018-09-18T10:53:06Z</time>
      </trkpt>
      <trkpt lat="47.194898994639516" lon="9.194571012631059">
        <ele>939.35000000000002</ele>
        <time>2018-09-18T10:53:07Z</time>
      </trkpt>
      <trkpt lat="47.194922966882586" lon="9.194528013467789">
        <ele>939.83000000000004</ele>
        <time>2018-09-18T10:53:08Z</time>
      </trkpt>
      <trkpt lat="47.194950040429831" lon="9.194480990990996">
        <ele>940.30999999999995</ele>
        <time>2018-09-18T10:53:09Z</time>
      </trkpt>
      <trkpt lat="47.195083983242512" lon="9.194382000714541">
        <ele>940.78999999999996</ele>
        <time>2018-09-18T10:53:10Z</time>
      </trkpt>
      <trkpt lat="47.195098986849189" lon="9.194398010149598">
        <ele>941.26999999999998</ele>
        <time>2018-09-18T10:53:11Z</time>
      </trkpt>
      <trkpt lat="47.195146009325981" lon="9.194547962397337">
        <ele>941.75</ele>
        <time>2018-09-18T10:53:12Z</time>
      </trkpt>
      <trkpt lat="47.195171993225813" lon="9.194629015401006">
        <ele>942.23000000000002</ele>
        <time>2018-09-18T10:53:13Z</time>
      </trkpt>
      <trkpt lat="47.195202000439167" lon="9.194723982363939">
        <ele>942.71000000000004</ele>
        <time>2018-09-18T10:53:14Z</time>
      </trkpt>
      <trkpt lat="47.195232007652521" lon="9.19485499151051">
        <ele>942.71000000000004</ele>
        <time>2018-09-18T10:53:15Z</time>
      </trkpt>
      <trkpt lat="47.195359999313951" lon="9.195727966725826">
        <ele>942.71000000000004</ele>
        <time>2018-09-18T10:53:22Z</time>
      </trkpt>
      <trkpt lat="47.195393024012446" lon="9.195831986144185">
        <ele>942.71000000000004</ele>
        <time>2018-09-18T10:53:23Z</time>
      </trkpt>
      <trkpt lat="47.195429988205433" lon="9.195937011390925">
        <ele>942.71000000000004</ele>
        <time>2018-09-18T10:53:24Z</time>
      </trkpt>
      <trkpt lat="47.195491008460522" lon="9.196037007495761">
        <ele>942.71000000000004</ele>
        <time>2018-09-18T10:53:25Z</time>
      </trkpt>
      <trkpt lat="47.195556974038482" lon="9.196145972236991">
        <ele>942.71000000000004</ele>
        <time>2018-09-18T10:53:26Z</time>
      </trkpt>
      <trkpt lat="47.196335988119245" lon="9.19743100181222">
        <ele>941.75</ele>
        <time>2018-09-18T10:53:35Z</time>
      </trkpt>
      <trkpt lat="47.197274006903172" lon="9.199109980836511">
        <ele>940.78999999999996</ele>
        <time>2018-09-18T10:53:46Z</time>
      </trkpt>
      <trkpt lat="47.197638032957911" lon="9.199868040159345">
        <ele>945.59000000000003</ele>
        <time>2018-09-18T10:53:52Z</time>
      </trkpt>
      <trkpt lat="47.197703998535872" lon="9.199928976595402">
        <ele>946.07000000000005</ele>
        <time>2018-09-18T10:53:53Z</time>
      </trkpt>
      <trkpt lat="47.197773987427354" lon="9.199994020164013">
        <ele>946.55999999999995</ele>
        <time>2018-09-18T10:53:54Z</time>
      </trkpt>
      <trkpt lat="47.197846993803978" lon="9.200060991570354">
        <ele>947.51999999999998</ele>
        <time>2018-09-18T10:53:55Z</time>
      </trkpt>
      <trkpt lat="47.197925029322505" lon="9.200132992118597">
        <ele>948</ele>
        <time>2018-09-18T10:53:56Z</time>
      </trkpt>
      <trkpt lat="47.198101971298456" lon="9.200305994600058">
        <ele>949.44000000000005</ele>
        <time>2018-09-18T10:53:58Z</time>
      </trkpt>
      <trkpt lat="47.198181012645364" lon="9.20041898265481">
        <ele>949.91999999999996</ele>
        <time>2018-09-18T10:53:59Z</time>
      </trkpt>
      <trkpt lat="47.19851603731513" lon="9.200901025906205">
        <ele>953.27999999999997</ele>
        <time>2018-09-18T10:54:03Z</time>
      </trkpt>
      <trkpt lat="47.198598012328148" lon="9.201065981760621">
        <ele>953.76999999999998</ele>
        <time>2018-09-18T10:54:04Z</time>
      </trkpt>
      <trkpt lat="47.198641011491418" lon="9.201216017827392">
        <ele>954.25</ele>
        <time>2018-09-18T10:54:05Z</time>
      </trkpt>
      <trkpt lat="47.198679987341166" lon="9.201352978125215">
        <ele>954.73000000000002</ele>
        <time>2018-09-18T10:54:06Z</time>
      </trkpt>
      <trkpt lat="47.198713012039661" lon="9.201450040563941">
        <ele>955.21000000000004</ele>
        <time>2018-09-18T10:54:07Z</time>
      </trkpt>
      <trkpt lat="47.198767997324467" lon="9.201527992263436">
        <ele>956.16999999999996</ele>
        <time>2018-09-18T10:54:08Z</time>
      </trkpt>
      <trkpt lat="47.198822982609272" lon="9.201606027781963">
        <ele>956.64999999999998</ele>
        <time>2018-09-18T10:54:09Z</time>
      </trkpt>
      <trkpt lat="47.198887020349503" lon="9.201662018895149">
        <ele>957.13</ele>
        <time>2018-09-18T10:54:10Z</time>
      </trkpt>
      <trkpt lat="47.198959020897746" lon="9.20168599113822">
        <ele>957.61000000000001</ele>
        <time>2018-09-18T10:54:11Z</time>
      </trkpt>
      <trkpt lat="47.199066979810596" lon="9.201761009171605">
        <ele>958.57000000000005</ele>
        <time>2018-09-18T10:54:12Z</time>
      </trkpt>
      <trkpt lat="47.199107967317104" lon="9.201855976134539">
        <ele>959.04999999999995</ele>
        <time>2018-09-18T10:54:13Z</time>
      </trkpt>
      <trkpt lat="47.199120037257671" lon="9.202010035514832">
        <ele>959.52999999999997</ele>
        <time>2018-09-18T10:54:14Z</time>
      </trkpt>
      <trkpt lat="47.199126994237304" lon="9.202123023569584">
        <ele>960.00999999999999</ele>
        <time>2018-09-18T10:54:15Z</time>
      </trkpt>
      <trkpt lat="47.199133029207587" lon="9.202229976654053">
        <ele>960.49000000000001</ele>
        <time>2018-09-18T10:54:16Z</time>
      </trkpt>
      <trkpt lat="47.199174016714096" lon="9.202318992465735">
        <ele>960.98000000000002</ele>
        <time>2018-09-18T10:54:17Z</time>
      </trkpt>
      <trkpt lat="47.199219027534127" lon="9.202415971085429">
        <ele>961.46000000000004</ele>
        <time>2018-09-18T10:54:18Z</time>
      </trkpt>
      <trkpt lat="47.199262026697397" lon="9.202509010210633">
        <ele>961.94000000000005</ele>
        <time>2018-09-18T10:54:19Z</time>
      </trkpt>
      <trkpt lat="47.199323968961835" lon="9.202580004930496">
        <ele>962.41999999999996</ele>
        <time>2018-09-18T10:54:20Z</time>
      </trkpt>
      <trkpt lat="47.199389012530446" lon="9.202655022963882">
        <ele>962.89999999999998</ele>
        <time>2018-09-18T10:54:21Z</time>
      </trkpt>
      <trkpt lat="47.199464030563831" lon="9.202709002420306">
        <ele>963.38</ele>
        <time>2018-09-18T10:54:22Z</time>
      </trkpt>
      <trkpt lat="47.199551034718752" lon="9.202757030725479">
        <ele>963.86000000000001</ele>
        <time>2018-09-18T10:54:23Z</time>
      </trkpt>
      <trkpt lat="47.199901985004544" lon="9.202939001843333">
        <ele>965.77999999999997</ele>
        <time>2018-09-18T10:54:27Z</time>
      </trkpt>
      <trkpt lat="47.199986977502704" lon="9.202945036813617">
        <ele>966.25999999999999</ele>
        <time>2018-09-18T10:54:28Z</time>
      </trkpt>
      <trkpt lat="47.200070964172482" lon="9.202950987964869">
        <ele>966.25999999999999</ele>
        <time>2018-09-18T10:54:29Z</time>
      </trkpt>
      <trkpt lat="47.200155034661293" lon="9.202957022935152">
        <ele>966.74000000000001</ele>
        <time>2018-09-18T10:54:30Z</time>
      </trkpt>
      <trkpt lat="47.200233992189169" lon="9.202988035976887">
        <ele>966.74000000000001</ele>
        <time>2018-09-18T10:54:31Z</time>
      </trkpt>
      <trkpt lat="47.200306998565793" lon="9.203029023483396">
        <ele>967.22000000000003</ele>
        <time>2018-09-18T10:54:32Z</time>
      </trkpt>
      <trkpt lat="47.200368018820882" lon="9.203112004324794">
        <ele>967.22000000000003</ele>
        <time>2018-09-18T10:54:33Z</time>
      </trkpt>
      <trkpt lat="47.200419986620545" lon="9.203217029571533">
        <ele>967.70000000000005</ele>
        <time>2018-09-18T10:54:34Z</time>
      </trkpt>
      <trkpt lat="47.200433984398842" lon="9.203321970999241">
        <ele>967.70000000000005</ele>
        <time>2018-09-18T10:54:35Z</time>
      </trkpt>
      <trkpt lat="47.200415963307023" lon="9.203450968489051">
        <ele>968.17999999999995</ele>
        <time>2018-09-18T10:54:36Z</time>
      </trkpt>
      <trkpt lat="47.200376987457275" lon="9.203546019271016">
        <ele>968.66999999999996</ele>
        <time>2018-09-18T10:54:37Z</time>
      </trkpt>
      <trkpt lat="47.200338011607528" lon="9.20364199206233">
        <ele>968.66999999999996</ele>
        <time>2018-09-18T10:54:38Z</time>
      </trkpt>
      <trkpt lat="47.200298029929399" lon="9.203737964853644">
        <ele>969.14999999999998</ele>
        <time>2018-09-18T10:54:39Z</time>
      </trkpt>
      <trkpt lat="47.200291994959116" lon="9.203857993707061">
        <ele>969.63</ele>
        <time>2018-09-18T10:54:40Z</time>
      </trkpt>
      <trkpt lat="47.200291994959116" lon="9.203981962054968">
        <ele>970.11000000000001</ele>
        <time>2018-09-18T10:54:41Z</time>
      </trkpt>
      <trkpt lat="47.200291994959116" lon="9.204107020050287">
        <ele>970.11000000000001</ele>
        <time>2018-09-18T10:54:42Z</time>
      </trkpt>
      <trkpt lat="47.200298029929399" lon="9.204225959256291">
        <ele>970.59000000000003</ele>
        <time>2018-09-18T10:54:43Z</time>
      </trkpt>
      <trkpt lat="47.200329964980483" lon="9.204344982281327">
        <ele>970.59000000000003</ele>
        <time>2018-09-18T10:54:44Z</time>
      </trkpt>
      <trkpt lat="47.20036500133574" lon="9.204471968114376">
        <ele>971.07000000000005</ele>
        <time>2018-09-18T10:54:45Z</time>
      </trkpt>
      <trkpt lat="47.200400959700346" lon="9.204605994746089">
        <ele>971.54999999999995</ele>
        <time>2018-09-18T10:54:46Z</time>
      </trkpt>
      <trkpt lat="47.200914015993476" lon="9.205749034881592">
        <ele>976.36000000000001</ele>
        <time>2018-09-18T10:54:54Z</time>
      </trkpt>
      <trkpt lat="47.201671991497278" lon="9.207106987014413">
        <ele>981.15999999999997</ele>
        <time>2018-09-18T10:55:04Z</time>
      </trkpt>
      <trkpt lat="47.202122015878558" lon="9.207887006923556">
        <ele>983.09000000000003</ele>
        <time>2018-09-18T10:55:10Z</time>
      </trkpt>
      <trkpt lat="47.202201979234815" lon="9.208023967221379">
        <ele>983.09000000000003</ele>
        <time>2018-09-18T10:55:11Z</time>
      </trkpt>
      <trkpt lat="47.202275991439819" lon="9.208162017166615">
        <ele>983.57000000000005</ele>
        <time>2018-09-18T10:55:12Z</time>
      </trkpt>
      <trkpt lat="47.202352015301585" lon="9.20830300077796">
        <ele>983.57000000000005</ele>
        <time>2018-09-18T10:55:13Z</time>
      </trkpt>
      <trkpt lat="47.202394008636475" lon="9.208451025187969">
        <ele>983.57000000000005</ele>
        <time>2018-09-18T10:55:14Z</time>
      </trkpt>
      <trkpt lat="47.202436001971364" lon="9.208598965778947">
        <ele>983.57000000000005</ele>
        <time>2018-09-18T10:55:15Z</time>
      </trkpt>
      <trkpt lat="47.202475983649492" lon="9.208739027380943">
        <ele>984.04999999999995</ele>
        <time>2018-09-18T10:55:16Z</time>
      </trkpt>
      <trkpt lat="47.20251303166151" lon="9.208867019042373">
        <ele>984.52999999999997</ele>
        <time>2018-09-18T10:55:17Z</time>
      </trkpt>
      <trkpt lat="47.202547984197736" lon="9.208989981561899">
        <ele>985.00999999999999</ele>
        <time>2018-09-18T10:55:18Z</time>
      </trkpt>
      <trkpt lat="47.20259902998805" lon="9.209100035950542">
        <ele>985.00999999999999</ele>
        <time>2018-09-18T10:55:19Z</time>
      </trkpt>
      <trkpt lat="47.202668013051152" lon="9.209196008741856">
        <ele>985.49000000000001</ele>
        <time>2018-09-18T10:55:20Z</time>
      </trkpt>
      <trkpt lat="47.202740013599396" lon="9.209297010675073">
        <ele>985.49000000000001</ele>
        <time>2018-09-18T10:55:21Z</time>
      </trkpt>
      <trkpt lat="47.202877979725599" lon="9.209475964307785">
        <ele>985.97000000000003</ele>
        <time>2018-09-18T10:55:23Z</time>
      </trkpt>
      <trkpt lat="47.202951991930604" lon="9.209569003432989">
        <ele>985.97000000000003</ele>
        <time>2018-09-18T10:55:24Z</time>
      </trkpt>
      <trkpt lat="47.203031033277512" lon="9.209607979282737">
        <ele>986.45000000000005</ele>
        <time>2018-09-18T10:55:25Z</time>
      </trkpt>
      <trkpt lat="47.203751960769296" lon="9.210050962865353">
        <ele>993.17999999999995</ele>
        <time>2018-09-18T10:55:34Z</time>
      </trkpt>
      <trkpt lat="47.203796971589327" lon="9.21013000421226">
        <ele>993.65999999999997</ele>
        <time>2018-09-18T10:55:35Z</time>
      </trkpt>
      <trkpt lat="47.203839970752597" lon="9.210206028074026">
        <ele>994.13999999999999</ele>
        <time>2018-09-18T10:55:36Z</time>
      </trkpt>
      <trkpt lat="47.203874001279473" lon="9.210267970338464">
        <ele>994.62</ele>
        <time>2018-09-18T10:55:37Z</time>
      </trkpt>
      <trkpt lat="47.203903002664447" lon="9.210319016128779">
        <ele>995.10000000000002</ele>
        <time>2018-09-18T10:55:38Z</time>
      </trkpt>
      <trkpt lat="47.203928986564279" lon="9.21036503277719">
        <ele>995.58000000000004</ele>
        <time>2018-09-18T10:55:39Z</time>
      </trkpt>
      <trkpt lat="47.203956982120872" lon="9.210374001413584">
        <ele>996.53999999999996</ele>
        <time>2018-09-18T10:55:40Z</time>
      </trkpt>
      <trkpt lat="47.20399503596127" lon="9.210352962836623">
        <ele>996.53999999999996</ele>
        <time>2018-09-18T10:55:41Z</time>
      </trkpt>
      <trkpt lat="47.20404096879065" lon="9.210327984765172">
        <ele>997.01999999999998</ele>
        <time>2018-09-18T10:55:42Z</time>
      </trkpt>
      <trkpt lat="47.204092014580965" lon="9.210299989208579">
        <ele>997.50999999999999</ele>
        <time>2018-09-18T10:55:43Z</time>
      </trkpt>
      <trkpt lat="47.204143982380629" lon="9.210256990045309">
        <ele>997.50999999999999</ele>
        <time>2018-09-18T10:55:44Z</time>
      </trkpt>
      <trkpt lat="47.204187987372279" lon="9.210183983668685">
        <ele>997.99000000000001</ele>
        <time>2018-09-18T10:55:45Z</time>
      </trkpt>
      <trkpt lat="47.204237021505833" lon="9.210104020312429">
        <ele>997.99000000000001</ele>
        <time>2018-09-18T10:55:46Z</time>
      </trkpt>
      <trkpt lat="47.204853007569909" lon="9.209125014021993">
        <ele>993.65999999999997</ele>
        <time>2018-09-18T10:55:55Z</time>
      </trkpt>
      <trkpt lat="47.205558009445667" lon="9.208440966904163">
        <ele>990.77999999999997</ele>
        <time>2018-09-18T10:56:03Z</time>
      </trkpt>
      <trkpt lat="47.205597991123796" lon="9.208330996334553">
        <ele>990.77999999999997</ele>
        <time>2018-09-18T10:56:04Z</time>
      </trkpt>
      <trkpt lat="47.205630009993911" lon="9.208210967481136">
        <ele>990.77999999999997</ele>
        <time>2018-09-18T10:56:05Z</time>
      </trkpt>
      <trkpt lat="47.205665968358517" lon="9.208080964162946">
        <ele>990.29999999999995</ele>
        <time>2018-09-18T10:56:06Z</time>
      </trkpt>
      <trkpt lat="47.205703016370535" lon="9.207945009693503">
        <ele>989.80999999999995</ele>
        <time>2018-09-18T10:56:07Z</time>
      </trkpt>
      <trkpt lat="47.205740986391902" lon="9.207806959748268">
        <ele>989.33000000000004</ele>
        <time>2018-09-18T10:56:08Z</time>
      </trkpt>
      <trkpt lat="47.20577702857554" lon="9.207672011107206">
        <ele>988.85000000000002</ele>
        <time>2018-09-18T10:56:09Z</time>
      </trkpt>
      <trkpt lat="47.205811981111765" lon="9.207544019445777">
        <ele>987.88999999999999</ele>
        <time>2018-09-18T10:56:10Z</time>
      </trkpt>
      <trkpt lat="47.205871995538473" lon="9.207437988370657">
        <ele>986.92999999999995</ele>
        <time>2018-09-18T10:56:11Z</time>
      </trkpt>
      <trkpt lat="47.205942990258336" lon="9.207359030842781">
        <ele>986.45000000000005</ele>
        <time>2018-09-18T10:56:12Z</time>
      </trkpt>
      <trkpt lat="47.206012979149818" lon="9.207280995324254">
        <ele>985.97000000000003</ele>
        <time>2018-09-18T10:56:13Z</time>
      </trkpt>
      <trkpt lat="47.206103000789881" lon="9.207260962575674">
        <ele>985.49000000000001</ele>
        <time>2018-09-18T10:56:14Z</time>
      </trkpt>
      <trkpt lat="47.206192016601563" lon="9.207256017252803">
        <ele>985.49000000000001</ele>
        <time>2018-09-18T10:56:15Z</time>
      </trkpt>
      <trkpt lat="47.206286983564496" lon="9.207277977839112">
        <ele>985.00999999999999</ele>
        <time>2018-09-18T10:56:16Z</time>
      </trkpt>
      <trkpt lat="47.206384968012571" lon="9.207300022244453">
        <ele>984.52999999999997</ele>
        <time>2018-09-18T10:56:17Z</time>
      </trkpt>
      <trkpt lat="47.206492004916072" lon="9.207300022244453">
        <ele>984.04999999999995</ele>
        <time>2018-09-18T10:56:18Z</time>
      </trkpt>
      <trkpt lat="47.206593006849289" lon="9.207262974232435">
        <ele>983.57000000000005</ele>
        <time>2018-09-18T10:56:19Z</time>
      </trkpt>
      <trkpt lat="47.206697026267648" lon="9.207223998382688">
        <ele>983.09000000000003</ele>
        <time>2018-09-18T10:56:20Z</time>
      </trkpt>
      <trkpt lat="47.206799034029245" lon="9.207186028361321">
        <ele>982.60000000000002</ele>
        <time>2018-09-18T10:56:21Z</time>
      </trkpt>
      <trkpt lat="47.207076977938414" lon="9.207083014771342">
        <ele>981.63999999999999</ele>
        <time>2018-09-18T10:56:24Z</time>
      </trkpt>
      <trkpt lat="47.207159036770463" lon="9.207052001729608">
        <ele>981.15999999999997</ele>
        <time>2018-09-18T10:56:25Z</time>
      </trkpt>
      <trkpt lat="47.207233970984817" lon="9.207041021436453">
        <ele>980.67999999999995</ele>
        <time>2018-09-18T10:56:26Z</time>
      </trkpt>
      <trkpt lat="47.207307983189821" lon="9.207049990072846">
        <ele>980.20000000000005</ele>
        <time>2018-09-18T10:56:27Z</time>
      </trkpt>
      <trkpt lat="47.207392975687981" lon="9.207116039469838">
        <ele>979.72000000000003</ele>
        <time>2018-09-18T10:56:28Z</time>
      </trkpt>
      <trkpt lat="47.207429017871618" lon="9.207215029746294">
        <ele>979.24000000000001</ele>
        <time>2018-09-18T10:56:29Z</time>
      </trkpt>
      <trkpt lat="47.207466987892985" lon="9.207321982830763">
        <ele>979.24000000000001</ele>
        <time>2018-09-18T10:56:30Z</time>
      </trkpt>
      <trkpt lat="47.207505963742733" lon="9.207446034997702">
        <ele>978.75999999999999</ele>
        <time>2018-09-18T10:56:31Z</time>
      </trkpt>
      <trkpt lat="47.207867978140712" lon="9.208650011569262">
        <ele>976.84000000000003</ele>
        <time>2018-09-18T10:56:40Z</time>
      </trkpt>
      <trkpt lat="47.207994963973761" lon="9.208931978791952">
        <ele>975.88</ele>
        <time>2018-09-18T10:56:46Z</time>
      </trkpt>
      <trkpt lat="47.208028994500637" lon="9.20896902680397">
        <ele>975.88</ele>
        <time>2018-09-18T10:56:47Z</time>
      </trkpt>
      <trkpt lat="47.208068976178765" lon="9.209013031795621">
        <ele>975.88</ele>
        <time>2018-09-18T10:56:48Z</time>
      </trkpt>
      <trkpt lat="47.208363013342023" lon="9.209403963759542">
        <ele>975.38999999999999</ele>
        <time>2018-09-18T10:56:55Z</time>
      </trkpt>
      <trkpt lat="47.208385979756713" lon="9.209489040076733">
        <ele>975.38999999999999</ele>
        <time>2018-09-18T10:56:56Z</time>
      </trkpt>
      <trkpt lat="47.208409029990435" lon="9.209576966241002">
        <ele>975.38999999999999</ele>
        <time>2018-09-18T10:56:57Z</time>
      </trkpt>
      <trkpt lat="47.208430990576744" lon="9.209660030901432">
        <ele>974.90999999999997</ele>
        <time>2018-09-18T10:56:58Z</time>
      </trkpt>
      <trkpt lat="47.208454040810466" lon="9.209746029227972">
        <ele>974.90999999999997</ele>
        <time>2018-09-18T10:56:59Z</time>
      </trkpt>
      <trkpt lat="47.208727961406112" lon="9.210741966962814">
        <ele>970.11000000000001</ele>
        <time>2018-09-18T10:57:07Z</time>
      </trkpt>
      <trkpt lat="47.20913196913898" lon="9.212017022073269">
        <ele>961.94000000000005</ele>
        <time>2018-09-18T10:57:16Z</time>
      </trkpt>
      <trkpt lat="47.20917496830225" lon="9.212135039269924">
        <ele>960.49000000000001</ele>
        <time>2018-09-18T10:57:17Z</time>
      </trkpt>
      <trkpt lat="47.20921503379941" lon="9.212246015667915">
        <ele>959.52999999999997</ele>
        <time>2018-09-18T10:57:18Z</time>
      </trkpt>
      <trkpt lat="47.209330033510923" lon="9.212562013417482">
        <ele>956.64999999999998</ele>
        <time>2018-09-18T10:57:21Z</time>
      </trkpt>
      <trkpt lat="47.209481997415423" lon="9.212756976485252">
        <ele>952.79999999999995</ele>
        <time>2018-09-18T10:57:26Z</time>
      </trkpt>
      <trkpt lat="47.209522984921932" lon="9.212739961221814">
        <ele>951.84000000000003</ele>
        <time>2018-09-18T10:57:27Z</time>
      </trkpt>
      <trkpt lat="47.209561038762331" lon="9.212723029777408">
        <ele>950.88</ele>
        <time>2018-09-18T10:57:28Z</time>
      </trkpt>
      <trkpt lat="47.209579981863499" lon="9.212669972330332">
        <ele>949.44000000000005</ele>
        <time>2018-09-18T10:57:29Z</time>
      </trkpt>
      <trkpt lat="47.209609989076853" lon="9.212582968175411">
        <ele>948.96000000000004</ele>
        <time>2018-09-18T10:57:30Z</time>
      </trkpt>
      <trkpt lat="47.209676960483193" lon="9.212386999279261">
        <ele>947.51999999999998</ele>
        <time>2018-09-18T10:57:32Z</time>
      </trkpt>
      <trkpt lat="47.209713002666831" lon="9.212281974032521">
        <ele>946.55999999999995</ele>
        <time>2018-09-18T10:57:33Z</time>
      </trkpt>
      <trkpt lat="47.209750972688198" lon="9.212173009291291">
        <ele>945.59000000000003</ele>
        <time>2018-09-18T10:57:34Z</time>
      </trkpt>
      <trkpt lat="47.20981702208519" lon="9.21206102706492">
        <ele>944.63</ele>
        <time>2018-09-18T10:57:35Z</time>
      </trkpt>
      <trkpt lat="47.209896985441446" lon="9.211982991546392">
        <ele>943.66999999999996</ele>
        <time>2018-09-18T10:57:36Z</time>
      </trkpt>
      <trkpt lat="47.209980972111225" lon="9.211902022361755">
        <ele>942.71000000000004</ele>
        <time>2018-09-18T10:57:37Z</time>
      </trkpt>
      <trkpt lat="47.210726039484143" lon="9.211275978013873">
        <ele>934.05999999999995</ele>
        <time>2018-09-18T10:57:46Z</time>
      </trkpt>
      <trkpt lat="47.210814971476793" lon="9.211232978850603">
        <ele>932.62</ele>
        <time>2018-09-18T10:57:47Z</time>
      </trkpt>
      <trkpt lat="47.210985962301493" lon="9.211151003837585">
        <ele>930.69000000000005</ele>
        <time>2018-09-18T10:57:49Z</time>
      </trkpt>
      <trkpt lat="47.211051005870104" lon="9.211100041866303">
        <ele>929.73000000000002</ele>
        <time>2018-09-18T10:57:50Z</time>
      </trkpt>
      <trkpt lat="47.211110014468431" lon="9.211029969155788">
        <ele>928.76999999999998</ele>
        <time>2018-09-18T10:57:51Z</time>
      </trkpt>
      <trkpt lat="47.211157036945224" lon="9.210956040769815">
        <ele>927.80999999999995</ele>
        <time>2018-09-18T10:57:52Z</time>
      </trkpt>
      <trkpt lat="47.211186038330197" lon="9.210845986381173">
        <ele>926.85000000000002</ele>
        <time>2018-09-18T10:57:53Z</time>
      </trkpt>
      <trkpt lat="47.211217973381281" lon="9.210726041346788">
        <ele>926.37</ele>
        <time>2018-09-18T10:57:54Z</time>
      </trkpt>
      <trkpt lat="47.211252003908157" lon="9.210596038028598">
        <ele>925.40999999999997</ele>
        <time>2018-09-18T10:57:55Z</time>
      </trkpt>
      <trkpt lat="47.211287962272763" lon="9.210461005568504">
        <ele>924.45000000000005</ele>
        <time>2018-09-18T10:57:56Z</time>
      </trkpt>
      <trkpt lat="47.211412014439702" lon="9.209992038086057">
        <ele>920.12</ele>
        <time>2018-09-18T10:58:00Z</time>
      </trkpt>
      <trkpt lat="47.21151502802968" lon="9.209604961797595">
        <ele>918.20000000000005</ele>
        <time>2018-09-18T10:58:03Z</time>
      </trkpt>
      <trkpt lat="47.211555009707808" lon="9.209452997893095">
        <ele>917.72000000000003</ele>
        <time>2018-09-18T10:58:04Z</time>
      </trkpt>
      <trkpt lat="47.211595997214317" lon="9.209300028160214">
        <ele>916.75</ele>
        <time>2018-09-18T10:58:05Z</time>
      </trkpt>
      <trkpt lat="47.212039986625314" lon="9.207998989149928">
        <ele>910.02999999999997</ele>
        <time>2018-09-18T10:58:13Z</time>
      </trkpt>
      <trkpt lat="47.212739959359169" lon="9.206522013992071">
        <ele>901.37</ele>
        <time>2018-09-18T10:58:22Z</time>
      </trkpt>
      <trkpt lat="47.213791972026229" lon="9.204441960901022">
        <ele>889.84000000000003</ele>
        <time>2018-09-18T10:58:35Z</time>
      </trkpt>
      <trkpt lat="47.214425979182124" lon="9.2034069634974">
        <ele>885.02999999999997</ele>
        <time>2018-09-18T10:58:43Z</time>
      </trkpt>
      <trkpt lat="47.214500997215509" lon="9.203292969614267">
        <ele>884.54999999999995</ele>
        <time>2018-09-18T10:58:44Z</time>
      </trkpt>
      <trkpt lat="47.214566040784121" lon="9.203144023194909">
        <ele>883.59000000000003</ele>
        <time>2018-09-18T10:58:45Z</time>
      </trkpt>
      <trkpt lat="47.214919002726674" lon="9.202333996072412">
        <ele>878.77999999999997</ele>
        <time>2018-09-18T10:58:50Z</time>
      </trkpt>
      <trkpt lat="47.214986979961395" lon="9.20218002051115">
        <ele>877.34000000000003</ele>
        <time>2018-09-18T10:58:51Z</time>
      </trkpt>
      <trkpt lat="47.215271964669228" lon="9.20183502137661">
        <ele>874.94000000000005</ele>
        <time>2018-09-18T10:58:54Z</time>
      </trkpt>
      <trkpt lat="47.215328961610794" lon="9.201711975038052">
        <ele>874.46000000000004</ele>
        <time>2018-09-18T10:58:55Z</time>
      </trkpt>
      <trkpt lat="47.215398028492928" lon="9.201565040275455">
        <ele>873.98000000000002</ele>
        <time>2018-09-18T10:58:56Z</time>
      </trkpt>
      <trkpt lat="47.215429963544011" lon="9.201463032513857">
        <ele>873.00999999999999</ele>
        <time>2018-09-18T10:58:57Z</time>
      </trkpt>
      <trkpt lat="47.215467011556029" lon="9.201345015317202">
        <ele>872.52999999999997</ele>
        <time>2018-09-18T10:58:58Z</time>
      </trkpt>
      <trkpt lat="47.215527025982738" lon="9.201157009229064">
        <ele>871.09000000000003</ele>
        <time>2018-09-18T10:59:00Z</time>
      </trkpt>
      <trkpt lat="47.215572036802769" lon="9.201085008680821">
        <ele>870.13</ele>
        <time>2018-09-18T10:59:01Z</time>
      </trkpt>
      <trkpt lat="47.215615035966039" lon="9.201018959283829">
        <ele>869.64999999999998</ele>
        <time>2018-09-18T10:59:02Z</time>
      </trkpt>
      <trkpt lat="47.215653005987406" lon="9.200958022847772">
        <ele>869.16999999999996</ele>
        <time>2018-09-18T10:59:03Z</time>
      </trkpt>
      <trkpt lat="47.21570698544383" lon="9.200938995927572">
        <ele>868.69000000000005</ele>
        <time>2018-09-18T10:59:04Z</time>
      </trkpt>
      <trkpt lat="47.215764988213778" lon="9.200974032282829">
        <ele>868.21000000000004</ele>
        <time>2018-09-18T10:59:05Z</time>
      </trkpt>
      <trkpt lat="47.215811004862189" lon="9.201038992032409">
        <ele>867.25</ele>
        <time>2018-09-18T10:59:06Z</time>
      </trkpt>
      <trkpt lat="47.215859033167362" lon="9.201134964823723">
        <ele>866.76999999999998</ele>
        <time>2018-09-18T10:59:07Z</time>
      </trkpt>
      <trkpt lat="47.215913012623787" lon="9.201243007555604">
        <ele>866.28999999999996</ele>
        <time>2018-09-18T10:59:08Z</time>
      </trkpt>
      <trkpt lat="47.215946037322283" lon="9.201382985338569">
        <ele>865.79999999999995</ele>
        <time>2018-09-18T10:59:09Z</time>
      </trkpt>
      <trkpt lat="47.216453980654478" lon="9.202998010441661">
        <ele>858.11000000000001</ele>
        <time>2018-09-18T10:59:21Z</time>
      </trkpt>
      <trkpt lat="47.21677903085947" lon="9.204282034188509">
        <ele>853.78999999999996</ele>
        <time>2018-09-18T10:59:29Z</time>
      </trkpt>
      <trkpt lat="47.217025961726904" lon="9.2052529938519">
        <ele>849.94000000000005</ele>
        <time>2018-09-18T10:59:37Z</time>
      </trkpt>
      <trkpt lat="47.217185972258449" lon="9.205883983522654">
        <ele>846.10000000000002</ele>
        <time>2018-09-18T10:59:42Z</time>
      </trkpt>
      <trkpt lat="47.21718798391521" lon="9.206010969355702">
        <ele>845.62</ele>
        <time>2018-09-18T10:59:43Z</time>
      </trkpt>
      <trkpt lat="47.217171974480152" lon="9.206095961853862">
        <ele>844.65999999999997</ele>
        <time>2018-09-18T10:59:44Z</time>
      </trkpt>
      <trkpt lat="47.217160994186997" lon="9.206187995150685">
        <ele>844.17999999999995</ele>
        <time>2018-09-18T10:59:45Z</time>
      </trkpt>
      <trkpt lat="47.217180021107197" lon="9.206247003749013">
        <ele>843.21000000000004</ele>
        <time>2018-09-18T10:59:46Z</time>
      </trkpt>
      <trkpt lat="47.217196030542254" lon="9.206294026225805">
        <ele>842.73000000000002</ele>
        <time>2018-09-18T10:59:47Z</time>
      </trkpt>
      <trkpt lat="47.217250009998679" lon="9.206238035112619">
        <ele>842.25</ele>
        <time>2018-09-18T10:59:48Z</time>
      </trkpt>
      <trkpt lat="47.217275993898511" lon="9.206200987100601">
        <ele>841.28999999999996</ele>
        <time>2018-09-18T10:59:49Z</time>
      </trkpt>
      <trkpt lat="47.217308012768626" lon="9.206156982108951">
        <ele>840.80999999999995</ele>
        <time>2018-09-18T10:59:50Z</time>
      </trkpt>
      <trkpt lat="47.217313963919878" lon="9.206086993217468">
        <ele>839.85000000000002</ele>
        <time>2018-09-18T10:59:51Z</time>
      </trkpt>
      <trkpt lat="47.217328967526555" lon="9.205921031534672">
        <ele>839.37</ele>
        <time>2018-09-18T10:59:52Z</time>
      </trkpt>
      <trkpt lat="47.217315975576639" lon="9.205849030986428">
        <ele>838.40999999999997</ele>
        <time>2018-09-18T10:59:53Z</time>
      </trkpt>
      <trkpt lat="47.217289991676807" lon="9.205710981041193">
        <ele>837.45000000000005</ele>
        <time>2018-09-18T10:59:54Z</time>
      </trkpt>
      <trkpt lat="47.217236012220383" lon="9.204727029427886">
        <ele>830.72000000000003</ele>
        <time>2018-09-18T11:00:00Z</time>
      </trkpt>
      <trkpt lat="47.217247998341918" lon="9.204557966440916">
        <ele>829.26999999999998</ele>
        <time>2018-09-18T11:00:01Z</time>
      </trkpt>
      <trkpt lat="47.217367021366954" lon="9.203397994861007">
        <ele>819.65999999999997</ele>
        <time>2018-09-18T11:00:08Z</time>
      </trkpt>
      <trkpt lat="47.217408008873463" lon="9.203235972672701">
        <ele>818.22000000000003</ele>
        <time>2018-09-18T11:00:09Z</time>
      </trkpt>
      <trkpt lat="47.217482021078467" lon="9.203114015981555">
        <ele>816.77999999999997</ele>
        <time>2018-09-18T11:00:10Z</time>
      </trkpt>
      <trkpt lat="47.217812016606331" lon="9.202508004382253">
        <ele>811.00999999999999</ele>
        <time>2018-09-18T11:00:15Z</time>
      </trkpt>
      <trkpt lat="47.217856021597981" lon="9.202384036034346">
        <ele>810.04999999999995</ele>
        <time>2018-09-18T11:00:16Z</time>
      </trkpt>
      <trkpt lat="47.217902038246393" lon="9.202256966382265">
        <ele>809.09000000000003</ele>
        <time>2018-09-18T11:00:17Z</time>
      </trkpt>
      <trkpt lat="47.217950988560915" lon="9.202120006084442">
        <ele>808.13</ele>
        <time>2018-09-18T11:00:18Z</time>
      </trkpt>
      <trkpt lat="47.217988958582282" lon="9.201961001381278">
        <ele>807.15999999999997</ele>
        <time>2018-09-18T11:00:19Z</time>
      </trkpt>
      <trkpt lat="47.21813497133553" lon="9.200975960120559">
        <ele>799.47000000000003</ele>
        <time>2018-09-18T11:00:25Z</time>
      </trkpt>
      <trkpt lat="47.218117034062743" lon="9.200834976509213">
        <ele>798.50999999999999</ele>
        <time>2018-09-18T11:00:26Z</time>
      </trkpt>
      <trkpt lat="47.218083003535867" lon="9.200144978240132">
        <ele>792.74000000000001</ele>
        <time>2018-09-18T11:00:31Z</time>
      </trkpt>
      <trkpt lat="47.218094989657402" lon="9.200025033205748">
        <ele>791.77999999999997</ele>
        <time>2018-09-18T11:00:32Z</time>
      </trkpt>
      <trkpt lat="47.218102030456066" lon="9.199955966323614">
        <ele>790.34000000000003</ele>
        <time>2018-09-18T11:00:33Z</time>
      </trkpt>
      <trkpt lat="47.218145029619336" lon="9.199845995754004">
        <ele>789.38</ele>
        <time>2018-09-18T11:00:34Z</time>
      </trkpt>
      <trkpt lat="47.21817503683269" lon="9.199771983548999">
        <ele>788.41999999999996</ele>
        <time>2018-09-18T11:00:35Z</time>
      </trkpt>
      <trkpt lat="47.218222981318831" lon="9.199735019356012">
        <ele>786.98000000000002</ele>
        <time>2018-09-18T11:00:36Z</time>
      </trkpt>
      <trkpt lat="47.218272015452385" lon="9.199726972728968">
        <ele>786.5</ele>
        <time>2018-09-18T11:00:37Z</time>
      </trkpt>
      <trkpt lat="47.218331024050713" lon="9.199743987992406">
        <ele>785.52999999999997</ele>
        <time>2018-09-18T11:00:38Z</time>
      </trkpt>
      <trkpt lat="47.21836899407208" lon="9.199804002419114">
        <ele>784.57000000000005</ele>
        <time>2018-09-18T11:00:39Z</time>
      </trkpt>
      <trkpt lat="47.218422973528504" lon="9.199912967160344">
        <ele>783.61000000000001</ele>
        <time>2018-09-18T11:00:40Z</time>
      </trkpt>
      <trkpt lat="47.218422973528504" lon="9.200029978528619">
        <ele>782.64999999999998</ele>
        <time>2018-09-18T11:00:41Z</time>
      </trkpt>
      <trkpt lat="47.218422973528504" lon="9.200169034302235">
        <ele>782.16999999999996</ele>
        <time>2018-09-18T11:00:42Z</time>
      </trkpt>
      <trkpt lat="47.218450969085097" lon="9.200314041227102">
        <ele>781.21000000000004</ele>
        <time>2018-09-18T11:00:43Z</time>
      </trkpt>
      <trkpt lat="47.218493968248367" lon="9.200471034273505">
        <ele>780.73000000000002</ele>
        <time>2018-09-18T11:00:44Z</time>
      </trkpt>
      <trkpt lat="47.218950027599931" lon="9.202144984155893">
        <ele>769.19000000000005</ele>
        <time>2018-09-18T11:00:56Z</time>
      </trkpt>
      <trkpt lat="47.219006018713117" lon="9.202342964708805">
        <ele>767.75</ele>
        <time>2018-09-18T11:00:58Z</time>
      </trkpt>
      <trkpt lat="47.219043988734484" lon="9.202421000227332">
        <ele>767.26999999999998</ele>
        <time>2018-09-18T11:00:59Z</time>
      </trkpt>
      <trkpt lat="47.219082964584231" lon="9.202498029917479">
        <ele>766.30999999999995</ele>
        <time>2018-09-18T11:01:00Z</time>
      </trkpt>
      <trkpt lat="47.219131998717785" lon="9.202595008537173">
        <ele>765.35000000000002</ele>
        <time>2018-09-18T11:01:01Z</time>
      </trkpt>
      <trkpt lat="47.219181032851338" lon="9.202615041285753">
        <ele>764.87</ele>
        <time>2018-09-18T11:01:02Z</time>
      </trkpt>
      <trkpt lat="47.219233000651002" lon="9.202634990215302">
        <ele>764.38999999999999</ele>
        <time>2018-09-18T11:01:03Z</time>
      </trkpt>
      <trkpt lat="47.219286980107427" lon="9.202657034620643">
        <ele>763.41999999999996</ele>
        <time>2018-09-18T11:01:04Z</time>
      </trkpt>
      <trkpt lat="47.219342971220613" lon="9.202680001035333">
        <ele>762.94000000000005</ele>
        <time>2018-09-18T11:01:05Z</time>
      </trkpt>
      <trkpt lat="47.219930039718747" lon="9.202851997688413">
        <ele>762.46000000000004</ele>
        <time>2018-09-18T11:01:14Z</time>
      </trkpt>
      <trkpt lat="47.219989970326424" lon="9.202870018780232">
        <ele>762.94000000000005</ele>
        <time>2018-09-18T11:01:15Z</time>
      </trkpt>
      <trkpt lat="47.220435971394181" lon="9.20297596603632">
        <ele>764.87</ele>
        <time>2018-09-18T11:01:22Z</time>
      </trkpt>
      <trkpt lat="47.22051702439785" lon="9.202970014885068">
        <ele>764.87</ele>
        <time>2018-09-18T11:01:23Z</time>
      </trkpt>
      <trkpt lat="47.220597993582487" lon="9.202943025156856">
        <ele>765.35000000000002</ele>
        <time>2018-09-18T11:01:24Z</time>
      </trkpt>
      <trkpt lat="47.220669994130731" lon="9.202896002680063">
        <ele>765.35000000000002</ele>
        <time>2018-09-18T11:01:25Z</time>
      </trkpt>
      <trkpt lat="47.220736965537071" lon="9.20284696854651">
        <ele>765.83000000000004</ele>
        <time>2018-09-18T11:01:26Z</time>
      </trkpt>
      <trkpt lat="47.221244992688298" lon="9.202500963583589">
        <ele>767.26999999999998</ele>
        <time>2018-09-18T11:01:34Z</time>
      </trkpt>
      <trkpt lat="47.221871959045529" lon="9.202254032716155">
        <ele>765.83000000000004</ele>
        <time>2018-09-18T11:01:44Z</time>
      </trkpt>
      <trkpt lat="47.221933985128999" lon="9.202228970825672">
        <ele>765.35000000000002</ele>
        <time>2018-09-18T11:01:45Z</time>
      </trkpt>
      <trkpt lat="47.222060970962048" lon="9.202178008854389">
        <ele>765.35000000000002</ele>
        <time>2018-09-18T11:01:47Z</time>
      </trkpt>
      <trkpt lat="47.222121991217136" lon="9.202154036611319">
        <ele>764.87</ele>
        <time>2018-09-18T11:01:48Z</time>
      </trkpt>
      <trkpt lat="47.22223799675703" lon="9.202107014134526">
        <ele>764.38999999999999</ele>
        <time>2018-09-18T11:01:50Z</time>
      </trkpt>
      <trkpt lat="47.222295999526978" lon="9.202082036063075">
        <ele>764.38999999999999</ele>
        <time>2018-09-18T11:01:51Z</time>
      </trkpt>
      <trkpt lat="47.222361965104938" lon="9.202038031071425">
        <ele>763.89999999999998</ele>
        <time>2018-09-18T11:01:52Z</time>
      </trkpt>
      <trkpt lat="47.222403958439827" lon="9.201966030523181">
        <ele>763.41999999999996</ele>
        <time>2018-09-18T11:01:53Z</time>
      </trkpt>
      <trkpt lat="47.222447963431478" lon="9.201892018318176">
        <ele>763.41999999999996</ele>
        <time>2018-09-18T11:01:54Z</time>
      </trkpt>
      <trkpt lat="47.222490040585399" lon="9.201820017769933">
        <ele>762.94000000000005</ele>
        <time>2018-09-18T11:01:55Z</time>
      </trkpt>
      <trkpt lat="47.222725991159678" lon="9.201363958418369">
        <ele>761.98000000000002</ele>
        <time>2018-09-18T11:02:02Z</time>
      </trkpt>
      <trkpt lat="47.22275398671627" lon="9.201308973133564">
        <ele>761.5</ele>
        <time>2018-09-18T11:02:03Z</time>
      </trkpt>
      <trkpt lat="47.222844008356333" lon="9.201135970652103">
        <ele>761.01999999999998</ele>
        <time>2018-09-18T11:02:05Z</time>
      </trkpt>
      <trkpt lat="47.222826993092895" lon="9.201168995350599">
        <ele>761.01999999999998</ele>
        <time>2018-09-18T11:02:06Z</time>
      </trkpt>
      <trkpt lat="47.222950961440802" lon="9.201114010065794">
        <ele>761.01999999999998</ele>
        <time>2018-09-18T11:02:07Z</time>
      </trkpt>
      <trkpt lat="47.222964959219098" lon="9.201075034216046">
        <ele>760.53999999999996</ele>
        <time>2018-09-18T11:02:08Z</time>
      </trkpt>
      <trkpt lat="47.223001001402736" lon="9.200973026454449">
        <ele>760.05999999999995</ele>
        <time>2018-09-18T11:02:09Z</time>
      </trkpt>
      <trkpt lat="47.223079036921263" lon="9.200756018981338">
        <ele>759.10000000000002</ele>
        <time>2018-09-18T11:02:11Z</time>
      </trkpt>
      <trkpt lat="47.223296966403723" lon="9.200299959629774">
        <ele>757.17999999999995</ele>
        <time>2018-09-18T11:02:16Z</time>
      </trkpt>
      <trkpt lat="47.223343988880515" lon="9.200223013758659">
        <ele>756.69000000000005</ele>
        <time>2018-09-18T11:02:17Z</time>
      </trkpt>
      <trkpt lat="47.223746990785003" lon="9.199600992724299">
        <ele>756.69000000000005</ele>
        <time>2018-09-18T11:02:26Z</time>
      </trkpt>
      <trkpt lat="47.22382603213191" lon="9.199531003832817">
        <ele>756.69000000000005</ele>
        <time>2018-09-18T11:02:27Z</time>
      </trkpt>
      <trkpt lat="47.22391203045845" lon="9.199476018548012">
        <ele>756.69000000000005</ele>
        <time>2018-09-18T11:02:28Z</time>
      </trkpt>
      <trkpt lat="47.224000040441751" lon="9.199420027434826">
        <ele>757.17999999999995</ele>
        <time>2018-09-18T11:02:29Z</time>
      </trkpt>
      <trkpt lat="47.224067011848092" lon="9.199376022443175">
        <ele>757.65999999999997</ele>
        <time>2018-09-18T11:02:30Z</time>
      </trkpt>
      <trkpt lat="47.224174970760942" lon="9.199376022443175">
        <ele>757.65999999999997</ele>
        <time>2018-09-18T11:02:31Z</time>
      </trkpt>
      <trkpt lat="47.224265998229384" lon="9.199376022443175">
        <ele>758.62</ele>
        <time>2018-09-18T11:02:32Z</time>
      </trkpt>
      <trkpt lat="47.224359959363937" lon="9.199376022443175">
        <ele>759.10000000000002</ele>
        <time>2018-09-18T11:02:33Z</time>
      </trkpt>
      <trkpt lat="47.22531097009778" lon="9.199224980548024">
        <ele>764.38999999999999</ele>
        <time>2018-09-18T11:02:43Z</time>
      </trkpt>
      <trkpt lat="47.226461973041296" lon="9.198805969208479">
        <ele>762.94000000000005</ele>
        <time>2018-09-18T11:02:55Z</time>
      </trkpt>
      <trkpt lat="47.227453971281648" lon="9.198454013094306">
        <ele>762.94000000000005</ele>
        <time>2018-09-18T11:03:04Z</time>
      </trkpt>
      <trkpt lat="47.228143969550729" lon="9.19809996150434">
        <ele>762.46000000000004</ele>
        <time>2018-09-18T11:03:10Z</time>
      </trkpt>
      <trkpt lat="47.228251006454229" lon="9.198019998148084">
        <ele>762.46000000000004</ele>
        <time>2018-09-18T11:03:11Z</time>
      </trkpt>
      <trkpt lat="47.228343961760402" lon="9.197908015921712">
        <ele>762.46000000000004</ele>
        <time>2018-09-18T11:03:12Z</time>
      </trkpt>
      <trkpt lat="47.228433983400464" lon="9.197793016210198">
        <ele>762.46000000000004</ele>
        <time>2018-09-18T11:03:13Z</time>
      </trkpt>
      <trkpt lat="47.228526016697288" lon="9.197676004841924">
        <ele>762.46000000000004</ele>
        <time>2018-09-18T11:03:14Z</time>
      </trkpt>
      <trkpt lat="47.228619977831841" lon="9.197557987645268">
        <ele>762.46000000000004</ele>
        <time>2018-09-18T11:03:15Z</time>
      </trkpt>
      <trkpt lat="47.22870203666389" lon="9.197444999590516">
        <ele>762.46000000000004</ele>
        <time>2018-09-18T11:03:16Z</time>
      </trkpt>
      <trkpt lat="47.22879096865654" lon="9.197304015979171">
        <ele>761.98000000000002</ele>
        <time>2018-09-18T11:03:17Z</time>
      </trkpt>
      <trkpt lat="47.228871015831828" lon="9.197169989347458">
        <ele>762.46000000000004</ele>
        <time>2018-09-18T11:03:18Z</time>
      </trkpt>
      <trkpt lat="47.228937987238169" lon="9.197036968544126">
        <ele>762.46000000000004</ele>
        <time>2018-09-18T11:03:19Z</time>
      </trkpt>
      <trkpt lat="47.228996995836496" lon="9.19687301851809">
        <ele>761.98000000000002</ele>
        <time>2018-09-18T11:03:20Z</time>
      </trkpt>
      <trkpt lat="47.229053992778063" lon="9.196714013814926">
        <ele>761.98000000000002</ele>
        <time>2018-09-18T11:03:21Z</time>
      </trkpt>
      <trkpt lat="47.229613987728953" lon="9.194736974313855">
        <ele>761.98000000000002</ele>
        <time>2018-09-18T11:03:33Z</time>
      </trkpt>
      <trkpt lat="47.230255035683513" lon="9.193423027172685">
        <ele>759.58000000000004</ele>
        <time>2018-09-18T11:03:42Z</time>
      </trkpt>
      <trkpt lat="47.230333993211389" lon="9.193291012197733">
        <ele>759.10000000000002</ele>
        <time>2018-09-18T11:03:43Z</time>
      </trkpt>
      <trkpt lat="47.230993984267116" lon="9.192192982882261">
        <ele>758.13999999999999</ele>
        <time>2018-09-18T11:03:52Z</time>
      </trkpt>
      <trkpt lat="47.231046035885811" lon="9.192116037011147">
        <ele>758.13999999999999</ele>
        <time>2018-09-18T11:03:53Z</time>
      </trkpt>
      <trkpt lat="47.231091968715191" lon="9.192046970129013">
        <ele>757.65999999999997</ele>
        <time>2018-09-18T11:03:54Z</time>
      </trkpt>
      <trkpt lat="47.231233958154917" lon="9.19203800149262">
        <ele>757.17999999999995</ele>
        <time>2018-09-18T11:03:55Z</time>
      </trkpt>
      <trkpt lat="47.231252985075116" lon="9.19206197373569">
        <ele>757.17999999999995</ele>
        <time>2018-09-18T11:03:56Z</time>
      </trkpt>
      <trkpt lat="47.231305036693811" lon="9.192129028961062">
        <ele>757.17999999999995</ele>
        <time>2018-09-18T11:03:57Z</time>
      </trkpt>
      <trkpt lat="47.231366978958249" lon="9.192207986488938">
        <ele>757.17999999999995</ele>
        <time>2018-09-18T11:03:58Z</time>
      </trkpt>
      <trkpt lat="47.231436967849731" lon="9.19229599647224">
        <ele>757.65999999999997</ele>
        <time>2018-09-18T11:03:59Z</time>
      </trkpt>
      <trkpt lat="47.232289994135499" lon="9.193290006369352">
        <ele>770.63</ele>
        <time>2018-09-18T11:04:08Z</time>
      </trkpt>
      <trkpt lat="47.233122987672687" lon="9.194291979074478">
        <ele>784.09000000000003</ele>
        <time>2018-09-18T11:04:17Z</time>
      </trkpt>
      <trkpt lat="47.233664961531758" lon="9.195865010842681">
        <ele>799.95000000000005</ele>
        <time>2018-09-18T11:04:27Z</time>
      </trkpt>
      <trkpt lat="47.233879035338759" lon="9.196562971919775">
        <ele>805.24000000000001</ele>
        <time>2018-09-18T11:04:31Z</time>
      </trkpt>
      <trkpt lat="47.233940977603197" lon="9.196747960522771">
        <ele>806.67999999999995</ele>
        <time>2018-09-18T11:04:32Z</time>
      </trkpt>
      <trkpt lat="47.234024964272976" lon="9.196920040994883">
        <ele>808.13</ele>
        <time>2018-09-18T11:04:33Z</time>
      </trkpt>
      <trkpt lat="47.234389996156096" lon="9.197597969323397">
        <ele>814.37</ele>
        <time>2018-09-18T11:04:37Z</time>
      </trkpt>
      <trkpt lat="47.234455039724708" lon="9.197779018431902">
        <ele>816.29999999999995</ele>
        <time>2018-09-18T11:04:38Z</time>
      </trkpt>
      <trkpt lat="47.234497033059597" lon="9.197981022298336">
        <ele>817.74000000000001</ele>
        <time>2018-09-18T11:04:39Z</time>
      </trkpt>
      <trkpt lat="47.234529973939061" lon="9.198188977316022">
        <ele>819.17999999999995</ele>
        <time>2018-09-18T11:04:40Z</time>
      </trkpt>
      <trkpt lat="47.234544977545738" lon="9.198407996445894">
        <ele>820.62</ele>
        <time>2018-09-18T11:04:41Z</time>
      </trkpt>
      <trkpt lat="47.234554030001163" lon="9.198639001697302">
        <ele>822.05999999999995</ele>
        <time>2018-09-18T11:04:42Z</time>
      </trkpt>
      <trkpt lat="47.234580013900995" lon="9.199306033551693">
        <ele>826.87</ele>
        <time>2018-09-18T11:04:45Z</time>
      </trkpt>
      <trkpt lat="47.234626030549407" lon="9.199500996619463">
        <ele>828.30999999999995</ele>
        <time>2018-09-18T11:04:46Z</time>
      </trkpt>
      <trkpt lat="47.234667018055916" lon="9.199654972180724">
        <ele>830.24000000000001</ele>
        <time>2018-09-18T11:04:47Z</time>
      </trkpt>
      <trkpt lat="47.234786963090301" lon="9.199814982712269">
        <ele>832.15999999999997</ele>
        <time>2018-09-18T11:04:48Z</time>
      </trkpt>
      <trkpt lat="47.234895005822182" lon="9.199958983808756">
        <ele>833.60000000000002</ele>
        <time>2018-09-18T11:04:49Z</time>
      </trkpt>
      <trkpt lat="47.235003970563412" lon="9.200103990733624">
        <ele>835.51999999999998</ele>
        <time>2018-09-18T11:04:50Z</time>
      </trkpt>
      <trkpt lat="47.235096003860235" lon="9.200250003486872">
        <ele>836.96000000000004</ele>
        <time>2018-09-18T11:04:51Z</time>
      </trkpt>
      <trkpt lat="47.235174039378762" lon="9.200397022068501">
        <ele>838.40999999999997</ele>
        <time>2018-09-18T11:04:52Z</time>
      </trkpt>
      <trkpt lat="47.235244028270245" lon="9.200560972094536">
        <ele>839.85000000000002</ele>
        <time>2018-09-18T11:04:53Z</time>
      </trkpt>
      <trkpt lat="47.235293984413147" lon="9.200745038688183">
        <ele>841.28999999999996</ele>
        <time>2018-09-18T11:04:54Z</time>
      </trkpt>
      <trkpt lat="47.235345030203462" lon="9.200932960957289">
        <ele>843.21000000000004</ele>
        <time>2018-09-18T11:04:55Z</time>
      </trkpt>
      <trkpt lat="47.235396998003125" lon="9.201124990358949">
        <ele>844.65999999999997</ele>
        <time>2018-09-18T11:04:56Z</time>
      </trkpt>
      <trkpt lat="47.235481990501285" lon="9.201302016153932">
        <ele>846.10000000000002</ele>
        <time>2018-09-18T11:04:57Z</time>
      </trkpt>
      <trkpt lat="47.235587015748024" lon="9.201466972008348">
        <ele>848.01999999999998</ele>
        <time>2018-09-18T11:04:58Z</time>
      </trkpt>
      <trkpt lat="47.23667498677969" lon="9.203127007931471">
        <ele>865.79999999999995</ele>
        <time>2018-09-18T11:05:08Z</time>
      </trkpt>
      <trkpt lat="47.236794009804726" lon="9.203213006258011">
        <ele>867.25</ele>
        <time>2018-09-18T11:05:09Z</time>
      </trkpt>
      <trkpt lat="47.236923007294536" lon="9.203268997371197">
        <ele>868.69000000000005</ele>
        <time>2018-09-18T11:05:10Z</time>
      </trkpt>
      <trkpt lat="47.237164992839098" lon="9.203374022617936">
        <ele>872.04999999999995</ele>
        <time>2018-09-18T11:05:12Z</time>
      </trkpt>
      <trkpt lat="47.237261971458793" lon="9.203451974317431">
        <ele>873.5</ele>
        <time>2018-09-18T11:05:13Z</time>
      </trkpt>
      <trkpt lat="47.237351993098855" lon="9.203541995957494">
        <ele>874.94000000000005</ele>
        <time>2018-09-18T11:05:14Z</time>
      </trkpt>
      <trkpt lat="47.237417958676815" lon="9.203655989840627">
        <ele>876.38</ele>
        <time>2018-09-18T11:05:15Z</time>
      </trkpt>
      <trkpt lat="47.237465986981988" lon="9.203794039785862">
        <ele>877.82000000000005</ele>
        <time>2018-09-18T11:05:16Z</time>
      </trkpt>
      <trkpt lat="47.237490965053439" lon="9.203955978155136">
        <ele>878.77999999999997</ele>
        <time>2018-09-18T11:05:17Z</time>
      </trkpt>
      <trkpt lat="47.23748903721571" lon="9.20413501560688">
        <ele>879.74000000000001</ele>
        <time>2018-09-18T11:05:18Z</time>
      </trkpt>
      <trkpt lat="47.237474033609033" lon="9.204321010038257">
        <ele>880.71000000000004</ele>
        <time>2018-09-18T11:05:19Z</time>
      </trkpt>
      <trkpt lat="47.237458024173975" lon="9.204515973106027">
        <ele>881.66999999999996</ele>
        <time>2018-09-18T11:05:20Z</time>
      </trkpt>
      <trkpt lat="47.237440003082156" lon="9.204726023599505">
        <ele>882.63</ele>
        <time>2018-09-18T11:05:21Z</time>
      </trkpt>
      <trkpt lat="47.237422987818718" lon="9.204941019415855">
        <ele>884.07000000000005</ele>
        <time>2018-09-18T11:05:22Z</time>
      </trkpt>
      <trkpt lat="47.237299019470811" lon="9.206508016213775">
        <ele>892.24000000000001</ele>
        <time>2018-09-18T11:05:30Z</time>
      </trkpt>
      <trkpt lat="47.237222995609045" lon="9.208137961104512">
        <ele>892.72000000000003</ele>
        <time>2018-09-18T11:05:39Z</time>
      </trkpt>
      <trkpt lat="47.237257026135921" lon="9.208295959979296">
        <ele>892.72000000000003</ele>
        <time>2018-09-18T11:05:40Z</time>
      </trkpt>
      <trkpt lat="47.23731997422874" lon="9.20843199826777">
        <ele>892.72000000000003</ele>
        <time>2018-09-18T11:05:41Z</time>
      </trkpt>
      <trkpt lat="47.23740303888917" lon="9.208525959402323">
        <ele>892.72000000000003</ele>
        <time>2018-09-18T11:05:42Z</time>
      </trkpt>
      <trkpt lat="47.237499011680484" lon="9.20858102850616">
        <ele>892.72000000000003</ele>
        <time>2018-09-18T11:05:43Z</time>
      </trkpt>
      <trkpt lat="47.23759800195694" lon="9.20858203433454">
        <ele>893.20000000000005</ele>
        <time>2018-09-18T11:05:44Z</time>
      </trkpt>
      <trkpt lat="47.237691963091493" lon="9.208564013242722">
        <ele>893.20000000000005</ele>
        <time>2018-09-18T11:05:45Z</time>
      </trkpt>
      <trkpt lat="47.237786008045077" lon="9.208485977724195">
        <ele>892.72000000000003</ele>
        <time>2018-09-18T11:05:46Z</time>
      </trkpt>
      <trkpt lat="47.237846022471786" lon="9.208387993276119">
        <ele>892.24000000000001</ele>
        <time>2018-09-18T11:05:47Z</time>
      </trkpt>
      <trkpt lat="47.237891033291817" lon="9.20830300077796">
        <ele>891.75999999999999</ele>
        <time>2018-09-18T11:05:48Z</time>
      </trkpt>
      <trkpt lat="47.23791902884841" lon="9.208251032978296">
        <ele>891.27999999999997</ele>
        <time>2018-09-18T11:05:49Z</time>
      </trkpt>
      <trkpt lat="47.23791902884841" lon="9.208251032978296">
        <ele>890.32000000000005</ele>
        <time>2018-09-18T11:05:57Z</time>
      </trkpt>
      <trkpt lat="47.237966973334551" lon="9.208162017166615">
        <ele>886.47000000000003</ele>
        <time>2018-09-18T11:06:20Z</time>
      </trkpt>
      <trkpt lat="47.237993041053414" lon="9.208112983033061">
        <ele>886.95000000000005</ele>
        <time>2018-09-18T11:06:30Z</time>
      </trkpt>
      <trkpt lat="47.238198984414339" lon="9.207754991948605">
        <ele>887.90999999999997</ele>
        <time>2018-09-18T11:06:37Z</time>
      </trkpt>
      <trkpt lat="47.238323036581278" lon="9.207565980032086">
        <ele>887.42999999999995</ele>
        <time>2018-09-18T11:06:39Z</time>
      </trkpt>
      <trkpt lat="47.238396964967251" lon="9.207452991977334">
        <ele>887.42999999999995</ele>
        <time>2018-09-18T11:06:40Z</time>
      </trkpt>
      <trkpt lat="47.238476006314158" lon="9.207332041114569">
        <ele>886.95000000000005</ele>
        <time>2018-09-18T11:06:41Z</time>
      </trkpt>
      <trkpt lat="47.23856401629746" lon="9.207235984504223">
        <ele>886.47000000000003</ele>
        <time>2018-09-18T11:06:42Z</time>
      </trkpt>
      <trkpt lat="47.238674992695451" lon="9.207188962027431">
        <ele>885.99000000000001</ele>
        <time>2018-09-18T11:06:43Z</time>
      </trkpt>
      <trkpt lat="47.238784963265061" lon="9.20714202336967">
        <ele>885.99000000000001</ele>
        <time>2018-09-18T11:06:44Z</time>
      </trkpt>
      <trkpt lat="47.238898035138845" lon="9.207149986177683">
        <ele>885.50999999999999</ele>
        <time>2018-09-18T11:06:45Z</time>
      </trkpt>
      <trkpt lat="47.239013034850359" lon="9.207196002826095">
        <ele>885.50999999999999</ele>
        <time>2018-09-18T11:06:46Z</time>
      </trkpt>
      <trkpt lat="47.239119987934828" lon="9.207273032516241">
        <ele>885.02999999999997</ele>
        <time>2018-09-18T11:06:47Z</time>
      </trkpt>
      <trkpt lat="47.2392319701612" lon="9.207371016964316">
        <ele>885.02999999999997</ele>
        <time>2018-09-18T11:06:48Z</time>
      </trkpt>
      <trkpt lat="47.239350993186235" lon="9.207474030554295">
        <ele>885.02999999999997</ele>
        <time>2018-09-18T11:06:49Z</time>
      </trkpt>
      <trkpt lat="47.239895984530449" lon="9.208141984418035">
        <ele>883.59000000000003</ele>
        <time>2018-09-18T11:06:54Z</time>
      </trkpt>
      <trkpt lat="47.239985000342131" lon="9.208294032141566">
        <ele>883.11000000000001</ele>
        <time>2018-09-18T11:06:55Z</time>
      </trkpt>
      <trkpt lat="47.240073010325432" lon="9.208442978560925">
        <ele>882.63</ele>
        <time>2018-09-18T11:06:56Z</time>
      </trkpt>
      <trkpt lat="47.240137970075011" lon="9.208615981042385">
        <ele>882.63</ele>
        <time>2018-09-18T11:06:57Z</time>
      </trkpt>
      <trkpt lat="47.240177029743791" lon="9.208799041807652">
        <ele>882.14999999999998</ele>
        <time>2018-09-18T11:06:58Z</time>
      </trkpt>
      <trkpt lat="47.240191027522087" lon="9.208997022360563">
        <ele>882.14999999999998</ele>
        <time>2018-09-18T11:06:59Z</time>
      </trkpt>
      <trkpt lat="47.240203013643622" lon="9.209204977378249">
        <ele>881.66999999999996</ele>
        <time>2018-09-18T11:07:00Z</time>
      </trkpt>
      <trkpt lat="47.240182980895042" lon="9.209412010386586">
        <ele>881.66999999999996</ele>
        <time>2018-09-18T11:07:01Z</time>
      </trkpt>
      <trkpt lat="47.240164037793875" lon="9.209609990939498">
        <ele>881.66999999999996</ele>
        <time>2018-09-18T11:07:02Z</time>
      </trkpt>
      <trkpt lat="47.240134030580521" lon="9.211309002712369">
        <ele>880.71000000000004</ele>
        <time>2018-09-18T11:07:12Z</time>
      </trkpt>
      <trkpt lat="47.240181975066662" lon="9.212551033124328">
        <ele>882.14999999999998</ele>
        <time>2018-09-18T11:07:20Z</time>
      </trkpt>
      <trkpt lat="47.240202007815242" lon="9.213096024468541">
        <ele>882.63</ele>
        <time>2018-09-18T11:07:30Z</time>
      </trkpt>
      <trkpt lat="47.240220028907061" lon="9.213559962809086">
        <ele>883.11000000000001</ele>
        <time>2018-09-18T11:07:42Z</time>
      </trkpt>
      <trkpt lat="47.240222040563822" lon="9.213606985285878">
        <ele>882.63</ele>
        <time>2018-09-18T11:07:44Z</time>
      </trkpt>
      <trkpt lat="47.240222962573171" lon="9.2136300355196">
        <ele>883.11000000000001</ele>
        <time>2018-09-18T11:07:45Z</time>
      </trkpt>
      <trkpt lat="47.240222962573171" lon="9.2136300355196">
        <ele>883.11000000000001</ele>
        <time>2018-09-18T11:07:46Z</time>
      </trkpt>
      <trkpt lat="47.240222962573171" lon="9.2136300355196">
        <ele>883.11000000000001</ele>
        <time>2018-09-18T11:07:47Z</time>
      </trkpt>
      <trkpt lat="47.240222962573171" lon="9.2136300355196">
        <ele>882.63</ele>
        <time>2018-09-18T11:08:05Z</time>
      </trkpt>
      <trkpt lat="47.240244001150131" lon="9.213945027440786">
        <ele>882.14999999999998</ele>
        <time>2018-09-18T11:08:27Z</time>
      </trkpt>
      <trkpt lat="47.240308960899711" lon="9.214652962982655">
        <ele>880.71000000000004</ele>
        <time>2018-09-18T11:08:33Z</time>
      </trkpt>
      <trkpt lat="47.240356989204884" lon="9.214802999049425">
        <ele>880.22000000000003</ele>
        <time>2018-09-18T11:08:34Z</time>
      </trkpt>
      <trkpt lat="47.240601992234588" lon="9.215630041435361">
        <ele>878.77999999999997</ele>
        <time>2018-09-18T11:08:39Z</time>
      </trkpt>
      <trkpt lat="47.240625964477658" lon="9.215805977582932">
        <ele>878.29999999999995</ele>
        <time>2018-09-18T11:08:40Z</time>
      </trkpt>
      <trkpt lat="47.240624958649278" lon="9.215989960357547">
        <ele>878.29999999999995</ele>
        <time>2018-09-18T11:08:41Z</time>
      </trkpt>
      <trkpt lat="47.240613978356123" lon="9.216182995587587">
        <ele>877.82000000000005</ele>
        <time>2018-09-18T11:08:42Z</time>
      </trkpt>
      <trkpt lat="47.240601992234588" lon="9.21638298779726">
        <ele>877.34000000000003</ele>
        <time>2018-09-18T11:08:43Z</time>
      </trkpt>
      <trkpt lat="47.240567961707711" lon="9.216985981911421">
        <ele>876.38</ele>
        <time>2018-09-18T11:08:46Z</time>
      </trkpt>
      <trkpt lat="47.240581037476659" lon="9.217168958857656">
        <ele>876.38</ele>
        <time>2018-09-18T11:08:47Z</time>
      </trkpt>
      <trkpt lat="47.240621019154787" lon="9.217339027673006">
        <ele>876.86000000000001</ele>
        <time>2018-09-18T11:08:48Z</time>
      </trkpt>
      <trkpt lat="47.24069201387465" lon="9.217485962435603">
        <ele>877.34000000000003</ele>
        <time>2018-09-18T11:08:49Z</time>
      </trkpt>
      <trkpt lat="47.240764014422894" lon="9.217639015987515">
        <ele>878.29999999999995</ele>
        <time>2018-09-18T11:08:50Z</time>
      </trkpt>
      <trkpt lat="47.240841966122389" lon="9.217800032347441">
        <ele>878.77999999999997</ele>
        <time>2018-09-18T11:08:51Z</time>
      </trkpt>
      <trkpt lat="47.241404978558421" lon="9.219295028597117">
        <ele>884.07000000000005</ele>
        <time>2018-09-18T11:08:59Z</time>
      </trkpt>
      <trkpt lat="47.24191702902317" lon="9.221804989501834">
        <ele>890.79999999999995</ele>
        <time>2018-09-18T11:09:10Z</time>
      </trkpt>
      <trkpt lat="47.241962961852551" lon="9.222276974469423">
        <ele>892.72000000000003</ele>
        <time>2018-09-18T11:09:12Z</time>
      </trkpt>
      <trkpt lat="47.241962039843202" lon="9.223455972969532">
        <ele>898.97000000000003</ele>
        <time>2018-09-18T11:09:17Z</time>
      </trkpt>
      <trkpt lat="47.241899007931352" lon="9.223800972104073">
        <ele>901.85000000000002</ele>
        <time>2018-09-18T11:09:19Z</time>
      </trkpt>
      <trkpt lat="47.241851985454559" lon="9.223964000120759">
        <ele>903.29999999999995</ele>
        <time>2018-09-18T11:09:20Z</time>
      </trkpt>
      <trkpt lat="47.241771016269922" lon="9.224090985953808">
        <ele>904.25999999999999</ele>
        <time>2018-09-18T11:09:21Z</time>
      </trkpt>
      <trkpt lat="47.241689963266253" lon="9.224219983443618">
        <ele>905.22000000000003</ele>
        <time>2018-09-18T11:09:22Z</time>
      </trkpt>
      <trkpt lat="47.2416150290519" lon="9.224341018125415">
        <ele>906.17999999999995</ele>
        <time>2018-09-18T11:09:23Z</time>
      </trkpt>
      <trkpt lat="47.241556020453572" lon="9.224483007565141">
        <ele>906.65999999999997</ele>
        <time>2018-09-18T11:09:24Z</time>
      </trkpt>
      <trkpt lat="47.241506986320019" lon="9.224622985348105">
        <ele>907.62</ele>
        <time>2018-09-18T11:09:25Z</time>
      </trkpt>
      <trkpt lat="47.24148603156209" lon="9.224784001708031">
        <ele>908.58000000000004</ele>
        <time>2018-09-18T11:09:26Z</time>
      </trkpt>
      <trkpt lat="47.241469016298652" lon="9.22491098754108">
        <ele>909.53999999999996</ele>
        <time>2018-09-18T11:09:27Z</time>
      </trkpt>
      <trkpt lat="47.241503968834877" lon="9.225096981972456">
        <ele>910.50999999999999</ele>
        <time>2018-09-18T11:09:28Z</time>
      </trkpt>
      <trkpt lat="47.241535987704992" lon="9.225262021645904">
        <ele>911.47000000000003</ele>
        <time>2018-09-18T11:09:29Z</time>
      </trkpt>
      <trkpt lat="47.24157202988863" lon="9.22540501691401">
        <ele>912.42999999999995</ele>
        <time>2018-09-18T11:09:30Z</time>
      </trkpt>
      <trkpt lat="47.241627015173435" lon="9.225547006353736">
        <ele>913.87</ele>
        <time>2018-09-18T11:09:31Z</time>
      </trkpt>
      <trkpt lat="47.241684012115002" lon="9.225694024935365">
        <ele>914.83000000000004</ele>
        <time>2018-09-18T11:09:32Z</time>
      </trkpt>
      <trkpt lat="47.241755006834865" lon="9.225834002718329">
        <ele>915.78999999999996</ele>
        <time>2018-09-18T11:09:33Z</time>
      </trkpt>
      <trkpt lat="47.242016019299626" lon="9.226280003786087">
        <ele>918.67999999999995</ele>
        <time>2018-09-18T11:09:36Z</time>
      </trkpt>
      <trkpt lat="47.24297096952796" lon="9.227227997034788">
        <ele>924.45000000000005</ele>
        <time>2018-09-18T11:09:44Z</time>
      </trkpt>
      <trkpt lat="47.243069959804416" lon="9.227354982867837">
        <ele>924.92999999999995</ele>
        <time>2018-09-18T11:09:45Z</time>
      </trkpt>
      <trkpt lat="47.243139026686549" lon="9.227471994236112">
        <ele>925.40999999999997</ele>
        <time>2018-09-18T11:09:46Z</time>
      </trkpt>
      <trkpt lat="47.243184959515929" lon="9.227595962584019">
        <ele>925.40999999999997</ele>
        <time>2018-09-18T11:09:47Z</time>
      </trkpt>
      <trkpt lat="47.243219995871186" lon="9.227730995044112">
        <ele>925.40999999999997</ele>
        <time>2018-09-18T11:09:48Z</time>
      </trkpt>
      <trkpt lat="47.243246985599399" lon="9.22787700779736">
        <ele>925.40999999999997</ele>
        <time>2018-09-18T11:09:49Z</time>
      </trkpt>
      <trkpt lat="47.243227958679199" lon="9.228050010278821">
        <ele>925.40999999999997</ele>
        <time>2018-09-18T11:09:50Z</time>
      </trkpt>
      <trkpt lat="47.24320700392127" lon="9.228194011375308">
        <ele>924.92999999999995</ele>
        <time>2018-09-18T11:09:51Z</time>
      </trkpt>
      <trkpt lat="47.243155958130956" lon="9.228390986099839">
        <ele>924.45000000000005</ele>
        <time>2018-09-18T11:09:52Z</time>
      </trkpt>
      <trkpt lat="47.243107007816434" lon="9.228576980531216">
        <ele>924.45000000000005</ele>
        <time>2018-09-18T11:09:53Z</time>
      </trkpt>
      <trkpt lat="47.242747005075216" lon="9.230369031429291">
        <ele>924.92999999999995</ele>
        <time>2018-09-18T11:10:01Z</time>
      </trkpt>
      <trkpt lat="47.242738958448172" lon="9.230618979781866">
        <ele>924.92999999999995</ele>
        <time>2018-09-18T11:10:02Z</time>
      </trkpt>
      <trkpt lat="47.242748010903597" lon="9.230869011953473">
        <ele>924.92999999999995</ele>
        <time>2018-09-18T11:10:03Z</time>
      </trkpt>
      <trkpt lat="47.242974992841482" lon="9.234052961692214">
        <ele>923</ele>
        <time>2018-09-18T11:10:15Z</time>
      </trkpt>
      <trkpt lat="47.243287973105907" lon="9.237799001857638">
        <ele>931.16999999999996</ele>
        <time>2018-09-18T11:10:29Z</time>
      </trkpt>
      <trkpt lat="47.243517972528934" lon="9.238972971215844">
        <ele>930.69000000000005</ele>
        <time>2018-09-18T11:10:34Z</time>
      </trkpt>
      <trkpt lat="47.243518978357315" lon="9.239204982295632">
        <ele>930.69000000000005</ele>
        <time>2018-09-18T11:10:35Z</time>
      </trkpt>
      <trkpt lat="47.243502968922257" lon="9.239421989768744">
        <ele>930.69000000000005</ele>
        <time>2018-09-18T11:10:36Z</time>
      </trkpt>
      <trkpt lat="47.24346499890089" lon="9.240410970523953">
        <ele>930.21000000000004</ele>
        <time>2018-09-18T11:10:41Z</time>
      </trkpt>
      <trkpt lat="47.243486037477851" lon="9.240591013804078">
        <ele>930.21000000000004</ele>
        <time>2018-09-18T11:10:42Z</time>
      </trkpt>
      <trkpt lat="47.243509003892541" lon="9.240773990750313">
        <ele>930.21000000000004</ele>
        <time>2018-09-18T11:10:43Z</time>
      </trkpt>
      <trkpt lat="47.244012001901865" lon="9.242785982787609">
        <ele>932.62</ele>
        <time>2018-09-18T11:10:53Z</time>
      </trkpt>
      <trkpt lat="47.244089031592011" lon="9.242995027452707">
        <ele>933.10000000000002</ele>
        <time>2018-09-18T11:10:54Z</time>
      </trkpt>
      <trkpt lat="47.244189027696848" lon="9.243176998570561">
        <ele>933.10000000000002</ele>
        <time>2018-09-18T11:10:55Z</time>
      </trkpt>
      <trkpt lat="47.24471096880734" lon="9.244127003476024">
        <ele>933.10000000000002</ele>
        <time>2018-09-18T11:11:00Z</time>
      </trkpt>
      <trkpt lat="47.244790010154247" lon="9.244344010949135">
        <ele>932.62</ele>
        <time>2018-09-18T11:11:01Z</time>
      </trkpt>
      <trkpt lat="47.244852958247066" lon="9.244576022028923">
        <ele>932.62</ele>
        <time>2018-09-18T11:11:02Z</time>
      </trkpt>
      <trkpt lat="47.244910039007664" lon="9.244812978431583">
        <ele>932.13999999999999</ele>
        <time>2018-09-18T11:11:03Z</time>
      </trkpt>
      <trkpt lat="47.24494599737227" lon="9.24506401643157">
        <ele>932.62</ele>
        <time>2018-09-18T11:11:04Z</time>
      </trkpt>
      <trkpt lat="47.244982039555907" lon="9.245317988097668">
        <ele>932.62</ele>
        <time>2018-09-18T11:11:05Z</time>
      </trkpt>
      <trkpt lat="47.245362997055054" lon="9.248791029676795">
        <ele>936.46000000000004</ele>
        <time>2018-09-18T11:11:18Z</time>
      </trkpt>
      <trkpt lat="47.245416976511478" lon="9.249028991907835">
        <ele>936.94000000000005</ele>
        <time>2018-09-18T11:11:19Z</time>
      </trkpt>
      <trkpt lat="47.24548202008009" lon="9.249258991330862">
        <ele>936.94000000000005</ele>
        <time>2018-09-18T11:11:20Z</time>
      </trkpt>
      <trkpt lat="47.245752001181245" lon="9.250330030918121">
        <ele>938.86000000000001</ele>
        <time>2018-09-18T11:11:25Z</time>
      </trkpt>
      <trkpt lat="47.245768010616302" lon="9.250537985935807">
        <ele>939.35000000000002</ele>
        <time>2018-09-18T11:11:26Z</time>
      </trkpt>
      <trkpt lat="47.245801035314798" lon="9.25095196813345">
        <ele>939.83000000000004</ele>
        <time>2018-09-18T11:11:28Z</time>
      </trkpt>
      <trkpt lat="47.245773039758205" lon="9.251148020848632">
        <ele>940.30999999999995</ele>
        <time>2018-09-18T11:11:29Z</time>
      </trkpt>
      <trkpt lat="47.245735991746187" lon="9.251349018886685">
        <ele>940.78999999999996</ele>
        <time>2018-09-18T11:11:30Z</time>
      </trkpt>
      <trkpt lat="47.245696010068059" lon="9.251560997217894">
        <ele>940.78999999999996</ele>
        <time>2018-09-18T11:11:31Z</time>
      </trkpt>
      <trkpt lat="47.245621997863054" lon="9.251753026619554">
        <ele>940.78999999999996</ele>
        <time>2018-09-18T11:11:32Z</time>
      </trkpt>
      <trkpt lat="47.245543962344527" lon="9.251955030485988">
        <ele>941.26999999999998</ele>
        <time>2018-09-18T11:11:33Z</time>
      </trkpt>
      <trkpt lat="47.244846001267433" lon="9.253759989514947">
        <ele>941.26999999999998</ele>
        <time>2018-09-18T11:11:41Z</time>
      </trkpt>
      <trkpt lat="47.244300004094839" lon="9.255174016579986">
        <ele>943.19000000000005</ele>
        <time>2018-09-18T11:11:49Z</time>
      </trkpt>
      <trkpt lat="47.244264967739582" lon="9.255327992141247">
        <ele>943.19000000000005</ele>
        <time>2018-09-18T11:11:50Z</time>
      </trkpt>
      <trkpt lat="47.244232026860118" lon="9.255476016551256">
        <ele>943.66999999999996</ele>
        <time>2018-09-18T11:11:51Z</time>
      </trkpt>
      <trkpt lat="47.244225991889834" lon="9.255648013204336">
        <ele>943.66999999999996</ele>
        <time>2018-09-18T11:11:52Z</time>
      </trkpt>
      <trkpt lat="47.244245018810034" lon="9.255814980715513">
        <ele>944.14999999999998</ele>
        <time>2018-09-18T11:11:53Z</time>
      </trkpt>
      <trkpt lat="47.244263961911201" lon="9.255985971540213">
        <ele>944.63</ele>
        <time>2018-09-18T11:11:54Z</time>
      </trkpt>
      <trkpt lat="47.244286006316543" lon="9.256159979850054">
        <ele>945.11000000000001</ele>
        <time>2018-09-18T11:11:55Z</time>
      </trkpt>
      <trkpt lat="47.244397988542914" lon="9.256663983687758">
        <ele>946.55999999999995</ele>
        <time>2018-09-18T11:11:58Z</time>
      </trkpt>
      <trkpt lat="47.244435036554933" lon="9.256828017532826">
        <ele>947.03999999999996</ele>
        <time>2018-09-18T11:11:59Z</time>
      </trkpt>
      <trkpt lat="47.244470994919538" lon="9.256992973387241">
        <ele>947.51999999999998</ele>
        <time>2018-09-18T11:12:00Z</time>
      </trkpt>
      <trkpt lat="47.244638968259096" lon="9.257661011070013">
        <ele>949.91999999999996</ele>
        <time>2018-09-18T11:12:04Z</time>
      </trkpt>
      <trkpt lat="47.244685990735888" lon="9.257799983024597">
        <ele>950.39999999999998</ele>
        <time>2018-09-18T11:12:05Z</time>
      </trkpt>
      <trkpt lat="47.24473100155592" lon="9.25793400965631">
        <ele>950.88</ele>
        <time>2018-09-18T11:12:06Z</time>
      </trkpt>
      <trkpt lat="47.244789004325867" lon="9.258052026852965">
        <ele>951.36000000000001</ele>
        <time>2018-09-18T11:12:07Z</time>
      </trkpt>
      <trkpt lat="47.244857987388968" lon="9.25816803239286">
        <ele>951.84000000000003</ele>
        <time>2018-09-18T11:12:08Z</time>
      </trkpt>
      <trkpt lat="47.244929987937212" lon="9.258284037932754">
        <ele>952.32000000000005</ele>
        <time>2018-09-18T11:12:09Z</time>
      </trkpt>
      <trkpt lat="47.244996959343553" lon="9.258413035422564">
        <ele>952.79999999999995</ele>
        <time>2018-09-18T11:12:10Z</time>
      </trkpt>
      <trkpt lat="47.245054040104151" lon="9.258544966578484">
        <ele>952.79999999999995</ele>
        <time>2018-09-18T11:12:11Z</time>
      </trkpt>
      <trkpt lat="47.245110031217337" lon="9.258675975725055">
        <ele>953.27999999999997</ele>
        <time>2018-09-18T11:12:12Z</time>
      </trkpt>
      <trkpt lat="47.24516099318862" lon="9.258816037327051">
        <ele>953.76999999999998</ele>
        <time>2018-09-18T11:12:13Z</time>
      </trkpt>
      <trkpt lat="47.245169961825013" lon="9.258983004838228">
        <ele>953.76999999999998</ele>
        <time>2018-09-18T11:12:14Z</time>
      </trkpt>
      <trkpt lat="47.245180020108819" lon="9.259167993441224">
        <ele>954.25</ele>
        <time>2018-09-18T11:12:15Z</time>
      </trkpt>
      <trkpt lat="47.245191000401974" lon="9.259372008964419">
        <ele>954.25</ele>
        <time>2018-09-18T11:12:16Z</time>
      </trkpt>
      <trkpt lat="47.245220001786947" lon="9.260020013898611">
        <ele>956.16999999999996</ele>
        <time>2018-09-18T11:12:19Z</time>
      </trkpt>
      <trkpt lat="47.245183037593961" lon="9.260234003886581">
        <ele>956.64999999999998</ele>
        <time>2018-09-18T11:12:20Z</time>
      </trkpt>
      <trkpt lat="47.245145989581943" lon="9.260451011359692">
        <ele>957.61000000000001</ele>
        <time>2018-09-18T11:12:21Z</time>
      </trkpt>
      <trkpt lat="47.245109025388956" lon="9.260666007176042">
        <ele>958.57000000000005</ele>
        <time>2018-09-18T11:12:22Z</time>
      </trkpt>
      <trkpt lat="47.245040964335203" lon="9.260859964415431">
        <ele>959.52999999999997</ele>
        <time>2018-09-18T11:12:23Z</time>
      </trkpt>
      <trkpt lat="47.244953038170934" lon="9.261044031009078">
        <ele>960.49000000000001</ele>
        <time>2018-09-18T11:12:24Z</time>
      </trkpt>
      <trkpt lat="47.24488103762269" lon="9.261195994913578">
        <ele>961.94000000000005</ele>
        <time>2018-09-18T11:12:25Z</time>
      </trkpt>
      <trkpt lat="47.244755979627371" lon="9.261403027921915">
        <ele>963.38</ele>
        <time>2018-09-18T11:12:26Z</time>
      </trkpt>
      <trkpt lat="47.24464500322938" lon="9.261578964069486">
        <ele>965.29999999999995</ele>
        <time>2018-09-18T11:12:27Z</time>
      </trkpt>
      <trkpt lat="47.243453012779355" lon="9.263335978612304">
        <ele>986.92999999999995</ele>
        <time>2018-09-18T11:12:38Z</time>
      </trkpt>
      <trkpt lat="47.243357039988041" lon="9.263491965830326">
        <ele>995.10000000000002</ele>
        <time>2018-09-18T11:12:44Z</time>
      </trkpt>
      <trkpt lat="47.243329966440797" lon="9.263577964156866">
        <ele>999.42999999999995</ele>
        <time>2018-09-18T11:12:48Z</time>
      </trkpt>
      <trkpt lat="47.243329966440797" lon="9.263577964156866">
        <ele>1000.39</ele>
        <time>2018-09-18T11:13:05Z</time>
      </trkpt>
      <trkpt lat="47.243329966440797" lon="9.263577964156866">
        <ele>1002.3099999999999</ele>
        <time>2018-09-18T11:14:09Z</time>
      </trkpt>
      <trkpt lat="47.243329966440797" lon="9.263577964156866">
        <ele>1002.3099999999999</ele>
        <time>2018-09-18T11:15:06Z</time>
      </trkpt>
      <trkpt lat="47.243329966440797" lon="9.263577964156866">
        <ele>1002.3099999999999</ele>
        <time>2018-09-18T11:15:58Z</time>
      </trkpt>
      <trkpt lat="47.243329966440797" lon="9.263577964156866">
        <ele>1001.83</ele>
        <time>2018-09-18T11:16:53Z</time>
      </trkpt>
      <trkpt lat="47.243329966440797" lon="9.263577964156866">
        <ele>1001.83</ele>
        <time>2018-09-18T11:17:52Z</time>
      </trkpt>
      <trkpt lat="47.243304988369346" lon="9.263659017160535">
        <ele>1001.35</ele>
        <time>2018-09-18T11:18:43Z</time>
      </trkpt>
      <trkpt lat="47.243286967277527" lon="9.263715008273721">
        <ele>1001.35</ele>
        <time>2018-09-18T11:18:44Z</time>
      </trkpt>
      <trkpt lat="47.243265006691217" lon="9.263788014650345">
        <ele>1000.87</ele>
        <time>2018-09-18T11:18:45Z</time>
      </trkpt>
      <trkpt lat="47.243187977001071" lon="9.264739025384188">
        <ele>1000.39</ele>
        <time>2018-09-18T11:18:52Z</time>
      </trkpt>
      <trkpt lat="47.243113964796066" lon="9.265821967273951">
        <ele>1002.79</ele>
        <time>2018-09-18T11:18:58Z</time>
      </trkpt>
      <trkpt lat="47.242667963728309" lon="9.267914006486535">
        <ele>1014.33</ele>
        <time>2018-09-18T11:19:08Z</time>
      </trkpt>
      <trkpt lat="47.24241298623383" lon="9.269027961418033">
        <ele>1021.0599999999999</ele>
        <time>2018-09-18T11:19:13Z</time>
      </trkpt>
      <trkpt lat="47.242342997342348" lon="9.269184032455087">
        <ele>1022.5</ele>
        <time>2018-09-18T11:19:14Z</time>
      </trkpt>
      <trkpt lat="47.241995986551046" lon="9.270007973536849">
        <ele>1028.75</ele>
        <time>2018-09-18T11:19:19Z</time>
      </trkpt>
      <trkpt lat="47.241951981559396" lon="9.270186005160213">
        <ele>1030.1900000000001</ele>
        <time>2018-09-18T11:19:20Z</time>
      </trkpt>
      <trkpt lat="47.24191702902317" lon="9.270375017076731">
        <ele>1031.1500000000001</ele>
        <time>2018-09-18T11:19:21Z</time>
      </trkpt>
      <trkpt lat="47.241908982396126" lon="9.270571991801262">
        <ele>1032.1099999999999</ele>
        <time>2018-09-18T11:19:22Z</time>
      </trkpt>
      <trkpt lat="47.241901019588113" lon="9.270772989839315">
        <ele>1033.0699999999999</ele>
        <time>2018-09-18T11:19:23Z</time>
      </trkpt>
      <trkpt lat="47.241933960467577" lon="9.270980022847652">
        <ele>1033.55</ele>
        <time>2018-09-18T11:19:24Z</time>
      </trkpt>
      <trkpt lat="47.241984000429511" lon="9.271184960380197">
        <ele>1034.52</ele>
        <time>2018-09-18T11:19:25Z</time>
      </trkpt>
      <trkpt lat="47.242035968229175" lon="9.271400040015578">
        <ele>1035</ele>
        <time>2018-09-18T11:19:26Z</time>
      </trkpt>
      <trkpt lat="47.242118027061224" lon="9.271601960062981">
        <ele>1035.48</ele>
        <time>2018-09-18T11:19:27Z</time>
      </trkpt>
      <trkpt lat="47.242212994024158" lon="9.271807987242937">
        <ele>1036.4400000000001</ele>
        <time>2018-09-18T11:19:28Z</time>
      </trkpt>
      <trkpt lat="47.243040036410093" lon="9.273318992927671">
        <ele>1044.6099999999999</ele>
        <time>2018-09-18T11:19:36Z</time>
      </trkpt>
      <trkpt lat="47.243164004758" lon="9.273428963497281">
        <ele>1045.5699999999999</ele>
        <time>2018-09-18T11:19:37Z</time>
      </trkpt>
      <trkpt lat="47.244116021320224" lon="9.274567980319262">
        <ele>1056.6300000000001</ele>
        <time>2018-09-18T11:19:46Z</time>
      </trkpt>
      <trkpt lat="47.24486100487411" lon="9.275856027379632">
        <ele>1071.05</ele>
        <time>2018-09-18T11:19:55Z</time>
      </trkpt>
      <trkpt lat="47.245572963729501" lon="9.277323028072715">
        <ele>1085.95</ele>
        <time>2018-09-18T11:20:04Z</time>
      </trkpt>
      <trkpt lat="47.245850991457701" lon="9.278461039066315">
        <ele>1094.5999999999999</ele>
        <time>2018-09-18T11:20:10Z</time>
      </trkpt>
      <trkpt lat="47.245920980349183" lon="9.278637981042266">
        <ele>1096.52</ele>
        <time>2018-09-18T11:20:11Z</time>
      </trkpt>
      <trkpt lat="47.246293975040317" lon="9.279822008684278">
        <ele>1104.6900000000001</ele>
        <time>2018-09-18T11:20:17Z</time>
      </trkpt>
      <trkpt lat="47.246642997488379" lon="9.281175015494227">
        <ele>1112.8599999999999</ele>
        <time>2018-09-18T11:20:23Z</time>
      </trkpt>
      <trkpt lat="47.246735030785203" lon="9.281362015753985">
        <ele>1114.3099999999999</ele>
        <time>2018-09-18T11:20:24Z</time>
      </trkpt>
      <trkpt lat="47.246837038546801" lon="9.281536024063826">
        <ele>1115.75</ele>
        <time>2018-09-18T11:20:25Z</time>
      </trkpt>
      <trkpt lat="47.246938040480018" lon="9.281709026545286">
        <ele>1117.6700000000001</ele>
        <time>2018-09-18T11:20:26Z</time>
      </trkpt>
      <trkpt lat="47.247047005221248" lon="9.281878005713224">
        <ele>1119.1099999999999</ele>
        <time>2018-09-18T11:20:27Z</time>
      </trkpt>
      <trkpt lat="47.248149979859591" lon="9.283049963414669">
        <ele>1131.1300000000001</ele>
        <time>2018-09-18T11:20:35Z</time>
      </trkpt>
      <trkpt lat="47.24896403029561" lon="9.284783005714417">
        <ele>1143.1400000000001</ele>
        <time>2018-09-18T11:20:43Z</time>
      </trkpt>
      <trkpt lat="47.24902899004519" lon="9.284990960732102">
        <ele>1145.0699999999999</ele>
        <time>2018-09-18T11:20:44Z</time>
      </trkpt>
      <trkpt lat="47.249122029170394" lon="9.285403015092015">
        <ele>1148.4300000000001</ele>
        <time>2018-09-18T11:20:46Z</time>
      </trkpt>
      <trkpt lat="47.249157987535" lon="9.285613987594843">
        <ele>1149.8699999999999</ele>
        <time>2018-09-18T11:20:47Z</time>
      </trkpt>
      <trkpt lat="47.249274998903275" lon="9.28696297109127">
        <ele>1158.05</ele>
        <time>2018-09-18T11:20:53Z</time>
      </trkpt>
      <trkpt lat="47.249333001673222" lon="9.287334959954023">
        <ele>1159.97</ele>
        <time>2018-09-18T11:20:55Z</time>
      </trkpt>
      <trkpt lat="47.249411037191749" lon="9.287499999627471">
        <ele>1160.9300000000001</ele>
        <time>2018-09-18T11:20:56Z</time>
      </trkpt>
      <trkpt lat="47.249581022188067" lon="9.287858996540308">
        <ele>1162.3699999999999</ele>
        <time>2018-09-18T11:20:58Z</time>
      </trkpt>
      <trkpt lat="47.249971032142639" lon="9.288542037829757">
        <ele>1166.7</ele>
        <time>2018-09-18T11:21:02Z</time>
      </trkpt>
      <trkpt lat="47.250047978013754" lon="9.288716968148947">
        <ele>1167.6600000000001</ele>
        <time>2018-09-18T11:21:03Z</time>
      </trkpt>
      <trkpt lat="47.250095000490546" lon="9.288921989500523">
        <ele>1169.0999999999999</ele>
        <time>2018-09-18T11:21:04Z</time>
      </trkpt>
      <trkpt lat="47.2501440346241" lon="9.289134973660111">
        <ele>1170.54</ele>
        <time>2018-09-18T11:21:05Z</time>
      </trkpt>
      <trkpt lat="47.250192984938622" lon="9.289349969476461">
        <ele>1171.98</ele>
        <time>2018-09-18T11:21:06Z</time>
      </trkpt>
      <trkpt lat="47.250243024900556" lon="9.289564965292811">
        <ele>1173.9100000000001</ele>
        <time>2018-09-18T11:21:07Z</time>
      </trkpt>
      <trkpt lat="47.25031997077167" lon="9.289776021614671">
        <ele>1175.3499999999999</ele>
        <time>2018-09-18T11:21:08Z</time>
      </trkpt>
      <trkpt lat="47.250418961048126" lon="9.289975007995963">
        <ele>1176.79</ele>
        <time>2018-09-18T11:21:09Z</time>
      </trkpt>
      <trkpt lat="47.25053396075964" lon="9.2901820410043">
        <ele>1178.23</ele>
        <time>2018-09-18T11:21:10Z</time>
      </trkpt>
      <trkpt lat="47.25066103041172" lon="9.290379015728831">
        <ele>1180.1600000000001</ele>
        <time>2018-09-18T11:21:11Z</time>
      </trkpt>
      <trkpt lat="47.251476002857089" lon="9.291645018383861">
        <ele>1192.6500000000001</ele>
        <time>2018-09-18T11:21:18Z</time>
      </trkpt>
      <trkpt lat="47.252133982256055" lon="9.292514976114035">
        <ele>1200.8199999999999</ele>
        <time>2018-09-18T11:21:23Z</time>
      </trkpt>
      <trkpt lat="47.252579983323812" lon="9.292986961081624">
        <ele>1205.6300000000001</ele>
        <time>2018-09-18T11:21:26Z</time>
      </trkpt>
      <trkpt lat="47.253163028508425" lon="9.293844010680914">
        <ele>1214.28</ele>
        <time>2018-09-18T11:21:31Z</time>
      </trkpt>
      <trkpt lat="47.253237040713429" lon="9.294013995677233">
        <ele>1216.21</ele>
        <time>2018-09-18T11:21:32Z</time>
      </trkpt>
      <trkpt lat="47.253298982977867" lon="9.29418096318841">
        <ele>1218.1300000000001</ele>
        <time>2018-09-18T11:21:33Z</time>
      </trkpt>
      <trkpt lat="47.253323961049318" lon="9.294377015903592">
        <ele>1220.05</ele>
        <time>2018-09-18T11:21:34Z</time>
      </trkpt>
      <trkpt lat="47.253329996019602" lon="9.294571978971362">
        <ele>1221.49</ele>
        <time>2018-09-18T11:21:35Z</time>
      </trkpt>
      <trkpt lat="47.253297977149487" lon="9.294749004766345">
        <ele>1223.4200000000001</ele>
        <time>2018-09-18T11:21:36Z</time>
      </trkpt>
      <trkpt lat="47.253251038491726" lon="9.294941034168005">
        <ele>1225.3399999999999</ele>
        <time>2018-09-18T11:21:37Z</time>
      </trkpt>
      <trkpt lat="47.253170991316438" lon="9.295083023607731">
        <ele>1227.26</ele>
        <time>2018-09-18T11:21:38Z</time>
      </trkpt>
      <trkpt lat="47.25308901630342" lon="9.295229036360979">
        <ele>1229.1800000000001</ele>
        <time>2018-09-18T11:21:39Z</time>
      </trkpt>
      <trkpt lat="47.25300301797688" lon="9.29538200609386">
        <ele>1231.1099999999999</ele>
        <time>2018-09-18T11:21:40Z</time>
      </trkpt>
      <trkpt lat="47.252915007993579" lon="9.295537993311882">
        <ele>1233.03</ele>
        <time>2018-09-18T11:21:41Z</time>
      </trkpt>
      <trkpt lat="47.252860022708774" lon="9.295694986358285">
        <ele>1235.4300000000001</ele>
        <time>2018-09-18T11:21:42Z</time>
      </trkpt>
      <trkpt lat="47.252815011888742" lon="9.295883998274803">
        <ele>1237.3499999999999</ele>
        <time>2018-09-18T11:21:43Z</time>
      </trkpt>
      <trkpt lat="47.252777963876724" lon="9.296052977442741">
        <ele>1239.28</ele>
        <time>2018-09-18T11:21:44Z</time>
      </trkpt>
      <trkpt lat="47.252799002453685" lon="9.296254981309176">
        <ele>1241.2</ele>
        <time>2018-09-18T11:21:45Z</time>
      </trkpt>
      <trkpt lat="47.252820963039994" lon="9.296454973518848">
        <ele>1242.6400000000001</ele>
        <time>2018-09-18T11:21:46Z</time>
      </trkpt>
      <trkpt lat="47.252873014658689" lon="9.296658989042044">
        <ele>1244.0799999999999</ele>
        <time>2018-09-18T11:21:47Z</time>
      </trkpt>
      <trkpt lat="47.252924982458353" lon="9.296858981251717">
        <ele>1245.53</ele>
        <time>2018-09-18T11:21:48Z</time>
      </trkpt>
      <trkpt lat="47.253019027411938" lon="9.297228958457708">
        <ele>1248.4100000000001</ele>
        <time>2018-09-18T11:21:50Z</time>
      </trkpt>
      <trkpt lat="47.253052974119782" lon="9.297418976202607">
        <ele>1250.3299999999999</ele>
        <time>2018-09-18T11:21:51Z</time>
      </trkpt>
      <trkpt lat="47.253039982169867" lon="9.29759499616921">
        <ele>1251.77</ele>
        <time>2018-09-18T11:21:52Z</time>
      </trkpt>
      <trkpt lat="47.253027996048331" lon="9.297773027792573">
        <ele>1253.22</ele>
        <time>2018-09-18T11:21:53Z</time>
      </trkpt>
      <trkpt lat="47.253012992441654" lon="9.297974025830627">
        <ele>1254.1800000000001</ele>
        <time>2018-09-18T11:21:54Z</time>
      </trkpt>
      <trkpt lat="47.252959012985229" lon="9.298125989735127">
        <ele>1255.6199999999999</ele>
        <time>2018-09-18T11:21:55Z</time>
      </trkpt>
      <trkpt lat="47.252889024093747" lon="9.298296980559826">
        <ele>1257.0599999999999</ele>
        <time>2018-09-18T11:21:56Z</time>
      </trkpt>
      <trkpt lat="47.252791961655021" lon="9.298431007191539">
        <ele>1258.02</ele>
        <time>2018-09-18T11:21:57Z</time>
      </trkpt>
      <trkpt lat="47.252690037712455" lon="9.298569979146123">
        <ele>1259.46</ele>
        <time>2018-09-18T11:21:58Z</time>
      </trkpt>
      <trkpt lat="47.252261973917484" lon="9.299154030159116">
        <ele>1264.75</ele>
        <time>2018-09-18T11:22:02Z</time>
      </trkpt>
      <trkpt lat="47.252200031653047" lon="9.299359973520041">
        <ele>1266.1900000000001</ele>
        <time>2018-09-18T11:22:03Z</time>
      </trkpt>
      <trkpt lat="47.252141023054719" lon="9.299558959901333">
        <ele>1267.6400000000001</ele>
        <time>2018-09-18T11:22:04Z</time>
      </trkpt>
      <trkpt lat="47.252132976427674" lon="9.299783008173108">
        <ele>1268.5999999999999</ele>
        <time>2018-09-18T11:22:05Z</time>
      </trkpt>
      <trkpt lat="47.252132976427674" lon="9.300012001767755">
        <ele>1270.04</ele>
        <time>2018-09-18T11:22:06Z</time>
      </trkpt>
      <trkpt lat="47.252152003347874" lon="9.300246024504304">
        <ele>1271.48</ele>
        <time>2018-09-18T11:22:07Z</time>
      </trkpt>
      <trkpt lat="47.25218502804637" lon="9.30047401227057">
        <ele>1272.9200000000001</ele>
        <time>2018-09-18T11:22:08Z</time>
      </trkpt>
      <trkpt lat="47.252384014427662" lon="9.301773961633444">
        <ele>1283.98</ele>
        <time>2018-09-18T11:22:15Z</time>
      </trkpt>
      <trkpt lat="47.252418966963887" lon="9.301876975223422">
        <ele>1285.4200000000001</ele>
        <time>2018-09-18T11:22:16Z</time>
      </trkpt>
      <trkpt lat="47.252449980005622" lon="9.301971020177007">
        <ele>1286.3800000000001</ele>
        <time>2018-09-18T11:22:17Z</time>
      </trkpt>
      <trkpt lat="47.252534972503781" lon="9.30215198546648">
        <ele>1288.3</ele>
        <time>2018-09-18T11:22:19Z</time>
      </trkpt>
      <trkpt lat="47.252593981102109" lon="9.302256004884839">
        <ele>1289.75</ele>
        <time>2018-09-18T11:22:20Z</time>
      </trkpt>
      <trkpt lat="47.253189012408257" lon="9.303110036998987">
        <ele>1295.51</ele>
        <time>2018-09-18T11:22:27Z</time>
      </trkpt>
      <trkpt lat="47.253461005166173" lon="9.3035479914397">
        <ele>1296.96</ele>
        <time>2018-09-18T11:22:31Z</time>
      </trkpt>
      <trkpt lat="47.253507021814585" lon="9.303639018908143">
        <ele>1297.4400000000001</ele>
        <time>2018-09-18T11:22:32Z</time>
      </trkpt>
      <trkpt lat="47.253510961309075" lon="9.303648993372917">
        <ele>1297.4400000000001</ele>
        <time>2018-09-18T11:22:33Z</time>
      </trkpt>
      <trkpt lat="47.253510961309075" lon="9.303648993372917">
        <ele>1297.9200000000001</ele>
        <time>2018-09-18T11:22:34Z</time>
      </trkpt>
      <trkpt lat="47.253510961309075" lon="9.303648993372917">
        <ele>1299.8399999999999</ele>
        <time>2018-09-18T11:22:48Z</time>
      </trkpt>
      <trkpt lat="47.253510961309075" lon="9.303648993372917">
        <ele>1299.8399999999999</ele>
        <time>2018-09-18T11:23:02Z</time>
      </trkpt>
      <trkpt lat="47.253510961309075" lon="9.303648993372917">
        <ele>1299.3599999999999</ele>
        <time>2018-09-18T11:23:52Z</time>
      </trkpt>
      <trkpt lat="47.253542980179191" lon="9.303717976436019">
        <ele>1298.8800000000001</ele>
        <time>2018-09-18T11:24:48Z</time>
      </trkpt>
      <trkpt lat="47.253561001271009" lon="9.303757036104798">
        <ele>1299.3599999999999</ele>
        <time>2018-09-18T11:24:49Z</time>
      </trkpt>
      <trkpt lat="47.253593020141125" lon="9.303829036653042">
        <ele>1299.8399999999999</ele>
        <time>2018-09-18T11:24:50Z</time>
      </trkpt>
      <trkpt lat="47.253631995990872" lon="9.303914029151201">
        <ele>1299.3599999999999</ele>
        <time>2018-09-18T11:24:51Z</time>
      </trkpt>
      <trkpt lat="47.253671977669001" lon="9.304002961143851">
        <ele>1299.3599999999999</ele>
        <time>2018-09-18T11:24:52Z</time>
      </trkpt>
      <trkpt lat="47.254004990682006" lon="9.304785998538137">
        <ele>1296.96</ele>
        <time>2018-09-18T11:25:01Z</time>
      </trkpt>
      <trkpt lat="47.254063999280334" lon="9.304867973551154">
        <ele>1296.96</ele>
        <time>2018-09-18T11:25:02Z</time>
      </trkpt>
      <trkpt lat="47.254411010071635" lon="9.305242979899049">
        <ele>1295.03</ele>
        <time>2018-09-18T11:25:07Z</time>
      </trkpt>
      <trkpt lat="47.255284991115332" lon="9.306084020063281">
        <ele>1288.3</ele>
        <time>2018-09-18T11:25:17Z</time>
      </trkpt>
      <trkpt lat="47.25536503829062" lon="9.306178987026215">
        <ele>1287.3399999999999</ele>
        <time>2018-09-18T11:25:18Z</time>
      </trkpt>
      <trkpt lat="47.255433015525341" lon="9.306302033364773">
        <ele>1286.8599999999999</ele>
        <time>2018-09-18T11:25:19Z</time>
      </trkpt>
      <trkpt lat="47.255490012466908" lon="9.306435976177454">
        <ele>1285.9000000000001</ele>
        <time>2018-09-18T11:25:20Z</time>
      </trkpt>
      <trkpt lat="47.255549021065235" lon="9.306573020294309">
        <ele>1284.9400000000001</ele>
        <time>2018-09-18T11:25:21Z</time>
      </trkpt>
      <trkpt lat="47.255595959722996" lon="9.306717021390796">
        <ele>1283.98</ele>
        <time>2018-09-18T11:25:22Z</time>
      </trkpt>
      <trkpt lat="47.255622027441859" lon="9.306878037750721">
        <ele>1283.02</ele>
        <time>2018-09-18T11:25:23Z</time>
      </trkpt>
      <trkpt lat="47.255648011341691" lon="9.307040981948376">
        <ele>1282.0599999999999</ele>
        <time>2018-09-18T11:25:24Z</time>
      </trkpt>
      <trkpt lat="47.255672989413142" lon="9.307203004136682">
        <ele>1281.5699999999999</ele>
        <time>2018-09-18T11:25:25Z</time>
      </trkpt>
      <trkpt lat="47.255765022709966" lon="9.307784037664533">
        <ele>1278.6900000000001</ele>
        <time>2018-09-18T11:25:29Z</time>
      </trkpt>
      <trkpt lat="47.2557960357517" lon="9.30790901184082">
        <ele>1278.21</ele>
        <time>2018-09-18T11:25:30Z</time>
      </trkpt>
      <trkpt lat="47.25586099550128" lon="9.308003978803754">
        <ele>1278.21</ele>
        <time>2018-09-18T11:25:31Z</time>
      </trkpt>
      <trkpt lat="47.25592796690762" lon="9.308101963251829">
        <ele>1277.73</ele>
        <time>2018-09-18T11:25:32Z</time>
      </trkpt>
      <trkpt lat="47.255996027961373" lon="9.308201959356666">
        <ele>1277.25</ele>
        <time>2018-09-18T11:25:33Z</time>
      </trkpt>
      <trkpt lat="47.256059981882572" lon="9.30829499848187">
        <ele>1277.25</ele>
        <time>2018-09-18T11:25:34Z</time>
      </trkpt>
      <trkpt lat="47.256315965205431" lon="9.308516029268503">
        <ele>1276.77</ele>
        <time>2018-09-18T11:25:37Z</time>
      </trkpt>
      <trkpt lat="47.256404981017113" lon="9.308592975139618">
        <ele>1276.29</ele>
        <time>2018-09-18T11:25:38Z</time>
      </trkpt>
      <trkpt lat="47.256501037627459" lon="9.308676039800048">
        <ele>1275.8099999999999</ele>
        <time>2018-09-18T11:25:39Z</time>
      </trkpt>
      <trkpt lat="47.25749596953392" lon="9.309093961492181">
        <ele>1268.5999999999999</ele>
        <time>2018-09-18T11:25:46Z</time>
      </trkpt>
      <trkpt lat="47.258182028308511" lon="9.309429991990328">
        <ele>1263.3099999999999</ele>
        <time>2018-09-18T11:25:50Z</time>
      </trkpt>
      <trkpt lat="47.258322006091475" lon="9.309569969773293">
        <ele>1262.3499999999999</ele>
        <time>2018-09-18T11:25:51Z</time>
      </trkpt>
      <trkpt lat="47.258571032434702" lon="9.309818996116519">
        <ele>1259.9400000000001</ele>
        <time>2018-09-18T11:25:53Z</time>
      </trkpt>
      <trkpt lat="47.258730037137866" lon="9.309869036078453">
        <ele>1258.98</ele>
        <time>2018-09-18T11:25:54Z</time>
      </trkpt>
      <trkpt lat="47.258885018527508" lon="9.309918992221355">
        <ele>1258.02</ele>
        <time>2018-09-18T11:25:55Z</time>
      </trkpt>
      <trkpt lat="47.259314004331827" lon="9.30996903218329">
        <ele>1255.6199999999999</ele>
        <time>2018-09-18T11:25:58Z</time>
      </trkpt>
      <trkpt lat="47.259432021528482" lon="9.309932989999652">
        <ele>1254.6600000000001</ele>
        <time>2018-09-18T11:25:59Z</time>
      </trkpt>
      <trkpt lat="47.259548027068377" lon="9.309839028865099">
        <ele>1254.1800000000001</ele>
        <time>2018-09-18T11:26:00Z</time>
      </trkpt>
      <trkpt lat="47.260197037830949" lon="9.309202004224062">
        <ele>1249.8499999999999</ele>
        <time>2018-09-18T11:26:05Z</time>
      </trkpt>
      <trkpt lat="47.260268032550812" lon="9.30900402367115">
        <ele>1249.8499999999999</ele>
        <time>2018-09-18T11:26:06Z</time>
      </trkpt>
      <trkpt lat="47.260342966765165" lon="9.308787016198039">
        <ele>1249.3699999999999</ele>
        <time>2018-09-18T11:26:07Z</time>
      </trkpt>
      <trkpt lat="47.260869015008211" lon="9.3069620244205">
        <ele>1243.1199999999999</ele>
        <time>2018-09-18T11:26:14Z</time>
      </trkpt>
      <trkpt lat="47.261077975854278" lon="9.306227015331388">
        <ele>1241.2</ele>
        <time>2018-09-18T11:26:17Z</time>
      </trkpt>
      <trkpt lat="47.26119096390903" lon="9.306040015071631">
        <ele>1240.24</ele>
        <time>2018-09-18T11:26:18Z</time>
      </trkpt>
      <trkpt lat="47.261309986934066" lon="9.305852008983493">
        <ele>1239.76</ele>
        <time>2018-09-18T11:26:19Z</time>
      </trkpt>
      <trkpt lat="47.261869981884956" lon="9.305255971848965">
        <ele>1237.8299999999999</ele>
        <time>2018-09-18T11:26:23Z</time>
      </trkpt>
      <trkpt lat="47.262023035436869" lon="9.305139966309071">
        <ele>1237.3499999999999</ele>
        <time>2018-09-18T11:26:24Z</time>
      </trkpt>
      <trkpt lat="47.263774015009403" lon="9.303889973089099">
        <ele>1232.55</ele>
        <time>2018-09-18T11:26:35Z</time>
      </trkpt>
      <trkpt lat="47.26516398601234" lon="9.302284000441432">
        <ele>1231.5899999999999</ele>
        <time>2018-09-18T11:26:46Z</time>
      </trkpt>
      <trkpt lat="47.265648962929845" lon="9.301796006038785">
        <ele>1232.55</ele>
        <time>2018-09-18T11:26:50Z</time>
      </trkpt>
      <trkpt lat="47.26576597429812" lon="9.301703972741962">
        <ele>1233.51</ele>
        <time>2018-09-18T11:26:51Z</time>
      </trkpt>
      <trkpt lat="47.265897989273071" lon="9.301687041297555">
        <ele>1233.99</ele>
        <time>2018-09-18T11:26:52Z</time>
      </trkpt>
      <trkpt lat="47.266036039218307" lon="9.301668014377356">
        <ele>1233.99</ele>
        <time>2018-09-18T11:26:53Z</time>
      </trkpt>
      <trkpt lat="47.266176017001271" lon="9.301648987457156">
        <ele>1234.47</ele>
        <time>2018-09-18T11:26:54Z</time>
      </trkpt>
      <trkpt lat="47.266312977299094" lon="9.301630966365337">
        <ele>1234.47</ele>
        <time>2018-09-18T11:26:55Z</time>
      </trkpt>
      <trkpt lat="47.266439041122794" lon="9.301581010222435">
        <ele>1233.99</ele>
        <time>2018-09-18T11:26:56Z</time>
      </trkpt>
      <trkpt lat="47.266531996428967" lon="9.301514960825443">
        <ele>1233.51</ele>
        <time>2018-09-18T11:26:57Z</time>
      </trkpt>
      <trkpt lat="47.266654036939144" lon="9.301360985264182">
        <ele>1232.55</ele>
        <time>2018-09-18T11:26:58Z</time>
      </trkpt>
      <trkpt lat="47.266750009730458" lon="9.301202986389399">
        <ele>1231.5899999999999</ele>
        <time>2018-09-18T11:26:59Z</time>
      </trkpt>
      <trkpt lat="47.26684195920825" lon="9.301011962816119">
        <ele>1230.1400000000001</ele>
        <time>2018-09-18T11:27:00Z</time>
      </trkpt>
      <trkpt lat="47.26748401299119" lon="9.299392998218536">
        <ele>1216.21</ele>
        <time>2018-09-18T11:27:07Z</time>
      </trkpt>
      <trkpt lat="47.268084995448589" lon="9.297663979232311">
        <ele>1203.71</ele>
        <time>2018-09-18T11:27:16Z</time>
      </trkpt>
      <trkpt lat="47.268124977126718" lon="9.297546967864037">
        <ele>1203.23</ele>
        <time>2018-09-18T11:27:17Z</time>
      </trkpt>
      <trkpt lat="47.268131012097001" lon="9.29746700450778">
        <ele>1201.79</ele>
        <time>2018-09-18T11:27:18Z</time>
      </trkpt>
      <trkpt lat="47.26810896769166" lon="9.297388968989253">
        <ele>1200.8199999999999</ele>
        <time>2018-09-18T11:27:19Z</time>
      </trkpt>
      <trkpt lat="47.268097987398505" lon="9.297352004796267">
        <ele>1199.8599999999999</ele>
        <time>2018-09-18T11:27:20Z</time>
      </trkpt>
      <trkpt lat="47.268046019598842" lon="9.297352004796267">
        <ele>1198.9000000000001</ele>
        <time>2018-09-18T11:27:21Z</time>
      </trkpt>
      <trkpt lat="47.267984999343753" lon="9.297352004796267">
        <ele>1198.4200000000001</ele>
        <time>2018-09-18T11:27:22Z</time>
      </trkpt>
      <trkpt lat="47.267960021272302" lon="9.297389974817634">
        <ele>1197.46</ele>
        <time>2018-09-18T11:27:23Z</time>
      </trkpt>
      <trkpt lat="47.267935965210199" lon="9.29748703725636">
        <ele>1196.98</ele>
        <time>2018-09-18T11:27:24Z</time>
      </trkpt>
      <trkpt lat="47.267908975481987" lon="9.297593990340829">
        <ele>1196.5</ele>
        <time>2018-09-18T11:27:25Z</time>
      </trkpt>
      <trkpt lat="47.267877962440252" lon="9.297715025022626">
        <ele>1196.02</ele>
        <time>2018-09-18T11:27:26Z</time>
      </trkpt>
      <trkpt lat="47.267824988812208" lon="9.297845028340817">
        <ele>1195.54</ele>
        <time>2018-09-18T11:27:27Z</time>
      </trkpt>
      <trkpt lat="47.267735973000526" lon="9.297968996688724">
        <ele>1195.0599999999999</ele>
        <time>2018-09-18T11:27:28Z</time>
      </trkpt>
      <trkpt lat="47.267629019916058" lon="9.29806899279356">
        <ele>1194.5799999999999</ele>
        <time>2018-09-18T11:27:29Z</time>
      </trkpt>
      <trkpt lat="47.267515026032925" lon="9.29817502386868">
        <ele>1194.0899999999999</ele>
        <time>2018-09-18T11:27:30Z</time>
      </trkpt>
      <trkpt lat="47.266651019454002" lon="9.298958983272314">
        <ele>1185.9200000000001</ele>
        <time>2018-09-18T11:27:38Z</time>
      </trkpt>
      <trkpt lat="47.266569966450334" lon="9.298983039334416">
        <ele>1184.48</ele>
        <time>2018-09-18T11:27:39Z</time>
      </trkpt>
      <trkpt lat="47.266509030014277" lon="9.298983039334416">
        <ele>1183.04</ele>
        <time>2018-09-18T11:27:40Z</time>
      </trkpt>
      <trkpt lat="47.266462007537484" lon="9.298941968008876">
        <ele>1181.5999999999999</ele>
        <time>2018-09-18T11:27:41Z</time>
      </trkpt>
      <trkpt lat="47.266445998102427" lon="9.298854963853955">
        <ele>1179.6700000000001</ele>
        <time>2018-09-18T11:27:42Z</time>
      </trkpt>
      <trkpt lat="47.266471982002258" lon="9.298741975799203">
        <ele>1178.23</ele>
        <time>2018-09-18T11:27:43Z</time>
      </trkpt>
      <trkpt lat="47.26654096506536" lon="9.298672992736101">
        <ele>1176.3099999999999</ele>
        <time>2018-09-18T11:27:44Z</time>
      </trkpt>
      <trkpt lat="47.266627969220281" lon="9.298585988581181">
        <ele>1174.8699999999999</ele>
        <time>2018-09-18T11:27:45Z</time>
      </trkpt>
      <trkpt lat="47.266708016395569" lon="9.298474006354809">
        <ele>1173.9100000000001</ele>
        <time>2018-09-18T11:27:46Z</time>
      </trkpt>
      <trkpt lat="47.266784962266684" lon="9.298308966681361">
        <ele>1172.95</ele>
        <time>2018-09-18T11:27:47Z</time>
      </trkpt>
      <trkpt lat="47.266862997785211" lon="9.298124983906746">
        <ele>1171.98</ele>
        <time>2018-09-18T11:27:48Z</time>
      </trkpt>
      <trkpt lat="47.267339006066322" lon="9.296928970143199">
        <ele>1163.3299999999999</ele>
        <time>2018-09-18T11:27:55Z</time>
      </trkpt>
      <trkpt lat="47.2673349827528" lon="9.296830985695124">
        <ele>1162.3699999999999</ele>
        <time>2018-09-18T11:27:56Z</time>
      </trkpt>
      <trkpt lat="47.267317967489362" lon="9.296766025945544">
        <ele>1161.4100000000001</ele>
        <time>2018-09-18T11:27:57Z</time>
      </trkpt>
      <trkpt lat="47.267261976376176" lon="9.296722020953894">
        <ele>1160.9300000000001</ele>
        <time>2018-09-18T11:27:58Z</time>
      </trkpt>
      <trkpt lat="47.267214031890035" lon="9.296690002083778">
        <ele>1159.97</ele>
        <time>2018-09-18T11:27:59Z</time>
      </trkpt>
      <trkpt lat="47.267154017463326" lon="9.296738030388951">
        <ele>1159.49</ele>
        <time>2018-09-18T11:28:00Z</time>
      </trkpt>
      <trkpt lat="47.267098026350141" lon="9.296814976260066">
        <ele>1158.53</ele>
        <time>2018-09-18T11:28:01Z</time>
      </trkpt>
      <trkpt lat="47.267056033015251" lon="9.296946991235018">
        <ele>1158.05</ele>
        <time>2018-09-18T11:28:02Z</time>
      </trkpt>
      <trkpt lat="47.267010016366839" lon="9.297093003988266">
        <ele>1157.0799999999999</ele>
        <time>2018-09-18T11:28:03Z</time>
      </trkpt>
      <trkpt lat="47.266941033303738" lon="9.297233987599611">
        <ele>1156.1199999999999</ele>
        <time>2018-09-18T11:28:04Z</time>
      </trkpt>
      <trkpt lat="47.266831984743476" lon="9.297372959554195">
        <ele>1155.1600000000001</ele>
        <time>2018-09-18T11:28:05Z</time>
      </trkpt>
      <trkpt lat="47.266723020002246" lon="9.297416964545846">
        <ele>1154.2</ele>
        <time>2018-09-18T11:28:06Z</time>
      </trkpt>
      <trkpt lat="47.266602991148829" lon="9.297464992851019">
        <ele>1153.24</ele>
        <time>2018-09-18T11:28:07Z</time>
      </trkpt>
      <trkpt lat="47.265401026234031" lon="9.297943012788892">
        <ele>1142.6600000000001</ele>
        <time>2018-09-18T11:28:16Z</time>
      </trkpt>
      <trkpt lat="47.263826988637447" lon="9.298750022426248">
        <ele>1126.3199999999999</ele>
        <time>2018-09-18T11:28:27Z</time>
      </trkpt>
      <trkpt lat="47.263390040025115" lon="9.299012962728739">
        <ele>1121.52</ele>
        <time>2018-09-18T11:28:31Z</time>
      </trkpt>
      <trkpt lat="47.263293983414769" lon="9.299040036275983">
        <ele>1120.55</ele>
        <time>2018-09-18T11:28:32Z</time>
      </trkpt>
      <trkpt lat="47.263205973431468" lon="9.2990149743855">
        <ele>1119.1099999999999</ele>
        <time>2018-09-18T11:28:33Z</time>
      </trkpt>
      <trkpt lat="47.263128021731973" lon="9.298975998535752">
        <ele>1118.1500000000001</ele>
        <time>2018-09-18T11:28:34Z</time>
      </trkpt>
      <trkpt lat="47.263074964284897" lon="9.298890000209212">
        <ele>1117.1900000000001</ele>
        <time>2018-09-18T11:28:35Z</time>
      </trkpt>
      <trkpt lat="47.263055015355349" lon="9.298778017982841">
        <ele>1115.75</ele>
        <time>2018-09-18T11:28:36Z</time>
      </trkpt>
      <trkpt lat="47.263055015355349" lon="9.298654971644282">
        <ele>1115.27</ele>
        <time>2018-09-18T11:28:37Z</time>
      </trkpt>
      <trkpt lat="47.263088040053844" lon="9.298511976376176">
        <ele>1113.8199999999999</ele>
        <time>2018-09-18T11:28:38Z</time>
      </trkpt>
      <trkpt lat="47.26314403116703" lon="9.298370992764831">
        <ele>1112.8599999999999</ele>
        <time>2018-09-18T11:28:39Z</time>
      </trkpt>
      <trkpt lat="47.263203961774707" lon="9.298216011375189">
        <ele>1111.4200000000001</ele>
        <time>2018-09-18T11:28:40Z</time>
      </trkpt>
      <trkpt lat="47.26325299590826" lon="9.298048038035631">
        <ele>1109.98</ele>
        <time>2018-09-18T11:28:41Z</time>
      </trkpt>
      <trkpt lat="47.263267999514937" lon="9.297859026119113">
        <ele>1108.54</ele>
        <time>2018-09-18T11:28:42Z</time>
      </trkpt>
      <trkpt lat="47.263284008949995" lon="9.29766196757555">
        <ele>1106.6099999999999</ele>
        <time>2018-09-18T11:28:43Z</time>
      </trkpt>
      <trkpt lat="47.263332959264517" lon="9.297473961487413">
        <ele>1104.6900000000001</ele>
        <time>2018-09-18T11:28:44Z</time>
      </trkpt>
      <trkpt lat="47.263396997004747" lon="9.297332977876067">
        <ele>1102.77</ele>
        <time>2018-09-18T11:28:45Z</time>
      </trkpt>
      <trkpt lat="47.263501016423106" lon="9.297241028398275">
        <ele>1100.8499999999999</ele>
        <time>2018-09-18T11:28:46Z</time>
      </trkpt>
      <trkpt lat="47.263619033619761" lon="9.297159975394607">
        <ele>1098.9200000000001</ele>
        <time>2018-09-18T11:28:47Z</time>
      </trkpt>
      <trkpt lat="47.263753982260823" lon="9.297104990109801">
        <ele>1097</ele>
        <time>2018-09-18T11:28:48Z</time>
      </trkpt>
      <trkpt lat="47.263889014720917" lon="9.297048998996615">
        <ele>1095.0799999999999</ele>
        <time>2018-09-18T11:28:49Z</time>
      </trkpt>
      <trkpt lat="47.264011977240443" lon="9.296936010941863">
        <ele>1093.1600000000001</ele>
        <time>2018-09-18T11:28:50Z</time>
      </trkpt>
      <trkpt lat="47.264126976951957" lon="9.296796033158898">
        <ele>1091.71</ele>
        <time>2018-09-18T11:28:51Z</time>
      </trkpt>
      <trkpt lat="47.264339039102197" lon="9.296479029580951">
        <ele>1087.8699999999999</ele>
        <time>2018-09-18T11:28:53Z</time>
      </trkpt>
      <trkpt lat="47.264463007450104" lon="9.29637199267745">
        <ele>1086.4300000000001</ele>
        <time>2018-09-18T11:28:54Z</time>
      </trkpt>
      <trkpt lat="47.264686971902847" lon="9.2961569968611">
        <ele>1082.5799999999999</ele>
        <time>2018-09-18T11:28:56Z</time>
      </trkpt>
      <trkpt lat="47.264780011028051" lon="9.296046020463109">
        <ele>1081.1400000000001</ele>
        <time>2018-09-18T11:28:57Z</time>
      </trkpt>
      <trkpt lat="47.26484103128314" lon="9.295916017144918">
        <ele>1079.7</ele>
        <time>2018-09-18T11:28:58Z</time>
      </trkpt>
      <trkpt lat="47.264854023233056" lon="9.295758018270135">
        <ele>1077.78</ele>
        <time>2018-09-18T11:28:59Z</time>
      </trkpt>
      <trkpt lat="47.264867015182972" lon="9.295600019395351">
        <ele>1076.3299999999999</ele>
        <time>2018-09-18T11:29:00Z</time>
      </trkpt>
      <trkpt lat="47.264879001304507" lon="9.295449983328581">
        <ele>1074.8900000000001</ele>
        <time>2018-09-18T11:29:01Z</time>
      </trkpt>
      <trkpt lat="47.264930969104171" lon="9.295327020809054">
        <ele>1072.97</ele>
        <time>2018-09-18T11:29:02Z</time>
      </trkpt>
      <trkpt lat="47.264997018501163" lon="9.295230964198709">
        <ele>1071.53</ele>
        <time>2018-09-18T11:29:03Z</time>
      </trkpt>
      <trkpt lat="47.265095002949238" lon="9.295176984742284">
        <ele>1069.5999999999999</ele>
        <time>2018-09-18T11:29:04Z</time>
      </trkpt>
      <trkpt lat="47.265217965468764" lon="9.295132979750633">
        <ele>1068.1600000000001</ele>
        <time>2018-09-18T11:29:05Z</time>
      </trkpt>
      <trkpt lat="47.265358027070761" lon="9.295112024992704">
        <ele>1066.72</ele>
        <time>2018-09-18T11:29:06Z</time>
      </trkpt>
      <trkpt lat="47.265653992071748" lon="9.295068020001054">
        <ele>1063.3599999999999</ele>
        <time>2018-09-18T11:29:08Z</time>
      </trkpt>
      <trkpt lat="47.265796987339854" lon="9.295034995302558">
        <ele>1061.9100000000001</ele>
        <time>2018-09-18T11:29:09Z</time>
      </trkpt>
      <trkpt lat="47.265939982607961" lon="9.294984033331275">
        <ele>1060.47</ele>
        <time>2018-09-18T11:29:10Z</time>
      </trkpt>
      <trkpt lat="47.266076020896435" lon="9.294902980327606">
        <ele>1059.03</ele>
        <time>2018-09-18T11:29:11Z</time>
      </trkpt>
      <trkpt lat="47.26619596593082" lon="9.294758979231119">
        <ele>1057.5899999999999</ele>
        <time>2018-09-18T11:29:12Z</time>
      </trkpt>
      <trkpt lat="47.266312977299094" lon="9.294597040861845">
        <ele>1056.1500000000001</ele>
        <time>2018-09-18T11:29:13Z</time>
      </trkpt>
      <trkpt lat="47.266425965353847" lon="9.294421020895243">
        <ele>1054.7</ele>
        <time>2018-09-18T11:29:14Z</time>
      </trkpt>
      <trkpt lat="47.266998030245304" lon="9.293531030416489">
        <ele>1047.49</ele>
        <time>2018-09-18T11:29:19Z</time>
      </trkpt>
      <trkpt lat="47.267139013856649" lon="9.293373031541705">
        <ele>1046.05</ele>
        <time>2018-09-18T11:29:20Z</time>
      </trkpt>
      <trkpt lat="47.268420020118356" lon="9.291879963129759">
        <ele>1026.8299999999999</ele>
        <time>2018-09-18T11:29:29Z</time>
      </trkpt>
      <trkpt lat="47.268588999286294" lon="9.291745014488697">
        <ele>1024.4200000000001</ele>
        <time>2018-09-18T11:29:30Z</time>
      </trkpt>
      <trkpt lat="47.269813008606434" lon="9.2909349873662">
        <ele>1009.52</ele>
        <time>2018-09-18T11:29:37Z</time>
      </trkpt>
      <trkpt lat="47.269957009702921" lon="9.290770031511784">
        <ele>1007.6</ele>
        <time>2018-09-18T11:29:38Z</time>
      </trkpt>
      <trkpt lat="47.270623035728931" lon="9.290041979402304">
        <ele>998.47000000000003</ele>
        <time>2018-09-18T11:29:43Z</time>
      </trkpt>
      <trkpt lat="47.270734012126923" lon="9.289967967197299">
        <ele>996.05999999999995</ele>
        <time>2018-09-18T11:29:44Z</time>
      </trkpt>
      <trkpt lat="47.270833002403378" lon="9.289913987740874">
        <ele>994.13999999999999</ele>
        <time>2018-09-18T11:29:45Z</time>
      </trkpt>
      <trkpt lat="47.270942972972989" lon="9.289884986355901">
        <ele>992.22000000000003</ele>
        <time>2018-09-18T11:29:46Z</time>
      </trkpt>
      <trkpt lat="47.271063001826406" lon="9.289913987740874">
        <ele>990.29999999999995</ele>
        <time>2018-09-18T11:29:47Z</time>
      </trkpt>
      <trkpt lat="47.271170038729906" lon="9.289980959147215">
        <ele>988.37</ele>
        <time>2018-09-18T11:29:48Z</time>
      </trkpt>
      <trkpt lat="47.271281015127897" lon="9.290050026029348">
        <ele>986.92999999999995</ele>
        <time>2018-09-18T11:29:49Z</time>
      </trkpt>
      <trkpt lat="47.271397020667791" lon="9.290107022970915">
        <ele>985.00999999999999</ele>
        <time>2018-09-18T11:29:50Z</time>
      </trkpt>
      <trkpt lat="47.27152400650084" lon="9.290136024355888">
        <ele>983.57000000000005</ele>
        <time>2018-09-18T11:29:51Z</time>
      </trkpt>
      <trkpt lat="47.271649986505508" lon="9.290164019912481">
        <ele>982.12</ele>
        <time>2018-09-18T11:29:52Z</time>
      </trkpt>
      <trkpt lat="47.271772027015686" lon="9.290200984105468">
        <ele>981.15999999999997</ele>
        <time>2018-09-18T11:29:53Z</time>
      </trkpt>
      <trkpt lat="47.271883003413677" lon="9.29026996716857">
        <ele>979.72000000000003</ele>
        <time>2018-09-18T11:29:54Z</time>
      </trkpt>
      <trkpt lat="47.271992973983288" lon="9.290338028222323">
        <ele>978.27999999999997</ele>
        <time>2018-09-18T11:29:55Z</time>
      </trkpt>
      <trkpt lat="47.272108979523182" lon="9.290410028770566">
        <ele>977.32000000000005</ele>
        <time>2018-09-18T11:29:56Z</time>
      </trkpt>
      <trkpt lat="47.272228002548218" lon="9.290468031540513">
        <ele>976.36000000000001</ele>
        <time>2018-09-18T11:29:57Z</time>
      </trkpt>
      <trkpt lat="47.27236102335155" lon="9.2904859688133">
        <ele>975.38999999999999</ele>
        <time>2018-09-18T11:29:58Z</time>
      </trkpt>
      <trkpt lat="47.272518016397953" lon="9.290507007390261">
        <ele>974.42999999999995</ele>
        <time>2018-09-18T11:29:59Z</time>
      </trkpt>
      <trkpt lat="47.272624969482422" lon="9.290464008226991">
        <ele>973.47000000000003</ele>
        <time>2018-09-18T11:30:00Z</time>
      </trkpt>
      <trkpt lat="47.272740975022316" lon="9.290373986586928">
        <ele>972.50999999999999</ele>
        <time>2018-09-18T11:30:01Z</time>
      </trkpt>
      <trkpt lat="47.272854968905449" lon="9.290283964946866">
        <ele>972.02999999999997</ele>
        <time>2018-09-18T11:30:02Z</time>
      </trkpt>
      <trkpt lat="47.272969968616962" lon="9.290172988548875">
        <ele>971.07000000000005</ele>
        <time>2018-09-18T11:30:03Z</time>
      </trkpt>
      <trkpt lat="47.273074993863702" lon="9.290040973573923">
        <ele>970.11000000000001</ele>
        <time>2018-09-18T11:30:04Z</time>
      </trkpt>
      <trkpt lat="47.273551002144814" lon="9.289440996944904">
        <ele>965.29999999999995</ele>
        <time>2018-09-18T11:30:09Z</time>
      </trkpt>
      <trkpt lat="47.273656027391553" lon="9.289363967254758">
        <ele>964.34000000000003</ele>
        <time>2018-09-18T11:30:10Z</time>
      </trkpt>
      <trkpt lat="47.273770021274686" lon="9.289316022768617">
        <ele>963.38</ele>
        <time>2018-09-18T11:30:11Z</time>
      </trkpt>
      <trkpt lat="47.27388602681458" lon="9.289266988635063">
        <ele>962.89999999999998</ele>
        <time>2018-09-18T11:30:12Z</time>
      </trkpt>
      <trkpt lat="47.274003960192204" lon="9.289213009178639">
        <ele>961.94000000000005</ele>
        <time>2018-09-18T11:30:13Z</time>
      </trkpt>
      <trkpt lat="47.274088030681014" lon="9.289098009467125">
        <ele>961.46000000000004</ele>
        <time>2018-09-18T11:30:14Z</time>
      </trkpt>
      <trkpt lat="47.274177968502045" lon="9.288974963128567">
        <ele>960.98000000000002</ele>
        <time>2018-09-18T11:30:15Z</time>
      </trkpt>
      <trkpt lat="47.274264972656965" lon="9.288815958425403">
        <ele>960.00999999999999</ele>
        <time>2018-09-18T11:30:16Z</time>
      </trkpt>
      <trkpt lat="47.274335967376828" lon="9.288627030327916">
        <ele>960.00999999999999</ele>
        <time>2018-09-18T11:30:17Z</time>
      </trkpt>
      <trkpt lat="47.274406040087342" lon="9.288437012583017">
        <ele>959.04999999999995</ele>
        <time>2018-09-18T11:30:18Z</time>
      </trkpt>
      <trkpt lat="47.274480974301696" lon="9.288237020373344">
        <ele>958.09000000000003</ele>
        <time>2018-09-18T11:30:19Z</time>
      </trkpt>
      <trkpt lat="47.274560015648603" lon="9.288023030385375">
        <ele>957.13</ele>
        <time>2018-09-18T11:30:20Z</time>
      </trkpt>
      <trkpt lat="47.274652970954776" lon="9.287823038175702">
        <ele>956.64999999999998</ele>
        <time>2018-09-18T11:30:21Z</time>
      </trkpt>
      <trkpt lat="47.275162003934383" lon="9.286705981940031">
        <ele>951.84000000000003</ele>
        <time>2018-09-18T11:30:27Z</time>
      </trkpt>
      <trkpt lat="47.275479007512331" lon="9.285326991230249">
        <ele>947.03999999999996</ele>
        <time>2018-09-18T11:30:33Z</time>
      </trkpt>
      <trkpt lat="47.276049982756376" lon="9.283282980322838">
        <ele>943.19000000000005</ele>
        <time>2018-09-18T11:30:41Z</time>
      </trkpt>
      <trkpt lat="47.276160037145019" lon="9.283040994778276">
        <ele>942.71000000000004</ele>
        <time>2018-09-18T11:30:42Z</time>
      </trkpt>
      <trkpt lat="47.27698003873229" lon="9.281572988256812">
        <ele>939.35000000000002</ele>
        <time>2018-09-18T11:30:49Z</time>
      </trkpt>
      <trkpt lat="47.277112975716591" lon="9.281422030180693">
        <ele>938.86000000000001</ele>
        <time>2018-09-18T11:30:50Z</time>
      </trkpt>
      <trkpt lat="47.277243984863162" lon="9.281272999942303">
        <ele>938.38</ele>
        <time>2018-09-18T11:30:51Z</time>
      </trkpt>
      <trkpt lat="47.277523018419743" lon="9.281019028276205">
        <ele>936.94000000000005</ele>
        <time>2018-09-18T11:30:53Z</time>
      </trkpt>
      <trkpt lat="47.278714003041387" lon="9.28017002530396">
        <ele>931.16999999999996</ele>
        <time>2018-09-18T11:31:02Z</time>
      </trkpt>
      <trkpt lat="47.27962302044034" lon="9.279457982629538">
        <ele>929.25</ele>
        <time>2018-09-18T11:31:11Z</time>
      </trkpt>
      <trkpt lat="47.279809014871716" lon="9.279261007905006">
        <ele>929.73000000000002</ele>
        <time>2018-09-18T11:31:13Z</time>
      </trkpt>
      <trkpt lat="47.279875986278057" lon="9.279104014858604">
        <ele>930.69000000000005</ele>
        <time>2018-09-18T11:31:14Z</time>
      </trkpt>
      <trkpt lat="47.279963996261358" lon="9.278897987678647">
        <ele>930.69000000000005</ele>
        <time>2018-09-18T11:31:15Z</time>
      </trkpt>
      <trkpt lat="47.279996015131474" lon="9.278765972703695">
        <ele>931.16999999999996</ele>
        <time>2018-09-18T11:31:16Z</time>
      </trkpt>
      <trkpt lat="47.280041025951505" lon="9.27858198992908">
        <ele>931.16999999999996</ele>
        <time>2018-09-18T11:31:17Z</time>
      </trkpt>
      <trkpt lat="47.280130041763186" lon="9.278216036036611">
        <ele>931.64999999999998</ele>
        <time>2018-09-18T11:31:19Z</time>
      </trkpt>
      <trkpt lat="47.280174968764186" lon="9.278032975271344">
        <ele>931.64999999999998</ele>
        <time>2018-09-18T11:31:20Z</time>
      </trkpt>
      <trkpt lat="47.280272031202912" lon="9.277896014973521">
        <ele>932.13999999999999</ele>
        <time>2018-09-18T11:31:21Z</time>
      </trkpt>
      <trkpt lat="47.280366998165846" lon="9.277771962806583">
        <ele>932.13999999999999</ele>
        <time>2018-09-18T11:31:22Z</time>
      </trkpt>
      <trkpt lat="47.280460959300399" lon="9.277652017772198">
        <ele>931.64999999999998</ele>
        <time>2018-09-18T11:31:23Z</time>
      </trkpt>
      <trkpt lat="47.280588028952479" lon="9.277595020830631">
        <ele>931.64999999999998</ele>
        <time>2018-09-18T11:31:24Z</time>
      </trkpt>
      <trkpt lat="47.28071803227067" lon="9.277537018060684">
        <ele>931.16999999999996</ele>
        <time>2018-09-18T11:31:25Z</time>
      </trkpt>
      <trkpt lat="47.280843006446958" lon="9.277480021119118">
        <ele>930.69000000000005</ele>
        <time>2018-09-18T11:31:26Z</time>
      </trkpt>
      <trkpt lat="47.280964041128755" lon="9.277473986148834">
        <ele>930.21000000000004</ele>
        <time>2018-09-18T11:31:27Z</time>
      </trkpt>
      <trkpt lat="47.281091026961803" lon="9.277495024725795">
        <ele>929.73000000000002</ele>
        <time>2018-09-18T11:31:28Z</time>
      </trkpt>
      <trkpt lat="47.281219018623233" lon="9.27754900418222">
        <ele>929.25</ele>
        <time>2018-09-18T11:31:29Z</time>
      </trkpt>
      <trkpt lat="47.281348016113043" lon="9.277627961710095">
        <ele>928.76999999999998</ele>
        <time>2018-09-18T11:31:30Z</time>
      </trkpt>
      <trkpt lat="47.281478019431233" lon="9.277707003057003">
        <ele>928.76999999999998</ele>
        <time>2018-09-18T11:31:31Z</time>
      </trkpt>
      <trkpt lat="47.281638029962778" lon="9.277803981676698">
        <ele>928.28999999999996</ele>
        <time>2018-09-18T11:31:32Z</time>
      </trkpt>
      <trkpt lat="47.281759986653924" lon="9.277803981676698">
        <ele>927.80999999999995</ele>
        <time>2018-09-18T11:31:33Z</time>
      </trkpt>
      <trkpt lat="47.281913040205836" lon="9.277771040797234">
        <ele>927.33000000000004</ele>
        <time>2018-09-18T11:31:34Z</time>
      </trkpt>
      <trkpt lat="47.282057041302323" lon="9.277713960036635">
        <ele>926.37</ele>
        <time>2018-09-18T11:31:35Z</time>
      </trkpt>
      <trkpt lat="47.282195007428527" lon="9.27765796892345">
        <ele>926.37</ele>
        <time>2018-09-18T11:31:36Z</time>
      </trkpt>
      <trkpt lat="47.28233196772635" lon="9.277644976973534">
        <ele>925.88999999999999</ele>
        <time>2018-09-18T11:31:37Z</time>
      </trkpt>
      <trkpt lat="47.282474040985107" lon="9.277670038864017">
        <ele>925.40999999999997</ele>
        <time>2018-09-18T11:31:38Z</time>
      </trkpt>
      <trkpt lat="47.282624999061227" lon="9.277697028592229">
        <ele>925.40999999999997</ele>
        <time>2018-09-18T11:31:39Z</time>
      </trkpt>
      <trkpt lat="47.282735975459218" lon="9.27778696641326">
        <ele>924.92999999999995</ele>
        <time>2018-09-18T11:31:40Z</time>
      </trkpt>
      <trkpt lat="47.282865978777409" lon="9.277899032458663">
        <ele>924.92999999999995</ele>
        <time>2018-09-18T11:31:41Z</time>
      </trkpt>
      <trkpt lat="47.282965974882245" lon="9.278062982484698">
        <ele>924.45000000000005</ele>
        <time>2018-09-18T11:31:42Z</time>
      </trkpt>
      <trkpt lat="47.283068988472223" lon="9.278233973309398">
        <ele>924.45000000000005</ele>
        <time>2018-09-18T11:31:43Z</time>
      </trkpt>
      <trkpt lat="47.283170996233821" lon="9.278403036296368">
        <ele>923.96000000000004</ele>
        <time>2018-09-18T11:31:44Z</time>
      </trkpt>
      <trkpt lat="47.283581960946321" lon="9.279066966846585">
        <ele>920.60000000000002</ele>
        <time>2018-09-18T11:31:48Z</time>
      </trkpt>
      <trkpt lat="47.283690003678203" lon="9.279236029833555">
        <ele>919.63999999999999</ele>
        <time>2018-09-18T11:31:49Z</time>
      </trkpt>
      <trkpt lat="47.283812966197729" lon="9.27937600761652">
        <ele>918.20000000000005</ele>
        <time>2018-09-18T11:31:50Z</time>
      </trkpt>
      <trkpt lat="47.2839630022645" lon="9.279456976801157">
        <ele>916.75</ele>
        <time>2018-09-18T11:31:51Z</time>
      </trkpt>
      <trkpt lat="47.284114966169" lon="9.279540041461587">
        <ele>915.30999999999995</ele>
        <time>2018-09-18T11:31:52Z</time>
      </trkpt>
      <trkpt lat="47.284986013546586" lon="9.279944971203804">
        <ele>907.13999999999999</ele>
        <time>2018-09-18T11:31:58Z</time>
      </trkpt>
      <trkpt lat="47.285132026299834" lon="9.279960980638862">
        <ele>906.17999999999995</ele>
        <time>2018-09-18T11:31:59Z</time>
      </trkpt>
      <trkpt lat="47.285277033224702" lon="9.279959974810481">
        <ele>904.74000000000001</ele>
        <time>2018-09-18T11:32:00Z</time>
      </trkpt>
      <trkpt lat="47.285426985472441" lon="9.279930973425508">
        <ele>903.77999999999997</ele>
        <time>2018-09-18T11:32:01Z</time>
      </trkpt>
      <trkpt lat="47.285579033195972" lon="9.279900966212153">
        <ele>902.33000000000004</ele>
        <time>2018-09-18T11:32:02Z</time>
      </trkpt>
      <trkpt lat="47.287245020270348" lon="9.279534006491303">
        <ele>891.27999999999997</ele>
        <time>2018-09-18T11:32:12Z</time>
      </trkpt>
      <trkpt lat="47.28929397650063" lon="9.279025979340076">
        <ele>880.71000000000004</ele>
        <time>2018-09-18T11:32:22Z</time>
      </trkpt>
      <trkpt lat="47.289460022002459" lon="9.278929000720382">
        <ele>880.22000000000003</ele>
        <time>2018-09-18T11:32:23Z</time>
      </trkpt>
      <trkpt lat="47.2896150033921" lon="9.278786005452275">
        <ele>880.22000000000003</ele>
        <time>2018-09-18T11:32:24Z</time>
      </trkpt>
      <trkpt lat="47.290406003594398" lon="9.277866007760167">
        <ele>877.34000000000003</ele>
        <time>2018-09-18T11:32:30Z</time>
      </trkpt>
      <trkpt lat="47.29049501940608" lon="9.277694011107087">
        <ele>877.34000000000003</ele>
        <time>2018-09-18T11:32:31Z</time>
      </trkpt>
      <trkpt lat="47.290760977193713" lon="9.277221020311117">
        <ele>875.89999999999998</ele>
        <time>2018-09-18T11:32:34Z</time>
      </trkpt>
      <trkpt lat="47.29088100604713" lon="9.277100991457701">
        <ele>875.41999999999996</ele>
        <time>2018-09-18T11:32:35Z</time>
      </trkpt>
      <trkpt lat="47.291028024628758" lon="9.277027985081077">
        <ele>874.94000000000005</ele>
        <time>2018-09-18T11:32:36Z</time>
      </trkpt>
      <trkpt lat="47.29303197003901" lon="9.276073034852743">
        <ele>868.21000000000004</ele>
        <time>2018-09-18T11:32:48Z</time>
      </trkpt>
      <trkpt lat="47.293190974742174" lon="9.275945965200663">
        <ele>867.73000000000002</ele>
        <time>2018-09-18T11:32:49Z</time>
      </trkpt>
      <trkpt lat="47.293337993323803" lon="9.275778997689486">
        <ele>866.76999999999998</ele>
        <time>2018-09-18T11:32:50Z</time>
      </trkpt>
      <trkpt lat="47.293488029390574" lon="9.275607001036406">
        <ele>865.79999999999995</ele>
        <time>2018-09-18T11:32:51Z</time>
      </trkpt>
      <trkpt lat="47.293627001345158" lon="9.275410026311874">
        <ele>865.32000000000005</ele>
        <time>2018-09-18T11:32:52Z</time>
      </trkpt>
      <trkpt lat="47.29477297514677" lon="9.273792989552021">
        <ele>860.03999999999996</ele>
        <time>2018-09-18T11:33:01Z</time>
      </trkpt>
      <trkpt lat="47.295928001403809" lon="9.272170001640916">
        <ele>855.71000000000004</ele>
        <time>2018-09-18T11:33:11Z</time>
      </trkpt>
      <trkpt lat="47.2960389778018" lon="9.272049972787499">
        <ele>855.71000000000004</ele>
        <time>2018-09-18T11:33:12Z</time>
      </trkpt>
      <trkpt lat="47.2961650416255" lon="9.271924998611212">
        <ele>855.23000000000002</ele>
        <time>2018-09-18T11:33:13Z</time>
      </trkpt>
      <trkpt lat="47.296288004145026" lon="9.271862972527742">
        <ele>854.26999999999998</ele>
        <time>2018-09-18T11:33:14Z</time>
      </trkpt>
      <trkpt lat="47.296423958614469" lon="9.271794995293021">
        <ele>853.78999999999996</ele>
        <time>2018-09-18T11:33:15Z</time>
      </trkpt>
      <trkpt lat="47.296567037701607" lon="9.271755013614893">
        <ele>853.30999999999995</ele>
        <time>2018-09-18T11:33:16Z</time>
      </trkpt>
      <trkpt lat="47.296714978292584" lon="9.271759036928415">
        <ele>852.35000000000002</ele>
        <time>2018-09-18T11:33:17Z</time>
      </trkpt>
      <trkpt lat="47.296869959682226" lon="9.271762976422906">
        <ele>852.35000000000002</ele>
        <time>2018-09-18T11:33:18Z</time>
      </trkpt>
      <trkpt lat="47.297027036547661" lon="9.271766999736428">
        <ele>851.87</ele>
        <time>2018-09-18T11:33:19Z</time>
      </trkpt>
      <trkpt lat="47.29717799462378" lon="9.271771023049951">
        <ele>851.38</ele>
        <time>2018-09-18T11:33:20Z</time>
      </trkpt>
      <trkpt lat="47.297325013205409" lon="9.271758031100035">
        <ele>850.89999999999998</ele>
        <time>2018-09-18T11:33:21Z</time>
      </trkpt>
      <trkpt lat="47.297471025958657" lon="9.271702961996198">
        <ele>850.41999999999996</ele>
        <time>2018-09-18T11:33:22Z</time>
      </trkpt>
      <trkpt lat="47.29790797457099" lon="9.271581005305052">
        <ele>848.98000000000002</ele>
        <time>2018-09-18T11:33:25Z</time>
      </trkpt>
      <trkpt lat="47.298051975667477" lon="9.271581005305052">
        <ele>848.5</ele>
        <time>2018-09-18T11:33:26Z</time>
      </trkpt>
      <trkpt lat="47.298197988420725" lon="9.271613024175167">
        <ele>848.5</ele>
        <time>2018-09-18T11:33:27Z</time>
      </trkpt>
      <trkpt lat="47.298332015052438" lon="9.271667003631592">
        <ele>848.01999999999998</ele>
        <time>2018-09-18T11:33:28Z</time>
      </trkpt>
      <trkpt lat="47.298474004492164" lon="9.271796001121402">
        <ele>848.01999999999998</ele>
        <time>2018-09-18T11:33:29Z</time>
      </trkpt>
      <trkpt lat="47.298609958961606" lon="9.271918963640928">
        <ele>847.53999999999996</ele>
        <time>2018-09-18T11:33:30Z</time>
      </trkpt>
      <trkpt lat="47.298748008906841" lon="9.272044021636248">
        <ele>847.53999999999996</ele>
        <time>2018-09-18T11:33:31Z</time>
      </trkpt>
      <trkpt lat="47.300062961876392" lon="9.273292003199458">
        <ele>846.10000000000002</ele>
        <time>2018-09-18T11:33:41Z</time>
      </trkpt>
      <trkpt lat="47.30048599652946" lon="9.273534994572401">
        <ele>845.62</ele>
        <time>2018-09-18T11:33:45Z</time>
      </trkpt>
      <trkpt lat="47.300600996240973" lon="9.273548992350698">
        <ele>845.13999999999999</ele>
        <time>2018-09-18T11:33:46Z</time>
      </trkpt>
      <trkpt lat="47.300717001780868" lon="9.273563995957375">
        <ele>845.13999999999999</ele>
        <time>2018-09-18T11:33:47Z</time>
      </trkpt>
      <trkpt lat="47.300828984007239" lon="9.273574976250529">
        <ele>845.13999999999999</ele>
        <time>2018-09-18T11:33:48Z</time>
      </trkpt>
      <trkpt lat="47.300941972061992" lon="9.273548992350698">
        <ele>845.13999999999999</ele>
        <time>2018-09-18T11:33:49Z</time>
      </trkpt>
      <trkpt lat="47.301050014793873" lon="9.273524014279246">
        <ele>845.13999999999999</ele>
        <time>2018-09-18T11:33:50Z</time>
      </trkpt>
      <trkpt lat="47.302125999704003" lon="9.273491995409131">
        <ele>842.25</ele>
        <time>2018-09-18T11:34:00Z</time>
      </trkpt>
      <trkpt lat="47.302234964445233" lon="9.273537006229162">
        <ele>842.25</ele>
        <time>2018-09-18T11:34:01Z</time>
      </trkpt>
      <trkpt lat="47.302343007177114" lon="9.273606995120645">
        <ele>841.76999999999998</ele>
        <time>2018-09-18T11:34:02Z</time>
      </trkpt>
      <trkpt lat="47.302445014938712" lon="9.273689975962043">
        <ele>841.28999999999996</ele>
        <time>2018-09-18T11:34:03Z</time>
      </trkpt>
      <trkpt lat="47.30254802852869" lon="9.273773962631822">
        <ele>841.28999999999996</ele>
        <time>2018-09-18T11:34:04Z</time>
      </trkpt>
      <trkpt lat="47.303277002647519" lon="9.274345021694899">
        <ele>839.37</ele>
        <time>2018-09-18T11:34:11Z</time>
      </trkpt>
      <trkpt lat="47.303373981267214" lon="9.274414004758">
        <ele>838.88999999999999</ele>
        <time>2018-09-18T11:34:12Z</time>
      </trkpt>
      <trkpt lat="47.303480012342334" lon="9.274428002536297">
        <ele>838.88999999999999</ele>
        <time>2018-09-18T11:34:13Z</time>
      </trkpt>
      <trkpt lat="47.303585959598422" lon="9.274442000314593">
        <ele>838.40999999999997</ele>
        <time>2018-09-18T11:34:14Z</time>
      </trkpt>
      <trkpt lat="47.303696013987064" lon="9.27445700392127">
        <ele>838.40999999999997</ele>
        <time>2018-09-18T11:34:15Z</time>
      </trkpt>
      <trkpt lat="47.303792992606759" lon="9.27443697117269">
        <ele>838.88999999999999</ele>
        <time>2018-09-18T11:34:16Z</time>
      </trkpt>
      <trkpt lat="47.303899023681879" lon="9.274416016414762">
        <ele>838.88999999999999</ele>
        <time>2018-09-18T11:34:17Z</time>
      </trkpt>
      <trkpt lat="47.30456898920238" lon="9.274310991168022">
        <ele>838.88999999999999</ele>
        <time>2018-09-18T11:34:23Z</time>
      </trkpt>
      <trkpt lat="47.304683988913894" lon="9.274293975904584">
        <ele>838.88999999999999</ele>
        <time>2018-09-18T11:34:24Z</time>
      </trkpt>
      <trkpt lat="47.304802006110549" lon="9.274302022531629">
        <ele>838.88999999999999</ele>
        <time>2018-09-18T11:34:25Z</time>
      </trkpt>
      <trkpt lat="47.30491298250854" lon="9.274335969239473">
        <ele>838.88999999999999</ele>
        <time>2018-09-18T11:34:26Z</time>
      </trkpt>
      <trkpt lat="47.305021025240421" lon="9.274368993937969">
        <ele>839.37</ele>
        <time>2018-09-18T11:34:27Z</time>
      </trkpt>
      <trkpt lat="47.3051240388304" lon="9.274445017799735">
        <ele>839.37</ele>
        <time>2018-09-18T11:34:28Z</time>
      </trkpt>
      <trkpt lat="47.305222023278475" lon="9.27452003583312">
        <ele>839.85000000000002</ele>
        <time>2018-09-18T11:34:29Z</time>
      </trkpt>
      <trkpt lat="47.306431028991938" lon="9.275356968864799">
        <ele>840.33000000000004</ele>
        <time>2018-09-18T11:34:41Z</time>
      </trkpt>
      <trkpt lat="47.307482035830617" lon="9.276074040681124">
        <ele>839.85000000000002</ele>
        <time>2018-09-18T11:34:52Z</time>
      </trkpt>
      <trkpt lat="47.307886965572834" lon="9.276301022619009">
        <ele>841.28999999999996</ele>
        <time>2018-09-18T11:34:56Z</time>
      </trkpt>
      <trkpt lat="47.308000959455967" lon="9.276342010125518">
        <ele>841.76999999999998</ele>
        <time>2018-09-18T11:34:57Z</time>
      </trkpt>
      <trkpt lat="47.30811595916748" lon="9.27634502761066">
        <ele>842.25</ele>
        <time>2018-09-18T11:34:58Z</time>
      </trkpt>
      <trkpt lat="47.308232970535755" lon="9.27634502761066">
        <ele>842.25</ele>
        <time>2018-09-18T11:34:59Z</time>
      </trkpt>
      <trkpt lat="47.30834998190403" lon="9.27634502761066">
        <ele>842.25</ele>
        <time>2018-09-18T11:35:00Z</time>
      </trkpt>
      <trkpt lat="47.30996198952198" lon="9.276355002075434">
        <ele>840.80999999999995</ele>
        <time>2018-09-18T11:35:13Z</time>
      </trkpt>
      <trkpt lat="47.310716025531292" lon="9.276461033150554">
        <ele>839.85000000000002</ele>
        <time>2018-09-18T11:35:19Z</time>
      </trkpt>
      <trkpt lat="47.310835970565677" lon="9.276521969586611">
        <ele>839.85000000000002</ele>
        <time>2018-09-18T11:35:20Z</time>
      </trkpt>
      <trkpt lat="47.310948958620429" lon="9.276605034247041">
        <ele>839.85000000000002</ele>
        <time>2018-09-18T11:35:21Z</time>
      </trkpt>
      <trkpt lat="47.312197024002671" lon="9.277455965057015">
        <ele>840.80999999999995</ele>
        <time>2018-09-18T11:35:32Z</time>
      </trkpt>
      <trkpt lat="47.313379961997271" lon="9.278012020513415">
        <ele>841.28999999999996</ele>
        <time>2018-09-18T11:35:43Z</time>
      </trkpt>
      <trkpt lat="47.313494039699435" lon="9.278076980262995">
        <ele>840.80999999999995</ele>
        <time>2018-09-18T11:35:44Z</time>
      </trkpt>
      <trkpt lat="47.314069038257003" lon="9.278412004932761">
        <ele>840.80999999999995</ele>
        <time>2018-09-18T11:35:51Z</time>
      </trkpt>
      <trkpt lat="47.314731040969491" lon="9.278869992122054">
        <ele>838.88999999999999</ele>
        <time>2018-09-18T11:36:00Z</time>
      </trkpt>
      <trkpt lat="47.315458003431559" lon="9.279687982052565">
        <ele>835.51999999999998</ele>
        <time>2018-09-18T11:36:10Z</time>
      </trkpt>
      <trkpt lat="47.315642992034554" lon="9.279976990073919">
        <ele>835.03999999999996</ele>
        <time>2018-09-18T11:36:14Z</time>
      </trkpt>
      <trkpt lat="47.315671993419528" lon="9.28002099506557">
        <ele>835.03999999999996</ele>
        <time>2018-09-18T11:36:15Z</time>
      </trkpt>
      <trkpt lat="47.315694959834218" lon="9.280057037249208">
        <ele>835.03999999999996</ele>
        <time>2018-09-18T11:36:16Z</time>
      </trkpt>
      <trkpt lat="47.315795961767435" lon="9.280215036123991">
        <ele>834.08000000000004</ele>
        <time>2018-09-18T11:36:21Z</time>
      </trkpt>
      <trkpt lat="47.315795961767435" lon="9.280215036123991">
        <ele>834.08000000000004</ele>
        <time>2018-09-18T11:36:34Z</time>
      </trkpt>
      <trkpt lat="47.315881038084626" lon="9.280346967279911">
        <ele>834.08000000000004</ele>
        <time>2018-09-18T11:37:24Z</time>
      </trkpt>
      <trkpt lat="47.316384958103299" lon="9.281134027987719">
        <ele>834.08000000000004</ele>
        <time>2018-09-18T11:37:32Z</time>
      </trkpt>
      <trkpt lat="47.316576987504959" lon="9.28148003295064">
        <ele>834.55999999999995</ele>
        <time>2018-09-18T11:37:35Z</time>
      </trkpt>
      <trkpt lat="47.316926009953022" lon="9.282312020659447">
        <ele>837.45000000000005</ele>
        <time>2018-09-18T11:37:43Z</time>
      </trkpt>
      <trkpt lat="47.316960962489247" lon="9.282418973743916">
        <ele>837.92999999999995</ele>
        <time>2018-09-18T11:37:44Z</time>
      </trkpt>
      <trkpt lat="47.31707101687789" lon="9.28275098092854">
        <ele>839.37</ele>
        <time>2018-09-18T11:37:47Z</time>
      </trkpt>
      <trkpt lat="47.317112004384398" lon="9.282864974811673">
        <ele>839.37</ele>
        <time>2018-09-18T11:37:48Z</time>
      </trkpt>
      <trkpt lat="47.317153997719288" lon="9.282982992008328">
        <ele>839.37</ele>
        <time>2018-09-18T11:37:49Z</time>
      </trkpt>
      <trkpt lat="47.317196996882558" lon="9.283106038346887">
        <ele>838.88999999999999</ele>
        <time>2018-09-18T11:37:50Z</time>
      </trkpt>
      <trkpt lat="47.317241001874208" lon="9.283231012523174">
        <ele>838.88999999999999</ele>
        <time>2018-09-18T11:37:51Z</time>
      </trkpt>
      <trkpt lat="47.31795497238636" lon="9.284356031566858">
        <ele>837.45000000000005</ele>
        <time>2018-09-18T11:38:01Z</time>
      </trkpt>
      <trkpt lat="47.318820990622044" lon="9.285503011196852">
        <ele>838.40999999999997</ele>
        <time>2018-09-18T11:38:11Z</time>
      </trkpt>
      <trkpt lat="47.320084981620312" lon="9.28715500049293">
        <ele>836</ele>
        <time>2018-09-18T11:38:25Z</time>
      </trkpt>
      <trkpt lat="47.321093995124102" lon="9.288542959839106">
        <ele>836.48000000000002</ele>
        <time>2018-09-18T11:38:35Z</time>
      </trkpt>
      <trkpt lat="47.322337031364441" lon="9.29013904184103">
        <ele>832.63999999999999</ele>
        <time>2018-09-18T11:38:47Z</time>
      </trkpt>
      <trkpt lat="47.32315300963819" lon="9.291231036186218">
        <ele>831.20000000000005</ele>
        <time>2018-09-18T11:38:55Z</time>
      </trkpt>
      <trkpt lat="47.323268009349704" lon="9.291346035897732">
        <ele>831.20000000000005</ele>
        <time>2018-09-18T11:38:56Z</time>
      </trkpt>
      <trkpt lat="47.32450501061976" lon="9.292257986962795">
        <ele>827.83000000000004</ele>
        <time>2018-09-18T11:39:06Z</time>
      </trkpt>
      <trkpt lat="47.325248988345265" lon="9.292772971093655">
        <ele>827.35000000000002</ele>
        <time>2018-09-18T11:39:12Z</time>
      </trkpt>
      <trkpt lat="47.325385026633739" lon="9.292814964428544">
        <ele>826.87</ele>
        <time>2018-09-18T11:39:13Z</time>
      </trkpt>
      <trkpt lat="47.325520981103182" lon="9.292846983298659">
        <ele>826.87</ele>
        <time>2018-09-18T11:39:14Z</time>
      </trkpt>
      <trkpt lat="47.325659031048417" lon="9.292852012440562">
        <ele>826.87</ele>
        <time>2018-09-18T11:39:15Z</time>
      </trkpt>
      <trkpt lat="47.325799008831382" lon="9.292857963591814">
        <ele>826.38999999999999</ele>
        <time>2018-09-18T11:39:16Z</time>
      </trkpt>
      <trkpt lat="47.326075024902821" lon="9.292896017432213">
        <ele>825.90999999999997</ele>
        <time>2018-09-18T11:39:18Z</time>
      </trkpt>
      <trkpt lat="47.326207039877772" lon="9.292957037687302">
        <ele>825.42999999999995</ele>
        <time>2018-09-18T11:39:19Z</time>
      </trkpt>
      <trkpt lat="47.326335031539202" lon="9.293039012700319">
        <ele>824.95000000000005</ele>
        <time>2018-09-18T11:39:20Z</time>
      </trkpt>
      <trkpt lat="47.326449025422335" lon="9.293154012411833">
        <ele>824.47000000000003</ele>
        <time>2018-09-18T11:39:21Z</time>
      </trkpt>
      <trkpt lat="47.326562013477087" lon="9.293273035436869">
        <ele>824.47000000000003</ele>
        <time>2018-09-18T11:39:22Z</time>
      </trkpt>
      <trkpt lat="47.326793018728495" lon="9.293491970747709">
        <ele>823.99000000000001</ele>
        <time>2018-09-18T11:39:24Z</time>
      </trkpt>
      <trkpt lat="47.326926039531827" lon="9.293553996831179">
        <ele>823.99000000000001</ele>
        <time>2018-09-18T11:39:25Z</time>
      </trkpt>
      <trkpt lat="47.327056964859366" lon="9.293615017086268">
        <ele>823.50999999999999</ele>
        <time>2018-09-18T11:39:26Z</time>
      </trkpt>
      <trkpt lat="47.32719300314784" lon="9.293618034571409">
        <ele>823.02999999999997</ele>
        <time>2018-09-18T11:39:27Z</time>
      </trkpt>
      <trkpt lat="47.327327029779553" lon="9.293618034571409">
        <ele>823.02999999999997</ele>
        <time>2018-09-18T11:39:28Z</time>
      </trkpt>
      <trkpt lat="47.327463990077376" lon="9.293618034571409">
        <ele>823.02999999999997</ele>
        <time>2018-09-18T11:39:29Z</time>
      </trkpt>
      <trkpt lat="47.328988993540406" lon="9.293392980471253">
        <ele>817.74000000000001</ele>
        <time>2018-09-18T11:39:40Z</time>
      </trkpt>
      <trkpt lat="47.329399036243558" lon="9.293274041265249">
        <ele>816.77999999999997</ele>
        <time>2018-09-18T11:39:43Z</time>
      </trkpt>
      <trkpt lat="47.32953398488462" lon="9.293230036273599">
        <ele>816.29999999999995</ele>
        <time>2018-09-18T11:39:44Z</time>
      </trkpt>
      <trkpt lat="47.329649990424514" lon="9.293144959956408">
        <ele>815.82000000000005</ele>
        <time>2018-09-18T11:39:45Z</time>
      </trkpt>
      <trkpt lat="47.329758033156395" lon="9.293014034628868">
        <ele>815.34000000000003</ele>
        <time>2018-09-18T11:39:46Z</time>
      </trkpt>
      <trkpt lat="47.329865992069244" lon="9.292882019653916">
        <ele>814.85000000000002</ele>
        <time>2018-09-18T11:39:47Z</time>
      </trkpt>
      <trkpt lat="47.329947967082262" lon="9.292730977758765">
        <ele>814.37</ele>
        <time>2018-09-18T11:39:48Z</time>
      </trkpt>
      <trkpt lat="47.330024996772408" lon="9.292559986934066">
        <ele>813.88999999999999</ele>
        <time>2018-09-18T11:39:49Z</time>
      </trkpt>
      <trkpt lat="47.330102026462555" lon="9.292386984452605">
        <ele>813.88999999999999</ele>
        <time>2018-09-18T11:39:50Z</time>
      </trkpt>
      <trkpt lat="47.330980030819774" lon="9.291058033704758">
        <ele>809.57000000000005</ele>
        <time>2018-09-18T11:39:59Z</time>
      </trkpt>
      <trkpt lat="47.331485040485859" lon="9.290374992415309">
        <ele>807.63999999999999</ele>
        <time>2018-09-18T11:40:04Z</time>
      </trkpt>
      <trkpt lat="47.33159501105547" lon="9.290279019623995">
        <ele>807.63999999999999</ele>
        <time>2018-09-18T11:40:05Z</time>
      </trkpt>
      <trkpt lat="47.331718979403377" lon="9.290214981883764">
        <ele>807.63999999999999</ele>
        <time>2018-09-18T11:40:06Z</time>
      </trkpt>
      <trkpt lat="47.331846971064806" lon="9.290149016305804">
        <ele>808.13</ele>
        <time>2018-09-18T11:40:07Z</time>
      </trkpt>
      <trkpt lat="47.331977980211377" lon="9.290081039071083">
        <ele>808.13</ele>
        <time>2018-09-18T11:40:08Z</time>
      </trkpt>
      <trkpt lat="47.332771997898817" lon="9.289780966937542">
        <ele>808.13</ele>
        <time>2018-09-18T11:40:14Z</time>
      </trkpt>
      <trkpt lat="47.332909964025021" lon="9.289788007736206">
        <ele>807.63999999999999</ele>
        <time>2018-09-18T11:40:15Z</time>
      </trkpt>
      <trkpt lat="47.333051031455398" lon="9.289794964715838">
        <ele>807.63999999999999</ele>
        <time>2018-09-18T11:40:16Z</time>
      </trkpt>
      <trkpt lat="47.333731977269053" lon="9.289905019104481">
        <ele>808.13</ele>
        <time>2018-09-18T11:40:21Z</time>
      </trkpt>
      <trkpt lat="47.333862986415625" lon="9.289856990799308">
        <ele>808.13</ele>
        <time>2018-09-18T11:40:22Z</time>
      </trkpt>
      <trkpt lat="47.333995001390576" lon="9.289805022999644">
        <ele>808.13</ele>
        <time>2018-09-18T11:40:23Z</time>
      </trkpt>
      <trkpt lat="47.334382999688387" lon="9.289674013853073">
        <ele>807.63999999999999</ele>
        <time>2018-09-18T11:40:26Z</time>
      </trkpt>
      <trkpt lat="47.334493976086378" lon="9.289682982489467">
        <ele>807.63999999999999</ele>
        <time>2018-09-18T11:40:27Z</time>
      </trkpt>
      <trkpt lat="47.334602018818259" lon="9.289697986096144">
        <ele>807.15999999999997</ele>
        <time>2018-09-18T11:40:28Z</time>
      </trkpt>
      <trkpt lat="47.334687011316419" lon="9.289783984422684">
        <ele>807.15999999999997</ele>
        <time>2018-09-18T11:40:29Z</time>
      </trkpt>
      <trkpt lat="47.334768986329436" lon="9.289899989962578">
        <ele>807.15999999999997</ele>
        <time>2018-09-18T11:40:30Z</time>
      </trkpt>
      <trkpt lat="47.334831012412906" lon="9.2900559771806">
        <ele>806.67999999999995</ele>
        <time>2018-09-18T11:40:31Z</time>
      </trkpt>
      <trkpt lat="47.334878034889698" lon="9.290208024904132">
        <ele>806.67999999999995</ele>
        <time>2018-09-18T11:40:32Z</time>
      </trkpt>
      <trkpt lat="47.334931008517742" lon="9.290373986586928">
        <ele>806.20000000000005</ele>
        <time>2018-09-18T11:40:33Z</time>
      </trkpt>
      <trkpt lat="47.334996974095702" lon="9.290546989068389">
        <ele>805.72000000000003</ele>
        <time>2018-09-18T11:40:34Z</time>
      </trkpt>
      <trkpt lat="47.335064029321074" lon="9.290728038176894">
        <ele>805.72000000000003</ele>
        <time>2018-09-18T11:40:35Z</time>
      </trkpt>
      <trkpt lat="47.335144998505712" lon="9.290903974324465">
        <ele>805.72000000000003</ele>
        <time>2018-09-18T11:40:36Z</time>
      </trkpt>
      <trkpt lat="47.335259998217225" lon="9.291086029261351">
        <ele>805.24000000000001</ele>
        <time>2018-09-18T11:40:37Z</time>
      </trkpt>
      <trkpt lat="47.335363011807203" lon="9.291225001215935">
        <ele>804.75999999999999</ele>
        <time>2018-09-18T11:40:38Z</time>
      </trkpt>
      <trkpt lat="47.335689989849925" lon="9.291665973141789">
        <ele>804.27999999999997</ele>
        <time>2018-09-18T11:40:41Z</time>
      </trkpt>
      <trkpt lat="47.335823010653257" lon="9.291767980903387">
        <ele>803.79999999999995</ele>
        <time>2018-09-18T11:40:42Z</time>
      </trkpt>
      <trkpt lat="47.335969023406506" lon="9.291879963129759">
        <ele>803.79999999999995</ele>
        <time>2018-09-18T11:40:43Z</time>
      </trkpt>
      <trkpt lat="47.336091985926032" lon="9.291921034455299">
        <ele>803.79999999999995</ele>
        <time>2018-09-18T11:40:44Z</time>
      </trkpt>
      <trkpt lat="47.336243027821183" lon="9.291938971728087">
        <ele>803.79999999999995</ele>
        <time>2018-09-18T11:40:45Z</time>
      </trkpt>
      <trkpt lat="47.336399015039206" lon="9.291927991434932">
        <ele>803.32000000000005</ele>
        <time>2018-09-18T11:40:46Z</time>
      </trkpt>
      <trkpt lat="47.337221028283238" lon="9.291832018643618">
        <ele>801.88</ele>
        <time>2018-09-18T11:40:51Z</time>
      </trkpt>
      <trkpt lat="47.337384978309274" lon="9.29177301004529">
        <ele>801.88</ele>
        <time>2018-09-18T11:40:52Z</time>
      </trkpt>
      <trkpt lat="47.338689034804702" lon="9.291564971208572">
        <ele>800.44000000000005</ele>
        <time>2018-09-18T11:41:00Z</time>
      </trkpt>
      <trkpt lat="47.339897034689784" lon="9.29140898399055">
        <ele>800.91999999999996</ele>
        <time>2018-09-18T11:41:09Z</time>
      </trkpt>
      <trkpt lat="47.341023981571198" lon="9.291184013709426">
        <ele>800.44000000000005</ele>
        <time>2018-09-18T11:41:16Z</time>
      </trkpt>
      <trkpt lat="47.341212993487716" lon="9.29121402092278">
        <ele>800.91999999999996</ele>
        <time>2018-09-18T11:41:17Z</time>
      </trkpt>
      <trkpt lat="47.341408040374517" lon="9.291261965408921">
        <ele>800.91999999999996</ele>
        <time>2018-09-18T11:41:18Z</time>
      </trkpt>
      <trkpt lat="47.341601997613907" lon="9.291353998705745">
        <ele>801.39999999999998</ele>
        <time>2018-09-18T11:41:19Z</time>
      </trkpt>
      <trkpt lat="47.341791009530425" lon="9.291444020345807">
        <ele>801.39999999999998</ele>
        <time>2018-09-18T11:41:20Z</time>
      </trkpt>
      <trkpt lat="47.342140031978488" lon="9.291548961773515">
        <ele>801.88</ele>
        <time>2018-09-18T11:41:22Z</time>
      </trkpt>
      <trkpt lat="47.342303982004523" lon="9.291595984250307">
        <ele>801.88</ele>
        <time>2018-09-18T11:41:23Z</time>
      </trkpt>
      <trkpt lat="47.342471033334732" lon="9.291579974815249">
        <ele>801.39999999999998</ele>
        <time>2018-09-18T11:41:24Z</time>
      </trkpt>
      <trkpt lat="47.342635989189148" lon="9.291556002572179">
        <ele>801.39999999999998</ele>
        <time>2018-09-18T11:41:25Z</time>
      </trkpt>
      <trkpt lat="47.34279197640717" lon="9.291533958166838">
        <ele>801.39999999999998</ele>
        <time>2018-09-18T11:41:26Z</time>
      </trkpt>
      <trkpt lat="47.343727983534336" lon="9.291471010074019">
        <ele>801.39999999999998</ele>
        <time>2018-09-18T11:41:33Z</time>
      </trkpt>
      <trkpt lat="47.344188988208771" lon="9.291602019220591">
        <ele>800.91999999999996</ele>
        <time>2018-09-18T11:41:36Z</time>
      </trkpt>
      <trkpt lat="47.344787959009409" lon="9.2919020075351">
        <ele>799.95000000000005</ele>
        <time>2018-09-18T11:41:40Z</time>
      </trkpt>
      <trkpt lat="47.344928020611405" lon="9.291916005313397">
        <ele>799.95000000000005</ele>
        <time>2018-09-18T11:41:41Z</time>
      </trkpt>
      <trkpt lat="47.345060035586357" lon="9.291896978393197">
        <ele>799.47000000000003</ele>
        <time>2018-09-18T11:41:42Z</time>
      </trkpt>
      <trkpt lat="47.345172017812729" lon="9.291846016421914">
        <ele>799.47000000000003</ele>
        <time>2018-09-18T11:41:43Z</time>
      </trkpt>
      <trkpt lat="47.345264973118901" lon="9.291768986731768">
        <ele>798.99000000000001</ele>
        <time>2018-09-18T11:41:44Z</time>
      </trkpt>
      <trkpt lat="47.345323981717229" lon="9.291665973141789">
        <ele>798.99000000000001</ele>
        <time>2018-09-18T11:41:45Z</time>
      </trkpt>
      <trkpt lat="47.34536899253726" lon="9.291500011458993">
        <ele>798.50999999999999</ele>
        <time>2018-09-18T11:41:46Z</time>
      </trkpt>
      <trkpt lat="47.345377961173654" lon="9.291358022019267">
        <ele>798.50999999999999</ele>
        <time>2018-09-18T11:41:47Z</time>
      </trkpt>
      <trkpt lat="47.345350971445441" lon="9.291187031194568">
        <ele>798.02999999999997</ele>
        <time>2018-09-18T11:41:48Z</time>
      </trkpt>
      <trkpt lat="47.345322975888848" lon="9.291003970429301">
        <ele>797.54999999999995</ele>
        <time>2018-09-18T11:41:49Z</time>
      </trkpt>
      <trkpt lat="47.345288023352623" lon="9.290814036503434">
        <ele>797.07000000000005</ele>
        <time>2018-09-18T11:41:50Z</time>
      </trkpt>
      <trkpt lat="47.345234965905547" lon="9.290610020980239">
        <ele>796.59000000000003</ele>
        <time>2018-09-18T11:41:51Z</time>
      </trkpt>
      <trkpt lat="47.344882003962994" lon="9.289011005312204">
        <ele>791.77999999999997</ele>
        <time>2018-09-18T11:41:59Z</time>
      </trkpt>
      <trkpt lat="47.344813020899892" lon="9.28870196454227">
        <ele>790.34000000000003</ele>
        <time>2018-09-18T11:42:01Z</time>
      </trkpt>
      <trkpt lat="47.344819977879524" lon="9.288557963445783">
        <ele>789.38</ele>
        <time>2018-09-18T11:42:02Z</time>
      </trkpt>
      <trkpt lat="47.344830958172679" lon="9.288426032289863">
        <ele>788.41999999999996</ele>
        <time>2018-09-18T11:42:03Z</time>
      </trkpt>
      <trkpt lat="47.344901030883193" lon="9.288320001214743">
        <ele>787.94000000000005</ele>
        <time>2018-09-18T11:42:04Z</time>
      </trkpt>
      <trkpt lat="47.34498099423945" lon="9.288218999281526">
        <ele>787.46000000000004</ele>
        <time>2018-09-18T11:42:05Z</time>
      </trkpt>
      <trkpt lat="47.345086019486189" lon="9.288151022046804">
        <ele>786.98000000000002</ele>
        <time>2018-09-18T11:42:06Z</time>
      </trkpt>
      <trkpt lat="47.345189033076167" lon="9.288084972649813">
        <ele>786.5</ele>
        <time>2018-09-18T11:42:07Z</time>
      </trkpt>
      <trkpt lat="47.345285005867481" lon="9.288041973486543">
        <ele>786.5</ele>
        <time>2018-09-18T11:42:08Z</time>
      </trkpt>
      <trkpt lat="47.345390031114221" lon="9.288053959608078">
        <ele>786.5</ele>
        <time>2018-09-18T11:42:09Z</time>
      </trkpt>
      <trkpt lat="47.34549799002707" lon="9.288101987913251">
        <ele>786.5</ele>
        <time>2018-09-18T11:42:10Z</time>
      </trkpt>
      <trkpt lat="47.345605026930571" lon="9.288197038695216">
        <ele>786.98000000000002</ele>
        <time>2018-09-18T11:42:11Z</time>
      </trkpt>
      <trkpt lat="47.345709968358278" lon="9.288325030356646">
        <ele>786.98000000000002</ele>
        <time>2018-09-18T11:42:12Z</time>
      </trkpt>
      <trkpt lat="47.345806024968624" lon="9.288488980382681">
        <ele>787.46000000000004</ele>
        <time>2018-09-18T11:42:13Z</time>
      </trkpt>
      <trkpt lat="47.345908032730222" lon="9.288662988692522">
        <ele>787.46000000000004</ele>
        <time>2018-09-18T11:42:14Z</time>
      </trkpt>
      <trkpt lat="47.346119005233049" lon="9.2890440300107">
        <ele>788.41999999999996</ele>
        <time>2018-09-18T11:42:16Z</time>
      </trkpt>
      <trkpt lat="47.346200980246067" lon="9.289265982806683">
        <ele>789.38</ele>
        <time>2018-09-18T11:42:17Z</time>
      </trkpt>
      <trkpt lat="47.346277004107833" lon="9.289497993886471">
        <ele>789.86000000000001</ele>
        <time>2018-09-18T11:42:18Z</time>
      </trkpt>
      <trkpt lat="47.346469033509493" lon="9.290176006034017">
        <ele>791.77999999999997</ele>
        <time>2018-09-18T11:42:21Z</time>
      </trkpt>
      <trkpt lat="47.346533993259072" lon="9.290391001850367">
        <ele>792.25999999999999</ele>
        <time>2018-09-18T11:42:22Z</time>
      </trkpt>
      <trkpt lat="47.346645975485444" lon="9.290561992675066">
        <ele>793.22000000000003</ele>
        <time>2018-09-18T11:42:23Z</time>
      </trkpt>
      <trkpt lat="47.346758963540196" lon="9.290733989328146">
        <ele>793.71000000000004</ele>
        <time>2018-09-18T11:42:24Z</time>
      </trkpt>
      <trkpt lat="47.34687203541398" lon="9.290906991809607">
        <ele>794.19000000000005</ele>
        <time>2018-09-18T11:42:25Z</time>
      </trkpt>
      <trkpt lat="47.346999021247029" lon="9.291058033704758">
        <ele>795.14999999999998</ele>
        <time>2018-09-18T11:42:26Z</time>
      </trkpt>
      <trkpt lat="47.347144028171897" lon="9.291176972910762">
        <ele>795.63</ele>
        <time>2018-09-18T11:42:27Z</time>
      </trkpt>
      <trkpt lat="47.34730202704668" lon="9.291270012035966">
        <ele>796.11000000000001</ele>
        <time>2018-09-18T11:42:28Z</time>
      </trkpt>
      <trkpt lat="47.347467988729477" lon="9.291355004534125">
        <ele>797.07000000000005</ele>
        <time>2018-09-18T11:42:29Z</time>
      </trkpt>
      <trkpt lat="47.347648032009602" lon="9.291402027010918">
        <ele>797.54999999999995</ele>
        <time>2018-09-18T11:42:30Z</time>
      </trkpt>
      <trkpt lat="47.347837965935469" lon="9.291452988982201">
        <ele>797.54999999999995</ele>
        <time>2018-09-18T11:42:31Z</time>
      </trkpt>
      <trkpt lat="47.348036030307412" lon="9.291505040600896">
        <ele>798.02999999999997</ele>
        <time>2018-09-18T11:42:32Z</time>
      </trkpt>
      <trkpt lat="47.350110970437527" lon="9.291879963129759">
        <ele>799.47000000000003</ele>
        <time>2018-09-18T11:42:42Z</time>
      </trkpt>
      <trkpt lat="47.352217007428408" lon="9.292560992762446">
        <ele>803.32000000000005</ele>
        <time>2018-09-18T11:42:53Z</time>
      </trkpt>
      <trkpt lat="47.352374000474811" lon="9.292555041611195">
        <ele>803.32000000000005</ele>
        <time>2018-09-18T11:42:54Z</time>
      </trkpt>
      <trkpt lat="47.35252495855093" lon="9.292529979720712">
        <ele>803.79999999999995</ele>
        <time>2018-09-18T11:42:55Z</time>
      </trkpt>
      <trkpt lat="47.352668959647417" lon="9.292465019971132">
        <ele>803.79999999999995</ele>
        <time>2018-09-18T11:42:56Z</time>
      </trkpt>
      <trkpt lat="47.352787982672453" lon="9.292343985289335">
        <ele>803.79999999999995</ele>
        <time>2018-09-18T11:42:57Z</time>
      </trkpt>
      <trkpt lat="47.35288898460567" lon="9.292187998071313">
        <ele>803.79999999999995</ele>
        <time>2018-09-18T11:42:58Z</time>
      </trkpt>
      <trkpt lat="47.352979006245732" lon="9.292024970054627">
        <ele>803.79999999999995</ele>
        <time>2018-09-18T11:42:59Z</time>
      </trkpt>
      <trkpt lat="47.353047989308834" lon="9.291824977844954">
        <ele>803.79999999999995</ele>
        <time>2018-09-18T11:43:00Z</time>
      </trkpt>
      <trkpt lat="47.353117978200316" lon="9.291617022827268">
        <ele>803.79999999999995</ele>
        <time>2018-09-18T11:43:01Z</time>
      </trkpt>
      <trkpt lat="47.353652995079756" lon="9.290035022422671">
        <ele>801.88</ele>
        <time>2018-09-18T11:43:10Z</time>
      </trkpt>
      <trkpt lat="47.353771012276411" lon="9.289535963907838">
        <ele>802.36000000000001</ele>
        <time>2018-09-18T11:43:13Z</time>
      </trkpt>
      <trkpt lat="47.353777969256043" lon="9.289349969476461">
        <ele>802.36000000000001</ele>
        <time>2018-09-18T11:43:14Z</time>
      </trkpt>
      <trkpt lat="47.353777969256043" lon="9.289167998358607">
        <ele>802.36000000000001</ele>
        <time>2018-09-18T11:43:15Z</time>
      </trkpt>
      <trkpt lat="47.353752991184592" lon="9.288990972563624">
        <ele>801.88</ele>
        <time>2018-09-18T11:43:16Z</time>
      </trkpt>
      <trkpt lat="47.353718038648367" lon="9.288819981738925">
        <ele>801.88</ele>
        <time>2018-09-18T11:43:17Z</time>
      </trkpt>
      <trkpt lat="47.35368300229311" lon="9.288646979257464">
        <ele>801.88</ele>
        <time>2018-09-18T11:43:18Z</time>
      </trkpt>
      <trkpt lat="47.35321001149714" lon="9.286449998617172">
        <ele>798.02999999999997</ele>
        <time>2018-09-18T11:43:31Z</time>
      </trkpt>
      <trkpt lat="47.353205988183618" lon="9.286284036934376">
        <ele>798.02999999999997</ele>
        <time>2018-09-18T11:43:32Z</time>
      </trkpt>
      <trkpt lat="47.353217974305153" lon="9.286134000867605">
        <ele>797.54999999999995</ele>
        <time>2018-09-18T11:43:33Z</time>
      </trkpt>
      <trkpt lat="47.353258961811662" lon="9.285991005599499">
        <ele>797.54999999999995</ele>
        <time>2018-09-18T11:43:34Z</time>
      </trkpt>
      <trkpt lat="47.353301960974932" lon="9.285856978967786">
        <ele>797.07000000000005</ele>
        <time>2018-09-18T11:43:35Z</time>
      </trkpt>
      <trkpt lat="47.353345965966582" lon="9.285721024498344">
        <ele>797.07000000000005</ele>
        <time>2018-09-18T11:43:36Z</time>
      </trkpt>
      <trkpt lat="47.353794984519482" lon="9.284383021295071">
        <ele>799.47000000000003</ele>
        <time>2018-09-18T11:43:45Z</time>
      </trkpt>
      <trkpt lat="47.354180971160531" lon="9.28345799446106">
        <ele>801.88</ele>
        <time>2018-09-18T11:43:51Z</time>
      </trkpt>
      <trkpt lat="47.354261018335819" lon="9.283356992527843">
        <ele>801.88</ele>
        <time>2018-09-18T11:43:52Z</time>
      </trkpt>
      <trkpt lat="47.354343999177217" lon="9.283258002251387">
        <ele>801.88</ele>
        <time>2018-09-18T11:43:53Z</time>
      </trkpt>
      <trkpt lat="47.354429997503757" lon="9.283170998096466">
        <ele>802.36000000000001</ele>
        <time>2018-09-18T11:43:54Z</time>
      </trkpt>
      <trkpt lat="47.354533011093736" lon="9.283141996711493">
        <ele>802.84000000000003</ele>
        <time>2018-09-18T11:43:55Z</time>
      </trkpt>
      <trkpt lat="47.354639964178205" lon="9.28313403390348">
        <ele>803.32000000000005</ele>
        <time>2018-09-18T11:43:56Z</time>
      </trkpt>
      <trkpt lat="47.354744989424944" lon="9.283125987276435">
        <ele>803.32000000000005</ele>
        <time>2018-09-18T11:43:57Z</time>
      </trkpt>
      <trkpt lat="47.3548439797014" lon="9.283169992268086">
        <ele>803.79999999999995</ele>
        <time>2018-09-18T11:43:58Z</time>
      </trkpt>
      <trkpt lat="47.354943975806236" lon="9.283216008916497">
        <ele>804.27999999999997</ele>
        <time>2018-09-18T11:43:59Z</time>
      </trkpt>
      <trkpt lat="47.355045983567834" lon="9.283261019736528">
        <ele>804.75999999999999</ele>
        <time>2018-09-18T11:44:00Z</time>
      </trkpt>
      <trkpt lat="47.35544404014945" lon="9.283489007502794">
        <ele>806.67999999999995</ele>
        <time>2018-09-18T11:44:04Z</time>
      </trkpt>
      <trkpt lat="47.355543030425906" lon="9.283583974465728">
        <ele>807.15999999999997</ele>
        <time>2018-09-18T11:44:05Z</time>
      </trkpt>
      <trkpt lat="47.356529999524355" lon="9.284716034308076">
        <ele>809.57000000000005</ele>
        <time>2018-09-18T11:44:16Z</time>
      </trkpt>
      <trkpt lat="47.356619015336037" lon="9.284803038462997">
        <ele>809.57000000000005</ele>
        <time>2018-09-18T11:44:17Z</time>
      </trkpt>
      <trkpt lat="47.356886984780431" lon="9.285061033442617">
        <ele>811.00999999999999</ele>
        <time>2018-09-18T11:44:20Z</time>
      </trkpt>
      <trkpt lat="47.356976000592113" lon="9.285147031769157">
        <ele>811.00999999999999</ele>
        <time>2018-09-18T11:44:21Z</time>
      </trkpt>
      <trkpt lat="47.357899015769362" lon="9.286044985055924">
        <ele>812.92999999999995</ele>
        <time>2018-09-18T11:44:31Z</time>
      </trkpt>
      <trkpt lat="47.357971016317606" lon="9.286153027787805">
        <ele>813.40999999999997</ele>
        <time>2018-09-18T11:44:32Z</time>
      </trkpt>
      <trkpt lat="47.358034970238805" lon="9.286247994750738">
        <ele>813.88999999999999</ele>
        <time>2018-09-18T11:44:33Z</time>
      </trkpt>
      <trkpt lat="47.358138989657164" lon="9.286396019160748">
        <ele>815.34000000000003</ele>
        <time>2018-09-18T11:44:35Z</time>
      </trkpt>
      <trkpt lat="47.358446018770337" lon="9.286849983036518">
        <ele>817.25999999999999</ele>
        <time>2018-09-18T11:44:41Z</time>
      </trkpt>
      <trkpt lat="47.358498992398381" lon="9.286945033818483">
        <ele>816.77999999999997</ele>
        <time>2018-09-18T11:44:42Z</time>
      </trkpt>
      <trkpt lat="47.359165018424392" lon="9.287850027903915">
        <ele>811.00999999999999</ele>
        <time>2018-09-18T11:44:50Z</time>
      </trkpt>
      <trkpt lat="47.35956902615726" lon="9.288475988432765">
        <ele>806.67999999999995</ele>
        <time>2018-09-18T11:44:55Z</time>
      </trkpt>
      <trkpt lat="47.359639015048742" lon="9.288611020892859">
        <ele>805.72000000000003</ele>
        <time>2018-09-18T11:44:56Z</time>
      </trkpt>
      <trkpt lat="47.359710009768605" lon="9.288748987019062">
        <ele>804.75999999999999</ele>
        <time>2018-09-18T11:44:57Z</time>
      </trkpt>
      <trkpt lat="47.359778992831707" lon="9.288908997550607">
        <ele>803.79999999999995</ele>
        <time>2018-09-18T11:44:58Z</time>
      </trkpt>
      <trkpt lat="47.359824003651738" lon="9.289080994203687">
        <ele>802.84000000000003</ele>
        <time>2018-09-18T11:44:59Z</time>
      </trkpt>
      <trkpt lat="47.35987002030015" lon="9.289257014170289">
        <ele>801.88</ele>
        <time>2018-09-18T11:45:00Z</time>
      </trkpt>
      <trkpt lat="47.359993988648057" lon="9.289780966937542">
        <ele>799.95000000000005</ele>
        <time>2018-09-18T11:45:03Z</time>
      </trkpt>
      <trkpt lat="47.360045034438372" lon="9.289955981075764">
        <ele>799.95000000000005</ele>
        <time>2018-09-18T11:45:04Z</time>
      </trkpt>
      <trkpt lat="47.360115023329854" lon="9.290114985778928">
        <ele>799.47000000000003</ele>
        <time>2018-09-18T11:45:05Z</time>
      </trkpt>
      <trkpt lat="47.360185012221336" lon="9.290274996310473">
        <ele>798.50999999999999</ele>
        <time>2018-09-18T11:45:06Z</time>
      </trkpt>
      <trkpt lat="47.360259024426341" lon="9.29044296965003">
        <ele>797.54999999999995</ele>
        <time>2018-09-18T11:45:07Z</time>
      </trkpt>
      <trkpt lat="47.360357008874416" lon="9.290559981018305">
        <ele>797.07000000000005</ele>
        <time>2018-09-18T11:45:08Z</time>
      </trkpt>
      <trkpt lat="47.360458010807633" lon="9.290681015700102">
        <ele>796.11000000000001</ele>
        <time>2018-09-18T11:45:09Z</time>
      </trkpt>
      <trkpt lat="47.361565008759499" lon="9.291995968669653">
        <ele>784.09000000000003</ele>
        <time>2018-09-18T11:45:21Z</time>
      </trkpt>
      <trkpt lat="47.361763995140791" lon="9.292227979749441">
        <ele>781.21000000000004</ele>
        <time>2018-09-18T11:45:25Z</time>
      </trkpt>
      <trkpt lat="47.361794002354145" lon="9.292267961427569">
        <ele>780.73000000000002</ele>
        <time>2018-09-18T11:45:26Z</time>
      </trkpt>
      <trkpt lat="47.361786039546132" lon="9.292411962524056">
        <ele>780.25</ele>
        <time>2018-09-18T11:45:27Z</time>
      </trkpt>
      <trkpt lat="47.361756032332778" lon="9.292493015527725">
        <ele>779.76999999999998</ele>
        <time>2018-09-18T11:45:28Z</time>
      </trkpt>
      <trkpt lat="47.361715966835618" lon="9.292598962783814">
        <ele>779.76999999999998</ele>
        <time>2018-09-18T11:45:29Z</time>
      </trkpt>
      <trkpt lat="47.36167598515749" lon="9.292729971930385">
        <ele>779.28999999999996</ele>
        <time>2018-09-18T11:45:30Z</time>
      </trkpt>
      <trkpt lat="47.36150499433279" lon="9.293458024039865">
        <ele>778.80999999999995</ele>
        <time>2018-09-18T11:45:34Z</time>
      </trkpt>
      <trkpt lat="47.3614820279181" lon="9.293700009584427">
        <ele>778.32000000000005</ele>
        <time>2018-09-18T11:45:35Z</time>
      </trkpt>
      <trkpt lat="47.3614820279181" lon="9.293961022049189">
        <ele>778.32000000000005</ele>
        <time>2018-09-18T11:45:36Z</time>
      </trkpt>
      <trkpt lat="47.361559979617596" lon="9.296333016827703">
        <ele>776.88</ele>
        <time>2018-09-18T11:45:44Z</time>
      </trkpt>
      <trkpt lat="47.361867008730769" lon="9.298435030505061">
        <ele>772.08000000000004</ele>
        <time>2018-09-18T11:45:52Z</time>
      </trkpt>
      <trkpt lat="47.362395990639925" lon="9.300510976463556">
        <ele>764.87</ele>
        <time>2018-09-18T11:46:01Z</time>
      </trkpt>
      <trkpt lat="47.362416023388505" lon="9.300729995593429">
        <ele>763.89999999999998</ele>
        <time>2018-09-18T11:46:02Z</time>
      </trkpt>
      <trkpt lat="47.362403031438589" lon="9.30094800889492">
        <ele>763.41999999999996</ele>
        <time>2018-09-18T11:46:03Z</time>
      </trkpt>
      <trkpt lat="47.36236397176981" lon="9.301159987226129">
        <ele>761.98000000000002</ele>
        <time>2018-09-18T11:46:04Z</time>
      </trkpt>
      <trkpt lat="47.362295994535089" lon="9.301369031891227">
        <ele>761.01999999999998</ele>
        <time>2018-09-18T11:46:05Z</time>
      </trkpt>
      <trkpt lat="47.362218964844942" lon="9.301584027707577">
        <ele>760.53999999999996</ele>
        <time>2018-09-18T11:46:06Z</time>
      </trkpt>
      <trkpt lat="47.362111005932093" lon="9.301787037402391">
        <ele>759.58000000000004</ele>
        <time>2018-09-18T11:46:07Z</time>
      </trkpt>
      <trkpt lat="47.361996006220579" lon="9.3019990157336">
        <ele>759.10000000000002</ele>
        <time>2018-09-18T11:46:08Z</time>
      </trkpt>
      <trkpt lat="47.361042983829975" lon="9.303732980042696">
        <ele>755.73000000000002</ele>
        <time>2018-09-18T11:46:16Z</time>
      </trkpt>
      <trkpt lat="47.360958997160196" lon="9.303949987515807">
        <ele>755.73000000000002</ele>
        <time>2018-09-18T11:46:17Z</time>
      </trkpt>
      <trkpt lat="47.360899988561869" lon="9.304185016080737">
        <ele>755.25</ele>
        <time>2018-09-18T11:46:18Z</time>
      </trkpt>
      <trkpt lat="47.36083997413516" lon="9.304423984140158">
        <ele>755.25</ele>
        <time>2018-09-18T11:46:19Z</time>
      </trkpt>
      <trkpt lat="47.360808961093426" lon="9.304680973291397">
        <ele>754.76999999999998</ele>
        <time>2018-09-18T11:46:20Z</time>
      </trkpt>
      <trkpt lat="47.360794963315129" lon="9.304948020726442">
        <ele>754.76999999999998</ele>
        <time>2018-09-18T11:46:21Z</time>
      </trkpt>
      <trkpt lat="47.360808961093426" lon="9.305223030969501">
        <ele>754.76999999999998</ele>
        <time>2018-09-18T11:46:22Z</time>
      </trkpt>
      <trkpt lat="47.360822958871722" lon="9.305504998192191">
        <ele>754.76999999999998</ele>
        <time>2018-09-18T11:46:23Z</time>
      </trkpt>
      <trkpt lat="47.360963020473719" lon="9.306895975023508">
        <ele>756.21000000000004</ele>
        <time>2018-09-18T11:46:28Z</time>
      </trkpt>
      <trkpt lat="47.361022029072046" lon="9.307160004973412">
        <ele>757.17999999999995</ele>
        <time>2018-09-18T11:46:29Z</time>
      </trkpt>
      <trkpt lat="47.361701969057322" lon="9.309134026989341">
        <ele>762.94000000000005</ele>
        <time>2018-09-18T11:46:37Z</time>
      </trkpt>
      <trkpt lat="47.3620639834553" lon="9.310245970264077">
        <ele>767.26999999999998</ele>
        <time>2018-09-18T11:46:42Z</time>
      </trkpt>
      <trkpt lat="47.362168002873659" lon="9.31042299605906">
        <ele>768.23000000000002</ele>
        <time>2018-09-18T11:46:43Z</time>
      </trkpt>
      <trkpt lat="47.36229901202023" lon="9.31057495996356">
        <ele>769.19000000000005</ele>
        <time>2018-09-18T11:46:44Z</time>
      </trkpt>
      <trkpt lat="47.363525032997131" lon="9.312092000618577">
        <ele>777.84000000000003</ele>
        <time>2018-09-18T11:46:53Z</time>
      </trkpt>
      <trkpt lat="47.363595021888614" lon="9.312306996434927">
        <ele>778.80999999999995</ele>
        <time>2018-09-18T11:46:54Z</time>
      </trkpt>
      <trkpt lat="47.36365201883018" lon="9.312514029443264">
        <ele>779.76999999999998</ele>
        <time>2018-09-18T11:46:55Z</time>
      </trkpt>
      <trkpt lat="47.363708009943366" lon="9.312716033309698">
        <ele>780.25</ele>
        <time>2018-09-18T11:46:56Z</time>
      </trkpt>
      <trkpt lat="47.36376098357141" lon="9.312908984720707">
        <ele>781.21000000000004</ele>
        <time>2018-09-18T11:46:57Z</time>
      </trkpt>
      <trkpt lat="47.364113023504615" lon="9.31446298956871">
        <ele>786.98000000000002</ele>
        <time>2018-09-18T11:47:07Z</time>
      </trkpt>
      <trkpt lat="47.364607974886894" lon="9.316224027425051">
        <ele>787.94000000000005</ele>
        <time>2018-09-18T11:47:20Z</time>
      </trkpt>
      <trkpt lat="47.365164030343294" lon="9.318239036947489">
        <ele>788.89999999999998</ele>
        <time>2018-09-18T11:47:32Z</time>
      </trkpt>
      <trkpt lat="47.365494025871158" lon="9.319394985213876">
        <ele>789.86000000000001</ele>
        <time>2018-09-18T11:47:39Z</time>
      </trkpt>
      <trkpt lat="47.365542976185679" lon="9.319562036544085">
        <ele>789.86000000000001</ele>
        <time>2018-09-18T11:47:40Z</time>
      </trkpt>
      <trkpt lat="47.365802982822061" lon="9.32056400924921">
        <ele>788.89999999999998</ele>
        <time>2018-09-18T11:47:46Z</time>
      </trkpt>
      <trkpt lat="47.365833995863795" lon="9.320721002295613">
        <ele>788.41999999999996</ele>
        <time>2018-09-18T11:47:47Z</time>
      </trkpt>
      <trkpt lat="47.365838019177318" lon="9.320871960371733">
        <ele>788.41999999999996</ele>
        <time>2018-09-18T11:47:48Z</time>
      </trkpt>
      <trkpt lat="47.365838019177318" lon="9.321010010316968">
        <ele>787.94000000000005</ele>
        <time>2018-09-18T11:47:49Z</time>
      </trkpt>
      <trkpt lat="47.365818992257118" lon="9.32114596478641">
        <ele>787.46000000000004</ele>
        <time>2018-09-18T11:47:50Z</time>
      </trkpt>
      <trkpt lat="47.365780016407371" lon="9.32127496227622">
        <ele>787.46000000000004</ele>
        <time>2018-09-18T11:47:51Z</time>
      </trkpt>
      <trkpt lat="47.365726036950946" lon="9.32140102609992">
        <ele>786.98000000000002</ele>
        <time>2018-09-18T11:47:52Z</time>
      </trkpt>
      <trkpt lat="47.365666022524238" lon="9.32153002358973">
        <ele>786.5</ele>
        <time>2018-09-18T11:47:53Z</time>
      </trkpt>
      <trkpt lat="47.365577006712556" lon="9.32163798250258">
        <ele>786.5</ele>
        <time>2018-09-18T11:47:54Z</time>
      </trkpt>
      <trkpt lat="47.365479022264481" lon="9.3217249866575">
        <ele>786.5</ele>
        <time>2018-09-18T11:47:55Z</time>
      </trkpt>
      <trkpt lat="47.365359999239445" lon="9.321764968335629">
        <ele>786.01999999999998</ele>
        <time>2018-09-18T11:47:56Z</time>
      </trkpt>
      <trkpt lat="47.365240976214409" lon="9.321786006912589">
        <ele>786.01999999999998</ele>
        <time>2018-09-18T11:47:57Z</time>
      </trkpt>
      <trkpt lat="47.365117007866502" lon="9.321806961670518">
        <ele>785.52999999999997</ele>
        <time>2018-09-18T11:47:58Z</time>
      </trkpt>
      <trkpt lat="47.364988010376692" lon="9.32183001190424">
        <ele>785.04999999999995</ele>
        <time>2018-09-18T11:47:59Z</time>
      </trkpt>
      <trkpt lat="47.364574028179049" lon="9.321865970268846">
        <ele>783.61000000000001</ele>
        <time>2018-09-18T11:48:02Z</time>
      </trkpt>
      <trkpt lat="47.364327013492584" lon="9.321927996352315">
        <ele>783.61000000000001</ele>
        <time>2018-09-18T11:48:04Z</time>
      </trkpt>
      <trkpt lat="47.364218970760703" lon="9.321985999122262">
        <ele>783.61000000000001</ele>
        <time>2018-09-18T11:48:05Z</time>
      </trkpt>
      <trkpt lat="47.364116962999105" lon="9.322039978578687">
        <ele>783.61000000000001</ele>
        <time>2018-09-18T11:48:06Z</time>
      </trkpt>
      <trkpt lat="47.364053009077907" lon="9.32215103879571">
        <ele>783.61000000000001</ele>
        <time>2018-09-18T11:48:07Z</time>
      </trkpt>
      <trkpt lat="47.363991988822818" lon="9.32228397578001">
        <ele>784.09000000000003</ele>
        <time>2018-09-18T11:48:08Z</time>
      </trkpt>
      <trkpt lat="47.363928034901619" lon="9.322424037382007">
        <ele>784.09000000000003</ele>
        <time>2018-09-18T11:48:09Z</time>
      </trkpt>
      <trkpt lat="47.363863997161388" lon="9.322565020993352">
        <ele>784.09000000000003</ele>
        <time>2018-09-18T11:48:10Z</time>
      </trkpt>
      <trkpt lat="47.363771963864565" lon="9.322708016261458">
        <ele>784.09000000000003</ele>
        <time>2018-09-18T11:48:11Z</time>
      </trkpt>
      <trkpt lat="47.363682026043534" lon="9.322850005701184">
        <ele>784.09000000000003</ele>
        <time>2018-09-18T11:48:12Z</time>
      </trkpt>
      <trkpt lat="47.363596027716994" lon="9.322985038161278">
        <ele>783.61000000000001</ele>
        <time>2018-09-18T11:48:13Z</time>
      </trkpt>
      <trkpt lat="47.363534001633525" lon="9.323155023157597">
        <ele>783.61000000000001</ele>
        <time>2018-09-18T11:48:14Z</time>
      </trkpt>
      <trkpt lat="47.363497959449887" lon="9.323332970961928">
        <ele>783.13</ele>
        <time>2018-09-18T11:48:15Z</time>
      </trkpt>
      <trkpt lat="47.363464012742043" lon="9.323518965393305">
        <ele>782.64999999999998</ele>
        <time>2018-09-18T11:48:16Z</time>
      </trkpt>
      <trkpt lat="47.363429982215166" lon="9.323707977309823">
        <ele>782.64999999999998</ele>
        <time>2018-09-18T11:48:17Z</time>
      </trkpt>
      <trkpt lat="47.363360999152064" lon="9.324091030284762">
        <ele>782.64999999999998</ele>
        <time>2018-09-18T11:48:19Z</time>
      </trkpt>
      <trkpt lat="47.363234013319016" lon="9.324634009972215">
        <ele>782.16999999999996</ele>
        <time>2018-09-18T11:48:22Z</time>
      </trkpt>
      <trkpt lat="47.363154971972108" lon="9.325210014358163">
        <ele>781.69000000000005</ele>
        <time>2018-09-18T11:48:25Z</time>
      </trkpt>
      <trkpt lat="47.363058999180794" lon="9.325951980426908">
        <ele>779.76999999999998</ele>
        <time>2018-09-18T11:48:29Z</time>
      </trkpt>
      <trkpt lat="47.363042989745736" lon="9.326135041192174">
        <ele>779.28999999999996</ele>
        <time>2018-09-18T11:48:30Z</time>
      </trkpt>
      <trkpt lat="47.363026980310678" lon="9.32632002979517">
        <ele>778.80999999999995</ele>
        <time>2018-09-18T11:48:31Z</time>
      </trkpt>
      <trkpt lat="47.363046007230878" lon="9.326483979821205">
        <ele>778.32000000000005</ele>
        <time>2018-09-18T11:48:32Z</time>
      </trkpt>
      <trkpt lat="47.363063022494316" lon="9.326625969260931">
        <ele>777.84000000000003</ele>
        <time>2018-09-18T11:48:33Z</time>
      </trkpt>
      <trkpt lat="47.363079031929374" lon="9.326758990064263">
        <ele>777.36000000000001</ele>
        <time>2018-09-18T11:48:34Z</time>
      </trkpt>
      <trkpt lat="47.363091018050909" lon="9.326855968683958">
        <ele>776.88</ele>
        <time>2018-09-18T11:48:35Z</time>
      </trkpt>
      <trkpt lat="47.363112978637218" lon="9.327092003077269">
        <ele>776.39999999999998</ele>
        <time>2018-09-18T11:48:36Z</time>
      </trkpt>
      <trkpt lat="47.363083977252245" lon="9.327426021918654">
        <ele>775.44000000000005</ele>
        <time>2018-09-18T11:48:38Z</time>
      </trkpt>
      <trkpt lat="47.363067967817187" lon="9.327614028006792">
        <ele>775.44000000000005</ele>
        <time>2018-09-18T11:48:39Z</time>
      </trkpt>
      <trkpt lat="47.362849032506347" lon="9.32967103086412">
        <ele>773.51999999999998</ele>
        <time>2018-09-18T11:48:48Z</time>
      </trkpt>
      <trkpt lat="47.36245097592473" lon="9.333120016381145">
        <ele>774</ele>
        <time>2018-09-18T11:49:00Z</time>
      </trkpt>
      <trkpt lat="47.362276967614889" lon="9.336173962801695">
        <ele>775.44000000000005</ele>
        <time>2018-09-18T11:49:10Z</time>
      </trkpt>
      <trkpt lat="47.362179988995194" lon="9.338436992838979">
        <ele>775.91999999999996</ele>
        <time>2018-09-18T11:49:18Z</time>
      </trkpt>
      <trkpt lat="47.362136989831924" lon="9.33867403306067">
        <ele>776.39999999999998</ele>
        <time>2018-09-18T11:49:19Z</time>
      </trkpt>
      <trkpt lat="47.362053003162146" lon="9.338894980028272">
        <ele>776.39999999999998</ele>
        <time>2018-09-18T11:49:20Z</time>
      </trkpt>
      <trkpt lat="47.361090006306767" lon="9.341397983953357">
        <ele>782.16999999999996</ele>
        <time>2018-09-18T11:49:30Z</time>
      </trkpt>
      <trkpt lat="47.359617976471782" lon="9.345236979424954">
        <ele>792.25999999999999</ele>
        <time>2018-09-18T11:49:45Z</time>
      </trkpt>
      <trkpt lat="47.358392961323261" lon="9.348347000777721">
        <ele>800.44000000000005</ele>
        <time>2018-09-18T11:49:57Z</time>
      </trkpt>
      <trkpt lat="47.35806598328054" lon="9.34941896237433">
        <ele>801.39999999999998</ele>
        <time>2018-09-18T11:50:02Z</time>
      </trkpt>
      <trkpt lat="47.358024995774031" lon="9.349659020081163">
        <ele>800.91999999999996</ele>
        <time>2018-09-18T11:50:03Z</time>
      </trkpt>
      <trkpt lat="47.357756020501256" lon="9.351390972733498">
        <ele>799.47000000000003</ele>
        <time>2018-09-18T11:50:10Z</time>
      </trkpt>
      <trkpt lat="47.357705980539322" lon="9.351604962721467">
        <ele>798.99000000000001</ele>
        <time>2018-09-18T11:50:11Z</time>
      </trkpt>
      <trkpt lat="47.357655018568039" lon="9.351804032921791">
        <ele>798.50999999999999</ele>
        <time>2018-09-18T11:50:12Z</time>
      </trkpt>
      <trkpt lat="47.357564996927977" lon="9.351984998211265">
        <ele>798.02999999999997</ele>
        <time>2018-09-18T11:50:13Z</time>
      </trkpt>
      <trkpt lat="47.357451003044844" lon="9.352145008742809">
        <ele>797.07000000000005</ele>
        <time>2018-09-18T11:50:14Z</time>
      </trkpt>
      <trkpt lat="47.357326028868556" lon="9.352314993739128">
        <ele>796.11000000000001</ele>
        <time>2018-09-18T11:50:15Z</time>
      </trkpt>
      <trkpt lat="47.356119034811854" lon="9.353949967771769">
        <ele>789.38</ele>
        <time>2018-09-18T11:50:24Z</time>
      </trkpt>
      <trkpt lat="47.355548981577158" lon="9.354690006002784">
        <ele>786.01999999999998</ele>
        <time>2018-09-18T11:50:29Z</time>
      </trkpt>
      <trkpt lat="47.355431970208883" lon="9.354836018756032">
        <ele>785.04999999999995</ele>
        <time>2018-09-18T11:50:30Z</time>
      </trkpt>
      <trkpt lat="47.354245008900762" lon="9.355679992586374">
        <ele>778.80999999999995</ele>
        <time>2018-09-18T11:50:38Z</time>
      </trkpt>
      <trkpt lat="47.354149036109447" lon="9.355846960097551">
        <ele>777.84000000000003</ele>
        <time>2018-09-18T11:50:39Z</time>
      </trkpt>
      <trkpt lat="47.354053985327482" lon="9.356025997549295">
        <ele>777.36000000000001</ele>
        <time>2018-09-18T11:50:40Z</time>
      </trkpt>
      <trkpt lat="47.353997994214296" lon="9.356222972273827">
        <ele>777.36000000000001</ele>
        <time>2018-09-18T11:50:41Z</time>
      </trkpt>
      <trkpt lat="47.353947032243013" lon="9.356439979746938">
        <ele>776.39999999999998</ele>
        <time>2018-09-18T11:50:42Z</time>
      </trkpt>
      <trkpt lat="47.353515028953552" lon="9.358326997607946">
        <ele>771.60000000000002</ele>
        <time>2018-09-18T11:50:51Z</time>
      </trkpt>
      <trkpt lat="47.353355018422008" lon="9.359082961454988">
        <ele>768.71000000000004</ele>
        <time>2018-09-18T11:50:57Z</time>
      </trkpt>
      <trkpt lat="47.353341020643711" lon="9.359154039993882">
        <ele>768.23000000000002</ele>
        <time>2018-09-18T11:50:58Z</time>
      </trkpt>
      <trkpt lat="47.353330040350556" lon="9.359206007793546">
        <ele>767.75</ele>
        <time>2018-09-18T11:50:59Z</time>
      </trkpt>
      <trkpt lat="47.353344038128853" lon="9.359211036935449">
        <ele>767.26999999999998</ele>
        <time>2018-09-18T11:51:00Z</time>
      </trkpt>
      <trkpt lat="47.353369016200304" lon="9.359206007793546">
        <ele>766.78999999999996</ele>
        <time>2018-09-18T11:51:01Z</time>
      </trkpt>
      <trkpt lat="47.3534020408988" lon="9.359198966994882">
        <ele>766.30999999999995</ele>
        <time>2018-09-18T11:51:02Z</time>
      </trkpt>
      <trkpt lat="47.353434981778264" lon="9.35919301584363">
        <ele>765.83000000000004</ele>
        <time>2018-09-18T11:51:03Z</time>
      </trkpt>
      <trkpt lat="47.353499019518495" lon="9.35910701751709">
        <ele>765.35000000000002</ele>
        <time>2018-09-18T11:51:04Z</time>
      </trkpt>
      <trkpt lat="47.353505976498127" lon="9.359055971726775">
        <ele>764.87</ele>
        <time>2018-09-18T11:51:05Z</time>
      </trkpt>
      <trkpt lat="47.353518968448043" lon="9.358940972015262">
        <ele>763.89999999999998</ele>
        <time>2018-09-18T11:51:06Z</time>
      </trkpt>
      <trkpt lat="47.353534977883101" lon="9.358809040859342">
        <ele>763.41999999999996</ele>
        <time>2018-09-18T11:51:07Z</time>
      </trkpt>
      <trkpt lat="47.353583006188273" lon="9.358496982604265">
        <ele>762.46000000000004</ele>
        <time>2018-09-18T11:51:09Z</time>
      </trkpt>
      <trkpt lat="47.353628017008305" lon="9.358322974294424">
        <ele>761.98000000000002</ele>
        <time>2018-09-18T11:51:10Z</time>
      </trkpt>
      <trkpt lat="47.353995982557535" lon="9.357067029923201">
        <ele>759.10000000000002</ele>
        <time>2018-09-18T11:51:17Z</time>
      </trkpt>
      <trkpt lat="47.354066977277398" lon="9.35693996027112">
        <ele>758.62</ele>
        <time>2018-09-18T11:51:18Z</time>
      </trkpt>
      <trkpt lat="47.354159010574222" lon="9.356838036328554">
        <ele>758.13999999999999</ele>
        <time>2018-09-18T11:51:19Z</time>
      </trkpt>
      <trkpt lat="47.354256995022297" lon="9.356739968061447">
        <ele>757.65999999999997</ele>
        <time>2018-09-18T11:51:20Z</time>
      </trkpt>
      <trkpt lat="47.354376018047333" lon="9.356695041060448">
        <ele>757.65999999999997</ele>
        <time>2018-09-18T11:51:21Z</time>
      </trkpt>
      <trkpt lat="47.35450099222362" lon="9.35665799304843">
        <ele>757.65999999999997</ele>
        <time>2018-09-18T11:51:22Z</time>
      </trkpt>
      <trkpt lat="47.35462998971343" lon="9.356620023027062">
        <ele>757.17999999999995</ele>
        <time>2018-09-18T11:51:23Z</time>
      </trkpt>
      <trkpt lat="47.355023017153144" lon="9.356532013043761">
        <ele>756.21000000000004</ele>
        <time>2018-09-18T11:51:26Z</time>
      </trkpt>
      <trkpt lat="47.355259973555803" lon="9.35657199472189">
        <ele>755.73000000000002</ele>
        <time>2018-09-18T11:51:28Z</time>
      </trkpt>
      <trkpt lat="47.356728985905647" lon="9.356747008860111">
        <ele>753.33000000000004</ele>
        <time>2018-09-18T11:51:39Z</time>
      </trkpt>
      <trkpt lat="47.356965020298958" lon="9.356709038838744">
        <ele>752.37</ele>
        <time>2018-09-18T11:51:41Z</time>
      </trkpt>
      <trkpt lat="47.357074990868568" lon="9.35663603246212">
        <ele>752.37</ele>
        <time>2018-09-18T11:51:42Z</time>
      </trkpt>
      <trkpt lat="47.357190996408463" lon="9.356540981680155">
        <ele>751.40999999999997</ele>
        <time>2018-09-18T11:51:43Z</time>
      </trkpt>
      <trkpt lat="47.358271004632115" lon="9.355780994519591">
        <ele>742.75999999999999</ele>
        <time>2018-09-18T11:51:51Z</time>
      </trkpt>
      <trkpt lat="47.358395978808403" lon="9.355650991201401">
        <ele>741.30999999999995</ele>
        <time>2018-09-18T11:51:52Z</time>
      </trkpt>
      <trkpt lat="47.358521036803722" lon="9.355500033125281">
        <ele>740.35000000000002</ele>
        <time>2018-09-18T11:51:53Z</time>
      </trkpt>
      <trkpt lat="47.359178010374308" lon="9.354774998500943">
        <ele>734.10000000000002</ele>
        <time>2018-09-18T11:51:58Z</time>
      </trkpt>
      <trkpt lat="47.359318993985653" lon="9.354670979082584">
        <ele>733.13999999999999</ele>
        <time>2018-09-18T11:51:59Z</time>
      </trkpt>
      <trkpt lat="47.35944296233356" lon="9.354580035433173">
        <ele>732.17999999999995</ele>
        <time>2018-09-18T11:52:00Z</time>
      </trkpt>
      <trkpt lat="47.359596015885472" lon="9.354563020169735">
        <ele>731.22000000000003</ele>
        <time>2018-09-18T11:52:01Z</time>
      </trkpt>
      <trkpt lat="47.359735993668437" lon="9.354547010734677">
        <ele>729.77999999999997</ele>
        <time>2018-09-18T11:52:02Z</time>
      </trkpt>
      <trkpt lat="47.359872031956911" lon="9.354564025998116">
        <ele>728.82000000000005</ele>
        <time>2018-09-18T11:52:03Z</time>
      </trkpt>
      <trkpt lat="47.360003041103482" lon="9.354648012667894">
        <ele>727.86000000000001</ele>
        <time>2018-09-18T11:52:04Z</time>
      </trkpt>
      <trkpt lat="47.360133966431022" lon="9.354734010994434">
        <ele>726.88999999999999</ele>
        <time>2018-09-18T11:52:05Z</time>
      </trkpt>
      <trkpt lat="47.360253995284438" lon="9.354862002655864">
        <ele>726.40999999999997</ele>
        <time>2018-09-18T11:52:06Z</time>
      </trkpt>
      <trkpt lat="47.361661987379193" lon="9.356262031942606">
        <ele>727.86000000000001</ele>
        <time>2018-09-18T11:52:17Z</time>
      </trkpt>
      <trkpt lat="47.36178201623261" lon="9.356317017227411">
        <ele>728.34000000000003</ele>
        <time>2018-09-18T11:52:18Z</time>
      </trkpt>
      <trkpt lat="47.361905984580517" lon="9.356364961713553">
        <ele>728.34000000000003</ele>
        <time>2018-09-18T11:52:19Z</time>
      </trkpt>
      <trkpt lat="47.363080959767103" lon="9.356652041897178">
        <ele>730.25999999999999</ele>
        <time>2018-09-18T11:52:27Z</time>
      </trkpt>
      <trkpt lat="47.363208029419184" lon="9.356641983613372">
        <ele>729.77999999999997</ele>
        <time>2018-09-18T11:52:28Z</time>
      </trkpt>
      <trkpt lat="47.36332998611033" lon="9.356566965579987">
        <ele>729.29999999999995</ele>
        <time>2018-09-18T11:52:29Z</time>
      </trkpt>
      <trkpt lat="47.363442974165082" lon="9.356474010273814">
        <ele>728.82000000000005</ele>
        <time>2018-09-18T11:52:30Z</time>
      </trkpt>
      <trkpt lat="47.363531989976764" lon="9.356347024440765">
        <ele>728.34000000000003</ele>
        <time>2018-09-18T11:52:31Z</time>
      </trkpt>
      <trkpt lat="47.363612959161401" lon="9.356200005859137">
        <ele>727.86000000000001</ele>
        <time>2018-09-18T11:52:32Z</time>
      </trkpt>
      <trkpt lat="47.363713039085269" lon="9.356017028912902">
        <ele>727.86000000000001</ele>
        <time>2018-09-18T11:52:33Z</time>
      </trkpt>
      <trkpt lat="47.363750003278255" lon="9.355866992846131">
        <ele>727.37</ele>
        <time>2018-09-18T11:52:34Z</time>
      </trkpt>
      <trkpt lat="47.363799037411809" lon="9.355663983151317">
        <ele>726.88999999999999</ele>
        <time>2018-09-18T11:52:35Z</time>
      </trkpt>
      <trkpt lat="47.363849999383092" lon="9.355452004820108">
        <ele>726.40999999999997</ele>
        <time>2018-09-18T11:52:36Z</time>
      </trkpt>
      <trkpt lat="47.363920994102955" lon="9.355244971811771">
        <ele>725.45000000000005</ele>
        <time>2018-09-18T11:52:37Z</time>
      </trkpt>
      <trkpt lat="47.363998023793101" lon="9.355041962116957">
        <ele>724.97000000000003</ele>
        <time>2018-09-18T11:52:38Z</time>
      </trkpt>
      <trkpt lat="47.364100031554699" lon="9.354860996827483">
        <ele>724.00999999999999</ele>
        <time>2018-09-18T11:52:39Z</time>
      </trkpt>
      <trkpt lat="47.364222994074225" lon="9.35470400378108">
        <ele>723.52999999999997</ele>
        <time>2018-09-18T11:52:40Z</time>
      </trkpt>
      <trkpt lat="47.364349979907274" lon="9.354541981592774">
        <ele>723.04999999999995</ele>
        <time>2018-09-18T11:52:41Z</time>
      </trkpt>
      <trkpt lat="47.364485012367368" lon="9.354390017688274">
        <ele>722.57000000000005</ele>
        <time>2018-09-18T11:52:42Z</time>
      </trkpt>
      <trkpt lat="47.365611037239432" lon="9.353487035259605">
        <ele>720.15999999999997</ele>
        <time>2018-09-18T11:52:49Z</time>
      </trkpt>
      <trkpt lat="47.366795986890793" lon="9.352639960125089">
        <ele>718.24000000000001</ele>
        <time>2018-09-18T11:52:56Z</time>
      </trkpt>
      <trkpt lat="47.366974018514156" lon="9.352570977061987">
        <ele>718.24000000000001</ele>
        <time>2018-09-18T11:52:57Z</time>
      </trkpt>
      <trkpt lat="47.367162024602294" lon="9.352563014253974">
        <ele>718.24000000000001</ele>
        <time>2018-09-18T11:52:58Z</time>
      </trkpt>
      <trkpt lat="47.36754298210144" lon="9.352518003433943">
        <ele>718.24000000000001</ele>
        <time>2018-09-18T11:53:00Z</time>
      </trkpt>
      <trkpt lat="47.369133029133081" lon="9.352381965145469">
        <ele>723.52999999999997</ele>
        <time>2018-09-18T11:53:08Z</time>
      </trkpt>
      <trkpt lat="47.369705010205507" lon="9.352473998442292">
        <ele>727.37</ele>
        <time>2018-09-18T11:53:11Z</time>
      </trkpt>
      <trkpt lat="47.369892010465264" lon="9.352552033960819">
        <ele>728.82000000000005</ele>
        <time>2018-09-18T11:53:12Z</time>
      </trkpt>
      <trkpt lat="47.370774038136005" lon="9.352956963703036">
        <ele>736.02999999999997</ele>
        <time>2018-09-18T11:53:17Z</time>
      </trkpt>
      <trkpt lat="47.370929019525647" lon="9.353085961192846">
        <ele>737.47000000000003</ele>
        <time>2018-09-18T11:53:18Z</time>
      </trkpt>
      <trkpt lat="47.371331015601754" lon="9.353420985862613">
        <ele>741.30999999999995</ele>
        <time>2018-09-18T11:53:21Z</time>
      </trkpt>
      <trkpt lat="47.371497983112931" lon="9.353504972532392">
        <ele>742.75999999999999</ele>
        <time>2018-09-18T11:53:22Z</time>
      </trkpt>
      <trkpt lat="47.372545972466469" lon="9.353936975821853">
        <ele>752.37</ele>
        <time>2018-09-18T11:53:29Z</time>
      </trkpt>
      <trkpt lat="47.372667007148266" lon="9.353939993306994">
        <ele>753.80999999999995</ele>
        <time>2018-09-18T11:53:30Z</time>
      </trkpt>
      <trkpt lat="47.372787036001682" lon="9.35390998609364">
        <ele>755.25</ele>
        <time>2018-09-18T11:53:31Z</time>
      </trkpt>
      <trkpt lat="47.372908992692828" lon="9.353868998587132">
        <ele>757.17999999999995</ele>
        <time>2018-09-18T11:53:32Z</time>
      </trkpt>
      <trkpt lat="47.373028015717864" lon="9.353816024959087">
        <ele>758.62</ele>
        <time>2018-09-18T11:53:33Z</time>
      </trkpt>
      <trkpt lat="47.373244017362595" lon="9.353718040511012">
        <ele>761.98000000000002</ele>
        <time>2018-09-18T11:53:35Z</time>
      </trkpt>
      <trkpt lat="47.373330015689135" lon="9.35363195836544">
        <ele>763.41999999999996</ele>
        <time>2018-09-18T11:53:36Z</time>
      </trkpt>
      <trkpt lat="47.373417019844055" lon="9.353544032201171">
        <ele>765.35000000000002</ele>
        <time>2018-09-18T11:53:37Z</time>
      </trkpt>
      <trkpt lat="47.374163009226322" lon="9.352626968175173">
        <ele>772.55999999999995</ele>
        <time>2018-09-18T11:53:45Z</time>
      </trkpt>
      <trkpt lat="47.374206008389592" lon="9.352470980957151">
        <ele>773.03999999999996</ele>
        <time>2018-09-18T11:53:46Z</time>
      </trkpt>
      <trkpt lat="47.374248001724482" lon="9.352323040366173">
        <ele>774</ele>
        <time>2018-09-18T11:53:47Z</time>
      </trkpt>
      <trkpt lat="47.374270968139172" lon="9.352169986814261">
        <ele>774.48000000000002</ele>
        <time>2018-09-18T11:53:48Z</time>
      </trkpt>
      <trkpt lat="47.374270968139172" lon="9.352000001817942">
        <ele>774.48000000000002</ele>
        <time>2018-09-18T11:53:49Z</time>
      </trkpt>
      <trkpt lat="47.374270968139172" lon="9.351811995729804">
        <ele>775.44000000000005</ele>
        <time>2018-09-18T11:53:50Z</time>
      </trkpt>
      <trkpt lat="47.374253030866385" lon="9.351655002683401">
        <ele>775.44000000000005</ele>
        <time>2018-09-18T11:53:51Z</time>
      </trkpt>
      <trkpt lat="47.374221011996269" lon="9.351491974666715">
        <ele>775.91999999999996</ele>
        <time>2018-09-18T11:53:52Z</time>
      </trkpt>
      <trkpt lat="47.374172983691096" lon="9.351348979398608">
        <ele>776.39999999999998</ele>
        <time>2018-09-18T11:53:53Z</time>
      </trkpt>
      <trkpt lat="47.374111041426659" lon="9.351207995787263">
        <ele>777.36000000000001</ele>
        <time>2018-09-18T11:53:54Z</time>
      </trkpt>
      <trkpt lat="47.374044992029667" lon="9.351069023832679">
        <ele>777.84000000000003</ele>
        <time>2018-09-18T11:53:55Z</time>
      </trkpt>
      <trkpt lat="47.373951030895114" lon="9.350955029949546">
        <ele>778.80999999999995</ele>
        <time>2018-09-18T11:53:56Z</time>
      </trkpt>
      <trkpt lat="47.373852040618658" lon="9.35083600692451">
        <ele>779.28999999999996</ele>
        <time>2018-09-18T11:53:57Z</time>
      </trkpt>
      <trkpt lat="47.373011000454426" lon="9.349790029227734">
        <ele>784.57000000000005</ele>
        <time>2018-09-18T11:54:05Z</time>
      </trkpt>
      <trkpt lat="47.372933970764279" lon="9.349656002596021">
        <ele>785.52999999999997</ele>
        <time>2018-09-18T11:54:06Z</time>
      </trkpt>
      <trkpt lat="47.372904969379306" lon="9.34950202703476">
        <ele>786.01999999999998</ele>
        <time>2018-09-18T11:54:07Z</time>
      </trkpt>
      <trkpt lat="47.372876973822713" lon="9.349349979311228">
        <ele>786.98000000000002</ele>
        <time>2018-09-18T11:54:08Z</time>
      </trkpt>
      <trkpt lat="47.372899018228054" lon="9.349185023456812">
        <ele>787.94000000000005</ele>
        <time>2018-09-18T11:54:09Z</time>
      </trkpt>
      <trkpt lat="47.372923996299505" lon="9.349013026803732">
        <ele>788.89999999999998</ele>
        <time>2018-09-18T11:54:10Z</time>
      </trkpt>
      <trkpt lat="47.372949980199337" lon="9.348834995180368">
        <ele>789.86000000000001</ele>
        <time>2018-09-18T11:54:11Z</time>
      </trkpt>
      <trkpt lat="47.373059028759599" lon="9.348080959171057">
        <ele>794.66999999999996</ele>
        <time>2018-09-18T11:54:15Z</time>
      </trkpt>
      <trkpt lat="47.373119965195656" lon="9.347910974174738">
        <ele>795.63</ele>
        <time>2018-09-18T11:54:16Z</time>
      </trkpt>
      <trkpt lat="47.373195989057422" lon="9.347759010270238">
        <ele>796.59000000000003</ele>
        <time>2018-09-18T11:54:17Z</time>
      </trkpt>
      <trkpt lat="47.373287016525865" lon="9.347620960325003">
        <ele>797.54999999999995</ele>
        <time>2018-09-18T11:54:18Z</time>
      </trkpt>
      <trkpt lat="47.373392041772604" lon="9.34750696644187">
        <ele>798.99000000000001</ele>
        <time>2018-09-18T11:54:19Z</time>
      </trkpt>
      <trkpt lat="47.373790014535189" lon="9.347002040594816">
        <ele>803.79999999999995</ele>
        <time>2018-09-18T11:54:23Z</time>
      </trkpt>
      <trkpt lat="47.373853968456388" lon="9.346846975386143">
        <ele>804.75999999999999</ele>
        <time>2018-09-18T11:54:24Z</time>
      </trkpt>
      <trkpt lat="47.373904008418322" lon="9.346676990389824">
        <ele>806.20000000000005</ele>
        <time>2018-09-18T11:54:25Z</time>
      </trkpt>
      <trkpt lat="47.373954970389605" lon="9.346507005393505">
        <ele>807.15999999999997</ele>
        <time>2018-09-18T11:54:26Z</time>
      </trkpt>
      <trkpt lat="47.373997969552875" lon="9.346344983205199">
        <ele>808.13</ele>
        <time>2018-09-18T11:54:27Z</time>
      </trkpt>
      <trkpt lat="47.374026970937848" lon="9.346171980723739">
        <ele>808.61000000000001</ele>
        <time>2018-09-18T11:54:28Z</time>
      </trkpt>
      <trkpt lat="47.374341040849686" lon="9.345105970278382">
        <ele>811.49000000000001</ele>
        <time>2018-09-18T11:54:36Z</time>
      </trkpt>
      <trkpt lat="47.374366018921137" lon="9.345021983608604">
        <ele>811.49000000000001</ele>
        <time>2018-09-18T11:54:37Z</time>
      </trkpt>
      <trkpt lat="47.374386973679066" lon="9.344953000545502">
        <ele>811.49000000000001</ele>
        <time>2018-09-18T11:54:38Z</time>
      </trkpt>
      <trkpt lat="47.374483030289412" lon="9.344857027754188">
        <ele>811.97000000000003</ele>
        <time>2018-09-18T11:54:39Z</time>
      </trkpt>
      <trkpt lat="47.374530974775553" lon="9.344872031360865">
        <ele>811.97000000000003</ele>
        <time>2018-09-18T11:54:40Z</time>
      </trkpt>
      <trkpt lat="47.374595012515783" lon="9.344892986118794">
        <ele>812.45000000000005</ele>
        <time>2018-09-18T11:54:41Z</time>
      </trkpt>
      <trkpt lat="47.374673970043659" lon="9.344917964190245">
        <ele>812.45000000000005</ele>
        <time>2018-09-18T11:54:42Z</time>
      </trkpt>
      <trkpt lat="47.375436974689364" lon="9.345166990533471">
        <ele>810.52999999999997</ele>
        <time>2018-09-18T11:54:48Z</time>
      </trkpt>
      <trkpt lat="47.376658972352743" lon="9.345401013270021">
        <ele>803.79999999999995</ele>
        <time>2018-09-18T11:54:56Z</time>
      </trkpt>
      <trkpt lat="47.378629976883531" lon="9.345268998295069">
        <ele>789.38</ele>
        <time>2018-09-18T11:55:08Z</time>
      </trkpt>
      <trkpt lat="47.380556976422668" lon="9.345550965517759">
        <ele>771.60000000000002</ele>
        <time>2018-09-18T11:55:19Z</time>
      </trkpt>
      <trkpt lat="47.382154986262321" lon="9.345252988860011">
        <ele>756.69000000000005</ele>
        <time>2018-09-18T11:55:27Z</time>
      </trkpt>
      <trkpt lat="47.384468978270888" lon="9.344381019473076">
        <ele>735.07000000000005</ele>
        <time>2018-09-18T11:55:38Z</time>
      </trkpt>
      <trkpt lat="47.386154998093843" lon="9.34394096955657">
        <ele>718.72000000000003</ele>
        <time>2018-09-18T11:55:47Z</time>
      </trkpt>
      <trkpt lat="47.387181026861072" lon="9.343911968171597">
        <ele>710.07000000000005</ele>
        <time>2018-09-18T11:55:54Z</time>
      </trkpt>
      <trkpt lat="47.387295020744205" lon="9.343934012576938">
        <ele>708.63</ele>
        <time>2018-09-18T11:55:55Z</time>
      </trkpt>
      <trkpt lat="47.387513034045696" lon="9.344041971489787">
        <ele>706.71000000000004</ele>
        <time>2018-09-18T11:55:57Z</time>
      </trkpt>
      <trkpt lat="47.38760800100863" lon="9.344131993129849">
        <ele>705.75</ele>
        <time>2018-09-18T11:55:58Z</time>
      </trkpt>
      <trkpt lat="47.387701962143183" lon="9.344221008941531">
        <ele>704.77999999999997</ele>
        <time>2018-09-18T11:55:59Z</time>
      </trkpt>
      <trkpt lat="47.387796007096767" lon="9.344310024753213">
        <ele>703.82000000000005</ele>
        <time>2018-09-18T11:56:00Z</time>
      </trkpt>
      <trkpt lat="47.387868007645011" lon="9.344432987272739">
        <ele>702.86000000000001</ele>
        <time>2018-09-18T11:56:01Z</time>
      </trkpt>
      <trkpt lat="47.387927016243339" lon="9.344577994197607">
        <ele>701.89999999999998</ele>
        <time>2018-09-18T11:56:02Z</time>
      </trkpt>
      <trkpt lat="47.387986024841666" lon="9.344723001122475">
        <ele>700.46000000000004</ele>
        <time>2018-09-18T11:56:03Z</time>
      </trkpt>
      <trkpt lat="47.388044027611613" lon="9.344865996390581">
        <ele>699.5</ele>
        <time>2018-09-18T11:56:04Z</time>
      </trkpt>
      <trkpt lat="47.388075962662697" lon="9.345032041892409">
        <ele>698.04999999999995</ele>
        <time>2018-09-18T11:56:05Z</time>
      </trkpt>
      <trkpt lat="47.388089038431644" lon="9.345203032717109">
        <ele>696.61000000000001</ele>
        <time>2018-09-18T11:56:06Z</time>
      </trkpt>
      <trkpt lat="47.38810203038156" lon="9.345376035198569">
        <ele>695.16999999999996</ele>
        <time>2018-09-18T11:56:07Z</time>
      </trkpt>
      <trkpt lat="47.388091972097754" lon="9.345565969124436">
        <ele>694.21000000000004</ele>
        <time>2018-09-18T11:56:08Z</time>
      </trkpt>
      <trkpt lat="47.388049978762865" lon="9.345754981040955">
        <ele>692.76999999999998</ele>
        <time>2018-09-18T11:56:09Z</time>
      </trkpt>
      <trkpt lat="47.388003962114453" lon="9.345963019877672">
        <ele>691.33000000000004</ele>
        <time>2018-09-18T11:56:10Z</time>
      </trkpt>
      <trkpt lat="47.387959035113454" lon="9.346182961016893">
        <ele>690.36000000000001</ele>
        <time>2018-09-18T11:56:11Z</time>
      </trkpt>
      <trkpt lat="47.387916035950184" lon="9.34641002677381">
        <ele>688.91999999999996</ele>
        <time>2018-09-18T11:56:12Z</time>
      </trkpt>
      <trkpt lat="47.387873036786914" lon="9.346637008711696">
        <ele>687.48000000000002</ele>
        <time>2018-09-18T11:56:13Z</time>
      </trkpt>
      <trkpt lat="47.387831965461373" lon="9.346855022013187">
        <ele>686.03999999999996</ele>
        <time>2018-09-18T11:56:14Z</time>
      </trkpt>
      <trkpt lat="47.387831965461373" lon="9.347080998122692">
        <ele>685.08000000000004</ele>
        <time>2018-09-18T11:56:15Z</time>
      </trkpt>
      <trkpt lat="47.387831965461373" lon="9.347307980060577">
        <ele>684.12</ele>
        <time>2018-09-18T11:56:16Z</time>
      </trkpt>
      <trkpt lat="47.387831965461373" lon="9.348896015435457">
        <ele>680.75</ele>
        <time>2018-09-18T11:56:24Z</time>
      </trkpt>
      <trkpt lat="47.387848980724812" lon="9.349298011511564">
        <ele>680.75</ele>
        <time>2018-09-18T11:56:26Z</time>
      </trkpt>
      <trkpt lat="47.387898014858365" lon="9.349476965144277">
        <ele>681.23000000000002</ele>
        <time>2018-09-18T11:56:27Z</time>
      </trkpt>
      <trkpt lat="47.387950988486409" lon="9.349647033959627">
        <ele>681.71000000000004</ele>
        <time>2018-09-18T11:56:28Z</time>
      </trkpt>
      <trkpt lat="47.388026006519794" lon="9.349795980378985">
        <ele>682.19000000000005</ele>
        <time>2018-09-18T11:56:29Z</time>
      </trkpt>
      <trkpt lat="47.38810102455318" lon="9.349947022274137">
        <ele>683.14999999999998</ele>
        <time>2018-09-18T11:56:30Z</time>
      </trkpt>
      <trkpt lat="47.388175036758184" lon="9.350094040855765">
        <ele>684.12</ele>
        <time>2018-09-18T11:56:31Z</time>
      </trkpt>
      <trkpt lat="47.388315014541149" lon="9.350387994199991">
        <ele>686.03999999999996</ele>
        <time>2018-09-18T11:56:33Z</time>
      </trkpt>
      <trkpt lat="47.388365976512432" lon="9.350553033873439">
        <ele>687</ele>
        <time>2018-09-18T11:56:34Z</time>
      </trkpt>
      <trkpt lat="47.388418028131127" lon="9.350721007212997">
        <ele>687.96000000000004</ele>
        <time>2018-09-18T11:56:35Z</time>
      </trkpt>
      <trkpt lat="47.388461027294397" lon="9.35089903883636">
        <ele>688.91999999999996</ele>
        <time>2018-09-18T11:56:36Z</time>
      </trkpt>
      <trkpt lat="47.388486005365849" lon="9.351081009954214">
        <ele>689.88</ele>
        <time>2018-09-18T11:56:37Z</time>
      </trkpt>
      <trkpt lat="47.388604022562504" lon="9.352002013474703">
        <ele>694.21000000000004</ele>
        <time>2018-09-18T11:56:42Z</time>
      </trkpt>
      <trkpt lat="47.388604022562504" lon="9.352671978995204">
        <ele>697.09000000000003</ele>
        <time>2018-09-18T11:56:45Z</time>
      </trkpt>
      <trkpt lat="47.388475025072694" lon="9.353677975013852">
        <ele>699.01999999999998</ele>
        <time>2018-09-18T11:56:49Z</time>
      </trkpt>
      <trkpt lat="47.388177970424294" lon="9.354603001847863">
        <ele>701.41999999999996</ele>
        <time>2018-09-18T11:56:54Z</time>
      </trkpt>
      <trkpt lat="47.387914024293423" lon="9.355770014226437">
        <ele>708.14999999999998</ele>
        <time>2018-09-18T11:57:00Z</time>
      </trkpt>
      <trkpt lat="47.387900026515126" lon="9.355964977294207">
        <ele>709.11000000000001</ele>
        <time>2018-09-18T11:57:01Z</time>
      </trkpt>
      <trkpt lat="47.38790899515152" lon="9.356171004474163">
        <ele>710.07000000000005</ele>
        <time>2018-09-18T11:57:02Z</time>
      </trkpt>
      <trkpt lat="47.387921987101436" lon="9.356381976976991">
        <ele>711.02999999999997</ele>
        <time>2018-09-18T11:57:03Z</time>
      </trkpt>
      <trkpt lat="47.387969009578228" lon="9.35659496113658">
        <ele>711.99000000000001</ele>
        <time>2018-09-18T11:57:04Z</time>
      </trkpt>
      <trkpt lat="47.388397995382547" lon="9.358596978709102">
        <ele>721.61000000000001</ele>
        <time>2018-09-18T11:57:12Z</time>
      </trkpt>
      <trkpt lat="47.388616008684039" lon="9.359873039647937">
        <ele>728.82000000000005</ele>
        <time>2018-09-18T11:57:17Z</time>
      </trkpt>
      <trkpt lat="47.388610979542136" lon="9.360121982172132">
        <ele>730.25999999999999</ele>
        <time>2018-09-18T11:57:18Z</time>
      </trkpt>
      <trkpt lat="47.388586001470685" lon="9.360378971323371">
        <ele>731.70000000000005</ele>
        <time>2018-09-18T11:57:19Z</time>
      </trkpt>
      <trkpt lat="47.388367988169193" lon="9.361688978970051">
        <ele>739.87</ele>
        <time>2018-09-18T11:57:24Z</time>
      </trkpt>
      <trkpt lat="47.388348961248994" lon="9.361930964514613">
        <ele>741.30999999999995</ele>
        <time>2018-09-18T11:57:25Z</time>
      </trkpt>
      <trkpt lat="47.388330018147826" lon="9.362162975594401">
        <ele>743.24000000000001</ele>
        <time>2018-09-18T11:57:26Z</time>
      </trkpt>
      <trkpt lat="47.388291964307427" lon="9.362378977239132">
        <ele>745.15999999999997</ele>
        <time>2018-09-18T11:57:27Z</time>
      </trkpt>
      <trkpt lat="47.388249970972538" lon="9.362577963620424">
        <ele>746.60000000000002</ele>
        <time>2018-09-18T11:57:28Z</time>
      </trkpt>
      <trkpt lat="47.388233039528131" lon="9.362786002457142">
        <ele>748.51999999999998</ele>
        <time>2018-09-18T11:57:29Z</time>
      </trkpt>
      <trkpt lat="47.388223987072706" lon="9.363008039072156">
        <ele>749.97000000000003</ele>
        <time>2018-09-18T11:57:30Z</time>
      </trkpt>
      <trkpt lat="47.388232033699751" lon="9.363224962726235">
        <ele>751.88999999999999</ele>
        <time>2018-09-18T11:57:31Z</time>
      </trkpt>
      <trkpt lat="47.388282995671034" lon="9.363444987684488">
        <ele>753.33000000000004</ele>
        <time>2018-09-18T11:57:32Z</time>
      </trkpt>
      <trkpt lat="47.388334963470697" lon="9.363669035956264">
        <ele>754.76999999999998</ele>
        <time>2018-09-18T11:57:33Z</time>
      </trkpt>
      <trkpt lat="47.388373017311096" lon="9.363894006237388">
        <ele>756.21000000000004</ele>
        <time>2018-09-18T11:57:34Z</time>
      </trkpt>
      <trkpt lat="47.388407969847322" lon="9.364118976518512">
        <ele>757.65999999999997</ele>
        <time>2018-09-18T11:57:35Z</time>
      </trkpt>
      <trkpt lat="47.388430014252663" lon="9.364352999255061">
        <ele>759.10000000000002</ele>
        <time>2018-09-18T11:57:36Z</time>
      </trkpt>
      <trkpt lat="47.388417022302747" lon="9.364787014201284">
        <ele>761.5</ele>
        <time>2018-09-18T11:57:38Z</time>
      </trkpt>
      <trkpt lat="47.38840595819056" lon="9.365007039159536">
        <ele>762.46000000000004</ele>
        <time>2018-09-18T11:57:39Z</time>
      </trkpt>
      <trkpt lat="47.388358013704419" lon="9.365217005833983">
        <ele>763.89999999999998</ele>
        <time>2018-09-18T11:57:40Z</time>
      </trkpt>
      <trkpt lat="47.38827402703464" lon="9.365419009700418">
        <ele>764.87</ele>
        <time>2018-09-18T11:57:41Z</time>
      </trkpt>
      <trkpt lat="47.388185011222959" lon="9.365607015788555">
        <ele>766.30999999999995</ele>
        <time>2018-09-18T11:57:42Z</time>
      </trkpt>
      <trkpt lat="47.388098007068038" lon="9.36578999273479">
        <ele>767.75</ele>
        <time>2018-09-18T11:57:43Z</time>
      </trkpt>
      <trkpt lat="47.388013014569879" lon="9.365970036014915">
        <ele>769.19000000000005</ele>
        <time>2018-09-18T11:57:44Z</time>
      </trkpt>
      <trkpt lat="47.387921987101436" lon="9.366141026839614">
        <ele>770.63</ele>
        <time>2018-09-18T11:57:45Z</time>
      </trkpt>
      <trkpt lat="47.387356963008642" lon="9.367054989561439">
        <ele>779.76999999999998</ele>
        <time>2018-09-18T11:57:51Z</time>
      </trkpt>
      <trkpt lat="47.387316981330514" lon="9.367132019251585">
        <ele>780.73000000000002</ele>
        <time>2018-09-18T11:57:52Z</time>
      </trkpt>
      <trkpt lat="47.387280017137527" lon="9.367317007854581">
        <ele>781.69000000000005</ele>
        <time>2018-09-18T11:57:53Z</time>
      </trkpt>
      <trkpt lat="47.386928983032703" lon="9.368363991379738">
        <ele>787.94000000000005</ele>
        <time>2018-09-18T11:58:01Z</time>
      </trkpt>
      <trkpt lat="47.386853964999318" lon="9.370149001479149">
        <ele>793.22000000000003</ele>
        <time>2018-09-18T11:58:09Z</time>
      </trkpt>
      <trkpt lat="47.387196030467749" lon="9.372361991554499">
        <ele>788.41999999999996</ele>
        <time>2018-09-18T11:58:17Z</time>
      </trkpt>
      <trkpt lat="47.387838000431657" lon="9.375099018216133">
        <ele>784.57000000000005</ele>
        <time>2018-09-18T11:58:26Z</time>
      </trkpt>
      <trkpt lat="47.388157015666366" lon="9.37633995898068">
        <ele>786.5</ele>
        <time>2018-09-18T11:58:32Z</time>
      </trkpt>
      <trkpt lat="47.388224992901087" lon="9.376799035817385">
        <ele>787.46000000000004</ele>
        <time>2018-09-18T11:58:34Z</time>
      </trkpt>
      <trkpt lat="47.388258017599583" lon="9.377029035240412">
        <ele>787.94000000000005</ele>
        <time>2018-09-18T11:58:35Z</time>
      </trkpt>
      <trkpt lat="47.388247959315777" lon="9.37726397998631">
        <ele>788.41999999999996</ele>
        <time>2018-09-18T11:58:36Z</time>
      </trkpt>
      <trkpt lat="47.388227004557848" lon="9.377494985237718">
        <ele>788.89999999999998</ele>
        <time>2018-09-18T11:58:37Z</time>
      </trkpt>
      <trkpt lat="47.388193979859352" lon="9.377728002145886">
        <ele>789.38</ele>
        <time>2018-09-18T11:58:38Z</time>
      </trkpt>
      <trkpt lat="47.388161038979888" lon="9.377962024882436">
        <ele>789.86000000000001</ele>
        <time>2018-09-18T11:58:39Z</time>
      </trkpt>
      <trkpt lat="47.388094989582896" lon="9.378174003213644">
        <ele>790.34000000000003</ele>
        <time>2018-09-18T11:58:40Z</time>
      </trkpt>
      <trkpt lat="47.388019971549511" lon="9.378382964059711">
        <ele>790.82000000000005</ele>
        <time>2018-09-18T11:58:41Z</time>
      </trkpt>
      <trkpt lat="47.387942019850016" lon="9.378587985411286">
        <ele>791.29999999999995</ele>
        <time>2018-09-18T11:58:42Z</time>
      </trkpt>
      <trkpt lat="47.387111037969589" lon="9.380165040493012">
        <ele>794.66999999999996</ele>
        <time>2018-09-18T11:58:50Z</time>
      </trkpt>
      <trkpt lat="47.386101018637419" lon="9.382126992568374">
        <ele>797.54999999999995</ele>
        <time>2018-09-18T11:58:59Z</time>
      </trkpt>
      <trkpt lat="47.386026000604033" lon="9.382385993376374">
        <ele>797.54999999999995</ele>
        <time>2018-09-18T11:59:00Z</time>
      </trkpt>
      <trkpt lat="47.385984007269144" lon="9.382658991962671">
        <ele>798.50999999999999</ele>
        <time>2018-09-18T11:59:01Z</time>
      </trkpt>
      <trkpt lat="47.385876970365644" lon="9.384877011179924">
        <ele>806.20000000000005</ele>
        <time>2018-09-18T11:59:09Z</time>
      </trkpt>
      <trkpt lat="47.386223981156945" lon="9.386991010978818">
        <ele>813.40999999999997</ele>
        <time>2018-09-18T11:59:17Z</time>
      </trkpt>
      <trkpt lat="47.386651961132884" lon="9.388825977221131">
        <ele>820.13999999999999</ele>
        <time>2018-09-18T11:59:25Z</time>
      </trkpt>
      <trkpt lat="47.386801997199655" lon="9.38978897407651">
        <ele>823.99000000000001</ele>
        <time>2018-09-18T11:59:32Z</time>
      </trkpt>
      <trkpt lat="47.386801997199655" lon="9.390059038996697">
        <ele>824.95000000000005</ele>
        <time>2018-09-18T11:59:34Z</time>
      </trkpt>
      <trkpt lat="47.386801997199655" lon="9.39017697237432">
        <ele>824.95000000000005</ele>
        <time>2018-09-18T11:59:35Z</time>
      </trkpt>
      <trkpt lat="47.386776013299823" lon="9.390293983742595">
        <ele>825.42999999999995</ele>
        <time>2018-09-18T11:59:36Z</time>
      </trkpt>
      <trkpt lat="47.386736031621695" lon="9.390373025089502">
        <ele>825.90999999999997</ele>
        <time>2018-09-18T11:59:37Z</time>
      </trkpt>
      <trkpt lat="47.386751035228372" lon="9.390502022579312">
        <ele>825.90999999999997</ele>
        <time>2018-09-18T11:59:38Z</time>
      </trkpt>
      <trkpt lat="47.386758998036385" lon="9.39052096568048">
        <ele>826.38999999999999</ele>
        <time>2018-09-18T11:59:39Z</time>
      </trkpt>
      <trkpt lat="47.386873997747898" lon="9.390642000362277">
        <ele>826.87</ele>
        <time>2018-09-18T11:59:40Z</time>
      </trkpt>
      <trkpt lat="47.386880032718182" lon="9.390749959275127">
        <ele>826.87</ele>
        <time>2018-09-18T11:59:41Z</time>
      </trkpt>
      <trkpt lat="47.386885983869433" lon="9.39088499173522">
        <ele>826.87</ele>
        <time>2018-09-18T11:59:42Z</time>
      </trkpt>
      <trkpt lat="47.386875003576279" lon="9.391026981174946">
        <ele>827.35000000000002</ele>
        <time>2018-09-18T11:59:43Z</time>
      </trkpt>
      <trkpt lat="47.386852959170938" lon="9.391318000853062">
        <ele>827.83000000000004</ele>
        <time>2018-09-18T11:59:45Z</time>
      </trkpt>
      <trkpt lat="47.386842984706163" lon="9.39144398085773">
        <ele>827.83000000000004</ele>
        <time>2018-09-18T11:59:46Z</time>
      </trkpt>
      <trkpt lat="47.38683401606977" lon="9.391559986397624">
        <ele>827.83000000000004</ele>
        <time>2018-09-18T11:59:47Z</time>
      </trkpt>
      <trkpt lat="47.386825969442725" lon="9.391667023301125">
        <ele>827.83000000000004</ele>
        <time>2018-09-18T11:59:48Z</time>
      </trkpt>
      <trkpt lat="47.386823035776615" lon="9.391759978607297">
        <ele>827.83000000000004</ele>
        <time>2018-09-18T11:59:49Z</time>
      </trkpt>
      <trkpt lat="47.386823035776615" lon="9.391848994418979">
        <ele>827.35000000000002</ele>
        <time>2018-09-18T11:59:50Z</time>
      </trkpt>
      <trkpt lat="47.386715998873115" lon="9.392013028264046">
        <ele>826.87</ele>
        <time>2018-09-18T11:59:52Z</time>
      </trkpt>
      <trkpt lat="47.386715998873115" lon="9.39208896830678">
        <ele>826.87</ele>
        <time>2018-09-18T11:59:53Z</time>
      </trkpt>
      <trkpt lat="47.386750029399991" lon="9.392159963026643">
        <ele>826.87</ele>
        <time>2018-09-18T11:59:54Z</time>
      </trkpt>
      <trkpt lat="47.386795040220022" lon="9.392190976068378">
        <ele>826.87</ele>
        <time>2018-09-18T11:59:55Z</time>
      </trkpt>
      <trkpt lat="47.386801997199655" lon="9.3921949993819">
        <ele>826.87</ele>
        <time>2018-09-18T11:59:56Z</time>
      </trkpt>
      <trkpt lat="47.386927977204323" lon="9.392148982733488">
        <ele>826.38999999999999</ele>
        <time>2018-09-18T11:59:57Z</time>
      </trkpt>
      <trkpt lat="47.386973993852735" lon="9.39219600521028">
        <ele>826.38999999999999</ele>
        <time>2018-09-18T11:59:58Z</time>
      </trkpt>
      <trkpt lat="47.387026967480779" lon="9.392248978838325">
        <ele>825.90999999999997</ele>
        <time>2018-09-18T11:59:59Z</time>
      </trkpt>
      <trkpt lat="47.387082036584616" lon="9.392302958294749">
        <ele>825.42999999999995</ele>
        <time>2018-09-18T12:00:00Z</time>
      </trkpt>
      <trkpt lat="47.387140961363912" lon="9.392317961901426">
        <ele>825.42999999999995</ele>
        <time>2018-09-18T12:00:01Z</time>
      </trkpt>
      <trkpt lat="47.38720097579062" lon="9.392309999093413">
        <ele>824.95000000000005</ele>
        <time>2018-09-18T12:00:02Z</time>
      </trkpt>
      <trkpt lat="47.387252021580935" lon="9.3923020362854">
        <ele>824.95000000000005</ele>
        <time>2018-09-18T12:00:03Z</time>
      </trkpt>
      <trkpt lat="47.387328967452049" lon="9.39225803129375">
        <ele>824.47000000000003</ele>
        <time>2018-09-18T12:00:04Z</time>
      </trkpt>
      <trkpt lat="47.38739401102066" lon="9.392220983281732">
        <ele>824.47000000000003</ele>
        <time>2018-09-18T12:00:05Z</time>
      </trkpt>
      <trkpt lat="47.387644965201616" lon="9.392077988013625">
        <ele>821.58000000000004</ele>
        <time>2018-09-18T12:00:13Z</time>
      </trkpt>
      <trkpt lat="47.387669021263719" lon="9.392063990235329">
        <ele>821.58000000000004</ele>
        <time>2018-09-18T12:00:55Z</time>
      </trkpt>
      <trkpt lat="47.387704979628325" lon="9.392125010490418">
        <ele>822.54999999999995</ele>
        <time>2018-09-18T12:00:56Z</time>
      </trkpt>
      <trkpt lat="47.387711014598608" lon="9.392164992168546">
        <ele>823.02999999999997</ele>
        <time>2018-09-18T12:00:57Z</time>
      </trkpt>
      <trkpt lat="47.387724006548524" lon="9.39225903712213">
        <ele>823.02999999999997</ele>
        <time>2018-09-18T12:00:59Z</time>
      </trkpt>
      <trkpt lat="47.387724006548524" lon="9.39225903712213">
        <ele>823.02999999999997</ele>
        <time>2018-09-18T12:01:00Z</time>
      </trkpt>
      <trkpt lat="47.387692993506789" lon="9.392050998285413">
        <ele>823.02999999999997</ele>
        <time>2018-09-18T12:01:01Z</time>
      </trkpt>
      <trkpt lat="47.387721994891763" lon="9.392241016030312">
        <ele>822.54999999999995</ele>
        <time>2018-09-18T12:01:02Z</time>
      </trkpt>
      <trkpt lat="47.387721994891763" lon="9.392241016030312">
        <ele>822.05999999999995</ele>
        <time>2018-09-18T12:01:17Z</time>
      </trkpt>
      <trkpt lat="47.387721994891763" lon="9.392241016030312">
        <ele>821.58000000000004</ele>
        <time>2018-09-18T12:02:12Z</time>
      </trkpt>
      <trkpt lat="47.387721994891763" lon="9.392241016030312">
        <ele>821.10000000000002</ele>
        <time>2018-09-18T12:02:31Z</time>
      </trkpt>
      <trkpt lat="47.387713026255369" lon="9.392177984118462">
        <ele>820.62</ele>
        <time>2018-09-18T12:02:56Z</time>
      </trkpt>
      <trkpt lat="47.387702967971563" lon="9.39210900105536">
        <ele>820.62</ele>
        <time>2018-09-18T12:02:57Z</time>
      </trkpt>
      <trkpt lat="47.387771029025316" lon="9.391990983858705">
        <ele>820.62</ele>
        <time>2018-09-18T12:02:58Z</time>
      </trkpt>
      <trkpt lat="47.387811010703444" lon="9.391960976645351">
        <ele>820.13999999999999</ele>
        <time>2018-09-18T12:02:59Z</time>
      </trkpt>
      <trkpt lat="47.387861972674727" lon="9.391920994967222">
        <ele>819.65999999999997</ele>
        <time>2018-09-18T12:03:00Z</time>
      </trkpt>
      <trkpt lat="47.387919975444674" lon="9.39187397249043">
        <ele>819.17999999999995</ele>
        <time>2018-09-18T12:03:01Z</time>
      </trkpt>
      <trkpt lat="47.388559011742473" lon="9.391325963661075">
        <ele>817.74000000000001</ele>
        <time>2018-09-18T12:03:09Z</time>
      </trkpt>
      <trkpt lat="47.389063015580177" lon="9.390918016433716">
        <ele>821.58000000000004</ele>
        <time>2018-09-18T12:03:15Z</time>
      </trkpt>
      <trkpt lat="47.389144990593195" lon="9.390845010057092">
        <ele>822.05999999999995</ele>
        <time>2018-09-18T12:03:16Z</time>
      </trkpt>
      <trkpt lat="47.389223026111722" lon="9.390775021165609">
        <ele>822.54999999999995</ele>
        <time>2018-09-18T12:03:17Z</time>
      </trkpt>
      <trkpt lat="47.389659974724054" lon="9.390358021482825">
        <ele>825.90999999999997</ele>
        <time>2018-09-18T12:03:25Z</time>
      </trkpt>
      <trkpt lat="47.389757037162781" lon="9.390258025377989">
        <ele>826.87</ele>
        <time>2018-09-18T12:03:27Z</time>
      </trkpt>
      <trkpt lat="47.38979802466929" lon="9.390216032043099">
        <ele>827.35000000000002</ele>
        <time>2018-09-18T12:03:28Z</time>
      </trkpt>
      <trkpt lat="47.389830965548754" lon="9.390182001516223">
        <ele>827.83000000000004</ele>
        <time>2018-09-18T12:03:29Z</time>
      </trkpt>
      <trkpt lat="47.389859966933727" lon="9.390151994302869">
        <ele>828.30999999999995</ele>
        <time>2018-09-18T12:03:30Z</time>
      </trkpt>
      <trkpt lat="47.38988402299583" lon="9.390127016231418">
        <ele>828.30999999999995</ele>
        <time>2018-09-18T12:03:31Z</time>
      </trkpt>
      <trkpt lat="47.389902966096997" lon="9.390106983482838">
        <ele>828.78999999999996</ele>
        <time>2018-09-18T12:03:32Z</time>
      </trkpt>
      <trkpt lat="47.389917969703674" lon="9.39009097404778">
        <ele>828.78999999999996</ele>
        <time>2018-09-18T12:03:33Z</time>
      </trkpt>
      <trkpt lat="47.389935990795493" lon="9.390073036774993">
        <ele>829.26999999999998</ele>
        <time>2018-09-18T12:03:34Z</time>
      </trkpt>
      <trkpt lat="47.38995099440217" lon="9.390058033168316">
        <ele>829.26999999999998</ele>
        <time>2018-09-18T12:03:35Z</time>
      </trkpt>
      <trkpt lat="47.38995099440217" lon="9.390058033168316">
        <ele>829.75999999999999</ele>
        <time>2018-09-18T12:03:49Z</time>
      </trkpt>
      <trkpt lat="47.38995099440217" lon="9.390058033168316">
        <ele>829.75999999999999</ele>
        <time>2018-09-18T12:03:55Z</time>
      </trkpt>
      <trkpt lat="47.389909001067281" lon="9.390158029273152">
        <ele>834.08000000000004</ele>
        <time>2018-09-18T12:04:01Z</time>
      </trkpt>
      <trkpt lat="47.38960599526763" lon="9.390414012596011">
        <ele>828.30999999999995</ele>
        <time>2018-09-18T12:04:11Z</time>
      </trkpt>
      <trkpt lat="47.389076007530093" lon="9.390906030312181">
        <ele>826.38999999999999</ele>
        <time>2018-09-18T12:04:18Z</time>
      </trkpt>
      <trkpt lat="47.388900993391871" lon="9.391063023358584">
        <ele>825.90999999999997</ele>
        <time>2018-09-18T12:04:20Z</time>
      </trkpt>
      <trkpt lat="47.387987030670047" lon="9.391815969720483">
        <ele>824.95000000000005</ele>
        <time>2018-09-18T12:04:29Z</time>
      </trkpt>
      <trkpt lat="47.38717901520431" lon="9.392313016578555">
        <ele>828.30999999999995</ele>
        <time>2018-09-18T12:04:37Z</time>
      </trkpt>
      <trkpt lat="47.387113971635699" lon="9.392321985214949">
        <ele>828.78999999999996</ele>
        <time>2018-09-18T12:04:38Z</time>
      </trkpt>
      <trkpt lat="47.387056974694133" lon="9.392277980223298">
        <ele>828.78999999999996</ele>
        <time>2018-09-18T12:04:39Z</time>
      </trkpt>
      <trkpt lat="47.387014981359243" lon="9.392235986888409">
        <ele>829.26999999999998</ele>
        <time>2018-09-18T12:04:40Z</time>
      </trkpt>
      <trkpt lat="47.386982040479779" lon="9.392202962189913">
        <ele>829.75999999999999</ele>
        <time>2018-09-18T12:04:41Z</time>
      </trkpt>
      <trkpt lat="47.386982040479779" lon="9.392202962189913">
        <ele>829.75999999999999</ele>
        <time>2018-09-18T12:04:42Z</time>
      </trkpt>
      <trkpt lat="47.386958990246058" lon="9.392181001603603">
        <ele>830.24000000000001</ele>
        <time>2018-09-18T12:04:49Z</time>
      </trkpt>
      <trkpt lat="47.386941974982619" lon="9.392162980511785">
        <ele>830.24000000000001</ele>
        <time>2018-09-18T12:04:50Z</time>
      </trkpt>
      <trkpt lat="47.386862011626363" lon="9.391946978867054">
        <ele>830.24000000000001</ele>
        <time>2018-09-18T12:04:55Z</time>
      </trkpt>
      <trkpt lat="47.386823035776615" lon="9.391819993034005">
        <ele>830.72000000000003</ele>
        <time>2018-09-18T12:04:56Z</time>
      </trkpt>
      <trkpt lat="47.386823035776615" lon="9.391707004979253">
        <ele>830.72000000000003</ele>
        <time>2018-09-18T12:04:57Z</time>
      </trkpt>
      <trkpt lat="47.386832004413009" lon="9.391584964469075">
        <ele>830.24000000000001</ele>
        <time>2018-09-18T12:04:58Z</time>
      </trkpt>
      <trkpt lat="47.386841978877783" lon="9.391460996121168">
        <ele>830.24000000000001</ele>
        <time>2018-09-18T12:04:59Z</time>
      </trkpt>
      <trkpt lat="47.386852037161589" lon="9.391331998631358">
        <ele>830.24000000000001</ele>
        <time>2018-09-18T12:05:00Z</time>
      </trkpt>
      <trkpt lat="47.386862011626363" lon="9.391195960342884">
        <ele>830.24000000000001</ele>
        <time>2018-09-18T12:05:01Z</time>
      </trkpt>
      <trkpt lat="47.386872991919518" lon="9.391057994216681">
        <ele>830.24000000000001</ele>
        <time>2018-09-18T12:05:02Z</time>
      </trkpt>
      <trkpt lat="47.386883972212672" lon="9.390808967873454">
        <ele>830.24000000000001</ele>
        <time>2018-09-18T12:05:04Z</time>
      </trkpt>
      <trkpt lat="47.38687802106142" lon="9.390424992889166">
        <ele>830.24000000000001</ele>
        <time>2018-09-18T12:05:08Z</time>
      </trkpt>
      <trkpt lat="47.386887995526195" lon="9.3903489690274">
        <ele>830.24000000000001</ele>
        <time>2018-09-18T12:05:09Z</time>
      </trkpt>
      <trkpt lat="47.38674902357161" lon="9.389436012133956">
        <ele>828.78999999999996</ele>
        <time>2018-09-18T12:05:15Z</time>
      </trkpt>
      <trkpt lat="47.38625499419868" lon="9.387116990983486">
        <ele>820.62</ele>
        <time>2018-09-18T12:05:26Z</time>
      </trkpt>
      <trkpt lat="47.385873030871153" lon="9.384844992309809">
        <ele>813.88999999999999</ele>
        <time>2018-09-18T12:05:37Z</time>
      </trkpt>
      <trkpt lat="47.385957017540932" lon="9.382829982787371">
        <ele>805.72000000000003</ele>
        <time>2018-09-18T12:05:46Z</time>
      </trkpt>
      <trkpt lat="47.386348033323884" lon="9.381490973755717">
        <ele>798.99000000000001</ele>
        <time>2018-09-18T12:05:53Z</time>
      </trkpt>
      <trkpt lat="47.387237017974257" lon="9.37994996085763">
        <ele>796.11000000000001</ele>
        <time>2018-09-18T12:06:02Z</time>
      </trkpt>
      <trkpt lat="47.388013014569879" lon="9.378400985151529">
        <ele>795.63</ele>
        <time>2018-09-18T12:06:10Z</time>
      </trkpt>
      <trkpt lat="47.388089960440993" lon="9.378188000991941">
        <ele>795.63</ele>
        <time>2018-09-18T12:06:11Z</time>
      </trkpt>
      <trkpt lat="47.388159027323127" lon="9.37797199934721">
        <ele>795.63</ele>
        <time>2018-09-18T12:06:12Z</time>
      </trkpt>
      <trkpt lat="47.388193979859352" lon="9.377731019631028">
        <ele>795.63</ele>
        <time>2018-09-18T12:06:13Z</time>
      </trkpt>
      <trkpt lat="47.388228010386229" lon="9.377487022429705">
        <ele>795.63</ele>
        <time>2018-09-18T12:06:14Z</time>
      </trkpt>
      <trkpt lat="47.388249970972538" lon="9.377239001914859">
        <ele>795.63</ele>
        <time>2018-09-18T12:06:15Z</time>
      </trkpt>
      <trkpt lat="47.38825298845768" lon="9.376990981400013">
        <ele>795.63</ele>
        <time>2018-09-18T12:06:16Z</time>
      </trkpt>
      <trkpt lat="47.388217030093074" lon="9.376751007512212">
        <ele>795.14999999999998</ele>
        <time>2018-09-18T12:06:17Z</time>
      </trkpt>
      <trkpt lat="47.388180987909436" lon="9.376501981168985">
        <ele>794.66999999999996</ele>
        <time>2018-09-18T12:06:18Z</time>
      </trkpt>
      <trkpt lat="47.388136982917786" lon="9.37625396065414">
        <ele>794.66999999999996</ele>
        <time>2018-09-18T12:06:19Z</time>
      </trkpt>
      <trkpt lat="47.388079985976219" lon="9.376034019514918">
        <ele>794.19000000000005</ele>
        <time>2018-09-18T12:06:20Z</time>
      </trkpt>
      <trkpt lat="47.387617975473404" lon="9.374252026900649">
        <ele>790.82000000000005</ele>
        <time>2018-09-18T12:06:28Z</time>
      </trkpt>
      <trkpt lat="47.387110032141209" lon="9.371915990486741">
        <ele>789.86000000000001</ele>
        <time>2018-09-18T12:06:38Z</time>
      </trkpt>
      <trkpt lat="47.386852037161589" lon="9.370132992044091">
        <ele>792.25999999999999</ele>
        <time>2018-09-18T12:06:48Z</time>
      </trkpt>
      <trkpt lat="47.386879026889801" lon="9.369909027591348">
        <ele>792.25999999999999</ele>
        <time>2018-09-18T12:06:54Z</time>
      </trkpt>
      <trkpt lat="47.386945998296142" lon="9.369596969336271">
        <ele>792.25999999999999</ele>
        <time>2018-09-18T12:07:02Z</time>
      </trkpt>
      <trkpt lat="47.387120006605983" lon="9.36883999966085">
        <ele>791.29999999999995</ele>
        <time>2018-09-18T12:07:08Z</time>
      </trkpt>
      <trkpt lat="47.387170968577266" lon="9.368763975799084">
        <ele>791.29999999999995</ele>
        <time>2018-09-18T12:07:09Z</time>
      </trkpt>
      <trkpt lat="47.387249004095793" lon="9.368596002459526">
        <ele>790.82000000000005</ele>
        <time>2018-09-18T12:07:11Z</time>
      </trkpt>
      <trkpt lat="47.38724397495389" lon="9.368502963334322">
        <ele>790.34000000000003</ele>
        <time>2018-09-18T12:07:12Z</time>
      </trkpt>
      <trkpt lat="47.387238023802638" lon="9.368391986936331">
        <ele>789.86000000000001</ele>
        <time>2018-09-18T12:07:13Z</time>
      </trkpt>
      <trkpt lat="47.387230983003974" lon="9.368257038295269">
        <ele>789.86000000000001</ele>
        <time>2018-09-18T12:07:14Z</time>
      </trkpt>
      <trkpt lat="47.387230983003974" lon="9.368123011663556">
        <ele>789.38</ele>
        <time>2018-09-18T12:07:15Z</time>
      </trkpt>
      <trkpt lat="47.387228971347213" lon="9.367995020002127">
        <ele>788.89999999999998</ele>
        <time>2018-09-18T12:07:16Z</time>
      </trkpt>
      <trkpt lat="47.3872210085392" lon="9.36787398532033">
        <ele>788.89999999999998</ele>
        <time>2018-09-18T12:07:17Z</time>
      </trkpt>
      <trkpt lat="47.387214973568916" lon="9.367781030014157">
        <ele>788.41999999999996</ele>
        <time>2018-09-18T12:07:18Z</time>
      </trkpt>
      <trkpt lat="47.387168034911156" lon="9.367690002545714">
        <ele>788.41999999999996</ele>
        <time>2018-09-18T12:07:19Z</time>
      </trkpt>
      <trkpt lat="47.387130986899137" lon="9.367690002545714">
        <ele>788.41999999999996</ele>
        <time>2018-09-18T12:07:20Z</time>
      </trkpt>
      <trkpt lat="47.387096034362912" lon="9.367690002545714">
        <ele>787.94000000000005</ele>
        <time>2018-09-18T12:07:21Z</time>
      </trkpt>
      <trkpt lat="47.387069966644049" lon="9.367733001708984">
        <ele>787.94000000000005</ele>
        <time>2018-09-18T12:07:22Z</time>
      </trkpt>
      <trkpt lat="47.387054963037372" lon="9.367796033620834">
        <ele>787.46000000000004</ele>
        <time>2018-09-18T12:07:23Z</time>
      </trkpt>
      <trkpt lat="47.387033002451062" lon="9.367884965613484">
        <ele>787.46000000000004</ele>
        <time>2018-09-18T12:07:24Z</time>
      </trkpt>
      <trkpt lat="47.387005006894469" lon="9.36800298281014">
        <ele>786.98000000000002</ele>
        <time>2018-09-18T12:07:25Z</time>
      </trkpt>
      <trkpt lat="47.386864023283124" lon="9.369303015992045">
        <ele>790.34000000000003</ele>
        <time>2018-09-18T12:07:32Z</time>
      </trkpt>
      <trkpt lat="47.386988997459412" lon="9.37120595946908">
        <ele>789.86000000000001</ele>
        <time>2018-09-18T12:07:39Z</time>
      </trkpt>
      <trkpt lat="47.387640019878745" lon="9.374336013570428">
        <ele>786.01999999999998</ele>
        <time>2018-09-18T12:07:49Z</time>
      </trkpt>
      <trkpt lat="47.388006979599595" lon="9.375750040635467">
        <ele>786.98000000000002</ele>
        <time>2018-09-18T12:07:55Z</time>
      </trkpt>
      <trkpt lat="47.38825298845768" lon="9.376993998885155">
        <ele>786.98000000000002</ele>
        <time>2018-09-18T12:08:01Z</time>
      </trkpt>
      <trkpt lat="47.388250976800919" lon="9.377206983044744">
        <ele>786.98000000000002</ele>
        <time>2018-09-18T12:08:02Z</time>
      </trkpt>
      <trkpt lat="47.388238990679383" lon="9.377410998567939">
        <ele>787.46000000000004</ele>
        <time>2018-09-18T12:08:03Z</time>
      </trkpt>
      <trkpt lat="47.388208983466029" lon="9.377619959414005">
        <ele>787.46000000000004</ele>
        <time>2018-09-18T12:08:04Z</time>
      </trkpt>
      <trkpt lat="47.388179982081056" lon="9.377826992422342">
        <ele>787.46000000000004</ele>
        <time>2018-09-18T12:08:05Z</time>
      </trkpt>
      <trkpt lat="47.388146035373211" lon="9.378032013773918">
        <ele>787.94000000000005</ele>
        <time>2018-09-18T12:08:06Z</time>
      </trkpt>
      <trkpt lat="47.388078980147839" lon="9.378218008205295">
        <ele>787.94000000000005</ele>
        <time>2018-09-18T12:08:07Z</time>
      </trkpt>
      <trkpt lat="47.388012008741498" lon="9.378405008465052">
        <ele>788.41999999999996</ele>
        <time>2018-09-18T12:08:08Z</time>
      </trkpt>
      <trkpt lat="47.387940008193254" lon="9.378592008724809">
        <ele>788.41999999999996</ele>
        <time>2018-09-18T12:08:09Z</time>
      </trkpt>
      <trkpt lat="47.387036019936204" lon="9.380294037982822">
        <ele>789.86000000000001</ele>
        <time>2018-09-18T12:08:18Z</time>
      </trkpt>
      <trkpt lat="47.386090038344264" lon="9.382165968418121">
        <ele>793.22000000000003</ele>
        <time>2018-09-18T12:08:27Z</time>
      </trkpt>
      <trkpt lat="47.386023988947272" lon="9.382403008639813">
        <ele>793.71000000000004</ele>
        <time>2018-09-18T12:08:28Z</time>
      </trkpt>
      <trkpt lat="47.385984007269144" lon="9.38265597447753">
        <ele>794.19000000000005</ele>
        <time>2018-09-18T12:08:29Z</time>
      </trkpt>
      <trkpt lat="47.385946037247777" lon="9.382906006649137">
        <ele>794.66999999999996</ele>
        <time>2018-09-18T12:08:30Z</time>
      </trkpt>
      <trkpt lat="47.385906977578998" lon="9.383151009678841">
        <ele>795.63</ele>
        <time>2018-09-18T12:08:31Z</time>
      </trkpt>
      <trkpt lat="47.385877976194024" lon="9.383395006880164">
        <ele>796.11000000000001</ele>
        <time>2018-09-18T12:08:32Z</time>
      </trkpt>
      <trkpt lat="47.385952994227409" lon="9.385553011670709">
        <ele>804.27999999999997</ele>
        <time>2018-09-18T12:08:41Z</time>
      </trkpt>
      <trkpt lat="47.386050978675485" lon="9.386273017153144">
        <ele>807.15999999999997</ele>
        <time>2018-09-18T12:08:44Z</time>
      </trkpt>
      <trkpt lat="47.386095989495516" lon="9.38645901158452">
        <ele>808.13</ele>
        <time>2018-09-18T12:08:45Z</time>
      </trkpt>
      <trkpt lat="47.386671993881464" lon="9.388955980539322">
        <ele>819.65999999999997</ele>
        <time>2018-09-18T12:08:57Z</time>
      </trkpt>
      <trkpt lat="47.386801997199655" lon="9.39004696905613">
        <ele>823.99000000000001</ele>
        <time>2018-09-18T12:09:04Z</time>
      </trkpt>
      <trkpt lat="47.386801997199655" lon="9.390137996524572">
        <ele>823.99000000000001</ele>
        <time>2018-09-18T12:09:05Z</time>
      </trkpt>
      <trkpt lat="47.386801997199655" lon="9.390242015942931">
        <ele>823.99000000000001</ele>
        <time>2018-09-18T12:09:06Z</time>
      </trkpt>
      <trkpt lat="47.3867719899863" lon="9.390302030369639">
        <ele>824.47000000000003</ele>
        <time>2018-09-18T12:09:07Z</time>
      </trkpt>
      <trkpt lat="47.386745000258088" lon="9.390355003997684">
        <ele>824.47000000000003</ele>
        <time>2018-09-18T12:09:08Z</time>
      </trkpt>
      <trkpt lat="47.386645004153252" lon="9.390343017876148">
        <ele>824.47000000000003</ele>
        <time>2018-09-18T12:09:09Z</time>
      </trkpt>
      <trkpt lat="47.386600999161601" lon="9.390299012884498">
        <ele>824.47000000000003</ele>
        <time>2018-09-18T12:09:10Z</time>
      </trkpt>
      <trkpt lat="47.386567974463105" lon="9.390220977365971">
        <ele>824.95000000000005</ele>
        <time>2018-09-18T12:09:11Z</time>
      </trkpt>
      <trkpt lat="47.386544002220035" lon="9.390136990696192">
        <ele>824.95000000000005</ele>
        <time>2018-09-18T12:09:12Z</time>
      </trkpt>
      <trkpt lat="47.386517012491822" lon="9.39004696905613">
        <ele>824.95000000000005</ele>
        <time>2018-09-18T12:09:13Z</time>
      </trkpt>
      <trkpt lat="47.386488011106849" lon="9.389947978779674">
        <ele>825.42999999999995</ele>
        <time>2018-09-18T12:09:14Z</time>
      </trkpt>
      <trkpt lat="47.386415004730225" lon="9.389742035418749">
        <ele>826.87</ele>
        <time>2018-09-18T12:09:16Z</time>
      </trkpt>
      <trkpt lat="47.386370999738574" lon="9.389648996293545">
        <ele>827.83000000000004</ele>
        <time>2018-09-18T12:09:17Z</time>
      </trkpt>
      <trkpt lat="47.386307967826724" lon="9.389556040987372">
        <ele>828.30999999999995</ele>
        <time>2018-09-18T12:09:18Z</time>
      </trkpt>
      <trkpt lat="47.386042010039091" lon="9.389046002179384">
        <ele>831.67999999999995</ele>
        <time>2018-09-18T12:09:22Z</time>
      </trkpt>
      <trkpt lat="47.385970009490848" lon="9.388891020789743">
        <ele>832.15999999999997</ele>
        <time>2018-09-18T12:09:23Z</time>
      </trkpt>
      <trkpt lat="47.385684018954635" lon="9.388279980048537">
        <ele>834.08000000000004</ele>
        <time>2018-09-18T12:09:27Z</time>
      </trkpt>
      <trkpt lat="47.385611012578011" lon="9.388121981173754">
        <ele>834.55999999999995</ele>
        <time>2018-09-18T12:09:28Z</time>
      </trkpt>
      <trkpt lat="47.385527025908232" lon="9.387977980077267">
        <ele>835.03999999999996</ele>
        <time>2018-09-18T12:09:29Z</time>
      </trkpt>
      <trkpt lat="47.385434992611408" lon="9.387843031436205">
        <ele>835.03999999999996</ele>
        <time>2018-09-18T12:09:30Z</time>
      </trkpt>
      <trkpt lat="47.385346982628107" lon="9.387715039774776">
        <ele>834.55999999999995</ele>
        <time>2018-09-18T12:09:31Z</time>
      </trkpt>
      <trkpt lat="47.384902993217111" lon="9.387009032070637">
        <ele>833.12</ele>
        <time>2018-09-18T12:09:37Z</time>
      </trkpt>
      <trkpt lat="47.384851025417447" lon="9.386878022924066">
        <ele>833.12</ele>
        <time>2018-09-18T12:09:38Z</time>
      </trkpt>
      <trkpt lat="47.384804002940655" lon="9.386733015999198">
        <ele>832.63999999999999</ele>
        <time>2018-09-18T12:09:39Z</time>
      </trkpt>
      <trkpt lat="47.384794028475881" lon="9.386596977710724">
        <ele>832.15999999999997</ele>
        <time>2018-09-18T12:09:40Z</time>
      </trkpt>
      <trkpt lat="47.384784976020455" lon="9.386464962735772">
        <ele>832.15999999999997</ele>
        <time>2018-09-18T12:09:41Z</time>
      </trkpt>
      <trkpt lat="47.384775001555681" lon="9.386333031579852">
        <ele>831.67999999999995</ele>
        <time>2018-09-18T12:09:42Z</time>
      </trkpt>
      <trkpt lat="47.384763015434146" lon="9.386164974421263">
        <ele>831.67999999999995</ele>
        <time>2018-09-18T12:09:43Z</time>
      </trkpt>
      <trkpt lat="47.384788999333978" lon="9.386061960831285">
        <ele>831.20000000000005</ele>
        <time>2018-09-18T12:09:44Z</time>
      </trkpt>
      <trkpt lat="47.384818000718951" lon="9.385946039110422">
        <ele>830.72000000000003</ele>
        <time>2018-09-18T12:09:45Z</time>
      </trkpt>
      <trkpt lat="47.384847002103925" lon="9.385829027742147">
        <ele>830.24000000000001</ele>
        <time>2018-09-18T12:09:46Z</time>
      </trkpt>
      <trkpt lat="47.384877009317279" lon="9.385710004717112">
        <ele>830.24000000000001</ele>
        <time>2018-09-18T12:09:47Z</time>
      </trkpt>
      <trkpt lat="47.385161994025111" lon="9.3846520408988">
        <ele>824.95000000000005</ele>
        <time>2018-09-18T12:09:55Z</time>
      </trkpt>
      <trkpt lat="47.385254027321935" lon="9.383811000734568">
        <ele>819.17999999999995</ele>
        <time>2018-09-18T12:10:05Z</time>
      </trkpt>
      <trkpt lat="47.385109020397067" lon="9.383073979988694">
        <ele>814.85000000000002</ele>
        <time>2018-09-18T12:10:16Z</time>
      </trkpt>
      <trkpt lat="47.385103991255164" lon="9.383052019402385">
        <ele>814.85000000000002</ele>
        <time>2018-09-18T12:10:28Z</time>
      </trkpt>
      <trkpt lat="47.385103991255164" lon="9.383052019402385">
        <ele>814.37</ele>
        <time>2018-09-18T12:10:48Z</time>
      </trkpt>
      <trkpt lat="47.385117989033461" lon="9.382983036339283">
        <ele>814.37</ele>
        <time>2018-09-18T12:10:49Z</time>
      </trkpt>
      <trkpt lat="47.385099967941642" lon="9.383035004138947">
        <ele>814.37</ele>
        <time>2018-09-18T12:10:50Z</time>
      </trkpt>
      <trkpt lat="47.385107008740306" lon="9.383061993867159">
        <ele>814.37</ele>
        <time>2018-09-18T12:10:52Z</time>
      </trkpt>
      <trkpt lat="47.385112959891558" lon="9.383089989423752">
        <ele>814.85000000000002</ele>
        <time>2018-09-18T12:10:53Z</time>
      </trkpt>
      <trkpt lat="47.385125029832125" lon="9.383142963051796">
        <ele>815.34000000000003</ele>
        <time>2018-09-18T12:10:54Z</time>
      </trkpt>
      <trkpt lat="47.385256960988045" lon="9.383718967437744">
        <ele>818.22000000000003</ele>
        <time>2018-09-18T12:10:59Z</time>
      </trkpt>
      <trkpt lat="47.385252015665174" lon="9.383864980190992">
        <ele>818.70000000000005</ele>
        <time>2018-09-18T12:11:00Z</time>
      </trkpt>
      <trkpt lat="47.385246986523271" lon="9.384017027914524">
        <ele>819.17999999999995</ele>
        <time>2018-09-18T12:11:01Z</time>
      </trkpt>
      <trkpt lat="47.385237012058496" lon="9.384322967380285">
        <ele>820.62</ele>
        <time>2018-09-18T12:11:03Z</time>
      </trkpt>
      <trkpt lat="47.385168028995395" lon="9.38463200815022">
        <ele>822.05999999999995</ele>
        <time>2018-09-18T12:11:05Z</time>
      </trkpt>
      <trkpt lat="47.384816994890571" lon="9.385948972776532">
        <ele>827.83000000000004</ele>
        <time>2018-09-18T12:11:13Z</time>
      </trkpt>
      <trkpt lat="47.384780030697584" lon="9.386096997186542">
        <ele>828.30999999999995</ele>
        <time>2018-09-18T12:11:14Z</time>
      </trkpt>
      <trkpt lat="47.384769972413778" lon="9.386252984404564">
        <ele>828.78999999999996</ele>
        <time>2018-09-18T12:11:15Z</time>
      </trkpt>
      <trkpt lat="47.384790005162358" lon="9.386546015739441">
        <ele>829.75999999999999</ele>
        <time>2018-09-18T12:11:17Z</time>
      </trkpt>
      <trkpt lat="47.384799979627132" lon="9.386683981865645">
        <ele>830.24000000000001</ele>
        <time>2018-09-18T12:11:18Z</time>
      </trkpt>
      <trkpt lat="47.384821018204093" lon="9.38680300489068">
        <ele>830.72000000000003</ele>
        <time>2018-09-18T12:11:19Z</time>
      </trkpt>
      <trkpt lat="47.384865023195744" lon="9.38691196963191">
        <ele>830.72000000000003</ele>
        <time>2018-09-18T12:11:20Z</time>
      </trkpt>
      <trkpt lat="47.384902993217111" lon="9.387008026242256">
        <ele>831.20000000000005</ele>
        <time>2018-09-18T12:11:21Z</time>
      </trkpt>
      <trkpt lat="47.384935012087226" lon="9.387087989598513">
        <ele>831.67999999999995</ele>
        <time>2018-09-18T12:11:22Z</time>
      </trkpt>
      <trkpt lat="47.384969964623451" lon="9.387148004025221">
        <ele>831.67999999999995</ele>
        <time>2018-09-18T12:11:23Z</time>
      </trkpt>
      <trkpt lat="47.385021010413766" lon="9.387238025665283">
        <ele>832.15999999999997</ele>
        <time>2018-09-18T12:11:24Z</time>
      </trkpt>
      <trkpt lat="47.385064009577036" lon="9.387165019288659">
        <ele>832.63999999999999</ele>
        <time>2018-09-18T12:11:25Z</time>
      </trkpt>
      <trkpt lat="47.385098040103912" lon="9.387110034003854">
        <ele>833.12</ele>
        <time>2018-09-18T12:11:26Z</time>
      </trkpt>
      <trkpt lat="47.385138021782041" lon="9.387042978778482">
        <ele>833.12</ele>
        <time>2018-09-18T12:11:27Z</time>
      </trkpt>
      <trkpt lat="47.385183032602072" lon="9.386967960745096">
        <ele>833.60000000000002</ele>
        <time>2018-09-18T12:11:28Z</time>
      </trkpt>
      <trkpt lat="47.385236006230116" lon="9.386879028752446">
        <ele>833.60000000000002</ele>
        <time>2018-09-18T12:11:29Z</time>
      </trkpt>
      <trkpt lat="47.385523002594709" lon="9.386420035734773">
        <ele>828.78999999999996</ele>
        <time>2018-09-18T12:11:33Z</time>
      </trkpt>
      <trkpt lat="47.385629033669829" lon="9.386361027136445">
        <ele>827.35000000000002</ele>
        <time>2018-09-18T12:11:34Z</time>
      </trkpt>
      <trkpt lat="47.385721988976002" lon="9.386320039629936">
        <ele>825.90999999999997</ele>
        <time>2018-09-18T12:11:35Z</time>
      </trkpt>
      <trkpt lat="47.385817961767316" lon="9.386277962476015">
        <ele>824.47000000000003</ele>
        <time>2018-09-18T12:11:36Z</time>
      </trkpt>
      <trkpt lat="47.385922987014055" lon="9.386256001889706">
        <ele>822.54999999999995</ele>
        <time>2018-09-18T12:11:37Z</time>
      </trkpt>
      <trkpt lat="47.386030023917556" lon="9.386269999668002">
        <ele>821.10000000000002</ele>
        <time>2018-09-18T12:11:38Z</time>
      </trkpt>
      <trkpt lat="47.386136977002025" lon="9.386318027973175">
        <ele>819.65999999999997</ele>
        <time>2018-09-18T12:11:39Z</time>
      </trkpt>
      <trkpt lat="47.386239990592003" lon="9.3863720074296">
        <ele>818.70000000000005</ele>
        <time>2018-09-18T12:11:40Z</time>
      </trkpt>
      <trkpt lat="47.386341998353601" lon="9.386426992714405">
        <ele>817.25999999999999</ele>
        <time>2018-09-18T12:11:41Z</time>
      </trkpt>
      <trkpt lat="47.38644702360034" lon="9.386496981605887">
        <ele>815.82000000000005</ele>
        <time>2018-09-18T12:11:42Z</time>
      </trkpt>
      <trkpt lat="47.386542996391654" lon="9.386593038216233">
        <ele>814.85000000000002</ele>
        <time>2018-09-18T12:11:43Z</time>
      </trkpt>
      <trkpt lat="47.386645004153252" lon="9.386702002957463">
        <ele>813.88999999999999</ele>
        <time>2018-09-18T12:11:44Z</time>
      </trkpt>
      <trkpt lat="47.386725973337889" lon="9.386823959648609">
        <ele>812.92999999999995</ele>
        <time>2018-09-18T12:11:45Z</time>
      </trkpt>
      <trkpt lat="47.386801997199655" lon="9.386938037350774">
        <ele>811.97000000000003</ele>
        <time>2018-09-18T12:11:46Z</time>
      </trkpt>
      <trkpt lat="47.386867040768266" lon="9.387098969891667">
        <ele>811.00999999999999</ele>
        <time>2018-09-18T12:11:47Z</time>
      </trkpt>
      <trkpt lat="47.386928983032703" lon="9.38725202344358">
        <ele>810.52999999999997</ele>
        <time>2018-09-18T12:11:48Z</time>
      </trkpt>
      <trkpt lat="47.386991009116173" lon="9.387401975691319">
        <ele>810.04999999999995</ele>
        <time>2018-09-18T12:11:49Z</time>
      </trkpt>
      <trkpt lat="47.387381019070745" lon="9.388204040005803">
        <ele>806.20000000000005</ele>
        <time>2018-09-18T12:11:55Z</time>
      </trkpt>
      <trkpt lat="47.387539017945528" lon="9.388374025002122">
        <ele>805.24000000000001</ele>
        <time>2018-09-18T12:11:57Z</time>
      </trkpt>
      <trkpt lat="47.387621998786926" lon="9.388463962823153">
        <ele>804.75999999999999</ele>
        <time>2018-09-18T12:11:58Z</time>
      </trkpt>
      <trkpt lat="47.387701040133834" lon="9.388518026098609">
        <ele>804.27999999999997</ele>
        <time>2018-09-18T12:11:59Z</time>
      </trkpt>
      <trkpt lat="47.387789972126484" lon="9.388547027483583">
        <ele>803.79999999999995</ele>
        <time>2018-09-18T12:12:00Z</time>
      </trkpt>
      <trkpt lat="47.387874964624643" lon="9.388576028868556">
        <ele>803.32000000000005</ele>
        <time>2018-09-18T12:12:01Z</time>
      </trkpt>
      <trkpt lat="47.387960962951183" lon="9.388604024425149">
        <ele>803.32000000000005</ele>
        <time>2018-09-18T12:12:02Z</time>
      </trkpt>
      <trkpt lat="47.388035980984569" lon="9.388594971969724">
        <ele>803.32000000000005</ele>
        <time>2018-09-18T12:12:03Z</time>
      </trkpt>
      <trkpt lat="47.388126002624631" lon="9.388567982241511">
        <ele>803.32000000000005</ele>
        <time>2018-09-18T12:12:04Z</time>
      </trkpt>
      <trkpt lat="47.388217030093074" lon="9.388540992513299">
        <ele>803.79999999999995</ele>
        <time>2018-09-18T12:12:05Z</time>
      </trkpt>
      <trkpt lat="47.389251021668315" lon="9.387947972863913">
        <ele>817.25999999999999</ele>
        <time>2018-09-18T12:12:16Z</time>
      </trkpt>
      <trkpt lat="47.389441039413214" lon="9.387887036427856">
        <ele>820.62</ele>
        <time>2018-09-18T12:12:18Z</time>
      </trkpt>
      <trkpt lat="47.389537012204528" lon="9.387874966487289">
        <ele>822.05999999999995</ele>
        <time>2018-09-18T12:12:19Z</time>
      </trkpt>
      <trkpt lat="47.389656035229564" lon="9.387859962880611">
        <ele>823.50999999999999</ele>
        <time>2018-09-18T12:12:20Z</time>
      </trkpt>
      <trkpt lat="47.390174958854914" lon="9.387807995080948">
        <ele>832.15999999999997</ele>
        <time>2018-09-18T12:12:27Z</time>
      </trkpt>
      <trkpt lat="47.390214018523693" lon="9.387801960110664">
        <ele>832.63999999999999</ele>
        <time>2018-09-18T12:12:28Z</time>
      </trkpt>
      <trkpt lat="47.390248971059918" lon="9.387797014787793">
        <ele>833.60000000000002</ele>
        <time>2018-09-18T12:12:29Z</time>
      </trkpt>
      <trkpt lat="47.390286019071937" lon="9.387860968708992">
        <ele>834.08000000000004</ele>
        <time>2018-09-18T12:12:30Z</time>
      </trkpt>
      <trkpt lat="47.390318037942052" lon="9.387932969257236">
        <ele>834.55999999999995</ele>
        <time>2018-09-18T12:12:31Z</time>
      </trkpt>
      <trkpt lat="47.390352990478277" lon="9.388011004775763">
        <ele>835.03999999999996</ele>
        <time>2018-09-18T12:12:32Z</time>
      </trkpt>
      <trkpt lat="47.390384003520012" lon="9.388081999495626">
        <ele>835.51999999999998</ele>
        <time>2018-09-18T12:12:33Z</time>
      </trkpt>
      <trkpt lat="47.390544014051557" lon="9.388439990580082">
        <ele>836</ele>
        <time>2018-09-18T12:12:41Z</time>
      </trkpt>
      <trkpt lat="47.390583995729685" lon="9.388528000563383">
        <ele>836</ele>
        <time>2018-09-18T12:12:42Z</time>
      </trkpt>
      <trkpt lat="47.390624983236194" lon="9.388620033860207">
        <ele>836</ele>
        <time>2018-09-18T12:12:43Z</time>
      </trkpt>
      <trkpt lat="47.390665970742702" lon="9.388711983337998">
        <ele>836</ele>
        <time>2018-09-18T12:12:44Z</time>
      </trkpt>
      <trkpt lat="47.390706958249211" lon="9.388812985271215">
        <ele>836</ele>
        <time>2018-09-18T12:12:45Z</time>
      </trkpt>
      <trkpt lat="47.390711987391114" lon="9.388908036053181">
        <ele>835.51999999999998</ele>
        <time>2018-09-18T12:12:46Z</time>
      </trkpt>
      <trkpt lat="47.390716010704637" lon="9.38899302855134">
        <ele>835.51999999999998</ele>
        <time>2018-09-18T12:12:47Z</time>
      </trkpt>
      <trkpt lat="47.390720034018159" lon="9.389067040756345">
        <ele>835.51999999999998</ele>
        <time>2018-09-18T12:12:48Z</time>
      </trkpt>
      <trkpt lat="47.390721961855888" lon="9.38912202604115">
        <ele>835.03999999999996</ele>
        <time>2018-09-18T12:12:49Z</time>
      </trkpt>
      <trkpt lat="47.39072397351265" lon="9.389167036861181">
        <ele>835.03999999999996</ele>
        <time>2018-09-18T12:12:50Z</time>
      </trkpt>
      <trkpt lat="47.390726990997791" lon="9.389229984954">
        <ele>834.55999999999995</ele>
        <time>2018-09-18T12:12:52Z</time>
      </trkpt>
      <trkpt lat="47.390731014311314" lon="9.389257980510593">
        <ele>834.55999999999995</ele>
        <time>2018-09-18T12:12:53Z</time>
      </trkpt>
      <trkpt lat="47.390773007646203" lon="9.389302991330624">
        <ele>834.08000000000004</ele>
        <time>2018-09-18T12:12:54Z</time>
      </trkpt>
      <trkpt lat="47.390827992931008" lon="9.389443974941969">
        <ele>834.08000000000004</ele>
        <time>2018-09-18T12:12:56Z</time>
      </trkpt>
      <trkpt lat="47.390865040943027" lon="9.389540031552315">
        <ele>834.08000000000004</ele>
        <time>2018-09-18T12:12:57Z</time>
      </trkpt>
      <trkpt lat="47.391119012609124" lon="9.390257019549608">
        <ele>836.96000000000004</ele>
        <time>2018-09-18T12:13:03Z</time>
      </trkpt>
      <trkpt lat="47.391549004241824" lon="9.39193801023066">
        <ele>843.69000000000005</ele>
        <time>2018-09-18T12:13:15Z</time>
      </trkpt>
      <trkpt lat="47.391586974263191" lon="9.39213003963232">
        <ele>844.17999999999995</ele>
        <time>2018-09-18T12:13:16Z</time>
      </trkpt>
      <trkpt lat="47.391600972041488" lon="9.392264988273382">
        <ele>845.13999999999999</ele>
        <time>2018-09-18T12:13:17Z</time>
      </trkpt>
      <trkpt lat="47.391801970079541" lon="9.393644984811544">
        <ele>848.5</ele>
        <time>2018-09-18T12:13:25Z</time>
      </trkpt>
      <trkpt lat="47.392151998355985" lon="9.39599703066051">
        <ele>856.66999999999996</ele>
        <time>2018-09-18T12:13:39Z</time>
      </trkpt>
      <trkpt lat="47.392213018611073" lon="9.396411012858152">
        <ele>858.11000000000001</ele>
        <time>2018-09-18T12:13:43Z</time>
      </trkpt>
      <trkpt lat="47.392274038866162" lon="9.396692980080843">
        <ele>858.59000000000003</ele>
        <time>2018-09-18T12:13:46Z</time>
      </trkpt>
      <trkpt lat="47.392297005280852" lon="9.396779984235764">
        <ele>858.59000000000003</ele>
        <time>2018-09-18T12:13:47Z</time>
      </trkpt>
      <trkpt lat="47.392316032201052" lon="9.396850978955627">
        <ele>858.59000000000003</ele>
        <time>2018-09-18T12:13:48Z</time>
      </trkpt>
      <trkpt lat="47.392405970022082" lon="9.397131018340588">
        <ele>858.59000000000003</ele>
        <time>2018-09-18T12:13:56Z</time>
      </trkpt>
      <trkpt lat="47.392405970022082" lon="9.397131018340588">
        <ele>858.59000000000003</ele>
        <time>2018-09-18T12:13:57Z</time>
      </trkpt>
      <trkpt lat="47.392405970022082" lon="9.397131018340588">
        <ele>858.59000000000003</ele>
        <time>2018-09-18T12:13:58Z</time>
      </trkpt>
      <trkpt lat="47.392423991113901" lon="9.397022975608707">
        <ele>858.59000000000003</ele>
        <time>2018-09-18T12:13:59Z</time>
      </trkpt>
      <trkpt lat="47.392423991113901" lon="9.397022975608707">
        <ele>858.59000000000003</ele>
        <time>2018-09-18T12:14:00Z</time>
      </trkpt>
      <trkpt lat="47.392489034682512" lon="9.397088019177318">
        <ele>858.59000000000003</ele>
        <time>2018-09-18T12:14:01Z</time>
      </trkpt>
      <trkpt lat="47.392504038289189" lon="9.397103022783995">
        <ele>858.59000000000003</ele>
        <time>2018-09-18T12:14:02Z</time>
      </trkpt>
      <trkpt lat="47.39252801053226" lon="9.397128000855446">
        <ele>858.59000000000003</ele>
        <time>2018-09-18T12:14:03Z</time>
      </trkpt>
      <trkpt lat="47.392562963068485" lon="9.397164965048432">
        <ele>858.59000000000003</ele>
        <time>2018-09-18T12:14:04Z</time>
      </trkpt>
      <trkpt lat="47.392610991373658" lon="9.397215005010366">
        <ele>858.59000000000003</ele>
        <time>2018-09-18T12:14:05Z</time>
      </trkpt>
      <trkpt lat="47.393108960241079" lon="9.397839959710836">
        <ele>859.55999999999995</ele>
        <time>2018-09-18T12:14:12Z</time>
      </trkpt>
      <trkpt lat="47.393190013244748" lon="9.397967029362917">
        <ele>859.55999999999995</ele>
        <time>2018-09-18T12:14:13Z</time>
      </trkpt>
      <trkpt lat="47.393253967165947" lon="9.398123016580939">
        <ele>859.55999999999995</ele>
        <time>2018-09-18T12:14:14Z</time>
      </trkpt>
      <trkpt lat="47.393307024613023" lon="9.398286966606975">
        <ele>859.55999999999995</ele>
        <time>2018-09-18T12:14:15Z</time>
      </trkpt>
      <trkpt lat="47.393359998241067" lon="9.398453012108803">
        <ele>859.08000000000004</ele>
        <time>2018-09-18T12:14:16Z</time>
      </trkpt>
      <trkpt lat="47.39341196604073" lon="9.398632971569896">
        <ele>859.08000000000004</ele>
        <time>2018-09-18T12:14:17Z</time>
      </trkpt>
      <trkpt lat="47.393420012667775" lon="9.398816032335162">
        <ele>859.08000000000004</ele>
        <time>2018-09-18T12:14:18Z</time>
      </trkpt>
      <trkpt lat="47.393428981304169" lon="9.399005966261029">
        <ele>859.55999999999995</ele>
        <time>2018-09-18T12:14:19Z</time>
      </trkpt>
      <trkpt lat="47.393438033759594" lon="9.399203024804592">
        <ele>859.55999999999995</ele>
        <time>2018-09-18T12:14:20Z</time>
      </trkpt>
      <trkpt lat="47.393541969358921" lon="9.400669019669294">
        <ele>861</ele>
        <time>2018-09-18T12:14:27Z</time>
      </trkpt>
      <trkpt lat="47.393589997664094" lon="9.400872029364109">
        <ele>861</ele>
        <time>2018-09-18T12:14:28Z</time>
      </trkpt>
      <trkpt lat="47.393653029575944" lon="9.401066992431879">
        <ele>861.48000000000002</ele>
        <time>2018-09-18T12:14:29Z</time>
      </trkpt>
      <trkpt lat="47.393720000982285" lon="9.401256004348397">
        <ele>861.96000000000004</ele>
        <time>2018-09-18T12:14:30Z</time>
      </trkpt>
      <trkpt lat="47.393814967945218" lon="9.401421966031194">
        <ele>861.96000000000004</ele>
        <time>2018-09-18T12:14:31Z</time>
      </trkpt>
      <trkpt lat="47.393915969878435" lon="9.401580970734358">
        <ele>862.44000000000005</ele>
        <time>2018-09-18T12:14:32Z</time>
      </trkpt>
      <trkpt lat="47.394015965983272" lon="9.401737041771412">
        <ele>862.44000000000005</ele>
        <time>2018-09-18T12:14:33Z</time>
      </trkpt>
      <trkpt lat="47.395044006407261" lon="9.402603982016444">
        <ele>864.36000000000001</ele>
        <time>2018-09-18T12:14:41Z</time>
      </trkpt>
      <trkpt lat="47.395935002714396" lon="9.403219968080521">
        <ele>865.79999999999995</ele>
        <time>2018-09-18T12:14:49Z</time>
      </trkpt>
      <trkpt lat="47.396026030182838" lon="9.403333961963654">
        <ele>866.28999999999996</ele>
        <time>2018-09-18T12:14:50Z</time>
      </trkpt>
      <trkpt lat="47.396110016852617" lon="9.403461031615734">
        <ele>866.76999999999998</ele>
        <time>2018-09-18T12:14:51Z</time>
      </trkpt>
      <trkpt lat="47.396167013794184" lon="9.403615007176995">
        <ele>867.25</ele>
        <time>2018-09-18T12:14:52Z</time>
      </trkpt>
      <trkpt lat="47.39622300490737" lon="9.403767976909876">
        <ele>867.73000000000002</ele>
        <time>2018-09-18T12:14:53Z</time>
      </trkpt>
      <trkpt lat="47.396259969100356" lon="9.403939973562956">
        <ele>867.73000000000002</ele>
        <time>2018-09-18T12:14:54Z</time>
      </trkpt>
      <trkpt lat="47.396298022940755" lon="9.404120016843081">
        <ele>868.21000000000004</ele>
        <time>2018-09-18T12:14:55Z</time>
      </trkpt>
      <trkpt lat="47.396335992962122" lon="9.404308022931218">
        <ele>868.21000000000004</ele>
        <time>2018-09-18T12:14:56Z</time>
      </trkpt>
      <trkpt lat="47.39684795960784" lon="9.406171990558505">
        <ele>870.61000000000001</ele>
        <time>2018-09-18T12:15:05Z</time>
      </trkpt>
      <trkpt lat="47.397418012842536" lon="9.407357024028897">
        <ele>871.57000000000005</ele>
        <time>2018-09-18T12:15:10Z</time>
      </trkpt>
      <trkpt lat="47.397517003118992" lon="9.407615019008517">
        <ele>871.57000000000005</ele>
        <time>2018-09-18T12:15:11Z</time>
      </trkpt>
      <trkpt lat="47.397583974525332" lon="9.407893968746066">
        <ele>871.57000000000005</ele>
        <time>2018-09-18T12:15:12Z</time>
      </trkpt>
      <trkpt lat="47.398089990019798" lon="9.410465033724904">
        <ele>875.89999999999998</ele>
        <time>2018-09-18T12:15:22Z</time>
      </trkpt>
      <trkpt lat="47.398641016334295" lon="9.41331303678453">
        <ele>881.19000000000005</ele>
        <time>2018-09-18T12:15:31Z</time>
      </trkpt>
      <trkpt lat="47.398748975247145" lon="9.413557033985853">
        <ele>881.66999999999996</ele>
        <time>2018-09-18T12:15:32Z</time>
      </trkpt>
      <trkpt lat="47.398863974958658" lon="9.413793990388513">
        <ele>882.14999999999998</ele>
        <time>2018-09-18T12:15:33Z</time>
      </trkpt>
      <trkpt lat="47.399006970226765" lon="9.413995994254947">
        <ele>882.14999999999998</ele>
        <time>2018-09-18T12:15:34Z</time>
      </trkpt>
      <trkpt lat="47.399150971323252" lon="9.414200009778142">
        <ele>882.14999999999998</ele>
        <time>2018-09-18T12:15:35Z</time>
      </trkpt>
      <trkpt lat="47.399297989904881" lon="9.414407964795828">
        <ele>882.63</ele>
        <time>2018-09-18T12:15:36Z</time>
      </trkpt>
      <trkpt lat="47.399440985172987" lon="9.414609968662262">
        <ele>882.63</ele>
        <time>2018-09-18T12:15:37Z</time>
      </trkpt>
      <trkpt lat="47.399531006813049" lon="9.414869975298643">
        <ele>883.11000000000001</ele>
        <time>2018-09-18T12:15:38Z</time>
      </trkpt>
      <trkpt lat="47.399602001532912" lon="9.415137022733688">
        <ele>883.59000000000003</ele>
        <time>2018-09-18T12:15:39Z</time>
      </trkpt>
      <trkpt lat="47.399647012352943" lon="9.415422007441521">
        <ele>884.07000000000005</ele>
        <time>2018-09-18T12:15:40Z</time>
      </trkpt>
      <trkpt lat="47.399694034829736" lon="9.415710009634495">
        <ele>884.07000000000005</ele>
        <time>2018-09-18T12:15:41Z</time>
      </trkpt>
      <trkpt lat="47.399931997060776" lon="9.417211962863803">
        <ele>886.95000000000005</ele>
        <time>2018-09-18T12:15:47Z</time>
      </trkpt>
      <trkpt lat="47.399986982345581" lon="9.417464006692171">
        <ele>887.42999999999995</ele>
        <time>2018-09-18T12:15:48Z</time>
      </trkpt>
      <trkpt lat="47.400614032521844" lon="9.41924599930644">
        <ele>891.27999999999997</ele>
        <time>2018-09-18T12:15:55Z</time>
      </trkpt>
      <trkpt lat="47.401525983586907" lon="9.420691039413214">
        <ele>894.15999999999997</ele>
        <time>2018-09-18T12:16:02Z</time>
      </trkpt>
      <trkpt lat="47.402011966332793" lon="9.421453960239887">
        <ele>895.12</ele>
        <time>2018-09-18T12:16:06Z</time>
      </trkpt>
      <trkpt lat="47.402078015729785" lon="9.421653030440211">
        <ele>895.61000000000001</ele>
        <time>2018-09-18T12:16:07Z</time>
      </trkpt>
      <trkpt lat="47.402143981307745" lon="9.421848999336362">
        <ele>895.61000000000001</ele>
        <time>2018-09-18T12:16:08Z</time>
      </trkpt>
      <trkpt lat="47.402154039591551" lon="9.422033987939358">
        <ele>895.61000000000001</ele>
        <time>2018-09-18T12:16:09Z</time>
      </trkpt>
      <trkpt lat="47.402165019884706" lon="9.422235991805792">
        <ele>895.61000000000001</ele>
        <time>2018-09-18T12:16:10Z</time>
      </trkpt>
      <trkpt lat="47.402140963822603" lon="9.42242399789393">
        <ele>896.57000000000005</ele>
        <time>2018-09-18T12:16:11Z</time>
      </trkpt>
      <trkpt lat="47.402114979922771" lon="9.422620972618461">
        <ele>897.04999999999995</ele>
        <time>2018-09-18T12:16:12Z</time>
      </trkpt>
      <trkpt lat="47.402092013508081" lon="9.422819036990404">
        <ele>897.52999999999997</ele>
        <time>2018-09-18T12:16:13Z</time>
      </trkpt>
      <trkpt lat="47.402072986587882" lon="9.423022968694568">
        <ele>898.49000000000001</ele>
        <time>2018-09-18T12:16:14Z</time>
      </trkpt>
      <trkpt lat="47.402037028223276" lon="9.423432005569339">
        <ele>899.45000000000005</ele>
        <time>2018-09-18T12:16:16Z</time>
      </trkpt>
      <trkpt lat="47.402037028223276" lon="9.423650018870831">
        <ele>899.92999999999995</ele>
        <time>2018-09-18T12:16:17Z</time>
      </trkpt>
      <trkpt lat="47.402043985202909" lon="9.423882029950619">
        <ele>900.40999999999997</ele>
        <time>2018-09-18T12:16:18Z</time>
      </trkpt>
      <trkpt lat="47.40209000185132" lon="9.424112029373646">
        <ele>900.88999999999999</ele>
        <time>2018-09-18T12:16:19Z</time>
      </trkpt>
      <trkpt lat="47.402137024328113" lon="9.424346974119544">
        <ele>901.37</ele>
        <time>2018-09-18T12:16:20Z</time>
      </trkpt>
      <trkpt lat="47.402229979634285" lon="9.42481099627912">
        <ele>902.33000000000004</ele>
        <time>2018-09-18T12:16:22Z</time>
      </trkpt>
      <trkpt lat="47.402242971584201" lon="9.425022974610329">
        <ele>902.82000000000005</ele>
        <time>2018-09-18T12:16:23Z</time>
      </trkpt>
      <trkpt lat="47.402232997119427" lon="9.425237970426679">
        <ele>903.29999999999995</ele>
        <time>2018-09-18T12:16:24Z</time>
      </trkpt>
      <trkpt lat="47.402184968814254" lon="9.425451960414648">
        <ele>903.77999999999997</ele>
        <time>2018-09-18T12:16:25Z</time>
      </trkpt>
      <trkpt lat="47.402122020721436" lon="9.425676008686423">
        <ele>904.25999999999999</ele>
        <time>2018-09-18T12:16:26Z</time>
      </trkpt>
      <trkpt lat="47.40204700268805" lon="9.425907013937831">
        <ele>904.74000000000001</ele>
        <time>2018-09-18T12:16:27Z</time>
      </trkpt>
      <trkpt lat="47.401757994666696" lon="9.426805973052979">
        <ele>906.17999999999995</ele>
        <time>2018-09-18T12:16:31Z</time>
      </trkpt>
      <trkpt lat="47.40174500271678" lon="9.427028009667993">
        <ele>906.17999999999995</ele>
        <time>2018-09-18T12:16:32Z</time>
      </trkpt>
      <trkpt lat="47.401747014373541" lon="9.427243005484343">
        <ele>906.65999999999997</ele>
        <time>2018-09-18T12:16:33Z</time>
      </trkpt>
      <trkpt lat="47.401778027415276" lon="9.427463030442596">
        <ele>907.13999999999999</ele>
        <time>2018-09-18T12:16:34Z</time>
      </trkpt>
      <trkpt lat="47.401821026578546" lon="9.427671991288662">
        <ele>907.13999999999999</ele>
        <time>2018-09-18T12:16:35Z</time>
      </trkpt>
      <trkpt lat="47.40189503878355" lon="9.427850022912026">
        <ele>907.62</ele>
        <time>2018-09-18T12:16:36Z</time>
      </trkpt>
      <trkpt lat="47.401958992704749" lon="9.427994024008513">
        <ele>908.10000000000002</ele>
        <time>2018-09-18T12:16:37Z</time>
      </trkpt>
      <trkpt lat="47.402076004073024" lon="9.428097037598491">
        <ele>908.10000000000002</ele>
        <time>2018-09-18T12:16:38Z</time>
      </trkpt>
      <trkpt lat="47.402192009612918" lon="9.428169960156083">
        <ele>907.62</ele>
        <time>2018-09-18T12:16:39Z</time>
      </trkpt>
      <trkpt lat="47.402317989617586" lon="9.42820399068296">
        <ele>907.13999999999999</ele>
        <time>2018-09-18T12:16:40Z</time>
      </trkpt>
      <trkpt lat="47.402587970718741" lon="9.428287977352738">
        <ele>906.65999999999997</ele>
        <time>2018-09-18T12:16:42Z</time>
      </trkpt>
      <trkpt lat="47.4027110170573" lon="9.428366012871265">
        <ele>906.65999999999997</ele>
        <time>2018-09-18T12:16:43Z</time>
      </trkpt>
      <trkpt lat="47.402835991233587" lon="9.428480006754398">
        <ele>906.65999999999997</ele>
        <time>2018-09-18T12:16:44Z</time>
      </trkpt>
      <trkpt lat="47.402932969853282" lon="9.428643034771085">
        <ele>906.65999999999997</ele>
        <time>2018-09-18T12:16:45Z</time>
      </trkpt>
      <trkpt lat="47.402985021471977" lon="9.428817965090275">
        <ele>906.65999999999997</ele>
        <time>2018-09-18T12:16:46Z</time>
      </trkpt>
      <trkpt lat="47.403027014806867" lon="9.429013011977077">
        <ele>906.65999999999997</ele>
        <time>2018-09-18T12:16:47Z</time>
      </trkpt>
      <trkpt lat="47.403039000928402" lon="9.42921401001513">
        <ele>906.65999999999997</ele>
        <time>2018-09-18T12:16:48Z</time>
      </trkpt>
      <trkpt lat="47.403084011748433" lon="9.430064018815756">
        <ele>907.62</ele>
        <time>2018-09-18T12:16:52Z</time>
      </trkpt>
      <trkpt lat="47.403066996484995" lon="9.430239032953978">
        <ele>908.10000000000002</ele>
        <time>2018-09-18T12:16:53Z</time>
      </trkpt>
      <trkpt lat="47.403008993715048" lon="9.430440030992031">
        <ele>908.10000000000002</ele>
        <time>2018-09-18T12:16:54Z</time>
      </trkpt>
      <trkpt lat="47.402939004823565" lon="9.430612027645111">
        <ele>908.58000000000004</ele>
        <time>2018-09-18T12:16:55Z</time>
      </trkpt>
      <trkpt lat="47.402844959869981" lon="9.430776983499527">
        <ele>908.58000000000004</ele>
        <time>2018-09-18T12:16:56Z</time>
      </trkpt>
      <trkpt lat="47.402748987078667" lon="9.430945962667465">
        <ele>909.05999999999995</ele>
        <time>2018-09-18T12:16:57Z</time>
      </trkpt>
      <trkpt lat="47.402445981279016" lon="9.43166202865541">
        <ele>910.02999999999997</ele>
        <time>2018-09-18T12:17:01Z</time>
      </trkpt>
      <trkpt lat="47.402412034571171" lon="9.43185799755156">
        <ele>910.50999999999999</ele>
        <time>2018-09-18T12:17:02Z</time>
      </trkpt>
      <trkpt lat="47.402378004044294" lon="9.432067964226008">
        <ele>910.50999999999999</ele>
        <time>2018-09-18T12:17:03Z</time>
      </trkpt>
      <trkpt lat="47.402384039014578" lon="9.433518033474684">
        <ele>912.42999999999995</ele>
        <time>2018-09-18T12:17:09Z</time>
      </trkpt>
      <trkpt lat="47.402424020692706" lon="9.433775022625923">
        <ele>912.90999999999997</ele>
        <time>2018-09-18T12:17:10Z</time>
      </trkpt>
      <trkpt lat="47.402486968785524" lon="9.434018013998866">
        <ele>913.38999999999999</ele>
        <time>2018-09-18T12:17:11Z</time>
      </trkpt>
      <trkpt lat="47.402574978768826" lon="9.434244995936751">
        <ele>913.38999999999999</ele>
        <time>2018-09-18T12:17:12Z</time>
      </trkpt>
      <trkpt lat="47.402662988752127" lon="9.434472983703017">
        <ele>913.38999999999999</ele>
        <time>2018-09-18T12:17:13Z</time>
      </trkpt>
      <trkpt lat="47.402758039534092" lon="9.434701977297664">
        <ele>913.87</ele>
        <time>2018-09-18T12:17:14Z</time>
      </trkpt>
      <trkpt lat="47.404032004997134" lon="9.437534976750612">
        <ele>918.67999999999995</ele>
        <time>2018-09-18T12:17:27Z</time>
      </trkpt>
      <trkpt lat="47.404331993311644" lon="9.438222041353583">
        <ele>920.60000000000002</ele>
        <time>2018-09-18T12:17:32Z</time>
      </trkpt>
      <trkpt lat="47.404385972768068" lon="9.43834500387311">
        <ele>921.08000000000004</ele>
        <time>2018-09-18T12:17:33Z</time>
      </trkpt>
      <trkpt lat="47.405047975480556" lon="9.439687030389905">
        <ele>923</ele>
        <time>2018-09-18T12:17:43Z</time>
      </trkpt>
      <trkpt lat="47.406033016741276" lon="9.441426023840904">
        <ele>920.60000000000002</ele>
        <time>2018-09-18T12:17:56Z</time>
      </trkpt>
      <trkpt lat="47.406353959813714" lon="9.44197797216475">
        <ele>918.67999999999995</ele>
        <time>2018-09-18T12:18:00Z</time>
      </trkpt>
      <trkpt lat="47.407479984685779" lon="9.443864990025759">
        <ele>911.47000000000003</ele>
        <time>2018-09-18T12:18:14Z</time>
      </trkpt>
      <trkpt lat="47.408350026234984" lon="9.445196958258748">
        <ele>909.53999999999996</ele>
        <time>2018-09-18T12:18:25Z</time>
      </trkpt>
      <trkpt lat="47.408499978482723" lon="9.445426035672426">
        <ele>909.53999999999996</ele>
        <time>2018-09-18T12:18:31Z</time>
      </trkpt>
      <trkpt lat="47.408510036766529" lon="9.445571964606643">
        <ele>909.05999999999995</ele>
        <time>2018-09-18T12:18:37Z</time>
      </trkpt>
      <trkpt lat="47.408468965440989" lon="9.445633990690112">
        <ele>909.05999999999995</ele>
        <time>2018-09-18T12:18:38Z</time>
      </trkpt>
      <trkpt lat="47.408415991812944" lon="9.44571596570313">
        <ele>908.58000000000004</ele>
        <time>2018-09-18T12:18:39Z</time>
      </trkpt>
      <trkpt lat="47.407896984368563" lon="9.446740988641977">
        <ele>908.10000000000002</ele>
        <time>2018-09-18T12:18:47Z</time>
      </trkpt>
      <trkpt lat="47.407463975250721" lon="9.44805602543056">
        <ele>913.38999999999999</ele>
        <time>2018-09-18T12:18:55Z</time>
      </trkpt>
      <trkpt lat="47.407193994149566" lon="9.450049996376038">
        <ele>922.03999999999996</ele>
        <time>2018-09-18T12:19:06Z</time>
      </trkpt>
      <trkpt lat="47.406823011115193" lon="9.451414989307523">
        <ele>925.88999999999999</ele>
        <time>2018-09-18T12:19:14Z</time>
      </trkpt>
      <trkpt lat="47.406740030273795" lon="9.451528983190656">
        <ele>925.88999999999999</ele>
        <time>2018-09-18T12:19:15Z</time>
      </trkpt>
      <trkpt lat="47.406659983098507" lon="9.451639037579298">
        <ele>925.88999999999999</ele>
        <time>2018-09-18T12:19:16Z</time>
      </trkpt>
      <trkpt lat="47.406566021963954" lon="9.451745990663767">
        <ele>925.40999999999997</ele>
        <time>2018-09-18T12:19:17Z</time>
      </trkpt>
      <trkpt lat="47.40645001642406" lon="9.451780021190643">
        <ele>925.40999999999997</ele>
        <time>2018-09-18T12:19:18Z</time>
      </trkpt>
      <trkpt lat="47.406323030591011" lon="9.451802987605333">
        <ele>925.40999999999997</ele>
        <time>2018-09-18T12:19:19Z</time>
      </trkpt>
      <trkpt lat="47.406185986474156" lon="9.451799970120192">
        <ele>924.92999999999995</ele>
        <time>2018-09-18T12:19:20Z</time>
      </trkpt>
      <trkpt lat="47.40604299120605" lon="9.451797036454082">
        <ele>924.45000000000005</ele>
        <time>2018-09-18T12:19:21Z</time>
      </trkpt>
      <trkpt lat="47.40589203312993" lon="9.45179401896894">
        <ele>923.96000000000004</ele>
        <time>2018-09-18T12:19:22Z</time>
      </trkpt>
      <trkpt lat="47.405448965728283" lon="9.451784966513515">
        <ele>922.03999999999996</ele>
        <time>2018-09-18T12:19:25Z</time>
      </trkpt>
      <trkpt lat="47.405310999602079" lon="9.451797036454082">
        <ele>921.08000000000004</ele>
        <time>2018-09-18T12:19:26Z</time>
      </trkpt>
      <trkpt lat="47.405184013769031" lon="9.451856967061758">
        <ele>920.60000000000002</ele>
        <time>2018-09-18T12:19:27Z</time>
      </trkpt>
      <trkpt lat="47.405062979087234" lon="9.451913964003325">
        <ele>919.63999999999999</ele>
        <time>2018-09-18T12:19:28Z</time>
      </trkpt>
      <trkpt lat="47.404946973547339" lon="9.451978001743555">
        <ele>919.15999999999997</ele>
        <time>2018-09-18T12:19:29Z</time>
      </trkpt>
      <trkpt lat="47.404835997149348" lon="9.452067017555237">
        <ele>918.20000000000005</ele>
        <time>2018-09-18T12:19:30Z</time>
      </trkpt>
      <trkpt lat="47.404730971902609" lon="9.452162990346551">
        <ele>917.24000000000001</ele>
        <time>2018-09-18T12:19:31Z</time>
      </trkpt>
      <trkpt lat="47.404633993282914" lon="9.452277990058065">
        <ele>915.78999999999996</ele>
        <time>2018-09-18T12:19:32Z</time>
      </trkpt>
      <trkpt lat="47.403532024472952" lon="9.453731998801231">
        <ele>904.74000000000001</ele>
        <time>2018-09-18T12:19:44Z</time>
      </trkpt>
      <trkpt lat="47.403364973142743" lon="9.453999968245626">
        <ele>903.29999999999995</ele>
        <time>2018-09-18T12:19:46Z</time>
      </trkpt>
      <trkpt lat="47.403320968151093" lon="9.454167019575834">
        <ele>902.33000000000004</ele>
        <time>2018-09-18T12:19:47Z</time>
      </trkpt>
      <trkpt lat="47.403280986472964" lon="9.454314960166812">
        <ele>901.85000000000002</ele>
        <time>2018-09-18T12:19:48Z</time>
      </trkpt>
      <trkpt lat="47.403280986472964" lon="9.454492991790175">
        <ele>901.37</ele>
        <time>2018-09-18T12:19:49Z</time>
      </trkpt>
      <trkpt lat="47.403280986472964" lon="9.454661970958114">
        <ele>900.88999999999999</ele>
        <time>2018-09-18T12:19:50Z</time>
      </trkpt>
      <trkpt lat="47.403327003121376" lon="9.45480203256011">
        <ele>900.88999999999999</ele>
        <time>2018-09-18T12:19:51Z</time>
      </trkpt>
      <trkpt lat="47.403391962870955" lon="9.454947039484978">
        <ele>900.40999999999997</ele>
        <time>2018-09-18T12:19:52Z</time>
      </trkpt>
      <trkpt lat="47.403458012267947" lon="9.455094980075955">
        <ele>900.40999999999997</ele>
        <time>2018-09-18T12:19:53Z</time>
      </trkpt>
      <trkpt lat="47.403543004766107" lon="9.455193970352411">
        <ele>900.40999999999997</ele>
        <time>2018-09-18T12:19:54Z</time>
      </trkpt>
      <trkpt lat="47.403648030012846" lon="9.455292038619518">
        <ele>900.88999999999999</ele>
        <time>2018-09-18T12:19:55Z</time>
      </trkpt>
      <trkpt lat="47.403750959783792" lon="9.455389017239213">
        <ele>900.88999999999999</ele>
        <time>2018-09-18T12:19:56Z</time>
      </trkpt>
      <trkpt lat="47.403859002515674" lon="9.455451965332031">
        <ele>901.37</ele>
        <time>2018-09-18T12:19:57Z</time>
      </trkpt>
      <trkpt lat="47.403978025540709" lon="9.455493958666921">
        <ele>901.85000000000002</ele>
        <time>2018-09-18T12:19:58Z</time>
      </trkpt>
      <trkpt lat="47.404095036908984" lon="9.455534024164081">
        <ele>902.33000000000004</ele>
        <time>2018-09-18T12:19:59Z</time>
      </trkpt>
      <trkpt lat="47.404210036620498" lon="9.455574005842209">
        <ele>902.82000000000005</ele>
        <time>2018-09-18T12:20:00Z</time>
      </trkpt>
      <trkpt lat="47.404975974932313" lon="9.455602001398802">
        <ele>906.65999999999997</ele>
        <time>2018-09-18T12:20:07Z</time>
      </trkpt>
      <trkpt lat="47.405100027099252" lon="9.455668972805142">
        <ele>906.65999999999997</ele>
        <time>2018-09-18T12:20:08Z</time>
      </trkpt>
      <trkpt lat="47.405206980183721" lon="9.455725969746709">
        <ele>907.13999999999999</ele>
        <time>2018-09-18T12:20:09Z</time>
      </trkpt>
      <trkpt lat="47.405304964631796" lon="9.455807022750378">
        <ele>908.10000000000002</ele>
        <time>2018-09-18T12:20:10Z</time>
      </trkpt>
      <trkpt lat="47.405393980443478" lon="9.455906013026834">
        <ele>908.58000000000004</ele>
        <time>2018-09-18T12:20:11Z</time>
      </trkpt>
      <trkpt lat="47.405472015962005" lon="9.45602897554636">
        <ele>910.02999999999997</ele>
        <time>2018-09-18T12:20:12Z</time>
      </trkpt>
      <trkpt lat="47.405525995418429" lon="9.456173982471228">
        <ele>910.99000000000001</ele>
        <time>2018-09-18T12:20:13Z</time>
      </trkpt>
      <trkpt lat="47.405580980703235" lon="9.456319995224476">
        <ele>911.47000000000003</ele>
        <time>2018-09-18T12:20:14Z</time>
      </trkpt>
      <trkpt lat="47.405642000958323" lon="9.456482017412782">
        <ele>911.95000000000005</ele>
        <time>2018-09-18T12:20:15Z</time>
      </trkpt>
      <trkpt lat="47.405677959322929" lon="9.456631969660521">
        <ele>912.42999999999995</ele>
        <time>2018-09-18T12:20:16Z</time>
      </trkpt>
      <trkpt lat="47.405717018991709" lon="9.456797009333968">
        <ele>912.90999999999997</ele>
        <time>2018-09-18T12:20:17Z</time>
      </trkpt>
      <trkpt lat="47.406125972047448" lon="9.458380015566945">
        <ele>916.75</ele>
        <time>2018-09-18T12:20:26Z</time>
      </trkpt>
      <trkpt lat="47.406221022829413" lon="9.459882974624634">
        <ele>914.83000000000004</ele>
        <time>2018-09-18T12:20:34Z</time>
      </trkpt>
      <trkpt lat="47.406270978972316" lon="9.460054971277714">
        <ele>914.35000000000002</ele>
        <time>2018-09-18T12:20:35Z</time>
      </trkpt>
      <trkpt lat="47.406307021155953" lon="9.460172988474369">
        <ele>913.87</ele>
        <time>2018-09-18T12:20:36Z</time>
      </trkpt>
      <trkpt lat="47.406425038352609" lon="9.46030299179256">
        <ele>913.87</ele>
        <time>2018-09-18T12:20:37Z</time>
      </trkpt>
      <trkpt lat="47.406520005315542" lon="9.460407011210918">
        <ele>913.38999999999999</ele>
        <time>2018-09-18T12:20:38Z</time>
      </trkpt>
      <trkpt lat="47.406608015298843" lon="9.460503989830613">
        <ele>913.38999999999999</ele>
        <time>2018-09-18T12:20:39Z</time>
      </trkpt>
      <trkpt lat="47.406692001968622" lon="9.460597028955817">
        <ele>913.38999999999999</ele>
        <time>2018-09-18T12:20:40Z</time>
      </trkpt>
      <trkpt lat="47.407360961660743" lon="9.46129197254777">
        <ele>913.38999999999999</ele>
        <time>2018-09-18T12:20:48Z</time>
      </trkpt>
      <trkpt lat="47.407432962208986" lon="9.461384005844593">
        <ele>913.38999999999999</ele>
        <time>2018-09-18T12:20:49Z</time>
      </trkpt>
      <trkpt lat="47.407506974413991" lon="9.461476961150765">
        <ele>912.90999999999997</ele>
        <time>2018-09-18T12:20:50Z</time>
      </trkpt>
      <trkpt lat="47.407648963853717" lon="9.461687011644244">
        <ele>912.42999999999995</ele>
        <time>2018-09-18T12:20:52Z</time>
      </trkpt>
      <trkpt lat="47.407830012962222" lon="9.462061012163758">
        <ele>910.50999999999999</ele>
        <time>2018-09-18T12:20:55Z</time>
      </trkpt>
      <trkpt lat="47.408108962699771" lon="9.463269012048841">
        <ele>906.17999999999995</ele>
        <time>2018-09-18T12:21:05Z</time>
      </trkpt>
      <trkpt lat="47.408108962699771" lon="9.463422987610102">
        <ele>906.17999999999995</ele>
        <time>2018-09-18T12:21:07Z</time>
      </trkpt>
      <trkpt lat="47.408108962699771" lon="9.463504040613771">
        <ele>905.70000000000005</ele>
        <time>2018-09-18T12:21:08Z</time>
      </trkpt>
      <trkpt lat="47.408108962699771" lon="9.463593978434801">
        <ele>905.70000000000005</ele>
        <time>2018-09-18T12:21:09Z</time>
      </trkpt>
      <trkpt lat="47.408108962699771" lon="9.463692968711257">
        <ele>905.70000000000005</ele>
        <time>2018-09-18T12:21:10Z</time>
      </trkpt>
      <trkpt lat="47.408108962699771" lon="9.463792964816093">
        <ele>905.70000000000005</ele>
        <time>2018-09-18T12:21:11Z</time>
      </trkpt>
      <trkpt lat="47.408108962699771" lon="9.463881980627775">
        <ele>905.22000000000003</ele>
        <time>2018-09-18T12:21:12Z</time>
      </trkpt>
      <trkpt lat="47.408028999343514" lon="9.46425799280405">
        <ele>901.85000000000002</ele>
        <time>2018-09-18T12:21:19Z</time>
      </trkpt>
      <trkpt lat="47.408010978251696" lon="9.464326975867152">
        <ele>901.37</ele>
        <time>2018-09-18T12:21:20Z</time>
      </trkpt>
      <trkpt lat="47.407992035150528" lon="9.464399982243776">
        <ele>900.88999999999999</ele>
        <time>2018-09-18T12:21:21Z</time>
      </trkpt>
      <trkpt lat="47.407836969941854" lon="9.464724026620388">
        <ele>898.00999999999999</ele>
        <time>2018-09-18T12:21:28Z</time>
      </trkpt>
      <trkpt lat="47.407334977760911" lon="9.464914966374636">
        <ele>895.61000000000001</ele>
        <time>2018-09-18T12:21:36Z</time>
      </trkpt>
      <trkpt lat="47.407254008576274" lon="9.464914966374636">
        <ele>895.61000000000001</ele>
        <time>2018-09-18T12:21:37Z</time>
      </trkpt>
      <trkpt lat="47.407171027734876" lon="9.464914966374636">
        <ele>895.12</ele>
        <time>2018-09-18T12:21:38Z</time>
      </trkpt>
      <trkpt lat="47.40681697614491" lon="9.464861992746592">
        <ele>895.12</ele>
        <time>2018-09-18T12:21:42Z</time>
      </trkpt>
      <trkpt lat="47.406224962323904" lon="9.464629981666803">
        <ele>891.75999999999999</ele>
        <time>2018-09-18T12:21:48Z</time>
      </trkpt>
      <trkpt lat="47.406123960390687" lon="9.464593017473817">
        <ele>891.27999999999997</ele>
        <time>2018-09-18T12:21:49Z</time>
      </trkpt>
      <trkpt lat="47.406006027013063" lon="9.464550018310547">
        <ele>890.79999999999995</ele>
        <time>2018-09-18T12:21:50Z</time>
      </trkpt>
      <trkpt lat="47.40591399371624" lon="9.464562004432082">
        <ele>890.32000000000005</ele>
        <time>2018-09-18T12:21:51Z</time>
      </trkpt>
      <trkpt lat="47.405803017318249" lon="9.464576002210379">
        <ele>889.84000000000003</ele>
        <time>2018-09-18T12:21:52Z</time>
      </trkpt>
      <trkpt lat="47.405690029263496" lon="9.464591005817056">
        <ele>889.84000000000003</ele>
        <time>2018-09-18T12:21:53Z</time>
      </trkpt>
      <trkpt lat="47.40557000041008" lon="9.464607015252113">
        <ele>889.36000000000001</ele>
        <time>2018-09-18T12:21:54Z</time>
      </trkpt>
      <trkpt lat="47.405450977385044" lon="9.464645991101861">
        <ele>889.36000000000001</ele>
        <time>2018-09-18T12:21:55Z</time>
      </trkpt>
      <trkpt lat="47.405342012643814" lon="9.464699970558286">
        <ele>888.88</ele>
        <time>2018-09-18T12:21:56Z</time>
      </trkpt>
      <trkpt lat="47.404998019337654" lon="9.464893005788326">
        <ele>887.90999999999997</ele>
        <time>2018-09-18T12:21:59Z</time>
      </trkpt>
      <trkpt lat="47.404874972999096" lon="9.464910021051765">
        <ele>887.90999999999997</ele>
        <time>2018-09-18T12:22:00Z</time>
      </trkpt>
      <trkpt lat="47.404486974701285" lon="9.46498897857964">
        <ele>887.42999999999995</ele>
        <time>2018-09-18T12:22:03Z</time>
      </trkpt>
      <trkpt lat="47.404373986646533" lon="9.465076988562942">
        <ele>887.42999999999995</ele>
        <time>2018-09-18T12:22:04Z</time>
      </trkpt>
      <trkpt lat="47.4042599927634" lon="9.465167010203004">
        <ele>887.42999999999995</ele>
        <time>2018-09-18T12:22:05Z</time>
      </trkpt>
      <trkpt lat="47.404145998880267" lon="9.465258037671447">
        <ele>886.95000000000005</ele>
        <time>2018-09-18T12:22:06Z</time>
      </trkpt>
      <trkpt lat="47.404018007218838" lon="9.465285027399659">
        <ele>886.47000000000003</ele>
        <time>2018-09-18T12:22:07Z</time>
      </trkpt>
      <trkpt lat="47.403884986415505" lon="9.465292990207672">
        <ele>885.99000000000001</ele>
        <time>2018-09-18T12:22:08Z</time>
      </trkpt>
      <trkpt lat="47.403732016682625" lon="9.465301036834717">
        <ele>885.50999999999999</ele>
        <time>2018-09-18T12:22:09Z</time>
      </trkpt>
      <trkpt lat="47.403632020577788" lon="9.465367002412677">
        <ele>885.02999999999997</ele>
        <time>2018-09-18T12:22:10Z</time>
      </trkpt>
      <trkpt lat="47.403520038351417" lon="9.465442020446062">
        <ele>884.54999999999995</ele>
        <time>2018-09-18T12:22:11Z</time>
      </trkpt>
      <trkpt lat="47.403291966766119" lon="9.465593984350562">
        <ele>884.07000000000005</ele>
        <time>2018-09-18T12:22:13Z</time>
      </trkpt>
      <trkpt lat="47.403179984539747" lon="9.465644024312496">
        <ele>884.07000000000005</ele>
        <time>2018-09-18T12:22:14Z</time>
      </trkpt>
      <trkpt lat="47.403002036735415" lon="9.465644024312496">
        <ele>884.07000000000005</ele>
        <time>2018-09-18T12:22:15Z</time>
      </trkpt>
      <trkpt lat="47.402910003438592" lon="9.465602030977607">
        <ele>883.59000000000003</ele>
        <time>2018-09-18T12:22:16Z</time>
      </trkpt>
      <trkpt lat="47.402775976806879" lon="9.465540004894137">
        <ele>883.11000000000001</ele>
        <time>2018-09-18T12:22:17Z</time>
      </trkpt>
      <trkpt lat="47.40264798514545" lon="9.465492982417345">
        <ele>882.63</ele>
        <time>2018-09-18T12:22:18Z</time>
      </trkpt>
      <trkpt lat="47.402509013190866" lon="9.465450989082456">
        <ele>882.14999999999998</ele>
        <time>2018-09-18T12:22:19Z</time>
      </trkpt>
      <trkpt lat="47.402439024299383" lon="9.46546096354723">
        <ele>882.14999999999998</ele>
        <time>2018-09-18T12:22:20Z</time>
      </trkpt>
      <trkpt lat="47.402329975739121" lon="9.465532964095473">
        <ele>881.19000000000005</ele>
        <time>2018-09-18T12:22:21Z</time>
      </trkpt>
      <trkpt lat="47.402270967140794" lon="9.46565399877727">
        <ele>880.71000000000004</ele>
        <time>2018-09-18T12:22:22Z</time>
      </trkpt>
      <trkpt lat="47.402208019047976" lon="9.46578299626708">
        <ele>880.22000000000003</ele>
        <time>2018-09-18T12:22:23Z</time>
      </trkpt>
      <trkpt lat="47.402138030156493" lon="9.465928003191948">
        <ele>880.22000000000003</ele>
        <time>2018-09-18T12:22:24Z</time>
      </trkpt>
      <trkpt lat="47.402065023779869" lon="9.466079967096448">
        <ele>879.74000000000001</ele>
        <time>2018-09-18T12:22:25Z</time>
      </trkpt>
      <trkpt lat="47.40176796913147" lon="9.466693019494414">
        <ele>877.82000000000005</ele>
        <time>2018-09-18T12:22:29Z</time>
      </trkpt>
      <trkpt lat="47.401707032695413" lon="9.466806007549167">
        <ele>877.82000000000005</ele>
        <time>2018-09-18T12:22:30Z</time>
      </trkpt>
      <trkpt lat="47.401612987741828" lon="9.466840960085392">
        <ele>877.82000000000005</ele>
        <time>2018-09-18T12:22:31Z</time>
      </trkpt>
      <trkpt lat="47.401512991636992" lon="9.466879013925791">
        <ele>877.82000000000005</ele>
        <time>2018-09-18T12:22:32Z</time>
      </trkpt>
      <trkpt lat="47.401414001360536" lon="9.466915978118777">
        <ele>877.34000000000003</ele>
        <time>2018-09-18T12:22:33Z</time>
      </trkpt>
      <trkpt lat="47.401325991377234" lon="9.466949002817273">
        <ele>876.86000000000001</ele>
        <time>2018-09-18T12:22:34Z</time>
      </trkpt>
      <trkpt lat="47.401200011372566" lon="9.466996025294066">
        <ele>876.38</ele>
        <time>2018-09-18T12:22:35Z</time>
      </trkpt>
      <trkpt lat="47.401189031079412" lon="9.46702997200191">
        <ele>876.38</ele>
        <time>2018-09-18T12:22:36Z</time>
      </trkpt>
      <trkpt lat="47.401159023866057" lon="9.467125022783876">
        <ele>875.89999999999998</ele>
        <time>2018-09-18T12:22:37Z</time>
      </trkpt>
      <trkpt lat="47.401127004995942" lon="9.467227030545473">
        <ele>875.89999999999998</ele>
        <time>2018-09-18T12:22:38Z</time>
      </trkpt>
      <trkpt lat="47.401091968640685" lon="9.467337001115084">
        <ele>875.89999999999998</ele>
        <time>2018-09-18T12:22:39Z</time>
      </trkpt>
      <trkpt lat="47.401064978912473" lon="9.467477984726429">
        <ele>875.89999999999998</ele>
        <time>2018-09-18T12:22:40Z</time>
      </trkpt>
      <trkpt lat="47.401050981134176" lon="9.46763196028769">
        <ele>875.89999999999998</ele>
        <time>2018-09-18T12:22:41Z</time>
      </trkpt>
      <trkpt lat="47.401035977527499" lon="9.467799011617899">
        <ele>875.41999999999996</ele>
        <time>2018-09-18T12:22:42Z</time>
      </trkpt>
      <trkpt lat="47.401019968092442" lon="9.467979976907373">
        <ele>874.94000000000005</ele>
        <time>2018-09-18T12:22:43Z</time>
      </trkpt>
      <trkpt lat="47.400985015556216" lon="9.468369986861944">
        <ele>874.46000000000004</ele>
        <time>2018-09-18T12:22:45Z</time>
      </trkpt>
      <trkpt lat="47.400917960330844" lon="9.468462020158768">
        <ele>874.46000000000004</ele>
        <time>2018-09-18T12:22:46Z</time>
      </trkpt>
      <trkpt lat="47.400828022509813" lon="9.468585988506675">
        <ele>874.46000000000004</ele>
        <time>2018-09-18T12:22:47Z</time>
      </trkpt>
      <trkpt lat="47.400648985058069" lon="9.468831997364759">
        <ele>874.46000000000004</ele>
        <time>2018-09-18T12:22:49Z</time>
      </trkpt>
      <trkpt lat="47.40058796480298" lon="9.468960994854569">
        <ele>874.46000000000004</ele>
        <time>2018-09-18T12:22:50Z</time>
      </trkpt>
      <trkpt lat="47.400530967861414" lon="9.469084963202477">
        <ele>874.46000000000004</ele>
        <time>2018-09-18T12:22:51Z</time>
      </trkpt>
      <trkpt lat="47.40047799423337" lon="9.469201974570751">
        <ele>874.46000000000004</ele>
        <time>2018-09-18T12:22:52Z</time>
      </trkpt>
      <trkpt lat="47.400427032262087" lon="9.469314040616155">
        <ele>874.46000000000004</ele>
        <time>2018-09-18T12:22:53Z</time>
      </trkpt>
      <trkpt lat="47.400438012555242" lon="9.469406995922327">
        <ele>873.98000000000002</ele>
        <time>2018-09-18T12:22:54Z</time>
      </trkpt>
      <trkpt lat="47.400457039475441" lon="9.469517972320318">
        <ele>873.98000000000002</ele>
        <time>2018-09-18T12:22:55Z</time>
      </trkpt>
      <trkpt lat="47.400511018931866" lon="9.469593996182084">
        <ele>873.98000000000002</ele>
        <time>2018-09-18T12:22:56Z</time>
      </trkpt>
      <trkpt lat="47.400577990338206" lon="9.469678988680244">
        <ele>873.98000000000002</ele>
        <time>2018-09-18T12:22:57Z</time>
      </trkpt>
      <trkpt lat="47.400658959522843" lon="9.469760041683912">
        <ele>874.46000000000004</ele>
        <time>2018-09-18T12:22:58Z</time>
      </trkpt>
      <trkpt lat="47.400740012526512" lon="9.469841010868549">
        <ele>874.94000000000005</ele>
        <time>2018-09-18T12:22:59Z</time>
      </trkpt>
      <trkpt lat="47.400833973661065" lon="9.469873029738665">
        <ele>875.41999999999996</ele>
        <time>2018-09-18T12:23:00Z</time>
      </trkpt>
      <trkpt lat="47.400922989472747" lon="9.469830030575395">
        <ele>875.89999999999998</ele>
        <time>2018-09-18T12:23:01Z</time>
      </trkpt>
      <trkpt lat="47.401028014719486" lon="9.469779990613461">
        <ele>876.38</ele>
        <time>2018-09-18T12:23:02Z</time>
      </trkpt>
      <trkpt lat="47.401143014431" lon="9.469725005328655">
        <ele>877.34000000000003</ele>
        <time>2018-09-18T12:23:03Z</time>
      </trkpt>
      <trkpt lat="47.401551967486739" lon="9.469488970935345">
        <ele>880.22000000000003</ele>
        <time>2018-09-18T12:23:06Z</time>
      </trkpt>
      <trkpt lat="47.402259986847639" lon="9.469061996787787">
        <ele>885.02999999999997</ele>
        <time>2018-09-18T12:23:11Z</time>
      </trkpt>
      <trkpt lat="47.402371969074011" lon="9.469073982909322">
        <ele>885.99000000000001</ele>
        <time>2018-09-18T12:23:12Z</time>
      </trkpt>
      <trkpt lat="47.40249602124095" lon="9.469135003164411">
        <ele>886.95000000000005</ele>
        <time>2018-09-18T12:23:13Z</time>
      </trkpt>
      <trkpt lat="47.402629964053631" lon="9.469217984005809">
        <ele>888.39999999999998</ele>
        <time>2018-09-18T12:23:14Z</time>
      </trkpt>
      <trkpt lat="47.402771031484008" lon="9.469328038394451">
        <ele>889.36000000000001</ele>
        <time>2018-09-18T12:23:15Z</time>
      </trkpt>
      <trkpt lat="47.40346304140985" lon="9.469796000048518">
        <ele>894.63999999999999</ele>
        <time>2018-09-18T12:23:20Z</time>
      </trkpt>
      <trkpt lat="47.403559014201164" lon="9.469878980889916">
        <ele>896.09000000000003</ele>
        <time>2018-09-18T12:23:21Z</time>
      </trkpt>
      <trkpt lat="47.403645012527704" lon="9.469991968944669">
        <ele>897.52999999999997</ele>
        <time>2018-09-18T12:23:22Z</time>
      </trkpt>
      <trkpt lat="47.403702009469271" lon="9.470145022496581">
        <ele>898.49000000000001</ele>
        <time>2018-09-18T12:23:23Z</time>
      </trkpt>
      <trkpt lat="47.40376302972436" lon="9.470308972522616">
        <ele>899.92999999999995</ele>
        <time>2018-09-18T12:23:24Z</time>
      </trkpt>
      <trkpt lat="47.404308021068573" lon="9.47173397988081">
        <ele>910.02999999999997</ele>
        <time>2018-09-18T12:23:32Z</time>
      </trkpt>
      <trkpt lat="47.404380021616817" lon="9.471909999847412">
        <ele>910.99000000000001</ele>
        <time>2018-09-18T12:23:33Z</time>
      </trkpt>
      <trkpt lat="47.404566016048193" lon="9.472926976159215">
        <ele>916.26999999999998</ele>
        <time>2018-09-18T12:23:39Z</time>
      </trkpt>
      <trkpt lat="47.404569033533335" lon="9.473027978092432">
        <ele>917.24000000000001</ele>
        <time>2018-09-18T12:23:40Z</time>
      </trkpt>
      <trkpt lat="47.404550006613135" lon="9.473154963925481">
        <ele>917.72000000000003</ele>
        <time>2018-09-18T12:23:41Z</time>
      </trkpt>
      <trkpt lat="47.404519999399781" lon="9.473191006109119">
        <ele>918.20000000000005</ele>
        <time>2018-09-18T12:23:42Z</time>
      </trkpt>
      <trkpt lat="47.404494015499949" lon="9.473220007494092">
        <ele>919.15999999999997</ele>
        <time>2018-09-18T12:23:43Z</time>
      </trkpt>
      <trkpt lat="47.404460990801454" lon="9.47325898334384">
        <ele>919.63999999999999</ele>
        <time>2018-09-18T12:23:44Z</time>
      </trkpt>
      <trkpt lat="47.40440902300179" lon="9.473318997770548">
        <ele>920.12</ele>
        <time>2018-09-18T12:23:45Z</time>
      </trkpt>
      <trkpt lat="47.404340961948037" lon="9.473398961126804">
        <ele>921.08000000000004</ele>
        <time>2018-09-18T12:23:46Z</time>
      </trkpt>
      <trkpt lat="47.404266027733684" lon="9.473501974716783">
        <ele>922.51999999999998</ele>
        <time>2018-09-18T12:23:47Z</time>
      </trkpt>
      <trkpt lat="47.404182963073254" lon="9.473627032712102">
        <ele>923.48000000000002</ele>
        <time>2018-09-18T12:23:48Z</time>
      </trkpt>
      <trkpt lat="47.404114985838532" lon="9.473790982738137">
        <ele>924.92999999999995</ele>
        <time>2018-09-18T12:23:49Z</time>
      </trkpt>
      <trkpt lat="47.404040973633528" lon="9.473970020189881">
        <ele>925.88999999999999</ele>
        <time>2018-09-18T12:23:50Z</time>
      </trkpt>
      <trkpt lat="47.403474021703005" lon="9.47517198510468">
        <ele>933.10000000000002</ele>
        <time>2018-09-18T12:23:57Z</time>
      </trkpt>
      <trkpt lat="47.402577996253967" lon="9.476292980834842">
        <ele>941.26999999999998</ele>
        <time>2018-09-18T12:24:03Z</time>
      </trkpt>
      <trkpt lat="47.40187500603497" lon="9.477049028500915">
        <ele>946.55999999999995</ele>
        <time>2018-09-18T12:24:07Z</time>
      </trkpt>
      <trkpt lat="47.401735028252006" lon="9.477243991568685">
        <ele>948</ele>
        <time>2018-09-18T12:24:08Z</time>
      </trkpt>
      <trkpt lat="47.401625979691744" lon="9.477484971284866">
        <ele>948.96000000000004</ele>
        <time>2018-09-18T12:24:09Z</time>
      </trkpt>
      <trkpt lat="47.400936987251043" lon="9.479140983894467">
        <ele>958.57000000000005</ele>
        <time>2018-09-18T12:24:16Z</time>
      </trkpt>
      <trkpt lat="47.40028403699398" lon="9.481154987588525">
        <ele>966.25999999999999</ele>
        <time>2018-09-18T12:24:24Z</time>
      </trkpt>
      <trkpt lat="47.400212958455086" lon="9.481303011998534">
        <ele>966.25999999999999</ele>
        <time>2018-09-18T12:24:25Z</time>
      </trkpt>
      <trkpt lat="47.400131989270449" lon="9.481413988396525">
        <ele>966.74000000000001</ele>
        <time>2018-09-18T12:24:26Z</time>
      </trkpt>
      <trkpt lat="47.400034004822373" lon="9.481518007814884">
        <ele>966.74000000000001</ele>
        <time>2018-09-18T12:24:27Z</time>
      </trkpt>
      <trkpt lat="47.399925040081143" lon="9.481598976999521">
        <ele>966.74000000000001</ele>
        <time>2018-09-18T12:24:28Z</time>
      </trkpt>
      <trkpt lat="47.399815991520882" lon="9.481681035831571">
        <ele>966.74000000000001</ele>
        <time>2018-09-18T12:24:29Z</time>
      </trkpt>
      <trkpt lat="47.399719012901187" lon="9.481778014451265">
        <ele>966.74000000000001</ele>
        <time>2018-09-18T12:24:30Z</time>
      </trkpt>
      <trkpt lat="47.399642989039421" lon="9.481920003890991">
        <ele>966.74000000000001</ele>
        <time>2018-09-18T12:24:31Z</time>
      </trkpt>
      <trkpt lat="47.399583980441093" lon="9.482059981673956">
        <ele>966.25999999999999</ele>
        <time>2018-09-18T12:24:32Z</time>
      </trkpt>
      <trkpt lat="47.399562019854784" lon="9.482215968891978">
        <ele>966.25999999999999</ele>
        <time>2018-09-18T12:24:33Z</time>
      </trkpt>
      <trkpt lat="47.399570988491178" lon="9.482375979423523">
        <ele>966.74000000000001</ele>
        <time>2018-09-18T12:24:34Z</time>
      </trkpt>
      <trkpt lat="47.399631002917886" lon="9.482530960813165">
        <ele>966.25999999999999</ele>
        <time>2018-09-18T12:24:35Z</time>
      </trkpt>
      <trkpt lat="47.399698980152607" lon="9.482705974951387">
        <ele>966.25999999999999</ele>
        <time>2018-09-18T12:24:36Z</time>
      </trkpt>
      <trkpt lat="47.399787995964289" lon="9.48288400657475">
        <ele>966.25999999999999</ele>
        <time>2018-09-18T12:24:37Z</time>
      </trkpt>
      <trkpt lat="47.400055965408683" lon="9.483497980982065">
        <ele>967.22000000000003</ele>
        <time>2018-09-18T12:24:40Z</time>
      </trkpt>
      <trkpt lat="47.400470031425357" lon="9.48512096889317">
        <ele>971.07000000000005</ele>
        <time>2018-09-18T12:24:47Z</time>
      </trkpt>
      <trkpt lat="47.400470031425357" lon="9.485299000516534">
        <ele>971.07000000000005</ele>
        <time>2018-09-18T12:24:48Z</time>
      </trkpt>
      <trkpt lat="47.400443041697145" lon="9.485474014654756">
        <ele>971.54999999999995</ele>
        <time>2018-09-18T12:24:49Z</time>
      </trkpt>
      <trkpt lat="47.40041303448379" lon="9.485649028792977">
        <ele>972.02999999999997</ele>
        <time>2018-09-18T12:24:50Z</time>
      </trkpt>
      <trkpt lat="47.400347990915179" lon="9.485809961333871">
        <ele>972.02999999999997</ele>
        <time>2018-09-18T12:24:51Z</time>
      </trkpt>
      <trkpt lat="47.400271967053413" lon="9.485970977693796">
        <ele>972.50999999999999</ele>
        <time>2018-09-18T12:24:52Z</time>
      </trkpt>
      <trkpt lat="47.400195021182299" lon="9.486137023195624">
        <ele>972.50999999999999</ele>
        <time>2018-09-18T12:24:53Z</time>
      </trkpt>
      <trkpt lat="47.400115979835391" lon="9.486302984878421">
        <ele>972.99000000000001</ele>
        <time>2018-09-18T12:24:54Z</time>
      </trkpt>
      <trkpt lat="47.400064012035728" lon="9.486502977088094">
        <ele>973.47000000000003</ele>
        <time>2018-09-18T12:24:55Z</time>
      </trkpt>
      <trkpt lat="47.400034004822373" lon="9.486701963469386">
        <ele>973.95000000000005</ele>
        <time>2018-09-18T12:24:56Z</time>
      </trkpt>
      <trkpt lat="47.4000050034374" lon="9.486893992871046">
        <ele>973.95000000000005</ele>
        <time>2018-09-18T12:24:57Z</time>
      </trkpt>
      <trkpt lat="47.399978013709188" lon="9.487071018666029">
        <ele>974.42999999999995</ele>
        <time>2018-09-18T12:24:58Z</time>
      </trkpt>
      <trkpt lat="47.39989997819066" lon="9.487208984792233">
        <ele>974.42999999999995</ele>
        <time>2018-09-18T12:24:59Z</time>
      </trkpt>
      <trkpt lat="47.399819009006023" lon="9.487344017252326">
        <ele>974.90999999999997</ele>
        <time>2018-09-18T12:25:00Z</time>
      </trkpt>
      <trkpt lat="47.399724964052439" lon="9.48748298920691">
        <ele>974.90999999999997</ele>
        <time>2018-09-18T12:25:01Z</time>
      </trkpt>
      <trkpt lat="47.398643027991056" lon="9.488863991573453">
        <ele>975.38999999999999</ele>
        <time>2018-09-18T12:25:10Z</time>
      </trkpt>
      <trkpt lat="47.398497015237808" lon="9.488960970193148">
        <ele>975.38999999999999</ele>
        <time>2018-09-18T12:25:11Z</time>
      </trkpt>
      <trkpt lat="47.398342033848166" lon="9.489011010155082">
        <ele>974.90999999999997</ele>
        <time>2018-09-18T12:25:12Z</time>
      </trkpt>
      <trkpt lat="47.398181017488241" lon="9.489041017368436">
        <ele>974.90999999999997</ele>
        <time>2018-09-18T12:25:13Z</time>
      </trkpt>
      <trkpt lat="47.398020001128316" lon="9.48907102458179">
        <ele>974.90999999999997</ele>
        <time>2018-09-18T12:25:14Z</time>
      </trkpt>
      <trkpt lat="47.397868959233165" lon="9.489100025966764">
        <ele>974.42999999999995</ele>
        <time>2018-09-18T12:25:15Z</time>
      </trkpt>
      <trkpt lat="47.397730993106961" lon="9.489128021523356">
        <ele>973.95000000000005</ele>
        <time>2018-09-18T12:25:16Z</time>
      </trkpt>
      <trkpt lat="47.397595038637519" lon="9.489161968231201">
        <ele>973.95000000000005</ele>
        <time>2018-09-18T12:25:17Z</time>
      </trkpt>
      <trkpt lat="47.397472998127341" lon="9.489250984042883">
        <ele>973.47000000000003</ele>
        <time>2018-09-18T12:25:18Z</time>
      </trkpt>
      <trkpt lat="47.397348023951054" lon="9.489339999854565">
        <ele>973.47000000000003</ele>
        <time>2018-09-18T12:25:19Z</time>
      </trkpt>
      <trkpt lat="47.397231012582779" lon="9.489425998181105">
        <ele>972.99000000000001</ele>
        <time>2018-09-18T12:25:20Z</time>
      </trkpt>
      <trkpt lat="47.397121964022517" lon="9.489504033699632">
        <ele>972.99000000000001</ele>
        <time>2018-09-18T12:25:21Z</time>
      </trkpt>
      <trkpt lat="47.397025991231203" lon="9.489574022591114">
        <ele>972.99000000000001</ele>
        <time>2018-09-18T12:25:22Z</time>
      </trkpt>
      <trkpt lat="47.396959019824862" lon="9.489674018695951">
        <ele>972.50999999999999</ele>
        <time>2018-09-18T12:25:23Z</time>
      </trkpt>
      <trkpt lat="47.396930018439889" lon="9.489806033670902">
        <ele>972.02999999999997</ele>
        <time>2018-09-18T12:25:24Z</time>
      </trkpt>
      <trkpt lat="47.396930018439889" lon="9.489969983696938">
        <ele>971.54999999999995</ele>
        <time>2018-09-18T12:25:25Z</time>
      </trkpt>
      <trkpt lat="47.39693203009665" lon="9.490143992006779">
        <ele>971.07000000000005</ele>
        <time>2018-09-18T12:25:26Z</time>
      </trkpt>
      <trkpt lat="47.396940998733044" lon="9.490325963124633">
        <ele>971.07000000000005</ele>
        <time>2018-09-18T12:25:27Z</time>
      </trkpt>
      <trkpt lat="47.396948961541057" lon="9.490516986697912">
        <ele>971.54999999999995</ele>
        <time>2018-09-18T12:25:28Z</time>
      </trkpt>
      <trkpt lat="47.396913003176451" lon="9.490710021927953">
        <ele>971.54999999999995</ele>
        <time>2018-09-18T12:25:29Z</time>
      </trkpt>
      <trkpt lat="47.396861035376787" lon="9.490916971117258">
        <ele>972.02999999999997</ele>
        <time>2018-09-18T12:25:30Z</time>
      </trkpt>
      <trkpt lat="47.39680596627295" lon="9.491136996075511">
        <ele>972.50999999999999</ele>
        <time>2018-09-18T12:25:31Z</time>
      </trkpt>
      <trkpt lat="47.396702030673623" lon="9.491599006578326">
        <ele>972.99000000000001</ele>
        <time>2018-09-18T12:25:33Z</time>
      </trkpt>
      <trkpt lat="47.396672023460269" lon="9.49182297103107">
        <ele>973.95000000000005</ele>
        <time>2018-09-18T12:25:34Z</time>
      </trkpt>
      <trkpt lat="47.39671996794641" lon="9.492096975445747">
        <ele>974.42999999999995</ele>
        <time>2018-09-18T12:25:35Z</time>
      </trkpt>
      <trkpt lat="47.39676296710968" lon="9.492344995960593">
        <ele>974.90999999999997</ele>
        <time>2018-09-18T12:25:36Z</time>
      </trkpt>
      <trkpt lat="47.39680596627295" lon="9.492596033960581">
        <ele>975.88</ele>
        <time>2018-09-18T12:25:37Z</time>
      </trkpt>
      <trkpt lat="47.396948961541057" lon="9.493469009175897">
        <ele>977.79999999999995</ele>
        <time>2018-09-18T12:25:41Z</time>
      </trkpt>
      <trkpt lat="47.396937981247902" lon="9.493663972243667">
        <ele>978.27999999999997</ele>
        <time>2018-09-18T12:25:42Z</time>
      </trkpt>
      <trkpt lat="47.396916020661592" lon="9.493865976110101">
        <ele>978.75999999999999</ele>
        <time>2018-09-18T12:25:43Z</time>
      </trkpt>
      <trkpt lat="47.396858017891645" lon="9.494064040482044">
        <ele>979.24000000000001</ele>
        <time>2018-09-18T12:25:44Z</time>
      </trkpt>
      <trkpt lat="47.396799009293318" lon="9.494265038520098">
        <ele>979.72000000000003</ele>
        <time>2018-09-18T12:25:45Z</time>
      </trkpt>
      <trkpt lat="47.396726002916694" lon="9.494446003809571">
        <ele>979.72000000000003</ele>
        <time>2018-09-18T12:25:46Z</time>
      </trkpt>
      <trkpt lat="47.396650984883308" lon="9.494604002684355">
        <ele>980.20000000000005</ele>
        <time>2018-09-18T12:25:47Z</time>
      </trkpt>
      <trkpt lat="47.396579990163445" lon="9.494745992124081">
        <ele>980.67999999999995</ele>
        <time>2018-09-18T12:25:48Z</time>
      </trkpt>
      <trkpt lat="47.39648200571537" lon="9.494827967137098">
        <ele>981.15999999999997</ele>
        <time>2018-09-18T12:25:49Z</time>
      </trkpt>
      <trkpt lat="47.396385027095675" lon="9.494907008484006">
        <ele>981.63999999999999</ele>
        <time>2018-09-18T12:25:50Z</time>
      </trkpt>
      <trkpt lat="47.396217975765467" lon="9.49504598043859">
        <ele>982.60000000000002</ele>
        <time>2018-09-18T12:25:52Z</time>
      </trkpt>
      <trkpt lat="47.395910024642944" lon="9.495342029258609">
        <ele>984.04999999999995</ele>
        <time>2018-09-18T12:25:56Z</time>
      </trkpt>
      <trkpt lat="47.395852021872997" lon="9.495465997606516">
        <ele>984.52999999999997</ele>
        <time>2018-09-18T12:25:57Z</time>
      </trkpt>
      <trkpt lat="47.395835006609559" lon="9.495599018409848">
        <ele>984.52999999999997</ele>
        <time>2018-09-18T12:25:58Z</time>
      </trkpt>
      <trkpt lat="47.395874988287687" lon="9.495759028941393">
        <ele>985.00999999999999</ele>
        <time>2018-09-18T12:25:59Z</time>
      </trkpt>
      <trkpt lat="47.395929973572493" lon="9.495902024209499">
        <ele>985.00999999999999</ele>
        <time>2018-09-18T12:26:00Z</time>
      </trkpt>
      <trkpt lat="47.396015971899033" lon="9.496030015870929">
        <ele>985.49000000000001</ele>
        <time>2018-09-18T12:26:01Z</time>
      </trkpt>
      <trkpt lat="47.396147986873984" lon="9.496090030297637">
        <ele>985.97000000000003</ele>
        <time>2018-09-18T12:26:02Z</time>
      </trkpt>
      <trkpt lat="47.396290982142091" lon="9.496136968955398">
        <ele>985.97000000000003</ele>
        <time>2018-09-18T12:26:03Z</time>
      </trkpt>
      <trkpt lat="47.396441018208861" lon="9.496187008917332">
        <ele>986.45000000000005</ele>
        <time>2018-09-18T12:26:04Z</time>
      </trkpt>
      <trkpt lat="47.3967170342803" lon="9.496278958395124">
        <ele>986.92999999999995</ele>
        <time>2018-09-18T12:26:06Z</time>
      </trkpt>
      <trkpt lat="47.396834967657924" lon="9.496354982256889">
        <ele>986.92999999999995</ele>
        <time>2018-09-18T12:26:07Z</time>
      </trkpt>
      <trkpt lat="47.396909985691309" lon="9.496463024988771">
        <ele>986.92999999999995</ele>
        <time>2018-09-18T12:26:08Z</time>
      </trkpt>
      <trkpt lat="47.396981986239552" lon="9.496595039963722">
        <ele>986.92999999999995</ele>
        <time>2018-09-18T12:26:09Z</time>
      </trkpt>
      <trkpt lat="47.397046023979783" lon="9.496752033010125">
        <ele>986.92999999999995</ele>
        <time>2018-09-18T12:26:10Z</time>
      </trkpt>
      <trkpt lat="47.397108972072601" lon="9.496921012178063">
        <ele>987.40999999999997</ele>
        <time>2018-09-18T12:26:11Z</time>
      </trkpt>
      <trkpt lat="47.397148031741381" lon="9.497109018266201">
        <ele>987.40999999999997</ele>
        <time>2018-09-18T12:26:12Z</time>
      </trkpt>
      <trkpt lat="47.397184995934367" lon="9.497285038232803">
        <ele>987.88999999999999</ele>
        <time>2018-09-18T12:26:13Z</time>
      </trkpt>
      <trkpt lat="47.397175021469593" lon="9.497438007965684">
        <ele>987.88999999999999</ele>
        <time>2018-09-18T12:26:14Z</time>
      </trkpt>
      <trkpt lat="47.397165969014168" lon="9.497552001848817">
        <ele>988.37</ele>
        <time>2018-09-18T12:26:15Z</time>
      </trkpt>
      <trkpt lat="47.39710402674973" lon="9.497645040974021">
        <ele>988.37</ele>
        <time>2018-09-18T12:26:16Z</time>
      </trkpt>
      <trkpt lat="47.397033032029867" lon="9.49775199405849">
        <ele>988.37</ele>
        <time>2018-09-18T12:26:17Z</time>
      </trkpt>
      <trkpt lat="47.396929012611508" lon="9.497850984334946">
        <ele>988.85000000000002</ele>
        <time>2018-09-18T12:26:18Z</time>
      </trkpt>
      <trkpt lat="47.396808983758092" lon="9.497928014025092">
        <ele>989.33000000000004</ele>
        <time>2018-09-18T12:26:19Z</time>
      </trkpt>
      <trkpt lat="47.396689960733056" lon="9.498006971552968">
        <ele>989.33000000000004</ele>
        <time>2018-09-18T12:26:20Z</time>
      </trkpt>
      <trkpt lat="47.396602034568787" lon="9.498148960992694">
        <ele>989.80999999999995</ele>
        <time>2018-09-18T12:26:21Z</time>
      </trkpt>
      <trkpt lat="47.396522993221879" lon="9.498324980959296">
        <ele>990.29999999999995</ele>
        <time>2018-09-18T12:26:22Z</time>
      </trkpt>
      <trkpt lat="47.396345967426896" lon="9.498720020055771">
        <ele>990.77999999999997</ele>
        <time>2018-09-18T12:26:24Z</time>
      </trkpt>
      <trkpt lat="47.395949000492692" lon="9.499496016651392">
        <ele>992.70000000000005</ele>
        <time>2018-09-18T12:26:28Z</time>
      </trkpt>
      <trkpt lat="47.395906001329422" lon="9.499712018296123">
        <ele>993.17999999999995</ele>
        <time>2018-09-18T12:26:29Z</time>
      </trkpt>
      <trkpt lat="47.395868031308055" lon="9.499936988577247">
        <ele>993.65999999999997</ele>
        <time>2018-09-18T12:26:30Z</time>
      </trkpt>
      <trkpt lat="47.395840035751462" lon="9.500172017142177">
        <ele>994.62</ele>
        <time>2018-09-18T12:26:31Z</time>
      </trkpt>
      <trkpt lat="47.395812040194869" lon="9.500414002686739">
        <ele>995.10000000000002</ele>
        <time>2018-09-18T12:26:32Z</time>
      </trkpt>
      <trkpt lat="47.395783960819244" lon="9.50065297074616">
        <ele>996.05999999999995</ele>
        <time>2018-09-18T12:26:33Z</time>
      </trkpt>
      <trkpt lat="47.395757976919413" lon="9.500870984047651">
        <ele>997.01999999999998</ele>
        <time>2018-09-18T12:26:34Z</time>
      </trkpt>
      <trkpt lat="47.395713971927762" lon="9.501068964600563">
        <ele>997.50999999999999</ele>
        <time>2018-09-18T12:26:35Z</time>
      </trkpt>
      <trkpt lat="47.39566502161324" lon="9.501263005658984">
        <ele>997.99000000000001</ele>
        <time>2018-09-18T12:26:36Z</time>
      </trkpt>
      <trkpt lat="47.395682036876678" lon="9.501458974555135">
        <ele>998.95000000000005</ele>
        <time>2018-09-18T12:26:37Z</time>
      </trkpt>
      <trkpt lat="47.395740039646626" lon="9.501652009785175">
        <ele>999.90999999999997</ele>
        <time>2018-09-18T12:26:38Z</time>
      </trkpt>
      <trkpt lat="47.395809022709727" lon="9.501845967024565">
        <ele>1000.39</ele>
        <time>2018-09-18T12:26:39Z</time>
      </trkpt>
      <trkpt lat="47.395883034914732" lon="9.502053000032902">
        <ele>1001.35</ele>
        <time>2018-09-18T12:26:40Z</time>
      </trkpt>
      <trkpt lat="47.396093001589179" lon="9.502636967226863">
        <ele>1004.23</ele>
        <time>2018-09-18T12:26:43Z</time>
      </trkpt>
      <trkpt lat="47.396093001589179" lon="9.502857998013496">
        <ele>1004.72</ele>
        <time>2018-09-18T12:26:44Z</time>
      </trkpt>
      <trkpt lat="47.396093001589179" lon="9.503824012354016">
        <ele>1006.64</ele>
        <time>2018-09-18T12:26:48Z</time>
      </trkpt>
      <trkpt lat="47.396097024902701" lon="9.504053005948663">
        <ele>1006.64</ele>
        <time>2018-09-18T12:26:49Z</time>
      </trkpt>
      <trkpt lat="47.396153016015887" lon="9.504708973690867">
        <ele>1006.16</ele>
        <time>2018-09-18T12:26:52Z</time>
      </trkpt>
      <trkpt lat="47.396130971610546" lon="9.504940984770656">
        <ele>1006.16</ele>
        <time>2018-09-18T12:26:53Z</time>
      </trkpt>
      <trkpt lat="47.395873982459307" lon="9.506651982665062">
        <ele>1004.23</ele>
        <time>2018-09-18T12:27:00Z</time>
      </trkpt>
      <trkpt lat="47.395770968869328" lon="9.507338041439652">
        <ele>1003.27</ele>
        <time>2018-09-18T12:27:03Z</time>
      </trkpt>
      <trkpt lat="47.395508028566837" lon="9.508858015760779">
        <ele>1001.35</ele>
        <time>2018-09-18T12:27:10Z</time>
      </trkpt>
      <trkpt lat="47.395495036616921" lon="9.509599981829524">
        <ele>1000.87</ele>
        <time>2018-09-18T12:27:16Z</time>
      </trkpt>
      <trkpt lat="47.39549302496016" lon="9.509715987369418">
        <ele>1000.87</ele>
        <time>2018-09-18T12:27:17Z</time>
      </trkpt>
      <trkpt lat="47.39562101662159" lon="9.509889995679259">
        <ele>1000.39</ele>
        <time>2018-09-18T12:27:18Z</time>
      </trkpt>
      <trkpt lat="47.39566502161324" lon="9.509969037026167">
        <ele>1000.39</ele>
        <time>2018-09-18T12:27:19Z</time>
      </trkpt>
      <trkpt lat="47.395745990797877" lon="9.510115971788764">
        <ele>1000.39</ele>
        <time>2018-09-18T12:27:20Z</time>
      </trkpt>
      <trkpt lat="47.395835006609559" lon="9.510276988148689">
        <ele>1000.87</ele>
        <time>2018-09-18T12:27:21Z</time>
      </trkpt>
      <trkpt lat="47.39663003012538" lon="9.511925037950277">
        <ele>1002.3099999999999</ele>
        <time>2018-09-18T12:27:29Z</time>
      </trkpt>
      <trkpt lat="47.397643988952041" lon="9.514083964750171">
        <ele>1014.33</ele>
        <time>2018-09-18T12:27:39Z</time>
      </trkpt>
      <trkpt lat="47.397740967571735" lon="9.514216985553503">
        <ele>1016.25</ele>
        <time>2018-09-18T12:27:40Z</time>
      </trkpt>
      <trkpt lat="47.397810034453869" lon="9.514310024678707">
        <ele>1017.6900000000001</ele>
        <time>2018-09-18T12:27:41Z</time>
      </trkpt>
      <trkpt lat="47.397944983094931" lon="9.514355035498738">
        <ele>1019.13</ele>
        <time>2018-09-18T12:27:42Z</time>
      </trkpt>
      <trkpt lat="47.398071968927979" lon="9.514398034662008">
        <ele>1020.1</ele>
        <time>2018-09-18T12:27:43Z</time>
      </trkpt>
      <trkpt lat="47.398204989731312" lon="9.514442039653659">
        <ele>1021.54</ele>
        <time>2018-09-18T12:27:44Z</time>
      </trkpt>
      <trkpt lat="47.398341028019786" lon="9.514497024938464">
        <ele>1022.5</ele>
        <time>2018-09-18T12:27:45Z</time>
      </trkpt>
      <trkpt lat="47.398476982489228" lon="9.514576988294721">
        <ele>1023.46</ele>
        <time>2018-09-18T12:27:46Z</time>
      </trkpt>
      <trkpt lat="47.398582007735968" lon="9.514710009098053">
        <ele>1024.4200000000001</ele>
        <time>2018-09-18T12:27:47Z</time>
      </trkpt>
      <trkpt lat="47.398692984133959" lon="9.514856021851301">
        <ele>1024.9000000000001</ele>
        <time>2018-09-18T12:27:48Z</time>
      </trkpt>
      <trkpt lat="47.398770013824105" lon="9.515049979090691">
        <ele>1025.3800000000001</ele>
        <time>2018-09-18T12:27:49Z</time>
      </trkpt>
      <trkpt lat="47.398854000493884" lon="9.515260029584169">
        <ele>1025.8599999999999</ele>
        <time>2018-09-18T12:27:50Z</time>
      </trkpt>
      <trkpt lat="47.39949001930654" lon="9.517100024968386">
        <ele>1030.1900000000001</ele>
        <time>2018-09-18T12:27:57Z</time>
      </trkpt>
      <trkpt lat="47.400016989558935" lon="9.518899032846093">
        <ele>1036.4400000000001</ele>
        <time>2018-09-18T12:28:04Z</time>
      </trkpt>
      <trkpt lat="47.400444969534874" lon="9.520006030797958">
        <ele>1042.6900000000001</ele>
        <time>2018-09-18T12:28:09Z</time>
      </trkpt>
      <trkpt lat="47.400561980903149" lon="9.520162018015981">
        <ele>1043.6500000000001</ele>
        <time>2018-09-18T12:28:10Z</time>
      </trkpt>
      <trkpt lat="47.400673041120172" lon="9.520340971648693">
        <ele>1045.0899999999999</ele>
        <time>2018-09-18T12:28:11Z</time>
      </trkpt>
      <trkpt lat="47.400781000033021" lon="9.520538030192256">
        <ele>1046.05</ele>
        <time>2018-09-18T12:28:12Z</time>
      </trkpt>
      <trkpt lat="47.400868004187942" lon="9.520769035443664">
        <ele>1047.01</ele>
        <time>2018-09-18T12:28:13Z</time>
      </trkpt>
      <trkpt lat="47.400959031656384" lon="9.521009009331465">
        <ele>1048.45</ele>
        <time>2018-09-18T12:28:14Z</time>
      </trkpt>
      <trkpt lat="47.401147037744522" lon="9.521682998165488">
        <ele>1051.8199999999999</ele>
        <time>2018-09-18T12:28:17Z</time>
      </trkpt>
      <trkpt lat="47.40118701942265" lon="9.521883996203542">
        <ele>1052.78</ele>
        <time>2018-09-18T12:28:18Z</time>
      </trkpt>
      <trkpt lat="47.401220966130495" lon="9.522067978978157">
        <ele>1053.74</ele>
        <time>2018-09-18T12:28:19Z</time>
      </trkpt>
      <trkpt lat="47.401220966130495" lon="9.522234024479985">
        <ele>1054.7</ele>
        <time>2018-09-18T12:28:20Z</time>
      </trkpt>
      <trkpt lat="47.401220966130495" lon="9.522388000041246">
        <ele>1055.6700000000001</ele>
        <time>2018-09-18T12:28:21Z</time>
      </trkpt>
      <trkpt lat="47.401156006380916" lon="9.522529989480972">
        <ele>1056.1500000000001</ele>
        <time>2018-09-18T12:28:22Z</time>
      </trkpt>
      <trkpt lat="47.401098003610969" lon="9.522647000849247">
        <ele>1057.1099999999999</ele>
        <time>2018-09-18T12:28:23Z</time>
      </trkpt>
      <trkpt lat="47.40103798918426" lon="9.522766023874283">
        <ele>1057.5899999999999</ele>
        <time>2018-09-18T12:28:24Z</time>
      </trkpt>
      <trkpt lat="47.401008987799287" lon="9.522917987778783">
        <ele>1058.55</ele>
        <time>2018-09-18T12:28:25Z</time>
      </trkpt>
      <trkpt lat="47.400986021384597" lon="9.523083027452231">
        <ele>1059.03</ele>
        <time>2018-09-18T12:28:26Z</time>
      </trkpt>
      <trkpt lat="47.40101401694119" lon="9.52325401827693">
        <ele>1059.51</ele>
        <time>2018-09-18T12:28:27Z</time>
      </trkpt>
      <trkpt lat="47.401045029982924" lon="9.523430960252881">
        <ele>1060.47</ele>
        <time>2018-09-18T12:28:28Z</time>
      </trkpt>
      <trkpt lat="47.401085011661053" lon="9.523617960512638">
        <ele>1060.95</ele>
        <time>2018-09-18T12:28:29Z</time>
      </trkpt>
      <trkpt lat="47.401156006380916" lon="9.523804038763046">
        <ele>1061.9100000000001</ele>
        <time>2018-09-18T12:28:30Z</time>
      </trkpt>
      <trkpt lat="47.401353986933827" lon="9.524268982931972">
        <ele>1064.3199999999999</ele>
        <time>2018-09-18T12:28:33Z</time>
      </trkpt>
      <trkpt lat="47.401436967775226" lon="9.524388005957007">
        <ele>1064.8</ele>
        <time>2018-09-18T12:28:34Z</time>
      </trkpt>
      <trkpt lat="47.40153101272881" lon="9.524449026212096">
        <ele>1065.76</ele>
        <time>2018-09-18T12:28:35Z</time>
      </trkpt>
      <trkpt lat="47.401626985520124" lon="9.524474004283547">
        <ele>1066.24</ele>
        <time>2018-09-18T12:28:36Z</time>
      </trkpt>
      <trkpt lat="47.401729999110103" lon="9.5244350284338">
        <ele>1067.2</ele>
        <time>2018-09-18T12:28:37Z</time>
      </trkpt>
      <trkpt lat="47.401839969679713" lon="9.52439303509891">
        <ele>1068.1600000000001</ele>
        <time>2018-09-18T12:28:38Z</time>
      </trkpt>
      <trkpt lat="47.401952035725117" lon="9.52435003593564">
        <ele>1069.1199999999999</ele>
        <time>2018-09-18T12:28:39Z</time>
      </trkpt>
      <trkpt lat="47.402057982981205" lon="9.52430997043848">
        <ele>1070.0799999999999</ele>
        <time>2018-09-18T12:28:40Z</time>
      </trkpt>
      <trkpt lat="47.402177006006241" lon="9.524353975430131">
        <ele>1071.53</ele>
        <time>2018-09-18T12:28:41Z</time>
      </trkpt>
      <trkpt lat="47.40228203125298" lon="9.52439303509891">
        <ele>1072.97</ele>
        <time>2018-09-18T12:28:42Z</time>
      </trkpt>
      <trkpt lat="47.402376998215914" lon="9.524428993463516">
        <ele>1074.4100000000001</ele>
        <time>2018-09-18T12:28:43Z</time>
      </trkpt>
      <trkpt lat="47.402466014027596" lon="9.524412984028459">
        <ele>1075.3699999999999</ele>
        <time>2018-09-18T12:28:44Z</time>
      </trkpt>
      <trkpt lat="47.402542037889361" lon="9.524362022057176">
        <ele>1075.8499999999999</ele>
        <time>2018-09-18T12:28:45Z</time>
      </trkpt>
      <trkpt lat="47.402624012902379" lon="9.524280969053507">
        <ele>1076.8099999999999</ele>
        <time>2018-09-18T12:28:46Z</time>
      </trkpt>
      <trkpt lat="47.402707999572158" lon="9.524195976555347">
        <ele>1077.29</ele>
        <time>2018-09-18T12:28:47Z</time>
      </trkpt>
      <trkpt lat="47.402830962091684" lon="9.524074019864202">
        <ele>1077.78</ele>
        <time>2018-09-18T12:28:48Z</time>
      </trkpt>
      <trkpt lat="47.402946967631578" lon="9.524052981287241">
        <ele>1078.26</ele>
        <time>2018-09-18T12:28:49Z</time>
      </trkpt>
      <trkpt lat="47.403093986213207" lon="9.524026997387409">
        <ele>1078.74</ele>
        <time>2018-09-18T12:28:50Z</time>
      </trkpt>
      <trkpt lat="47.403655992820859" lon="9.523925995454192">
        <ele>1079.7</ele>
        <time>2018-09-18T12:28:54Z</time>
      </trkpt>
      <trkpt lat="47.403707960620522" lon="9.523873021826148">
        <ele>1079.7</ele>
        <time>2018-09-18T12:28:55Z</time>
      </trkpt>
      <trkpt lat="47.403775015845895" lon="9.523790962994099">
        <ele>1079.22</ele>
        <time>2018-09-18T12:28:56Z</time>
      </trkpt>
      <trkpt lat="47.403845004737377" lon="9.523704964667559">
        <ele>1078.74</ele>
        <time>2018-09-18T12:28:57Z</time>
      </trkpt>
      <trkpt lat="47.403919016942382" lon="9.523614021018148">
        <ele>1078.26</ele>
        <time>2018-09-18T12:28:58Z</time>
      </trkpt>
      <trkpt lat="47.404026975855231" lon="9.523543026298285">
        <ele>1077.29</ele>
        <time>2018-09-18T12:28:59Z</time>
      </trkpt>
      <trkpt lat="47.404143987223506" lon="9.523489968851209">
        <ele>1076.3299999999999</ele>
        <time>2018-09-18T12:29:00Z</time>
      </trkpt>
      <trkpt lat="47.404263010248542" lon="9.523407993838191">
        <ele>1075.3699999999999</ele>
        <time>2018-09-18T12:29:01Z</time>
      </trkpt>
      <trkpt lat="47.404380021616817" lon="9.523312021046877">
        <ele>1074.4100000000001</ele>
        <time>2018-09-18T12:29:02Z</time>
      </trkpt>
      <trkpt lat="47.404526034370065" lon="9.523194003850222">
        <ele>1072.01</ele>
        <time>2018-09-18T12:29:04Z</time>
      </trkpt>
      <trkpt lat="47.404680009931326" lon="9.52321202494204">
        <ele>1071.05</ele>
        <time>2018-09-18T12:29:05Z</time>
      </trkpt>
      <trkpt lat="47.404769025743008" lon="9.523221999406815">
        <ele>1070.0799999999999</ele>
        <time>2018-09-18T12:29:06Z</time>
      </trkpt>
      <trkpt lat="47.404872039332986" lon="9.523234991356731">
        <ele>1068.6400000000001</ele>
        <time>2018-09-18T12:29:07Z</time>
      </trkpt>
      <trkpt lat="47.404981004074216" lon="9.52321202494204">
        <ele>1067.2</ele>
        <time>2018-09-18T12:29:08Z</time>
      </trkpt>
      <trkpt lat="47.405087035149336" lon="9.523183023557067">
        <ele>1065.76</ele>
        <time>2018-09-18T12:29:09Z</time>
      </trkpt>
      <trkpt lat="47.405173033475876" lon="9.523214958608151">
        <ele>1064.8</ele>
        <time>2018-09-18T12:29:10Z</time>
      </trkpt>
      <trkpt lat="47.40524897351861" lon="9.523283019661903">
        <ele>1063.3599999999999</ele>
        <time>2018-09-18T12:29:11Z</time>
      </trkpt>
      <trkpt lat="47.405324997380376" lon="9.523353008553386">
        <ele>1061.9100000000001</ele>
        <time>2018-09-18T12:29:12Z</time>
      </trkpt>
      <trkpt lat="47.405362967401743" lon="9.523387039080262">
        <ele>1060.47</ele>
        <time>2018-09-18T12:29:13Z</time>
      </trkpt>
      <trkpt lat="47.405372019857168" lon="9.523516036570072">
        <ele>1059.03</ele>
        <time>2018-09-18T12:29:14Z</time>
      </trkpt>
      <trkpt lat="47.405379982665181" lon="9.52364201657474">
        <ele>1057.5899999999999</ele>
        <time>2018-09-18T12:29:15Z</time>
      </trkpt>
      <trkpt lat="47.405390040948987" lon="9.523777971044183">
        <ele>1055.6700000000001</ele>
        <time>2018-09-18T12:29:16Z</time>
      </trkpt>
      <trkpt lat="47.405400015413761" lon="9.52392297796905">
        <ele>1054.7</ele>
        <time>2018-09-18T12:29:17Z</time>
      </trkpt>
      <trkpt lat="47.405442008748651" lon="9.524076031520963">
        <ele>1053.26</ele>
        <time>2018-09-18T12:29:18Z</time>
      </trkpt>
      <trkpt lat="47.405503029003739" lon="9.524191031232476">
        <ele>1052.3</ele>
        <time>2018-09-18T12:29:19Z</time>
      </trkpt>
      <trkpt lat="47.405562959611416" lon="9.524302007630467">
        <ele>1051.3399999999999</ele>
        <time>2018-09-18T12:29:20Z</time>
      </trkpt>
      <trkpt lat="47.405618028715253" lon="9.524404015392065">
        <ele>1050.3800000000001</ele>
        <time>2018-09-18T12:29:21Z</time>
      </trkpt>
      <trkpt lat="47.405662033706903" lon="9.524485990405083">
        <ele>1049.4200000000001</ele>
        <time>2018-09-18T12:29:22Z</time>
      </trkpt>
      <trkpt lat="47.405730010941625" lon="9.524536030367017">
        <ele>1048.45</ele>
        <time>2018-09-18T12:29:23Z</time>
      </trkpt>
      <trkpt lat="47.405772004276514" lon="9.52448096126318">
        <ele>1047.97</ele>
        <time>2018-09-18T12:29:24Z</time>
      </trkpt>
      <trkpt lat="47.405831012874842" lon="9.524404015392065">
        <ele>1047.01</ele>
        <time>2018-09-18T12:29:25Z</time>
      </trkpt>
      <trkpt lat="47.405904019251466" lon="9.524307958781719">
        <ele>1046.05</ele>
        <time>2018-09-18T12:29:26Z</time>
      </trkpt>
      <trkpt lat="47.405989011749625" lon="9.524195976555347">
        <ele>1045.0899999999999</ele>
        <time>2018-09-18T12:29:27Z</time>
      </trkpt>
      <trkpt lat="47.406363012269139" lon="9.523721979930997">
        <ele>1039.8</ele>
        <time>2018-09-18T12:29:31Z</time>
      </trkpt>
      <trkpt lat="47.406478011980653" lon="9.52362198382616">
        <ele>1038.3599999999999</ele>
        <time>2018-09-18T12:29:32Z</time>
      </trkpt>
      <trkpt lat="47.406597035005689" lon="9.523518970236182">
        <ele>1036.9200000000001</ele>
        <time>2018-09-18T12:29:33Z</time>
      </trkpt>
      <trkpt lat="47.406715974211693" lon="9.523457027971745">
        <ele>1035.48</ele>
        <time>2018-09-18T12:29:34Z</time>
      </trkpt>
      <trkpt lat="47.406834997236729" lon="9.523429032415152">
        <ele>1034.04</ele>
        <time>2018-09-18T12:29:35Z</time>
      </trkpt>
      <trkpt lat="47.406958965584636" lon="9.523399025201798">
        <ele>1032.5899999999999</ele>
        <time>2018-09-18T12:29:36Z</time>
      </trkpt>
      <trkpt lat="47.407101038843393" lon="9.523366000503302">
        <ele>1031.1500000000001</ele>
        <time>2018-09-18T12:29:37Z</time>
      </trkpt>
      <trkpt lat="47.407506974413991" lon="9.523412017151713">
        <ele>1026.8299999999999</ele>
        <time>2018-09-18T12:29:40Z</time>
      </trkpt>
      <trkpt lat="47.407628009095788" lon="9.52342601493001">
        <ele>1025.3800000000001</ele>
        <time>2018-09-18T12:29:41Z</time>
      </trkpt>
      <trkpt lat="47.407724987715483" lon="9.523502038791776">
        <ele>1024.4200000000001</ele>
        <time>2018-09-18T12:29:42Z</time>
      </trkpt>
      <trkpt lat="47.407816015183926" lon="9.523600023239851">
        <ele>1022.98</ele>
        <time>2018-09-18T12:29:43Z</time>
      </trkpt>
      <trkpt lat="47.407916011288762" lon="9.523708987981081">
        <ele>1021.54</ele>
        <time>2018-09-18T12:29:44Z</time>
      </trkpt>
      <trkpt lat="47.407966973260045" lon="9.52383697964251">
        <ele>1020.58</ele>
        <time>2018-09-18T12:29:45Z</time>
      </trkpt>
      <trkpt lat="47.408023970201612" lon="9.523977041244507">
        <ele>1019.13</ele>
        <time>2018-09-18T12:29:46Z</time>
      </trkpt>
      <trkpt lat="47.408073004335165" lon="9.524101009592414">
        <ele>1018.17</ele>
        <time>2018-09-18T12:29:47Z</time>
      </trkpt>
      <trkpt lat="47.408112986013293" lon="9.524202011525631">
        <ele>1016.73</ele>
        <time>2018-09-18T12:29:48Z</time>
      </trkpt>
      <trkpt lat="47.408151961863041" lon="9.524250961840153">
        <ele>1014.8099999999999</ele>
        <time>2018-09-18T12:29:49Z</time>
      </trkpt>
      <trkpt lat="47.408208036795259" lon="9.524264959618449">
        <ele>1012.89</ele>
        <time>2018-09-18T12:29:50Z</time>
      </trkpt>
      <trkpt lat="47.408257992938161" lon="9.524211985990405">
        <ele>1011.4400000000001</ele>
        <time>2018-09-18T12:29:51Z</time>
      </trkpt>
      <trkpt lat="47.408280959352851" lon="9.524108972400427">
        <ele>1009.52</ele>
        <time>2018-09-18T12:29:52Z</time>
      </trkpt>
      <trkpt lat="47.408261010423303" lon="9.523995984345675">
        <ele>1008.5599999999999</ele>
        <time>2018-09-18T12:29:53Z</time>
      </trkpt>
      <trkpt lat="47.408220022916794" lon="9.52387603931129">
        <ele>1007.12</ele>
        <time>2018-09-18T12:29:54Z</time>
      </trkpt>
      <trkpt lat="47.40816998295486" lon="9.523731032386422">
        <ele>1006.64</ele>
        <time>2018-09-18T12:29:55Z</time>
      </trkpt>
      <trkpt lat="47.408111980184913" lon="9.523564986884594">
        <ele>1005.6799999999999</ele>
        <time>2018-09-18T12:29:56Z</time>
      </trkpt>
      <trkpt lat="47.408048026263714" lon="9.523381004109979">
        <ele>1004.72</ele>
        <time>2018-09-18T12:29:57Z</time>
      </trkpt>
      <trkpt lat="47.407721970230341" lon="9.522438040003181">
        <ele>999.42999999999995</ele>
        <time>2018-09-18T12:30:02Z</time>
      </trkpt>
      <trkpt lat="47.407702021300793" lon="9.522286998108029">
        <ele>998.47000000000003</ele>
        <time>2018-09-18T12:30:03Z</time>
      </trkpt>
      <trkpt lat="47.407702021300793" lon="9.52213897369802">
        <ele>997.50999999999999</ele>
        <time>2018-09-18T12:30:04Z</time>
      </trkpt>
      <trkpt lat="47.40771702490747" lon="9.521977035328746">
        <ele>996.53999999999996</ele>
        <time>2018-09-18T12:30:05Z</time>
      </trkpt>
      <trkpt lat="47.407790031284094" lon="9.521904028952122">
        <ele>995.10000000000002</ele>
        <time>2018-09-18T12:30:06Z</time>
      </trkpt>
      <trkpt lat="47.407863959670067" lon="9.521830016747117">
        <ele>994.13999999999999</ele>
        <time>2018-09-18T12:30:07Z</time>
      </trkpt>
      <trkpt lat="47.407943001016974" lon="9.521780982613564">
        <ele>993.17999999999995</ele>
        <time>2018-09-18T12:30:08Z</time>
      </trkpt>
      <trkpt lat="47.408027993515134" lon="9.521790035068989">
        <ele>992.22000000000003</ele>
        <time>2018-09-18T12:30:09Z</time>
      </trkpt>
      <trkpt lat="47.408124972134829" lon="9.521810989826918">
        <ele>991.25999999999999</ele>
        <time>2018-09-18T12:30:10Z</time>
      </trkpt>
      <trkpt lat="47.408223040401936" lon="9.521885002031922">
        <ele>990.29999999999995</ele>
        <time>2018-09-18T12:30:11Z</time>
      </trkpt>
      <trkpt lat="47.408337034285069" lon="9.521964965388179">
        <ele>989.33000000000004</ele>
        <time>2018-09-18T12:30:12Z</time>
      </trkpt>
      <trkpt lat="47.408808013424277" lon="9.522279035300016">
        <ele>984.52999999999997</ele>
        <time>2018-09-18T12:30:16Z</time>
      </trkpt>
      <trkpt lat="47.408899962902069" lon="9.522304013371468">
        <ele>983.57000000000005</ele>
        <time>2018-09-18T12:30:17Z</time>
      </trkpt>
      <trkpt lat="47.408980010077357" lon="9.522283980622888">
        <ele>982.60000000000002</ele>
        <time>2018-09-18T12:30:18Z</time>
      </trkpt>
      <trkpt lat="47.409037007018924" lon="9.522247016429901">
        <ele>982.12</ele>
        <time>2018-09-18T12:30:19Z</time>
      </trkpt>
      <trkpt lat="47.409058967605233" lon="9.522134028375149">
        <ele>981.15999999999997</ele>
        <time>2018-09-18T12:30:20Z</time>
      </trkpt>
      <trkpt lat="47.409087968990207" lon="9.521992038935423">
        <ele>981.15999999999997</ele>
        <time>2018-09-18T12:30:21Z</time>
      </trkpt>
      <trkpt lat="47.409110013395548" lon="9.521830016747117">
        <ele>981.15999999999997</ele>
        <time>2018-09-18T12:30:22Z</time>
      </trkpt>
      <trkpt lat="47.409270023927093" lon="9.520571976900101">
        <ele>977.32000000000005</ele>
        <time>2018-09-18T12:30:28Z</time>
      </trkpt>
      <trkpt lat="47.409359039738774" lon="9.52039503492415">
        <ele>976.36000000000001</ele>
        <time>2018-09-18T12:30:29Z</time>
      </trkpt>
      <trkpt lat="47.409453000873327" lon="9.520206023007631">
        <ele>974.90999999999997</ele>
        <time>2018-09-18T12:30:30Z</time>
      </trkpt>
      <trkpt lat="47.40954402834177" lon="9.520023968070746">
        <ele>973.95000000000005</ele>
        <time>2018-09-18T12:30:31Z</time>
      </trkpt>
      <trkpt lat="47.409610999748111" lon="9.519889019429684">
        <ele>972.50999999999999</ele>
        <time>2018-09-18T12:30:32Z</time>
      </trkpt>
      <trkpt lat="47.409757012501359" lon="9.519788017496467">
        <ele>971.07000000000005</ele>
        <time>2018-09-18T12:30:33Z</time>
      </trkpt>
      <trkpt lat="47.409863965585828" lon="9.519714005291462">
        <ele>970.11000000000001</ele>
        <time>2018-09-18T12:30:34Z</time>
      </trkpt>
      <trkpt lat="47.409982988610864" lon="9.519676035270095">
        <ele>968.66999999999996</ele>
        <time>2018-09-18T12:30:35Z</time>
      </trkpt>
      <trkpt lat="47.410119026899338" lon="9.519646028056741">
        <ele>967.22000000000003</ele>
        <time>2018-09-18T12:30:36Z</time>
      </trkpt>
      <trkpt lat="47.410631999373436" lon="9.519490962848067">
        <ele>962.41999999999996</ele>
        <time>2018-09-18T12:30:40Z</time>
      </trkpt>
      <trkpt lat="47.410716991871595" lon="9.519405970349908">
        <ele>961.46000000000004</ele>
        <time>2018-09-18T12:30:41Z</time>
      </trkpt>
      <trkpt lat="47.410782035440207" lon="9.519293988123536">
        <ele>960.49000000000001</ele>
        <time>2018-09-18T12:30:42Z</time>
      </trkpt>
      <trkpt lat="47.410843977704644" lon="9.519145041704178">
        <ele>959.52999999999997</ele>
        <time>2018-09-18T12:30:43Z</time>
      </trkpt>
      <trkpt lat="47.410908015444875" lon="9.518986037001014">
        <ele>959.04999999999995</ele>
        <time>2018-09-18T12:30:44Z</time>
      </trkpt>
      <trkpt lat="47.411045981571078" lon="9.518667021766305">
        <ele>958.09000000000003</ele>
        <time>2018-09-18T12:30:46Z</time>
      </trkpt>
      <trkpt lat="47.411153018474579" lon="9.518542969599366">
        <ele>957.13</ele>
        <time>2018-09-18T12:30:47Z</time>
      </trkpt>
      <trkpt lat="47.411731034517288" lon="9.517873004078865">
        <ele>955.21000000000004</ele>
        <time>2018-09-18T12:30:52Z</time>
      </trkpt>
      <trkpt lat="47.411829018965364" lon="9.517760016024113">
        <ele>954.73000000000002</ele>
        <time>2018-09-18T12:30:53Z</time>
      </trkpt>
      <trkpt lat="47.411856008693576" lon="9.51758399605751">
        <ele>954.25</ele>
        <time>2018-09-18T12:30:54Z</time>
      </trkpt>
      <trkpt lat="47.411872018128633" lon="9.517393978312612">
        <ele>953.76999999999998</ele>
        <time>2018-09-18T12:30:55Z</time>
      </trkpt>
      <trkpt lat="47.411889033392072" lon="9.517193986102939">
        <ele>953.27999999999997</ele>
        <time>2018-09-18T12:30:56Z</time>
      </trkpt>
      <trkpt lat="47.412145016714931" lon="9.515790017321706">
        <ele>950.39999999999998</ele>
        <time>2018-09-18T12:31:02Z</time>
      </trkpt>
      <trkpt lat="47.412385996431112" lon="9.514319999143481">
        <ele>948</ele>
        <time>2018-09-18T12:31:09Z</time>
      </trkpt>
      <trkpt lat="47.412397982552648" lon="9.514138028025627">
        <ele>947.51999999999998</ele>
        <time>2018-09-18T12:31:10Z</time>
      </trkpt>
      <trkpt lat="47.41237903945148" lon="9.513967037200928">
        <ele>947.03999999999996</ele>
        <time>2018-09-18T12:31:11Z</time>
      </trkpt>
      <trkpt lat="47.412299998104572" lon="9.51382102444768">
        <ele>946.55999999999995</ele>
        <time>2018-09-18T12:31:12Z</time>
      </trkpt>
      <trkpt lat="47.412213999778032" lon="9.513662019744515">
        <ele>946.55999999999995</ele>
        <time>2018-09-18T12:31:13Z</time>
      </trkpt>
      <trkpt lat="47.41212397813797" lon="9.513496980071068">
        <ele>946.55999999999995</ele>
        <time>2018-09-18T12:31:14Z</time>
      </trkpt>
      <trkpt lat="47.41203797981143" lon="9.513337975367904">
        <ele>946.55999999999995</ele>
        <time>2018-09-18T12:31:15Z</time>
      </trkpt>
      <trkpt lat="47.411960028111935" lon="9.513176959007978">
        <ele>946.55999999999995</ele>
        <time>2018-09-18T12:31:16Z</time>
      </trkpt>
      <trkpt lat="47.411910993978381" lon="9.513002028688788">
        <ele>946.55999999999995</ele>
        <time>2018-09-18T12:31:17Z</time>
      </trkpt>
      <trkpt lat="47.411876963451505" lon="9.512789966538549">
        <ele>946.55999999999995</ele>
        <time>2018-09-18T12:31:18Z</time>
      </trkpt>
      <trkpt lat="47.411861037835479" lon="9.512571031227708">
        <ele>946.55999999999995</ele>
        <time>2018-09-18T12:31:19Z</time>
      </trkpt>
      <trkpt lat="47.411810997873545" lon="9.512136010453105">
        <ele>947.03999999999996</ele>
        <time>2018-09-18T12:31:21Z</time>
      </trkpt>
      <trkpt lat="47.411778979003429" lon="9.511950016021729">
        <ele>947.03999999999996</ele>
        <time>2018-09-18T12:31:22Z</time>
      </trkpt>
      <trkpt lat="47.411692980676889" lon="9.511799979954958">
        <ele>947.03999999999996</ele>
        <time>2018-09-18T12:31:23Z</time>
      </trkpt>
      <trkpt lat="47.411567000672221" lon="9.511682968586683">
        <ele>947.51999999999998</ele>
        <time>2018-09-18T12:31:24Z</time>
      </trkpt>
      <trkpt lat="47.411439009010792" lon="9.511564029380679">
        <ele>947.51999999999998</ele>
        <time>2018-09-18T12:31:25Z</time>
      </trkpt>
      <trkpt lat="47.411304982379079" lon="9.51143897138536">
        <ele>947.51999999999998</ele>
        <time>2018-09-18T12:31:26Z</time>
      </trkpt>
      <trkpt lat="47.411041958257556" lon="9.511172007769346">
        <ele>948</ele>
        <time>2018-09-18T12:31:28Z</time>
      </trkpt>
      <trkpt lat="47.410943973809481" lon="9.511004034429789">
        <ele>948.48000000000002</ele>
        <time>2018-09-18T12:31:29Z</time>
      </trkpt>
      <trkpt lat="47.410844983533025" lon="9.510833965614438">
        <ele>948.48000000000002</ele>
        <time>2018-09-18T12:31:30Z</time>
      </trkpt>
      <trkpt lat="47.410754039883614" lon="9.510631961748004">
        <ele>948.48000000000002</ele>
        <time>2018-09-18T12:31:31Z</time>
      </trkpt>
      <trkpt lat="47.410700982436538" lon="9.510400034487248">
        <ele>948.96000000000004</ele>
        <time>2018-09-18T12:31:32Z</time>
      </trkpt>
      <trkpt lat="47.410647002980113" lon="9.510155031457543">
        <ele>949.44000000000005</ele>
        <time>2018-09-18T12:31:33Z</time>
      </trkpt>
      <trkpt lat="47.410089019685984" lon="9.507668036967516">
        <ele>953.27999999999997</ele>
        <time>2018-09-18T12:31:42Z</time>
      </trkpt>
      <trkpt lat="47.409731028601527" lon="9.505975982174277">
        <ele>954.73000000000002</ele>
        <time>2018-09-18T12:31:49Z</time>
      </trkpt>
      <trkpt lat="47.40963296033442" lon="9.503710018470883">
        <ele>957.13</ele>
        <time>2018-09-18T12:31:58Z</time>
      </trkpt>
      <trkpt lat="47.409746032208204" lon="9.502854980528355">
        <ele>959.52999999999997</ele>
        <time>2018-09-18T12:32:02Z</time>
      </trkpt>
      <trkpt lat="47.409786013886333" lon="9.502722965553403">
        <ele>960.00999999999999</ele>
        <time>2018-09-18T12:32:03Z</time>
      </trkpt>
      <trkpt lat="47.409833036363125" lon="9.502587011083961">
        <ele>960.49000000000001</ele>
        <time>2018-09-18T12:32:04Z</time>
      </trkpt>
      <trkpt lat="47.410111986100674" lon="9.502290962263942">
        <ele>961.94000000000005</ele>
        <time>2018-09-18T12:32:07Z</time>
      </trkpt>
      <trkpt lat="47.410206031054258" lon="9.502213010564446">
        <ele>962.41999999999996</ele>
        <time>2018-09-18T12:32:08Z</time>
      </trkpt>
      <trkpt lat="47.410308960825205" lon="9.502165988087654">
        <ele>962.89999999999998</ele>
        <time>2018-09-18T12:32:09Z</time>
      </trkpt>
      <trkpt lat="47.410417003557086" lon="9.502122988924384">
        <ele>962.89999999999998</ele>
        <time>2018-09-18T12:32:10Z</time>
      </trkpt>
      <trkpt lat="47.410529991611838" lon="9.502122988924384">
        <ele>962.89999999999998</ele>
        <time>2018-09-18T12:32:11Z</time>
      </trkpt>
      <trkpt lat="47.410648008808494" lon="9.502166993916035">
        <ele>963.38</ele>
        <time>2018-09-18T12:32:12Z</time>
      </trkpt>
      <trkpt lat="47.410749010741711" lon="9.502230025827885">
        <ele>963.38</ele>
        <time>2018-09-18T12:32:13Z</time>
      </trkpt>
      <trkpt lat="47.410844983533025" lon="9.502290040254593">
        <ele>963.86000000000001</ele>
        <time>2018-09-18T12:32:14Z</time>
      </trkpt>
      <trkpt lat="47.410937016829848" lon="9.502336978912354">
        <ele>963.86000000000001</ele>
        <time>2018-09-18T12:32:15Z</time>
      </trkpt>
      <trkpt lat="47.411041958257556" lon="9.502336978912354">
        <ele>963.86000000000001</ele>
        <time>2018-09-18T12:32:16Z</time>
      </trkpt>
      <trkpt lat="47.411154024302959" lon="9.502319963648915">
        <ele>963.86000000000001</ele>
        <time>2018-09-18T12:32:17Z</time>
      </trkpt>
      <trkpt lat="47.411271035671234" lon="9.502294985577464">
        <ele>963.86000000000001</ele>
        <time>2018-09-18T12:32:18Z</time>
      </trkpt>
      <trkpt lat="47.411396009847522" lon="9.502269001677632">
        <ele>963.86000000000001</ele>
        <time>2018-09-18T12:32:19Z</time>
      </trkpt>
      <trkpt lat="47.412168988958001" lon="9.502078983932734">
        <ele>966.25999999999999</ele>
        <time>2018-09-18T12:32:26Z</time>
      </trkpt>
      <trkpt lat="47.412207964807749" lon="9.502069009467959">
        <ele>966.74000000000001</ele>
        <time>2018-09-18T12:32:27Z</time>
      </trkpt>
      <trkpt lat="47.412229003384709" lon="9.502063980326057">
        <ele>966.74000000000001</ele>
        <time>2018-09-18T12:32:28Z</time>
      </trkpt>
      <trkpt lat="47.412229003384709" lon="9.502063980326057">
        <ele>967.22000000000003</ele>
        <time>2018-09-18T12:32:33Z</time>
      </trkpt>
      <trkpt lat="47.412239983677864" lon="9.50211301445961">
        <ele>967.22000000000003</ele>
        <time>2018-09-18T12:32:34Z</time>
      </trkpt>
      <trkpt lat="47.412233026698232" lon="9.502146961167455">
        <ele>967.70000000000005</ele>
        <time>2018-09-18T12:32:35Z</time>
      </trkpt>
      <trkpt lat="47.412221962586045" lon="9.502203036099672">
        <ele>967.70000000000005</ele>
        <time>2018-09-18T12:32:36Z</time>
      </trkpt>
      <trkpt lat="47.412206958979368" lon="9.502277970314026">
        <ele>968.17999999999995</ele>
        <time>2018-09-18T12:32:37Z</time>
      </trkpt>
      <trkpt lat="47.412135964259505" lon="9.50262900441885">
        <ele>968.17999999999995</ele>
        <time>2018-09-18T12:32:40Z</time>
      </trkpt>
      <trkpt lat="47.412102017551661" lon="9.502767976373434">
        <ele>968.66999999999996</ele>
        <time>2018-09-18T12:32:41Z</time>
      </trkpt>
      <trkpt lat="47.412056000903249" lon="9.502914994955063">
        <ele>968.66999999999996</ele>
        <time>2018-09-18T12:32:42Z</time>
      </trkpt>
      <trkpt lat="47.411959022283554" lon="9.503231998533011">
        <ele>969.63</ele>
        <time>2018-09-18T12:32:44Z</time>
      </trkpt>
      <trkpt lat="47.411939995363355" lon="9.50340298935771">
        <ele>970.59000000000003</ele>
        <time>2018-09-18T12:32:45Z</time>
      </trkpt>
      <trkpt lat="47.4119290150702" lon="9.503584960475564">
        <ele>971.54999999999995</ele>
        <time>2018-09-18T12:32:46Z</time>
      </trkpt>
      <trkpt lat="47.411934966221452" lon="9.503782019019127">
        <ele>972.50999999999999</ele>
        <time>2018-09-18T12:32:47Z</time>
      </trkpt>
      <trkpt lat="47.411941001191735" lon="9.503991985693574">
        <ele>973.47000000000003</ele>
        <time>2018-09-18T12:32:48Z</time>
      </trkpt>
      <trkpt lat="47.411986012011766" lon="9.505911022424698">
        <ele>985.97000000000003</ele>
        <time>2018-09-18T12:32:57Z</time>
      </trkpt>
      <trkpt lat="47.41197201423347" lon="9.506302960216999">
        <ele>987.88999999999999</ele>
        <time>2018-09-18T12:32:59Z</time>
      </trkpt>
      <trkpt lat="47.412000009790063" lon="9.506481997668743">
        <ele>989.33000000000004</ele>
        <time>2018-09-18T12:33:00Z</time>
      </trkpt>
      <trkpt lat="47.412141999229789" lon="9.507358996197581">
        <ele>993.17999999999995</ele>
        <time>2018-09-18T12:33:05Z</time>
      </trkpt>
      <trkpt lat="47.412407035008073" lon="9.508846029639244">
        <ele>994.62</ele>
        <time>2018-09-18T12:33:13Z</time>
      </trkpt>
      <trkpt lat="47.412480963394046" lon="9.509083991870284">
        <ele>994.13999999999999</ele>
        <time>2018-09-18T12:33:15Z</time>
      </trkpt>
      <trkpt lat="47.412519017234445" lon="9.509161021560431">
        <ele>994.13999999999999</ele>
        <time>2018-09-18T12:33:16Z</time>
      </trkpt>
      <trkpt lat="47.412567967548966" lon="9.509219024330378">
        <ele>994.13999999999999</ele>
        <time>2018-09-18T12:33:17Z</time>
      </trkpt>
      <trkpt lat="47.412612978368998" lon="9.509204020723701">
        <ele>994.13999999999999</ele>
        <time>2018-09-18T12:33:18Z</time>
      </trkpt>
      <trkpt lat="47.41266100667417" lon="9.509188011288643">
        <ele>994.13999999999999</ele>
        <time>2018-09-18T12:33:19Z</time>
      </trkpt>
      <trkpt lat="47.412715991958976" lon="9.509150963276625">
        <ele>994.13999999999999</ele>
        <time>2018-09-18T12:33:20Z</time>
      </trkpt>
      <trkpt lat="47.412785980850458" lon="9.509091032668948">
        <ele>994.13999999999999</ele>
        <time>2018-09-18T12:33:21Z</time>
      </trkpt>
      <trkpt lat="47.41328202188015" lon="9.508643019944429">
        <ele>996.53999999999996</ele>
        <time>2018-09-18T12:33:26Z</time>
      </trkpt>
      <trkpt lat="47.413354022428393" lon="9.508499018847942">
        <ele>997.50999999999999</ele>
        <time>2018-09-18T12:33:27Z</time>
      </trkpt>
      <trkpt lat="47.413490982726216" lon="9.508201964199543">
        <ele>999.42999999999995</ele>
        <time>2018-09-18T12:33:29Z</time>
      </trkpt>
      <trkpt lat="47.413539011031389" lon="9.508038014173508">
        <ele>1000.39</ele>
        <time>2018-09-18T12:33:30Z</time>
      </trkpt>
      <trkpt lat="47.41371301934123" lon="9.507594024762511">
        <ele>1005.6799999999999</ele>
        <time>2018-09-18T12:33:34Z</time>
      </trkpt>
      <trkpt lat="47.413760963827372" lon="9.507533004507422">
        <ele>1007.12</ele>
        <time>2018-09-18T12:33:35Z</time>
      </trkpt>
      <trkpt lat="47.413806980475783" lon="9.507473995909095">
        <ele>1008.08</ele>
        <time>2018-09-18T12:33:36Z</time>
      </trkpt>
      <trkpt lat="47.413907982409" lon="9.507338963449001">
        <ele>1010.48</ele>
        <time>2018-09-18T12:33:38Z</time>
      </trkpt>
      <trkpt lat="47.414204031229019" lon="9.50692598707974">
        <ele>1014.33</ele>
        <time>2018-09-18T12:33:43Z</time>
      </trkpt>
      <trkpt lat="47.414290029555559" lon="9.506876030936837">
        <ele>1014.8099999999999</ele>
        <time>2018-09-18T12:33:44Z</time>
      </trkpt>
      <trkpt lat="47.414384996518493" lon="9.506821967661381">
        <ele>1015.77</ele>
        <time>2018-09-18T12:33:45Z</time>
      </trkpt>
      <trkpt lat="47.414739970117807" lon="9.506680984050036">
        <ele>1020.58</ele>
        <time>2018-09-18T12:33:49Z</time>
      </trkpt>
      <trkpt lat="47.414824962615967" lon="9.506673021242023">
        <ele>1021.0599999999999</ele>
        <time>2018-09-18T12:33:50Z</time>
      </trkpt>
      <trkpt lat="47.415781002491713" lon="9.506705040112138">
        <ele>1028.27</ele>
        <time>2018-09-18T12:33:59Z</time>
      </trkpt>
      <trkpt lat="47.415868006646633" lon="9.50671199709177">
        <ele>1028.75</ele>
        <time>2018-09-18T12:34:00Z</time>
      </trkpt>
      <trkpt lat="47.416106974706054" lon="9.506777040660381">
        <ele>1029.23</ele>
        <time>2018-09-18T12:34:03Z</time>
      </trkpt>
      <trkpt lat="47.416172018274665" lon="9.506735969334841">
        <ele>1029.71</ele>
        <time>2018-09-18T12:34:04Z</time>
      </trkpt>
      <trkpt lat="47.416241001337767" lon="9.506686013191938">
        <ele>1030.1900000000001</ele>
        <time>2018-09-18T12:34:05Z</time>
      </trkpt>
      <trkpt lat="47.416310990229249" lon="9.506634967401624">
        <ele>1030.6700000000001</ele>
        <time>2018-09-18T12:34:06Z</time>
      </trkpt>
      <trkpt lat="47.416391037404537" lon="9.506601020693779">
        <ele>1031.6300000000001</ele>
        <time>2018-09-18T12:34:07Z</time>
      </trkpt>
      <trkpt lat="47.416475024074316" lon="9.506588028743863">
        <ele>1032.1099999999999</ele>
        <time>2018-09-18T12:34:08Z</time>
      </trkpt>
      <trkpt lat="47.416567979380488" lon="9.506574030965567">
        <ele>1032.1099999999999</ele>
        <time>2018-09-18T12:34:09Z</time>
      </trkpt>
      <trkpt lat="47.416661018505692" lon="9.506571013480425">
        <ele>1032.5899999999999</ele>
        <time>2018-09-18T12:34:10Z</time>
      </trkpt>
      <trkpt lat="47.416753973811865" lon="9.506589034572244">
        <ele>1032.5899999999999</ele>
        <time>2018-09-18T12:34:11Z</time>
      </trkpt>
      <trkpt lat="47.41685195825994" lon="9.506608983501792">
        <ele>1032.5899999999999</ele>
        <time>2018-09-18T12:34:12Z</time>
      </trkpt>
      <trkpt lat="47.416953966021538" lon="9.506629016250372">
        <ele>1032.5899999999999</ele>
        <time>2018-09-18T12:34:13Z</time>
      </trkpt>
      <trkpt lat="47.417238028720021" lon="9.506686013191938">
        <ele>1030.1900000000001</ele>
        <time>2018-09-18T12:34:16Z</time>
      </trkpt>
      <trkpt lat="47.417315980419517" lon="9.506681989878416">
        <ele>1029.23</ele>
        <time>2018-09-18T12:34:17Z</time>
      </trkpt>
      <trkpt lat="47.417392004281282" lon="9.506662962958217">
        <ele>1028.75</ele>
        <time>2018-09-18T12:34:18Z</time>
      </trkpt>
      <trkpt lat="47.417449001222849" lon="9.506635973230004">
        <ele>1028.27</ele>
        <time>2018-09-18T12:34:19Z</time>
      </trkpt>
      <trkpt lat="47.417487977072597" lon="9.506544023752213">
        <ele>1027.79</ele>
        <time>2018-09-18T12:34:20Z</time>
      </trkpt>
      <trkpt lat="47.417532987892628" lon="9.506440004333854">
        <ele>1027.79</ele>
        <time>2018-09-18T12:34:21Z</time>
      </trkpt>
      <trkpt lat="47.417583027854562" lon="9.506322992965579">
        <ele>1027.3099999999999</ele>
        <time>2018-09-18T12:34:22Z</time>
      </trkpt>
      <trkpt lat="47.418041015043855" lon="9.50524901971221">
        <ele>1032.1099999999999</ele>
        <time>2018-09-18T12:34:30Z</time>
      </trkpt>
      <trkpt lat="47.418394982814789" lon="9.504470005631447">
        <ele>1038.8399999999999</ele>
        <time>2018-09-18T12:34:38Z</time>
      </trkpt>
      <trkpt lat="47.418430019170046" lon="9.504396999254823">
        <ele>1039.3199999999999</ele>
        <time>2018-09-18T12:34:39Z</time>
      </trkpt>
      <trkpt lat="47.418502019718289" lon="9.504350982606411">
        <ele>1039.3199999999999</ele>
        <time>2018-09-18T12:34:40Z</time>
      </trkpt>
      <trkpt lat="47.418605033308268" lon="9.50428401120007">
        <ele>1039.8</ele>
        <time>2018-09-18T12:34:42Z</time>
      </trkpt>
      <trkpt lat="47.418698994442821" lon="9.504222990944982">
        <ele>1040.28</ele>
        <time>2018-09-18T12:34:44Z</time>
      </trkpt>
      <trkpt lat="47.418738976120949" lon="9.50419700704515">
        <ele>1040.28</ele>
        <time>2018-09-18T12:34:45Z</time>
      </trkpt>
      <trkpt lat="47.418811982497573" lon="9.504208993166685">
        <ele>1040.28</ele>
        <time>2018-09-18T12:34:46Z</time>
      </trkpt>
      <trkpt lat="47.418827991932631" lon="9.504256015643477">
        <ele>1040.28</ele>
        <time>2018-09-18T12:34:47Z</time>
      </trkpt>
      <trkpt lat="47.418851964175701" lon="9.504323992878199">
        <ele>1040.28</ele>
        <time>2018-09-18T12:34:48Z</time>
      </trkpt>
      <trkpt lat="47.418882977217436" lon="9.50441300868988">
        <ele>1040.28</ele>
        <time>2018-09-18T12:34:49Z</time>
      </trkpt>
      <trkpt lat="47.418920025229454" lon="9.504519039765">
        <ele>1040.76</ele>
        <time>2018-09-18T12:34:50Z</time>
      </trkpt>
      <trkpt lat="47.419276004657149" lon="9.505540961399674">
        <ele>1049.9000000000001</ele>
        <time>2018-09-18T12:34:57Z</time>
      </trkpt>
      <trkpt lat="47.419311041012406" lon="9.505687979981303">
        <ele>1051.8199999999999</ele>
        <time>2018-09-18T12:34:58Z</time>
      </trkpt>
      <trkpt lat="47.419331995770335" lon="9.505791999399662">
        <ele>1053.26</ele>
        <time>2018-09-18T12:34:59Z</time>
      </trkpt>
      <trkpt lat="47.419331995770335" lon="9.50595997273922">
        <ele>1054.7</ele>
        <time>2018-09-18T12:35:00Z</time>
      </trkpt>
      <trkpt lat="47.419331995770335" lon="9.506101962178946">
        <ele>1056.1500000000001</ele>
        <time>2018-09-18T12:35:01Z</time>
      </trkpt>
      <trkpt lat="47.419331995770335" lon="9.506248980760574">
        <ele>1057.1099999999999</ele>
        <time>2018-09-18T12:35:02Z</time>
      </trkpt>
      <trkpt lat="47.419319003820419" lon="9.506402034312487">
        <ele>1058.55</ele>
        <time>2018-09-18T12:35:03Z</time>
      </trkpt>
      <trkpt lat="47.419291008263826" lon="9.50656296685338">
        <ele>1059.51</ele>
        <time>2018-09-18T12:35:04Z</time>
      </trkpt>
      <trkpt lat="47.418908961117268" lon="9.507844978943467">
        <ele>1064.3199999999999</ele>
        <time>2018-09-18T12:35:12Z</time>
      </trkpt>
      <trkpt lat="47.418727995827794" lon="9.508358035236597">
        <ele>1062.8699999999999</ele>
        <time>2018-09-18T12:35:15Z</time>
      </trkpt>
      <trkpt lat="47.418473018333316" lon="9.509553965181112">
        <ele>1064.3199999999999</ele>
        <time>2018-09-18T12:35:22Z</time>
      </trkpt>
      <trkpt lat="47.418462038040161" lon="9.509688997641206">
        <ele>1064.3199999999999</ele>
        <time>2018-09-18T12:35:23Z</time>
      </trkpt>
      <trkpt lat="47.418451979756355" lon="9.509803997352719">
        <ele>1064.3199999999999</ele>
        <time>2018-09-18T12:35:24Z</time>
      </trkpt>
      <trkpt lat="47.418487016111612" lon="9.509957972913981">
        <ele>1063.8399999999999</ele>
        <time>2018-09-18T12:35:25Z</time>
      </trkpt>
      <trkpt lat="47.418794967234135" lon="9.5112210419029">
        <ele>1059.51</ele>
        <time>2018-09-18T12:35:33Z</time>
      </trkpt>
      <trkpt lat="47.418880965560675" lon="9.511478031054139">
        <ele>1058.55</ele>
        <time>2018-09-18T12:35:35Z</time>
      </trkpt>
      <trkpt lat="47.418924970552325" lon="9.511577021330595">
        <ele>1058.0699999999999</ele>
        <time>2018-09-18T12:35:36Z</time>
      </trkpt>
      <trkpt lat="47.418966963887215" lon="9.511670982465148">
        <ele>1057.5899999999999</ele>
        <time>2018-09-18T12:35:37Z</time>
      </trkpt>
      <trkpt lat="47.419024966657162" lon="9.511741977185011">
        <ele>1057.5899999999999</ele>
        <time>2018-09-18T12:35:38Z</time>
      </trkpt>
      <trkpt lat="47.419071989133954" lon="9.511798974126577">
        <ele>1057.5899999999999</ele>
        <time>2018-09-18T12:35:39Z</time>
      </trkpt>
      <trkpt lat="47.419111970812082" lon="9.511848008260131">
        <ele>1058.0699999999999</ele>
        <time>2018-09-18T12:35:40Z</time>
      </trkpt>
      <trkpt lat="47.419161004945636" lon="9.511905005201697">
        <ele>1058.0699999999999</ele>
        <time>2018-09-18T12:35:41Z</time>
      </trkpt>
      <trkpt lat="47.419194029644132" lon="9.51186703518033">
        <ele>1058.0699999999999</ele>
        <time>2018-09-18T12:35:42Z</time>
      </trkpt>
      <trkpt lat="47.419238034635782" lon="9.511814983561635">
        <ele>1058.0699999999999</ele>
        <time>2018-09-18T12:35:43Z</time>
      </trkpt>
      <trkpt lat="47.419293019920588" lon="9.511749017983675">
        <ele>1058.0699999999999</ele>
        <time>2018-09-18T12:35:44Z</time>
      </trkpt>
      <trkpt lat="47.419359991326928" lon="9.511668970808387">
        <ele>1058.0699999999999</ele>
        <time>2018-09-18T12:35:45Z</time>
      </trkpt>
      <trkpt lat="47.419435009360313" lon="9.511579032987356">
        <ele>1057.1099999999999</ele>
        <time>2018-09-18T12:35:46Z</time>
      </trkpt>
      <trkpt lat="47.419513966888189" lon="9.511485993862152">
        <ele>1056.6300000000001</ele>
        <time>2018-09-18T12:35:47Z</time>
      </trkpt>
      <trkpt lat="47.419842034578323" lon="9.511155998334289">
        <ele>1055.1800000000001</ele>
        <time>2018-09-18T12:35:51Z</time>
      </trkpt>
      <trkpt lat="47.419920992106199" lon="9.511078968644142">
        <ele>1055.1800000000001</ele>
        <time>2018-09-18T12:35:52Z</time>
      </trkpt>
      <trkpt lat="47.419991986826062" lon="9.510979978367686">
        <ele>1055.1800000000001</ele>
        <time>2018-09-18T12:35:53Z</time>
      </trkpt>
      <trkpt lat="47.420130036771297" lon="9.510789038613439">
        <ele>1055.1800000000001</ele>
        <time>2018-09-18T12:35:55Z</time>
      </trkpt>
      <trkpt lat="47.420189967378974" lon="9.510705973953009">
        <ele>1055.6700000000001</ele>
        <time>2018-09-18T12:35:56Z</time>
      </trkpt>
      <trkpt lat="47.42026699706912" lon="9.510666998103261">
        <ele>1055.6700000000001</ele>
        <time>2018-09-18T12:35:57Z</time>
      </trkpt>
      <trkpt lat="47.420343020930886" lon="9.5106459595263">
        <ele>1055.1800000000001</ele>
        <time>2018-09-18T12:35:58Z</time>
      </trkpt>
      <trkpt lat="47.420429019257426" lon="9.510662974789739">
        <ele>1054.7</ele>
        <time>2018-09-18T12:35:59Z</time>
      </trkpt>
      <trkpt lat="47.42052398622036" lon="9.510682001709938">
        <ele>1054.22</ele>
        <time>2018-09-18T12:36:00Z</time>
      </trkpt>
      <trkpt lat="47.420621970668435" lon="9.510702034458518">
        <ele>1053.74</ele>
        <time>2018-09-18T12:36:01Z</time>
      </trkpt>
      <trkpt lat="47.420719033107162" lon="9.510660963132978">
        <ele>1052.78</ele>
        <time>2018-09-18T12:36:02Z</time>
      </trkpt>
      <trkpt lat="47.420809976756573" lon="9.510607989504933">
        <ele>1051.8199999999999</ele>
        <time>2018-09-18T12:36:03Z</time>
      </trkpt>
      <trkpt lat="47.420898992568254" lon="9.51055602170527">
        <ele>1050.8599999999999</ele>
        <time>2018-09-18T12:36:04Z</time>
      </trkpt>
      <trkpt lat="47.420984990894794" lon="9.510505981743336">
        <ele>1049.9000000000001</ele>
        <time>2018-09-18T12:36:05Z</time>
      </trkpt>
      <trkpt lat="47.421071995049715" lon="9.510478992015123">
        <ele>1048.9400000000001</ele>
        <time>2018-09-18T12:36:06Z</time>
      </trkpt>
      <trkpt lat="47.421151958405972" lon="9.510513022542">
        <ele>1047.97</ele>
        <time>2018-09-18T12:36:07Z</time>
      </trkpt>
      <trkpt lat="47.421239968389273" lon="9.510549986734986">
        <ele>1047.01</ele>
        <time>2018-09-18T12:36:08Z</time>
      </trkpt>
      <trkpt lat="47.421335019171238" lon="9.510602038353682">
        <ele>1046.05</ele>
        <time>2018-09-18T12:36:09Z</time>
      </trkpt>
      <trkpt lat="47.421431997790933" lon="9.510688036680222">
        <ele>1045.0899999999999</ele>
        <time>2018-09-18T12:36:10Z</time>
      </trkpt>
      <trkpt lat="47.42153400555253" lon="9.510778980329633">
        <ele>1043.6500000000001</ele>
        <time>2018-09-18T12:36:11Z</time>
      </trkpt>
      <trkpt lat="47.42194295860827" lon="9.511149963364005">
        <ele>1037.4000000000001</ele>
        <time>2018-09-18T12:36:15Z</time>
      </trkpt>
      <trkpt lat="47.422047983855009" lon="9.511192962527275">
        <ele>1036.4400000000001</ele>
        <time>2018-09-18T12:36:16Z</time>
      </trkpt>
      <trkpt lat="47.423002012073994" lon="9.511581966653466">
        <ele>1022.5</ele>
        <time>2018-09-18T12:36:25Z</time>
      </trkpt>
      <trkpt lat="47.42321097292006" lon="9.511676011607051">
        <ele>1019.13</ele>
        <time>2018-09-18T12:36:27Z</time>
      </trkpt>
      <trkpt lat="47.423771973699331" lon="9.511791011318564">
        <ele>1009.52</ele>
        <time>2018-09-18T12:36:32Z</time>
      </trkpt>
      <trkpt lat="47.423850009217858" lon="9.511796962469816">
        <ele>1008.08</ele>
        <time>2018-09-18T12:36:33Z</time>
      </trkpt>
      <trkpt lat="47.423942964524031" lon="9.511773996055126">
        <ele>1006.64</ele>
        <time>2018-09-18T12:36:34Z</time>
      </trkpt>
      <trkpt lat="47.424747962504625" lon="9.511280972510576">
        <ele>997.50999999999999</ele>
        <time>2018-09-18T12:36:41Z</time>
      </trkpt>
      <trkpt lat="47.424897998571396" lon="9.511183993890882">
        <ele>995.58000000000004</ele>
        <time>2018-09-18T12:36:43Z</time>
      </trkpt>
      <trkpt lat="47.424966981634498" lon="9.511082991957665">
        <ele>995.10000000000002</ele>
        <time>2018-09-18T12:36:44Z</time>
      </trkpt>
      <trkpt lat="47.424956001341343" lon="9.511006968095899">
        <ele>994.62</ele>
        <time>2018-09-18T12:36:45Z</time>
      </trkpt>
      <trkpt lat="47.424940997734666" lon="9.510902026668191">
        <ele>993.65999999999997</ele>
        <time>2018-09-18T12:36:46Z</time>
      </trkpt>
      <trkpt lat="47.424920964986086" lon="9.510768000036478">
        <ele>993.17999999999995</ele>
        <time>2018-09-18T12:36:47Z</time>
      </trkpt>
      <trkpt lat="47.424897998571396" lon="9.510611006990075">
        <ele>992.70000000000005</ele>
        <time>2018-09-18T12:36:48Z</time>
      </trkpt>
      <trkpt lat="47.424686020240188" lon="9.509176025167108">
        <ele>993.65999999999997</ele>
        <time>2018-09-18T12:36:56Z</time>
      </trkpt>
      <trkpt lat="47.424480998888612" lon="9.507620008662343">
        <ele>990.77999999999997</ele>
        <time>2018-09-18T12:37:05Z</time>
      </trkpt>
      <trkpt lat="47.424505976960063" lon="9.507507020607591">
        <ele>990.77999999999997</ele>
        <time>2018-09-18T12:37:06Z</time>
      </trkpt>
      <trkpt lat="47.424539001658559" lon="9.507392020896077">
        <ele>990.29999999999995</ele>
        <time>2018-09-18T12:37:07Z</time>
      </trkpt>
      <trkpt lat="47.424583006650209" lon="9.507266040891409">
        <ele>990.29999999999995</ele>
        <time>2018-09-18T12:37:08Z</time>
      </trkpt>
      <trkpt lat="47.424650983884931" lon="9.50714098289609">
        <ele>990.29999999999995</ele>
        <time>2018-09-18T12:37:09Z</time>
      </trkpt>
      <trkpt lat="47.425136966630816" lon="9.506138004362583">
        <ele>987.88999999999999</ele>
        <time>2018-09-18T12:37:17Z</time>
      </trkpt>
      <trkpt lat="47.425150964409113" lon="9.505910016596317">
        <ele>986.45000000000005</ele>
        <time>2018-09-18T12:37:22Z</time>
      </trkpt>
      <trkpt lat="47.425067983567715" lon="9.505807003006339">
        <ele>985.49000000000001</ele>
        <time>2018-09-18T12:37:24Z</time>
      </trkpt>
      <trkpt lat="47.425009980797768" lon="9.505735002458096">
        <ele>985.49000000000001</ele>
        <time>2018-09-18T12:37:25Z</time>
      </trkpt>
      <trkpt lat="47.424320988357067" lon="9.504878958687186">
        <ele>982.60000000000002</ele>
        <time>2018-09-18T12:37:33Z</time>
      </trkpt>
      <trkpt lat="47.42363702505827" lon="9.504074966534972">
        <ele>980.20000000000005</ele>
        <time>2018-09-18T12:37:40Z</time>
      </trkpt>
      <trkpt lat="47.42353199981153" lon="9.504011012613773">
        <ele>980.20000000000005</ele>
        <time>2018-09-18T12:37:41Z</time>
      </trkpt>
      <trkpt lat="47.423421023413539" lon="9.503944041207433">
        <ele>979.72000000000003</ele>
        <time>2018-09-18T12:37:42Z</time>
      </trkpt>
      <trkpt lat="47.423308035358787" lon="9.503874974325299">
        <ele>979.72000000000003</ele>
        <time>2018-09-18T12:37:43Z</time>
      </trkpt>
      <trkpt lat="47.423202004283667" lon="9.5038110204041">
        <ele>979.72000000000003</ele>
        <time>2018-09-18T12:37:44Z</time>
      </trkpt>
      <trkpt lat="47.422799002379179" lon="9.503568029031158">
        <ele>975.88</ele>
        <time>2018-09-18T12:37:48Z</time>
      </trkpt>
      <trkpt lat="47.422700012102723" lon="9.503508014604449">
        <ele>974.42999999999995</ele>
        <time>2018-09-18T12:37:49Z</time>
      </trkpt>
      <trkpt lat="47.422572020441294" lon="9.503430984914303">
        <ele>972.50999999999999</ele>
        <time>2018-09-18T12:37:50Z</time>
      </trkpt>
      <trkpt lat="47.422513011842966" lon="9.50329402461648">
        <ele>971.07000000000005</ele>
        <time>2018-09-18T12:37:51Z</time>
      </trkpt>
      <trkpt lat="47.422454003244638" lon="9.503157986328006">
        <ele>969.14999999999998</ele>
        <time>2018-09-18T12:37:52Z</time>
      </trkpt>
      <trkpt lat="47.42241301573813" lon="9.503038041293621">
        <ele>967.22000000000003</ele>
        <time>2018-09-18T12:37:53Z</time>
      </trkpt>
      <trkpt lat="47.422380996868014" lon="9.502937039360404">
        <ele>964.82000000000005</ele>
        <time>2018-09-18T12:37:54Z</time>
      </trkpt>
      <trkpt lat="47.422354007139802" lon="9.502851963043213">
        <ele>962.89999999999998</ele>
        <time>2018-09-18T12:37:55Z</time>
      </trkpt>
      <trkpt lat="47.422331962734461" lon="9.50278096832335">
        <ele>960.49000000000001</ele>
        <time>2018-09-18T12:37:56Z</time>
      </trkpt>
      <trkpt lat="47.422315031290054" lon="9.502726988866925">
        <ele>958.57000000000005</ele>
        <time>2018-09-18T12:37:57Z</time>
      </trkpt>
      <trkpt lat="47.422335986047983" lon="9.502624981105328">
        <ele>956.16999999999996</ele>
        <time>2018-09-18T12:37:58Z</time>
      </trkpt>
      <trkpt lat="47.422400023788214" lon="9.502573013305664">
        <ele>954.73000000000002</ele>
        <time>2018-09-18T12:37:59Z</time>
      </trkpt>
      <trkpt lat="47.422431036829948" lon="9.502529008314014">
        <ele>952.79999999999995</ele>
        <time>2018-09-18T12:38:00Z</time>
      </trkpt>
      <trkpt lat="47.422491973266006" lon="9.502442004159093">
        <ele>951.84000000000003</ele>
        <time>2018-09-18T12:38:01Z</time>
      </trkpt>
      <trkpt lat="47.422558022662997" lon="9.502312000840902">
        <ele>950.88</ele>
        <time>2018-09-18T12:38:02Z</time>
      </trkpt>
      <trkpt lat="47.42256598547101" lon="9.502146039158106">
        <ele>949.91999999999996</ele>
        <time>2018-09-18T12:38:03Z</time>
      </trkpt>
      <trkpt lat="47.422555005177855" lon="9.501975970342755">
        <ele>948.96000000000004</ele>
        <time>2018-09-18T12:38:04Z</time>
      </trkpt>
      <trkpt lat="47.422544024884701" lon="9.501795005053282">
        <ele>948.48000000000002</ele>
        <time>2018-09-18T12:38:05Z</time>
      </trkpt>
      <trkpt lat="47.422532038763165" lon="9.501612028107047">
        <ele>948</ele>
        <time>2018-09-18T12:38:06Z</time>
      </trkpt>
      <trkpt lat="47.422553999349475" lon="9.50142402201891">
        <ele>947.03999999999996</ele>
        <time>2018-09-18T12:38:07Z</time>
      </trkpt>
      <trkpt lat="47.422588029876351" lon="9.501240039244294">
        <ele>946.55999999999995</ele>
        <time>2018-09-18T12:38:08Z</time>
      </trkpt>
      <trkpt lat="47.42262801155448" lon="9.501069970428944">
        <ele>947.03999999999996</ele>
        <time>2018-09-18T12:38:09Z</time>
      </trkpt>
      <trkpt lat="47.422703029587865" lon="9.500940972939134">
        <ele>946.55999999999995</ele>
        <time>2018-09-18T12:38:10Z</time>
      </trkpt>
      <trkpt lat="47.422793973237276" lon="9.50088900513947">
        <ele>946.55999999999995</ele>
        <time>2018-09-18T12:38:11Z</time>
      </trkpt>
      <trkpt lat="47.422902015969157" lon="9.500856986269355">
        <ele>946.07000000000005</ele>
        <time>2018-09-18T12:38:12Z</time>
      </trkpt>
      <trkpt lat="47.423031013458967" lon="9.500862015411258">
        <ele>946.07000000000005</ele>
        <time>2018-09-18T12:38:13Z</time>
      </trkpt>
      <trkpt lat="47.423149030655622" lon="9.50093200430274">
        <ele>946.07000000000005</ele>
        <time>2018-09-18T12:38:14Z</time>
      </trkpt>
      <trkpt lat="47.423278028145432" lon="9.501010039821267">
        <ele>946.55999999999995</ele>
        <time>2018-09-18T12:38:15Z</time>
      </trkpt>
      <trkpt lat="47.423836011439562" lon="9.501344980672002">
        <ele>948.48000000000002</ele>
        <time>2018-09-18T12:38:19Z</time>
      </trkpt>
      <trkpt lat="47.423987975344062" lon="9.501436008140445">
        <ele>948.48000000000002</ele>
        <time>2018-09-18T12:38:20Z</time>
      </trkpt>
      <trkpt lat="47.424101969227195" lon="9.501594007015228">
        <ele>948.96000000000004</ele>
        <time>2018-09-18T12:38:21Z</time>
      </trkpt>
      <trkpt lat="47.424564985558391" lon="9.502315018326044">
        <ele>950.39999999999998</ele>
        <time>2018-09-18T12:38:25Z</time>
      </trkpt>
      <trkpt lat="47.424654001370072" lon="9.50252003967762">
        <ele>950.88</ele>
        <time>2018-09-18T12:38:26Z</time>
      </trkpt>
      <trkpt lat="47.425483977422118" lon="9.504053005948663">
        <ele>954.25</ele>
        <time>2018-09-18T12:38:34Z</time>
      </trkpt>
      <trkpt lat="47.4255729932338" lon="9.504273030906916">
        <ele>954.25</ele>
        <time>2018-09-18T12:38:35Z</time>
      </trkpt>
      <trkpt lat="47.426228960976005" lon="9.506055023521185">
        <ele>955.21000000000004</ele>
        <time>2018-09-18T12:38:43Z</time>
      </trkpt>
      <trkpt lat="47.426377991214395" lon="9.50641100294888">
        <ele>955.21000000000004</ele>
        <time>2018-09-18T12:38:45Z</time>
      </trkpt>
      <trkpt lat="47.426472958177328" lon="9.50654000043869">
        <ele>955.21000000000004</ele>
        <time>2018-09-18T12:38:46Z</time>
      </trkpt>
      <trkpt lat="47.426584018394351" lon="9.506692970171571">
        <ele>955.21000000000004</ele>
        <time>2018-09-18T12:38:47Z</time>
      </trkpt>
      <trkpt lat="47.426680997014046" lon="9.506769999861717">
        <ele>955.69000000000005</ele>
        <time>2018-09-18T12:38:48Z</time>
      </trkpt>
      <trkpt lat="47.426814017817378" lon="9.50679698958993">
        <ele>955.69000000000005</ele>
        <time>2018-09-18T12:38:49Z</time>
      </trkpt>
      <trkpt lat="47.426944021135569" lon="9.506816016510129">
        <ele>955.69000000000005</ele>
        <time>2018-09-18T12:38:50Z</time>
      </trkpt>
      <trkpt lat="47.427076958119869" lon="9.506834959611297">
        <ele>955.69000000000005</ele>
        <time>2018-09-18T12:38:51Z</time>
      </trkpt>
      <trkpt lat="47.42720796726644" lon="9.506853986531496">
        <ele>956.16999999999996</ele>
        <time>2018-09-18T12:38:52Z</time>
      </trkpt>
      <trkpt lat="47.427567970007658" lon="9.50690696015954">
        <ele>956.16999999999996</ele>
        <time>2018-09-18T12:38:55Z</time>
      </trkpt>
      <trkpt lat="47.427664026618004" lon="9.506999999284744">
        <ele>956.16999999999996</ele>
        <time>2018-09-18T12:38:56Z</time>
      </trkpt>
      <trkpt lat="47.427754970267415" lon="9.507091026753187">
        <ele>956.16999999999996</ele>
        <time>2018-09-18T12:38:57Z</time>
      </trkpt>
      <trkpt lat="47.427851026877761" lon="9.507188005372882">
        <ele>956.64999999999998</ele>
        <time>2018-09-18T12:38:58Z</time>
      </trkpt>
      <trkpt lat="47.427917998284101" lon="9.507332006469369">
        <ele>956.64999999999998</ele>
        <time>2018-09-18T12:38:59Z</time>
      </trkpt>
      <trkpt lat="47.427988993003964" lon="9.507483970373869">
        <ele>956.64999999999998</ele>
        <time>2018-09-18T12:39:00Z</time>
      </trkpt>
      <trkpt lat="47.428300967440009" lon="9.508152008056641">
        <ele>957.13</ele>
        <time>2018-09-18T12:39:05Z</time>
      </trkpt>
      <trkpt lat="47.428295016288757" lon="9.508289974182844">
        <ele>957.13</ele>
        <time>2018-09-18T12:39:06Z</time>
      </trkpt>
      <trkpt lat="47.428289987146854" lon="9.50843196362257">
        <ele>957.61000000000001</ele>
        <time>2018-09-18T12:39:07Z</time>
      </trkpt>
      <trkpt lat="47.428283030167222" lon="9.508588034659624">
        <ele>958.57000000000005</ele>
        <time>2018-09-18T12:39:08Z</time>
      </trkpt>
      <trkpt lat="47.4282790068537" lon="9.508765982463956">
        <ele>959.52999999999997</ele>
        <time>2018-09-18T12:39:09Z</time>
      </trkpt>
      <trkpt lat="47.4282790068537" lon="9.508960023522377">
        <ele>960.49000000000001</ele>
        <time>2018-09-18T12:39:10Z</time>
      </trkpt>
      <trkpt lat="47.42808697745204" lon="9.51036399230361">
        <ele>960.00999999999999</ele>
        <time>2018-09-18T12:39:16Z</time>
      </trkpt>
      <trkpt lat="47.427968038246036" lon="9.511133031919599">
        <ele>960.00999999999999</ele>
        <time>2018-09-18T12:39:19Z</time>
      </trkpt>
      <trkpt lat="47.42780601605773" lon="9.513545008376241">
        <ele>957.61000000000001</ele>
        <time>2018-09-18T12:39:28Z</time>
      </trkpt>
      <trkpt lat="47.427820013836026" lon="9.513785988092423">
        <ele>957.13</ele>
        <time>2018-09-18T12:39:29Z</time>
      </trkpt>
      <trkpt lat="47.427863012999296" lon="9.514250010251999">
        <ele>956.16999999999996</ele>
        <time>2018-09-18T12:39:31Z</time>
      </trkpt>
      <trkpt lat="47.427856978029013" lon="9.514615964144468">
        <ele>955.69000000000005</ele>
        <time>2018-09-18T12:39:33Z</time>
      </trkpt>
      <trkpt lat="47.427844991907477" lon="9.514750996604562">
        <ele>955.69000000000005</ele>
        <time>2018-09-18T12:39:34Z</time>
      </trkpt>
      <trkpt lat="47.427798975259066" lon="9.514841018244624">
        <ele>955.69000000000005</ele>
        <time>2018-09-18T12:39:35Z</time>
      </trkpt>
      <trkpt lat="47.427740972489119" lon="9.514936991035938">
        <ele>955.69000000000005</ele>
        <time>2018-09-18T12:39:36Z</time>
      </trkpt>
      <trkpt lat="47.427668971940875" lon="9.515017960220575">
        <ele>955.69000000000005</ele>
        <time>2018-09-18T12:39:37Z</time>
      </trkpt>
      <trkpt lat="47.427460011094809" lon="9.515249971300364">
        <ele>955.69000000000005</ele>
        <time>2018-09-18T12:39:40Z</time>
      </trkpt>
      <trkpt lat="47.4273999966681" lon="9.515317026525736">
        <ele>955.69000000000005</ele>
        <time>2018-09-18T12:39:41Z</time>
      </trkpt>
      <trkpt lat="47.427365966141224" lon="9.515415010973811">
        <ele>955.69000000000005</ele>
        <time>2018-09-18T12:39:42Z</time>
      </trkpt>
      <trkpt lat="47.427349034696817" lon="9.515517018735409">
        <ele>955.21000000000004</ele>
        <time>2018-09-18T12:39:43Z</time>
      </trkpt>
      <trkpt lat="47.427374012768269" lon="9.515630006790161">
        <ele>955.21000000000004</ele>
        <time>2018-09-18T12:39:44Z</time>
      </trkpt>
      <trkpt lat="47.427428998053074" lon="9.515676023438573">
        <ele>954.73000000000002</ele>
        <time>2018-09-18T12:39:45Z</time>
      </trkpt>
      <trkpt lat="47.427502004429698" lon="9.515705024823546">
        <ele>954.25</ele>
        <time>2018-09-18T12:39:46Z</time>
      </trkpt>
      <trkpt lat="47.42759202606976" lon="9.515705024823546">
        <ele>953.76999999999998</ele>
        <time>2018-09-18T12:39:47Z</time>
      </trkpt>
      <trkpt lat="47.427693028002977" lon="9.515705024823546">
        <ele>953.76999999999998</ele>
        <time>2018-09-18T12:39:48Z</time>
      </trkpt>
      <trkpt lat="47.427796963602304" lon="9.515705024823546">
        <ele>953.76999999999998</ele>
        <time>2018-09-18T12:39:49Z</time>
      </trkpt>
      <trkpt lat="47.427980024367571" lon="9.515751963481307">
        <ele>953.27999999999997</ele>
        <time>2018-09-18T12:39:51Z</time>
      </trkpt>
      <trkpt lat="47.428051019087434" lon="9.515803009271622">
        <ele>953.27999999999997</ele>
        <time>2018-09-18T12:39:52Z</time>
      </trkpt>
      <trkpt lat="47.428101981058717" lon="9.515899987891316">
        <ele>952.79999999999995</ele>
        <time>2018-09-18T12:39:53Z</time>
      </trkpt>
      <trkpt lat="47.428152021020651" lon="9.516021022573113">
        <ele>952.32000000000005</ele>
        <time>2018-09-18T12:39:54Z</time>
      </trkpt>
      <trkpt lat="47.428183034062386" lon="9.516168041154742">
        <ele>952.32000000000005</ele>
        <time>2018-09-18T12:39:55Z</time>
      </trkpt>
      <trkpt lat="47.428203988820314" lon="9.516342971473932">
        <ele>951.84000000000003</ele>
        <time>2018-09-18T12:39:56Z</time>
      </trkpt>
      <trkpt lat="47.428225027397275" lon="9.51653097756207">
        <ele>951.36000000000001</ele>
        <time>2018-09-18T12:39:57Z</time>
      </trkpt>
      <trkpt lat="47.428286969661713" lon="9.517102036625147">
        <ele>950.88</ele>
        <time>2018-09-18T12:40:00Z</time>
      </trkpt>
      <trkpt lat="47.428293004631996" lon="9.517270009964705">
        <ele>950.39999999999998</ele>
        <time>2018-09-18T12:40:01Z</time>
      </trkpt>
      <trkpt lat="47.428267020732164" lon="9.517415016889572">
        <ele>949.91999999999996</ele>
        <time>2018-09-18T12:40:02Z</time>
      </trkpt>
      <trkpt lat="47.428221004083753" lon="9.517538985237479">
        <ele>949.91999999999996</ele>
        <time>2018-09-18T12:40:03Z</time>
      </trkpt>
      <trkpt lat="47.428163001313806" lon="9.517654990777373">
        <ele>949.44000000000005</ele>
        <time>2018-09-18T12:40:04Z</time>
      </trkpt>
      <trkpt lat="47.428100975230336" lon="9.517772002145648">
        <ele>949.44000000000005</ele>
        <time>2018-09-18T12:40:05Z</time>
      </trkpt>
      <trkpt lat="47.428011037409306" lon="9.51786202378571">
        <ele>949.44000000000005</ele>
        <time>2018-09-18T12:40:06Z</time>
      </trkpt>
      <trkpt lat="47.427541986107826" lon="9.518441967666149">
        <ele>948.96000000000004</ele>
        <time>2018-09-18T12:40:11Z</time>
      </trkpt>
      <trkpt lat="47.42748599499464" lon="9.518606001511216">
        <ele>948.96000000000004</ele>
        <time>2018-09-18T12:40:12Z</time>
      </trkpt>
      <trkpt lat="47.427450036630034" lon="9.518803982064128">
        <ele>948.96000000000004</ele>
        <time>2018-09-18T12:40:13Z</time>
      </trkpt>
      <trkpt lat="47.42718500085175" lon="9.520498970523477">
        <ele>949.91999999999996</ele>
        <time>2018-09-18T12:40:21Z</time>
      </trkpt>
      <trkpt lat="47.427234034985304" lon="9.520645989105105">
        <ele>949.91999999999996</ele>
        <time>2018-09-18T12:40:22Z</time>
      </trkpt>
      <trkpt lat="47.427286002784967" lon="9.520761994645">
        <ele>949.44000000000005</ele>
        <time>2018-09-18T12:40:23Z</time>
      </trkpt>
      <trkpt lat="47.427369989454746" lon="9.520846987143159">
        <ele>949.44000000000005</ele>
        <time>2018-09-18T12:40:24Z</time>
      </trkpt>
      <trkpt lat="47.427468979731202" lon="9.520945977419615">
        <ele>948.96000000000004</ele>
        <time>2018-09-18T12:40:25Z</time>
      </trkpt>
      <trkpt lat="47.427577022463083" lon="9.521054020151496">
        <ele>948.96000000000004</ele>
        <time>2018-09-18T12:40:26Z</time>
      </trkpt>
      <trkpt lat="47.427683975547552" lon="9.521160973235965">
        <ele>948.48000000000002</ele>
        <time>2018-09-18T12:40:27Z</time>
      </trkpt>
      <trkpt lat="47.427781037986279" lon="9.521258035674691">
        <ele>948.48000000000002</ele>
        <time>2018-09-18T12:40:28Z</time>
      </trkpt>
      <trkpt lat="47.427870975807309" lon="9.521347973495722">
        <ele>948</ele>
        <time>2018-09-18T12:40:29Z</time>
      </trkpt>
      <trkpt lat="47.427912969142199" lon="9.521470014005899">
        <ele>947.51999999999998</ele>
        <time>2018-09-18T12:40:30Z</time>
      </trkpt>
      <trkpt lat="47.427944988012314" lon="9.521629018709064">
        <ele>947.03999999999996</ele>
        <time>2018-09-18T12:40:31Z</time>
      </trkpt>
      <trkpt lat="47.42797901853919" lon="9.521799003705382">
        <ele>946.07000000000005</ele>
        <time>2018-09-18T12:40:32Z</time>
      </trkpt>
      <trkpt lat="47.427964014932513" lon="9.521990027278662">
        <ele>945.11000000000001</ele>
        <time>2018-09-18T12:40:33Z</time>
      </trkpt>
      <trkpt lat="47.427946999669075" lon="9.522197982296348">
        <ele>944.14999999999998</ele>
        <time>2018-09-18T12:40:34Z</time>
      </trkpt>
      <trkpt lat="47.427784977480769" lon="9.524106038734317">
        <ele>940.30999999999995</ele>
        <time>2018-09-18T12:40:42Z</time>
      </trkpt>
      <trkpt lat="47.427706019952893" lon="9.52503802254796">
        <ele>938.38</ele>
        <time>2018-09-18T12:40:47Z</time>
      </trkpt>
      <trkpt lat="47.42765698581934" lon="9.525168025866151">
        <ele>937.89999999999998</ele>
        <time>2018-09-18T12:40:48Z</time>
      </trkpt>
      <trkpt lat="47.427576016634703" lon="9.525257041677833">
        <ele>937.89999999999998</ele>
        <time>2018-09-18T12:40:49Z</time>
      </trkpt>
      <trkpt lat="47.427492029964924" lon="9.525347985327244">
        <ele>937.89999999999998</ele>
        <time>2018-09-18T12:40:50Z</time>
      </trkpt>
      <trkpt lat="47.427397985011339" lon="9.525439012795687">
        <ele>937.41999999999996</ele>
        <time>2018-09-18T12:40:51Z</time>
      </trkpt>
      <trkpt lat="47.427286002784967" lon="9.525504978373647">
        <ele>937.41999999999996</ele>
        <time>2018-09-18T12:40:52Z</time>
      </trkpt>
      <trkpt lat="47.426851987838745" lon="9.525762973353267">
        <ele>937.41999999999996</ele>
        <time>2018-09-18T12:40:56Z</time>
      </trkpt>
      <trkpt lat="47.426791973412037" lon="9.525867998600006">
        <ele>936.94000000000005</ele>
        <time>2018-09-18T12:40:57Z</time>
      </trkpt>
      <trkpt lat="47.426763977855444" lon="9.525989033281803">
        <ele>936.46000000000004</ele>
        <time>2018-09-18T12:40:58Z</time>
      </trkpt>
      <trkpt lat="47.426763977855444" lon="9.526121970266104">
        <ele>936.46000000000004</ele>
        <time>2018-09-18T12:40:59Z</time>
      </trkpt>
      <trkpt lat="47.426785016432405" lon="9.526257002726197">
        <ele>936.46000000000004</ele>
        <time>2018-09-18T12:41:00Z</time>
      </trkpt>
      <trkpt lat="47.42684100754559" lon="9.526381976902485">
        <ele>936.46000000000004</ele>
        <time>2018-09-18T12:41:01Z</time>
      </trkpt>
      <trkpt lat="47.426904961466789" lon="9.52652296051383">
        <ele>936.46000000000004</ele>
        <time>2018-09-18T12:41:02Z</time>
      </trkpt>
      <trkpt lat="47.426974028348923" lon="9.526680959388614">
        <ele>935.98000000000002</ele>
        <time>2018-09-18T12:41:03Z</time>
      </trkpt>
      <trkpt lat="47.427107971161604" lon="9.527044985443354">
        <ele>935.98000000000002</ele>
        <time>2018-09-18T12:41:05Z</time>
      </trkpt>
      <trkpt lat="47.4275709874928" lon="9.528687000274658">
        <ele>935.5</ele>
        <time>2018-09-18T12:41:12Z</time>
      </trkpt>
      <trkpt lat="47.427672995254397" lon="9.528908031061292">
        <ele>935.5</ele>
        <time>2018-09-18T12:41:13Z</time>
      </trkpt>
      <trkpt lat="47.42890496738255" lon="9.531298968940973">
        <ele>933.58000000000004</ele>
        <time>2018-09-18T12:41:24Z</time>
      </trkpt>
      <trkpt lat="47.429188024252653" lon="9.531894000247121">
        <ele>933.58000000000004</ele>
        <time>2018-09-18T12:41:27Z</time>
      </trkpt>
      <trkpt lat="47.429266981780529" lon="9.532083012163639">
        <ele>933.58000000000004</ele>
        <time>2018-09-18T12:41:28Z</time>
      </trkpt>
      <trkpt lat="47.429318027570844" lon="9.532272024080157">
        <ele>933.10000000000002</ele>
        <time>2018-09-18T12:41:29Z</time>
      </trkpt>
      <trkpt lat="47.429336970672011" lon="9.532453995198011">
        <ele>933.10000000000002</ele>
        <time>2018-09-18T12:41:30Z</time>
      </trkpt>
      <trkpt lat="47.429351974278688" lon="9.532599002122879">
        <ele>933.10000000000002</ele>
        <time>2018-09-18T12:41:31Z</time>
      </trkpt>
      <trkpt lat="47.429364966228604" lon="9.532720036804676">
        <ele>932.62</ele>
        <time>2018-09-18T12:41:32Z</time>
      </trkpt>
      <trkpt lat="47.429365972056985" lon="9.53283503651619">
        <ele>932.62</ele>
        <time>2018-09-18T12:41:33Z</time>
      </trkpt>
      <trkpt lat="47.429345017299056" lon="9.532913994044066">
        <ele>932.62</ele>
        <time>2018-09-18T12:41:34Z</time>
      </trkpt>
      <trkpt lat="47.429326996207237" lon="9.532979959622026">
        <ele>932.62</ele>
        <time>2018-09-18T12:41:35Z</time>
      </trkpt>
      <trkpt lat="47.42931098677218" lon="9.533037962391973">
        <ele>932.62</ele>
        <time>2018-09-18T12:41:36Z</time>
      </trkpt>
      <trkpt lat="47.429308975115418" lon="9.533042991533876">
        <ele>932.62</ele>
        <time>2018-09-18T12:41:37Z</time>
      </trkpt>
      <trkpt lat="47.429308975115418" lon="9.533042991533876">
        <ele>933.10000000000002</ele>
        <time>2018-09-18T12:41:38Z</time>
      </trkpt>
      <trkpt lat="47.429271005094051" lon="9.533219011500478">
        <ele>933.10000000000002</ele>
        <time>2018-09-18T12:41:39Z</time>
      </trkpt>
      <trkpt lat="47.429302018135786" lon="9.533229991793633">
        <ele>933.10000000000002</ele>
        <time>2018-09-18T12:41:40Z</time>
      </trkpt>
      <trkpt lat="47.429347028955817" lon="9.533247007057071">
        <ele>933.10000000000002</ele>
        <time>2018-09-18T12:41:41Z</time>
      </trkpt>
      <trkpt lat="47.429408971220255" lon="9.533269973471761">
        <ele>932.62</ele>
        <time>2018-09-18T12:41:42Z</time>
      </trkpt>
      <trkpt lat="47.430053036659956" lon="9.533625030890107">
        <ele>930.21000000000004</ele>
        <time>2018-09-18T12:41:50Z</time>
      </trkpt>
      <trkpt lat="47.430102992802858" lon="9.533665012568235">
        <ele>929.73000000000002</ele>
        <time>2018-09-18T12:41:51Z</time>
      </trkpt>
      <trkpt lat="47.43017097003758" lon="9.533745981752873">
        <ele>929.73000000000002</ele>
        <time>2018-09-18T12:41:52Z</time>
      </trkpt>
      <trkpt lat="47.430646978318691" lon="9.534311005845666">
        <ele>930.21000000000004</ele>
        <time>2018-09-18T12:42:01Z</time>
      </trkpt>
      <trkpt lat="47.430904973298311" lon="9.534559026360512">
        <ele>928.28999999999996</ele>
        <time>2018-09-18T12:42:05Z</time>
      </trkpt>
      <trkpt lat="47.430950989946723" lon="9.534590961411595">
        <ele>927.33000000000004</ele>
        <time>2018-09-18T12:42:06Z</time>
      </trkpt>
      <trkpt lat="47.430984014645219" lon="9.534614011645317">
        <ele>926.37</ele>
        <time>2018-09-18T12:42:07Z</time>
      </trkpt>
      <trkpt lat="47.431005975231528" lon="9.534629015251994">
        <ele>925.40999999999997</ele>
        <time>2018-09-18T12:42:08Z</time>
      </trkpt>
      <trkpt lat="47.431005975231528" lon="9.534629015251994">
        <ele>924.45000000000005</ele>
        <time>2018-09-18T12:42:19Z</time>
      </trkpt>
      <trkpt lat="47.431005975231528" lon="9.534629015251994">
        <ele>923.96000000000004</ele>
        <time>2018-09-18T12:42:51Z</time>
      </trkpt>
      <trkpt lat="47.431151987984776" lon="9.534730017185211">
        <ele>923</ele>
        <time>2018-09-18T12:43:24Z</time>
      </trkpt>
      <trkpt lat="47.431909963488579" lon="9.535160008817911">
        <ele>916.75</ele>
        <time>2018-09-18T12:43:31Z</time>
      </trkpt>
      <trkpt lat="47.4328120239079" lon="9.535177024081349">
        <ele>906.65999999999997</ele>
        <time>2018-09-18T12:43:38Z</time>
      </trkpt>
      <trkpt lat="47.433032970875502" lon="9.535142993554473">
        <ele>901.37</ele>
        <time>2018-09-18T12:43:42Z</time>
      </trkpt>
      <trkpt lat="47.433083010837436" lon="9.535131007432938">
        <ele>900.40999999999997</ele>
        <time>2018-09-18T12:43:43Z</time>
      </trkpt>
      <trkpt lat="47.433141013607383" lon="9.535117009654641">
        <ele>898.97000000000003</ele>
        <time>2018-09-18T12:43:44Z</time>
      </trkpt>
      <trkpt lat="47.433392973616719" lon="9.535056995227933">
        <ele>893.67999999999995</ele>
        <time>2018-09-18T12:43:48Z</time>
      </trkpt>
      <trkpt lat="47.433450976386666" lon="9.535042997449637">
        <ele>892.72000000000003</ele>
        <time>2018-09-18T12:43:49Z</time>
      </trkpt>
      <trkpt lat="47.433505961671472" lon="9.535030005499721">
        <ele>891.27999999999997</ele>
        <time>2018-09-18T12:43:50Z</time>
      </trkpt>
      <trkpt lat="47.433558013290167" lon="9.535017013549805">
        <ele>890.32000000000005</ele>
        <time>2018-09-18T12:43:51Z</time>
      </trkpt>
      <trkpt lat="47.433597994968295" lon="9.534966973587871">
        <ele>889.36000000000001</ele>
        <time>2018-09-18T12:43:52Z</time>
      </trkpt>
      <trkpt lat="47.433641999959946" lon="9.534911988303065">
        <ele>887.90999999999997</ele>
        <time>2018-09-18T12:43:53Z</time>
      </trkpt>
      <trkpt lat="47.433668989688158" lon="9.534853985533118">
        <ele>886.95000000000005</ele>
        <time>2018-09-18T12:43:54Z</time>
      </trkpt>
      <trkpt lat="47.43369597941637" lon="9.534791959449649">
        <ele>885.99000000000001</ele>
        <time>2018-09-18T12:43:55Z</time>
      </trkpt>
      <trkpt lat="47.433730009943247" lon="9.534717025235295">
        <ele>885.50999999999999</ele>
        <time>2018-09-18T12:43:56Z</time>
      </trkpt>
      <trkpt lat="47.433736966922879" lon="9.534637983888388">
        <ele>884.54999999999995</ele>
        <time>2018-09-18T12:43:57Z</time>
      </trkpt>
      <trkpt lat="47.433746019378304" lon="9.534541005268693">
        <ele>883.59000000000003</ele>
        <time>2018-09-18T12:43:58Z</time>
      </trkpt>
      <trkpt lat="47.433745013549924" lon="9.534431034699082">
        <ele>882.63</ele>
        <time>2018-09-18T12:43:59Z</time>
      </trkpt>
      <trkpt lat="47.433731015771627" lon="9.534325003623962">
        <ele>882.14999999999998</ele>
        <time>2018-09-18T12:44:00Z</time>
      </trkpt>
      <trkpt lat="47.433717017993331" lon="9.534215033054352">
        <ele>881.19000000000005</ele>
        <time>2018-09-18T12:44:01Z</time>
      </trkpt>
      <trkpt lat="47.43369203992188" lon="9.53401898033917">
        <ele>879.25999999999999</ele>
        <time>2018-09-18T12:44:03Z</time>
      </trkpt>
      <trkpt lat="47.433679969981313" lon="9.533928958699107">
        <ele>878.29999999999995</ele>
        <time>2018-09-18T12:44:04Z</time>
      </trkpt>
      <trkpt lat="47.433669995516539" lon="9.533852012827992">
        <ele>877.34000000000003</ele>
        <time>2018-09-18T12:44:05Z</time>
      </trkpt>
      <trkpt lat="47.433679969981313" lon="9.533808007836342">
        <ele>876.38</ele>
        <time>2018-09-18T12:44:06Z</time>
      </trkpt>
      <trkpt lat="47.433729004114866" lon="9.533784035593271">
        <ele>875.41999999999996</ele>
        <time>2018-09-18T12:44:07Z</time>
      </trkpt>
      <trkpt lat="47.433782983571291" lon="9.533756962046027">
        <ele>874.46000000000004</ele>
        <time>2018-09-18T12:44:08Z</time>
      </trkpt>
      <trkpt lat="47.433851966634393" lon="9.533770959824324">
        <ele>873.5</ele>
        <time>2018-09-18T12:44:09Z</time>
      </trkpt>
      <trkpt lat="47.433879962190986" lon="9.53384798951447">
        <ele>872.52999999999997</ele>
        <time>2018-09-18T12:44:10Z</time>
      </trkpt>
      <trkpt lat="47.433911981061101" lon="9.533934993669391">
        <ele>871.57000000000005</ele>
        <time>2018-09-18T12:44:11Z</time>
      </trkpt>
      <trkpt lat="47.43395104072988" lon="9.534041024744511">
        <ele>870.61000000000001</ele>
        <time>2018-09-18T12:44:12Z</time>
      </trkpt>
      <trkpt lat="47.433994961902499" lon="9.534162981435657">
        <ele>869.16999999999996</ele>
        <time>2018-09-18T12:44:13Z</time>
      </trkpt>
      <trkpt lat="47.434042990207672" lon="9.534294996410608">
        <ele>867.73000000000002</ele>
        <time>2018-09-18T12:44:14Z</time>
      </trkpt>
      <trkpt lat="47.434499971568584" lon="9.53554498963058">
        <ele>855.23000000000002</ele>
        <time>2018-09-18T12:44:22Z</time>
      </trkpt>
      <trkpt lat="47.434652019292116" lon="9.535960983484983">
        <ele>850.41999999999996</ele>
        <time>2018-09-18T12:44:26Z</time>
      </trkpt>
      <trkpt lat="47.434652019292116" lon="9.536061985418201">
        <ele>849.46000000000004</ele>
        <time>2018-09-18T12:44:27Z</time>
      </trkpt>
      <trkpt lat="47.434652019292116" lon="9.536111019551754">
        <ele>848.5</ele>
        <time>2018-09-18T12:44:28Z</time>
      </trkpt>
      <trkpt lat="47.434612037613988" lon="9.536186959594488">
        <ele>847.53999999999996</ele>
        <time>2018-09-18T12:44:29Z</time>
      </trkpt>
      <trkpt lat="47.434579012915492" lon="9.536246974021196">
        <ele>846.58000000000004</ele>
        <time>2018-09-18T12:44:30Z</time>
      </trkpt>
      <trkpt lat="47.434547999873757" lon="9.536305982619524">
        <ele>845.62</ele>
        <time>2018-09-18T12:44:31Z</time>
      </trkpt>
      <trkpt lat="47.434516986832023" lon="9.536362979561091">
        <ele>844.65999999999997</ele>
        <time>2018-09-18T12:44:32Z</time>
      </trkpt>
      <trkpt lat="47.434501983225346" lon="9.536389969289303">
        <ele>843.69000000000005</ele>
        <time>2018-09-18T12:44:33Z</time>
      </trkpt>
      <trkpt lat="47.434484967961907" lon="9.536507986485958">
        <ele>842.73000000000002</ele>
        <time>2018-09-18T12:44:34Z</time>
      </trkpt>
      <trkpt lat="47.434481028467417" lon="9.536589039489627">
        <ele>841.76999999999998</ele>
        <time>2018-09-18T12:44:35Z</time>
      </trkpt>
      <trkpt lat="47.434481028467417" lon="9.536671014502645">
        <ele>841.28999999999996</ele>
        <time>2018-09-18T12:44:36Z</time>
      </trkpt>
      <trkpt lat="47.434481028467417" lon="9.536745026707649">
        <ele>840.80999999999995</ele>
        <time>2018-09-18T12:44:37Z</time>
      </trkpt>
      <trkpt lat="47.434517992660403" lon="9.536831025034189">
        <ele>840.33000000000004</ele>
        <time>2018-09-18T12:44:38Z</time>
      </trkpt>
      <trkpt lat="47.434569960460067" lon="9.53687603585422">
        <ele>839.85000000000002</ele>
        <time>2018-09-18T12:44:39Z</time>
      </trkpt>
      <trkpt lat="47.434626035392284" lon="9.536924986168742">
        <ele>839.37</ele>
        <time>2018-09-18T12:44:40Z</time>
      </trkpt>
      <trkpt lat="47.434696024283767" lon="9.536935966461897">
        <ele>838.88999999999999</ele>
        <time>2018-09-18T12:44:41Z</time>
      </trkpt>
      <trkpt lat="47.434758972376585" lon="9.53691802918911">
        <ele>838.40999999999997</ele>
        <time>2018-09-18T12:44:42Z</time>
      </trkpt>
      <trkpt lat="47.434827033430338" lon="9.536877041682601">
        <ele>838.40999999999997</ele>
        <time>2018-09-18T12:44:43Z</time>
      </trkpt>
      <trkpt lat="47.434889981523156" lon="9.536803029477596">
        <ele>837.45000000000005</ele>
        <time>2018-09-18T12:44:44Z</time>
      </trkpt>
      <trkpt lat="47.434963993728161" lon="9.536715019494295">
        <ele>836.96000000000004</ele>
        <time>2018-09-18T12:44:45Z</time>
      </trkpt>
      <trkpt lat="47.435045968741179" lon="9.536618962883949">
        <ele>836</ele>
        <time>2018-09-18T12:44:46Z</time>
      </trkpt>
      <trkpt lat="47.435125010088086" lon="9.536526007577777">
        <ele>835.03999999999996</ele>
        <time>2018-09-18T12:44:47Z</time>
      </trkpt>
      <trkpt lat="47.43560504168272" lon="9.535582037642598">
        <ele>822.54999999999995</ele>
        <time>2018-09-18T12:44:54Z</time>
      </trkpt>
      <trkpt lat="47.43581903167069" lon="9.53470503911376">
        <ele>810.52999999999997</ele>
        <time>2018-09-18T12:45:00Z</time>
      </trkpt>
      <trkpt lat="47.435915004462004" lon="9.534240011125803">
        <ele>804.27999999999997</ele>
        <time>2018-09-18T12:45:04Z</time>
      </trkpt>
      <trkpt lat="47.43594903498888" lon="9.534173039719462">
        <ele>803.32000000000005</ele>
        <time>2018-09-18T12:45:05Z</time>
      </trkpt>
      <trkpt lat="47.435982981696725" lon="9.534115958958864">
        <ele>801.88</ele>
        <time>2018-09-18T12:45:06Z</time>
      </trkpt>
      <trkpt lat="47.436046013608575" lon="9.534112019464374">
        <ele>800.91999999999996</ele>
        <time>2018-09-18T12:45:07Z</time>
      </trkpt>
      <trkpt lat="47.436108039692044" lon="9.534107996150851">
        <ele>799.95000000000005</ele>
        <time>2018-09-18T12:45:08Z</time>
      </trkpt>
      <trkpt lat="47.43616595864296" lon="9.53410497866571">
        <ele>798.50999999999999</ele>
        <time>2018-09-18T12:45:09Z</time>
      </trkpt>
      <trkpt lat="47.436223039403558" lon="9.534101039171219">
        <ele>797.54999999999995</ele>
        <time>2018-09-18T12:45:10Z</time>
      </trkpt>
      <trkpt lat="47.436279030516744" lon="9.534097015857697">
        <ele>796.59000000000003</ele>
        <time>2018-09-18T12:45:11Z</time>
      </trkpt>
      <trkpt lat="47.436325969174504" lon="9.534093998372555">
        <ele>796.11000000000001</ele>
        <time>2018-09-18T12:45:12Z</time>
      </trkpt>
      <trkpt lat="47.436377014964819" lon="9.534122999757528">
        <ele>794.66999999999996</ele>
        <time>2018-09-18T12:45:13Z</time>
      </trkpt>
      <trkpt lat="47.436405010521412" lon="9.534139009192586">
        <ele>794.19000000000005</ele>
        <time>2018-09-18T12:45:14Z</time>
      </trkpt>
      <trkpt lat="47.43642101995647" lon="9.53414797782898">
        <ele>793.22000000000003</ele>
        <time>2018-09-18T12:45:15Z</time>
      </trkpt>
      <trkpt lat="47.436436023563147" lon="9.534157030284405">
        <ele>792.25999999999999</ele>
        <time>2018-09-18T12:45:16Z</time>
      </trkpt>
      <trkpt lat="47.436477011069655" lon="9.53419097699225">
        <ele>791.77999999999997</ele>
        <time>2018-09-18T12:45:17Z</time>
      </trkpt>
      <trkpt lat="47.436481034383178" lon="9.534245962277055">
        <ele>790.82000000000005</ele>
        <time>2018-09-18T12:45:18Z</time>
      </trkpt>
      <trkpt lat="47.436485979706049" lon="9.534310000017285">
        <ele>790.34000000000003</ele>
        <time>2018-09-18T12:45:19Z</time>
      </trkpt>
      <trkpt lat="47.436491008847952" lon="9.534385018050671">
        <ele>789.86000000000001</ele>
        <time>2018-09-18T12:45:20Z</time>
      </trkpt>
      <trkpt lat="47.436470976099372" lon="9.534507980570197">
        <ele>789.38</ele>
        <time>2018-09-18T12:45:21Z</time>
      </trkpt>
      <trkpt lat="47.436418002471328" lon="9.534560032188892">
        <ele>788.89999999999998</ele>
        <time>2018-09-18T12:45:22Z</time>
      </trkpt>
      <trkpt lat="47.436346001923084" lon="9.534633960574865">
        <ele>788.89999999999998</ele>
        <time>2018-09-18T12:45:23Z</time>
      </trkpt>
      <trkpt lat="47.436306020244956" lon="9.53474803827703">
        <ele>788.89999999999998</ele>
        <time>2018-09-18T12:45:24Z</time>
      </trkpt>
      <trkpt lat="47.436261009424925" lon="9.534873012453318">
        <ele>789.86000000000001</ele>
        <time>2018-09-18T12:45:25Z</time>
      </trkpt>
      <trkpt lat="47.435940988361835" lon="9.536113031208515">
        <ele>797.07000000000005</ele>
        <time>2018-09-18T12:45:32Z</time>
      </trkpt>
      <trkpt lat="47.435706965625286" lon="9.537125984206796">
        <ele>804.75999999999999</ele>
        <time>2018-09-18T12:45:37Z</time>
      </trkpt>
      <trkpt lat="47.435638988390565" lon="9.537280965596438">
        <ele>806.20000000000005</ele>
        <time>2018-09-18T12:45:38Z</time>
      </trkpt>
      <trkpt lat="47.435553995892406" lon="9.537463020533323">
        <ele>807.63999999999999</ele>
        <time>2018-09-18T12:45:39Z</time>
      </trkpt>
      <trkpt lat="47.435474032536149" lon="9.537528986111283">
        <ele>808.61000000000001</ele>
        <time>2018-09-18T12:45:40Z</time>
      </trkpt>
      <trkpt lat="47.435342017561197" lon="9.537584977224469">
        <ele>810.04999999999995</ele>
        <time>2018-09-18T12:45:41Z</time>
      </trkpt>
      <trkpt lat="47.435202039778233" lon="9.537609033286572">
        <ele>811.00999999999999</ele>
        <time>2018-09-18T12:45:42Z</time>
      </trkpt>
      <trkpt lat="47.434544982388616" lon="9.537721015512943">
        <ele>815.82000000000005</ele>
        <time>2018-09-18T12:45:46Z</time>
      </trkpt>
      <trkpt lat="47.434378014877439" lon="9.537817994132638">
        <ele>817.25999999999999</ele>
        <time>2018-09-18T12:45:47Z</time>
      </trkpt>
      <trkpt lat="47.433298006653786" lon="9.538432974368334">
        <ele>826.87</ele>
        <time>2018-09-18T12:45:53Z</time>
      </trkpt>
      <trkpt lat="47.433121986687183" lon="9.53846599906683">
        <ele>828.30999999999995</ele>
        <time>2018-09-18T12:45:54Z</time>
      </trkpt>
      <trkpt lat="47.432940015569329" lon="9.5384899713099">
        <ele>829.75999999999999</ele>
        <time>2018-09-18T12:45:55Z</time>
      </trkpt>
      <trkpt lat="47.431477960199118" lon="9.538346976041794">
        <ele>842.25</ele>
        <time>2018-09-18T12:46:03Z</time>
      </trkpt>
      <trkpt lat="47.431334964931011" lon="9.538312023505569">
        <ele>843.69000000000005</ele>
        <time>2018-09-18T12:46:04Z</time>
      </trkpt>
      <trkpt lat="47.431210996583104" lon="9.53827204182744">
        <ele>845.13999999999999</ele>
        <time>2018-09-18T12:46:05Z</time>
      </trkpt>
      <trkpt lat="47.431098008528352" lon="9.538235999643803">
        <ele>846.10000000000002</ele>
        <time>2018-09-18T12:46:06Z</time>
      </trkpt>
      <trkpt lat="47.430991977453232" lon="9.538201969116926">
        <ele>847.05999999999995</ele>
        <time>2018-09-18T12:46:07Z</time>
      </trkpt>
      <trkpt lat="47.430876977741718" lon="9.53818797133863">
        <ele>848.01999999999998</ele>
        <time>2018-09-18T12:46:08Z</time>
      </trkpt>
      <trkpt lat="47.430784022435546" lon="9.538269024342299">
        <ele>848.5</ele>
        <time>2018-09-18T12:46:09Z</time>
      </trkpt>
      <trkpt lat="47.430714033544064" lon="9.538389975205064">
        <ele>849.46000000000004</ele>
        <time>2018-09-18T12:46:10Z</time>
      </trkpt>
      <trkpt lat="47.430661981925368" lon="9.538534982129931">
        <ele>849.94000000000005</ele>
        <time>2018-09-18T12:46:11Z</time>
      </trkpt>
      <trkpt lat="47.430653013288975" lon="9.538700021803379">
        <ele>850.89999999999998</ele>
        <time>2018-09-18T12:46:12Z</time>
      </trkpt>
      <trkpt lat="47.430643960833549" lon="9.538890039548278">
        <ele>851.38</ele>
        <time>2018-09-18T12:46:13Z</time>
      </trkpt>
      <trkpt lat="47.430652007460594" lon="9.539097994565964">
        <ele>852.35000000000002</ele>
        <time>2018-09-18T12:46:14Z</time>
      </trkpt>
      <trkpt lat="47.430850993841887" lon="9.541157009080052">
        <ele>860.51999999999998</ele>
        <time>2018-09-18T12:46:22Z</time>
      </trkpt>
      <trkpt lat="47.430822998285294" lon="9.543104963377118">
        <ele>867.25</ele>
        <time>2018-09-18T12:46:30Z</time>
      </trkpt>
      <trkpt lat="47.430807994678617" lon="9.543330017477274">
        <ele>867.73000000000002</ele>
        <time>2018-09-18T12:46:31Z</time>
      </trkpt>
      <trkpt lat="47.430732976645231" lon="9.543526992201805">
        <ele>868.69000000000005</ele>
        <time>2018-09-18T12:46:32Z</time>
      </trkpt>
      <trkpt lat="47.430625017732382" lon="9.54370703548193">
        <ele>869.16999999999996</ele>
        <time>2018-09-18T12:46:33Z</time>
      </trkpt>
      <trkpt lat="47.430503983050585" lon="9.543869979679585">
        <ele>870.13</ele>
        <time>2018-09-18T12:46:34Z</time>
      </trkpt>
      <trkpt lat="47.430379008874297" lon="9.544038958847523">
        <ele>871.09000000000003</ele>
        <time>2018-09-18T12:46:35Z</time>
      </trkpt>
      <trkpt lat="47.430246993899345" lon="9.544201986864209">
        <ele>872.04999999999995</ele>
        <time>2018-09-18T12:46:36Z</time>
      </trkpt>
      <trkpt lat="47.430090000852942" lon="9.544327966868877">
        <ele>873.00999999999999</ele>
        <time>2018-09-18T12:46:37Z</time>
      </trkpt>
      <trkpt lat="47.429926972836256" lon="9.544457970187068">
        <ele>873.98000000000002</ele>
        <time>2018-09-18T12:46:38Z</time>
      </trkpt>
      <trkpt lat="47.42961298674345" lon="9.544709008187056">
        <ele>875.89999999999998</ele>
        <time>2018-09-18T12:46:40Z</time>
      </trkpt>
      <trkpt lat="47.429470997303724" lon="9.544862983748317">
        <ele>876.38</ele>
        <time>2018-09-18T12:46:41Z</time>
      </trkpt>
      <trkpt lat="47.429349040612578" lon="9.545056018978357">
        <ele>877.34000000000003</ele>
        <time>2018-09-18T12:46:42Z</time>
      </trkpt>
      <trkpt lat="47.428143974393606" lon="9.546913029626012">
        <ele>885.02999999999997</ele>
        <time>2018-09-18T12:46:52Z</time>
      </trkpt>
      <trkpt lat="47.426877971738577" lon="9.548465022817254">
        <ele>890.32000000000005</ele>
        <time>2018-09-18T12:47:02Z</time>
      </trkpt>
      <trkpt lat="47.426756015047431" lon="9.548599971458316">
        <ele>891.27999999999997</ele>
        <time>2018-09-18T12:47:03Z</time>
      </trkpt>
      <trkpt lat="47.426659036427736" lon="9.548654034733772">
        <ele>891.75999999999999</ele>
        <time>2018-09-18T12:47:04Z</time>
      </trkpt>
      <trkpt lat="47.426544958725572" lon="9.548712037503719">
        <ele>892.24000000000001</ele>
        <time>2018-09-18T12:47:05Z</time>
      </trkpt>
      <trkpt lat="47.426424007862806" lon="9.548743972554803">
        <ele>892.72000000000003</ele>
        <time>2018-09-18T12:47:06Z</time>
      </trkpt>
      <trkpt lat="47.425351962447166" lon="9.549038009718061">
        <ele>894.15999999999997</ele>
        <time>2018-09-18T12:47:14Z</time>
      </trkpt>
      <trkpt lat="47.424046983942389" lon="9.549428019672632">
        <ele>887.42999999999995</ele>
        <time>2018-09-18T12:47:25Z</time>
      </trkpt>
      <trkpt lat="47.42299597710371" lon="9.549723984673619">
        <ele>880.71000000000004</ele>
        <time>2018-09-18T12:47:34Z</time>
      </trkpt>
      <trkpt lat="47.42290897294879" lon="9.549786010757089">
        <ele>880.22000000000003</ele>
        <time>2018-09-18T12:47:35Z</time>
      </trkpt>
      <trkpt lat="47.422836972400546" lon="9.549858011305332">
        <ele>879.25999999999999</ele>
        <time>2018-09-18T12:47:36Z</time>
      </trkpt>
      <trkpt lat="47.42280101403594" lon="9.549962030723691">
        <ele>878.77999999999997</ele>
        <time>2018-09-18T12:47:37Z</time>
      </trkpt>
      <trkpt lat="47.422765977680683" lon="9.550084993243218">
        <ele>878.29999999999995</ele>
        <time>2018-09-18T12:47:38Z</time>
      </trkpt>
      <trkpt lat="47.422728007659316" lon="9.550214996561408">
        <ele>877.82000000000005</ele>
        <time>2018-09-18T12:47:39Z</time>
      </trkpt>
      <trkpt lat="47.422689031809568" lon="9.550351034849882">
        <ele>876.86000000000001</ele>
        <time>2018-09-18T12:47:40Z</time>
      </trkpt>
      <trkpt lat="47.422531032934785" lon="9.550900971516967">
        <ele>874.46000000000004</ele>
        <time>2018-09-18T12:47:44Z</time>
      </trkpt>
      <trkpt lat="47.422491973266006" lon="9.551032986491919">
        <ele>873.98000000000002</ele>
        <time>2018-09-18T12:47:45Z</time>
      </trkpt>
      <trkpt lat="47.42241402156651" lon="9.551298022270203">
        <ele>873.5</ele>
        <time>2018-09-18T12:47:47Z</time>
      </trkpt>
      <trkpt lat="47.422210006043315" lon="9.552064966410399">
        <ele>872.04999999999995</ele>
        <time>2018-09-18T12:47:53Z</time>
      </trkpt>
      <trkpt lat="47.422179998829961" lon="9.552184995263815">
        <ele>872.04999999999995</ele>
        <time>2018-09-18T12:47:54Z</time>
      </trkpt>
      <trkpt lat="47.422123001888394" lon="9.552702996879816">
        <ele>873.00999999999999</ele>
        <time>2018-09-18T12:47:58Z</time>
      </trkpt>
      <trkpt lat="47.422125013545156" lon="9.552825037389994">
        <ele>873.00999999999999</ele>
        <time>2018-09-18T12:47:59Z</time>
      </trkpt>
      <trkpt lat="47.422130964696407" lon="9.552957974374294">
        <ele>873.5</ele>
        <time>2018-09-18T12:48:00Z</time>
      </trkpt>
      <trkpt lat="47.422138005495071" lon="9.553087977692485">
        <ele>873.5</ele>
        <time>2018-09-18T12:48:01Z</time>
      </trkpt>
      <trkpt lat="47.422147979959846" lon="9.553199959918857">
        <ele>873.5</ele>
        <time>2018-09-18T12:48:02Z</time>
      </trkpt>
      <trkpt lat="47.422203971073031" lon="9.553287969902158">
        <ele>873.5</ele>
        <time>2018-09-18T12:48:03Z</time>
      </trkpt>
      <trkpt lat="47.422258034348488" lon="9.553372962400317">
        <ele>873.5</ele>
        <time>2018-09-18T12:48:04Z</time>
      </trkpt>
      <trkpt lat="47.422312013804913" lon="9.553442029282451">
        <ele>873.00999999999999</ele>
        <time>2018-09-18T12:48:05Z</time>
      </trkpt>
      <trkpt lat="47.422388037666678" lon="9.553498020395637">
        <ele>873.00999999999999</ele>
        <time>2018-09-18T12:48:06Z</time>
      </trkpt>
      <trkpt lat="47.422470012679696" lon="9.553558034822345">
        <ele>872.52999999999997</ele>
        <time>2018-09-18T12:48:07Z</time>
      </trkpt>
      <trkpt lat="47.422553999349475" lon="9.553619977086783">
        <ele>872.04999999999995</ele>
        <time>2018-09-18T12:48:08Z</time>
      </trkpt>
      <trkpt lat="47.423464022576809" lon="9.55402197316289">
        <ele>866.28999999999996</ele>
        <time>2018-09-18T12:48:17Z</time>
      </trkpt>
      <trkpt lat="47.424572026357055" lon="9.5545360352844">
        <ele>856.66999999999996</ele>
        <time>2018-09-18T12:48:28Z</time>
      </trkpt>
      <trkpt lat="47.425058009102941" lon="9.554843986406922">
        <ele>851.38</ele>
        <time>2018-09-18T12:48:33Z</time>
      </trkpt>
      <trkpt lat="47.425149958580732" lon="9.554942976683378">
        <ele>850.41999999999996</ele>
        <time>2018-09-18T12:48:34Z</time>
      </trkpt>
      <trkpt lat="47.425650022923946" lon="9.555619983002543">
        <ele>845.13999999999999</ele>
        <time>2018-09-18T12:48:40Z</time>
      </trkpt>
      <trkpt lat="47.425687992945313" lon="9.555759960785508">
        <ele>844.17999999999995</ele>
        <time>2018-09-18T12:48:41Z</time>
      </trkpt>
      <trkpt lat="47.425724035128951" lon="9.555921982973814">
        <ele>842.73000000000002</ele>
        <time>2018-09-18T12:48:42Z</time>
      </trkpt>
      <trkpt lat="47.425759993493557" lon="9.556087022647262">
        <ele>841.76999999999998</ele>
        <time>2018-09-18T12:48:43Z</time>
      </trkpt>
      <trkpt lat="47.425797041505575" lon="9.55625700764358">
        <ele>840.80999999999995</ele>
        <time>2018-09-18T12:48:44Z</time>
      </trkpt>
      <trkpt lat="47.425822019577026" lon="9.556423975154758">
        <ele>839.37</ele>
        <time>2018-09-18T12:48:45Z</time>
      </trkpt>
      <trkpt lat="47.425964009016752" lon="9.557922994717956">
        <ele>828.78999999999996</ele>
        <time>2018-09-18T12:48:54Z</time>
      </trkpt>
      <trkpt lat="47.425974989309907" lon="9.558215020224452">
        <ele>827.35000000000002</ele>
        <time>2018-09-18T12:48:56Z</time>
      </trkpt>
      <trkpt lat="47.425952022895217" lon="9.558344017714262">
        <ele>826.38999999999999</ele>
        <time>2018-09-18T12:48:57Z</time>
      </trkpt>
      <trkpt lat="47.425927966833115" lon="9.558474021032453">
        <ele>825.42999999999995</ele>
        <time>2018-09-18T12:48:58Z</time>
      </trkpt>
      <trkpt lat="47.425903994590044" lon="9.558607041835785">
        <ele>824.47000000000003</ele>
        <time>2018-09-18T12:48:59Z</time>
      </trkpt>
      <trkpt lat="47.425864012911916" lon="9.55874802544713">
        <ele>823.99000000000001</ele>
        <time>2018-09-18T12:49:00Z</time>
      </trkpt>
      <trkpt lat="47.425819002091885" lon="9.558891020715237">
        <ele>823.50999999999999</ele>
        <time>2018-09-18T12:49:01Z</time>
      </trkpt>
      <trkpt lat="47.425772985443473" lon="9.559036027640104">
        <ele>823.50999999999999</ele>
        <time>2018-09-18T12:49:02Z</time>
      </trkpt>
      <trkpt lat="47.425726968795061" lon="9.559182040393353">
        <ele>823.02999999999997</ele>
        <time>2018-09-18T12:49:03Z</time>
      </trkpt>
      <trkpt lat="47.425619009882212" lon="9.55967397429049">
        <ele>820.62</ele>
        <time>2018-09-18T12:49:07Z</time>
      </trkpt>
      <trkpt lat="47.425608029589057" lon="9.559788974002004">
        <ele>820.13999999999999</ele>
        <time>2018-09-18T12:49:08Z</time>
      </trkpt>
      <trkpt lat="47.425596965476871" lon="9.55990799702704">
        <ele>819.17999999999995</ele>
        <time>2018-09-18T12:49:09Z</time>
      </trkpt>
      <trkpt lat="47.425552038475871" lon="9.560255007818341">
        <ele>816.77999999999997</ele>
        <time>2018-09-18T12:49:12Z</time>
      </trkpt>
      <trkpt lat="47.425534017384052" lon="9.560349974781275">
        <ele>815.82000000000005</ele>
        <time>2018-09-18T12:49:13Z</time>
      </trkpt>
      <trkpt lat="47.425475008785725" lon="9.560416024178267">
        <ele>814.85000000000002</ele>
        <time>2018-09-18T12:49:14Z</time>
      </trkpt>
      <trkpt lat="47.425408959388733" lon="9.560433039441705">
        <ele>813.88999999999999</ele>
        <time>2018-09-18T12:49:15Z</time>
      </trkpt>
      <trkpt lat="47.425352968275547" lon="9.560418035835028">
        <ele>812.92999999999995</ele>
        <time>2018-09-18T12:49:16Z</time>
      </trkpt>
      <trkpt lat="47.425284991040826" lon="9.560344023630023">
        <ele>811.97000000000003</ele>
        <time>2018-09-18T12:49:17Z</time>
      </trkpt>
      <trkpt lat="47.425263030454516" lon="9.560232041403651">
        <ele>811.00999999999999</ele>
        <time>2018-09-18T12:49:18Z</time>
      </trkpt>
      <trkpt lat="47.425233023241162" lon="9.5600809995085">
        <ele>809.57000000000005</ele>
        <time>2018-09-18T12:49:19Z</time>
      </trkpt>
      <trkpt lat="47.425204021856189" lon="9.559905985370278">
        <ele>808.61000000000001</ele>
        <time>2018-09-18T12:49:20Z</time>
      </trkpt>
      <trkpt lat="47.425090027973056" lon="9.559061005711556">
        <ele>803.32000000000005</ele>
        <time>2018-09-18T12:49:25Z</time>
      </trkpt>
      <trkpt lat="47.425044011324644" lon="9.558933014050126">
        <ele>801.88</ele>
        <time>2018-09-18T12:49:26Z</time>
      </trkpt>
      <trkpt lat="47.424983996897936" lon="9.558883979916573">
        <ele>800.91999999999996</ele>
        <time>2018-09-18T12:49:27Z</time>
      </trkpt>
      <trkpt lat="47.42490503937006" lon="9.558831006288528">
        <ele>799.95000000000005</ele>
        <time>2018-09-18T12:49:28Z</time>
      </trkpt>
      <trkpt lat="47.424841001629829" lon="9.558794964104891">
        <ele>798.50999999999999</ele>
        <time>2018-09-18T12:49:29Z</time>
      </trkpt>
      <trkpt lat="47.424751985818148" lon="9.558854978531599">
        <ele>797.54999999999995</ele>
        <time>2018-09-18T12:49:30Z</time>
      </trkpt>
      <trkpt lat="47.424652995541692" lon="9.558921027928591">
        <ele>796.59000000000003</ele>
        <time>2018-09-18T12:49:31Z</time>
      </trkpt>
      <trkpt lat="47.424558028578758" lon="9.559032004326582">
        <ele>796.11000000000001</ele>
        <time>2018-09-18T12:49:32Z</time>
      </trkpt>
      <trkpt lat="47.423641970381141" lon="9.559959964826703">
        <ele>788.89999999999998</ele>
        <time>2018-09-18T12:49:39Z</time>
      </trkpt>
      <trkpt lat="47.423075018450618" lon="9.560503028333187">
        <ele>784.09000000000003</ele>
        <time>2018-09-18T12:49:43Z</time>
      </trkpt>
      <trkpt lat="47.42297301068902" lon="9.560680976137519">
        <ele>782.64999999999998</ele>
        <time>2018-09-18T12:49:44Z</time>
      </trkpt>
      <trkpt lat="47.422753991559148" lon="9.560988005250692">
        <ele>780.25</ele>
        <time>2018-09-18T12:49:46Z</time>
      </trkpt>
      <trkpt lat="47.422620970755816" lon="9.561115996912122">
        <ele>778.80999999999995</ele>
        <time>2018-09-18T12:49:47Z</time>
      </trkpt>
      <trkpt lat="47.422472024336457" lon="9.561186991631985">
        <ele>777.36000000000001</ele>
        <time>2018-09-18T12:49:48Z</time>
      </trkpt>
      <trkpt lat="47.422326011583209" lon="9.561255974695087">
        <ele>776.39999999999998</ele>
        <time>2018-09-18T12:49:49Z</time>
      </trkpt>
      <trkpt lat="47.422186033800244" lon="9.561344990506768">
        <ele>775.44000000000005</ele>
        <time>2018-09-18T12:49:50Z</time>
      </trkpt>
      <trkpt lat="47.422074973583221" lon="9.561481028795242">
        <ele>774.48000000000002</ele>
        <time>2018-09-18T12:49:51Z</time>
      </trkpt>
      <trkpt lat="47.421997021883726" lon="9.561637016013265">
        <ele>773.51999999999998</ele>
        <time>2018-09-18T12:49:52Z</time>
      </trkpt>
      <trkpt lat="47.421959973871708" lon="9.561830973252654">
        <ele>772.08000000000004</ele>
        <time>2018-09-18T12:49:53Z</time>
      </trkpt>
      <trkpt lat="47.421923009678721" lon="9.562039012089372">
        <ele>771.11000000000001</ele>
        <time>2018-09-18T12:49:54Z</time>
      </trkpt>
      <trkpt lat="47.421709019690752" lon="9.563177023082972">
        <ele>764.87</ele>
        <time>2018-09-18T12:49:59Z</time>
      </trkpt>
      <trkpt lat="47.421649005264044" lon="9.563340973109007">
        <ele>763.41999999999996</ele>
        <time>2018-09-18T12:50:00Z</time>
      </trkpt>
      <trkpt lat="47.42151103913784" lon="9.563521016389132">
        <ele>761.98000000000002</ele>
        <time>2018-09-18T12:50:01Z</time>
      </trkpt>
      <trkpt lat="47.421386986970901" lon="9.563683960586786">
        <ele>760.53999999999996</ele>
        <time>2018-09-18T12:50:02Z</time>
      </trkpt>
      <trkpt lat="47.421260001137853" lon="9.563850006088615">
        <ele>759.10000000000002</ele>
        <time>2018-09-18T12:50:03Z</time>
      </trkpt>
      <trkpt lat="47.421019021421671" lon="9.564197016879916">
        <ele>756.21000000000004</ele>
        <time>2018-09-18T12:50:05Z</time>
      </trkpt>
      <trkpt lat="47.420912990346551" lon="9.564400026574731">
        <ele>755.25</ele>
        <time>2018-09-18T12:50:06Z</time>
      </trkpt>
      <trkpt lat="47.420859010890126" lon="9.564633965492249">
        <ele>753.80999999999995</ele>
        <time>2018-09-18T12:50:07Z</time>
      </trkpt>
      <trkpt lat="47.420843001455069" lon="9.564891960471869">
        <ele>752.37</ele>
        <time>2018-09-18T12:50:08Z</time>
      </trkpt>
      <trkpt lat="47.420830009505153" lon="9.56514903344214">
        <ele>750.92999999999995</ele>
        <time>2018-09-18T12:50:09Z</time>
      </trkpt>
      <trkpt lat="47.420817017555237" lon="9.565397975966334">
        <ele>749.49000000000001</ele>
        <time>2018-09-18T12:50:10Z</time>
      </trkpt>
      <trkpt lat="47.420675028115511" lon="9.566793981939554">
        <ele>741.30999999999995</ele>
        <time>2018-09-18T12:50:16Z</time>
      </trkpt>
      <trkpt lat="47.420633034780622" lon="9.56697503104806">
        <ele>739.87</ele>
        <time>2018-09-18T12:50:17Z</time>
      </trkpt>
      <trkpt lat="47.420590035617352" lon="9.567133029922843">
        <ele>738.42999999999995</ele>
        <time>2018-09-18T12:50:18Z</time>
      </trkpt>
      <trkpt lat="47.420527003705502" lon="9.567244006320834">
        <ele>737.47000000000003</ele>
        <time>2018-09-18T12:50:19Z</time>
      </trkpt>
      <trkpt lat="47.420452991500497" lon="9.567270996049047">
        <ele>736.02999999999997</ele>
        <time>2018-09-18T12:50:20Z</time>
      </trkpt>
      <trkpt lat="47.420387025922537" lon="9.567237971350551">
        <ele>735.07000000000005</ele>
        <time>2018-09-18T12:50:21Z</time>
      </trkpt>
      <trkpt lat="47.420275965705514" lon="9.567181980237365">
        <ele>733.62</ele>
        <time>2018-09-18T12:50:22Z</time>
      </trkpt>
      <trkpt lat="47.420240007340908" lon="9.567136969417334">
        <ele>732.17999999999995</ele>
        <time>2018-09-18T12:50:23Z</time>
      </trkpt>
      <trkpt lat="47.420167000964284" lon="9.567046025767922">
        <ele>731.22000000000003</ele>
        <time>2018-09-18T12:50:24Z</time>
      </trkpt>
      <trkpt lat="47.420089971274137" lon="9.566949969157577">
        <ele>730.74000000000001</ele>
        <time>2018-09-18T12:50:25Z</time>
      </trkpt>
      <trkpt lat="47.420016964897513" lon="9.566860031336546">
        <ele>729.77999999999997</ele>
        <time>2018-09-18T12:50:26Z</time>
      </trkpt>
      <trkpt lat="47.419919986277819" lon="9.566794987767935">
        <ele>729.29999999999995</ele>
        <time>2018-09-18T12:50:27Z</time>
      </trkpt>
      <trkpt lat="47.41981403902173" lon="9.566781995818019">
        <ele>729.29999999999995</ele>
        <time>2018-09-18T12:50:28Z</time>
      </trkpt>
      <trkpt lat="47.419714964926243" lon="9.566791970282793">
        <ele>729.29999999999995</ele>
        <time>2018-09-18T12:50:29Z</time>
      </trkpt>
      <trkpt lat="47.419639024883509" lon="9.566856008023024">
        <ele>729.29999999999995</ele>
        <time>2018-09-18T12:50:30Z</time>
      </trkpt>
      <trkpt lat="47.419580016285181" lon="9.566953992471099">
        <ele>729.29999999999995</ele>
        <time>2018-09-18T12:50:31Z</time>
      </trkpt>
      <trkpt lat="47.419522013515234" lon="9.567050971090794">
        <ele>728.82000000000005</ele>
        <time>2018-09-18T12:50:32Z</time>
      </trkpt>
      <trkpt lat="47.419463004916906" lon="9.567149039357901">
        <ele>728.34000000000003</ele>
        <time>2018-09-18T12:50:33Z</time>
      </trkpt>
      <trkpt lat="47.419401984661818" lon="9.567237971350551">
        <ele>727.86000000000001</ele>
        <time>2018-09-18T12:50:34Z</time>
      </trkpt>
      <trkpt lat="47.419310035184026" lon="9.567310977727175">
        <ele>726.88999999999999</ele>
        <time>2018-09-18T12:50:35Z</time>
      </trkpt>
      <trkpt lat="47.419242979958653" lon="9.567328998818994">
        <ele>725.92999999999995</ele>
        <time>2018-09-18T12:50:36Z</time>
      </trkpt>
      <trkpt lat="47.419151030480862" lon="9.567353976890445">
        <ele>725.45000000000005</ele>
        <time>2018-09-18T12:50:37Z</time>
      </trkpt>
      <trkpt lat="47.419074000790715" lon="9.567375015467405">
        <ele>724.97000000000003</ele>
        <time>2018-09-18T12:50:38Z</time>
      </trkpt>
      <trkpt lat="47.418977022171021" lon="9.567436035722494">
        <ele>724.00999999999999</ele>
        <time>2018-09-18T12:50:39Z</time>
      </trkpt>
      <trkpt lat="47.418899992480874" lon="9.567502001300454">
        <ele>723.04999999999995</ele>
        <time>2018-09-18T12:50:40Z</time>
      </trkpt>
      <trkpt lat="47.418883983045816" lon="9.567612977698445">
        <ele>722.57000000000005</ele>
        <time>2018-09-18T12:50:41Z</time>
      </trkpt>
      <trkpt lat="47.418910972774029" lon="9.567722026258707">
        <ele>721.61000000000001</ele>
        <time>2018-09-18T12:50:42Z</time>
      </trkpt>
      <trkpt lat="47.41895598359406" lon="9.567842977121472">
        <ele>721.13</ele>
        <time>2018-09-18T12:50:43Z</time>
      </trkpt>
      <trkpt lat="47.419032007455826" lon="9.567960994318128">
        <ele>720.64999999999998</ele>
        <time>2018-09-18T12:50:44Z</time>
      </trkpt>
      <trkpt lat="47.419249014928937" lon="9.568421998992562">
        <ele>718.72000000000003</ele>
        <time>2018-09-18T12:50:47Z</time>
      </trkpt>
      <trkpt lat="47.419311963021755" lon="9.568593995645642">
        <ele>718.24000000000001</ele>
        <time>2018-09-18T12:50:48Z</time>
      </trkpt>
      <trkpt lat="47.419373989105225" lon="9.568760041147471">
        <ele>718.24000000000001</ele>
        <time>2018-09-18T12:50:49Z</time>
      </trkpt>
      <trkpt lat="47.419436015188694" lon="9.568924997001886">
        <ele>717.75999999999999</ele>
        <time>2018-09-18T12:50:50Z</time>
      </trkpt>
      <trkpt lat="47.419498041272163" lon="9.569089030846953">
        <ele>717.27999999999997</ele>
        <time>2018-09-18T12:50:51Z</time>
      </trkpt>
      <trkpt lat="47.41955897770822" lon="9.569238983094692">
        <ele>716.32000000000005</ele>
        <time>2018-09-18T12:50:52Z</time>
      </trkpt>
      <trkpt lat="47.419617986306548" lon="9.569381978362799">
        <ele>715.36000000000001</ele>
        <time>2018-09-18T12:50:53Z</time>
      </trkpt>
      <trkpt lat="47.419673977419734" lon="9.569518016651273">
        <ele>714.39999999999998</ele>
        <time>2018-09-18T12:50:54Z</time>
      </trkpt>
      <trkpt lat="47.419732986018062" lon="9.569648019969463">
        <ele>713.44000000000005</ele>
        <time>2018-09-18T12:50:55Z</time>
      </trkpt>
      <trkpt lat="47.41981596685946" lon="9.569924036040902">
        <ele>711.50999999999999</ele>
        <time>2018-09-18T12:50:57Z</time>
      </trkpt>
      <trkpt lat="47.419825019314885" lon="9.570095026865602">
        <ele>710.54999999999995</ele>
        <time>2018-09-18T12:50:58Z</time>
      </trkpt>
      <trkpt lat="47.419825019314885" lon="9.570288984104991">
        <ele>710.07000000000005</ele>
        <time>2018-09-18T12:50:59Z</time>
      </trkpt>
      <trkpt lat="47.419825019314885" lon="9.572300976142287">
        <ele>699.01999999999998</ele>
        <time>2018-09-18T12:51:10Z</time>
      </trkpt>
      <trkpt lat="47.419803980737925" lon="9.573956988751888">
        <ele>695.16999999999996</ele>
        <time>2018-09-18T12:51:19Z</time>
      </trkpt>
      <trkpt lat="47.419803980737925" lon="9.574135020375252">
        <ele>694.69000000000005</ele>
        <time>2018-09-18T12:51:20Z</time>
      </trkpt>
      <trkpt lat="47.419802974909544" lon="9.574311040341854">
        <ele>694.69000000000005</ele>
        <time>2018-09-18T12:51:21Z</time>
      </trkpt>
      <trkpt lat="47.419800963252783" lon="9.574488988146186">
        <ele>694.21000000000004</ele>
        <time>2018-09-18T12:51:22Z</time>
      </trkpt>
      <trkpt lat="47.419798029586673" lon="9.574667019769549">
        <ele>694.21000000000004</ele>
        <time>2018-09-18T12:51:23Z</time>
      </trkpt>
      <trkpt lat="47.419820996001363" lon="9.576481031253934">
        <ele>692.76999999999998</ele>
        <time>2018-09-18T12:51:33Z</time>
      </trkpt>
      <trkpt lat="47.419873969629407" lon="9.576827036216855">
        <ele>692.28999999999996</ele>
        <time>2018-09-18T12:51:35Z</time>
      </trkpt>
      <trkpt lat="47.420001039281487" lon="9.577067010104656">
        <ele>690.36000000000001</ele>
        <time>2018-09-18T12:51:37Z</time>
      </trkpt>
      <trkpt lat="47.420060969889164" lon="9.577181003987789">
        <ele>688.91999999999996</ele>
        <time>2018-09-18T12:51:38Z</time>
      </trkpt>
      <trkpt lat="47.420146968215704" lon="9.577267002314329">
        <ele>687.96000000000004</ele>
        <time>2018-09-18T12:51:39Z</time>
      </trkpt>
      <trkpt lat="47.420231960713863" lon="9.577267002314329">
        <ele>687</ele>
        <time>2018-09-18T12:51:40Z</time>
      </trkpt>
      <trkpt lat="47.420333968475461" lon="9.577246969565749">
        <ele>686.51999999999998</ele>
        <time>2018-09-18T12:51:41Z</time>
      </trkpt>
      <trkpt lat="47.420398006215692" lon="9.57716197706759">
        <ele>685.55999999999995</ele>
        <time>2018-09-18T12:51:42Z</time>
      </trkpt>
      <trkpt lat="47.420466989278793" lon="9.577069021761417">
        <ele>685.08000000000004</ele>
        <time>2018-09-18T12:51:43Z</time>
      </trkpt>
      <trkpt lat="47.420538989827037" lon="9.576940024271607">
        <ele>684.12</ele>
        <time>2018-09-18T12:51:44Z</time>
      </trkpt>
      <trkpt lat="47.420591963455081" lon="9.576800968497992">
        <ele>683.14999999999998</ele>
        <time>2018-09-18T12:51:45Z</time>
      </trkpt>
      <trkpt lat="47.420646026730537" lon="9.576660990715027">
        <ele>682.19000000000005</ele>
        <time>2018-09-18T12:51:46Z</time>
      </trkpt>
      <trkpt lat="47.42069598287344" lon="9.576530987396836">
        <ele>681.23000000000002</ele>
        <time>2018-09-18T12:51:47Z</time>
      </trkpt>
      <trkpt lat="47.420757003128529" lon="9.576429985463619">
        <ele>680.26999999999998</ele>
        <time>2018-09-18T12:51:48Z</time>
      </trkpt>
      <trkpt lat="47.420847024768591" lon="9.57636795938015">
        <ele>679.78999999999996</ele>
        <time>2018-09-18T12:51:49Z</time>
      </trkpt>
      <trkpt lat="47.42093101143837" lon="9.576308028772473">
        <ele>678.83000000000004</ele>
        <time>2018-09-18T12:51:50Z</time>
      </trkpt>
      <trkpt lat="47.421008963137865" lon="9.57630199380219">
        <ele>677.87</ele>
        <time>2018-09-18T12:51:51Z</time>
      </trkpt>
      <trkpt lat="47.421066965907812" lon="9.576339041814208">
        <ele>676.90999999999997</ele>
        <time>2018-09-18T12:51:52Z</time>
      </trkpt>
      <trkpt lat="47.421108959242702" lon="9.576422022655606">
        <ele>675.94000000000005</ele>
        <time>2018-09-18T12:51:53Z</time>
      </trkpt>
      <trkpt lat="47.421149024739861" lon="9.576529981568456">
        <ele>675.46000000000004</ele>
        <time>2018-09-18T12:51:54Z</time>
      </trkpt>
      <trkpt lat="47.421184983104467" lon="9.57666702568531">
        <ele>674.98000000000002</ele>
        <time>2018-09-18T12:51:55Z</time>
      </trkpt>
      <trkpt lat="47.421333007514477" lon="9.577391976490617">
        <ele>673.53999999999996</ele>
        <time>2018-09-18T12:51:59Z</time>
      </trkpt>
      <trkpt lat="47.421377012506127" lon="9.577986001968384">
        <ele>674.5</ele>
        <time>2018-09-18T12:52:02Z</time>
      </trkpt>
      <trkpt lat="47.421390004456043" lon="9.578166967257857">
        <ele>674.5</ele>
        <time>2018-09-18T12:52:03Z</time>
      </trkpt>
      <trkpt lat="47.42136200889945" lon="9.578328989446163">
        <ele>674.98000000000002</ele>
        <time>2018-09-18T12:52:04Z</time>
      </trkpt>
      <trkpt lat="47.421326972544193" lon="9.578490005806088">
        <ele>674.98000000000002</ele>
        <time>2018-09-18T12:52:05Z</time>
      </trkpt>
      <trkpt lat="47.421256983652711" lon="9.578672982752323">
        <ele>674.98000000000002</ele>
        <time>2018-09-18T12:52:06Z</time>
      </trkpt>
      <trkpt lat="47.421180037781596" lon="9.578838022425771">
        <ele>674.98000000000002</ele>
        <time>2018-09-18T12:52:07Z</time>
      </trkpt>
      <trkpt lat="47.42108398117125" lon="9.578999960795045">
        <ele>674.5</ele>
        <time>2018-09-18T12:52:08Z</time>
      </trkpt>
      <trkpt lat="47.420989014208317" lon="9.579177992418408">
        <ele>674.5</ele>
        <time>2018-09-18T12:52:09Z</time>
      </trkpt>
      <trkpt lat="47.420863034203649" lon="9.57960999570787">
        <ele>673.53999999999996</ele>
        <time>2018-09-18T12:52:11Z</time>
      </trkpt>
      <trkpt lat="47.420816011726856" lon="9.5798450242728">
        <ele>673.05999999999995</ele>
        <time>2018-09-18T12:52:12Z</time>
      </trkpt>
      <trkpt lat="47.420777035877109" lon="9.580092960968614">
        <ele>672.10000000000002</ele>
        <time>2018-09-18T12:52:13Z</time>
      </trkpt>
      <trkpt lat="47.420709980651736" lon="9.580850014463067">
        <ele>668.25</ele>
        <time>2018-09-18T12:52:16Z</time>
      </trkpt>
      <trkpt lat="47.42071601562202" lon="9.581117983907461">
        <ele>666.80999999999995</ele>
        <time>2018-09-18T12:52:17Z</time>
      </trkpt>
      <trkpt lat="47.420907961204648" lon="9.583604978397489">
        <ele>657.20000000000005</ele>
        <time>2018-09-18T12:52:25Z</time>
      </trkpt>
      <trkpt lat="47.421178026124835" lon="9.586241003125906">
        <ele>643.74000000000001</ele>
        <time>2018-09-18T12:52:34Z</time>
      </trkpt>
      <trkpt lat="47.421326972544193" lon="9.588059959933162">
        <ele>632.20000000000005</ele>
        <time>2018-09-18T12:52:42Z</time>
      </trkpt>
      <trkpt lat="47.421385981142521" lon="9.588192980736494">
        <ele>631.24000000000001</ele>
        <time>2018-09-18T12:52:43Z</time>
      </trkpt>
      <trkpt lat="47.421412970870733" lon="9.588254000991583">
        <ele>630.27999999999997</ele>
        <time>2018-09-18T12:52:44Z</time>
      </trkpt>
      <trkpt lat="47.421484971418977" lon="9.588264981284738">
        <ele>628.84000000000003</ele>
        <time>2018-09-18T12:52:45Z</time>
      </trkpt>
      <trkpt lat="47.421541968360543" lon="9.588275039568543">
        <ele>627.88</ele>
        <time>2018-09-18T12:52:46Z</time>
      </trkpt>
      <trkpt lat="47.421627966687083" lon="9.588211001828313">
        <ele>626.91999999999996</ele>
        <time>2018-09-18T12:52:47Z</time>
      </trkpt>
      <trkpt lat="47.421689992770553" lon="9.588115029036999">
        <ele>625.47000000000003</ele>
        <time>2018-09-18T12:52:48Z</time>
      </trkpt>
      <trkpt lat="47.421776996925473" lon="9.587979996576905">
        <ele>624.50999999999999</ele>
        <time>2018-09-18T12:52:49Z</time>
      </trkpt>
      <trkpt lat="47.422226015478373" lon="9.58732302300632">
        <ele>620.19000000000005</ele>
        <time>2018-09-18T12:52:53Z</time>
      </trkpt>
      <trkpt lat="47.422345038503408" lon="9.587174998596311">
        <ele>619.23000000000002</ele>
        <time>2018-09-18T12:52:54Z</time>
      </trkpt>
      <trkpt lat="47.422493984922767" lon="9.587096963077784">
        <ele>617.77999999999997</ele>
        <time>2018-09-18T12:52:55Z</time>
      </trkpt>
      <trkpt lat="47.422633040696383" lon="9.587052036076784">
        <ele>616.82000000000005</ele>
        <time>2018-09-18T12:52:56Z</time>
      </trkpt>
      <trkpt lat="47.422764971852303" lon="9.587052036076784">
        <ele>615.38</ele>
        <time>2018-09-18T12:52:57Z</time>
      </trkpt>
      <trkpt lat="47.422891035676003" lon="9.587120013311505">
        <ele>614.41999999999996</ele>
        <time>2018-09-18T12:52:58Z</time>
      </trkpt>
      <trkpt lat="47.423018021509051" lon="9.587224032729864">
        <ele>612.98000000000002</ele>
        <time>2018-09-18T12:52:59Z</time>
      </trkpt>
      <trkpt lat="47.423136038705707" lon="9.587377002462745">
        <ele>611.53999999999996</ele>
        <time>2018-09-18T12:53:00Z</time>
      </trkpt>
      <trkpt lat="47.423260007053614" lon="9.587555034086108">
        <ele>610.09000000000003</ele>
        <time>2018-09-18T12:53:01Z</time>
      </trkpt>
      <trkpt lat="47.423389004543424" lon="9.587739016860724">
        <ele>608.64999999999998</ele>
        <time>2018-09-18T12:53:02Z</time>
      </trkpt>
      <trkpt lat="47.423922009766102" lon="9.588423985987902">
        <ele>602.39999999999998</ele>
        <time>2018-09-18T12:53:06Z</time>
      </trkpt>
      <trkpt lat="47.424356024712324" lon="9.588780971243978">
        <ele>599.03999999999996</ele>
        <time>2018-09-18T12:53:09Z</time>
      </trkpt>
      <trkpt lat="47.424695994704962" lon="9.589010970667005">
        <ele>595.19000000000005</ele>
        <time>2018-09-18T12:53:12Z</time>
      </trkpt>
      <trkpt lat="47.424731031060219" lon="9.589066039770842">
        <ele>593.75</ele>
        <time>2018-09-18T12:53:13Z</time>
      </trkpt>
      <trkpt lat="47.424753997474909" lon="9.589136028662324">
        <ele>592.30999999999995</ele>
        <time>2018-09-18T12:53:14Z</time>
      </trkpt>
      <trkpt lat="47.424760032445192" lon="9.589154971763492">
        <ele>590.38999999999999</ele>
        <time>2018-09-18T12:53:15Z</time>
      </trkpt>
      <trkpt lat="47.424760032445192" lon="9.589154971763492">
        <ele>588.95000000000005</ele>
        <time>2018-09-18T12:53:16Z</time>
      </trkpt>
      <trkpt lat="47.424719966948032" lon="9.589210962876678">
        <ele>587.5</ele>
        <time>2018-09-18T12:53:17Z</time>
      </trkpt>
      <trkpt lat="47.424652995541692" lon="9.589305007830262">
        <ele>585.10000000000002</ele>
        <time>2018-09-18T12:53:18Z</time>
      </trkpt>
      <trkpt lat="47.424550987780094" lon="9.589329985901713">
        <ele>582.70000000000005</ele>
        <time>2018-09-18T12:53:19Z</time>
      </trkpt>
      <trkpt lat="47.424267008900642" lon="9.589400980621576">
        <ele>577.40999999999997</ele>
        <time>2018-09-18T12:53:22Z</time>
      </trkpt>
      <trkpt lat="47.424138011410832" lon="9.589434005320072">
        <ele>575.97000000000003</ele>
        <time>2018-09-18T12:53:23Z</time>
      </trkpt>
      <trkpt lat="47.424097023904324" lon="9.589502988383174">
        <ele>574.52999999999997</ele>
        <time>2018-09-18T12:53:24Z</time>
      </trkpt>
      <trkpt lat="47.424042038619518" lon="9.589594015851617">
        <ele>573.55999999999995</ele>
        <time>2018-09-18T12:53:25Z</time>
      </trkpt>
      <trkpt lat="47.423978000879288" lon="9.589765006676316">
        <ele>572.60000000000002</ele>
        <time>2018-09-18T12:53:26Z</time>
      </trkpt>
      <trkpt lat="47.423906000331044" lon="9.590030964463949">
        <ele>571.63999999999999</ele>
        <time>2018-09-18T12:53:28Z</time>
      </trkpt>
      <trkpt lat="47.423858977854252" lon="9.590205978602171">
        <ele>571.15999999999997</ele>
        <time>2018-09-18T12:53:29Z</time>
      </trkpt>
      <trkpt lat="47.423858977854252" lon="9.590340005233884">
        <ele>570.67999999999995</ele>
        <time>2018-09-18T12:53:30Z</time>
      </trkpt>
      <trkpt lat="47.423892002552748" lon="9.590563969686627">
        <ele>570.67999999999995</ele>
        <time>2018-09-18T12:53:31Z</time>
      </trkpt>
      <trkpt lat="47.423945982009172" lon="9.590797992423177">
        <ele>570.20000000000005</ele>
        <time>2018-09-18T12:53:32Z</time>
      </trkpt>
      <trkpt lat="47.424250999465585" lon="9.592248983681202">
        <ele>567.79999999999995</ele>
        <time>2018-09-18T12:53:37Z</time>
      </trkpt>
      <trkpt lat="47.424414027482271" lon="9.593029003590345">
        <ele>563.95000000000005</ele>
        <time>2018-09-18T12:53:41Z</time>
      </trkpt>
      <trkpt lat="47.4244349822402" lon="9.593183984979987">
        <ele>562.99000000000001</ele>
        <time>2018-09-18T12:53:42Z</time>
      </trkpt>
      <trkpt lat="47.424421990290284" lon="9.5933370385319">
        <ele>562.50999999999999</ele>
        <time>2018-09-18T12:53:43Z</time>
      </trkpt>
      <trkpt lat="47.424407992511988" lon="9.593495037406683">
        <ele>561.54999999999995</ele>
        <time>2018-09-18T12:53:44Z</time>
      </trkpt>
      <trkpt lat="47.424393994733691" lon="9.593653958290815">
        <ele>560.59000000000003</ele>
        <time>2018-09-18T12:53:45Z</time>
      </trkpt>
      <trkpt lat="47.424290981143713" lon="9.5944560226053">
        <ele>556.25999999999999</ele>
        <time>2018-09-18T12:53:50Z</time>
      </trkpt>
      <trkpt lat="47.424302967265248" lon="9.594619972631335">
        <ele>555.77999999999997</ele>
        <time>2018-09-18T12:53:51Z</time>
      </trkpt>
      <trkpt lat="47.424334986135364" lon="9.594778977334499">
        <ele>554.82000000000005</ele>
        <time>2018-09-18T12:53:52Z</time>
      </trkpt>
      <trkpt lat="47.424381002783775" lon="9.594942005351186">
        <ele>554.34000000000003</ele>
        <time>2018-09-18T12:53:53Z</time>
      </trkpt>
      <trkpt lat="47.424426013603806" lon="9.59510101005435">
        <ele>553.38</ele>
        <time>2018-09-18T12:53:54Z</time>
      </trkpt>
      <trkpt lat="47.424469012767076" lon="9.595253979787231">
        <ele>552.40999999999997</ele>
        <time>2018-09-18T12:53:55Z</time>
      </trkpt>
      <trkpt lat="47.424942003563046" lon="9.596808990463615">
        <ele>545.69000000000005</ele>
        <time>2018-09-18T12:54:04Z</time>
      </trkpt>
      <trkpt lat="47.425023978576064" lon="9.596959026530385">
        <ele>544.72000000000003</ele>
        <time>2018-09-18T12:54:05Z</time>
      </trkpt>
      <trkpt lat="47.425107965245843" lon="9.597113002091646">
        <ele>543.75999999999999</ele>
        <time>2018-09-18T12:54:06Z</time>
      </trkpt>
      <trkpt lat="47.425342993810773" lon="9.597600996494293">
        <ele>539.91999999999996</ele>
        <time>2018-09-18T12:54:09Z</time>
      </trkpt>
      <trkpt lat="47.425406025722623" lon="9.597793025895953">
        <ele>538.96000000000004</ele>
        <time>2018-09-18T12:54:10Z</time>
      </trkpt>
      <trkpt lat="47.425470985472202" lon="9.597992012277246">
        <ele>537.50999999999999</ele>
        <time>2018-09-18T12:54:11Z</time>
      </trkpt>
      <trkpt lat="47.425854960456491" lon="9.599172016605735">
        <ele>532.23000000000002</ele>
        <time>2018-09-18T12:54:16Z</time>
      </trkpt>
      <trkpt lat="47.426629029214382" lon="9.601411996409297">
        <ele>520.69000000000005</ele>
        <time>2018-09-18T12:54:23Z</time>
      </trkpt>
      <trkpt lat="47.426735982298851" lon="9.601704021915793">
        <ele>518.76999999999998</ele>
        <time>2018-09-18T12:54:24Z</time>
      </trkpt>
      <trkpt lat="47.427347023040056" lon="9.603898990899324">
        <ele>505.31</ele>
        <time>2018-09-18T12:54:31Z</time>
      </trkpt>
      <trkpt lat="47.427837029099464" lon="9.605121994391084">
        <ele>496.66000000000003</ele>
        <time>2018-09-18T12:54:36Z</time>
      </trkpt>
      <trkpt lat="47.42791598662734" lon="9.605291979387403">
        <ele>495.22000000000003</ele>
        <time>2018-09-18T12:54:37Z</time>
      </trkpt>
      <trkpt lat="47.428007014095783" lon="9.605406979098916">
        <ele>493.76999999999998</ele>
        <time>2018-09-18T12:54:38Z</time>
      </trkpt>
      <trkpt lat="47.428139029070735" lon="9.605571012943983">
        <ele>491.37</ele>
        <time>2018-09-18T12:54:40Z</time>
      </trkpt>
      <trkpt lat="47.428169036284089" lon="9.605641001835465">
        <ele>490.41000000000003</ele>
        <time>2018-09-18T12:54:41Z</time>
      </trkpt>
      <trkpt lat="47.428163001313806" lon="9.605696992948651">
        <ele>488.97000000000003</ele>
        <time>2018-09-18T12:54:42Z</time>
      </trkpt>
      <trkpt lat="47.428094018250704" lon="9.605781985446811">
        <ele>488.00999999999999</ele>
        <time>2018-09-18T12:54:43Z</time>
      </trkpt>
      <trkpt lat="47.428039032965899" lon="9.60575801320374">
        <ele>486.56</ele>
        <time>2018-09-18T12:54:44Z</time>
      </trkpt>
      <trkpt lat="47.427949011325836" lon="9.605673020705581">
        <ele>485.60000000000002</ele>
        <time>2018-09-18T12:54:45Z</time>
      </trkpt>
      <trkpt lat="47.427859995514154" lon="9.605553997680545">
        <ele>484.16000000000003</ele>
        <time>2018-09-18T12:54:46Z</time>
      </trkpt>
      <trkpt lat="47.427070001140237" lon="9.604520006105304">
        <ele>475.02999999999997</ele>
        <time>2018-09-18T12:54:52Z</time>
      </trkpt>
      <trkpt lat="47.426047995686531" lon="9.603527002036572">
        <ele>465.42000000000002</ele>
        <time>2018-09-18T12:54:59Z</time>
      </trkpt>
      <trkpt lat="47.425253977999091" lon="9.602916967123747">
        <ele>454.83999999999997</ele>
        <time>2018-09-18T12:55:07Z</time>
      </trkpt>
      <trkpt lat="47.425173008814454" lon="9.602872040122747">
        <ele>453.88</ele>
        <time>2018-09-18T12:55:08Z</time>
      </trkpt>
      <trkpt lat="47.425106037408113" lon="9.602871034294367">
        <ele>452.92000000000002</ele>
        <time>2018-09-18T12:55:09Z</time>
      </trkpt>
      <trkpt lat="47.425054991617799" lon="9.60294496268034">
        <ele>452.44</ele>
        <time>2018-09-18T12:55:10Z</time>
      </trkpt>
      <trkpt lat="47.425018027424812" lon="9.603038001805544">
        <ele>451.48000000000002</ele>
        <time>2018-09-18T12:55:11Z</time>
      </trkpt>
      <trkpt lat="47.425048034638166" lon="9.603145960718393">
        <ele>451</ele>
        <time>2018-09-18T12:55:12Z</time>
      </trkpt>
      <trkpt lat="47.425084998831153" lon="9.603279987350106">
        <ele>450.02999999999997</ele>
        <time>2018-09-18T12:55:13Z</time>
      </trkpt>
      <trkpt lat="47.425125986337662" lon="9.603429017588496">
        <ele>449.06999999999999</ele>
        <time>2018-09-18T12:55:14Z</time>
      </trkpt>
      <trkpt lat="47.425169991329312" lon="9.60358802229166">
        <ele>448.11000000000001</ele>
        <time>2018-09-18T12:55:15Z</time>
      </trkpt>
      <trkpt lat="47.425198992714286" lon="9.603758007287979">
        <ele>447.14999999999998</ele>
        <time>2018-09-18T12:55:16Z</time>
      </trkpt>
      <trkpt lat="47.425215002149343" lon="9.60393100976944">
        <ele>446.19</ele>
        <time>2018-09-18T12:55:17Z</time>
      </trkpt>
      <trkpt lat="47.425231011584401" lon="9.604100994765759">
        <ele>445.23000000000002</ele>
        <time>2018-09-18T12:55:18Z</time>
      </trkpt>
      <trkpt lat="47.425246015191078" lon="9.604266034439206">
        <ele>444.26999999999998</ele>
        <time>2018-09-18T12:55:19Z</time>
      </trkpt>
      <trkpt lat="47.425323966890574" lon="9.605950964614749">
        <ele>436.57999999999998</ele>
        <time>2018-09-18T12:55:30Z</time>
      </trkpt>
      <trkpt lat="47.425330001860857" lon="9.606112986803055">
        <ele>436.10000000000002</ele>
        <time>2018-09-18T12:55:31Z</time>
      </trkpt>
      <trkpt lat="47.425339976325631" lon="9.606740036979318">
        <ele>432.73000000000002</ele>
        <time>2018-09-18T12:55:35Z</time>
      </trkpt>
      <trkpt lat="47.425339976325631" lon="9.606922008097172">
        <ele>431.76999999999998</ele>
        <time>2018-09-18T12:55:36Z</time>
      </trkpt>
      <trkpt lat="47.425288008525968" lon="9.60734898224473">
        <ele>429.85000000000002</ele>
        <time>2018-09-18T12:55:39Z</time>
      </trkpt>
      <trkpt lat="47.425270993262529" lon="9.607489965856075">
        <ele>429.37</ele>
        <time>2018-09-18T12:55:40Z</time>
      </trkpt>
      <trkpt lat="47.425253977999091" lon="9.607630027458072">
        <ele>428.88999999999999</ele>
        <time>2018-09-18T12:55:41Z</time>
      </trkpt>
      <trkpt lat="47.425248026847839" lon="9.607765981927514">
        <ele>428.39999999999998</ele>
        <time>2018-09-18T12:55:42Z</time>
      </trkpt>
      <trkpt lat="47.425241991877556" lon="9.607901014387608">
        <ele>427.92000000000002</ele>
        <time>2018-09-18T12:55:43Z</time>
      </trkpt>
      <trkpt lat="47.425235034897923" lon="9.60803696885705">
        <ele>427.44</ele>
        <time>2018-09-18T12:55:44Z</time>
      </trkpt>
      <trkpt lat="47.425232017412782" lon="9.608321031555533">
        <ele>426</ele>
        <time>2018-09-18T12:55:46Z</time>
      </trkpt>
      <trkpt lat="47.425216007977724" lon="9.60880902595818">
        <ele>422.63999999999999</ele>
        <time>2018-09-18T12:55:49Z</time>
      </trkpt>
      <trkpt lat="47.425207961350679" lon="9.608997032046318">
        <ele>421.68000000000001</ele>
        <time>2018-09-18T12:55:50Z</time>
      </trkpt>
      <trkpt lat="47.425175020471215" lon="9.609361980110407">
        <ele>419.75</ele>
        <time>2018-09-18T12:55:52Z</time>
      </trkpt>
      <trkpt lat="47.425164040178061" lon="9.609541017562151">
        <ele>419.26999999999998</ele>
        <time>2018-09-18T12:55:53Z</time>
      </trkpt>
      <trkpt lat="47.425162028521299" lon="9.610103024169803">
        <ele>416.87</ele>
        <time>2018-09-18T12:55:56Z</time>
      </trkpt>
      <trkpt lat="47.425197986885905" lon="9.61046596057713">
        <ele>415.43000000000001</ele>
        <time>2018-09-18T12:55:58Z</time>
      </trkpt>
      <trkpt lat="47.425289014354348" lon="9.611357040703297">
        <ele>413.5</ele>
        <time>2018-09-18T12:56:03Z</time>
      </trkpt>
      <trkpt lat="47.425307035446167" lon="9.611534988507628">
        <ele>413.98000000000002</ele>
        <time>2018-09-18T12:56:04Z</time>
      </trkpt>
      <trkpt lat="47.425364032387733" lon="9.612082997336984">
        <ele>413.5</ele>
        <time>2018-09-18T12:56:07Z</time>
      </trkpt>
      <trkpt lat="47.425381969660521" lon="9.612259017303586">
        <ele>413.5</ele>
        <time>2018-09-18T12:56:08Z</time>
      </trkpt>
      <trkpt lat="47.425402002409101" lon="9.612435959279537">
        <ele>413.5</ele>
        <time>2018-09-18T12:56:09Z</time>
      </trkpt>
      <trkpt lat="47.425539968535304" lon="9.613486966118217">
        <ele>413.98000000000002</ele>
        <time>2018-09-18T12:56:16Z</time>
      </trkpt>
      <trkpt lat="47.425452964380383" lon="9.613586962223053">
        <ele>413.98000000000002</ele>
        <time>2018-09-18T12:56:17Z</time>
      </trkpt>
      <trkpt lat="47.425426980480552" lon="9.613675978034735">
        <ele>414.47000000000003</ele>
        <time>2018-09-18T12:56:18Z</time>
      </trkpt>
      <trkpt lat="47.425370989367366" lon="9.613860966637731">
        <ele>417.35000000000002</ele>
        <time>2018-09-18T12:56:24Z</time>
      </trkpt>
      <trkpt lat="47.425355985760689" lon="9.613901032134891">
        <ele>417.35000000000002</ele>
        <time>2018-09-18T12:56:25Z</time>
      </trkpt>
      <trkpt lat="47.425346011295915" lon="9.613928021863103">
        <ele>417.82999999999998</ele>
        <time>2018-09-18T12:56:26Z</time>
      </trkpt>
      <trkpt lat="47.425336036831141" lon="9.613954005762935">
        <ele>418.31</ele>
        <time>2018-09-18T12:56:27Z</time>
      </trkpt>
      <trkpt lat="47.425690004602075" lon="9.614050984382629">
        <ele>417.82999999999998</ele>
        <time>2018-09-18T12:56:30Z</time>
      </trkpt>
      <trkpt lat="47.425715988501906" lon="9.614147963002324">
        <ele>417.35000000000002</ele>
        <time>2018-09-18T12:56:31Z</time>
      </trkpt>
      <trkpt lat="47.425747001543641" lon="9.61426698602736">
        <ele>416.87</ele>
        <time>2018-09-18T12:56:32Z</time>
      </trkpt>
      <trkpt lat="47.425782959908247" lon="9.614402018487454">
        <ele>415.91000000000003</ele>
        <time>2018-09-18T12:56:33Z</time>
      </trkpt>
      <trkpt lat="47.425821013748646" lon="9.61454501375556">
        <ele>415.43000000000001</ele>
        <time>2018-09-18T12:56:34Z</time>
      </trkpt>
      <trkpt lat="47.425860995426774" lon="9.614694966003299">
        <ele>414.47000000000003</ele>
        <time>2018-09-18T12:56:35Z</time>
      </trkpt>
      <trkpt lat="47.426160983741283" lon="9.615776985883713">
        <ele>412.54000000000002</ele>
        <time>2018-09-18T12:56:42Z</time>
      </trkpt>
      <trkpt lat="47.426747968420386" lon="9.617425035685301">
        <ele>408.69999999999999</ele>
        <time>2018-09-18T12:56:53Z</time>
      </trkpt>
      <trkpt lat="47.426874032244086" lon="9.617730975151062">
        <ele>408.22000000000003</ele>
        <time>2018-09-18T12:56:55Z</time>
      </trkpt>
      <trkpt lat="47.42694997228682" lon="9.617870030924678">
        <ele>408.22000000000003</ele>
        <time>2018-09-18T12:56:56Z</time>
      </trkpt>
      <trkpt lat="47.42774298414588" lon="9.619501987472177">
        <ele>405.32999999999998</ele>
        <time>2018-09-18T12:57:07Z</time>
      </trkpt>
      <trkpt lat="47.427868964150548" lon="9.620010014623404">
        <ele>405.32999999999998</ele>
        <time>2018-09-18T12:57:10Z</time>
      </trkpt>
      <trkpt lat="47.427987987175584" lon="9.621237963438034">
        <ele>405.32999999999998</ele>
        <time>2018-09-18T12:57:17Z</time>
      </trkpt>
      <trkpt lat="47.428106004372239" lon="9.623593026772142">
        <ele>404.85000000000002</ele>
        <time>2018-09-18T12:57:30Z</time>
      </trkpt>
      <trkpt lat="47.42821304127574" lon="9.625532012432814">
        <ele>405.81</ele>
        <time>2018-09-18T12:57:40Z</time>
      </trkpt>
      <trkpt lat="47.428475981578231" lon="9.628840014338493">
        <ele>405.32999999999998</ele>
        <time>2018-09-18T12:57:56Z</time>
      </trkpt>
      <trkpt lat="47.428872026503086" lon="9.630032004788518">
        <ele>404.85000000000002</ele>
        <time>2018-09-18T12:58:04Z</time>
      </trkpt>
      <trkpt lat="47.429806021973491" lon="9.63186202570796">
        <ele>403.41000000000003</ele>
        <time>2018-09-18T12:58:16Z</time>
      </trkpt>
      <trkpt lat="47.430465007200837" lon="9.633024008944631">
        <ele>402.93000000000001</ele>
        <time>2018-09-18T12:58:25Z</time>
      </trkpt>
      <trkpt lat="47.430537007749081" lon="9.633147977292538">
        <ele>402.44999999999999</ele>
        <time>2018-09-18T12:58:26Z</time>
      </trkpt>
      <trkpt lat="47.430683020502329" lon="9.633401026949287">
        <ele>401.97000000000003</ele>
        <time>2018-09-18T12:58:28Z</time>
      </trkpt>
      <trkpt lat="47.430827021598816" lon="9.633806040510535">
        <ele>400.05000000000001</ele>
        <time>2018-09-18T12:58:31Z</time>
      </trkpt>
      <trkpt lat="47.430865997448564" lon="9.633915005251765">
        <ele>399.56999999999999</ele>
        <time>2018-09-18T12:58:32Z</time>
      </trkpt>
      <trkpt lat="47.430953001603484" lon="9.634188003838062">
        <ele>398.60000000000002</ele>
        <time>2018-09-18T12:58:36Z</time>
      </trkpt>
      <trkpt lat="47.430961970239878" lon="9.634215999394655">
        <ele>398.60000000000002</ele>
        <time>2018-09-18T12:58:37Z</time>
      </trkpt>
      <trkpt lat="47.430873038247228" lon="9.63435597717762">
        <ele>398.60000000000002</ele>
        <time>2018-09-18T12:58:38Z</time>
      </trkpt>
      <trkpt lat="47.430983008816838" lon="9.634581031277776">
        <ele>398.60000000000002</ele>
        <time>2018-09-18T12:58:39Z</time>
      </trkpt>
      <trkpt lat="47.430987032130361" lon="9.634624030441046">
        <ele>398.12</ele>
        <time>2018-09-18T12:58:40Z</time>
      </trkpt>
      <trkpt lat="47.431001029908657" lon="9.634774988517165">
        <ele>398.12</ele>
        <time>2018-09-18T12:58:41Z</time>
      </trkpt>
      <trkpt lat="47.431000024080276" lon="9.634930975735188">
        <ele>398.12</ele>
        <time>2018-09-18T12:58:42Z</time>
      </trkpt>
      <trkpt lat="47.430993989109993" lon="9.635088974609971">
        <ele>398.12</ele>
        <time>2018-09-18T12:58:43Z</time>
      </trkpt>
      <trkpt lat="47.430988037958741" lon="9.635252002626658">
        <ele>398.12</ele>
        <time>2018-09-18T12:58:44Z</time>
      </trkpt>
      <trkpt lat="47.430791985243559" lon="9.637027960270643">
        <ele>400.52999999999997</ele>
        <time>2018-09-18T12:58:54Z</time>
      </trkpt>
      <trkpt lat="47.430498031899333" lon="9.639298031106591">
        <ele>403.88999999999999</ele>
        <time>2018-09-18T12:59:05Z</time>
      </trkpt>
      <trkpt lat="47.430352019146085" lon="9.640567973256111">
        <ele>406.29000000000002</ele>
        <time>2018-09-18T12:59:13Z</time>
      </trkpt>
      <trkpt lat="47.430310025811195" lon="9.640902997925878">
        <ele>406.29000000000002</ele>
        <time>2018-09-18T12:59:20Z</time>
      </trkpt>
      <trkpt lat="47.430303990840912" lon="9.640982039272785">
        <ele>406.76999999999998</ele>
        <time>2018-09-18T12:59:22Z</time>
      </trkpt>
      <trkpt lat="47.430292004719377" lon="9.641126962378621">
        <ele>408.22000000000003</ele>
        <time>2018-09-18T12:59:31Z</time>
      </trkpt>
      <trkpt lat="47.430282030254602" lon="9.64125101454556">
        <ele>408.69999999999999</ele>
        <time>2018-09-18T12:59:41Z</time>
      </trkpt>
      <trkpt lat="47.430140040814877" lon="9.641668014228344">
        <ele>408.69999999999999</ele>
        <time>2018-09-18T12:59:50Z</time>
      </trkpt>
      <trkpt lat="47.430152026936412" lon="9.641720987856388">
        <ele>409.18000000000001</ele>
        <time>2018-09-18T12:59:52Z</time>
      </trkpt>
      <trkpt lat="47.43017197586596" lon="9.641792988404632">
        <ele>409.18000000000001</ele>
        <time>2018-09-18T12:59:53Z</time>
      </trkpt>
      <trkpt lat="47.430187985301018" lon="9.641803968697786">
        <ele>409.18000000000001</ele>
        <time>2018-09-18T12:59:54Z</time>
      </trkpt>
      <trkpt lat="47.430327963083982" lon="9.641908993944526">
        <ele>408.22000000000003</ele>
        <time>2018-09-18T13:00:02Z</time>
      </trkpt>
      <trkpt lat="47.430376997217536" lon="9.64215399697423">
        <ele>408.69999999999999</ele>
        <time>2018-09-18T13:00:14Z</time>
      </trkpt>
      <trkpt lat="47.430518986657262" lon="9.642663029953837">
        <ele>410.62</ele>
        <time>2018-09-18T13:00:27Z</time>
      </trkpt>
      <trkpt lat="47.430754015222192" lon="9.643611023202539">
        <ele>410.62</ele>
        <time>2018-09-18T13:00:35Z</time>
      </trkpt>
      <trkpt lat="47.431250978261232" lon="9.645844968035817">
        <ele>412.54000000000002</ele>
        <time>2018-09-18T13:00:49Z</time>
      </trkpt>
      <trkpt lat="47.431584997102618" lon="9.647279027849436">
        <ele>410.13999999999999</ele>
        <time>2018-09-18T13:01:00Z</time>
      </trkpt>
      <trkpt lat="47.431691028177738" lon="9.647788982838392">
        <ele>408.22000000000003</ele>
        <time>2018-09-18T13:01:05Z</time>
      </trkpt>
      <trkpt lat="47.431691028177738" lon="9.647883027791977">
        <ele>407.74000000000001</ele>
        <time>2018-09-18T13:01:06Z</time>
      </trkpt>
      <trkpt lat="47.431691028177738" lon="9.647996015846729">
        <ele>408.22000000000003</ele>
        <time>2018-09-18T13:01:07Z</time>
      </trkpt>
      <trkpt lat="47.431691028177738" lon="9.648112021386623">
        <ele>408.22000000000003</ele>
        <time>2018-09-18T13:01:08Z</time>
      </trkpt>
      <trkpt lat="47.431691028177738" lon="9.648203970864415">
        <ele>407.74000000000001</ele>
        <time>2018-09-18T13:01:09Z</time>
      </trkpt>
      <trkpt lat="47.431820025667548" lon="9.648724989965558">
        <ele>408.69999999999999</ele>
        <time>2018-09-18T13:01:14Z</time>
      </trkpt>
      <trkpt lat="47.431827988475561" lon="9.64907300658524">
        <ele>410.13999999999999</ele>
        <time>2018-09-18T13:01:18Z</time>
      </trkpt>
      <trkpt lat="47.431830000132322" lon="9.649139977991581">
        <ele>410.13999999999999</ele>
        <time>2018-09-18T13:01:19Z</time>
      </trkpt>
      <trkpt lat="47.431832011789083" lon="9.64920200407505">
        <ele>410.62</ele>
        <time>2018-09-18T13:01:20Z</time>
      </trkpt>
      <trkpt lat="47.431834023445845" lon="9.649593019858003">
        <ele>409.66000000000003</ele>
        <time>2018-09-18T13:01:26Z</time>
      </trkpt>
      <trkpt lat="47.431821031495929" lon="9.649688992649317">
        <ele>409.18000000000001</ele>
        <time>2018-09-18T13:01:27Z</time>
      </trkpt>
      <trkpt lat="47.431809967383742" lon="9.649769039824605">
        <ele>409.18000000000001</ele>
        <time>2018-09-18T13:01:28Z</time>
      </trkpt>
      <trkpt lat="47.431802004575729" lon="9.649832993745804">
        <ele>408.69999999999999</ele>
        <time>2018-09-18T13:01:29Z</time>
      </trkpt>
      <trkpt lat="47.431795969605446" lon="9.649871969595552">
        <ele>408.22000000000003</ele>
        <time>2018-09-18T13:01:30Z</time>
      </trkpt>
      <trkpt lat="47.431790018454194" lon="9.649902982637286">
        <ele>408.22000000000003</ele>
        <time>2018-09-18T13:01:31Z</time>
      </trkpt>
      <trkpt lat="47.431784989312291" lon="9.649927960708737">
        <ele>407.74000000000001</ele>
        <time>2018-09-18T13:01:32Z</time>
      </trkpt>
      <trkpt lat="47.431766968220472" lon="9.650022005662322">
        <ele>407.25999999999999</ele>
        <time>2018-09-18T13:01:42Z</time>
      </trkpt>
      <trkpt lat="47.431709971278906" lon="9.65031998232007">
        <ele>406.29000000000002</ele>
        <time>2018-09-18T13:01:46Z</time>
      </trkpt>
      <trkpt lat="47.431757999584079" lon="9.650449985638261">
        <ele>406.29000000000002</ele>
        <time>2018-09-18T13:01:47Z</time>
      </trkpt>
      <trkpt lat="47.431799992918968" lon="9.650471024215221">
        <ele>406.29000000000002</ele>
        <time>2018-09-18T13:01:48Z</time>
      </trkpt>
      <trkpt lat="47.431852966547012" lon="9.650497008115053">
        <ele>405.81</ele>
        <time>2018-09-18T13:01:49Z</time>
      </trkpt>
      <trkpt lat="47.431908035650849" lon="9.650525003671646">
        <ele>405.81</ele>
        <time>2018-09-18T13:01:50Z</time>
      </trkpt>
      <trkpt lat="47.431967966258526" lon="9.650555010885">
        <ele>405.81</ele>
        <time>2018-09-18T13:01:51Z</time>
      </trkpt>
      <trkpt lat="47.432033009827137" lon="9.650587029755116">
        <ele>405.32999999999998</ele>
        <time>2018-09-18T13:01:52Z</time>
      </trkpt>
      <trkpt lat="47.432698030024767" lon="9.650946026667953">
        <ele>407.74000000000001</ele>
        <time>2018-09-18T13:02:00Z</time>
      </trkpt>
      <trkpt lat="47.433734033256769" lon="9.651600988581777">
        <ele>408.69999999999999</ele>
        <time>2018-09-18T13:02:09Z</time>
      </trkpt>
      <trkpt lat="47.433858001604676" lon="9.651682041585445">
        <ele>408.22000000000003</ele>
        <time>2018-09-18T13:02:10Z</time>
      </trkpt>
      <trkpt lat="47.433961015194654" lon="9.651713976636529">
        <ele>408.22000000000003</ele>
        <time>2018-09-18T13:02:11Z</time>
      </trkpt>
      <trkpt lat="47.43408196605742" lon="9.651751024648547">
        <ele>407.74000000000001</ele>
        <time>2018-09-18T13:02:12Z</time>
      </trkpt>
      <trkpt lat="47.434201994910836" lon="9.65175798162818">
        <ele>407.74000000000001</ele>
        <time>2018-09-18T13:02:13Z</time>
      </trkpt>
      <trkpt lat="47.434322023764253" lon="9.651738032698631">
        <ele>407.25999999999999</ele>
        <time>2018-09-18T13:02:14Z</time>
      </trkpt>
      <trkpt lat="47.434441968798637" lon="9.651719005778432">
        <ele>407.25999999999999</ele>
        <time>2018-09-18T13:02:15Z</time>
      </trkpt>
      <trkpt lat="47.434693006798625" lon="9.651690004393458">
        <ele>406.76999999999998</ele>
        <time>2018-09-18T13:02:17Z</time>
      </trkpt>
      <trkpt lat="47.434805994853377" lon="9.651731997728348">
        <ele>406.29000000000002</ele>
        <time>2018-09-18T13:02:18Z</time>
      </trkpt>
      <trkpt lat="47.434914037585258" lon="9.651771979406476">
        <ele>406.29000000000002</ele>
        <time>2018-09-18T13:02:19Z</time>
      </trkpt>
      <trkpt lat="47.435020990669727" lon="9.651814978569746">
        <ele>406.29000000000002</ele>
        <time>2018-09-18T13:02:20Z</time>
      </trkpt>
      <trkpt lat="47.435110006481409" lon="9.651910029351711">
        <ele>406.29000000000002</ele>
        <time>2018-09-18T13:02:21Z</time>
      </trkpt>
      <trkpt lat="47.435202039778233" lon="9.652008013799787">
        <ele>406.29000000000002</ele>
        <time>2018-09-18T13:02:22Z</time>
      </trkpt>
      <trkpt lat="47.435296000912786" lon="9.652108009904623">
        <ele>406.29000000000002</ele>
        <time>2018-09-18T13:02:23Z</time>
      </trkpt>
      <trkpt lat="47.435731021687388" lon="9.652588963508606">
        <ele>406.76999999999998</ele>
        <time>2018-09-18T13:02:30Z</time>
      </trkpt>
      <trkpt lat="47.435849038884044" lon="9.652685020118952">
        <ele>408.22000000000003</ele>
        <time>2018-09-18T13:02:41Z</time>
      </trkpt>
      <trkpt lat="47.436094963923097" lon="9.652901021763682">
        <ele>408.22000000000003</ele>
        <time>2018-09-18T13:02:50Z</time>
      </trkpt>
      <trkpt lat="47.436655964702368" lon="9.653632007539272">
        <ele>407.74000000000001</ele>
        <time>2018-09-18T13:02:57Z</time>
      </trkpt>
      <trkpt lat="47.436727965250611" lon="9.653768967837095">
        <ele>408.22000000000003</ele>
        <time>2018-09-18T13:02:58Z</time>
      </trkpt>
      <trkpt lat="47.436779011040926" lon="9.653922021389008">
        <ele>408.22000000000003</ele>
        <time>2018-09-18T13:02:59Z</time>
      </trkpt>
      <trkpt lat="47.436822010204196" lon="9.654069961979985">
        <ele>408.22000000000003</ele>
        <time>2018-09-18T13:03:00Z</time>
      </trkpt>
      <trkpt lat="47.436841037124395" lon="9.654381014406681">
        <ele>408.69999999999999</ele>
        <time>2018-09-18T13:03:02Z</time>
      </trkpt>
      <trkpt lat="47.436841037124395" lon="9.654538007453084">
        <ele>408.69999999999999</ele>
        <time>2018-09-18T13:03:03Z</time>
      </trkpt>
      <trkpt lat="47.436841037124395" lon="9.654699023813009">
        <ele>409.18000000000001</ele>
        <time>2018-09-18T13:03:04Z</time>
      </trkpt>
      <trkpt lat="47.436867021024227" lon="9.654862973839045">
        <ele>409.18000000000001</ele>
        <time>2018-09-18T13:03:05Z</time>
      </trkpt>
      <trkpt lat="47.436900967732072" lon="9.655010998249054">
        <ele>409.18000000000001</ele>
        <time>2018-09-18T13:03:06Z</time>
      </trkpt>
      <trkpt lat="47.436934998258948" lon="9.655158016830683">
        <ele>409.66000000000003</ele>
        <time>2018-09-18T13:03:07Z</time>
      </trkpt>
      <trkpt lat="47.436970034614205" lon="9.655308974906802">
        <ele>409.66000000000003</ele>
        <time>2018-09-18T13:03:08Z</time>
      </trkpt>
      <trkpt lat="47.437019990757108" lon="9.655417017638683">
        <ele>409.18000000000001</ele>
        <time>2018-09-18T13:03:09Z</time>
      </trkpt>
      <trkpt lat="47.437278991565108" lon="9.655973995104432">
        <ele>408.69999999999999</ele>
        <time>2018-09-18T13:03:17Z</time>
      </trkpt>
      <trkpt lat="47.437278991565108" lon="9.655973995104432">
        <ele>408.69999999999999</ele>
        <time>2018-09-18T13:03:32Z</time>
      </trkpt>
      <trkpt lat="47.437278991565108" lon="9.655973995104432">
        <ele>408.69999999999999</ele>
        <time>2018-09-18T13:03:37Z</time>
      </trkpt>
      <trkpt lat="47.43730497546494" lon="9.656029986217618">
        <ele>408.69999999999999</ele>
        <time>2018-09-18T13:03:38Z</time>
      </trkpt>
      <trkpt lat="47.437388962134719" lon="9.656211035326123">
        <ele>409.66000000000003</ele>
        <time>2018-09-18T13:03:41Z</time>
      </trkpt>
      <trkpt lat="47.437399020418525" lon="9.656231990084052">
        <ele>409.66000000000003</ele>
        <time>2018-09-18T13:03:42Z</time>
      </trkpt>
      <trkpt lat="47.437491975724697" lon="9.656210029497743">
        <ele>409.66000000000003</ele>
        <time>2018-09-18T13:03:43Z</time>
      </trkpt>
      <trkpt lat="47.43756003677845" lon="9.656210029497743">
        <ele>409.66000000000003</ele>
        <time>2018-09-18T13:03:44Z</time>
      </trkpt>
      <trkpt lat="47.437632037326694" lon="9.656210029497743">
        <ele>409.66000000000003</ele>
        <time>2018-09-18T13:03:45Z</time>
      </trkpt>
      <trkpt lat="47.437699008733034" lon="9.656210029497743">
        <ele>409.18000000000001</ele>
        <time>2018-09-18T13:03:46Z</time>
      </trkpt>
      <trkpt lat="47.437800010666251" lon="9.656232995912433">
        <ele>409.18000000000001</ele>
        <time>2018-09-18T13:03:47Z</time>
      </trkpt>
      <trkpt lat="47.437983993440866" lon="9.656274989247322">
        <ele>408.69999999999999</ele>
        <time>2018-09-18T13:03:49Z</time>
      </trkpt>
      <trkpt lat="47.438083989545703" lon="9.656297033652663">
        <ele>408.69999999999999</ele>
        <time>2018-09-18T13:03:50Z</time>
      </trkpt>
      <trkpt lat="47.438188008964062" lon="9.656324023380876">
        <ele>408.69999999999999</ele>
        <time>2018-09-18T13:03:51Z</time>
      </trkpt>
      <trkpt lat="47.439120998606086" lon="9.656966999173164">
        <ele>411.57999999999998</ele>
        <time>2018-09-18T13:04:01Z</time>
      </trkpt>
      <trkpt lat="47.439218983054161" lon="9.657036988064647">
        <ele>412.54000000000002</ele>
        <time>2018-09-18T13:04:02Z</time>
      </trkpt>
      <trkpt lat="47.44057098403573" lon="9.657777026295662">
        <ele>416.38999999999999</ele>
        <time>2018-09-18T13:04:14Z</time>
      </trkpt>
      <trkpt lat="47.441702960059047" lon="9.658040972426534">
        <ele>417.82999999999998</ele>
        <time>2018-09-18T13:04:24Z</time>
      </trkpt>
      <trkpt lat="47.441806979477406" lon="9.658098975196481">
        <ele>417.82999999999998</ele>
        <time>2018-09-18T13:04:25Z</time>
      </trkpt>
      <trkpt lat="47.441884009167552" lon="9.65814096853137">
        <ele>417.82999999999998</ele>
        <time>2018-09-18T13:04:26Z</time>
      </trkpt>
      <trkpt lat="47.441989034414291" lon="9.658274995163083">
        <ele>417.82999999999998</ele>
        <time>2018-09-18T13:04:27Z</time>
      </trkpt>
      <trkpt lat="47.442075032740831" lon="9.658384965732694">
        <ele>417.82999999999998</ele>
        <time>2018-09-18T13:04:28Z</time>
      </trkpt>
      <trkpt lat="47.44215901941061" lon="9.658492002636194">
        <ele>417.82999999999998</ele>
        <time>2018-09-18T13:04:29Z</time>
      </trkpt>
      <trkpt lat="47.442426988855004" lon="9.658831972628832">
        <ele>417.82999999999998</ele>
        <time>2018-09-18T13:04:32Z</time>
      </trkpt>
      <trkpt lat="47.443570028990507" lon="9.659896977245808">
        <ele>415.43000000000001</ele>
        <time>2018-09-18T13:04:43Z</time>
      </trkpt>
      <trkpt lat="47.444800995290279" lon="9.661066001281142">
        <ele>414.47000000000003</ele>
        <time>2018-09-18T13:04:55Z</time>
      </trkpt>
      <trkpt lat="47.445483030751348" lon="9.662163024768233">
        <ele>411.10000000000002</ele>
        <time>2018-09-18T13:05:04Z</time>
      </trkpt>
      <trkpt lat="47.445672964677215" lon="9.662525039166212">
        <ele>407.25999999999999</ele>
        <time>2018-09-18T13:05:11Z</time>
      </trkpt>
      <trkpt lat="47.44579198770225" lon="9.662789991125464">
        <ele>406.29000000000002</ele>
        <time>2018-09-18T13:05:15Z</time>
      </trkpt>
      <trkpt lat="47.445868011564016" lon="9.662957964465022">
        <ele>406.29000000000002</ele>
        <time>2018-09-18T13:05:17Z</time>
      </trkpt>
      <trkpt lat="47.445902964100242" lon="9.663035999983549">
        <ele>406.29000000000002</ele>
        <time>2018-09-18T13:05:18Z</time>
      </trkpt>
      <trkpt lat="47.445930037647486" lon="9.663224006071687">
        <ele>405.81</ele>
        <time>2018-09-18T13:05:19Z</time>
      </trkpt>
      <trkpt lat="47.445889972150326" lon="9.663302963599563">
        <ele>405.81</ele>
        <time>2018-09-18T13:05:20Z</time>
      </trkpt>
      <trkpt lat="47.445844961330295" lon="9.663393991068006">
        <ele>405.32999999999998</ele>
        <time>2018-09-18T13:05:21Z</time>
      </trkpt>
      <trkpt lat="47.445697020739317" lon="9.664021963253617">
        <ele>405.32999999999998</ele>
        <time>2018-09-18T13:05:26Z</time>
      </trkpt>
      <trkpt lat="47.445675982162356" lon="9.664166970178485">
        <ele>404.85000000000002</ele>
        <time>2018-09-18T13:05:27Z</time>
      </trkpt>
      <trkpt lat="47.445660978555679" lon="9.664316000416875">
        <ele>404.85000000000002</ele>
        <time>2018-09-18T13:05:28Z</time>
      </trkpt>
      <trkpt lat="47.445823000743985" lon="9.665931025519967">
        <ele>401.97000000000003</ele>
        <time>2018-09-18T13:05:38Z</time>
      </trkpt>
      <trkpt lat="47.446040008217096" lon="9.667926002293825">
        <ele>400.05000000000001</ele>
        <time>2018-09-18T13:05:50Z</time>
      </trkpt>
      <trkpt lat="47.446090970188379" lon="9.668778022751212">
        <ele>399.07999999999998</ele>
        <time>2018-09-18T13:05:56Z</time>
      </trkpt>
      <trkpt lat="47.446098010987043" lon="9.668936021625996">
        <ele>398.60000000000002</ele>
        <time>2018-09-18T13:05:57Z</time>
      </trkpt>
      <trkpt lat="47.446143021807075" lon="9.669980993494391">
        <ele>398.12</ele>
        <time>2018-09-18T13:06:03Z</time>
      </trkpt>
      <trkpt lat="47.44613598100841" lon="9.671795004978776">
        <ele>401.00999999999999</ele>
        <time>2018-09-18T13:06:13Z</time>
      </trkpt>
      <trkpt lat="47.446095999330282" lon="9.671974964439869">
        <ele>400.52999999999997</ele>
        <time>2018-09-18T13:06:14Z</time>
      </trkpt>
      <trkpt lat="47.445525024086237" lon="9.67332998290658">
        <ele>401.00999999999999</ele>
        <time>2018-09-18T13:06:23Z</time>
      </trkpt>
      <trkpt lat="47.444777023047209" lon="9.674340002238751">
        <ele>402.44999999999999</ele>
        <time>2018-09-18T13:06:32Z</time>
      </trkpt>
      <trkpt lat="47.444072021171451" lon="9.675109963864088">
        <ele>402.44999999999999</ele>
        <time>2018-09-18T13:06:39Z</time>
      </trkpt>
      <trkpt lat="47.443963978439569" lon="9.675224041566253">
        <ele>402.44999999999999</ele>
        <time>2018-09-18T13:06:40Z</time>
      </trkpt>
      <trkpt lat="47.443805979564786" lon="9.675522018224001">
        <ele>402.93000000000001</ele>
        <time>2018-09-18T13:06:42Z</time>
      </trkpt>
      <trkpt lat="47.443784018978477" lon="9.675683034583926">
        <ele>402.93000000000001</ele>
        <time>2018-09-18T13:06:43Z</time>
      </trkpt>
      <trkpt lat="47.443760968744755" lon="9.675852013751864">
        <ele>403.41000000000003</ele>
        <time>2018-09-18T13:06:44Z</time>
      </trkpt>
      <trkpt lat="47.443759040907025" lon="9.676043037325144">
        <ele>403.41000000000003</ele>
        <time>2018-09-18T13:06:45Z</time>
      </trkpt>
      <trkpt lat="47.443773960694671" lon="9.676249986514449">
        <ele>403.41000000000003</ele>
        <time>2018-09-18T13:06:46Z</time>
      </trkpt>
      <trkpt lat="47.44379298761487" lon="9.67650898732245">
        <ele>403.41000000000003</ele>
        <time>2018-09-18T13:06:47Z</time>
      </trkpt>
      <trkpt lat="47.443827018141747" lon="9.676742004230619">
        <ele>402.93000000000001</ele>
        <time>2018-09-18T13:06:48Z</time>
      </trkpt>
      <trkpt lat="47.444051988422871" lon="9.678449984639883">
        <ele>402.93000000000001</ele>
        <time>2018-09-18T13:06:53Z</time>
      </trkpt>
      <trkpt lat="47.44437200948596" lon="9.681010991334915">
        <ele>401.97000000000003</ele>
        <time>2018-09-18T13:07:01Z</time>
      </trkpt>
      <trkpt lat="47.444615000858903" lon="9.683311991393566">
        <ele>401.97000000000003</ele>
        <time>2018-09-18T13:07:09Z</time>
      </trkpt>
      <trkpt lat="47.444646013900638" lon="9.683541990816593">
        <ele>401.97000000000003</ele>
        <time>2018-09-18T13:07:10Z</time>
      </trkpt>
      <trkpt lat="47.44475900195539" lon="9.684546981006861">
        <ele>400.05000000000001</ele>
        <time>2018-09-18T13:07:14Z</time>
      </trkpt>
      <trkpt lat="47.444765958935022" lon="9.685534033924341">
        <ele>400.05000000000001</ele>
        <time>2018-09-18T13:07:19Z</time>
      </trkpt>
      <trkpt lat="47.444835025817156" lon="9.685872998088598">
        <ele>400.05000000000001</ele>
        <time>2018-09-18T13:07:21Z</time>
      </trkpt>
      <trkpt lat="47.445110036060214" lon="9.687274033203721">
        <ele>399.56999999999999</ele>
        <time>2018-09-18T13:07:27Z</time>
      </trkpt>
      <trkpt lat="47.445451011881232" lon="9.689869992434979">
        <ele>399.56999999999999</ele>
        <time>2018-09-18T13:07:36Z</time>
      </trkpt>
      <trkpt lat="47.445657039061189" lon="9.691902017220855">
        <ele>400.05000000000001</ele>
        <time>2018-09-18T13:07:44Z</time>
      </trkpt>
      <trkpt lat="47.445807997137308" lon="9.693852989003062">
        <ele>399.56999999999999</ele>
        <time>2018-09-18T13:07:51Z</time>
      </trkpt>
      <trkpt lat="47.446179986000061" lon="9.69614895991981">
        <ele>400.52999999999997</ele>
        <time>2018-09-18T13:08:00Z</time>
      </trkpt>
      <trkpt lat="47.446494977921247" lon="9.697686033323407">
        <ele>402.44999999999999</ele>
        <time>2018-09-18T13:08:08Z</time>
      </trkpt>
      <trkpt lat="47.446776023134589" lon="9.699103999882937">
        <ele>399.56999999999999</ele>
        <time>2018-09-18T13:08:15Z</time>
      </trkpt>
      <trkpt lat="47.446814998984337" lon="9.699193015694618">
        <ele>399.56999999999999</ele>
        <time>2018-09-18T13:08:16Z</time>
      </trkpt>
      <trkpt lat="47.446862021461129" lon="9.699297035112977">
        <ele>399.56999999999999</ele>
        <time>2018-09-18T13:08:17Z</time>
      </trkpt>
      <trkpt lat="47.447362001985312" lon="9.699780000373721">
        <ele>401.00999999999999</ele>
        <time>2018-09-18T13:08:26Z</time>
      </trkpt>
      <trkpt lat="47.447464009746909" lon="9.699877984821796">
        <ele>401.49000000000001</ele>
        <time>2018-09-18T13:08:28Z</time>
      </trkpt>
      <trkpt lat="47.447523018345237" lon="9.699935987591744">
        <ele>401.97000000000003</ele>
        <time>2018-09-18T13:08:29Z</time>
      </trkpt>
      <trkpt lat="47.447579009458423" lon="9.69999298453331">
        <ele>401.49000000000001</ele>
        <time>2018-09-18T13:08:30Z</time>
      </trkpt>
      <trkpt lat="47.447630977258086" lon="9.700045036152005">
        <ele>400.52999999999997</ele>
        <time>2018-09-18T13:08:31Z</time>
      </trkpt>
      <trkpt lat="47.447686968371272" lon="9.700100021436811">
        <ele>400.52999999999997</ele>
        <time>2018-09-18T13:08:32Z</time>
      </trkpt>
      <trkpt lat="47.447736002504826" lon="9.700146960094571">
        <ele>400.52999999999997</ele>
        <time>2018-09-18T13:08:33Z</time>
      </trkpt>
      <trkpt lat="47.447782019153237" lon="9.700188031420112">
        <ele>400.52999999999997</ele>
        <time>2018-09-18T13:08:34Z</time>
      </trkpt>
      <trkpt lat="47.447825018316507" lon="9.700226001441479">
        <ele>400.52999999999997</ele>
        <time>2018-09-18T13:08:35Z</time>
      </trkpt>
      <trkpt lat="47.447919985279441" lon="9.700309988111258">
        <ele>400.52999999999997</ele>
        <time>2018-09-18T13:08:37Z</time>
      </trkpt>
      <trkpt lat="47.448451984673738" lon="9.700892027467489">
        <ele>398.60000000000002</ele>
        <time>2018-09-18T13:08:45Z</time>
      </trkpt>
      <trkpt lat="47.449298975989223" lon="9.70220698043704">
        <ele>397.63999999999999</ele>
        <time>2018-09-18T13:08:53Z</time>
      </trkpt>
      <trkpt lat="47.450476968660951" lon="9.704424999654293">
        <ele>398.12</ele>
        <time>2018-09-18T13:09:04Z</time>
      </trkpt>
      <trkpt lat="47.451222036033869" lon="9.705705000087619">
        <ele>399.07999999999998</ele>
        <time>2018-09-18T13:09:11Z</time>
      </trkpt>
      <trkpt lat="47.452357029542327" lon="9.706569006666541">
        <ele>399.07999999999998</ele>
        <time>2018-09-18T13:09:19Z</time>
      </trkpt>
      <trkpt lat="47.454488966614008" lon="9.707779018208385">
        <ele>399.56999999999999</ele>
        <time>2018-09-18T13:09:33Z</time>
      </trkpt>
      <trkpt lat="47.454936979338527" lon="9.708016980439425">
        <ele>399.56999999999999</ele>
        <time>2018-09-18T13:09:36Z</time>
      </trkpt>
      <trkpt lat="47.455077962949872" lon="9.708046987652779">
        <ele>399.07999999999998</ele>
        <time>2018-09-18T13:09:37Z</time>
      </trkpt>
      <trkpt lat="47.455210983753204" lon="9.708074983209372">
        <ele>399.07999999999998</ele>
        <time>2018-09-18T13:09:38Z</time>
      </trkpt>
      <trkpt lat="47.455335035920143" lon="9.708101972937584">
        <ele>399.07999999999998</ele>
        <time>2018-09-18T13:09:39Z</time>
      </trkpt>
      <trkpt lat="47.455448023974895" lon="9.70815796405077">
        <ele>399.07999999999998</ele>
        <time>2018-09-18T13:09:40Z</time>
      </trkpt>
      <trkpt lat="47.455553971230984" lon="9.708257038146257">
        <ele>398.60000000000002</ele>
        <time>2018-09-18T13:09:41Z</time>
      </trkpt>
      <trkpt lat="47.455681040883064" lon="9.7083739656955">
        <ele>398.60000000000002</ele>
        <time>2018-09-18T13:09:42Z</time>
      </trkpt>
      <trkpt lat="47.455765027552843" lon="9.708516038954258">
        <ele>398.60000000000002</ele>
        <time>2018-09-18T13:09:43Z</time>
      </trkpt>
      <trkpt lat="47.456152020022273" lon="9.709235960617662">
        <ele>398.12</ele>
        <time>2018-09-18T13:09:47Z</time>
      </trkpt>
      <trkpt lat="47.456242963671684" lon="9.709437964484096">
        <ele>398.12</ele>
        <time>2018-09-18T13:09:48Z</time>
      </trkpt>
      <trkpt lat="47.456332985311747" lon="9.709649020805955">
        <ele>398.12</ele>
        <time>2018-09-18T13:09:49Z</time>
      </trkpt>
      <trkpt lat="47.456397023051977" lon="9.709885977208614">
        <ele>398.60000000000002</ele>
        <time>2018-09-18T13:09:50Z</time>
      </trkpt>
      <trkpt lat="47.456461982801557" lon="9.710126034915447">
        <ele>398.60000000000002</ele>
        <time>2018-09-18T13:09:51Z</time>
      </trkpt>
      <trkpt lat="47.456946959719062" lon="9.712322009727359">
        <ele>399.56999999999999</ele>
        <time>2018-09-18T13:10:00Z</time>
      </trkpt>
      <trkpt lat="47.457139994949102" lon="9.713992020115256">
        <ele>401.97000000000003</ele>
        <time>2018-09-18T13:10:09Z</time>
      </trkpt>
      <trkpt lat="47.456978978589177" lon="9.715776024386287">
        <ele>402.93000000000001</ele>
        <time>2018-09-18T13:10:16Z</time>
      </trkpt>
      <trkpt lat="47.456702040508389" lon="9.717447040602565">
        <ele>403.41000000000003</ele>
        <time>2018-09-18T13:10:23Z</time>
      </trkpt>
      <trkpt lat="47.456562984734774" lon="9.718798035755754">
        <ele>403.41000000000003</ele>
        <time>2018-09-18T13:10:30Z</time>
      </trkpt>
      <trkpt lat="47.456674966961145" lon="9.720495035871863">
        <ele>403.41000000000003</ele>
        <time>2018-09-18T13:10:40Z</time>
      </trkpt>
      <trkpt lat="47.456815028563142" lon="9.721387960016727">
        <ele>403.88999999999999</ele>
        <time>2018-09-18T13:10:47Z</time>
      </trkpt>
      <trkpt lat="47.456874037161469" lon="9.721814012154937">
        <ele>405.81</ele>
        <time>2018-09-18T13:10:50Z</time>
      </trkpt>
      <trkpt lat="47.457080986350775" lon="9.723301967605948">
        <ele>408.22000000000003</ele>
        <time>2018-09-18T13:11:00Z</time>
      </trkpt>
      <trkpt lat="47.457222975790501" lon="9.725030986592174">
        <ele>406.29000000000002</ele>
        <time>2018-09-18T13:11:09Z</time>
      </trkpt>
      <trkpt lat="47.457186011597514" lon="9.725456032902002">
        <ele>405.81</ele>
        <time>2018-09-18T13:11:11Z</time>
      </trkpt>
      <trkpt lat="47.456909995526075" lon="9.726685993373394">
        <ele>404.85000000000002</ele>
        <time>2018-09-18T13:11:18Z</time>
      </trkpt>
      <trkpt lat="47.456366010010242" lon="9.727980997413397">
        <ele>406.29000000000002</ele>
        <time>2018-09-18T13:11:27Z</time>
      </trkpt>
      <trkpt lat="47.456222008913755" lon="9.728414006531239">
        <ele>407.74000000000001</ele>
        <time>2018-09-18T13:11:30Z</time>
      </trkpt>
      <trkpt lat="47.456068033352494" lon="9.728894038125873">
        <ele>409.18000000000001</ele>
        <time>2018-09-18T13:11:34Z</time>
      </trkpt>
      <trkpt lat="47.45603702031076" lon="9.728995962068439">
        <ele>409.66000000000003</ele>
        <time>2018-09-18T13:11:35Z</time>
      </trkpt>
      <trkpt lat="47.455911040306091" lon="9.729049019515514">
        <ele>410.13999999999999</ele>
        <time>2018-09-18T13:11:36Z</time>
      </trkpt>
      <trkpt lat="47.455828981474042" lon="9.729057988151908">
        <ele>410.62</ele>
        <time>2018-09-18T13:11:37Z</time>
      </trkpt>
      <trkpt lat="47.45573703199625" lon="9.729067040607333">
        <ele>410.62</ele>
        <time>2018-09-18T13:11:38Z</time>
      </trkpt>
      <trkpt lat="47.455638963729143" lon="9.729078020900488">
        <ele>411.10000000000002</ele>
        <time>2018-09-18T13:11:39Z</time>
      </trkpt>
      <trkpt lat="47.455528993159533" lon="9.729080032557249">
        <ele>410.62</ele>
        <time>2018-09-18T13:11:40Z</time>
      </trkpt>
      <trkpt lat="47.455402007326484" lon="9.729080032557249">
        <ele>410.62</ele>
        <time>2018-09-18T13:11:41Z</time>
      </trkpt>
      <trkpt lat="47.455298993736506" lon="9.729139041155577">
        <ele>410.13999999999999</ele>
        <time>2018-09-18T13:11:42Z</time>
      </trkpt>
      <trkpt lat="47.45520000346005" lon="9.729248005896807">
        <ele>410.13999999999999</ele>
        <time>2018-09-18T13:11:43Z</time>
      </trkpt>
      <trkpt lat="47.455128002911806" lon="9.729397958144546">
        <ele>409.66000000000003</ele>
        <time>2018-09-18T13:11:44Z</time>
      </trkpt>
      <trkpt lat="47.455080980435014" lon="9.72957699559629">
        <ele>409.18000000000001</ele>
        <time>2018-09-18T13:11:45Z</time>
      </trkpt>
      <trkpt lat="47.455035969614983" lon="9.729760978370905">
        <ele>409.18000000000001</ele>
        <time>2018-09-18T13:11:46Z</time>
      </trkpt>
      <trkpt lat="47.454992970451713" lon="9.729947978630662">
        <ele>408.69999999999999</ele>
        <time>2018-09-18T13:11:47Z</time>
      </trkpt>
      <trkpt lat="47.454951982945204" lon="9.730127016082406">
        <ele>407.74000000000001</ele>
        <time>2018-09-18T13:11:48Z</time>
      </trkpt>
      <trkpt lat="47.454915018752217" lon="9.730288032442331">
        <ele>407.74000000000001</ele>
        <time>2018-09-18T13:11:49Z</time>
      </trkpt>
      <trkpt lat="47.454884005710483" lon="9.730421975255013">
        <ele>407.25999999999999</ele>
        <time>2018-09-18T13:11:50Z</time>
      </trkpt>
      <trkpt lat="47.45485601015389" lon="9.73054300993681">
        <ele>406.76999999999998</ele>
        <time>2018-09-18T13:11:51Z</time>
      </trkpt>
      <trkpt lat="47.454810999333858" lon="9.730693968012929">
        <ele>406.76999999999998</ele>
        <time>2018-09-18T13:11:52Z</time>
      </trkpt>
      <trkpt lat="47.454716032370925" lon="9.730727998539805">
        <ele>406.29000000000002</ele>
        <time>2018-09-18T13:11:53Z</time>
      </trkpt>
      <trkpt lat="47.454602038487792" lon="9.730769991874695">
        <ele>406.29000000000002</ele>
        <time>2018-09-18T13:11:54Z</time>
      </trkpt>
      <trkpt lat="47.454471029341221" lon="9.730817014351487">
        <ele>405.81</ele>
        <time>2018-09-18T13:11:55Z</time>
      </trkpt>
      <trkpt lat="47.453189017251134" lon="9.731278019025922">
        <ele>405.32999999999998</ele>
        <time>2018-09-18T13:12:03Z</time>
      </trkpt>
      <trkpt lat="47.451980011537671" lon="9.731709016487002">
        <ele>406.76999999999998</ele>
        <time>2018-09-18T13:12:12Z</time>
      </trkpt>
      <trkpt lat="47.451673988252878" lon="9.731818987056613">
        <ele>407.74000000000001</ele>
        <time>2018-09-18T13:12:20Z</time>
      </trkpt>
      <trkpt lat="47.451627971604466" lon="9.731836002320051">
        <ele>407.74000000000001</ele>
        <time>2018-09-18T13:12:30Z</time>
      </trkpt>
      <trkpt lat="47.451181970536709" lon="9.731997018679977">
        <ele>408.22000000000003</ele>
        <time>2018-09-18T13:12:36Z</time>
      </trkpt>
      <trkpt lat="47.450160970911384" lon="9.732357021421194">
        <ele>410.62</ele>
        <time>2018-09-18T13:12:44Z</time>
      </trkpt>
      <trkpt lat="47.448513004928827" lon="9.732938976958394">
        <ele>410.62</ele>
        <time>2018-09-18T13:12:53Z</time>
      </trkpt>
      <trkpt lat="47.446639984846115" lon="9.733591005206108">
        <ele>408.22000000000003</ele>
        <time>2018-09-18T13:13:03Z</time>
      </trkpt>
      <trkpt lat="47.445174995809793" lon="9.734045974910259">
        <ele>408.22000000000003</ele>
        <time>2018-09-18T13:13:13Z</time>
      </trkpt>
      <trkpt lat="47.444337978959084" lon="9.734318973496556">
        <ele>407.25999999999999</ele>
        <time>2018-09-18T13:13:21Z</time>
      </trkpt>
      <trkpt lat="47.444194983690977" lon="9.734373958781362">
        <ele>407.25999999999999</ele>
        <time>2018-09-18T13:13:28Z</time>
      </trkpt>
      <trkpt lat="47.443993985652924" lon="9.734436990693212">
        <ele>407.74000000000001</ele>
        <time>2018-09-18T13:13:38Z</time>
      </trkpt>
      <trkpt lat="47.443826012313366" lon="9.734487030655146">
        <ele>408.22000000000003</ele>
        <time>2018-09-18T13:13:46Z</time>
      </trkpt>
      <trkpt lat="47.443700032308698" lon="9.73452097736299">
        <ele>408.22000000000003</ele>
        <time>2018-09-18T13:13:54Z</time>
      </trkpt>
      <trkpt lat="47.443623002618551" lon="9.734500022605062">
        <ele>408.22000000000003</ele>
        <time>2018-09-18T13:13:55Z</time>
      </trkpt>
      <trkpt lat="47.443492999300361" lon="9.734402038156986">
        <ele>407.74000000000001</ele>
        <time>2018-09-18T13:13:57Z</time>
      </trkpt>
      <trkpt lat="47.443450000137091" lon="9.734422992914915">
        <ele>407.74000000000001</ele>
        <time>2018-09-18T13:13:58Z</time>
      </trkpt>
      <trkpt lat="47.443399038165808" lon="9.734466997906566">
        <ele>407.74000000000001</ele>
        <time>2018-09-18T13:13:59Z</time>
      </trkpt>
      <trkpt lat="47.443376993760467" lon="9.734528018161655">
        <ele>407.74000000000001</ele>
        <time>2018-09-18T13:14:00Z</time>
      </trkpt>
      <trkpt lat="47.443354027345777" lon="9.734591972082853">
        <ele>408.22000000000003</ele>
        <time>2018-09-18T13:14:01Z</time>
      </trkpt>
      <trkpt lat="47.443321002647281" lon="9.734680987894535">
        <ele>408.22000000000003</ele>
        <time>2018-09-18T13:14:02Z</time>
      </trkpt>
      <trkpt lat="47.443330977112055" lon="9.734747037291527">
        <ele>408.22000000000003</ele>
        <time>2018-09-18T13:14:03Z</time>
      </trkpt>
      <trkpt lat="47.443356961011887" lon="9.734849967062473">
        <ele>408.22000000000003</ele>
        <time>2018-09-18T13:14:04Z</time>
      </trkpt>
      <trkpt lat="47.443407000973821" lon="9.734917022287846">
        <ele>408.22000000000003</ele>
        <time>2018-09-18T13:14:05Z</time>
      </trkpt>
      <trkpt lat="47.443492999300361" lon="9.735019030049443">
        <ele>408.22000000000003</ele>
        <time>2018-09-18T13:14:06Z</time>
      </trkpt>
      <trkpt lat="47.443492999300361" lon="9.735151967033744">
        <ele>408.69999999999999</ele>
        <time>2018-09-18T13:14:07Z</time>
      </trkpt>
      <trkpt lat="47.443492999300361" lon="9.735302003100514">
        <ele>409.18000000000001</ele>
        <time>2018-09-18T13:14:08Z</time>
      </trkpt>
      <trkpt lat="47.443492999300361" lon="9.73546301946044">
        <ele>409.18000000000001</ele>
        <time>2018-09-18T13:14:09Z</time>
      </trkpt>
      <trkpt lat="47.443476989865303" lon="9.735634010285139">
        <ele>409.66000000000003</ele>
        <time>2018-09-18T13:14:10Z</time>
      </trkpt>
      <trkpt lat="47.443107012659311" lon="9.73754701204598">
        <ele>410.62</ele>
        <time>2018-09-18T13:14:20Z</time>
      </trkpt>
      <trkpt lat="47.442539976909757" lon="9.740034006536007">
        <ele>411.10000000000002</ele>
        <time>2018-09-18T13:14:30Z</time>
      </trkpt>
      <trkpt lat="47.441495005041361" lon="9.742879997938871">
        <ele>412.06</ele>
        <time>2018-09-18T13:14:41Z</time>
      </trkpt>
      <trkpt lat="47.439906969666481" lon="9.746381035074592">
        <ele>413.98000000000002</ele>
        <time>2018-09-18T13:14:54Z</time>
      </trkpt>
      <trkpt lat="47.438826039433479" lon="9.749340014532208">
        <ele>415.43000000000001</ele>
        <time>2018-09-18T13:15:05Z</time>
      </trkpt>
      <trkpt lat="47.438335027545691" lon="9.751184033229947">
        <ele>416.87</ele>
        <time>2018-09-18T13:15:14Z</time>
      </trkpt>
      <trkpt lat="47.437957003712654" lon="9.753520991653204">
        <ele>413.98000000000002</ele>
        <time>2018-09-18T13:15:25Z</time>
      </trkpt>
      <trkpt lat="47.437922973185778" lon="9.753765994682908">
        <ele>413.98000000000002</ele>
        <time>2018-09-18T13:15:26Z</time>
      </trkpt>
      <trkpt lat="47.43773203343153" lon="9.75611099973321">
        <ele>417.82999999999998</ele>
        <time>2018-09-18T13:15:36Z</time>
      </trkpt>
      <trkpt lat="47.437616027891636" lon="9.758533034473658">
        <ele>419.75</ele>
        <time>2018-09-18T13:15:46Z</time>
      </trkpt>
      <trkpt lat="47.437601024284959" lon="9.758806033059955">
        <ele>420.23000000000002</ele>
        <time>2018-09-18T13:15:47Z</time>
      </trkpt>
      <trkpt lat="47.437586020678282" lon="9.759071990847588">
        <ele>420.23000000000002</ele>
        <time>2018-09-18T13:15:48Z</time>
      </trkpt>
      <trkpt lat="47.437531035393476" lon="9.759929962456226">
        <ele>420.23000000000002</ele>
        <time>2018-09-18T13:15:51Z</time>
      </trkpt>
      <trkpt lat="47.435003975406289" lon="9.768649991601706">
        <ele>420.23000000000002</ele>
        <time>2018-09-18T13:16:22Z</time>
      </trkpt>
      <trkpt lat="47.434717984870076" lon="9.769800994545221">
        <ele>420.23000000000002</ele>
        <time>2018-09-18T13:16:26Z</time>
      </trkpt>
      <trkpt lat="47.434190008789301" lon="9.773404039442539">
        <ele>420.23000000000002</ele>
        <time>2018-09-18T13:16:38Z</time>
      </trkpt>
      <trkpt lat="47.434201994910836" lon="9.778308961540461">
        <ele>420.23000000000002</ele>
        <time>2018-09-18T13:16:54Z</time>
      </trkpt>
      <trkpt lat="47.434752015396953" lon="9.781898008659482">
        <ele>420.23000000000002</ele>
        <time>2018-09-18T13:17:06Z</time>
      </trkpt>
      <trkpt lat="47.435428015887737" lon="9.784477036446333">
        <ele>420.23000000000002</ele>
        <time>2018-09-18T13:17:15Z</time>
      </trkpt>
      <trkpt lat="47.437243033200502" lon="9.788590958341956">
        <ele>420.23000000000002</ele>
        <time>2018-09-18T13:17:31Z</time>
      </trkpt>
      <trkpt lat="47.438388001173735" lon="9.790374040603638">
        <ele>420.23000000000002</ele>
        <time>2018-09-18T13:17:39Z</time>
      </trkpt>
      <trkpt lat="47.43951503187418" lon="9.791739033535123">
        <ele>420.23000000000002</ele>
        <time>2018-09-18T13:17:46Z</time>
      </trkpt>
      <trkpt lat="47.440553968772292" lon="9.792761960998178">
        <ele>420.23000000000002</ele>
        <time>2018-09-18T13:17:52Z</time>
      </trkpt>
      <trkpt lat="47.443624008446932" lon="9.79536596685648">
        <ele>420.23000000000002</ele>
        <time>2018-09-18T13:18:09Z</time>
      </trkpt>
      <trkpt lat="47.444666968658566" lon="9.796853000298142">
        <ele>420.23000000000002</ele>
        <time>2018-09-18T13:18:16Z</time>
      </trkpt>
      <trkpt lat="47.444894034415483" lon="9.797367984429002">
        <ele>420.23000000000002</ele>
        <time>2018-09-18T13:18:18Z</time>
      </trkpt>
      <trkpt lat="47.445416981354356" lon="9.798696013167501">
        <ele>420.23000000000002</ele>
        <time>2018-09-18T13:18:23Z</time>
      </trkpt>
      <trkpt lat="47.444232031702995" lon="9.796112962067127">
        <ele>591.83000000000004</ele>
        <time>2018-09-18T13:18:24Z</time>
      </trkpt>
      <trkpt lat="47.445113975554705" lon="9.797904007136822">
        <ele>605.28999999999996</ele>
        <time>2018-09-18T13:18:33Z</time>
      </trkpt>
      <trkpt lat="47.445830041542649" lon="9.799971990287304">
        <ele>615.38</ele>
        <time>2018-09-18T13:18:42Z</time>
      </trkpt>
      <trkpt lat="47.445947974920273" lon="9.800101993605495">
        <ele>616.34000000000003</ele>
        <time>2018-09-18T13:18:43Z</time>
      </trkpt>
      <trkpt lat="47.446088958531618" lon="9.800254963338375">
        <ele>617.29999999999995</ele>
        <time>2018-09-18T13:18:44Z</time>
      </trkpt>
      <trkpt lat="47.446206975728273" lon="9.800322018563747">
        <ele>617.77999999999997</ele>
        <time>2018-09-18T13:18:45Z</time>
      </trkpt>
      <trkpt lat="47.446351982653141" lon="9.800402987748385">
        <ele>618.75</ele>
        <time>2018-09-18T13:18:46Z</time>
      </trkpt>
      <trkpt lat="47.446486009284854" lon="9.800525028258562">
        <ele>619.23000000000002</ele>
        <time>2018-09-18T13:18:47Z</time>
      </trkpt>
      <trkpt lat="47.446582987904549" lon="9.800662994384766">
        <ele>619.71000000000004</ele>
        <time>2018-09-18T13:18:48Z</time>
      </trkpt>
      <trkpt lat="47.446675021201372" lon="9.800890982151032">
        <ele>620.19000000000005</ele>
        <time>2018-09-18T13:18:49Z</time>
      </trkpt>
      <trkpt lat="47.446755990386009" lon="9.801091980189085">
        <ele>620.66999999999996</ele>
        <time>2018-09-18T13:18:50Z</time>
      </trkpt>
      <trkpt lat="47.447202997282147" lon="9.802393019199371">
        <ele>627.88</ele>
        <time>2018-09-18T13:18:58Z</time>
      </trkpt>
      <trkpt lat="47.447414975613356" lon="9.803924979642034">
        <ele>633.64999999999998</ele>
        <time>2018-09-18T13:19:07Z</time>
      </trkpt>
      <trkpt lat="47.44766098447144" lon="9.805006999522448">
        <ele>637.00999999999999</ele>
        <time>2018-09-18T13:19:12Z</time>
      </trkpt>
      <trkpt lat="47.447742037475109" lon="9.805190982297063">
        <ele>637.49000000000001</ele>
        <time>2018-09-18T13:19:13Z</time>
      </trkpt>
      <trkpt lat="47.447859970852733" lon="9.805327020585537">
        <ele>637.97000000000003</ele>
        <time>2018-09-18T13:19:14Z</time>
      </trkpt>
      <trkpt lat="47.447979999706149" lon="9.805464986711741">
        <ele>638.92999999999995</ele>
        <time>2018-09-18T13:19:15Z</time>
      </trkpt>
      <trkpt lat="47.448102962225676" lon="9.805606976151466">
        <ele>639.40999999999997</ele>
        <time>2018-09-18T13:19:16Z</time>
      </trkpt>
      <trkpt lat="47.448217961937189" lon="9.80578601360321">
        <ele>639.88999999999999</ele>
        <time>2018-09-18T13:19:17Z</time>
      </trkpt>
      <trkpt lat="47.448319969698787" lon="9.806004026904702">
        <ele>640.86000000000001</ele>
        <time>2018-09-18T13:19:18Z</time>
      </trkpt>
      <trkpt lat="47.448426000773907" lon="9.806231008842588">
        <ele>641.34000000000003</ele>
        <time>2018-09-18T13:19:19Z</time>
      </trkpt>
      <trkpt lat="47.448504036292434" lon="9.806481963023543">
        <ele>641.82000000000005</ele>
        <time>2018-09-18T13:19:20Z</time>
      </trkpt>
      <trkpt lat="47.448562039062381" lon="9.806746998801827">
        <ele>642.77999999999997</ele>
        <time>2018-09-18T13:19:21Z</time>
      </trkpt>
      <trkpt lat="47.448616018518806" lon="9.806998036801815">
        <ele>643.25999999999999</ele>
        <time>2018-09-18T13:19:22Z</time>
      </trkpt>
      <trkpt lat="47.448681984096766" lon="9.807233987376094">
        <ele>643.74000000000001</ele>
        <time>2018-09-18T13:19:23Z</time>
      </trkpt>
      <trkpt lat="47.448763037100434" lon="9.807468010112643">
        <ele>644.70000000000005</ele>
        <time>2018-09-18T13:19:24Z</time>
      </trkpt>
      <trkpt lat="47.448848029598594" lon="9.807708989828825">
        <ele>645.17999999999995</ele>
        <time>2018-09-18T13:19:25Z</time>
      </trkpt>
      <trkpt lat="47.448934027925134" lon="9.80795600451529">
        <ele>645.65999999999997</ele>
        <time>2018-09-18T13:19:26Z</time>
      </trkpt>
      <trkpt lat="47.449000999331474" lon="9.808209976181388">
        <ele>646.62</ele>
        <time>2018-09-18T13:19:27Z</time>
      </trkpt>
      <trkpt lat="47.449358990415931" lon="9.80963003821671">
        <ele>652.87</ele>
        <time>2018-09-18T13:19:34Z</time>
      </trkpt>
      <trkpt lat="47.44980700314045" lon="9.811462992802262">
        <ele>656.72000000000003</ele>
        <time>2018-09-18T13:19:45Z</time>
      </trkpt>
      <trkpt lat="47.450213022530079" lon="9.812864027917385">
        <ele>657.67999999999995</ele>
        <time>2018-09-18T13:19:52Z</time>
      </trkpt>
      <trkpt lat="47.450225008651614" lon="9.813119005411863">
        <ele>658.15999999999997</ele>
        <time>2018-09-18T13:19:53Z</time>
      </trkpt>
      <trkpt lat="47.450236994773149" lon="9.813383035361767">
        <ele>658.15999999999997</ele>
        <time>2018-09-18T13:19:54Z</time>
      </trkpt>
      <trkpt lat="47.4502809997648" lon="9.8141860216856">
        <ele>659.60000000000002</ele>
        <time>2018-09-18T13:19:57Z</time>
      </trkpt>
      <trkpt lat="47.450343025848269" lon="9.814410991966724">
        <ele>660.08000000000004</ele>
        <time>2018-09-18T13:19:58Z</time>
      </trkpt>
      <trkpt lat="47.450405973941088" lon="9.81463797390461">
        <ele>660.08000000000004</ele>
        <time>2018-09-18T13:19:59Z</time>
      </trkpt>
      <trkpt lat="47.450836971402168" lon="9.816712997853756">
        <ele>665.37</ele>
        <time>2018-09-18T13:20:08Z</time>
      </trkpt>
      <trkpt lat="47.451056996360421" lon="9.818071033805609">
        <ele>667.76999999999998</ele>
        <time>2018-09-18T13:20:15Z</time>
      </trkpt>
      <trkpt lat="47.451518001034856" lon="9.82007497921586">
        <ele>674.5</ele>
        <time>2018-09-18T13:20:26Z</time>
      </trkpt>
      <trkpt lat="47.451596958562732" lon="9.82041503302753">
        <ele>676.41999999999996</ele>
        <time>2018-09-18T13:20:28Z</time>
      </trkpt>
      <trkpt lat="47.452030973508954" lon="9.822215968742967">
        <ele>683.14999999999998</ele>
        <time>2018-09-18T13:20:38Z</time>
      </trkpt>
      <trkpt lat="47.452367004007101" lon="9.824223015457392">
        <ele>689.39999999999998</ele>
        <time>2018-09-18T13:20:47Z</time>
      </trkpt>
      <trkpt lat="47.452389970421791" lon="9.824443040415645">
        <ele>690.84000000000003</ele>
        <time>2018-09-18T13:20:48Z</time>
      </trkpt>
      <trkpt lat="47.452469011768699" lon="9.825622960925102">
        <ele>695.16999999999996</ele>
        <time>2018-09-18T13:20:54Z</time>
      </trkpt>
      <trkpt lat="47.452449984848499" lon="9.825818007811904">
        <ele>696.13</ele>
        <time>2018-09-18T13:20:55Z</time>
      </trkpt>
      <trkpt lat="47.452402040362358" lon="9.826010037213564">
        <ele>696.61000000000001</ele>
        <time>2018-09-18T13:20:56Z</time>
      </trkpt>
      <trkpt lat="47.452327022328973" lon="9.826194019988179">
        <ele>697.57000000000005</ele>
        <time>2018-09-18T13:20:57Z</time>
      </trkpt>
      <trkpt lat="47.452227026224136" lon="9.826354030519724">
        <ele>698.04999999999995</ele>
        <time>2018-09-18T13:20:58Z</time>
      </trkpt>
      <trkpt lat="47.452116971835494" lon="9.826498031616211">
        <ele>699.01999999999998</ele>
        <time>2018-09-18T13:20:59Z</time>
      </trkpt>
      <trkpt lat="47.451164033263922" lon="9.827749030664563">
        <ele>708.14999999999998</ele>
        <time>2018-09-18T13:21:09Z</time>
      </trkpt>
      <trkpt lat="47.450404968112707" lon="9.828911013901234">
        <ele>716.79999999999995</ele>
        <time>2018-09-18T13:21:18Z</time>
      </trkpt>
      <trkpt lat="47.450299020856619" lon="9.829149981960654">
        <ele>717.27999999999997</ele>
        <time>2018-09-18T13:21:20Z</time>
      </trkpt>
      <trkpt lat="47.450284017249942" lon="9.829278979450464">
        <ele>717.75999999999999</ele>
        <time>2018-09-18T13:21:21Z</time>
      </trkpt>
      <trkpt lat="47.450274964794517" lon="9.829410994425416">
        <ele>718.24000000000001</ele>
        <time>2018-09-18T13:21:22Z</time>
      </trkpt>
      <trkpt lat="47.450286028906703" lon="9.82954996638">
        <ele>718.72000000000003</ele>
        <time>2018-09-18T13:21:23Z</time>
      </trkpt>
      <trkpt lat="47.450302038341761" lon="9.829689022153616">
        <ele>719.67999999999995</ele>
        <time>2018-09-18T13:21:24Z</time>
      </trkpt>
      <trkpt lat="47.450327016413212" lon="9.829823970794678">
        <ele>720.15999999999997</ele>
        <time>2018-09-18T13:21:25Z</time>
      </trkpt>
      <trkpt lat="47.450351994484663" lon="9.82995598576963">
        <ele>720.64999999999998</ele>
        <time>2018-09-18T13:21:26Z</time>
      </trkpt>
      <trkpt lat="47.450445033609867" lon="9.830672973766923">
        <ele>720.64999999999998</ele>
        <time>2018-09-18T13:21:32Z</time>
      </trkpt>
      <trkpt lat="47.450386025011539" lon="9.832095969468355">
        <ele>720.15999999999997</ele>
        <time>2018-09-18T13:21:43Z</time>
      </trkpt>
      <trkpt lat="47.450393987819552" lon="9.83225698582828">
        <ele>720.64999999999998</ele>
        <time>2018-09-18T13:21:44Z</time>
      </trkpt>
      <trkpt lat="47.45040999725461" lon="9.832586981356144">
        <ele>721.61000000000001</ele>
        <time>2018-09-18T13:21:46Z</time>
      </trkpt>
      <trkpt lat="47.450417960062623" lon="9.832760989665985">
        <ele>723.04999999999995</ele>
        <time>2018-09-18T13:21:47Z</time>
      </trkpt>
      <trkpt lat="47.450441010296345" lon="9.83294103294611">
        <ele>723.52999999999997</ele>
        <time>2018-09-18T13:21:48Z</time>
      </trkpt>
      <trkpt lat="47.450481997802854" lon="9.833101965487003">
        <ele>724.49000000000001</ele>
        <time>2018-09-18T13:21:49Z</time>
      </trkpt>
      <trkpt lat="47.450531031936407" lon="9.833235992118716">
        <ele>724.97000000000003</ele>
        <time>2018-09-18T13:21:50Z</time>
      </trkpt>
      <trkpt lat="47.450618036091328" lon="9.833399020135403">
        <ele>725.45000000000005</ele>
        <time>2018-09-18T13:21:51Z</time>
      </trkpt>
      <trkpt lat="47.45068802498281" lon="9.833530029281974">
        <ele>725.45000000000005</ele>
        <time>2018-09-18T13:21:52Z</time>
      </trkpt>
      <trkpt lat="47.451418004930019" lon="9.834866020828486">
        <ele>727.86000000000001</ele>
        <time>2018-09-18T13:22:03Z</time>
      </trkpt>
      <trkpt lat="47.452418971806765" lon="9.836582969874144">
        <ele>730.25999999999999</ele>
        <time>2018-09-18T13:22:17Z</time>
      </trkpt>
      <trkpt lat="47.45311701670289" lon="9.838160024955869">
        <ele>728.34000000000003</ele>
        <time>2018-09-18T13:22:27Z</time>
      </trkpt>
      <trkpt lat="47.453856971114874" lon="9.840261032804847">
        <ele>725.92999999999995</ele>
        <time>2018-09-18T13:22:39Z</time>
      </trkpt>
      <trkpt lat="47.454575970768929" lon="9.842149978503585">
        <ele>722.57000000000005</ele>
        <time>2018-09-18T13:22:50Z</time>
      </trkpt>
      <trkpt lat="47.455139989033341" lon="9.843702977523208">
        <ele>720.64999999999998</ele>
        <time>2018-09-18T13:22:58Z</time>
      </trkpt>
      <trkpt lat="47.455982035025954" lon="9.845108035951853">
        <ele>720.64999999999998</ele>
        <time>2018-09-18T13:23:07Z</time>
      </trkpt>
      <trkpt lat="47.456072978675365" lon="9.845250025391579">
        <ele>720.64999999999998</ele>
        <time>2018-09-18T13:23:08Z</time>
      </trkpt>
      <trkpt lat="47.456139028072357" lon="9.845433002337813">
        <ele>720.64999999999998</ele>
        <time>2018-09-18T13:23:09Z</time>
      </trkpt>
      <trkpt lat="47.456257967278361" lon="9.845801973715425">
        <ele>721.13</ele>
        <time>2018-09-18T13:23:11Z</time>
      </trkpt>
      <trkpt lat="47.456609001383185" lon="9.847675999626517">
        <ele>723.04999999999995</ele>
        <time>2018-09-18T13:23:20Z</time>
      </trkpt>
      <trkpt lat="47.456663986667991" lon="9.847881020978093">
        <ele>723.52999999999997</ele>
        <time>2018-09-18T13:23:21Z</time>
      </trkpt>
      <trkpt lat="47.456741016358137" lon="9.848071960732341">
        <ele>723.52999999999997</ele>
        <time>2018-09-18T13:23:22Z</time>
      </trkpt>
      <trkpt lat="47.456832965835929" lon="9.848242029547691">
        <ele>724.00999999999999</ele>
        <time>2018-09-18T13:23:23Z</time>
      </trkpt>
      <trkpt lat="47.456921981647611" lon="9.848406985402107">
        <ele>724.00999999999999</ele>
        <time>2018-09-18T13:23:24Z</time>
      </trkpt>
      <trkpt lat="47.457013009116054" lon="9.848565990105271">
        <ele>724.00999999999999</ele>
        <time>2018-09-18T13:23:25Z</time>
      </trkpt>
      <trkpt lat="47.457104958593845" lon="9.848719965666533">
        <ele>724.00999999999999</ele>
        <time>2018-09-18T13:23:26Z</time>
      </trkpt>
      <trkpt lat="47.457923032343388" lon="9.849831992760301">
        <ele>724.97000000000003</ele>
        <time>2018-09-18T13:23:35Z</time>
      </trkpt>
      <trkpt lat="47.458773041144013" lon="9.850845029577613">
        <ele>724.49000000000001</ele>
        <time>2018-09-18T13:23:44Z</time>
      </trkpt>
      <trkpt lat="47.459812983870506" lon="9.852058980613947">
        <ele>719.20000000000005</ele>
        <time>2018-09-18T13:23:52Z</time>
      </trkpt>
      <trkpt lat="47.461056020110846" lon="9.853293970227242">
        <ele>711.02999999999997</ele>
        <time>2018-09-18T13:24:01Z</time>
      </trkpt>
      <trkpt lat="47.462038965895772" lon="9.85416904091835">
        <ele>706.71000000000004</ele>
        <time>2018-09-18T13:24:10Z</time>
      </trkpt>
      <trkpt lat="47.46211800724268" lon="9.854318993166089">
        <ele>705.75</ele>
        <time>2018-09-18T13:24:11Z</time>
      </trkpt>
      <trkpt lat="47.462197970598936" lon="9.85447196289897">
        <ele>705.25999999999999</ele>
        <time>2018-09-18T13:24:12Z</time>
      </trkpt>
      <trkpt lat="47.46224700473249" lon="9.854635996744037">
        <ele>704.29999999999995</ele>
        <time>2018-09-18T13:24:13Z</time>
      </trkpt>
      <trkpt lat="47.46224700473249" lon="9.85483598895371">
        <ele>703.34000000000003</ele>
        <time>2018-09-18T13:24:14Z</time>
      </trkpt>
      <trkpt lat="47.46224700473249" lon="9.855036986991763">
        <ele>702.86000000000001</ele>
        <time>2018-09-18T13:24:15Z</time>
      </trkpt>
      <trkpt lat="47.46218497864902" lon="9.855205966159701">
        <ele>702.86000000000001</ele>
        <time>2018-09-18T13:24:16Z</time>
      </trkpt>
      <trkpt lat="47.462122030556202" lon="9.855380980297923">
        <ele>702.38</ele>
        <time>2018-09-18T13:24:17Z</time>
      </trkpt>
      <trkpt lat="47.462049024179578" lon="9.855532022193074">
        <ele>702.38</ele>
        <time>2018-09-18T13:24:18Z</time>
      </trkpt>
      <trkpt lat="47.461928995326161" lon="9.855633024126291">
        <ele>701.89999999999998</ele>
        <time>2018-09-18T13:24:19Z</time>
      </trkpt>
      <trkpt lat="47.461805026978254" lon="9.855737965553999">
        <ele>700.94000000000005</ele>
        <time>2018-09-18T13:24:20Z</time>
      </trkpt>
      <trkpt lat="47.461565975099802" lon="9.855981962755323">
        <ele>699.98000000000002</ele>
        <time>2018-09-18T13:24:22Z</time>
      </trkpt>
      <trkpt lat="47.461450975388288" lon="9.856139039620757">
        <ele>699.98000000000002</ele>
        <time>2018-09-18T13:24:23Z</time>
      </trkpt>
      <trkpt lat="47.46134402230382" lon="9.856315981596708">
        <ele>699.5</ele>
        <time>2018-09-18T13:24:24Z</time>
      </trkpt>
      <trkpt lat="47.460482027381659" lon="9.858034020289779">
        <ele>699.98000000000002</ele>
        <time>2018-09-18T13:24:33Z</time>
      </trkpt>
      <trkpt lat="47.460092017427087" lon="9.859269009903073">
        <ele>697.09000000000003</ele>
        <time>2018-09-18T13:24:39Z</time>
      </trkpt>
      <trkpt lat="47.460009036585689" lon="9.85945500433445">
        <ele>697.09000000000003</ele>
        <time>2018-09-18T13:24:40Z</time>
      </trkpt>
      <trkpt lat="47.459920020774007" lon="9.859633035957813">
        <ele>696.61000000000001</ele>
        <time>2018-09-18T13:24:41Z</time>
      </trkpt>
      <trkpt lat="47.459807032719254" lon="9.859804026782513">
        <ele>696.13</ele>
        <time>2018-09-18T13:24:42Z</time>
      </trkpt>
      <trkpt lat="47.459693038836122" lon="9.859977029263973">
        <ele>695.16999999999996</ele>
        <time>2018-09-18T13:24:43Z</time>
      </trkpt>
      <trkpt lat="47.458634991198778" lon="9.861305980011821">
        <ele>691.80999999999995</ele>
        <time>2018-09-18T13:24:52Z</time>
      </trkpt>
      <trkpt lat="47.458537006750703" lon="9.861469008028507">
        <ele>691.80999999999995</ele>
        <time>2018-09-18T13:24:53Z</time>
      </trkpt>
      <trkpt lat="47.458448996767402" lon="9.86164603382349">
        <ele>691.33000000000004</ele>
        <time>2018-09-18T13:24:54Z</time>
      </trkpt>
      <trkpt lat="47.458396023139358" lon="9.861873015761375">
        <ele>690.84000000000003</ele>
        <time>2018-09-18T13:24:55Z</time>
      </trkpt>
      <trkpt lat="47.458342965692282" lon="9.862094968557358">
        <ele>689.88</ele>
        <time>2018-09-18T13:24:56Z</time>
      </trkpt>
      <trkpt lat="47.458293009549379" lon="9.862307030707598">
        <ele>688.91999999999996</ele>
        <time>2018-09-18T13:24:57Z</time>
      </trkpt>
      <trkpt lat="47.457811972126365" lon="9.864352969452739">
        <ele>683.63</ele>
        <time>2018-09-18T13:25:07Z</time>
      </trkpt>
      <trkpt lat="47.457337975502014" lon="9.866368984803557">
        <ele>677.38999999999999</ele>
        <time>2018-09-18T13:25:17Z</time>
      </trkpt>
      <trkpt lat="47.457224987447262" lon="9.866883968934417">
        <ele>675.94000000000005</ele>
        <time>2018-09-18T13:25:20Z</time>
      </trkpt>
      <trkpt lat="47.457163967192173" lon="9.867045991122723">
        <ele>674.98000000000002</ele>
        <time>2018-09-18T13:25:21Z</time>
      </trkpt>
      <trkpt lat="47.457076041027904" lon="9.867187980562449">
        <ele>674.01999999999998</ele>
        <time>2018-09-18T13:25:22Z</time>
      </trkpt>
      <trkpt lat="47.456975961104035" lon="9.867310021072626">
        <ele>673.05999999999995</ele>
        <time>2018-09-18T13:25:23Z</time>
      </trkpt>
      <trkpt lat="47.456851992756128" lon="9.867385039106011">
        <ele>672.10000000000002</ele>
        <time>2018-09-18T13:25:24Z</time>
      </trkpt>
      <trkpt lat="47.456728024408221" lon="9.867458967491984">
        <ele>671.13999999999999</ele>
        <time>2018-09-18T13:25:25Z</time>
      </trkpt>
      <trkpt lat="47.456499030813575" lon="9.86759701743722">
        <ele>669.70000000000005</ele>
        <time>2018-09-18T13:25:27Z</time>
      </trkpt>
      <trkpt lat="47.456411020830274" lon="9.867700031027198">
        <ele>668.73000000000002</ele>
        <time>2018-09-18T13:25:28Z</time>
      </trkpt>
      <trkpt lat="47.456342037767172" lon="9.867829028517008">
        <ele>668.25</ele>
        <time>2018-09-18T13:25:29Z</time>
      </trkpt>
      <trkpt lat="47.456284034997225" lon="9.867983004078269">
        <ele>666.80999999999995</ele>
        <time>2018-09-18T13:25:30Z</time>
      </trkpt>
      <trkpt lat="47.456237012520432" lon="9.868144020438194">
        <ele>666.33000000000004</ele>
        <time>2018-09-18T13:25:31Z</time>
      </trkpt>
      <trkpt lat="47.456230977550149" lon="9.868330014869571">
        <ele>665.37</ele>
        <time>2018-09-18T13:25:32Z</time>
      </trkpt>
      <trkpt lat="47.456224020570517" lon="9.868518020957708">
        <ele>664.88999999999999</ele>
        <time>2018-09-18T13:25:33Z</time>
      </trkpt>
      <trkpt lat="47.456154031679034" lon="9.869516976177692">
        <ele>660.08000000000004</ele>
        <time>2018-09-18T13:25:39Z</time>
      </trkpt>
      <trkpt lat="47.4561230186373" lon="9.869670029729605">
        <ele>659.60000000000002</ele>
        <time>2018-09-18T13:25:40Z</time>
      </trkpt>
      <trkpt lat="47.456069039180875" lon="9.86981101334095">
        <ele>659.12</ele>
        <time>2018-09-18T13:25:41Z</time>
      </trkpt>
      <trkpt lat="47.45599502697587" lon="9.869945039972663">
        <ele>658.63999999999999</ele>
        <time>2018-09-18T13:25:42Z</time>
      </trkpt>
      <trkpt lat="47.455920008942485" lon="9.870080994442105">
        <ele>658.63999999999999</ele>
        <time>2018-09-18T13:25:43Z</time>
      </trkpt>
      <trkpt lat="47.455834010615945" lon="9.870204040780664">
        <ele>658.15999999999997</ele>
        <time>2018-09-18T13:25:44Z</time>
      </trkpt>
      <trkpt lat="47.455735020339489" lon="9.870303031057119">
        <ele>657.67999999999995</ele>
        <time>2018-09-18T13:25:45Z</time>
      </trkpt>
      <trkpt lat="47.455448023974895" lon="9.870568988844752">
        <ele>656.72000000000003</ele>
        <time>2018-09-18T13:25:48Z</time>
      </trkpt>
      <trkpt lat="47.455344004556537" lon="9.870616011321545">
        <ele>656.24000000000001</ele>
        <time>2018-09-18T13:25:49Z</time>
      </trkpt>
      <trkpt lat="47.455220958217978" lon="9.870649036020041">
        <ele>655.75999999999999</ele>
        <time>2018-09-18T13:25:50Z</time>
      </trkpt>
      <trkpt lat="47.455101013183594" lon="9.870610982179642">
        <ele>655.27999999999997</ele>
        <time>2018-09-18T13:25:51Z</time>
      </trkpt>
      <trkpt lat="47.454978972673416" lon="9.870573012158275">
        <ele>654.30999999999995</ele>
        <time>2018-09-18T13:25:52Z</time>
      </trkpt>
      <trkpt lat="47.454858021810651" lon="9.870535964146256">
        <ele>653.83000000000004</ele>
        <time>2018-09-18T13:25:53Z</time>
      </trkpt>
      <trkpt lat="47.454743022099137" lon="9.870500005781651">
        <ele>653.35000000000002</ele>
        <time>2018-09-18T13:25:54Z</time>
      </trkpt>
      <trkpt lat="47.454637996852398" lon="9.870467986911535">
        <ele>652.87</ele>
        <time>2018-09-18T13:25:55Z</time>
      </trkpt>
      <trkpt lat="47.454542024061084" lon="9.870445020496845">
        <ele>652.38999999999999</ele>
        <time>2018-09-18T13:25:56Z</time>
      </trkpt>
      <trkpt lat="47.454132987186313" lon="9.870350975543261">
        <ele>651.42999999999995</ele>
        <time>2018-09-18T13:26:00Z</time>
      </trkpt>
      <trkpt lat="47.454023016616702" lon="9.870324991643429">
        <ele>650.95000000000005</ele>
        <time>2018-09-18T13:26:01Z</time>
      </trkpt>
      <trkpt lat="47.453723028302193" lon="9.870294984430075">
        <ele>650.47000000000003</ele>
        <time>2018-09-18T13:26:04Z</time>
      </trkpt>
      <trkpt lat="47.453636024147272" lon="9.870323985815048">
        <ele>650.47000000000003</ele>
        <time>2018-09-18T13:26:05Z</time>
      </trkpt>
      <trkpt lat="47.453552959486842" lon="9.870382994413376">
        <ele>649.99000000000001</ele>
        <time>2018-09-18T13:26:06Z</time>
      </trkpt>
      <trkpt lat="47.453470984473825" lon="9.870463963598013">
        <ele>649.99000000000001</ele>
        <time>2018-09-18T13:26:07Z</time>
      </trkpt>
      <trkpt lat="47.45341801084578" lon="9.870580974966288">
        <ele>649.50999999999999</ele>
        <time>2018-09-18T13:26:08Z</time>
      </trkpt>
      <trkpt lat="47.453376017510891" lon="9.870707038789988">
        <ele>649.02999999999997</ele>
        <time>2018-09-18T13:26:09Z</time>
      </trkpt>
      <trkpt lat="47.453346010297537" lon="9.870833018794656">
        <ele>648.07000000000005</ele>
        <time>2018-09-18T13:26:10Z</time>
      </trkpt>
      <trkpt lat="47.453364031389356" lon="9.870964027941227">
        <ele>646.13999999999999</ele>
        <time>2018-09-18T13:26:11Z</time>
      </trkpt>
      <trkpt lat="47.453384986147285" lon="9.871109034866095">
        <ele>644.70000000000005</ele>
        <time>2018-09-18T13:26:12Z</time>
      </trkpt>
      <trkpt lat="47.453448018059134" lon="9.871201990172267">
        <ele>643.74000000000001</ele>
        <time>2018-09-18T13:26:13Z</time>
      </trkpt>
      <trkpt lat="47.453523958101869" lon="9.871313972398639">
        <ele>642.29999999999995</ele>
        <time>2018-09-18T13:26:14Z</time>
      </trkpt>
      <trkpt lat="47.453602999448776" lon="9.871429977938533">
        <ele>641.34000000000003</ele>
        <time>2018-09-18T13:26:15Z</time>
      </trkpt>
      <trkpt lat="47.453682962805033" lon="9.871547995135188">
        <ele>640.38</ele>
        <time>2018-09-18T13:26:16Z</time>
      </trkpt>
      <trkpt lat="47.45391103439033" lon="9.871948985382915">
        <ele>638.45000000000005</ele>
        <time>2018-09-18T13:26:19Z</time>
      </trkpt>
      <trkpt lat="47.454041037708521" lon="9.872247967869043">
        <ele>637.00999999999999</ele>
        <time>2018-09-18T13:26:21Z</time>
      </trkpt>
      <trkpt lat="47.454162994399667" lon="9.872564971446991">
        <ele>636.52999999999997</ele>
        <time>2018-09-18T13:26:23Z</time>
      </trkpt>
      <trkpt lat="47.454185960814357" lon="9.872740991413593">
        <ele>636.04999999999995</ele>
        <time>2018-09-18T13:26:24Z</time>
      </trkpt>
      <trkpt lat="47.454209011048079" lon="9.872923968359828">
        <ele>635.57000000000005</ele>
        <time>2018-09-18T13:26:25Z</time>
      </trkpt>
      <trkpt lat="47.454218985512853" lon="9.873107029125094">
        <ele>635.57000000000005</ele>
        <time>2018-09-18T13:26:26Z</time>
      </trkpt>
      <trkpt lat="47.454214040189981" lon="9.873298974707723">
        <ele>635.09000000000003</ele>
        <time>2018-09-18T13:26:27Z</time>
      </trkpt>
      <trkpt lat="47.454209011048079" lon="9.873487986624241">
        <ele>634.61000000000001</ele>
        <time>2018-09-18T13:26:28Z</time>
      </trkpt>
      <trkpt lat="47.454203981906176" lon="9.873675992712379">
        <ele>634.13</ele>
        <time>2018-09-18T13:26:29Z</time>
      </trkpt>
      <trkpt lat="47.454183027148247" lon="9.873858969658613">
        <ele>633.64999999999998</ele>
        <time>2018-09-18T13:26:30Z</time>
      </trkpt>
      <trkpt lat="47.454139022156596" lon="9.874037001281977">
        <ele>633.16999999999996</ele>
        <time>2018-09-18T13:26:31Z</time>
      </trkpt>
      <trkpt lat="47.454094011336565" lon="9.874216038733721">
        <ele>632.67999999999995</ele>
        <time>2018-09-18T13:26:32Z</time>
      </trkpt>
      <trkpt lat="47.454049000516534" lon="9.874394992366433">
        <ele>632.20000000000005</ele>
        <time>2018-09-18T13:26:33Z</time>
      </trkpt>
      <trkpt lat="47.453990997746587" lon="9.874570006504655">
        <ele>631.72000000000003</ele>
        <time>2018-09-18T13:26:34Z</time>
      </trkpt>
      <trkpt lat="47.453923020511866" lon="9.874737979844213">
        <ele>631.24000000000001</ele>
        <time>2018-09-18T13:26:35Z</time>
      </trkpt>
      <trkpt lat="47.453170996159315" lon="9.876776039600372">
        <ele>623.54999999999995</ele>
        <time>2018-09-18T13:26:47Z</time>
      </trkpt>
      <trkpt lat="47.452808981761336" lon="9.878030978143215">
        <ele>620.66999999999996</ele>
        <time>2018-09-18T13:26:55Z</time>
      </trkpt>
      <trkpt lat="47.45245199650526" lon="9.879288012161851">
        <ele>617.29999999999995</ele>
        <time>2018-09-18T13:27:04Z</time>
      </trkpt>
      <trkpt lat="47.452417965978384" lon="9.8793959710747">
        <ele>616.82000000000005</ele>
        <time>2018-09-18T13:27:05Z</time>
      </trkpt>
      <trkpt lat="47.45238795876503" lon="9.879497978836298">
        <ele>616.34000000000003</ele>
        <time>2018-09-18T13:27:06Z</time>
      </trkpt>
      <trkpt lat="47.452361974865198" lon="9.879583977162838">
        <ele>616.34000000000003</ele>
        <time>2018-09-18T13:27:07Z</time>
      </trkpt>
      <trkpt lat="47.45234202593565" lon="9.879648014903069">
        <ele>615.86000000000001</ele>
        <time>2018-09-18T13:27:08Z</time>
      </trkpt>
      <trkpt lat="47.45240799151361" lon="9.879807019606233">
        <ele>615.86000000000001</ele>
        <time>2018-09-18T13:27:09Z</time>
      </trkpt>
      <trkpt lat="47.45245099067688" lon="9.87980299629271">
        <ele>615.86000000000001</ele>
        <time>2018-09-18T13:27:10Z</time>
      </trkpt>
      <trkpt lat="47.452484015375376" lon="9.879798972979188">
        <ele>615.38</ele>
        <time>2018-09-18T13:27:11Z</time>
      </trkpt>
      <trkpt lat="47.452565990388393" lon="9.87973996438086">
        <ele>615.38</ele>
        <time>2018-09-18T13:27:12Z</time>
      </trkpt>
      <trkpt lat="47.452633967623115" lon="9.879689002409577">
        <ele>615.38</ele>
        <time>2018-09-18T13:27:13Z</time>
      </trkpt>
      <trkpt lat="47.452661041170359" lon="9.879563022404909">
        <ele>614.89999999999998</ele>
        <time>2018-09-18T13:27:14Z</time>
      </trkpt>
      <trkpt lat="47.452692976221442" lon="9.879418015480042">
        <ele>614.89999999999998</ele>
        <time>2018-09-18T13:27:15Z</time>
      </trkpt>
      <trkpt lat="47.452726000919938" lon="9.879262028262019">
        <ele>614.89999999999998</ele>
        <time>2018-09-18T13:27:16Z</time>
      </trkpt>
      <trkpt lat="47.452760031446815" lon="9.879104029387236">
        <ele>614.41999999999996</ele>
        <time>2018-09-18T13:27:17Z</time>
      </trkpt>
      <trkpt lat="47.452791966497898" lon="9.878954999148846">
        <ele>613.94000000000005</ele>
        <time>2018-09-18T13:27:18Z</time>
      </trkpt>
      <trkpt lat="47.452820967882872" lon="9.878818038851023">
        <ele>613.46000000000004</ele>
        <time>2018-09-18T13:27:19Z</time>
      </trkpt>
      <trkpt lat="47.452886011451483" lon="9.878711001947522">
        <ele>612.5</ele>
        <time>2018-09-18T13:27:20Z</time>
      </trkpt>
      <trkpt lat="47.452963041141629" lon="9.878660961985588">
        <ele>612.01999999999998</ele>
        <time>2018-09-18T13:27:21Z</time>
      </trkpt>
      <trkpt lat="47.453049961477518" lon="9.878674037754536">
        <ele>611.53999999999996</ele>
        <time>2018-09-18T13:27:22Z</time>
      </trkpt>
      <trkpt lat="47.453130008652806" lon="9.878735980018973">
        <ele>611.05999999999995</ele>
        <time>2018-09-18T13:27:23Z</time>
      </trkpt>
      <trkpt lat="47.45315901003778" lon="9.878842011094093">
        <ele>611.05999999999995</ele>
        <time>2018-09-18T13:27:24Z</time>
      </trkpt>
      <trkpt lat="47.453185999765992" lon="9.878995986655355">
        <ele>610.09000000000003</ele>
        <time>2018-09-18T13:27:25Z</time>
      </trkpt>
      <trkpt lat="47.453158004209399" lon="9.879146022722125">
        <ele>609.13</ele>
        <time>2018-09-18T13:27:26Z</time>
      </trkpt>
      <trkpt lat="47.453127996996045" lon="9.879312990233302">
        <ele>608.16999999999996</ele>
        <time>2018-09-18T13:27:27Z</time>
      </trkpt>
      <trkpt lat="47.45309698395431" lon="9.879484986886382">
        <ele>607.21000000000004</ele>
        <time>2018-09-18T13:27:28Z</time>
      </trkpt>
      <trkpt lat="47.452576970681548" lon="9.881004961207509">
        <ele>600</ele>
        <time>2018-09-18T13:27:37Z</time>
      </trkpt>
      <trkpt lat="47.452103979885578" lon="9.881934011355043">
        <ele>593.26999999999998</ele>
        <time>2018-09-18T13:27:43Z</time>
      </trkpt>
      <trkpt lat="47.452052012085915" lon="9.882098967209458">
        <ele>592.30999999999995</ele>
        <time>2018-09-18T13:27:44Z</time>
      </trkpt>
      <trkpt lat="47.452014964073896" lon="9.882275993004441">
        <ele>591.35000000000002</ele>
        <time>2018-09-18T13:27:45Z</time>
      </trkpt>
      <trkpt lat="47.45197799988091" lon="9.882450001314282">
        <ele>590.38999999999999</ele>
        <time>2018-09-18T13:27:46Z</time>
      </trkpt>
      <trkpt lat="47.451942041516304" lon="9.882619986310601">
        <ele>589.42999999999995</ele>
        <time>2018-09-18T13:27:47Z</time>
      </trkpt>
      <trkpt lat="47.451929971575737" lon="9.882793994620442">
        <ele>588.46000000000004</ele>
        <time>2018-09-18T13:27:48Z</time>
      </trkpt>
      <trkpt lat="47.451937012374401" lon="9.88298200070858">
        <ele>587.5</ele>
        <time>2018-09-18T13:27:49Z</time>
      </trkpt>
      <trkpt lat="47.451944975182414" lon="9.88317696377635">
        <ele>586.53999999999996</ele>
        <time>2018-09-18T13:27:50Z</time>
      </trkpt>
      <trkpt lat="47.451970037072897" lon="9.883373016491532">
        <ele>585.58000000000004</ele>
        <time>2018-09-18T13:27:51Z</time>
      </trkpt>
      <trkpt lat="47.451999960467219" lon="9.883566973730922">
        <ele>584.62</ele>
        <time>2018-09-18T13:27:52Z</time>
      </trkpt>
      <trkpt lat="47.45223599486053" lon="9.885337986052036">
        <ele>574.03999999999996</ele>
        <time>2018-09-18T13:28:02Z</time>
      </trkpt>
      <trkpt lat="47.45225896127522" lon="9.885847019031644">
        <ele>572.60000000000002</ele>
        <time>2018-09-18T13:28:06Z</time>
      </trkpt>
      <trkpt lat="47.452263990417123" lon="9.885951960459352">
        <ele>572.12</ele>
        <time>2018-09-18T13:28:07Z</time>
      </trkpt>
      <trkpt lat="47.452333979308605" lon="9.887529015541077">
        <ele>573.55999999999995</ele>
        <time>2018-09-18T13:28:21Z</time>
      </trkpt>
      <trkpt lat="47.4523860309273" lon="9.888899037614465">
        <ele>574.52999999999997</ele>
        <time>2018-09-18T13:28:32Z</time>
      </trkpt>
      <trkpt lat="47.452439004555345" lon="9.890182977542281">
        <ele>579.33000000000004</ele>
        <time>2018-09-18T13:28:41Z</time>
      </trkpt>
      <trkpt lat="47.452227026224136" lon="9.892143001779914">
        <ele>590.38999999999999</ele>
        <time>2018-09-18T13:28:50Z</time>
      </trkpt>
      <trkpt lat="47.451595030725002" lon="9.894019039347768">
        <ele>597.12</ele>
        <time>2018-09-18T13:28:57Z</time>
      </trkpt>
      <trkpt lat="47.450786009430885" lon="9.896232029423118">
        <ele>594.71000000000004</ele>
        <time>2018-09-18T13:29:05Z</time>
      </trkpt>
      <trkpt lat="47.450550980865955" lon="9.896597983315587">
        <ele>594.23000000000002</ele>
        <time>2018-09-18T13:29:07Z</time>
      </trkpt>
      <trkpt lat="47.450425000861287" lon="9.896764028817415">
        <ele>594.23000000000002</ele>
        <time>2018-09-18T13:29:08Z</time>
      </trkpt>
      <trkpt lat="47.450263984501362" lon="9.896871987730265">
        <ele>594.71000000000004</ele>
        <time>2018-09-18T13:29:09Z</time>
      </trkpt>
      <trkpt lat="47.450096011161804" lon="9.89696703851223">
        <ele>594.71000000000004</ele>
        <time>2018-09-18T13:29:10Z</time>
      </trkpt>
      <trkpt lat="47.449917979538441" lon="9.897018000483513">
        <ele>594.71000000000004</ele>
        <time>2018-09-18T13:29:11Z</time>
      </trkpt>
      <trkpt lat="47.44974497705698" lon="9.897068040445447">
        <ele>595.19000000000005</ele>
        <time>2018-09-18T13:29:12Z</time>
      </trkpt>
      <trkpt lat="47.449440965428948" lon="9.897155966609716">
        <ele>597.12</ele>
        <time>2018-09-18T13:29:14Z</time>
      </trkpt>
      <trkpt lat="47.449286989867687" lon="9.897200977429748">
        <ele>598.08000000000004</ele>
        <time>2018-09-18T13:29:15Z</time>
      </trkpt>
      <trkpt lat="47.449167966842651" lon="9.897320000454783">
        <ele>599.51999999999998</ele>
        <time>2018-09-18T13:29:16Z</time>
      </trkpt>
      <trkpt lat="47.449050033465028" lon="9.897458972409368">
        <ele>600.96000000000004</ele>
        <time>2018-09-18T13:29:17Z</time>
      </trkpt>
      <trkpt lat="47.448958000168204" lon="9.897643039003015">
        <ele>602.39999999999998</ele>
        <time>2018-09-18T13:29:18Z</time>
      </trkpt>
      <trkpt lat="47.448867978528142" lon="9.897824004292488">
        <ele>603.85000000000002</ele>
        <time>2018-09-18T13:29:19Z</time>
      </trkpt>
      <trkpt lat="47.448816010728478" lon="9.898030031472445">
        <ele>604.80999999999995</ele>
        <time>2018-09-18T13:29:20Z</time>
      </trkpt>
      <trkpt lat="47.448769994080067" lon="9.898248966783285">
        <ele>606.25</ele>
        <time>2018-09-18T13:29:21Z</time>
      </trkpt>
      <trkpt lat="47.448749039322138" lon="9.898491958156228">
        <ele>607.69000000000005</ele>
        <time>2018-09-18T13:29:22Z</time>
      </trkpt>
      <trkpt lat="47.448726994916797" lon="9.898741990327835">
        <ele>609.13</ele>
        <time>2018-09-18T13:29:23Z</time>
      </trkpt>
      <trkpt lat="47.448467994108796" lon="9.900559019297361">
        <ele>618.25999999999999</ele>
        <time>2018-09-18T13:29:30Z</time>
      </trkpt>
      <trkpt lat="47.448471011593938" lon="9.902764968574047">
        <ele>631.24000000000001</ele>
        <time>2018-09-18T13:29:38Z</time>
      </trkpt>
      <trkpt lat="47.448389958590269" lon="9.906773027032614">
        <ele>652.87</ele>
        <time>2018-09-18T13:29:52Z</time>
      </trkpt>
      <trkpt lat="47.447907999157906" lon="9.910033000633121">
        <ele>665.85000000000002</ele>
        <time>2018-09-18T13:30:04Z</time>
      </trkpt>
      <trkpt lat="47.447758968919516" lon="9.911603014916182">
        <ele>670.17999999999995</ele>
        <time>2018-09-18T13:30:10Z</time>
      </trkpt>
      <trkpt lat="47.447780007496476" lon="9.911865033209324">
        <ele>670.17999999999995</ele>
        <time>2018-09-18T13:30:11Z</time>
      </trkpt>
      <trkpt lat="47.447827029973269" lon="9.912099977955222">
        <ele>670.65999999999997</ele>
        <time>2018-09-18T13:30:12Z</time>
      </trkpt>
      <trkpt lat="47.447881009429693" lon="9.912326959893107">
        <ele>671.13999999999999</ele>
        <time>2018-09-18T13:30:13Z</time>
      </trkpt>
      <trkpt lat="47.447957033291459" lon="9.912538016214967">
        <ele>671.62</ele>
        <time>2018-09-18T13:30:14Z</time>
      </trkpt>
      <trkpt lat="47.448043031617999" lon="9.912756029516459">
        <ele>671.62</ele>
        <time>2018-09-18T13:30:15Z</time>
      </trkpt>
      <trkpt lat="47.448601014912128" lon="9.914541961625218">
        <ele>674.01999999999998</ele>
        <time>2018-09-18T13:30:23Z</time>
      </trkpt>
      <trkpt lat="47.448734035715461" lon="9.915211005136371">
        <ele>673.53999999999996</ele>
        <time>2018-09-18T13:30:26Z</time>
      </trkpt>
      <trkpt lat="47.448770999908447" lon="9.915391970425844">
        <ele>673.53999999999996</ele>
        <time>2018-09-18T13:30:27Z</time>
      </trkpt>
      <trkpt lat="47.449210966005921" lon="9.916701978072524">
        <ele>674.98000000000002</ele>
        <time>2018-09-18T13:30:36Z</time>
      </trkpt>
      <trkpt lat="47.449476001784205" lon="9.917498007416725">
        <ele>675.46000000000004</ele>
        <time>2018-09-18T13:30:43Z</time>
      </trkpt>
      <trkpt lat="47.449553031474352" lon="9.917771006003022">
        <ele>675.46000000000004</ele>
        <time>2018-09-18T13:30:50Z</time>
      </trkpt>
      <trkpt lat="47.449736008420587" lon="9.9188859667629">
        <ele>675.46000000000004</ele>
        <time>2018-09-18T13:30:57Z</time>
      </trkpt>
      <trkpt lat="47.449843967333436" lon="9.919321993365884">
        <ele>676.41999999999996</ele>
        <time>2018-09-18T13:31:00Z</time>
      </trkpt>
      <trkpt lat="47.449933988973498" lon="9.919580994173884">
        <ele>676.90999999999997</ele>
        <time>2018-09-18T13:31:02Z</time>
      </trkpt>
      <trkpt lat="47.450494989752769" lon="9.92068899795413">
        <ele>680.26999999999998</ele>
        <time>2018-09-18T13:31:11Z</time>
      </trkpt>
      <trkpt lat="47.450559027493" lon="9.920965014025569">
        <ele>681.23000000000002</ele>
        <time>2018-09-18T13:31:13Z</time>
      </trkpt>
      <trkpt lat="47.450592974200845" lon="9.921108009293675">
        <ele>681.71000000000004</ele>
        <time>2018-09-18T13:31:14Z</time>
      </trkpt>
      <trkpt lat="47.450620969757438" lon="9.921255027875304">
        <ele>681.71000000000004</ele>
        <time>2018-09-18T13:31:15Z</time>
      </trkpt>
      <trkpt lat="47.450679978355765" lon="9.921873025596142">
        <ele>683.14999999999998</ele>
        <time>2018-09-18T13:31:19Z</time>
      </trkpt>
      <trkpt lat="47.450693976134062" lon="9.922023983672261">
        <ele>684.12</ele>
        <time>2018-09-18T13:31:20Z</time>
      </trkpt>
      <trkpt lat="47.450703028589487" lon="9.922174019739032">
        <ele>684.60000000000002</ele>
        <time>2018-09-18T13:31:21Z</time>
      </trkpt>
      <trkpt lat="47.450703028589487" lon="9.922327995300293">
        <ele>685.55999999999995</ele>
        <time>2018-09-18T13:31:22Z</time>
      </trkpt>
      <trkpt lat="47.450703028589487" lon="9.922435032203794">
        <ele>686.51999999999998</ele>
        <time>2018-09-18T13:31:23Z</time>
      </trkpt>
      <trkpt lat="47.450672015547752" lon="9.922638041898608">
        <ele>687.48000000000002</ele>
        <time>2018-09-18T13:31:24Z</time>
      </trkpt>
      <trkpt lat="47.45064795948565" lon="9.922797968611121">
        <ele>688.44000000000005</ele>
        <time>2018-09-18T13:31:25Z</time>
      </trkpt>
      <trkpt lat="47.450605966150761" lon="9.922959990799427">
        <ele>688.91999999999996</ele>
        <time>2018-09-18T13:31:26Z</time>
      </trkpt>
      <trkpt lat="47.450552992522717" lon="9.923112960532308">
        <ele>689.88</ele>
        <time>2018-09-18T13:31:27Z</time>
      </trkpt>
      <trkpt lat="47.450449978932738" lon="9.923414038494229">
        <ele>691.80999999999995</ele>
        <time>2018-09-18T13:31:29Z</time>
      </trkpt>
      <trkpt lat="47.450380995869637" lon="9.923615958541632">
        <ele>692.76999999999998</ele>
        <time>2018-09-18T13:31:30Z</time>
      </trkpt>
      <trkpt lat="47.450380995869637" lon="9.923750991001725">
        <ele>694.21000000000004</ele>
        <time>2018-09-18T13:31:31Z</time>
      </trkpt>
      <trkpt lat="47.450380995869637" lon="9.923934973776341">
        <ele>695.16999999999996</ele>
        <time>2018-09-18T13:31:32Z</time>
      </trkpt>
      <trkpt lat="47.450422989204526" lon="9.924127003178001">
        <ele>696.13</ele>
        <time>2018-09-18T13:31:33Z</time>
      </trkpt>
      <trkpt lat="47.450481997802854" lon="9.924305034801364">
        <ele>697.09000000000003</ele>
        <time>2018-09-18T13:31:34Z</time>
      </trkpt>
      <trkpt lat="47.450558021664619" lon="9.924477031454444">
        <ele>698.04999999999995</ele>
        <time>2018-09-18T13:31:35Z</time>
      </trkpt>
      <trkpt lat="47.451007040217519" lon="9.926138995215297">
        <ele>707.19000000000005</ele>
        <time>2018-09-18T13:31:43Z</time>
      </trkpt>
      <trkpt lat="47.451051967218518" lon="9.927096040919423">
        <ele>711.99000000000001</ele>
        <time>2018-09-18T13:31:47Z</time>
      </trkpt>
      <trkpt lat="47.451062025502324" lon="9.927323022857308">
        <ele>713.44000000000005</ele>
        <time>2018-09-18T13:31:48Z</time>
      </trkpt>
      <trkpt lat="47.451099995523691" lon="9.927531983703375">
        <ele>714.88</ele>
        <time>2018-09-18T13:31:49Z</time>
      </trkpt>
      <trkpt lat="47.451165961101651" lon="9.927730970084667">
        <ele>715.84000000000003</ele>
        <time>2018-09-18T13:31:50Z</time>
      </trkpt>
      <trkpt lat="47.451234022155404" lon="9.927932973951101">
        <ele>717.27999999999997</ele>
        <time>2018-09-18T13:31:51Z</time>
      </trkpt>
      <trkpt lat="47.451327983289957" lon="9.928117040544748">
        <ele>718.24000000000001</ele>
        <time>2018-09-18T13:31:52Z</time>
      </trkpt>
      <trkpt lat="47.451438037678599" lon="9.928284008055925">
        <ele>719.20000000000005</ele>
        <time>2018-09-18T13:31:53Z</time>
      </trkpt>
      <trkpt lat="47.451764009892941" lon="9.928779965266585">
        <ele>722.09000000000003</ele>
        <time>2018-09-18T13:31:56Z</time>
      </trkpt>
      <trkpt lat="47.451896024867892" lon="9.928885996341705">
        <ele>723.04999999999995</ele>
        <time>2018-09-18T13:31:57Z</time>
      </trkpt>
      <trkpt lat="47.452044971287251" lon="9.928969983011484">
        <ele>724.00999999999999</ele>
        <time>2018-09-18T13:31:58Z</time>
      </trkpt>
      <trkpt lat="47.452198024839163" lon="9.929056987166405">
        <ele>724.97000000000003</ele>
        <time>2018-09-18T13:31:59Z</time>
      </trkpt>
      <trkpt lat="47.452354012057185" lon="9.929143991321325">
        <ele>726.40999999999997</ele>
        <time>2018-09-18T13:32:00Z</time>
      </trkpt>
      <trkpt lat="47.453724034130573" lon="9.930217964574695">
        <ele>736.50999999999999</ele>
        <time>2018-09-18T13:32:09Z</time>
      </trkpt>
      <trkpt lat="47.45468401350081" lon="9.931436022743583">
        <ele>741.30999999999995</ele>
        <time>2018-09-18T13:32:17Z</time>
      </trkpt>
      <trkpt lat="47.454801024869084" lon="9.931640960276127">
        <ele>741.78999999999996</ele>
        <time>2018-09-18T13:32:18Z</time>
      </trkpt>
      <trkpt lat="47.454891968518496" lon="9.931833995506167">
        <ele>742.27999999999997</ele>
        <time>2018-09-18T13:32:19Z</time>
      </trkpt>
      <trkpt lat="47.454970004037023" lon="9.932049997150898">
        <ele>742.75999999999999</ele>
        <time>2018-09-18T13:32:20Z</time>
      </trkpt>
      <trkpt lat="47.455015014857054" lon="9.932265998795629">
        <ele>743.24000000000001</ele>
        <time>2018-09-18T13:32:21Z</time>
      </trkpt>
      <trkpt lat="47.455036975443363" lon="9.93248401209712">
        <ele>743.24000000000001</ele>
        <time>2018-09-18T13:32:22Z</time>
      </trkpt>
      <trkpt lat="47.455036975443363" lon="9.932704959064722">
        <ele>744.20000000000005</ele>
        <time>2018-09-18T13:32:23Z</time>
      </trkpt>
      <trkpt lat="47.455036975443363" lon="9.932931018993259">
        <ele>745.15999999999997</ele>
        <time>2018-09-18T13:32:24Z</time>
      </trkpt>
      <trkpt lat="47.454930022358894" lon="9.935074020177126">
        <ele>758.62</ele>
        <time>2018-09-18T13:32:34Z</time>
      </trkpt>
      <trkpt lat="47.454971009865403" lon="9.935287004336715">
        <ele>760.05999999999995</ele>
        <time>2018-09-18T13:32:35Z</time>
      </trkpt>
      <trkpt lat="47.45500504039228" lon="9.935466041788459">
        <ele>761.01999999999998</ele>
        <time>2018-09-18T13:32:36Z</time>
      </trkpt>
      <trkpt lat="47.455040998756886" lon="9.935638038441539">
        <ele>762.46000000000004</ele>
        <time>2018-09-18T13:32:37Z</time>
      </trkpt>
      <trkpt lat="47.455117022618651" lon="9.935770975425839">
        <ele>763.41999999999996</ele>
        <time>2018-09-18T13:32:38Z</time>
      </trkpt>
      <trkpt lat="47.455191034823656" lon="9.93590097874403">
        <ele>764.38999999999999</ele>
        <time>2018-09-18T13:32:39Z</time>
      </trkpt>
      <trkpt lat="47.45528700761497" lon="9.935998041182756">
        <ele>765.35000000000002</ele>
        <time>2018-09-18T13:32:40Z</time>
      </trkpt>
      <trkpt lat="47.455411981791258" lon="9.936102982610464">
        <ele>765.83000000000004</ele>
        <time>2018-09-18T13:32:41Z</time>
      </trkpt>
      <trkpt lat="47.45556503534317" lon="9.936231980100274">
        <ele>766.78999999999996</ele>
        <time>2018-09-18T13:32:42Z</time>
      </trkpt>
      <trkpt lat="47.45573996566236" lon="9.936377992853522">
        <ele>767.75</ele>
        <time>2018-09-18T13:32:43Z</time>
      </trkpt>
      <trkpt lat="47.456287974491715" lon="9.936851989477873">
        <ele>769.66999999999996</ele>
        <time>2018-09-18T13:32:46Z</time>
      </trkpt>
      <trkpt lat="47.456442033872008" lon="9.937028009444475">
        <ele>769.66999999999996</ele>
        <time>2018-09-18T13:32:47Z</time>
      </trkpt>
      <trkpt lat="47.456574970856309" lon="9.937212998047471">
        <ele>769.66999999999996</ele>
        <time>2018-09-18T13:32:48Z</time>
      </trkpt>
      <trkpt lat="47.456688964739442" lon="9.937391029670835">
        <ele>769.66999999999996</ele>
        <time>2018-09-18T13:32:49Z</time>
      </trkpt>
      <trkpt lat="47.456763982772827" lon="9.937613988295198">
        <ele>770.14999999999998</ele>
        <time>2018-09-18T13:32:50Z</time>
      </trkpt>
      <trkpt lat="47.456829026341438" lon="9.937810963019729">
        <ele>770.14999999999998</ele>
        <time>2018-09-18T13:32:51Z</time>
      </trkpt>
      <trkpt lat="47.456871019676328" lon="9.93800600990653">
        <ele>770.14999999999998</ele>
        <time>2018-09-18T13:32:52Z</time>
      </trkpt>
      <trkpt lat="47.456893986091018" lon="9.938224023208022">
        <ele>770.63</ele>
        <time>2018-09-18T13:32:53Z</time>
      </trkpt>
      <trkpt lat="47.456918964162469" lon="9.938474977388978">
        <ele>771.60000000000002</ele>
        <time>2018-09-18T13:32:54Z</time>
      </trkpt>
      <trkpt lat="47.456946959719062" lon="9.938739007338882">
        <ele>772.55999999999995</ele>
        <time>2018-09-18T13:32:55Z</time>
      </trkpt>
      <trkpt lat="47.456971015781164" lon="9.938976969569922">
        <ele>774</ele>
        <time>2018-09-18T13:32:56Z</time>
      </trkpt>
      <trkpt lat="47.457020971924067" lon="9.939899984747171">
        <ele>779.28999999999996</ele>
        <time>2018-09-18T13:33:02Z</time>
      </trkpt>
      <trkpt lat="47.457016026601195" lon="9.940037028864026">
        <ele>779.76999999999998</ele>
        <time>2018-09-18T13:33:03Z</time>
      </trkpt>
      <trkpt lat="47.457003034651279" lon="9.940183041617274">
        <ele>780.25</ele>
        <time>2018-09-18T13:33:04Z</time>
      </trkpt>
      <trkpt lat="47.456962969154119" lon="9.940298041328788">
        <ele>781.21000000000004</ele>
        <time>2018-09-18T13:33:05Z</time>
      </trkpt>
      <trkpt lat="47.456923993304372" lon="9.940407006070018">
        <ele>781.69000000000005</ele>
        <time>2018-09-18T13:33:06Z</time>
      </trkpt>
      <trkpt lat="47.456887029111385" lon="9.940513959154487">
        <ele>782.16999999999996</ele>
        <time>2018-09-18T13:33:07Z</time>
      </trkpt>
      <trkpt lat="47.456733975559473" lon="9.940951997414231">
        <ele>783.61000000000001</ele>
        <time>2018-09-18T13:33:11Z</time>
      </trkpt>
      <trkpt lat="47.456711009144783" lon="9.941057022660971">
        <ele>783.61000000000001</ele>
        <time>2018-09-18T13:33:12Z</time>
      </trkpt>
      <trkpt lat="47.456711009144783" lon="9.941174034029245">
        <ele>783.61000000000001</ele>
        <time>2018-09-18T13:33:13Z</time>
      </trkpt>
      <trkpt lat="47.456711009144783" lon="9.941291967406869">
        <ele>783.13</ele>
        <time>2018-09-18T13:33:14Z</time>
      </trkpt>
      <trkpt lat="47.456711009144783" lon="9.941410990431905">
        <ele>783.13</ele>
        <time>2018-09-18T13:33:15Z</time>
      </trkpt>
      <trkpt lat="47.456774041056633" lon="9.941649036481977">
        <ele>783.13</ele>
        <time>2018-09-18T13:33:17Z</time>
      </trkpt>
      <trkpt lat="47.456868002191186" lon="9.941990012302995">
        <ele>783.13</ele>
        <time>2018-09-18T13:33:19Z</time>
      </trkpt>
      <trkpt lat="47.45689800940454" lon="9.942192016169429">
        <ele>783.13</ele>
        <time>2018-09-18T13:33:20Z</time>
      </trkpt>
      <trkpt lat="47.457062965258956" lon="9.943279987201095">
        <ele>781.21000000000004</ele>
        <time>2018-09-18T13:33:25Z</time>
      </trkpt>
      <trkpt lat="47.457388015463948" lon="9.944692002609372">
        <ele>782.16999999999996</ele>
        <time>2018-09-18T13:33:33Z</time>
      </trkpt>
      <trkpt lat="47.457463033497334" lon="9.946783035993576">
        <ele>788.41999999999996</ele>
        <time>2018-09-18T13:33:45Z</time>
      </trkpt>
      <trkpt lat="47.457451969385147" lon="9.946954026818276">
        <ele>788.41999999999996</ele>
        <time>2018-09-18T13:33:46Z</time>
      </trkpt>
      <trkpt lat="47.457431014627218" lon="9.948026994243264">
        <ele>789.38</ele>
        <time>2018-09-18T13:33:52Z</time>
      </trkpt>
      <trkpt lat="47.457490023225546" lon="9.948376016691327">
        <ele>789.38</ele>
        <time>2018-09-18T13:33:54Z</time>
      </trkpt>
      <trkpt lat="47.458000984042883" lon="9.950154991820455">
        <ele>788.41999999999996</ele>
        <time>2018-09-18T13:34:05Z</time>
      </trkpt>
      <trkpt lat="47.458515968173742" lon="9.95177898555994">
        <ele>790.82000000000005</ele>
        <time>2018-09-18T13:34:15Z</time>
      </trkpt>
      <trkpt lat="47.458680002018809" lon="9.953245986253023">
        <ele>786.98000000000002</ele>
        <time>2018-09-18T13:34:24Z</time>
      </trkpt>
      <trkpt lat="47.458723001182079" lon="9.953543040901423">
        <ele>786.5</ele>
        <time>2018-09-18T13:34:26Z</time>
      </trkpt>
      <trkpt lat="47.458771029487252" lon="9.953683018684387">
        <ele>786.5</ele>
        <time>2018-09-18T13:34:27Z</time>
      </trkpt>
      <trkpt lat="47.458826014772058" lon="9.953829031437635">
        <ele>786.5</ele>
        <time>2018-09-18T13:34:28Z</time>
      </trkpt>
      <trkpt lat="47.459436971694231" lon="9.955110037699342">
        <ele>785.04999999999995</ele>
        <time>2018-09-18T13:34:37Z</time>
      </trkpt>
      <trkpt lat="47.460119007155299" lon="9.956497997045517">
        <ele>782.16999999999996</ele>
        <time>2018-09-18T13:34:48Z</time>
      </trkpt>
      <trkpt lat="47.46027197688818" lon="9.956663036718965">
        <ele>779.76999999999998</ele>
        <time>2018-09-18T13:34:54Z</time>
      </trkpt>
      <trkpt lat="47.460510022938251" lon="9.956700000911951">
        <ele>777.36000000000001</ele>
        <time>2018-09-18T13:34:59Z</time>
      </trkpt>
      <trkpt lat="47.4605299718678" lon="9.956703018397093">
        <ele>775.44000000000005</ele>
        <time>2018-09-18T13:35:02Z</time>
      </trkpt>
      <trkpt lat="47.46057397685945" lon="9.956682985648513">
        <ele>774.96000000000004</ele>
        <time>2018-09-18T13:35:03Z</time>
      </trkpt>
      <trkpt lat="47.460675984621048" lon="9.956633029505611">
        <ele>774.48000000000002</ele>
        <time>2018-09-18T13:35:11Z</time>
      </trkpt>
      <trkpt lat="47.460743961855769" lon="9.956600004807115">
        <ele>774</ele>
        <time>2018-09-18T13:35:12Z</time>
      </trkpt>
      <trkpt lat="47.46121795848012" lon="9.956328012049198">
        <ele>773.51999999999998</ele>
        <time>2018-09-18T13:35:17Z</time>
      </trkpt>
      <trkpt lat="47.462259996682405" lon="9.955174997448921">
        <ele>777.84000000000003</ele>
        <time>2018-09-18T13:35:27Z</time>
      </trkpt>
      <trkpt lat="47.462843963876367" lon="9.954481981694698">
        <ele>779.28999999999996</ele>
        <time>2018-09-18T13:35:33Z</time>
      </trkpt>
      <trkpt lat="47.46295896358788" lon="9.9543990008533">
        <ele>779.76999999999998</ele>
        <time>2018-09-18T13:35:34Z</time>
      </trkpt>
      <trkpt lat="47.463097013533115" lon="9.954362958669663">
        <ele>780.25</ele>
        <time>2018-09-18T13:35:35Z</time>
      </trkpt>
      <trkpt lat="47.463239002972841" lon="9.954336974769831">
        <ele>780.25</ele>
        <time>2018-09-18T13:35:36Z</time>
      </trkpt>
      <trkpt lat="47.463384009897709" lon="9.954309985041618">
        <ele>780.73000000000002</ele>
        <time>2018-09-18T13:35:37Z</time>
      </trkpt>
      <trkpt lat="47.463529016822577" lon="9.954281989485025">
        <ele>781.21000000000004</ele>
        <time>2018-09-18T13:35:38Z</time>
      </trkpt>
      <trkpt lat="47.463662959635258" lon="9.954257011413574">
        <ele>782.16999999999996</ele>
        <time>2018-09-18T13:35:39Z</time>
      </trkpt>
      <trkpt lat="47.463798997923732" lon="9.954166989773512">
        <ele>782.64999999999998</ele>
        <time>2018-09-18T13:35:40Z</time>
      </trkpt>
      <trkpt lat="47.463922966271639" lon="9.954081997275353">
        <ele>783.61000000000001</ele>
        <time>2018-09-18T13:35:41Z</time>
      </trkpt>
      <trkpt lat="47.464004019275308" lon="9.953932967036963">
        <ele>785.04999999999995</ele>
        <time>2018-09-18T13:35:42Z</time>
      </trkpt>
      <trkpt lat="47.464059004560113" lon="9.95375401340425">
        <ele>786.01999999999998</ele>
        <time>2018-09-18T13:35:43Z</time>
      </trkpt>
      <trkpt lat="47.464064033702016" lon="9.953551003709436">
        <ele>786.98000000000002</ele>
        <time>2018-09-18T13:35:44Z</time>
      </trkpt>
      <trkpt lat="47.464048024266958" lon="9.953340031206608">
        <ele>788.41999999999996</ele>
        <time>2018-09-18T13:35:45Z</time>
      </trkpt>
      <trkpt lat="47.464030003175139" lon="9.953116988763213">
        <ele>789.38</ele>
        <time>2018-09-18T13:35:46Z</time>
      </trkpt>
      <trkpt lat="47.464016005396843" lon="9.951310018077493">
        <ele>795.63</ele>
        <time>2018-09-18T13:35:53Z</time>
      </trkpt>
      <trkpt lat="47.464080965146422" lon="9.951080018654466">
        <ele>797.07000000000005</ele>
        <time>2018-09-18T13:35:54Z</time>
      </trkpt>
      <trkpt lat="47.464170986786485" lon="9.950859993696213">
        <ele>798.02999999999997</ele>
        <time>2018-09-18T13:35:55Z</time>
      </trkpt>
      <trkpt lat="47.464277017861605" lon="9.950671987608075">
        <ele>798.99000000000001</ele>
        <time>2018-09-18T13:35:56Z</time>
      </trkpt>
      <trkpt lat="47.464412972331047" lon="9.95051097124815">
        <ele>799.95000000000005</ele>
        <time>2018-09-18T13:35:57Z</time>
      </trkpt>
      <trkpt lat="47.464552028104663" lon="9.950347021222115">
        <ele>800.91999999999996</ele>
        <time>2018-09-18T13:35:58Z</time>
      </trkpt>
      <trkpt lat="47.464691000059247" lon="9.950182987377048">
        <ele>801.88</ele>
        <time>2018-09-18T13:35:59Z</time>
      </trkpt>
      <trkpt lat="47.464807005599141" lon="9.949986012652516">
        <ele>802.84000000000003</ele>
        <time>2018-09-18T13:36:00Z</time>
      </trkpt>
      <trkpt lat="47.464914964511991" lon="9.949777973815799">
        <ele>803.79999999999995</ele>
        <time>2018-09-18T13:36:01Z</time>
      </trkpt>
      <trkpt lat="47.464957963675261" lon="9.949540011584759">
        <ele>804.75999999999999</ele>
        <time>2018-09-18T13:36:02Z</time>
      </trkpt>
      <trkpt lat="47.465002974495292" lon="9.949297020211816">
        <ele>805.24000000000001</ele>
        <time>2018-09-18T13:36:03Z</time>
      </trkpt>
      <trkpt lat="47.465047985315323" lon="9.949053023010492">
        <ele>805.72000000000003</ele>
        <time>2018-09-18T13:36:04Z</time>
      </trkpt>
      <trkpt lat="47.465091990306973" lon="9.94881103746593">
        <ele>806.20000000000005</ele>
        <time>2018-09-18T13:36:05Z</time>
      </trkpt>
      <trkpt lat="47.465163990855217" lon="9.948591012507677">
        <ele>806.20000000000005</ele>
        <time>2018-09-18T13:36:06Z</time>
      </trkpt>
      <trkpt lat="47.465273039415479" lon="9.948407029733062">
        <ele>806.67999999999995</ele>
        <time>2018-09-18T13:36:07Z</time>
      </trkpt>
      <trkpt lat="47.465392984449863" lon="9.948238972574472">
        <ele>806.67999999999995</ele>
        <time>2018-09-18T13:36:08Z</time>
      </trkpt>
      <trkpt lat="47.465549977496266" lon="9.948147023096681">
        <ele>806.67999999999995</ele>
        <time>2018-09-18T13:36:09Z</time>
      </trkpt>
      <trkpt lat="47.465705964714289" lon="9.948063036426902">
        <ele>806.67999999999995</ele>
        <time>2018-09-18T13:36:10Z</time>
      </trkpt>
      <trkpt lat="47.46585801243782" lon="9.947981983423233">
        <ele>806.67999999999995</ele>
        <time>2018-09-18T13:36:11Z</time>
      </trkpt>
      <trkpt lat="47.465998996049166" lon="9.947883998975158">
        <ele>806.20000000000005</ele>
        <time>2018-09-18T13:36:12Z</time>
      </trkpt>
      <trkpt lat="47.466127993538976" lon="9.947746032848954">
        <ele>806.20000000000005</ele>
        <time>2018-09-18T13:36:13Z</time>
      </trkpt>
      <trkpt lat="47.466260008513927" lon="9.947604965418577">
        <ele>805.72000000000003</ele>
        <time>2018-09-18T13:36:14Z</time>
      </trkpt>
      <trkpt lat="47.466346006840467" lon="9.947389969602227">
        <ele>805.24000000000001</ele>
        <time>2018-09-18T13:36:15Z</time>
      </trkpt>
      <trkpt lat="47.466435022652149" lon="9.947162987664342">
        <ele>805.24000000000001</ele>
        <time>2018-09-18T13:36:16Z</time>
      </trkpt>
      <trkpt lat="47.466506017372012" lon="9.946911027655006">
        <ele>805.24000000000001</ele>
        <time>2018-09-18T13:36:17Z</time>
      </trkpt>
      <trkpt lat="47.467095013707876" lon="9.944957960397005">
        <ele>805.72000000000003</ele>
        <time>2018-09-18T13:36:25Z</time>
      </trkpt>
      <trkpt lat="47.467186963185668" lon="9.944746987894177">
        <ele>805.72000000000003</ele>
        <time>2018-09-18T13:36:26Z</time>
      </trkpt>
      <trkpt lat="47.468158006668091" lon="9.943328015506268">
        <ele>804.75999999999999</ele>
        <time>2018-09-18T13:36:34Z</time>
      </trkpt>
      <trkpt lat="47.468254985287786" lon="9.943151995539665">
        <ele>804.75999999999999</ele>
        <time>2018-09-18T13:36:35Z</time>
      </trkpt>
      <trkpt lat="47.468345006927848" lon="9.942982010543346">
        <ele>804.75999999999999</ele>
        <time>2018-09-18T13:36:36Z</time>
      </trkpt>
      <trkpt lat="47.468397980555892" lon="9.942786963656545">
        <ele>804.75999999999999</ele>
        <time>2018-09-18T13:36:37Z</time>
      </trkpt>
      <trkpt lat="47.468442991375923" lon="9.942586971446872">
        <ele>804.75999999999999</ele>
        <time>2018-09-18T13:36:38Z</time>
      </trkpt>
      <trkpt lat="47.468462018296123" lon="9.942374993115664">
        <ele>805.24000000000001</ele>
        <time>2018-09-18T13:36:39Z</time>
      </trkpt>
      <trkpt lat="47.468468975275755" lon="9.942154968157411">
        <ele>805.24000000000001</ele>
        <time>2018-09-18T13:36:40Z</time>
      </trkpt>
      <trkpt lat="47.468466041609645" lon="9.939637966454029">
        <ele>798.50999999999999</ele>
        <time>2018-09-18T13:36:50Z</time>
      </trkpt>
      <trkpt lat="47.468496970832348" lon="9.939365973696113">
        <ele>797.07000000000005</ele>
        <time>2018-09-18T13:36:51Z</time>
      </trkpt>
      <trkpt lat="47.468743985518813" lon="9.937293967232108">
        <ele>786.01999999999998</ele>
        <time>2018-09-18T13:36:59Z</time>
      </trkpt>
      <trkpt lat="47.468784973025322" lon="9.93705902248621">
        <ele>784.57000000000005</ele>
        <time>2018-09-18T13:37:00Z</time>
      </trkpt>
      <trkpt lat="47.468873988837004" lon="9.936851989477873">
        <ele>783.61000000000001</ele>
        <time>2018-09-18T13:37:01Z</time>
      </trkpt>
      <trkpt lat="47.468963004648685" lon="9.936661971732974">
        <ele>782.16999999999996</ele>
        <time>2018-09-18T13:37:02Z</time>
      </trkpt>
      <trkpt lat="47.469075992703438" lon="9.93648000061512">
        <ele>780.73000000000002</ele>
        <time>2018-09-18T13:37:03Z</time>
      </trkpt>
      <trkpt lat="47.469190992414951" lon="9.936293000355363">
        <ele>779.28999999999996</ele>
        <time>2018-09-18T13:37:04Z</time>
      </trkpt>
      <trkpt lat="47.470159018412232" lon="9.93452500551939">
        <ele>771.11000000000001</ele>
        <time>2018-09-18T13:37:12Z</time>
      </trkpt>
      <trkpt lat="47.470292961224914" lon="9.93435300886631">
        <ele>770.14999999999998</ele>
        <time>2018-09-18T13:37:13Z</time>
      </trkpt>
      <trkpt lat="47.470447020605206" lon="9.934212025254965">
        <ele>769.19000000000005</ele>
        <time>2018-09-18T13:37:14Z</time>
      </trkpt>
      <trkpt lat="47.470604013651609" lon="9.934069029986858">
        <ele>768.71000000000004</ele>
        <time>2018-09-18T13:37:15Z</time>
      </trkpt>
      <trkpt lat="47.470772992819548" lon="9.933947995305061">
        <ele>768.23000000000002</ele>
        <time>2018-09-18T13:37:16Z</time>
      </trkpt>
      <trkpt lat="47.470956975594163" lon="9.933866020292044">
        <ele>767.75</ele>
        <time>2018-09-18T13:37:17Z</time>
      </trkpt>
      <trkpt lat="47.471144981682301" lon="9.933783039450645">
        <ele>767.26999999999998</ele>
        <time>2018-09-18T13:37:18Z</time>
      </trkpt>
      <trkpt lat="47.472674008458853" lon="9.933491013944149">
        <ele>766.30999999999995</ele>
        <time>2018-09-18T13:37:26Z</time>
      </trkpt>
      <trkpt lat="47.474352987483144" lon="9.93400800973177">
        <ele>765.35000000000002</ele>
        <time>2018-09-18T13:37:35Z</time>
      </trkpt>
      <trkpt lat="47.475926019251347" lon="9.934561969712377">
        <ele>761.5</ele>
        <time>2018-09-18T13:37:44Z</time>
      </trkpt>
      <trkpt lat="47.476666979491711" lon="9.934816025197506">
        <ele>760.53999999999996</ele>
        <time>2018-09-18T13:37:49Z</time>
      </trkpt>
      <trkpt lat="47.476779967546463" lon="9.934809990227222">
        <ele>760.05999999999995</ele>
        <time>2018-09-18T13:37:50Z</time>
      </trkpt>
      <trkpt lat="47.47690100222826" lon="9.93480303324759">
        <ele>760.05999999999995</ele>
        <time>2018-09-18T13:37:51Z</time>
      </trkpt>
      <trkpt lat="47.477013990283012" lon="9.934795992448926">
        <ele>760.05999999999995</ele>
        <time>2018-09-18T13:37:52Z</time>
      </trkpt>
      <trkpt lat="47.477106023579836" lon="9.93474000133574">
        <ele>759.58000000000004</ele>
        <time>2018-09-18T13:37:53Z</time>
      </trkpt>
      <trkpt lat="47.477194033563137" lon="9.934675041586161">
        <ele>759.10000000000002</ele>
        <time>2018-09-18T13:37:54Z</time>
      </trkpt>
      <trkpt lat="47.477284977212548" lon="9.934607986360788">
        <ele>759.10000000000002</ele>
        <time>2018-09-18T13:37:55Z</time>
      </trkpt>
      <trkpt lat="47.477392014116049" lon="9.934529028832912">
        <ele>758.62</ele>
        <time>2018-09-18T13:37:56Z</time>
      </trkpt>
      <trkpt lat="47.477793004363775" lon="9.934151004999876">
        <ele>756.21000000000004</ele>
        <time>2018-09-18T13:37:59Z</time>
      </trkpt>
      <trkpt lat="47.477946979925036" lon="9.934043968096376">
        <ele>755.25</ele>
        <time>2018-09-18T13:38:00Z</time>
      </trkpt>
      <trkpt lat="47.478105984628201" lon="9.933959981426597">
        <ele>754.28999999999996</ele>
        <time>2018-09-18T13:38:01Z</time>
      </trkpt>
      <trkpt lat="47.478274963796139" lon="9.933909019455314">
        <ele>753.33000000000004</ele>
        <time>2018-09-18T13:38:02Z</time>
      </trkpt>
      <trkpt lat="47.478452995419502" lon="9.933855962008238">
        <ele>752.37</ele>
        <time>2018-09-18T13:38:03Z</time>
      </trkpt>
      <trkpt lat="47.478648964315653" lon="9.933875994756818">
        <ele>751.88999999999999</ele>
        <time>2018-09-18T13:38:04Z</time>
      </trkpt>
      <trkpt lat="47.478843005374074" lon="9.93390298448503">
        <ele>750.92999999999995</ele>
        <time>2018-09-18T13:38:05Z</time>
      </trkpt>
      <trkpt lat="47.479838021099567" lon="9.934182018041611">
        <ele>745.63999999999999</ele>
        <time>2018-09-18T13:38:11Z</time>
      </trkpt>
      <trkpt lat="47.48066196218133" lon="9.934929013252258">
        <ele>740.35000000000002</ele>
        <time>2018-09-18T13:38:19Z</time>
      </trkpt>
      <trkpt lat="47.480913000181317" lon="9.935182984918356">
        <ele>738.90999999999997</ele>
        <time>2018-09-18T13:38:22Z</time>
      </trkpt>
      <trkpt lat="47.481869040057063" lon="9.935451038181782">
        <ele>735.07000000000005</ele>
        <time>2018-09-18T13:38:32Z</time>
      </trkpt>
      <trkpt lat="47.482194006443024" lon="9.935439974069595">
        <ele>733.62</ele>
        <time>2018-09-18T13:38:35Z</time>
      </trkpt>
      <trkpt lat="47.482300037518144" lon="9.935400998219848">
        <ele>733.13999999999999</ele>
        <time>2018-09-18T13:38:36Z</time>
      </trkpt>
      <trkpt lat="47.48240296728909" lon="9.935349030420184">
        <ele>733.13999999999999</ele>
        <time>2018-09-18T13:38:37Z</time>
      </trkpt>
      <trkpt lat="47.482501035556197" lon="9.935293039306998">
        <ele>732.65999999999997</ele>
        <time>2018-09-18T13:38:38Z</time>
      </trkpt>
      <trkpt lat="47.482590973377228" lon="9.935216009616852">
        <ele>732.17999999999995</ele>
        <time>2018-09-18T13:38:39Z</time>
      </trkpt>
      <trkpt lat="47.482677977532148" lon="9.935139985755086">
        <ele>732.17999999999995</ele>
        <time>2018-09-18T13:38:40Z</time>
      </trkpt>
      <trkpt lat="47.48276598751545" lon="9.935064967721701">
        <ele>732.17999999999995</ele>
        <time>2018-09-18T13:38:41Z</time>
      </trkpt>
      <trkpt lat="47.483194973319769" lon="9.934670012444258">
        <ele>731.22000000000003</ele>
        <time>2018-09-18T13:38:46Z</time>
      </trkpt>
      <trkpt lat="47.483281977474689" lon="9.934585019946098">
        <ele>730.74000000000001</ele>
        <time>2018-09-18T13:38:47Z</time>
      </trkpt>
      <trkpt lat="47.484283028170466" lon="9.933967022225261">
        <ele>727.37</ele>
        <time>2018-09-18T13:38:57Z</time>
      </trkpt>
      <trkpt lat="47.484998004510999" lon="9.933841964229941">
        <ele>723.04999999999995</ele>
        <time>2018-09-18T13:39:04Z</time>
      </trkpt>
      <trkpt lat="47.485412992537022" lon="9.933871971443296">
        <ele>722.09000000000003</ele>
        <time>2018-09-18T13:39:08Z</time>
      </trkpt>
      <trkpt lat="47.485522963106632" lon="9.933892004191876">
        <ele>721.61000000000001</ele>
        <time>2018-09-18T13:39:09Z</time>
      </trkpt>
      <trkpt lat="47.485635029152036" lon="9.933936009183526">
        <ele>721.13</ele>
        <time>2018-09-18T13:39:10Z</time>
      </trkpt>
      <trkpt lat="47.485742988064885" lon="9.933980014175177">
        <ele>720.64999999999998</ele>
        <time>2018-09-18T13:39:11Z</time>
      </trkpt>
      <trkpt lat="47.485865028575063" lon="9.934068024158478">
        <ele>720.15999999999997</ele>
        <time>2018-09-18T13:39:12Z</time>
      </trkpt>
      <trkpt lat="47.485984973609447" lon="9.934158967807889">
        <ele>719.20000000000005</ele>
        <time>2018-09-18T13:39:13Z</time>
      </trkpt>
      <trkpt lat="47.486083041876554" lon="9.934296011924744">
        <ele>718.72000000000003</ele>
        <time>2018-09-18T13:39:14Z</time>
      </trkpt>
      <trkpt lat="47.486386969685555" lon="9.93471896275878">
        <ele>715.36000000000001</ele>
        <time>2018-09-18T13:39:17Z</time>
      </trkpt>
      <trkpt lat="47.486472968012094" lon="9.934837985783815">
        <ele>714.39999999999998</ele>
        <time>2018-09-18T13:39:18Z</time>
      </trkpt>
      <trkpt lat="47.486614035442472" lon="9.934925995767117">
        <ele>713.44000000000005</ele>
        <time>2018-09-18T13:39:19Z</time>
      </trkpt>
      <trkpt lat="47.48674102127552" lon="9.935005959123373">
        <ele>712.95000000000005</ele>
        <time>2018-09-18T13:39:20Z</time>
      </trkpt>
      <trkpt lat="47.486875969916582" lon="9.935065973550081">
        <ele>711.99000000000001</ele>
        <time>2018-09-18T13:39:21Z</time>
      </trkpt>
      <trkpt lat="47.487023994326591" lon="9.935097992420197">
        <ele>711.50999999999999</ele>
        <time>2018-09-18T13:39:22Z</time>
      </trkpt>
      <trkpt lat="47.488741027191281" lon="9.935486996546388">
        <ele>702.38</ele>
        <time>2018-09-18T13:39:32Z</time>
      </trkpt>
      <trkpt lat="47.489908961579204" lon="9.93585797958076">
        <ele>690.84000000000003</ele>
        <time>2018-09-18T13:39:39Z</time>
      </trkpt>
      <trkpt lat="47.490050029009581" lon="9.935923023149371">
        <ele>689.39999999999998</ele>
        <time>2018-09-18T13:39:40Z</time>
      </trkpt>
      <trkpt lat="47.490163017064333" lon="9.935974990949035">
        <ele>687.48000000000002</ele>
        <time>2018-09-18T13:39:41Z</time>
      </trkpt>
      <trkpt lat="47.490261001512408" lon="9.936122009530664">
        <ele>686.03999999999996</ele>
        <time>2018-09-18T13:39:42Z</time>
      </trkpt>
      <trkpt lat="47.490335013717413" lon="9.936232985928655">
        <ele>684.60000000000002</ele>
        <time>2018-09-18T13:39:43Z</time>
      </trkpt>
      <trkpt lat="47.490369966253638" lon="9.936372963711619">
        <ele>683.14999999999998</ele>
        <time>2018-09-18T13:39:44Z</time>
      </trkpt>
      <trkpt lat="47.490395028144121" lon="9.936532974243164">
        <ele>681.71000000000004</ele>
        <time>2018-09-18T13:39:45Z</time>
      </trkpt>
      <trkpt lat="47.490368960425258" lon="9.936714023351669">
        <ele>680.26999999999998</ele>
        <time>2018-09-18T13:39:46Z</time>
      </trkpt>
      <trkpt lat="47.490315986797214" lon="9.936902029439807">
        <ele>679.30999999999995</ele>
        <time>2018-09-18T13:39:47Z</time>
      </trkpt>
      <trkpt lat="47.490236023440957" lon="9.937089029699564">
        <ele>678.83000000000004</ele>
        <time>2018-09-18T13:39:48Z</time>
      </trkpt>
      <trkpt lat="47.490138961002231" lon="9.937271000817418">
        <ele>677.87</ele>
        <time>2018-09-18T13:39:49Z</time>
      </trkpt>
      <trkpt lat="47.490015998482704" lon="9.937450038269162">
        <ele>676.41999999999996</ele>
        <time>2018-09-18T13:39:50Z</time>
      </trkpt>
      <trkpt lat="47.489114021882415" lon="9.938883008435369">
        <ele>667.76999999999998</ele>
        <time>2018-09-18T13:39:58Z</time>
      </trkpt>
      <trkpt lat="47.488411031663418" lon="9.941058028489351">
        <ele>668.25</ele>
        <time>2018-09-18T13:40:09Z</time>
      </trkpt>
      <trkpt lat="47.488257978111506" lon="9.941600002348423">
        <ele>669.70000000000005</ele>
        <time>2018-09-18T13:40:12Z</time>
      </trkpt>
      <trkpt lat="47.488211039453745" lon="9.941768981516361">
        <ele>670.65999999999997</ele>
        <time>2018-09-18T13:40:13Z</time>
      </trkpt>
      <trkpt lat="47.488211039453745" lon="9.941950030624867">
        <ele>671.13999999999999</ele>
        <time>2018-09-18T13:40:14Z</time>
      </trkpt>
      <trkpt lat="47.488262001425028" lon="9.942138958722353">
        <ele>672.10000000000002</ele>
        <time>2018-09-18T13:40:15Z</time>
      </trkpt>
      <trkpt lat="47.48835101723671" lon="9.942309027537704">
        <ele>672.58000000000004</ele>
        <time>2018-09-18T13:40:16Z</time>
      </trkpt>
      <trkpt lat="47.488465011119843" lon="9.942397959530354">
        <ele>673.53999999999996</ele>
        <time>2018-09-18T13:40:17Z</time>
      </trkpt>
      <trkpt lat="47.488601971417665" lon="9.942465014755726">
        <ele>674.01999999999998</ele>
        <time>2018-09-18T13:40:18Z</time>
      </trkpt>
      <trkpt lat="47.488744966685772" lon="9.942513965070248">
        <ele>674.98000000000002</ele>
        <time>2018-09-18T13:40:19Z</time>
      </trkpt>
      <trkpt lat="47.488896008580923" lon="9.942566016688943">
        <ele>675.46000000000004</ele>
        <time>2018-09-18T13:40:20Z</time>
      </trkpt>
      <trkpt lat="47.489054007455707" lon="9.942619996145368">
        <ele>676.41999999999996</ele>
        <time>2018-09-18T13:40:21Z</time>
      </trkpt>
      <trkpt lat="47.489215023815632" lon="9.942674981430173">
        <ele>677.38999999999999</ele>
        <time>2018-09-18T13:40:22Z</time>
      </trkpt>
      <trkpt lat="47.48936296440661" lon="9.942773971706629">
        <ele>678.35000000000002</ele>
        <time>2018-09-18T13:40:23Z</time>
      </trkpt>
      <trkpt lat="47.489515012130141" lon="9.942900035530329">
        <ele>678.83000000000004</ele>
        <time>2018-09-18T13:40:24Z</time>
      </trkpt>
      <trkpt lat="47.489653984084725" lon="9.943042024970055">
        <ele>679.30999999999995</ele>
        <time>2018-09-18T13:40:25Z</time>
      </trkpt>
      <trkpt lat="47.489753980189562" lon="9.943229025229812">
        <ele>680.26999999999998</ele>
        <time>2018-09-18T13:40:26Z</time>
      </trkpt>
      <trkpt lat="47.489849030971527" lon="9.943405967205763">
        <ele>680.26999999999998</ele>
        <time>2018-09-18T13:40:27Z</time>
      </trkpt>
      <trkpt lat="47.489949027076364" lon="9.94359296746552">
        <ele>680.75</ele>
        <time>2018-09-18T13:40:28Z</time>
      </trkpt>
      <trkpt lat="47.489992026239634" lon="9.94376203045249">
        <ele>681.23000000000002</ele>
        <time>2018-09-18T13:40:29Z</time>
      </trkpt>
      <trkpt lat="47.490039970725775" lon="9.943949030712247">
        <ele>681.71000000000004</ele>
        <time>2018-09-18T13:40:30Z</time>
      </trkpt>
      <trkpt lat="47.490193024277687" lon="9.94449301622808">
        <ele>682.19000000000005</ele>
        <time>2018-09-18T13:40:33Z</time>
      </trkpt>
      <trkpt lat="47.490265024825931" lon="9.94464498013258">
        <ele>682.19000000000005</ele>
        <time>2018-09-18T13:40:34Z</time>
      </trkpt>
      <trkpt lat="47.490334007889032" lon="9.944790992885828">
        <ele>682.19000000000005</ele>
        <time>2018-09-18T13:40:35Z</time>
      </trkpt>
      <trkpt lat="47.490423023700714" lon="9.944890988990665">
        <ele>681.71000000000004</ele>
        <time>2018-09-18T13:40:36Z</time>
      </trkpt>
      <trkpt lat="47.490506004542112" lon="9.944982016459107">
        <ele>681.71000000000004</ele>
        <time>2018-09-18T13:40:37Z</time>
      </trkpt>
      <trkpt lat="47.490585967898369" lon="9.945049993693829">
        <ele>681.71000000000004</ele>
        <time>2018-09-18T13:40:38Z</time>
      </trkpt>
      <trkpt lat="47.490679007023573" lon="9.945101039484143">
        <ele>681.71000000000004</ele>
        <time>2018-09-18T13:40:39Z</time>
      </trkpt>
      <trkpt lat="47.490785960108042" lon="9.945158958435059">
        <ele>681.23000000000002</ele>
        <time>2018-09-18T13:40:40Z</time>
      </trkpt>
      <trkpt lat="47.491814000532031" lon="9.945389041677117">
        <ele>679.30999999999995</ele>
        <time>2018-09-18T13:40:47Z</time>
      </trkpt>
      <trkpt lat="47.493125014007092" lon="9.945802018046379">
        <ele>678.83000000000004</ele>
        <time>2018-09-18T13:40:56Z</time>
      </trkpt>
      <trkpt lat="47.494472991675138" lon="9.945824984461069">
        <ele>677.87</ele>
        <time>2018-09-18T13:41:05Z</time>
      </trkpt>
      <trkpt lat="47.495090989395976" lon="9.945836970582604">
        <ele>677.87</ele>
        <time>2018-09-18T13:41:09Z</time>
      </trkpt>
      <trkpt lat="47.495244964957237" lon="9.945892039686441">
        <ele>677.87</ele>
        <time>2018-09-18T13:41:10Z</time>
      </trkpt>
      <trkpt lat="47.496621022000909" lon="9.946266962215304">
        <ele>673.53999999999996</ele>
        <time>2018-09-18T13:41:19Z</time>
      </trkpt>
      <trkpt lat="47.497880989685655" lon="9.946652026847005">
        <ele>669.70000000000005</ele>
        <time>2018-09-18T13:41:29Z</time>
      </trkpt>
      <trkpt lat="47.497993977740407" lon="9.946674993261695">
        <ele>669.22000000000003</ele>
        <time>2018-09-18T13:41:30Z</time>
      </trkpt>
      <trkpt lat="47.49810797162354" lon="9.946631994098425">
        <ele>669.22000000000003</ele>
        <time>2018-09-18T13:41:31Z</time>
      </trkpt>
      <trkpt lat="47.498217020183802" lon="9.946563011035323">
        <ele>669.22000000000003</ele>
        <time>2018-09-18T13:41:32Z</time>
      </trkpt>
      <trkpt lat="47.498324979096651" lon="9.946479024365544">
        <ele>669.22000000000003</ele>
        <time>2018-09-18T13:41:33Z</time>
      </trkpt>
      <trkpt lat="47.498436961323023" lon="9.946393026039004">
        <ele>669.70000000000005</ele>
        <time>2018-09-18T13:41:34Z</time>
      </trkpt>
      <trkpt lat="47.498551039025187" lon="9.946305016055703">
        <ele>669.70000000000005</ele>
        <time>2018-09-18T13:41:35Z</time>
      </trkpt>
      <trkpt lat="47.498677019029856" lon="9.946248019114137">
        <ele>670.65999999999997</ele>
        <time>2018-09-18T13:41:36Z</time>
      </trkpt>
      <trkpt lat="47.498799981549382" lon="9.946236032992601">
        <ele>671.13999999999999</ele>
        <time>2018-09-18T13:41:37Z</time>
      </trkpt>
      <trkpt lat="47.498920010402799" lon="9.946224968880415">
        <ele>672.10000000000002</ele>
        <time>2018-09-18T13:41:38Z</time>
      </trkpt>
      <trkpt lat="47.499036015942693" lon="9.94621398858726">
        <ele>672.58000000000004</ele>
        <time>2018-09-18T13:41:39Z</time>
      </trkpt>
      <trkpt lat="47.499144980683923" lon="9.946210971102119">
        <ele>673.05999999999995</ele>
        <time>2018-09-18T13:41:40Z</time>
      </trkpt>
      <trkpt lat="47.500042011961341" lon="9.946314990520477">
        <ele>674.5</ele>
        <time>2018-09-18T13:41:49Z</time>
      </trkpt>
      <trkpt lat="47.500136978924274" lon="9.946268973872066">
        <ele>674.98000000000002</ele>
        <time>2018-09-18T13:41:50Z</time>
      </trkpt>
      <trkpt lat="47.50023303553462" lon="9.946223041042686">
        <ele>674.98000000000002</ele>
        <time>2018-09-18T13:41:51Z</time>
      </trkpt>
      <trkpt lat="47.500517014414072" lon="9.946085996925831">
        <ele>675.94000000000005</ele>
        <time>2018-09-18T13:41:54Z</time>
      </trkpt>
      <trkpt lat="47.500611981377006" lon="9.946049032732844">
        <ele>676.41999999999996</ele>
        <time>2018-09-18T13:41:55Z</time>
      </trkpt>
      <trkpt lat="47.500716000795364" lon="9.946020031347871">
        <ele>676.90999999999997</ele>
        <time>2018-09-18T13:41:56Z</time>
      </trkpt>
      <trkpt lat="47.500940971076488" lon="9.946004021912813">
        <ele>678.35000000000002</ele>
        <time>2018-09-18T13:41:58Z</time>
      </trkpt>
      <trkpt lat="47.502094991505146" lon="9.946189010515809">
        <ele>679.78999999999996</ele>
        <time>2018-09-18T13:42:06Z</time>
      </trkpt>
      <trkpt lat="47.502592960372567" lon="9.946251958608627">
        <ele>679.78999999999996</ele>
        <time>2018-09-18T13:42:09Z</time>
      </trkpt>
      <trkpt lat="47.502759005874395" lon="9.946210971102119">
        <ele>679.78999999999996</ele>
        <time>2018-09-18T13:42:10Z</time>
      </trkpt>
      <trkpt lat="47.502923039719462" lon="9.946168977767229">
        <ele>680.26999999999998</ele>
        <time>2018-09-18T13:42:11Z</time>
      </trkpt>
      <trkpt lat="47.504207985475659" lon="9.946038974449039">
        <ele>678.83000000000004</ele>
        <time>2018-09-18T13:42:19Z</time>
      </trkpt>
      <trkpt lat="47.504362966865301" lon="9.945990024134517">
        <ele>678.35000000000002</ele>
        <time>2018-09-18T13:42:20Z</time>
      </trkpt>
      <trkpt lat="47.504519959911704" lon="9.945915006101131">
        <ele>677.38999999999999</ele>
        <time>2018-09-18T13:42:21Z</time>
      </trkpt>
      <trkpt lat="47.504968978464603" lon="9.945713002234697">
        <ele>674.5</ele>
        <time>2018-09-18T13:42:24Z</time>
      </trkpt>
      <trkpt lat="47.505105016753078" lon="9.945695986971259">
        <ele>674.01999999999998</ele>
        <time>2018-09-18T13:42:25Z</time>
      </trkpt>
      <trkpt lat="47.505237031728029" lon="9.945695986971259">
        <ele>673.53999999999996</ele>
        <time>2018-09-18T13:42:26Z</time>
      </trkpt>
      <trkpt lat="47.505361000075936" lon="9.945730017498136">
        <ele>672.58000000000004</ele>
        <time>2018-09-18T13:42:27Z</time>
      </trkpt>
      <trkpt lat="47.505478011444211" lon="9.945812998339534">
        <ele>672.10000000000002</ele>
        <time>2018-09-18T13:42:28Z</time>
      </trkpt>
      <trkpt lat="47.505612960085273" lon="9.945909976959229">
        <ele>671.13999999999999</ele>
        <time>2018-09-18T13:42:29Z</time>
      </trkpt>
      <trkpt lat="47.505716979503632" lon="9.946042997762561">
        <ele>670.17999999999995</ele>
        <time>2018-09-18T13:42:30Z</time>
      </trkpt>
      <trkpt lat="47.505842037498951" lon="9.946202002465725">
        <ele>668.73000000000002</ele>
        <time>2018-09-18T13:42:31Z</time>
      </trkpt>
      <trkpt lat="47.505973968654871" lon="9.946370981633663">
        <ele>667.76999999999998</ele>
        <time>2018-09-18T13:42:32Z</time>
      </trkpt>
      <trkpt lat="47.507022963836789" lon="9.948098994791508">
        <ele>656.24000000000001</ele>
        <time>2018-09-18T13:42:40Z</time>
      </trkpt>
      <trkpt lat="47.508230963721871" lon="9.949993975460529">
        <ele>642.29999999999995</ele>
        <time>2018-09-18T13:42:48Z</time>
      </trkpt>
      <trkpt lat="47.509253975003958" lon="9.951288979500532">
        <ele>636.52999999999997</ele>
        <time>2018-09-18T13:42:54Z</time>
      </trkpt>
      <trkpt lat="47.50945002771914" lon="9.951443038880825">
        <ele>636.52999999999997</ele>
        <time>2018-09-18T13:42:55Z</time>
      </trkpt>
      <trkpt lat="47.509642979130149" lon="9.951595002785325">
        <ele>637.00999999999999</ele>
        <time>2018-09-18T13:42:56Z</time>
      </trkpt>
      <trkpt lat="47.509834002703428" lon="9.951718971133232">
        <ele>637.49000000000001</ele>
        <time>2018-09-18T13:42:57Z</time>
      </trkpt>
      <trkpt lat="47.510018991306424" lon="9.951803963631392">
        <ele>638.45000000000005</ele>
        <time>2018-09-18T13:42:58Z</time>
      </trkpt>
      <trkpt lat="47.510188976302743" lon="9.951883004978299">
        <ele>639.40999999999997</ele>
        <time>2018-09-18T13:42:59Z</time>
      </trkpt>
      <trkpt lat="47.510767998173833" lon="9.95218601077795">
        <ele>643.74000000000001</ele>
        <time>2018-09-18T13:43:03Z</time>
      </trkpt>
      <trkpt lat="47.51088903285563" lon="9.952331017702818">
        <ele>644.70000000000005</ele>
        <time>2018-09-18T13:43:04Z</time>
      </trkpt>
      <trkpt lat="47.511007972061634" lon="9.952481975778937">
        <ele>645.17999999999995</ele>
        <time>2018-09-18T13:43:05Z</time>
      </trkpt>
      <trkpt lat="47.511085001751781" lon="9.952683979645371">
        <ele>645.65999999999997</ele>
        <time>2018-09-18T13:43:06Z</time>
      </trkpt>
      <trkpt lat="47.511158008128405" lon="9.95289302431047">
        <ele>646.62</ele>
        <time>2018-09-18T13:43:07Z</time>
      </trkpt>
      <trkpt lat="47.511195978149772" lon="9.953107014298439">
        <ele>647.10000000000002</ele>
        <time>2018-09-18T13:43:08Z</time>
      </trkpt>
      <trkpt lat="47.511205030605197" lon="9.953341037034988">
        <ele>647.59000000000003</ele>
        <time>2018-09-18T13:43:09Z</time>
      </trkpt>
      <trkpt lat="47.51121299341321" lon="9.953571958467364">
        <ele>648.07000000000005</ele>
        <time>2018-09-18T13:43:10Z</time>
      </trkpt>
      <trkpt lat="47.511161025613546" lon="9.953795000910759">
        <ele>648.54999999999995</ele>
        <time>2018-09-18T13:43:11Z</time>
      </trkpt>
      <trkpt lat="47.51110696233809" lon="9.954027011990547">
        <ele>649.02999999999997</ele>
        <time>2018-09-18T13:43:12Z</time>
      </trkpt>
      <trkpt lat="47.511050971224904" lon="9.954257011413574">
        <ele>649.50999999999999</ele>
        <time>2018-09-18T13:43:13Z</time>
      </trkpt>
      <trkpt lat="47.510991962626576" lon="9.954472007229924">
        <ele>649.50999999999999</ele>
        <time>2018-09-18T13:43:14Z</time>
      </trkpt>
      <trkpt lat="47.510951980948448" lon="9.954670993611217">
        <ele>649.02999999999997</ele>
        <time>2018-09-18T13:43:15Z</time>
      </trkpt>
      <trkpt lat="47.510942006483674" lon="9.954879032447934">
        <ele>648.54999999999995</ele>
        <time>2018-09-18T13:43:16Z</time>
      </trkpt>
      <trkpt lat="47.510957010090351" lon="9.955101991072297">
        <ele>648.54999999999995</ele>
        <time>2018-09-18T13:43:17Z</time>
      </trkpt>
      <trkpt lat="47.511023981496692" lon="9.955312963575125">
        <ele>647.59000000000003</ele>
        <time>2018-09-18T13:43:18Z</time>
      </trkpt>
      <trkpt lat="47.511110985651612" lon="9.955525025725365">
        <ele>646.62</ele>
        <time>2018-09-18T13:43:19Z</time>
      </trkpt>
      <trkpt lat="47.511222967877984" lon="9.955728035420179">
        <ele>645.65999999999997</ele>
        <time>2018-09-18T13:43:20Z</time>
      </trkpt>
      <trkpt lat="47.511345008388162" lon="9.955931967124343">
        <ele>644.22000000000003</ele>
        <time>2018-09-18T13:43:21Z</time>
      </trkpt>
      <trkpt lat="47.511761002242565" lon="9.95652599260211">
        <ele>639.88999999999999</ele>
        <time>2018-09-18T13:43:24Z</time>
      </trkpt>
      <trkpt lat="47.513050977140665" lon="9.957808004692197">
        <ele>630.75999999999999</ele>
        <time>2018-09-18T13:43:32Z</time>
      </trkpt>
      <trkpt lat="47.514106007292867" lon="9.959009969606996">
        <ele>630.27999999999997</ele>
        <time>2018-09-18T13:43:39Z</time>
      </trkpt>
      <trkpt lat="47.514999015256763" lon="9.960711998865008">
        <ele>623.54999999999995</ele>
        <time>2018-09-18T13:43:46Z</time>
      </trkpt>
      <trkpt lat="47.515157014131546" lon="9.960916014388204">
        <ele>622.59000000000003</ele>
        <time>2018-09-18T13:43:47Z</time>
      </trkpt>
      <trkpt lat="47.515322975814342" lon="9.961108965799213">
        <ele>622.11000000000001</ele>
        <time>2018-09-18T13:43:48Z</time>
      </trkpt>
      <trkpt lat="47.515501007437706" lon="9.961276017129421">
        <ele>622.11000000000001</ele>
        <time>2018-09-18T13:43:49Z</time>
      </trkpt>
      <trkpt lat="47.515693036839366" lon="9.961415994912386">
        <ele>622.11000000000001</ele>
        <time>2018-09-18T13:43:50Z</time>
      </trkpt>
      <trkpt lat="47.515893029049039" lon="9.961527977138758">
        <ele>622.11000000000001</ele>
        <time>2018-09-18T13:43:51Z</time>
      </trkpt>
      <trkpt lat="47.516094027087092" lon="9.96164096519351">
        <ele>622.11000000000001</ele>
        <time>2018-09-18T13:43:52Z</time>
      </trkpt>
      <trkpt lat="47.516660979017615" lon="9.962007002905011">
        <ele>623.07000000000005</ele>
        <time>2018-09-18T13:43:55Z</time>
      </trkpt>
      <trkpt lat="47.516824007034302" lon="9.962184028699994">
        <ele>623.54999999999995</ele>
        <time>2018-09-18T13:43:56Z</time>
      </trkpt>
      <trkpt lat="47.516977982595563" lon="9.962365999817848">
        <ele>624.02999999999997</ele>
        <time>2018-09-18T13:43:57Z</time>
      </trkpt>
      <trkpt lat="47.51712198369205" lon="9.96256398037076">
        <ele>624.99000000000001</ele>
        <time>2018-09-18T13:43:58Z</time>
      </trkpt>
      <trkpt lat="47.51725098118186" lon="9.962786016985774">
        <ele>625.96000000000004</ele>
        <time>2018-09-18T13:43:59Z</time>
      </trkpt>
      <trkpt lat="47.517373021692038" lon="9.963021967560053">
        <ele>627.39999999999998</ele>
        <time>2018-09-18T13:44:00Z</time>
      </trkpt>
      <trkpt lat="47.517489027231932" lon="9.963266970589757">
        <ele>628.36000000000001</ele>
        <time>2018-09-18T13:44:01Z</time>
      </trkpt>
      <trkpt lat="47.517582988366485" lon="9.963539969176054">
        <ele>629.79999999999995</ele>
        <time>2018-09-18T13:44:02Z</time>
      </trkpt>
      <trkpt lat="47.517674015834928" lon="9.963811039924622">
        <ele>630.75999999999999</ele>
        <time>2018-09-18T13:44:03Z</time>
      </trkpt>
      <trkpt lat="47.518408019095659" lon="9.965488007292152">
        <ele>635.09000000000003</ele>
        <time>2018-09-18T13:44:10Z</time>
      </trkpt>
      <trkpt lat="47.518483959138393" lon="9.965706020593643">
        <ele>635.57000000000005</ele>
        <time>2018-09-18T13:44:11Z</time>
      </trkpt>
      <trkpt lat="47.518552020192146" lon="9.965952029451728">
        <ele>636.52999999999997</ele>
        <time>2018-09-18T13:44:12Z</time>
      </trkpt>
      <trkpt lat="47.518578004091978" lon="9.966197032481432">
        <ele>637.00999999999999</ele>
        <time>2018-09-18T13:44:13Z</time>
      </trkpt>
      <trkpt lat="47.518585966899991" lon="9.966462990269065">
        <ele>637.97000000000003</ele>
        <time>2018-09-18T13:44:14Z</time>
      </trkpt>
      <trkpt lat="47.518564006313682" lon="9.966730959713459">
        <ele>638.92999999999995</ele>
        <time>2018-09-18T13:44:15Z</time>
      </trkpt>
      <trkpt lat="47.518543973565102" lon="9.96698803268373">
        <ele>640.38</ele>
        <time>2018-09-18T13:44:16Z</time>
      </trkpt>
      <trkpt lat="47.518494017422199" lon="9.967885985970497">
        <ele>645.17999999999995</ele>
        <time>2018-09-18T13:44:20Z</time>
      </trkpt>
      <trkpt lat="47.518525030463934" lon="9.96810500510037">
        <ele>646.13999999999999</ele>
        <time>2018-09-18T13:44:21Z</time>
      </trkpt>
      <trkpt lat="47.518558977171779" lon="9.968313965946436">
        <ele>647.10000000000002</ele>
        <time>2018-09-18T13:44:22Z</time>
      </trkpt>
      <trkpt lat="47.518613962456584" lon="9.968508007004857">
        <ele>647.59000000000003</ele>
        <time>2018-09-18T13:44:23Z</time>
      </trkpt>
      <trkpt lat="47.51866701990366" lon="9.968694001436234">
        <ele>648.54999999999995</ele>
        <time>2018-09-18T13:44:24Z</time>
      </trkpt>
      <trkpt lat="47.518736002966762" lon="9.968850994482637">
        <ele>649.02999999999997</ele>
        <time>2018-09-18T13:44:25Z</time>
      </trkpt>
      <trkpt lat="47.518812026828527" lon="9.968987032771111">
        <ele>649.50999999999999</ele>
        <time>2018-09-18T13:44:26Z</time>
      </trkpt>
      <trkpt lat="47.518910011276603" lon="9.969070013612509">
        <ele>649.99000000000001</ele>
        <time>2018-09-18T13:44:27Z</time>
      </trkpt>
      <trkpt lat="47.519010007381439" lon="9.969105971977115">
        <ele>650.47000000000003</ele>
        <time>2018-09-18T13:44:28Z</time>
      </trkpt>
      <trkpt lat="47.519112015143037" lon="9.969105971977115">
        <ele>650.47000000000003</ele>
        <time>2018-09-18T13:44:29Z</time>
      </trkpt>
      <trkpt lat="47.519214022904634" lon="9.969086023047566">
        <ele>650.47000000000003</ele>
        <time>2018-09-18T13:44:30Z</time>
      </trkpt>
      <trkpt lat="47.519317036494613" lon="9.969061966985464">
        <ele>650.95000000000005</ele>
        <time>2018-09-18T13:44:31Z</time>
      </trkpt>
      <trkpt lat="47.519422983750701" lon="9.969035983085632">
        <ele>650.95000000000005</ele>
        <time>2018-09-18T13:44:32Z</time>
      </trkpt>
      <trkpt lat="47.519525997340679" lon="9.969012010842562">
        <ele>650.95000000000005</ele>
        <time>2018-09-18T13:44:33Z</time>
      </trkpt>
      <trkpt lat="47.51963404007256" lon="9.969030031934381">
        <ele>650.95000000000005</ele>
        <time>2018-09-18T13:44:34Z</time>
      </trkpt>
      <trkpt lat="47.519725989550352" lon="9.969087028875947">
        <ele>650.95000000000005</ele>
        <time>2018-09-18T13:44:35Z</time>
      </trkpt>
      <trkpt lat="47.519815005362034" lon="9.969142014160752">
        <ele>650.47000000000003</ele>
        <time>2018-09-18T13:44:36Z</time>
      </trkpt>
      <trkpt lat="47.519890023395419" lon="9.96922398917377">
        <ele>650.47000000000003</ele>
        <time>2018-09-18T13:44:37Z</time>
      </trkpt>
      <trkpt lat="47.519949031993747" lon="9.969333959743381">
        <ele>650.47000000000003</ele>
        <time>2018-09-18T13:44:38Z</time>
      </trkpt>
      <trkpt lat="47.520010974258184" lon="9.969448959454894">
        <ele>650.47000000000003</ele>
        <time>2018-09-18T13:44:39Z</time>
      </trkpt>
      <trkpt lat="47.520057996734977" lon="9.969564964994788">
        <ele>650.47000000000003</ele>
        <time>2018-09-18T13:44:40Z</time>
      </trkpt>
      <trkpt lat="47.520201997831464" lon="9.969915999099612">
        <ele>650.47000000000003</ele>
        <time>2018-09-18T13:44:43Z</time>
      </trkpt>
      <trkpt lat="47.520269975066185" lon="9.969980958849192">
        <ele>650.47000000000003</ele>
        <time>2018-09-18T13:44:44Z</time>
      </trkpt>
      <trkpt lat="47.520335018634796" lon="9.970039967447519">
        <ele>650.47000000000003</ele>
        <time>2018-09-18T13:44:45Z</time>
      </trkpt>
      <trkpt lat="47.520402995869517" lon="9.970101993530989">
        <ele>650.95000000000005</ele>
        <time>2018-09-18T13:44:46Z</time>
      </trkpt>
      <trkpt lat="47.520470973104239" lon="9.9701670370996">
        <ele>650.95000000000005</ele>
        <time>2018-09-18T13:44:47Z</time>
      </trkpt>
      <trkpt lat="47.520610028877854" lon="9.970305003225803">
        <ele>650.95000000000005</ele>
        <time>2018-09-18T13:44:49Z</time>
      </trkpt>
      <trkpt lat="47.520680017769337" lon="9.970387984067202">
        <ele>650.95000000000005</ele>
        <time>2018-09-18T13:44:50Z</time>
      </trkpt>
      <trkpt lat="47.521350989118218" lon="9.971468998119235">
        <ele>648.07000000000005</ele>
        <time>2018-09-18T13:45:00Z</time>
      </trkpt>
      <trkpt lat="47.521802019327879" lon="9.972047014161944">
        <ele>646.13999999999999</ele>
        <time>2018-09-18T13:45:06Z</time>
      </trkpt>
      <trkpt lat="47.52186899073422" lon="9.972131000831723">
        <ele>645.65999999999997</ele>
        <time>2018-09-18T13:45:07Z</time>
      </trkpt>
      <trkpt lat="47.521967981010675" lon="9.972194032743573">
        <ele>645.65999999999997</ele>
        <time>2018-09-18T13:45:08Z</time>
      </trkpt>
      <trkpt lat="47.52206495963037" lon="9.97218900360167">
        <ele>645.65999999999997</ele>
        <time>2018-09-18T13:45:09Z</time>
      </trkpt>
      <trkpt lat="47.522160010412335" lon="9.972184980288148">
        <ele>646.13999999999999</ele>
        <time>2018-09-18T13:45:10Z</time>
      </trkpt>
      <trkpt lat="47.522250032052398" lon="9.972180034965277">
        <ele>646.62</ele>
        <time>2018-09-18T13:45:11Z</time>
      </trkpt>
      <trkpt lat="47.522370982915163" lon="9.972173999994993">
        <ele>647.10000000000002</ele>
        <time>2018-09-18T13:45:12Z</time>
      </trkpt>
      <trkpt lat="47.522439965978265" lon="9.97225203551352">
        <ele>647.59000000000003</ele>
        <time>2018-09-18T13:45:13Z</time>
      </trkpt>
      <trkpt lat="47.522523030638695" lon="9.972345996648073">
        <ele>648.07000000000005</ele>
        <time>2018-09-18T13:45:14Z</time>
      </trkpt>
      <trkpt lat="47.522606011480093" lon="9.972440041601658">
        <ele>648.54999999999995</ele>
        <time>2018-09-18T13:45:15Z</time>
      </trkpt>
      <trkpt lat="47.523350995033979" lon="9.973318967968226">
        <ele>652.87</ele>
        <time>2018-09-18T13:45:23Z</time>
      </trkpt>
      <trkpt lat="47.524072006344795" lon="9.974879007786512">
        <ele>655.27999999999997</ele>
        <time>2018-09-18T13:45:32Z</time>
      </trkpt>
      <trkpt lat="47.524595037102699" lon="9.976858980953693">
        <ele>655.75999999999999</ele>
        <time>2018-09-18T13:45:40Z</time>
      </trkpt>
      <trkpt lat="47.524913968518376" lon="9.977551996707916">
        <ele>656.24000000000001</ele>
        <time>2018-09-18T13:45:43Z</time>
      </trkpt>
      <trkpt lat="47.525057969614863" lon="9.977740002796054">
        <ele>657.20000000000005</ele>
        <time>2018-09-18T13:45:44Z</time>
      </trkpt>
      <trkpt lat="47.525212028995156" lon="9.977922979742289">
        <ele>657.67999999999995</ele>
        <time>2018-09-18T13:45:45Z</time>
      </trkpt>
      <trkpt lat="47.526888996362686" lon="9.979714024811983">
        <ele>662.97000000000003</ele>
        <time>2018-09-18T13:45:55Z</time>
      </trkpt>
      <trkpt lat="47.528088027611375" lon="9.980415003374219">
        <ele>663.45000000000005</ele>
        <time>2018-09-18T13:46:02Z</time>
      </trkpt>
      <trkpt lat="47.52861600369215" lon="9.980713985860348">
        <ele>662.49000000000001</ele>
        <time>2018-09-18T13:46:05Z</time>
      </trkpt>
      <trkpt lat="47.529591992497444" lon="9.981812015175819">
        <ele>660.08000000000004</ele>
        <time>2018-09-18T13:46:11Z</time>
      </trkpt>
      <trkpt lat="47.529729958623648" lon="9.98209398239851">
        <ele>659.60000000000002</ele>
        <time>2018-09-18T13:46:12Z</time>
      </trkpt>
      <trkpt lat="47.529872031882405" lon="9.982385002076626">
        <ele>659.12</ele>
        <time>2018-09-18T13:46:13Z</time>
      </trkpt>
      <trkpt lat="47.529999017715454" lon="9.982688007876277">
        <ele>658.15999999999997</ele>
        <time>2018-09-18T13:46:14Z</time>
      </trkpt>
      <trkpt lat="47.530090967193246" lon="9.983004005625844">
        <ele>657.20000000000005</ele>
        <time>2018-09-18T13:46:15Z</time>
      </trkpt>
      <trkpt lat="47.530180988833308" lon="9.983311034739018">
        <ele>656.24000000000001</ele>
        <time>2018-09-18T13:46:16Z</time>
      </trkpt>
      <trkpt lat="47.530250977724791" lon="9.983629966154695">
        <ele>655.75999999999999</ele>
        <time>2018-09-18T13:46:17Z</time>
      </trkpt>
      <trkpt lat="47.530301017686725" lon="9.983954010531306">
        <ele>654.79999999999995</ele>
        <time>2018-09-18T13:46:18Z</time>
      </trkpt>
      <trkpt lat="47.530710976570845" lon="9.986117966473103">
        <ele>649.99000000000001</ele>
        <time>2018-09-18T13:46:25Z</time>
      </trkpt>
      <trkpt lat="47.531595015898347" lon="9.988203970715404">
        <ele>646.62</ele>
        <time>2018-09-18T13:46:31Z</time>
      </trkpt>
      <trkpt lat="47.533344989642501" lon="9.992079008370638">
        <ele>642.29999999999995</ele>
        <time>2018-09-18T13:46:42Z</time>
      </trkpt>
      <trkpt lat="47.534516025334597" lon="9.994864985346794">
        <ele>641.34000000000003</ele>
        <time>2018-09-18T13:46:51Z</time>
      </trkpt>
      <trkpt lat="47.535839024931192" lon="9.998282035812736">
        <ele>641.82000000000005</ele>
        <time>2018-09-18T13:47:03Z</time>
      </trkpt>
      <trkpt lat="47.536698002368212" lon="10.000812029466033">
        <ele>644.70000000000005</ele>
        <time>2018-09-18T13:47:14Z</time>
      </trkpt>
      <trkpt lat="47.537392023950815" lon="10.002850005403161">
        <ele>648.07000000000005</ele>
        <time>2018-09-18T13:47:23Z</time>
      </trkpt>
      <trkpt lat="47.538532968610525" lon="10.005097026005387">
        <ele>652.87</ele>
        <time>2018-09-18T13:47:34Z</time>
      </trkpt>
      <trkpt lat="47.539769969880581" lon="10.007840003818274">
        <ele>658.63999999999999</ele>
        <time>2018-09-18T13:47:45Z</time>
      </trkpt>
      <trkpt lat="47.540650991722941" lon="10.010702004656196">
        <ele>656.72000000000003</ele>
        <time>2018-09-18T13:47:55Z</time>
      </trkpt>
      <trkpt lat="47.541646007448435" lon="10.013917973265052">
        <ele>656.72000000000003</ele>
        <time>2018-09-18T13:48:07Z</time>
      </trkpt>
      <trkpt lat="47.542652003467083" lon="10.015296963974833">
        <ele>660.08000000000004</ele>
        <time>2018-09-18T13:48:15Z</time>
      </trkpt>
      <trkpt lat="47.543522967025638" lon="10.016445033252239">
        <ele>663.45000000000005</ele>
        <time>2018-09-18T13:48:22Z</time>
      </trkpt>
      <trkpt lat="47.543618017807603" lon="10.016653994098306">
        <ele>664.40999999999997</ele>
        <time>2018-09-18T13:48:23Z</time>
      </trkpt>
      <trkpt lat="47.543714996427298" lon="10.016865972429514">
        <ele>664.88999999999999</ele>
        <time>2018-09-18T13:48:24Z</time>
      </trkpt>
      <trkpt lat="47.544237021356821" lon="10.018644025549293">
        <ele>670.65999999999997</ele>
        <time>2018-09-18T13:48:32Z</time>
      </trkpt>
      <trkpt lat="47.5443019811064" lon="10.018824990838766">
        <ele>671.62</ele>
        <time>2018-09-18T13:48:33Z</time>
      </trkpt>
      <trkpt lat="47.544388985261321" lon="10.018947031348944">
        <ele>672.58000000000004</ele>
        <time>2018-09-18T13:48:34Z</time>
      </trkpt>
      <trkpt lat="47.54453700967133" lon="10.019166972488165">
        <ele>674.01999999999998</ele>
        <time>2018-09-18T13:48:36Z</time>
      </trkpt>
      <trkpt lat="47.544626025483012" lon="10.019248025491834">
        <ele>674.5</ele>
        <time>2018-09-18T13:48:37Z</time>
      </trkpt>
      <trkpt lat="47.544975969940424" lon="10.019539967179298">
        <ele>677.38999999999999</ele>
        <time>2018-09-18T13:48:42Z</time>
      </trkpt>
      <trkpt lat="47.545248968526721" lon="10.019655972719193">
        <ele>680.75</ele>
        <time>2018-09-18T13:48:47Z</time>
      </trkpt>
      <trkpt lat="47.545334966853261" lon="10.019682040438056">
        <ele>681.23000000000002</ele>
        <time>2018-09-18T13:48:48Z</time>
      </trkpt>
      <trkpt lat="47.545429011806846" lon="10.019669970497489">
        <ele>681.71000000000004</ele>
        <time>2018-09-18T13:48:49Z</time>
      </trkpt>
      <trkpt lat="47.545532025396824" lon="10.01964800991118">
        <ele>682.19000000000005</ele>
        <time>2018-09-18T13:48:50Z</time>
      </trkpt>
      <trkpt lat="47.545635960996151" lon="10.019626971334219">
        <ele>682.66999999999996</ele>
        <time>2018-09-18T13:48:51Z</time>
      </trkpt>
      <trkpt lat="47.545738974586129" lon="10.01960501074791">
        <ele>683.14999999999998</ele>
        <time>2018-09-18T13:48:52Z</time>
      </trkpt>
      <trkpt lat="47.545843999832869" lon="10.019612973555923">
        <ele>683.63</ele>
        <time>2018-09-18T13:48:53Z</time>
      </trkpt>
      <trkpt lat="47.545949025079608" lon="10.019640969112515">
        <ele>684.12</ele>
        <time>2018-09-18T13:48:54Z</time>
      </trkpt>
      <trkpt lat="47.546050027012825" lon="10.019709030166268">
        <ele>684.12</ele>
        <time>2018-09-18T13:48:55Z</time>
      </trkpt>
      <trkpt lat="47.54612403921783" lon="10.01982000656426">
        <ele>684.60000000000002</ele>
        <time>2018-09-18T13:48:56Z</time>
      </trkpt>
      <trkpt lat="47.546198973432183" lon="10.019931988790631">
        <ele>685.08000000000004</ele>
        <time>2018-09-18T13:48:57Z</time>
      </trkpt>
      <trkpt lat="47.546264017000794" lon="10.020056962966919">
        <ele>685.55999999999995</ele>
        <time>2018-09-18T13:48:58Z</time>
      </trkpt>
      <trkpt lat="47.54632000811398" lon="10.020194007083774">
        <ele>686.51999999999998</ele>
        <time>2018-09-18T13:48:59Z</time>
      </trkpt>
      <trkpt lat="47.546959966421127" lon="10.021639969199896">
        <ele>693.73000000000002</ele>
        <time>2018-09-18T13:49:09Z</time>
      </trkpt>
      <trkpt lat="47.547039007768035" lon="10.021751029416919">
        <ele>694.69000000000005</ele>
        <time>2018-09-18T13:49:10Z</time>
      </trkpt>
      <trkpt lat="47.547131963074207" lon="10.021781958639622">
        <ele>694.69000000000005</ele>
        <time>2018-09-18T13:49:11Z</time>
      </trkpt>
      <trkpt lat="47.547231037169695" lon="10.021804003044963">
        <ele>695.16999999999996</ele>
        <time>2018-09-18T13:49:12Z</time>
      </trkpt>
      <trkpt lat="47.547322986647487" lon="10.021772990003228">
        <ele>695.64999999999998</ele>
        <time>2018-09-18T13:49:13Z</time>
      </trkpt>
      <trkpt lat="47.547426000237465" lon="10.021732002496719">
        <ele>696.13</ele>
        <time>2018-09-18T13:49:14Z</time>
      </trkpt>
      <trkpt lat="47.547533959150314" lon="10.021689003333449">
        <ele>696.13</ele>
        <time>2018-09-18T13:49:15Z</time>
      </trkpt>
      <trkpt lat="47.547748032957315" lon="10.021603005006909">
        <ele>696.61000000000001</ele>
        <time>2018-09-18T13:49:17Z</time>
      </trkpt>
      <trkpt lat="47.547851968556643" lon="10.021562017500401">
        <ele>697.09000000000003</ele>
        <time>2018-09-18T13:49:18Z</time>
      </trkpt>
      <trkpt lat="47.54795397631824" lon="10.021521029993892">
        <ele>697.57000000000005</ele>
        <time>2018-09-18T13:49:19Z</time>
      </trkpt>
      <trkpt lat="47.548056989908218" lon="10.021532010287046">
        <ele>698.52999999999997</ele>
        <time>2018-09-18T13:49:20Z</time>
      </trkpt>
      <trkpt lat="47.548157991841435" lon="10.021571991965175">
        <ele>699.01999999999998</ele>
        <time>2018-09-18T13:49:21Z</time>
      </trkpt>
      <trkpt lat="47.54825497046113" lon="10.021629994735122">
        <ele>699.5</ele>
        <time>2018-09-18T13:49:22Z</time>
      </trkpt>
      <trkpt lat="47.548345997929573" lon="10.021703001111746">
        <ele>700.46000000000004</ele>
        <time>2018-09-18T13:49:23Z</time>
      </trkpt>
      <trkpt lat="47.548421015962958" lon="10.021763015538454">
        <ele>700.94000000000005</ele>
        <time>2018-09-18T13:49:24Z</time>
      </trkpt>
      <trkpt lat="47.548530986532569" lon="10.021779024973512">
        <ele>701.41999999999996</ele>
        <time>2018-09-18T13:49:25Z</time>
      </trkpt>
      <trkpt lat="47.548614973202348" lon="10.021752035245299">
        <ele>702.38</ele>
        <time>2018-09-18T13:49:26Z</time>
      </trkpt>
      <trkpt lat="47.548669958487153" lon="10.021681962534785">
        <ele>702.86000000000001</ele>
        <time>2018-09-18T13:49:27Z</time>
      </trkpt>
      <trkpt lat="47.548700971528888" lon="10.021586995571852">
        <ele>703.82000000000005</ele>
        <time>2018-09-18T13:49:28Z</time>
      </trkpt>
      <trkpt lat="47.548719998449087" lon="10.021479958668351">
        <ele>704.77999999999997</ele>
        <time>2018-09-18T13:49:29Z</time>
      </trkpt>
      <trkpt lat="47.548685967922211" lon="10.021355990320444">
        <ele>705.25999999999999</ele>
        <time>2018-09-18T13:49:30Z</time>
      </trkpt>
      <trkpt lat="47.548647997900844" lon="10.021222969517112">
        <ele>705.75</ele>
        <time>2018-09-18T13:49:31Z</time>
      </trkpt>
      <trkpt lat="47.548608016222715" lon="10.021077962592244">
        <ele>706.71000000000004</ele>
        <time>2018-09-18T13:49:32Z</time>
      </trkpt>
      <trkpt lat="47.548570968210697" lon="10.020947959274054">
        <ele>707.19000000000005</ele>
        <time>2018-09-18T13:49:33Z</time>
      </trkpt>
      <trkpt lat="47.548552025109529" lon="10.020756013691425">
        <ele>707.66999999999996</ele>
        <time>2018-09-18T13:49:34Z</time>
      </trkpt>
      <trkpt lat="47.548535009846091" lon="10.020582005381584">
        <ele>708.63</ele>
        <time>2018-09-18T13:49:35Z</time>
      </trkpt>
      <trkpt lat="47.548527969047427" lon="10.020382013171911">
        <ele>709.59000000000003</ele>
        <time>2018-09-18T13:49:36Z</time>
      </trkpt>
      <trkpt lat="47.548544984310865" lon="10.019998038187623">
        <ele>711.02999999999997</ele>
        <time>2018-09-18T13:49:38Z</time>
      </trkpt>
      <trkpt lat="47.548571974039078" lon="10.019840961322188">
        <ele>711.50999999999999</ele>
        <time>2018-09-18T13:49:39Z</time>
      </trkpt>
      <trkpt lat="47.548612961545587" lon="10.019696038216352">
        <ele>711.99000000000001</ele>
        <time>2018-09-18T13:49:40Z</time>
      </trkpt>
      <trkpt lat="47.548653027042747" lon="10.019554970785975">
        <ele>712.47000000000003</ele>
        <time>2018-09-18T13:49:41Z</time>
      </trkpt>
      <trkpt lat="47.548690997064114" lon="10.019422033801675">
        <ele>712.95000000000005</ele>
        <time>2018-09-18T13:49:42Z</time>
      </trkpt>
      <trkpt lat="47.548706000670791" lon="10.019265040755272">
        <ele>712.95000000000005</ele>
        <time>2018-09-18T13:49:43Z</time>
      </trkpt>
      <trkpt lat="47.548663001507521" lon="10.019127996638417">
        <ele>713.44000000000005</ele>
        <time>2018-09-18T13:49:44Z</time>
      </trkpt>
      <trkpt lat="47.548608016222715" lon="10.019000004976988">
        <ele>713.91999999999996</ele>
        <time>2018-09-18T13:49:45Z</time>
      </trkpt>
      <trkpt lat="47.548527969047427" lon="10.018890034407377">
        <ele>714.88</ele>
        <time>2018-09-18T13:49:46Z</time>
      </trkpt>
      <trkpt lat="47.548464015126228" lon="10.018802024424076">
        <ele>715.36000000000001</ele>
        <time>2018-09-18T13:49:47Z</time>
      </trkpt>
      <trkpt lat="47.548343986272812" lon="10.018694987520576">
        <ele>715.84000000000003</ele>
        <time>2018-09-18T13:49:48Z</time>
      </trkpt>
      <trkpt lat="47.548237033188343" lon="10.018655005842447">
        <ele>716.79999999999995</ele>
        <time>2018-09-18T13:49:49Z</time>
      </trkpt>
      <trkpt lat="47.548141982406378" lon="10.018700016662478">
        <ele>717.75999999999999</ele>
        <time>2018-09-18T13:49:50Z</time>
      </trkpt>
      <trkpt lat="47.548054978251457" lon="10.018764976412058">
        <ele>718.72000000000003</ele>
        <time>2018-09-18T13:49:51Z</time>
      </trkpt>
      <trkpt lat="47.54797400906682" lon="10.018862960860133">
        <ele>719.20000000000005</ele>
        <time>2018-09-18T13:49:52Z</time>
      </trkpt>
      <trkpt lat="47.547893961891532" lon="10.01896002329886">
        <ele>719.67999999999995</ele>
        <time>2018-09-18T13:49:53Z</time>
      </trkpt>
      <trkpt lat="47.547811986878514" lon="10.019060019403696">
        <ele>720.15999999999997</ele>
        <time>2018-09-18T13:49:54Z</time>
      </trkpt>
      <trkpt lat="47.547703022137284" lon="10.019102012738585">
        <ele>720.64999999999998</ele>
        <time>2018-09-18T13:49:55Z</time>
      </trkpt>
      <trkpt lat="47.547562960535288" lon="10.019102012738585">
        <ele>721.13</ele>
        <time>2018-09-18T13:49:56Z</time>
      </trkpt>
      <trkpt lat="47.547498000785708" lon="10.019037974998355">
        <ele>721.61000000000001</ele>
        <time>2018-09-18T13:49:57Z</time>
      </trkpt>
      <trkpt lat="47.547433963045478" lon="10.018866984173656">
        <ele>722.09000000000003</ele>
        <time>2018-09-18T13:49:58Z</time>
      </trkpt>
      <trkpt lat="47.547370009124279" lon="10.018694987520576">
        <ele>722.57000000000005</ele>
        <time>2018-09-18T13:49:59Z</time>
      </trkpt>
      <trkpt lat="47.547344025224447" lon="10.018517039716244">
        <ele>723.04999999999995</ele>
        <time>2018-09-18T13:50:00Z</time>
      </trkpt>
      <trkpt lat="47.547314018011093" lon="10.018302965909243">
        <ele>724.00999999999999</ele>
        <time>2018-09-18T13:50:01Z</time>
      </trkpt>
      <trkpt lat="47.547041019424796" lon="10.016392981633544">
        <ele>731.22000000000003</ele>
        <time>2018-09-18T13:50:08Z</time>
      </trkpt>
      <trkpt lat="47.546993996948004" lon="10.015784958377481">
        <ele>734.10000000000002</ele>
        <time>2018-09-18T13:50:11Z</time>
      </trkpt>
      <trkpt lat="47.547000031918287" lon="10.015667024999857">
        <ele>734.58000000000004</ele>
        <time>2018-09-18T13:50:12Z</time>
      </trkpt>
      <trkpt lat="47.547022998332977" lon="10.015558982267976">
        <ele>735.07000000000005</ele>
        <time>2018-09-18T13:50:13Z</time>
      </trkpt>
      <trkpt lat="47.547083012759686" lon="10.015479018911719">
        <ele>735.54999999999995</ele>
        <time>2018-09-18T13:50:14Z</time>
      </trkpt>
      <trkpt lat="47.54715601913631" lon="10.015408024191856">
        <ele>736.02999999999997</ele>
        <time>2018-09-18T13:50:15Z</time>
      </trkpt>
      <trkpt lat="47.54724201746285" lon="10.015396038070321">
        <ele>736.02999999999997</ele>
        <time>2018-09-18T13:50:16Z</time>
      </trkpt>
      <trkpt lat="47.547333966940641" lon="10.015427973121405">
        <ele>736.50999999999999</ele>
        <time>2018-09-18T13:50:17Z</time>
      </trkpt>
      <trkpt lat="47.547426000237465" lon="10.015495028346777">
        <ele>736.99000000000001</ele>
        <time>2018-09-18T13:50:18Z</time>
      </trkpt>
      <trkpt lat="47.547519961372018" lon="10.015565017238259">
        <ele>737.47000000000003</ele>
        <time>2018-09-18T13:50:19Z</time>
      </trkpt>
      <trkpt lat="47.54799697548151" lon="10.015927031636238">
        <ele>738.90999999999997</ele>
        <time>2018-09-18T13:50:23Z</time>
      </trkpt>
      <trkpt lat="47.548143994063139" lon="10.015958966687322">
        <ele>739.38999999999999</ele>
        <time>2018-09-18T13:50:24Z</time>
      </trkpt>
      <trkpt lat="47.54829503595829" lon="10.015990985557437">
        <ele>739.87</ele>
        <time>2018-09-18T13:50:25Z</time>
      </trkpt>
      <trkpt lat="47.548453034833074" lon="10.015990985557437">
        <ele>740.83000000000004</ele>
        <time>2018-09-18T13:50:26Z</time>
      </trkpt>
      <trkpt lat="47.548612039536238" lon="10.015990985557437">
        <ele>741.30999999999995</ele>
        <time>2018-09-18T13:50:27Z</time>
      </trkpt>
      <trkpt lat="47.548928037285805" lon="10.016016969457269">
        <ele>742.75999999999999</ele>
        <time>2018-09-18T13:50:29Z</time>
      </trkpt>
      <trkpt lat="47.549076983705163" lon="10.016071032732725">
        <ele>743.72000000000003</ele>
        <time>2018-09-18T13:50:30Z</time>
      </trkpt>
      <trkpt lat="47.549216039478779" lon="10.016162982210517">
        <ele>744.20000000000005</ele>
        <time>2018-09-18T13:50:31Z</time>
      </trkpt>
      <trkpt lat="47.549345958977938" lon="10.016275970265269">
        <ele>744.67999999999995</ele>
        <time>2018-09-18T13:50:32Z</time>
      </trkpt>
      <trkpt lat="47.549474034458399" lon="10.016411002725363">
        <ele>745.63999999999999</ele>
        <time>2018-09-18T13:50:33Z</time>
      </trkpt>
      <trkpt lat="47.54973697476089" lon="10.016688024625182">
        <ele>747.08000000000004</ele>
        <time>2018-09-18T13:50:35Z</time>
      </trkpt>
      <trkpt lat="47.549868989735842" lon="10.016828002408147">
        <ele>748.03999999999996</ele>
        <time>2018-09-18T13:50:36Z</time>
      </trkpt>
      <trkpt lat="47.550004022195935" lon="10.016970997676253">
        <ele>749</ele>
        <time>2018-09-18T13:50:37Z</time>
      </trkpt>
      <trkpt lat="47.55012103356421" lon="10.017139976844192">
        <ele>749.49000000000001</ele>
        <time>2018-09-18T13:50:38Z</time>
      </trkpt>
      <trkpt lat="47.550217006355524" lon="10.017323959618807">
        <ele>750.45000000000005</ele>
        <time>2018-09-18T13:50:39Z</time>
      </trkpt>
      <trkpt lat="47.550282971933484" lon="10.017529986798763">
        <ele>751.40999999999997</ele>
        <time>2018-09-18T13:50:40Z</time>
      </trkpt>
      <trkpt lat="47.550348015502095" lon="10.017729979008436">
        <ele>752.37</ele>
        <time>2018-09-18T13:50:41Z</time>
      </trkpt>
      <trkpt lat="47.550416998565197" lon="10.017942963168025">
        <ele>753.80999999999995</ele>
        <time>2018-09-18T13:50:42Z</time>
      </trkpt>
      <trkpt lat="47.550452034920454" lon="10.018139015883207">
        <ele>754.76999999999998</ele>
        <time>2018-09-18T13:50:43Z</time>
      </trkpt>
      <trkpt lat="47.550491010770202" lon="10.018355017527938">
        <ele>755.73000000000002</ele>
        <time>2018-09-18T13:50:44Z</time>
      </trkpt>
      <trkpt lat="47.55053099244833" lon="10.01857303082943">
        <ele>756.69000000000005</ele>
        <time>2018-09-18T13:50:45Z</time>
      </trkpt>
      <trkpt lat="47.550596036016941" lon="10.018792971968651">
        <ele>757.65999999999997</ele>
        <time>2018-09-18T13:50:46Z</time>
      </trkpt>
      <trkpt lat="47.55104798823595" lon="10.020053023472428">
        <ele>764.38999999999999</ele>
        <time>2018-09-18T13:50:53Z</time>
      </trkpt>
      <trkpt lat="47.551492983475327" lon="10.021459003910422">
        <ele>771.11000000000001</ele>
        <time>2018-09-18T13:51:02Z</time>
      </trkpt>
      <trkpt lat="47.551505975425243" lon="10.021796962246299">
        <ele>773.51999999999998</ele>
        <time>2018-09-18T13:51:06Z</time>
      </trkpt>
      <trkpt lat="47.551507987082005" lon="10.021850019693375">
        <ele>774.48000000000002</ele>
        <time>2018-09-18T13:51:07Z</time>
      </trkpt>
      <trkpt lat="47.551574958488345" lon="10.021870974451303">
        <ele>774.48000000000002</ele>
        <time>2018-09-18T13:51:08Z</time>
      </trkpt>
      <trkpt lat="47.551750978454947" lon="10.021900981664658">
        <ele>775.44000000000005</ele>
        <time>2018-09-18T13:51:10Z</time>
      </trkpt>
      <trkpt lat="47.551787020638585" lon="10.021992009133101">
        <ele>775.91999999999996</ele>
        <time>2018-09-18T13:51:11Z</time>
      </trkpt>
      <trkpt lat="47.551830019801855" lon="10.022089993581176">
        <ele>776.39999999999998</ele>
        <time>2018-09-18T13:51:12Z</time>
      </trkpt>
      <trkpt lat="47.552283983677626" lon="10.02300102263689">
        <ele>779.28999999999996</ele>
        <time>2018-09-18T13:51:18Z</time>
      </trkpt>
      <trkpt lat="47.552402000874281" lon="10.023418022319674">
        <ele>779.76999999999998</ele>
        <time>2018-09-18T13:51:20Z</time>
      </trkpt>
      <trkpt lat="47.552505014464259" lon="10.023866035044193">
        <ele>780.25</ele>
        <time>2018-09-18T13:51:22Z</time>
      </trkpt>
      <trkpt lat="47.552521023899317" lon="10.024101985618472">
        <ele>780.73000000000002</ele>
        <time>2018-09-18T13:51:23Z</time>
      </trkpt>
      <trkpt lat="47.552537033334374" lon="10.024340031668544">
        <ele>781.21000000000004</ele>
        <time>2018-09-18T13:51:24Z</time>
      </trkpt>
      <trkpt lat="47.552524963393807" lon="10.024586962535977">
        <ele>781.21000000000004</ele>
        <time>2018-09-18T13:51:25Z</time>
      </trkpt>
      <trkpt lat="47.552505014464259" lon="10.024835988879204">
        <ele>781.69000000000005</ele>
        <time>2018-09-18T13:51:26Z</time>
      </trkpt>
      <trkpt lat="47.552461009472609" lon="10.025086021050811">
        <ele>782.16999999999996</ele>
        <time>2018-09-18T13:51:27Z</time>
      </trkpt>
      <trkpt lat="47.552408035844564" lon="10.025330018252134">
        <ele>782.16999999999996</ele>
        <time>2018-09-18T13:51:28Z</time>
      </trkpt>
      <trkpt lat="47.55233796313405" lon="10.025561023503542">
        <ele>782.16999999999996</ele>
        <time>2018-09-18T13:51:29Z</time>
      </trkpt>
      <trkpt lat="47.552262023091316" lon="10.025776019319892">
        <ele>782.16999999999996</ele>
        <time>2018-09-18T13:51:30Z</time>
      </trkpt>
      <trkpt lat="47.552135959267616" lon="10.025971988216043">
        <ele>782.64999999999998</ele>
        <time>2018-09-18T13:51:31Z</time>
      </trkpt>
      <trkpt lat="47.552017020061612" lon="10.026157982647419">
        <ele>782.64999999999998</ele>
        <time>2018-09-18T13:51:32Z</time>
      </trkpt>
      <trkpt lat="47.551893973723054" lon="10.026335008442402">
        <ele>783.13</ele>
        <time>2018-09-18T13:51:33Z</time>
      </trkpt>
      <trkpt lat="47.551745027303696" lon="10.026470962911844">
        <ele>783.61000000000001</ele>
        <time>2018-09-18T13:51:34Z</time>
      </trkpt>
      <trkpt lat="47.551590967923403" lon="10.026587974280119">
        <ele>784.09000000000003</ele>
        <time>2018-09-18T13:51:35Z</time>
      </trkpt>
      <trkpt lat="47.551427017897367" lon="10.026682019233704">
        <ele>784.57000000000005</ele>
        <time>2018-09-18T13:51:36Z</time>
      </trkpt>
      <trkpt lat="47.551257032901049" lon="10.026753013953567">
        <ele>785.52999999999997</ele>
        <time>2018-09-18T13:51:37Z</time>
      </trkpt>
      <trkpt lat="47.551077995449305" lon="10.026812022551894">
        <ele>786.01999999999998</ele>
        <time>2018-09-18T13:51:38Z</time>
      </trkpt>
      <trkpt lat="47.549980971962214" lon="10.02723497338593">
        <ele>792.25999999999999</ele>
        <time>2018-09-18T13:51:44Z</time>
      </trkpt>
      <trkpt lat="47.549824984744191" lon="10.027369000017643">
        <ele>792.74000000000001</ele>
        <time>2018-09-18T13:51:45Z</time>
      </trkpt>
      <trkpt lat="47.549685006961226" lon="10.027499003335834">
        <ele>793.71000000000004</ele>
        <time>2018-09-18T13:51:46Z</time>
      </trkpt>
      <trkpt lat="47.549555003643036" lon="10.027653984725475">
        <ele>794.66999999999996</ele>
        <time>2018-09-18T13:51:47Z</time>
      </trkpt>
      <trkpt lat="47.549445033073425" lon="10.027824975550175">
        <ele>795.14999999999998</ele>
        <time>2018-09-18T13:51:48Z</time>
      </trkpt>
      <trkpt lat="47.549345036968589" lon="10.028025973588228">
        <ele>795.63</ele>
        <time>2018-09-18T13:51:49Z</time>
      </trkpt>
      <trkpt lat="47.549286028370261" lon="10.028253961354494">
        <ele>796.11000000000001</ele>
        <time>2018-09-18T13:51:50Z</time>
      </trkpt>
      <trkpt lat="47.549244035035372" lon="10.028498964384198">
        <ele>796.11000000000001</ele>
        <time>2018-09-18T13:51:51Z</time>
      </trkpt>
      <trkpt lat="47.549202041700482" lon="10.028753019869328">
        <ele>796.59000000000003</ele>
        <time>2018-09-18T13:51:52Z</time>
      </trkpt>
      <trkpt lat="47.549190977588296" lon="10.029019983485341">
        <ele>796.59000000000003</ele>
        <time>2018-09-18T13:51:53Z</time>
      </trkpt>
      <trkpt lat="47.549187960103154" lon="10.029307985678315">
        <ele>796.59000000000003</ele>
        <time>2018-09-18T13:51:54Z</time>
      </trkpt>
      <trkpt lat="47.549131968989968" lon="10.031928000971675">
        <ele>797.54999999999995</ele>
        <time>2018-09-18T13:52:02Z</time>
      </trkpt>
      <trkpt lat="47.549149990081787" lon="10.033619971945882">
        <ele>800.91999999999996</ele>
        <time>2018-09-18T13:52:07Z</time>
      </trkpt>
      <trkpt lat="47.549293991178274" lon="10.03488396294415">
        <ele>803.32000000000005</ele>
        <time>2018-09-18T13:52:11Z</time>
      </trkpt>
      <trkpt lat="47.549276975914836" lon="10.035200966522098">
        <ele>803.79999999999995</ele>
        <time>2018-09-18T13:52:12Z</time>
      </trkpt>
      <trkpt lat="47.549259038642049" lon="10.035515958443284">
        <ele>804.27999999999997</ele>
        <time>2018-09-18T13:52:13Z</time>
      </trkpt>
      <trkpt lat="47.549242023378611" lon="10.035824999213219">
        <ele>804.27999999999997</ele>
        <time>2018-09-18T13:52:14Z</time>
      </trkpt>
      <trkpt lat="47.549225008115172" lon="10.036124987527728">
        <ele>804.75999999999999</ele>
        <time>2018-09-18T13:52:15Z</time>
      </trkpt>
      <trkpt lat="47.549222996458411" lon="10.036418018862605">
        <ele>804.75999999999999</ele>
        <time>2018-09-18T13:52:16Z</time>
      </trkpt>
      <trkpt lat="47.549244035035372" lon="10.036701997742057">
        <ele>804.75999999999999</ele>
        <time>2018-09-18T13:52:17Z</time>
      </trkpt>
      <trkpt lat="47.549278987571597" lon="10.036973990499973">
        <ele>804.75999999999999</ele>
        <time>2018-09-18T13:52:18Z</time>
      </trkpt>
      <trkpt lat="47.549344031140208" lon="10.037233997136354">
        <ele>804.75999999999999</ele>
        <time>2018-09-18T13:52:19Z</time>
      </trkpt>
      <trkpt lat="47.549432963132858" lon="10.037463996559381">
        <ele>804.27999999999997</ele>
        <time>2018-09-18T13:52:20Z</time>
      </trkpt>
      <trkpt lat="47.549533965066075" lon="10.037693995982409">
        <ele>804.27999999999997</ele>
        <time>2018-09-18T13:52:21Z</time>
      </trkpt>
      <trkpt lat="47.549659023061395" lon="10.037921983748674">
        <ele>803.79999999999995</ele>
        <time>2018-09-18T13:52:22Z</time>
      </trkpt>
      <trkpt lat="47.549790032207966" lon="10.038159023970366">
        <ele>803.32000000000005</ele>
        <time>2018-09-18T13:52:23Z</time>
      </trkpt>
      <trkpt lat="47.550878003239632" lon="10.040331026539207">
        <ele>796.11000000000001</ele>
        <time>2018-09-18T13:52:31Z</time>
      </trkpt>
      <trkpt lat="47.551053017377853" lon="10.040971990674734">
        <ele>794.19000000000005</ele>
        <time>2018-09-18T13:52:33Z</time>
      </trkpt>
      <trkpt lat="47.551114037632942" lon="10.041302992030978">
        <ele>793.22000000000003</ele>
        <time>2018-09-18T13:52:34Z</time>
      </trkpt>
      <trkpt lat="47.55160303786397" lon="10.043881013989449">
        <ele>785.52999999999997</ele>
        <time>2018-09-18T13:52:42Z</time>
      </trkpt>
      <trkpt lat="47.551624998450279" lon="10.044157030060887">
        <ele>785.04999999999995</ele>
        <time>2018-09-18T13:52:43Z</time>
      </trkpt>
      <trkpt lat="47.551633967086673" lon="10.044417036697268">
        <ele>784.09000000000003</ele>
        <time>2018-09-18T13:52:44Z</time>
      </trkpt>
      <trkpt lat="47.551624998450279" lon="10.044671008363366">
        <ele>783.61000000000001</ele>
        <time>2018-09-18T13:52:45Z</time>
      </trkpt>
      <trkpt lat="47.551578981801867" lon="10.044909976422787">
        <ele>782.64999999999998</ele>
        <time>2018-09-18T13:52:46Z</time>
      </trkpt>
      <trkpt lat="47.551531037315726" lon="10.045155985280871">
        <ele>781.69000000000005</ele>
        <time>2018-09-18T13:52:47Z</time>
      </trkpt>
      <trkpt lat="47.551453001797199" lon="10.045395037159324">
        <ele>780.73000000000002</ele>
        <time>2018-09-18T13:52:48Z</time>
      </trkpt>
      <trkpt lat="47.551353005692363" lon="10.0456259585917">
        <ele>779.76999999999998</ele>
        <time>2018-09-18T13:52:49Z</time>
      </trkpt>
      <trkpt lat="47.551145972684026" lon="10.046109007671475">
        <ele>777.36000000000001</ele>
        <time>2018-09-18T13:52:51Z</time>
      </trkpt>
      <trkpt lat="47.551072966307402" lon="10.046375971287489">
        <ele>776.39999999999998</ele>
        <time>2018-09-18T13:52:52Z</time>
      </trkpt>
      <trkpt lat="47.551012029871345" lon="10.046638995409012">
        <ele>775.91999999999996</ele>
        <time>2018-09-18T13:52:53Z</time>
      </trkpt>
      <trkpt lat="47.550958972424269" lon="10.046904031187296">
        <ele>774.96000000000004</ele>
        <time>2018-09-18T13:52:54Z</time>
      </trkpt>
      <trkpt lat="47.550931982696056" lon="10.047191027551889">
        <ele>774.48000000000002</ele>
        <time>2018-09-18T13:52:55Z</time>
      </trkpt>
      <trkpt lat="47.550931982696056" lon="10.047482969239354">
        <ele>774</ele>
        <time>2018-09-18T13:52:56Z</time>
      </trkpt>
      <trkpt lat="47.550936006009579" lon="10.047774994745851">
        <ele>773.03999999999996</ele>
        <time>2018-09-18T13:52:57Z</time>
      </trkpt>
      <trkpt lat="47.550983028486371" lon="10.048055034130812">
        <ele>772.08000000000004</ele>
        <time>2018-09-18T13:52:58Z</time>
      </trkpt>
      <trkpt lat="47.551041031256318" lon="10.048335995525122">
        <ele>771.11000000000001</ele>
        <time>2018-09-18T13:52:59Z</time>
      </trkpt>
      <trkpt lat="47.551127029582858" lon="10.048605976626277">
        <ele>769.66999999999996</ele>
        <time>2018-09-18T13:53:00Z</time>
      </trkpt>
      <trkpt lat="47.551221996545792" lon="10.048865983262658">
        <ele>768.71000000000004</ele>
        <time>2018-09-18T13:53:01Z</time>
      </trkpt>
      <trkpt lat="47.551339007914066" lon="10.049099000170827">
        <ele>767.75</ele>
        <time>2018-09-18T13:53:02Z</time>
      </trkpt>
      <trkpt lat="47.55145501345396" lon="10.049331011250615">
        <ele>766.30999999999995</ele>
        <time>2018-09-18T13:53:03Z</time>
      </trkpt>
      <trkpt lat="47.55158300511539" lon="10.049553969874978">
        <ele>765.35000000000002</ele>
        <time>2018-09-18T13:53:04Z</time>
      </trkpt>
      <trkpt lat="47.551728012040257" lon="10.049743987619877">
        <ele>764.38999999999999</ele>
        <time>2018-09-18T13:53:05Z</time>
      </trkpt>
      <trkpt lat="47.552233021706343" lon="10.05041697062552">
        <ele>759.58000000000004</ele>
        <time>2018-09-18T13:53:10Z</time>
      </trkpt>
      <trkpt lat="47.552792010828853" lon="10.051159020513296">
        <ele>754.28999999999996</ele>
        <time>2018-09-18T13:53:19Z</time>
      </trkpt>
      <trkpt lat="47.552777007222176" lon="10.051417015492916">
        <ele>753.80999999999995</ele>
        <time>2018-09-18T13:53:20Z</time>
      </trkpt>
      <trkpt lat="47.552791005000472" lon="10.051570991054177">
        <ele>753.33000000000004</ele>
        <time>2018-09-18T13:53:22Z</time>
      </trkpt>
      <trkpt lat="47.552841966971755" lon="10.051719015464187">
        <ele>753.33000000000004</ele>
        <time>2018-09-18T13:53:23Z</time>
      </trkpt>
      <trkpt lat="47.552929976955056" lon="10.051800990477204">
        <ele>753.33000000000004</ele>
        <time>2018-09-18T13:53:24Z</time>
      </trkpt>
      <trkpt lat="47.552990997210145" lon="10.051824962720275">
        <ele>753.33000000000004</ele>
        <time>2018-09-18T13:53:25Z</time>
      </trkpt>
      <trkpt lat="47.553084958344698" lon="10.051778024062514">
        <ele>753.33000000000004</ele>
        <time>2018-09-18T13:53:26Z</time>
      </trkpt>
      <trkpt lat="47.553200041875243" lon="10.051806019619107">
        <ele>752.85000000000002</ele>
        <time>2018-09-18T13:53:27Z</time>
      </trkpt>
      <trkpt lat="47.553254021331668" lon="10.051902998238802">
        <ele>752.85000000000002</ele>
        <time>2018-09-18T13:53:28Z</time>
      </trkpt>
      <trkpt lat="47.553317975252867" lon="10.052017997950315">
        <ele>752.37</ele>
        <time>2018-09-18T13:53:29Z</time>
      </trkpt>
      <trkpt lat="47.55338997580111" lon="10.052148001268506">
        <ele>752.37</ele>
        <time>2018-09-18T13:53:30Z</time>
      </trkpt>
      <trkpt lat="47.553469017148018" lon="10.052289990708232">
        <ele>751.88999999999999</ele>
        <time>2018-09-18T13:53:31Z</time>
      </trkpt>
      <trkpt lat="47.554077040404081" lon="10.053960001096129">
        <ele>751.88999999999999</ele>
        <time>2018-09-18T13:53:40Z</time>
      </trkpt>
      <trkpt lat="47.554546007886529" lon="10.056241974234581">
        <ele>752.37</ele>
        <time>2018-09-18T13:53:50Z</time>
      </trkpt>
      <trkpt lat="47.554686991497874" lon="10.058815972879529">
        <ele>753.33000000000004</ele>
        <time>2018-09-18T13:54:00Z</time>
      </trkpt>
      <trkpt lat="47.554713981226087" lon="10.061118984594941">
        <ele>753.33000000000004</ele>
        <time>2018-09-18T13:54:08Z</time>
      </trkpt>
      <trkpt lat="47.554822023957968" lon="10.064046029001474">
        <ele>751.88999999999999</ele>
        <time>2018-09-18T13:54:19Z</time>
      </trkpt>
      <trkpt lat="47.554736025631428" lon="10.066667972132564">
        <ele>749.49000000000001</ele>
        <time>2018-09-18T13:54:28Z</time>
      </trkpt>
      <trkpt lat="47.554302010685205" lon="10.069656958803535">
        <ele>749.49000000000001</ele>
        <time>2018-09-18T13:54:39Z</time>
      </trkpt>
      <trkpt lat="47.554105035960674" lon="10.072344029322267">
        <ele>747.55999999999995</ele>
        <time>2018-09-18T13:54:49Z</time>
      </trkpt>
      <trkpt lat="47.554512983188033" lon="10.074579985812306">
        <ele>745.63999999999999</ele>
        <time>2018-09-18T13:54:57Z</time>
      </trkpt>
      <trkpt lat="47.555366009473801" lon="10.076734973117709">
        <ele>743.72000000000003</ele>
        <time>2018-09-18T13:55:05Z</time>
      </trkpt>
      <trkpt lat="47.555980989709496" lon="10.079041002318263">
        <ele>743.24000000000001</ele>
        <time>2018-09-18T13:55:13Z</time>
      </trkpt>
      <trkpt lat="47.556105041876435" lon="10.081038996577263">
        <ele>744.67999999999995</ele>
        <time>2018-09-18T13:55:20Z</time>
      </trkpt>
      <trkpt lat="47.556130019947886" lon="10.084501979872584">
        <ele>743.24000000000001</ele>
        <time>2018-09-18T13:55:33Z</time>
      </trkpt>
      <trkpt lat="47.556268991902471" lon="10.088220024481416">
        <ele>743.72000000000003</ele>
        <time>2018-09-18T13:55:47Z</time>
      </trkpt>
      <trkpt lat="47.55665497854352" lon="10.090621020644903">
        <ele>743.24000000000001</ele>
        <time>2018-09-18T13:55:56Z</time>
      </trkpt>
      <trkpt lat="47.557189995422959" lon="10.093962969258428">
        <ele>740.83000000000004</ele>
        <time>2018-09-18T13:56:08Z</time>
      </trkpt>
      <trkpt lat="47.557138027623296" lon="10.096135977655649">
        <ele>741.30999999999995</ele>
        <time>2018-09-18T13:56:16Z</time>
      </trkpt>
      <trkpt lat="47.557107014581561" lon="10.098536973819137">
        <ele>741.78999999999996</ele>
        <time>2018-09-18T13:56:26Z</time>
      </trkpt>
      <trkpt lat="47.55742896348238" lon="10.101511040702462">
        <ele>736.99000000000001</ele>
        <time>2018-09-18T13:56:37Z</time>
      </trkpt>
      <trkpt lat="47.558036986738443" lon="10.104449987411499">
        <ele>735.07000000000005</ele>
        <time>2018-09-18T13:56:49Z</time>
      </trkpt>
      <trkpt lat="47.558147963136435" lon="10.106552001088858">
        <ele>735.07000000000005</ele>
        <time>2018-09-18T13:56:57Z</time>
      </trkpt>
      <trkpt lat="47.557935984805226" lon="10.108324019238353">
        <ele>733.62</ele>
        <time>2018-09-18T13:57:05Z</time>
      </trkpt>
      <trkpt lat="47.557586040347815" lon="10.110646979883313">
        <ele>732.65999999999997</ele>
        <time>2018-09-18T13:57:16Z</time>
      </trkpt>
      <trkpt lat="47.557140961289406" lon="10.113768987357616">
        <ele>733.13999999999999</ele>
        <time>2018-09-18T13:57:28Z</time>
      </trkpt>
      <trkpt lat="47.556837033480406" lon="10.116379028186202">
        <ele>736.02999999999997</ele>
        <time>2018-09-18T13:57:38Z</time>
      </trkpt>
      <trkpt lat="47.556861005723476" lon="10.119127035140991">
        <ele>737.95000000000005</ele>
        <time>2018-09-18T13:57:49Z</time>
      </trkpt>
      <trkpt lat="47.557223020121455" lon="10.121324015781283">
        <ele>738.90999999999997</ele>
        <time>2018-09-18T13:57:58Z</time>
      </trkpt>
      <trkpt lat="47.55770799703896" lon="10.123693998903036">
        <ele>739.87</ele>
        <time>2018-09-18T13:58:09Z</time>
      </trkpt>
      <trkpt lat="47.558193979784846" lon="10.125849992036819">
        <ele>741.78999999999996</ele>
        <time>2018-09-18T13:58:19Z</time>
      </trkpt>
      <trkpt lat="47.558808960020542" lon="10.12771999463439">
        <ele>740.83000000000004</ele>
        <time>2018-09-18T13:58:27Z</time>
      </trkpt>
      <trkpt lat="47.559394016861916" lon="10.129194958135486">
        <ele>739.38999999999999</ele>
        <time>2018-09-18T13:58:34Z</time>
      </trkpt>
      <trkpt lat="47.560044033452868" lon="10.131090022623539">
        <ele>739.38999999999999</ele>
        <time>2018-09-18T13:58:44Z</time>
      </trkpt>
      <trkpt lat="47.560529010370374" lon="10.133505016565323">
        <ele>742.27999999999997</ele>
        <time>2018-09-18T13:58:56Z</time>
      </trkpt>
      <trkpt lat="47.560733025893569" lon="10.135726975277066">
        <ele>744.20000000000005</ele>
        <time>2018-09-18T13:59:06Z</time>
      </trkpt>
      <trkpt lat="47.561007030308247" lon="10.138385966420174">
        <ele>741.78999999999996</ele>
        <time>2018-09-18T13:59:18Z</time>
      </trkpt>
      <trkpt lat="47.56153198890388" lon="10.140650002285838">
        <ele>739.38999999999999</ele>
        <time>2018-09-18T13:59:29Z</time>
      </trkpt>
      <trkpt lat="47.562036998569965" lon="10.142353037372231">
        <ele>739.87</ele>
        <time>2018-09-18T13:59:38Z</time>
      </trkpt>
      <trkpt lat="47.562759015709162" lon="10.144812958315015">
        <ele>739.87</ele>
        <time>2018-09-18T13:59:50Z</time>
      </trkpt>
      <trkpt lat="47.563429987058043" lon="10.147420987486839">
        <ele>735.54999999999995</ele>
        <time>2018-09-18T14:00:02Z</time>
      </trkpt>
      <trkpt lat="47.563875988125801" lon="10.150188021361828">
        <ele>730.74000000000001</ele>
        <time>2018-09-18T14:00:14Z</time>
      </trkpt>
      <trkpt lat="47.564052008092403" lon="10.151040041819215">
        <ele>729.77999999999997</ele>
        <time>2018-09-18T14:00:17Z</time>
      </trkpt>
      <trkpt lat="47.564111016690731" lon="10.151261994615197">
        <ele>729.29999999999995</ele>
        <time>2018-09-18T14:00:18Z</time>
      </trkpt>
      <trkpt lat="47.564838984981179" lon="10.152952037751675">
        <ele>728.34000000000003</ele>
        <time>2018-09-18T14:00:27Z</time>
      </trkpt>
      <trkpt lat="47.565593020990491" lon="10.154519034549594">
        <ele>729.77999999999997</ele>
        <time>2018-09-18T14:00:33Z</time>
      </trkpt>
      <trkpt lat="47.566132983192801" lon="10.156829003244638">
        <ele>729.77999999999997</ele>
        <time>2018-09-18T14:00:40Z</time>
      </trkpt>
      <trkpt lat="47.566427020356059" lon="10.159917986020446">
        <ele>728.82000000000005</ele>
        <time>2018-09-18T14:00:49Z</time>
      </trkpt>
      <trkpt lat="47.566611003130674" lon="10.162715027108788">
        <ele>728.34000000000003</ele>
        <time>2018-09-18T14:00:58Z</time>
      </trkpt>
      <trkpt lat="47.56685801781714" lon="10.164224021136761">
        <ele>727.86000000000001</ele>
        <time>2018-09-18T14:01:03Z</time>
      </trkpt>
      <trkpt lat="47.56711601279676" lon="10.166850993409753">
        <ele>728.34000000000003</ele>
        <time>2018-09-18T14:01:11Z</time>
      </trkpt>
      <trkpt lat="47.567549021914601" lon="10.170236025005579">
        <ele>730.74000000000001</ele>
        <time>2018-09-18T14:01:21Z</time>
      </trkpt>
      <trkpt lat="47.567776003852487" lon="10.172844976186752">
        <ele>732.65999999999997</ele>
        <time>2018-09-18T14:01:29Z</time>
      </trkpt>
      <trkpt lat="47.56780500523746" lon="10.175689961761236">
        <ele>730.25999999999999</ele>
        <time>2018-09-18T14:01:37Z</time>
      </trkpt>
      <trkpt lat="47.568049002438784" lon="10.17823101952672">
        <ele>731.22000000000003</ele>
        <time>2018-09-18T14:01:44Z</time>
      </trkpt>
      <trkpt lat="47.568365000188351" lon="10.180179979652166">
        <ele>729.29999999999995</ele>
        <time>2018-09-18T14:01:50Z</time>
      </trkpt>
      <trkpt lat="47.568444041535258" lon="10.180455995723605">
        <ele>728.82000000000005</ele>
        <time>2018-09-18T14:01:51Z</time>
      </trkpt>
      <trkpt lat="47.568557029590011" lon="10.180713990703225">
        <ele>728.82000000000005</ele>
        <time>2018-09-18T14:01:52Z</time>
      </trkpt>
      <trkpt lat="47.568854000419378" lon="10.181465009227395">
        <ele>728.34000000000003</ele>
        <time>2018-09-18T14:01:55Z</time>
      </trkpt>
      <trkpt lat="47.568933041766286" lon="10.181725015863776">
        <ele>728.34000000000003</ele>
        <time>2018-09-18T14:01:56Z</time>
      </trkpt>
      <trkpt lat="47.568987021222711" lon="10.182004971429706">
        <ele>728.34000000000003</ele>
        <time>2018-09-18T14:01:57Z</time>
      </trkpt>
      <trkpt lat="47.569028008729219" lon="10.182289034128189">
        <ele>727.86000000000001</ele>
        <time>2018-09-18T14:01:58Z</time>
      </trkpt>
      <trkpt lat="47.569048041477799" lon="10.182584999129176">
        <ele>727.86000000000001</ele>
        <time>2018-09-18T14:01:59Z</time>
      </trkpt>
      <trkpt lat="47.569064972922206" lon="10.182879958301783">
        <ele>727.37</ele>
        <time>2018-09-18T14:02:00Z</time>
      </trkpt>
      <trkpt lat="47.569071007892489" lon="10.18317399546504">
        <ele>727.37</ele>
        <time>2018-09-18T14:02:01Z</time>
      </trkpt>
      <trkpt lat="47.569254990667105" lon="10.185088003054261">
        <ele>727.86000000000001</ele>
        <time>2018-09-18T14:02:08Z</time>
      </trkpt>
      <trkpt lat="47.569234035909176" lon="10.186857003718615">
        <ele>732.17999999999995</ele>
        <time>2018-09-18T14:02:15Z</time>
      </trkpt>
      <trkpt lat="47.569206040352583" lon="10.187089014798403">
        <ele>732.65999999999997</ele>
        <time>2018-09-18T14:02:16Z</time>
      </trkpt>
      <trkpt lat="47.569153988733888" lon="10.187314990907907">
        <ele>733.62</ele>
        <time>2018-09-18T14:02:17Z</time>
      </trkpt>
      <trkpt lat="47.569079976528883" lon="10.187536021694541">
        <ele>735.07000000000005</ele>
        <time>2018-09-18T14:02:18Z</time>
      </trkpt>
      <trkpt lat="47.569004036486149" lon="10.187765015289187">
        <ele>736.02999999999997</ele>
        <time>2018-09-18T14:02:19Z</time>
      </trkpt>
      <trkpt lat="47.568587036803365" lon="10.189029006287456">
        <ele>745.15999999999997</ele>
        <time>2018-09-18T14:02:26Z</time>
      </trkpt>
      <trkpt lat="47.568287970498204" lon="10.190140027552843">
        <ele>749.97000000000003</ele>
        <time>2018-09-18T14:02:34Z</time>
      </trkpt>
      <trkpt lat="47.56827699020505" lon="10.190290985628963">
        <ele>749.97000000000003</ele>
        <time>2018-09-18T14:02:35Z</time>
      </trkpt>
      <trkpt lat="47.568265004083514" lon="10.190450996160507">
        <ele>750.45000000000005</ele>
        <time>2018-09-18T14:02:36Z</time>
      </trkpt>
      <trkpt lat="47.568231979385018" lon="10.191539973020554">
        <ele>749.49000000000001</ele>
        <time>2018-09-18T14:02:42Z</time>
      </trkpt>
      <trkpt lat="47.568187974393368" lon="10.191713981330395">
        <ele>749</ele>
        <time>2018-09-18T14:02:43Z</time>
      </trkpt>
      <trkpt lat="47.568130977451801" lon="10.191885977983475">
        <ele>748.03999999999996</ele>
        <time>2018-09-18T14:02:44Z</time>
      </trkpt>
      <trkpt lat="47.568073980510235" lon="10.192056968808174">
        <ele>747.55999999999995</ele>
        <time>2018-09-18T14:02:45Z</time>
      </trkpt>
      <trkpt lat="47.567986976355314" lon="10.192194012925029">
        <ele>746.12</ele>
        <time>2018-09-18T14:02:46Z</time>
      </trkpt>
      <trkpt lat="47.567879017442465" lon="10.192319992929697">
        <ele>745.63999999999999</ele>
        <time>2018-09-18T14:02:47Z</time>
      </trkpt>
      <trkpt lat="47.567765023559332" lon="10.192438010126352">
        <ele>744.67999999999995</ele>
        <time>2018-09-18T14:02:48Z</time>
      </trkpt>
      <trkpt lat="47.567639965564013" lon="10.192525014281273">
        <ele>744.20000000000005</ele>
        <time>2018-09-18T14:02:49Z</time>
      </trkpt>
      <trkpt lat="47.567175021395087" lon="10.192843023687601">
        <ele>743.24000000000001</ele>
        <time>2018-09-18T14:02:53Z</time>
      </trkpt>
      <trkpt lat="47.567064967006445" lon="10.192922987043858">
        <ele>743.24000000000001</ele>
        <time>2018-09-18T14:02:54Z</time>
      </trkpt>
      <trkpt lat="47.566153015941381" lon="10.194115983322263">
        <ele>743.72000000000003</ele>
        <time>2018-09-18T14:03:03Z</time>
      </trkpt>
      <trkpt lat="47.564685009419918" lon="10.196207016706467">
        <ele>741.30999999999995</ele>
        <time>2018-09-18T14:03:17Z</time>
      </trkpt>
      <trkpt lat="47.563968021422625" lon="10.197538984939456">
        <ele>741.30999999999995</ele>
        <time>2018-09-18T14:03:25Z</time>
      </trkpt>
      <trkpt lat="47.563581028953195" lon="10.199048984795809">
        <ele>739.87</ele>
        <time>2018-09-18T14:03:34Z</time>
      </trkpt>
      <trkpt lat="47.56333502009511" lon="10.200735004618764">
        <ele>736.99000000000001</ele>
        <time>2018-09-18T14:03:44Z</time>
      </trkpt>
      <trkpt lat="47.562861023470759" lon="10.202262019738555">
        <ele>737.95000000000005</ele>
        <time>2018-09-18T14:03:54Z</time>
      </trkpt>
      <trkpt lat="47.562163984403014" lon="10.203760033473372">
        <ele>735.54999999999995</ele>
        <time>2018-09-18T14:04:04Z</time>
      </trkpt>
      <trkpt lat="47.561675990000367" lon="10.204554973170161">
        <ele>734.10000000000002</ele>
        <time>2018-09-18T14:04:10Z</time>
      </trkpt>
      <trkpt lat="47.561587980017066" lon="10.204686988145113">
        <ele>734.10000000000002</ele>
        <time>2018-09-18T14:04:11Z</time>
      </trkpt>
      <trkpt lat="47.561154970899224" lon="10.205458039417863">
        <ele>732.17999999999995</ele>
        <time>2018-09-18T14:04:17Z</time>
      </trkpt>
      <trkpt lat="47.561092022806406" lon="10.205587958917022">
        <ele>731.70000000000005</ele>
        <time>2018-09-18T14:04:18Z</time>
      </trkpt>
      <trkpt lat="47.561019016429782" lon="10.205889036878943">
        <ele>730.74000000000001</ele>
        <time>2018-09-18T14:04:20Z</time>
      </trkpt>
      <trkpt lat="47.560700001195073" lon="10.207634987309575">
        <ele>727.86000000000001</ele>
        <time>2018-09-18T14:04:32Z</time>
      </trkpt>
      <trkpt lat="47.560556000098586" lon="10.208383994176984">
        <ele>726.40999999999997</ele>
        <time>2018-09-18T14:04:41Z</time>
      </trkpt>
      <trkpt lat="47.560539990663528" lon="10.208463035523891">
        <ele>726.40999999999997</ele>
        <time>2018-09-18T14:04:44Z</time>
      </trkpt>
      <trkpt lat="47.560532027855515" lon="10.208507962524891">
        <ele>726.40999999999997</ele>
        <time>2018-09-18T14:04:45Z</time>
      </trkpt>
      <trkpt lat="47.56043697707355" lon="10.208573006093502">
        <ele>725.92999999999995</ele>
        <time>2018-09-18T14:04:46Z</time>
      </trkpt>
      <trkpt lat="47.560434965416789" lon="10.208579963073134">
        <ele>725.92999999999995</ele>
        <time>2018-09-18T14:04:47Z</time>
      </trkpt>
      <trkpt lat="47.560408981516957" lon="10.208644000813365">
        <ele>725.92999999999995</ele>
        <time>2018-09-18T14:04:48Z</time>
      </trkpt>
      <trkpt lat="47.56039397791028" lon="10.208680965006351">
        <ele>725.92999999999995</ele>
        <time>2018-09-18T14:04:49Z</time>
      </trkpt>
      <trkpt lat="47.56043597124517" lon="10.208791019394994">
        <ele>725.92999999999995</ele>
        <time>2018-09-18T14:04:50Z</time>
      </trkpt>
      <trkpt lat="47.560437982901931" lon="10.208922028541565">
        <ele>725.92999999999995</ele>
        <time>2018-09-18T14:04:51Z</time>
      </trkpt>
      <trkpt lat="47.560409987345338" lon="10.209014983847737">
        <ele>725.45000000000005</ele>
        <time>2018-09-18T14:04:52Z</time>
      </trkpt>
      <trkpt lat="47.560376962646842" lon="10.209122020751238">
        <ele>725.45000000000005</ele>
        <time>2018-09-18T14:04:53Z</time>
      </trkpt>
      <trkpt lat="47.560342010110617" lon="10.209240037947893">
        <ele>724.97000000000003</ele>
        <time>2018-09-18T14:04:54Z</time>
      </trkpt>
      <trkpt lat="47.560303034260869" lon="10.209367023780942">
        <ele>724.49000000000001</ele>
        <time>2018-09-18T14:04:55Z</time>
      </trkpt>
      <trkpt lat="47.56019901484251" lon="10.209712022915483">
        <ele>723.52999999999997</ele>
        <time>2018-09-18T14:04:59Z</time>
      </trkpt>
      <trkpt lat="47.560180993750691" lon="10.20977002568543">
        <ele>723.52999999999997</ele>
        <time>2018-09-18T14:05:00Z</time>
      </trkpt>
      <trkpt lat="47.560179987922311" lon="10.209774971008301">
        <ele>723.04999999999995</ele>
        <time>2018-09-18T14:05:01Z</time>
      </trkpt>
      <trkpt lat="47.560183005407453" lon="10.209863986819983">
        <ele>723.04999999999995</ele>
        <time>2018-09-18T14:05:02Z</time>
      </trkpt>
      <trkpt lat="47.560185017064214" lon="10.209914026781917">
        <ele>723.04999999999995</ele>
        <time>2018-09-18T14:05:03Z</time>
      </trkpt>
      <trkpt lat="47.560186022892594" lon="10.2099649887532">
        <ele>722.57000000000005</ele>
        <time>2018-09-18T14:05:04Z</time>
      </trkpt>
      <trkpt lat="47.560192979872227" lon="10.210162969306111">
        <ele>721.61000000000001</ele>
        <time>2018-09-18T14:05:07Z</time>
      </trkpt>
      <trkpt lat="47.560195997357368" lon="10.210246033966541">
        <ele>721.13</ele>
        <time>2018-09-18T14:05:08Z</time>
      </trkpt>
      <trkpt lat="47.56019901484251" lon="10.210337983444333">
        <ele>721.13</ele>
        <time>2018-09-18T14:05:09Z</time>
      </trkpt>
      <trkpt lat="47.560152998194098" lon="10.210627997294068">
        <ele>720.64999999999998</ele>
        <time>2018-09-18T14:05:12Z</time>
      </trkpt>
      <trkpt lat="47.560115028172731" lon="10.210813991725445">
        <ele>721.13</ele>
        <time>2018-09-18T14:05:16Z</time>
      </trkpt>
      <trkpt lat="47.560016037896276" lon="10.211206013336778">
        <ele>722.09000000000003</ele>
        <time>2018-09-18T14:05:23Z</time>
      </trkpt>
      <trkpt lat="47.559999022632837" lon="10.211259992793202">
        <ele>722.09000000000003</ele>
        <time>2018-09-18T14:05:24Z</time>
      </trkpt>
      <trkpt lat="47.559942025691271" lon="10.21144799888134">
        <ele>724.00999999999999</ele>
        <time>2018-09-18T14:05:34Z</time>
      </trkpt>
      <trkpt lat="47.559830965474248" lon="10.211549000814557">
        <ele>724.97000000000003</ele>
        <time>2018-09-18T14:05:41Z</time>
      </trkpt>
      <trkpt lat="47.559806993231177" lon="10.211609015241265">
        <ele>724.97000000000003</ele>
        <time>2018-09-18T14:05:42Z</time>
      </trkpt>
      <trkpt lat="47.559794001281261" lon="10.211642039939761">
        <ele>724.97000000000003</ele>
        <time>2018-09-18T14:05:43Z</time>
      </trkpt>
      <trkpt lat="47.559821996837854" lon="10.211741030216217">
        <ele>724.97000000000003</ele>
        <time>2018-09-18T14:05:44Z</time>
      </trkpt>
      <trkpt lat="47.559830965474248" lon="10.21177195943892">
        <ele>725.45000000000005</ele>
        <time>2018-09-18T14:05:45Z</time>
      </trkpt>
      <trkpt lat="47.559832977131009" lon="10.21181202493608">
        <ele>725.45000000000005</ele>
        <time>2018-09-18T14:05:46Z</time>
      </trkpt>
      <trkpt lat="47.559824008494616" lon="10.211853012442589">
        <ele>725.92999999999995</ele>
        <time>2018-09-18T14:05:56Z</time>
      </trkpt>
      <trkpt lat="47.559818979352713" lon="10.211880002170801">
        <ele>725.92999999999995</ele>
        <time>2018-09-18T14:05:57Z</time>
      </trkpt>
      <trkpt lat="47.559813028201461" lon="10.211910009384155">
        <ele>725.92999999999995</ele>
        <time>2018-09-18T14:05:58Z</time>
      </trkpt>
      <trkpt lat="47.559806993231177" lon="10.21194102242589">
        <ele>726.40999999999997</ele>
        <time>2018-09-18T14:05:59Z</time>
      </trkpt>
      <trkpt lat="47.559800036251545" lon="10.211974969133735">
        <ele>726.40999999999997</ele>
        <time>2018-09-18T14:06:00Z</time>
      </trkpt>
      <trkpt lat="47.559700962156057" lon="10.212470004335046">
        <ele>728.34000000000003</ele>
        <time>2018-09-18T14:06:13Z</time>
      </trkpt>
      <trkpt lat="47.559598032385111" lon="10.213056989014149">
        <ele>728.34000000000003</ele>
        <time>2018-09-18T14:06:22Z</time>
      </trkpt>
      <trkpt lat="47.559571964666247" lon="10.213262010365725">
        <ele>729.29999999999995</ele>
        <time>2018-09-18T14:06:31Z</time>
      </trkpt>
      <trkpt lat="47.559523014351726" lon="10.21359896287322">
        <ele>731.70000000000005</ele>
        <time>2018-09-18T14:06:46Z</time>
      </trkpt>
      <trkpt lat="47.559473980218172" lon="10.213908003643155">
        <ele>733.13999999999999</ele>
        <time>2018-09-18T14:07:00Z</time>
      </trkpt>
      <trkpt lat="47.55938203074038" lon="10.214449977502227">
        <ele>733.13999999999999</ele>
        <time>2018-09-18T14:07:09Z</time>
      </trkpt>
      <trkpt lat="47.559305001050234" lon="10.214738985523582">
        <ele>733.13999999999999</ele>
        <time>2018-09-18T14:07:15Z</time>
      </trkpt>
      <trkpt lat="47.55929796025157" lon="10.214763963595033">
        <ele>733.13999999999999</ele>
        <time>2018-09-18T14:07:16Z</time>
      </trkpt>
      <trkpt lat="47.559291003271937" lon="10.214790031313896">
        <ele>733.13999999999999</ele>
        <time>2018-09-18T14:07:17Z</time>
      </trkpt>
      <trkpt lat="47.559282034635544" lon="10.214818026870489">
        <ele>733.13999999999999</ele>
        <time>2018-09-18T14:07:18Z</time>
      </trkpt>
      <trkpt lat="47.559272982180119" lon="10.214849961921573">
        <ele>733.13999999999999</ele>
        <time>2018-09-18T14:07:19Z</time>
      </trkpt>
      <trkpt lat="47.559256972745061" lon="10.214903019368649">
        <ele>733.13999999999999</ele>
        <time>2018-09-18T14:07:20Z</time>
      </trkpt>
      <trkpt lat="47.559230988845229" lon="10.214953981339931">
        <ele>732.17999999999995</ele>
        <time>2018-09-18T14:07:33Z</time>
      </trkpt>
      <trkpt lat="47.559159994125366" lon="10.215090019628406">
        <ele>732.65999999999997</ele>
        <time>2018-09-18T14:08:03Z</time>
      </trkpt>
      <trkpt lat="47.558946004137397" lon="10.215759985148907">
        <ele>730.25999999999999</ele>
        <time>2018-09-18T14:08:19Z</time>
      </trkpt>
      <trkpt lat="47.55882597528398" lon="10.216588033363223">
        <ele>728.82000000000005</ele>
        <time>2018-09-18T14:08:32Z</time>
      </trkpt>
      <trkpt lat="47.55878297612071" lon="10.216838987544179">
        <ele>728.34000000000003</ele>
        <time>2018-09-18T14:08:37Z</time>
      </trkpt>
      <trkpt lat="47.55876000970602" lon="10.216975025832653">
        <ele>729.29999999999995</ele>
        <time>2018-09-18T14:08:51Z</time>
      </trkpt>
      <trkpt lat="47.558662025257945" lon="10.217575002461672">
        <ele>729.77999999999997</ele>
        <time>2018-09-18T14:09:02Z</time>
      </trkpt>
      <trkpt lat="47.558646015822887" lon="10.217684973031282">
        <ele>729.77999999999997</ele>
        <time>2018-09-18T14:09:04Z</time>
      </trkpt>
      <trkpt lat="47.558635035529733" lon="10.217754039913416">
        <ele>730.25999999999999</ele>
        <time>2018-09-18T14:09:05Z</time>
      </trkpt>
      <trkpt lat="47.558623971417546" lon="10.217830985784531">
        <ele>730.25999999999999</ele>
        <time>2018-09-18T14:09:06Z</time>
      </trkpt>
      <trkpt lat="47.558477036654949" lon="10.218790965154767">
        <ele>732.17999999999995</ele>
        <time>2018-09-18T14:09:14Z</time>
      </trkpt>
      <trkpt lat="47.558445017784834" lon="10.219014007598162">
        <ele>732.65999999999997</ele>
        <time>2018-09-18T14:09:20Z</time>
      </trkpt>
      <trkpt lat="47.558436971157789" lon="10.219066981226206">
        <ele>732.17999999999995</ele>
        <time>2018-09-18T14:09:21Z</time>
      </trkpt>
      <trkpt lat="47.558374023064971" lon="10.219579031690955">
        <ele>731.22000000000003</ele>
        <time>2018-09-18T14:09:28Z</time>
      </trkpt>
      <trkpt lat="47.558358013629913" lon="10.220089992508292">
        <ele>729.77999999999997</ele>
        <time>2018-09-18T14:09:37Z</time>
      </trkpt>
      <trkpt lat="47.558377040550113" lon="10.220690974965692">
        <ele>726.40999999999997</ele>
        <time>2018-09-18T14:09:47Z</time>
      </trkpt>
      <trkpt lat="47.55837201140821" lon="10.220856014639139">
        <ele>725.45000000000005</ele>
        <time>2018-09-18T14:09:49Z</time>
      </trkpt>
      <trkpt lat="47.558365976437926" lon="10.220934972167015">
        <ele>724.97000000000003</ele>
        <time>2018-09-18T14:09:50Z</time>
      </trkpt>
      <trkpt lat="47.558353990316391" lon="10.221082996577024">
        <ele>724.00999999999999</ele>
        <time>2018-09-18T14:09:52Z</time>
      </trkpt>
      <trkpt lat="47.558348039165139" lon="10.221161032095551">
        <ele>723.52999999999997</ele>
        <time>2018-09-18T14:09:53Z</time>
      </trkpt>
      <trkpt lat="47.558317026123405" lon="10.221564034000039">
        <ele>719.20000000000005</ele>
        <time>2018-09-18T14:10:02Z</time>
      </trkpt>
      <trkpt lat="47.558315014466643" lon="10.221592029556632">
        <ele>718.72000000000003</ele>
        <time>2018-09-18T14:10:07Z</time>
      </trkpt>
      <trkpt lat="47.558313002809882" lon="10.221613990142941">
        <ele>718.24000000000001</ele>
        <time>2018-09-18T14:10:08Z</time>
      </trkpt>
      <trkpt lat="47.558233961462975" lon="10.221864022314548">
        <ele>718.24000000000001</ele>
        <time>2018-09-18T14:10:16Z</time>
      </trkpt>
      <trkpt lat="47.558172019198537" lon="10.222054040059447">
        <ele>719.20000000000005</ele>
        <time>2018-09-18T14:10:18Z</time>
      </trkpt>
      <trkpt lat="47.558152992278337" lon="10.222113970667124">
        <ele>719.67999999999995</ele>
        <time>2018-09-18T14:10:19Z</time>
      </trkpt>
      <trkpt lat="47.558141006156802" lon="10.222149007022381">
        <ele>720.15999999999997</ele>
        <time>2018-09-18T14:10:20Z</time>
      </trkpt>
      <trkpt lat="47.558035980910063" lon="10.222452012822032">
        <ele>721.61000000000001</ele>
        <time>2018-09-18T14:10:25Z</time>
      </trkpt>
      <trkpt lat="47.557992981746793" lon="10.222572041675448">
        <ele>722.09000000000003</ele>
        <time>2018-09-18T14:10:26Z</time>
      </trkpt>
      <trkpt lat="47.557797012850642" lon="10.223161038011312">
        <ele>723.52999999999997</ele>
        <time>2018-09-18T14:10:30Z</time>
      </trkpt>
      <trkpt lat="47.55770799703896" lon="10.223570996895432">
        <ele>724.49000000000001</ele>
        <time>2018-09-18T14:10:33Z</time>
      </trkpt>
      <trkpt lat="47.55760196596384" lon="10.225122990086675">
        <ele>722.09000000000003</ele>
        <time>2018-09-18T14:10:43Z</time>
      </trkpt>
      <trkpt lat="47.557457964867353" lon="10.225703017786145">
        <ele>720.64999999999998</ele>
        <time>2018-09-18T14:10:47Z</time>
      </trkpt>
      <trkpt lat="47.55699603818357" lon="10.227274959906936">
        <ele>717.27999999999997</ele>
        <time>2018-09-18T14:10:58Z</time>
      </trkpt>
      <trkpt lat="47.556945998221636" lon="10.227417033165693">
        <ele>717.27999999999997</ele>
        <time>2018-09-18T14:10:59Z</time>
      </trkpt>
      <trkpt lat="47.556565040722489" lon="10.228435015305877">
        <ele>716.32000000000005</ele>
        <time>2018-09-18T14:11:06Z</time>
      </trkpt>
      <trkpt lat="47.556238984689116" lon="10.229101041331887">
        <ele>715.36000000000001</ele>
        <time>2018-09-18T14:11:12Z</time>
      </trkpt>
      <trkpt lat="47.556188022717834" lon="10.229173041880131">
        <ele>714.88</ele>
        <time>2018-09-18T14:11:13Z</time>
      </trkpt>
      <trkpt lat="47.555931033566594" lon="10.22953798994422">
        <ele>715.84000000000003</ele>
        <time>2018-09-18T14:11:18Z</time>
      </trkpt>
      <trkpt lat="47.555876970291138" lon="10.229615019634366">
        <ele>716.32000000000005</ele>
        <time>2018-09-18T14:11:19Z</time>
      </trkpt>
      <trkpt lat="47.555324016138911" lon="10.230356985703111">
        <ele>718.72000000000003</ele>
        <time>2018-09-18T14:11:29Z</time>
      </trkpt>
      <trkpt lat="47.555307000875473" lon="10.230379030108452">
        <ele>718.72000000000003</ele>
        <time>2018-09-18T14:11:30Z</time>
      </trkpt>
      <trkpt lat="47.555271964520216" lon="10.230425968766212">
        <ele>718.72000000000003</ele>
        <time>2018-09-18T14:11:32Z</time>
      </trkpt>
      <trkpt lat="47.555246986448765" lon="10.230458993464708">
        <ele>718.72000000000003</ele>
        <time>2018-09-18T14:11:33Z</time>
      </trkpt>
      <trkpt lat="47.55521597340703" lon="10.230499980971217">
        <ele>718.72000000000003</ele>
        <time>2018-09-18T14:11:34Z</time>
      </trkpt>
      <trkpt lat="47.555175991728902" lon="10.230553038418293">
        <ele>718.72000000000003</ele>
        <time>2018-09-18T14:11:35Z</time>
      </trkpt>
      <trkpt lat="47.55512997508049" lon="10.230614980682731">
        <ele>719.20000000000005</ele>
        <time>2018-09-18T14:11:36Z</time>
      </trkpt>
      <trkpt lat="47.55478497594595" lon="10.231185033917427">
        <ele>721.13</ele>
        <time>2018-09-18T14:11:43Z</time>
      </trkpt>
      <trkpt lat="47.554757986217737" lon="10.23123599588871">
        <ele>721.13</ele>
        <time>2018-09-18T14:11:44Z</time>
      </trkpt>
      <trkpt lat="47.554737031459808" lon="10.231274971738458">
        <ele>721.61000000000001</ele>
        <time>2018-09-18T14:11:45Z</time>
      </trkpt>
      <trkpt lat="47.554669976234436" lon="10.231402041390538">
        <ele>722.09000000000003</ele>
        <time>2018-09-18T14:11:48Z</time>
      </trkpt>
      <trkpt lat="47.554643992334604" lon="10.231451997533441">
        <ele>722.57000000000005</ele>
        <time>2018-09-18T14:11:49Z</time>
      </trkpt>
      <trkpt lat="47.554568974301219" lon="10.231532966718078">
        <ele>722.57000000000005</ele>
        <time>2018-09-18T14:11:50Z</time>
      </trkpt>
      <trkpt lat="47.554471995681524" lon="10.231532966718078">
        <ele>723.04999999999995</ele>
        <time>2018-09-18T14:11:52Z</time>
      </trkpt>
      <trkpt lat="47.554466966539621" lon="10.231583006680012">
        <ele>723.04999999999995</ele>
        <time>2018-09-18T14:11:53Z</time>
      </trkpt>
      <trkpt lat="47.554459003731608" lon="10.231652995571494">
        <ele>723.04999999999995</ele>
        <time>2018-09-18T14:11:54Z</time>
      </trkpt>
      <trkpt lat="47.554451040923595" lon="10.231719966977835">
        <ele>722.57000000000005</ele>
        <time>2018-09-18T14:11:55Z</time>
      </trkpt>
      <trkpt lat="47.554463027045131" lon="10.231730025261641">
        <ele>722.57000000000005</ele>
        <time>2018-09-18T14:11:56Z</time>
      </trkpt>
      <trkpt lat="47.554516000673175" lon="10.231747962534428">
        <ele>722.09000000000003</ele>
        <time>2018-09-18T14:11:57Z</time>
      </trkpt>
      <trkpt lat="47.554611973464489" lon="10.231834966689348">
        <ele>722.09000000000003</ele>
        <time>2018-09-18T14:11:58Z</time>
      </trkpt>
      <trkpt lat="47.554657990112901" lon="10.231930017471313">
        <ele>722.09000000000003</ele>
        <time>2018-09-18T14:11:59Z</time>
      </trkpt>
      <trkpt lat="47.554710963740945" lon="10.232037976384163">
        <ele>722.09000000000003</ele>
        <time>2018-09-18T14:12:00Z</time>
      </trkpt>
      <trkpt lat="47.554773995652795" lon="10.232166973873973">
        <ele>722.09000000000003</ele>
        <time>2018-09-18T14:12:01Z</time>
      </trkpt>
      <trkpt lat="47.554844990372658" lon="10.232311980798841">
        <ele>722.09000000000003</ele>
        <time>2018-09-18T14:12:02Z</time>
      </trkpt>
      <trkpt lat="47.555376989766955" lon="10.2333830203861">
        <ele>724.00999999999999</ele>
        <time>2018-09-18T14:12:11Z</time>
      </trkpt>
      <trkpt lat="47.555865989997983" lon="10.234770979732275">
        <ele>723.04999999999995</ele>
        <time>2018-09-18T14:12:21Z</time>
      </trkpt>
      <trkpt lat="47.556060031056404" lon="10.236461022868752">
        <ele>723.52999999999997</ele>
        <time>2018-09-18T14:12:31Z</time>
      </trkpt>
      <trkpt lat="47.555932039394975" lon="10.238054003566504">
        <ele>724.97000000000003</ele>
        <time>2018-09-18T14:12:39Z</time>
      </trkpt>
      <trkpt lat="47.55529903806746" lon="10.240182001143694">
        <ele>725.92999999999995</ele>
        <time>2018-09-18T14:12:49Z</time>
      </trkpt>
      <trkpt lat="47.554552964866161" lon="10.242675030604005">
        <ele>724.97000000000003</ele>
        <time>2018-09-18T14:13:01Z</time>
      </trkpt>
      <trkpt lat="47.554520023986697" lon="10.243299985304475">
        <ele>724.97000000000003</ele>
        <time>2018-09-18T14:13:04Z</time>
      </trkpt>
      <trkpt lat="47.554683974012733" lon="10.245267972350121">
        <ele>725.92999999999995</ele>
        <time>2018-09-18T14:13:13Z</time>
      </trkpt>
      <trkpt lat="47.554804002866149" lon="10.245688995346427">
        <ele>725.45000000000005</ele>
        <time>2018-09-18T14:13:15Z</time>
      </trkpt>
      <trkpt lat="47.555488971993327" lon="10.247046025469899">
        <ele>726.88999999999999</ele>
        <time>2018-09-18T14:13:24Z</time>
      </trkpt>
      <trkpt lat="47.555743027478456" lon="10.247368980199099">
        <ele>727.86000000000001</ele>
        <time>2018-09-18T14:13:29Z</time>
      </trkpt>
      <trkpt lat="47.555874958634377" lon="10.247494960203767">
        <ele>727.86000000000001</ele>
        <time>2018-09-18T14:13:36Z</time>
      </trkpt>
      <trkpt lat="47.555893985554576" lon="10.247513987123966">
        <ele>728.34000000000003</ele>
        <time>2018-09-18T14:13:37Z</time>
      </trkpt>
      <trkpt lat="47.555926004424691" lon="10.24754399433732">
        <ele>728.34000000000003</ele>
        <time>2018-09-18T14:13:38Z</time>
      </trkpt>
      <trkpt lat="47.556381979957223" lon="10.247926963493228">
        <ele>729.29999999999995</ele>
        <time>2018-09-18T14:13:48Z</time>
      </trkpt>
      <trkpt lat="47.556422967463732" lon="10.247957976534963">
        <ele>729.29999999999995</ele>
        <time>2018-09-18T14:13:49Z</time>
      </trkpt>
      <trkpt lat="47.556459009647369" lon="10.247984966263175">
        <ele>729.77999999999997</ele>
        <time>2018-09-18T14:13:50Z</time>
      </trkpt>
      <trkpt lat="47.556476024910808" lon="10.24810197763145">
        <ele>729.77999999999997</ele>
        <time>2018-09-18T14:13:51Z</time>
      </trkpt>
      <trkpt lat="47.556481976062059" lon="10.248184036463499">
        <ele>729.77999999999997</ele>
        <time>2018-09-18T14:13:52Z</time>
      </trkpt>
      <trkpt lat="47.556489016860723" lon="10.248270034790039">
        <ele>729.77999999999997</ele>
        <time>2018-09-18T14:13:53Z</time>
      </trkpt>
      <trkpt lat="47.556467978283763" lon="10.248390985652804">
        <ele>729.77999999999997</ele>
        <time>2018-09-18T14:13:54Z</time>
      </trkpt>
      <trkpt lat="47.556447023525834" lon="10.248513026162982">
        <ele>729.77999999999997</ele>
        <time>2018-09-18T14:13:55Z</time>
      </trkpt>
      <trkpt lat="47.556423973292112" lon="10.248648980632424">
        <ele>729.77999999999997</ele>
        <time>2018-09-18T14:13:56Z</time>
      </trkpt>
      <trkpt lat="47.556398995220661" lon="10.24879097007215">
        <ele>729.77999999999997</ele>
        <time>2018-09-18T14:13:57Z</time>
      </trkpt>
      <trkpt lat="47.5563969835639" lon="10.248957015573978">
        <ele>729.29999999999995</ele>
        <time>2018-09-18T14:13:58Z</time>
      </trkpt>
      <trkpt lat="47.556430008262396" lon="10.249102022498846">
        <ele>728.82000000000005</ele>
        <time>2018-09-18T14:13:59Z</time>
      </trkpt>
      <trkpt lat="47.556479964405298" lon="10.249247029423714">
        <ele>727.86000000000001</ele>
        <time>2018-09-18T14:14:00Z</time>
      </trkpt>
      <trkpt lat="47.556537967175245" lon="10.249375021085143">
        <ele>727.37</ele>
        <time>2018-09-18T14:14:01Z</time>
      </trkpt>
      <trkpt lat="47.556593958288431" lon="10.24949898943305">
        <ele>726.88999999999999</ele>
        <time>2018-09-18T14:14:02Z</time>
      </trkpt>
      <trkpt lat="47.556638969108462" lon="10.249600997194648">
        <ele>726.40999999999997</ele>
        <time>2018-09-18T14:14:03Z</time>
      </trkpt>
      <trkpt lat="47.556638969108462" lon="10.249740974977612">
        <ele>725.92999999999995</ele>
        <time>2018-09-18T14:14:04Z</time>
      </trkpt>
      <trkpt lat="47.556633017957211" lon="10.249867038801312">
        <ele>725.45000000000005</ele>
        <time>2018-09-18T14:14:05Z</time>
      </trkpt>
      <trkpt lat="47.556603010743856" lon="10.250006010755897">
        <ele>725.45000000000005</ele>
        <time>2018-09-18T14:14:06Z</time>
      </trkpt>
      <trkpt lat="47.556550037115812" lon="10.250173984095454">
        <ele>724.97000000000003</ele>
        <time>2018-09-18T14:14:07Z</time>
      </trkpt>
      <trkpt lat="47.556465966627002" lon="10.250299964100122">
        <ele>724.97000000000003</ele>
        <time>2018-09-18T14:14:08Z</time>
      </trkpt>
      <trkpt lat="47.555728023871779" lon="10.251446021720767">
        <ele>725.92999999999995</ele>
        <time>2018-09-18T14:14:17Z</time>
      </trkpt>
      <trkpt lat="47.555303983390331" lon="10.252100983634591">
        <ele>725.92999999999995</ele>
        <time>2018-09-18T14:14:21Z</time>
      </trkpt>
      <trkpt lat="47.555190995335579" lon="10.252272980287671">
        <ele>725.92999999999995</ele>
        <time>2018-09-18T14:14:22Z</time>
      </trkpt>
      <trkpt lat="47.554124984890223" lon="10.253885993734002">
        <ele>726.88999999999999</ele>
        <time>2018-09-18T14:14:32Z</time>
      </trkpt>
      <trkpt lat="47.553527019917965" lon="10.254791993647814">
        <ele>729.77999999999997</ele>
        <time>2018-09-18T14:14:40Z</time>
      </trkpt>
      <trkpt lat="47.552846996113658" lon="10.255821961909533">
        <ele>730.74000000000001</ele>
        <time>2018-09-18T14:14:50Z</time>
      </trkpt>
      <trkpt lat="47.5517120026052" lon="10.257546035572886">
        <ele>732.17999999999995</ele>
        <time>2018-09-18T14:15:03Z</time>
      </trkpt>
      <trkpt lat="47.551055029034615" lon="10.258544990792871">
        <ele>731.70000000000005</ele>
        <time>2018-09-18T14:15:13Z</time>
      </trkpt>
      <trkpt lat="47.550413981080055" lon="10.259519973769784">
        <ele>731.70000000000005</ele>
        <time>2018-09-18T14:15:24Z</time>
      </trkpt>
      <trkpt lat="47.549629015848041" lon="10.26071397587657">
        <ele>732.65999999999997</ele>
        <time>2018-09-18T14:15:34Z</time>
      </trkpt>
      <trkpt lat="47.548492010682821" lon="10.26245498098433">
        <ele>732.65999999999997</ele>
        <time>2018-09-18T14:15:44Z</time>
      </trkpt>
      <trkpt lat="47.547675026580691" lon="10.263677984476089">
        <ele>732.17999999999995</ele>
        <time>2018-09-18T14:15:51Z</time>
      </trkpt>
      <trkpt lat="47.54627600312233" lon="10.265434999018908">
        <ele>730.74000000000001</ele>
        <time>2018-09-18T14:16:02Z</time>
      </trkpt>
      <trkpt lat="47.544734990224242" lon="10.266695972532034">
        <ele>731.70000000000005</ele>
        <time>2018-09-18T14:16:13Z</time>
      </trkpt>
      <trkpt lat="47.543545011430979" lon="10.267238030210137">
        <ele>732.17999999999995</ele>
        <time>2018-09-18T14:16:21Z</time>
      </trkpt>
      <trkpt lat="47.543017035350204" lon="10.267423018813133">
        <ele>732.65999999999997</ele>
        <time>2018-09-18T14:16:29Z</time>
      </trkpt>
      <trkpt lat="47.542738001793623" lon="10.267458977177739">
        <ele>732.17999999999995</ele>
        <time>2018-09-18T14:16:34Z</time>
      </trkpt>
      <trkpt lat="47.542671030387282" lon="10.267466017976403">
        <ele>732.17999999999995</ele>
        <time>2018-09-18T14:16:35Z</time>
      </trkpt>
      <trkpt lat="47.542533986270428" lon="10.26748102158308">
        <ele>732.17999999999995</ele>
        <time>2018-09-18T14:16:37Z</time>
      </trkpt>
      <trkpt lat="47.542097037658095" lon="10.267527960240841">
        <ele>729.29999999999995</ele>
        <time>2018-09-18T14:16:46Z</time>
      </trkpt>
      <trkpt lat="47.541480967774987" lon="10.267544975504279">
        <ele>730.25999999999999</ele>
        <time>2018-09-18T14:17:00Z</time>
      </trkpt>
      <trkpt lat="47.541008982807398" lon="10.267519997432828">
        <ele>730.74000000000001</ele>
        <time>2018-09-18T14:17:08Z</time>
      </trkpt>
      <trkpt lat="47.54094603471458" lon="10.267516979947686">
        <ele>730.74000000000001</ele>
        <time>2018-09-18T14:17:09Z</time>
      </trkpt>
      <trkpt lat="47.540489975363016" lon="10.267487978562713">
        <ele>731.22000000000003</ele>
        <time>2018-09-18T14:17:16Z</time>
      </trkpt>
      <trkpt lat="47.540426021441817" lon="10.267479009926319">
        <ele>731.22000000000003</ele>
        <time>2018-09-18T14:17:17Z</time>
      </trkpt>
      <trkpt lat="47.539514992386103" lon="10.267343977466226">
        <ele>732.65999999999997</ele>
        <time>2018-09-18T14:17:29Z</time>
      </trkpt>
      <trkpt lat="47.53871401771903" lon="10.26722596026957">
        <ele>733.62</ele>
        <time>2018-09-18T14:17:37Z</time>
      </trkpt>
      <trkpt lat="47.537901978939772" lon="10.267106015235186">
        <ele>733.62</ele>
        <time>2018-09-18T14:17:45Z</time>
      </trkpt>
      <trkpt lat="47.536560036242008" lon="10.266912980005145">
        <ele>733.13999999999999</ele>
        <time>2018-09-18T14:17:55Z</time>
      </trkpt>
      <trkpt lat="47.534851972013712" lon="10.266703013330698">
        <ele>736.02999999999997</ele>
        <time>2018-09-18T14:18:09Z</time>
      </trkpt>
      <trkpt lat="47.533612959086895" lon="10.266613997519016">
        <ele>737.47000000000003</ele>
        <time>2018-09-18T14:18:17Z</time>
      </trkpt>
      <trkpt lat="47.531524021178484" lon="10.266592958942056">
        <ele>737.47000000000003</ele>
        <time>2018-09-18T14:18:29Z</time>
      </trkpt>
      <trkpt lat="47.529051024466753" lon="10.266892025247216">
        <ele>742.75999999999999</ele>
        <time>2018-09-18T14:18:44Z</time>
      </trkpt>
      <trkpt lat="47.52691799774766" lon="10.26735202409327">
        <ele>745.63999999999999</ele>
        <time>2018-09-18T14:18:57Z</time>
      </trkpt>
      <trkpt lat="47.524626972153783" lon="10.267978990450501">
        <ele>744.67999999999995</ele>
        <time>2018-09-18T14:19:11Z</time>
      </trkpt>
      <trkpt lat="47.52277297899127" lon="10.268485005944967">
        <ele>742.75999999999999</ele>
        <time>2018-09-18T14:19:23Z</time>
      </trkpt>
      <trkpt lat="47.522558989003301" lon="10.268543008714914">
        <ele>742.27999999999997</ele>
        <time>2018-09-18T14:19:25Z</time>
      </trkpt>
      <trkpt lat="47.522457987070084" lon="10.268569998443127">
        <ele>741.78999999999996</ele>
        <time>2018-09-18T14:19:26Z</time>
      </trkpt>
      <trkpt lat="47.522347010672092" lon="10.268600005656481">
        <ele>741.78999999999996</ele>
        <time>2018-09-18T14:19:27Z</time>
      </trkpt>
      <trkpt lat="47.522221030667424" lon="10.268634036183357">
        <ele>741.30999999999995</ele>
        <time>2018-09-18T14:19:28Z</time>
      </trkpt>
      <trkpt lat="47.522076023742557" lon="10.268674017861485">
        <ele>741.30999999999995</ele>
        <time>2018-09-18T14:19:29Z</time>
      </trkpt>
      <trkpt lat="47.520698960870504" lon="10.26891902089119">
        <ele>741.30999999999995</ele>
        <time>2018-09-18T14:19:36Z</time>
      </trkpt>
      <trkpt lat="47.518798029050231" lon="10.269155977293849">
        <ele>741.78999999999996</ele>
        <time>2018-09-18T14:19:45Z</time>
      </trkpt>
      <trkpt lat="47.517103962600231" lon="10.269832983613014">
        <ele>743.24000000000001</ele>
        <time>2018-09-18T14:19:53Z</time>
      </trkpt>
      <trkpt lat="47.515632016584277" lon="10.270586013793945">
        <ele>743.72000000000003</ele>
        <time>2018-09-18T14:20:01Z</time>
      </trkpt>
      <trkpt lat="47.51393903978169" lon="10.271088005974889">
        <ele>743.24000000000001</ele>
        <time>2018-09-18T14:20:11Z</time>
      </trkpt>
      <trkpt lat="47.511823028326035" lon="10.271491007879376">
        <ele>745.15999999999997</ele>
        <time>2018-09-18T14:20:23Z</time>
      </trkpt>
      <trkpt lat="47.51028997823596" lon="10.271669961512089">
        <ele>748.03999999999996</ele>
        <time>2018-09-18T14:20:30Z</time>
      </trkpt>
      <trkpt lat="47.508196011185646" lon="10.271565020084381">
        <ele>749</ele>
        <time>2018-09-18T14:20:40Z</time>
      </trkpt>
      <trkpt lat="47.506361966952682" lon="10.270903017371893">
        <ele>749.49000000000001</ele>
        <time>2018-09-18T14:20:49Z</time>
      </trkpt>
      <trkpt lat="47.504504034295678" lon="10.269509023055434">
        <ele>747.55999999999995</ele>
        <time>2018-09-18T14:20:59Z</time>
      </trkpt>
      <trkpt lat="47.503038961440325" lon="10.268118968233466">
        <ele>745.63999999999999</ele>
        <time>2018-09-18T14:21:08Z</time>
      </trkpt>
      <trkpt lat="47.501388983801007" lon="10.266927983611822">
        <ele>745.15999999999997</ele>
        <time>2018-09-18T14:21:18Z</time>
      </trkpt>
      <trkpt lat="47.4995899759233" lon="10.266126003116369">
        <ele>748.51999999999998</ele>
        <time>2018-09-18T14:21:28Z</time>
      </trkpt>
      <trkpt lat="47.497928012162447" lon="10.265775974839926">
        <ele>751.40999999999997</ele>
        <time>2018-09-18T14:21:38Z</time>
      </trkpt>
      <trkpt lat="47.496364032849669" lon="10.265457965433598">
        <ele>751.88999999999999</ele>
        <time>2018-09-18T14:21:47Z</time>
      </trkpt>
      <trkpt lat="47.496023979038" lon="10.265476992353797">
        <ele>752.37</ele>
        <time>2018-09-18T14:21:49Z</time>
      </trkpt>
      <trkpt lat="47.495858017355204" lon="10.26550599373877">
        <ele>752.37</ele>
        <time>2018-09-18T14:21:50Z</time>
      </trkpt>
      <trkpt lat="47.49570001848042" lon="10.265554022043943">
        <ele>752.85000000000002</ele>
        <time>2018-09-18T14:21:51Z</time>
      </trkpt>
      <trkpt lat="47.493877038359642" lon="10.266455998644233">
        <ele>754.76999999999998</ele>
        <time>2018-09-18T14:22:02Z</time>
      </trkpt>
      <trkpt lat="47.492449013516307" lon="10.266712987795472">
        <ele>758.62</ele>
        <time>2018-09-18T14:22:10Z</time>
      </trkpt>
      <trkpt lat="47.491033980622888" lon="10.266682980582118">
        <ele>764.38999999999999</ele>
        <time>2018-09-18T14:22:19Z</time>
      </trkpt>
      <trkpt lat="47.490874975919724" lon="10.266670994460583">
        <ele>766.30999999999995</ele>
        <time>2018-09-18T14:22:21Z</time>
      </trkpt>
      <trkpt lat="47.490672972053289" lon="10.266668982803822">
        <ele>768.71000000000004</ele>
        <time>2018-09-18T14:22:25Z</time>
      </trkpt>
      <trkpt lat="47.490635002031922" lon="10.266676023602486">
        <ele>769.19000000000005</ele>
        <time>2018-09-18T14:22:26Z</time>
      </trkpt>
      <trkpt lat="47.490596026182175" lon="10.266683986410499">
        <ele>769.66999999999996</ele>
        <time>2018-09-18T14:22:27Z</time>
      </trkpt>
      <trkpt lat="47.490554032847285" lon="10.266692033037543">
        <ele>770.63</ele>
        <time>2018-09-18T14:22:28Z</time>
      </trkpt>
      <trkpt lat="47.490510027855635" lon="10.266701001673937">
        <ele>771.11000000000001</ele>
        <time>2018-09-18T14:22:29Z</time>
      </trkpt>
      <trkpt lat="47.489934023469687" lon="10.26681499555707">
        <ele>772.55999999999995</ele>
        <time>2018-09-18T14:22:36Z</time>
      </trkpt>
      <trkpt lat="47.488961974158883" lon="10.26700702495873">
        <ele>775.44000000000005</ele>
        <time>2018-09-18T14:22:45Z</time>
      </trkpt>
      <trkpt lat="47.487803008407354" lon="10.266974000260234">
        <ele>780.25</ele>
        <time>2018-09-18T14:22:55Z</time>
      </trkpt>
      <trkpt lat="47.486663991585374" lon="10.267078019678593">
        <ele>784.09000000000003</ele>
        <time>2018-09-18T14:23:04Z</time>
      </trkpt>
      <trkpt lat="47.486237017437816" lon="10.267142979428172">
        <ele>785.52999999999997</ele>
        <time>2018-09-18T14:23:07Z</time>
      </trkpt>
      <trkpt lat="47.486094022169709" lon="10.267149014398456">
        <ele>786.01999999999998</ele>
        <time>2018-09-18T14:23:08Z</time>
      </trkpt>
      <trkpt lat="47.485949015244842" lon="10.267124958336353">
        <ele>786.01999999999998</ele>
        <time>2018-09-18T14:23:09Z</time>
      </trkpt>
      <trkpt lat="47.485807025805116" lon="10.267068967223167">
        <ele>786.01999999999998</ele>
        <time>2018-09-18T14:23:10Z</time>
      </trkpt>
      <trkpt lat="47.48566503636539" lon="10.267013981938362">
        <ele>785.52999999999997</ele>
        <time>2018-09-18T14:23:11Z</time>
      </trkpt>
      <trkpt lat="47.484874958172441" lon="10.266506038606167">
        <ele>784.09000000000003</ele>
        <time>2018-09-18T14:23:17Z</time>
      </trkpt>
      <trkpt lat="47.483729990199208" lon="10.266272015869617">
        <ele>783.61000000000001</ele>
        <time>2018-09-18T14:23:25Z</time>
      </trkpt>
      <trkpt lat="47.481931988149881" lon="10.266011003404856">
        <ele>786.5</ele>
        <time>2018-09-18T14:23:37Z</time>
      </trkpt>
      <trkpt lat="47.480951976031065" lon="10.266144024208188">
        <ele>785.52999999999997</ele>
        <time>2018-09-18T14:23:44Z</time>
      </trkpt>
      <trkpt lat="47.479727966710925" lon="10.266617015004158">
        <ele>780.73000000000002</ele>
        <time>2018-09-18T14:23:53Z</time>
      </trkpt>
      <trkpt lat="47.478573024272919" lon="10.266696978360415">
        <ele>774</ele>
        <time>2018-09-18T14:24:00Z</time>
      </trkpt>
      <trkpt lat="47.476792959496379" lon="10.26670896448195">
        <ele>764.38999999999999</ele>
        <time>2018-09-18T14:24:11Z</time>
      </trkpt>
      <trkpt lat="47.47505396604538" lon="10.267207017168403">
        <ele>758.13999999999999</ele>
        <time>2018-09-18T14:24:22Z</time>
      </trkpt>
      <trkpt lat="47.473590988665819" lon="10.267692999914289">
        <ele>758.62</ele>
        <time>2018-09-18T14:24:33Z</time>
      </trkpt>
      <trkpt lat="47.472531013190746" lon="10.267925010994077">
        <ele>761.01999999999998</ele>
        <time>2018-09-18T14:24:41Z</time>
      </trkpt>
      <trkpt lat="47.471294011920691" lon="10.267987037077546">
        <ele>764.38999999999999</ele>
        <time>2018-09-18T14:24:52Z</time>
      </trkpt>
      <trkpt lat="47.47008902952075" lon="10.268002962693572">
        <ele>764.38999999999999</ele>
        <time>2018-09-18T14:25:01Z</time>
      </trkpt>
      <trkpt lat="47.468459000810981" lon="10.268060965463519">
        <ele>760.53999999999996</ele>
        <time>2018-09-18T14:25:13Z</time>
      </trkpt>
      <trkpt lat="47.466872977092862" lon="10.268174959346652">
        <ele>763.41999999999996</ele>
        <time>2018-09-18T14:25:24Z</time>
      </trkpt>
      <trkpt lat="47.46536498889327" lon="10.268285013735294">
        <ele>769.66999999999996</ele>
        <time>2018-09-18T14:25:35Z</time>
      </trkpt>
      <trkpt lat="47.464608019217849" lon="10.2683399990201">
        <ele>772.55999999999995</ele>
        <time>2018-09-18T14:25:44Z</time>
      </trkpt>
      <trkpt lat="47.464511040598154" lon="10.268347039818764">
        <ele>773.03999999999996</ele>
        <time>2018-09-18T14:25:46Z</time>
      </trkpt>
      <trkpt lat="47.464423030614853" lon="10.268352990970016">
        <ele>773.51999999999998</ele>
        <time>2018-09-18T14:25:48Z</time>
      </trkpt>
      <trkpt lat="47.463991027325392" lon="10.268376041203737">
        <ele>774</ele>
        <time>2018-09-18T14:25:54Z</time>
      </trkpt>
      <trkpt lat="47.463852977380157" lon="10.268376041203737">
        <ele>774.48000000000002</ele>
        <time>2018-09-18T14:25:56Z</time>
      </trkpt>
      <trkpt lat="47.463326007127762" lon="10.268310997635126">
        <ele>774.96000000000004</ele>
        <time>2018-09-18T14:26:03Z</time>
      </trkpt>
      <trkpt lat="47.462944965809584" lon="10.268207984045148">
        <ele>774.96000000000004</ele>
        <time>2018-09-18T14:26:12Z</time>
      </trkpt>
      <trkpt lat="47.462255973368883" lon="10.267935991287231">
        <ele>774.96000000000004</ele>
        <time>2018-09-18T14:26:20Z</time>
      </trkpt>
      <trkpt lat="47.461478970944881" lon="10.267535001039505">
        <ele>775.91999999999996</ele>
        <time>2018-09-18T14:26:30Z</time>
      </trkpt>
      <trkpt lat="47.460528966039419" lon="10.267190001904964">
        <ele>776.88</ele>
        <time>2018-09-18T14:26:40Z</time>
      </trkpt>
      <trkpt lat="47.460389994084835" lon="10.267154965549707">
        <ele>776.88</ele>
        <time>2018-09-18T14:26:42Z</time>
      </trkpt>
      <trkpt lat="47.460342971608043" lon="10.267143985256553">
        <ele>776.88</ele>
        <time>2018-09-18T14:26:43Z</time>
      </trkpt>
      <trkpt lat="47.460299972444773" lon="10.267063016071916">
        <ele>776.88</ele>
        <time>2018-09-18T14:26:44Z</time>
      </trkpt>
      <trkpt lat="47.460305001586676" lon="10.266998978331685">
        <ele>776.39999999999998</ele>
        <time>2018-09-18T14:26:45Z</time>
      </trkpt>
      <trkpt lat="47.460312964394689" lon="10.266907028853893">
        <ele>776.39999999999998</ele>
        <time>2018-09-18T14:26:46Z</time>
      </trkpt>
      <trkpt lat="47.460322016850114" lon="10.26679496280849">
        <ele>776.88</ele>
        <time>2018-09-18T14:26:47Z</time>
      </trkpt>
      <trkpt lat="47.460332997143269" lon="10.266664959490299">
        <ele>776.88</ele>
        <time>2018-09-18T14:26:48Z</time>
      </trkpt>
      <trkpt lat="47.460329979658127" lon="10.26651400141418">
        <ele>776.88</ele>
        <time>2018-09-18T14:26:49Z</time>
      </trkpt>
      <trkpt lat="47.460320005193353" lon="10.266356002539396">
        <ele>776.88</ele>
        <time>2018-09-18T14:26:50Z</time>
      </trkpt>
      <trkpt lat="47.460152031853795" lon="10.265285968780518">
        <ele>777.84000000000003</ele>
        <time>2018-09-18T14:26:56Z</time>
      </trkpt>
      <trkpt lat="47.46010098606348" lon="10.265100980177522">
        <ele>778.32000000000005</ele>
        <time>2018-09-18T14:26:57Z</time>
      </trkpt>
      <trkpt lat="47.459812983870506" lon="10.264145024120808">
        <ele>781.69000000000005</ele>
        <time>2018-09-18T14:27:04Z</time>
      </trkpt>
      <trkpt lat="47.45962698943913" lon="10.263453014194965">
        <ele>783.13</ele>
        <time>2018-09-18T14:27:10Z</time>
      </trkpt>
      <trkpt lat="47.459597988054156" lon="10.263352012261748">
        <ele>784.09000000000003</ele>
        <time>2018-09-18T14:27:11Z</time>
      </trkpt>
      <trkpt lat="47.459271010011435" lon="10.262137977406383">
        <ele>788.89999999999998</ele>
        <time>2018-09-18T14:27:21Z</time>
      </trkpt>
      <trkpt lat="47.458829032257199" lon="10.260267974808812">
        <ele>790.82000000000005</ele>
        <time>2018-09-18T14:27:35Z</time>
      </trkpt>
      <trkpt lat="47.458522003144026" lon="10.258467039093375">
        <ele>792.25999999999999</ele>
        <time>2018-09-18T14:27:46Z</time>
      </trkpt>
      <trkpt lat="47.457875004038215" lon="10.256226975470781">
        <ele>797.07000000000005</ele>
        <time>2018-09-18T14:27:57Z</time>
      </trkpt>
      <trkpt lat="47.457195986062288" lon="10.254197968170047">
        <ele>803.32000000000005</ele>
        <time>2018-09-18T14:28:06Z</time>
      </trkpt>
      <trkpt lat="47.456344971433282" lon="10.252219000831246">
        <ele>808.61000000000001</ele>
        <time>2018-09-18T14:28:15Z</time>
      </trkpt>
      <trkpt lat="47.455750023946166" lon="10.24979998357594">
        <ele>811.97000000000003</ele>
        <time>2018-09-18T14:28:24Z</time>
      </trkpt>
      <trkpt lat="47.455132026225328" lon="10.248333988711238">
        <ele>813.88999999999999</ele>
        <time>2018-09-18T14:28:30Z</time>
      </trkpt>
      <trkpt lat="47.45470798574388" lon="10.246165003627539">
        <ele>821.10000000000002</ele>
        <time>2018-09-18T14:28:38Z</time>
      </trkpt>
      <trkpt lat="47.454472035169601" lon="10.245495960116386">
        <ele>823.02999999999997</ele>
        <time>2018-09-18T14:28:41Z</time>
      </trkpt>
      <trkpt lat="47.454373966902494" lon="10.245312983170152">
        <ele>823.50999999999999</ele>
        <time>2018-09-18T14:28:42Z</time>
      </trkpt>
      <trkpt lat="47.454282017424703" lon="10.245140986517072">
        <ele>823.99000000000001</ele>
        <time>2018-09-18T14:28:43Z</time>
      </trkpt>
      <trkpt lat="47.454199958592653" lon="10.244987010955811">
        <ele>824.47000000000003</ele>
        <time>2018-09-18T14:28:44Z</time>
      </trkpt>
      <trkpt lat="47.454068027436733" lon="10.244875028729439">
        <ele>824.95000000000005</ele>
        <time>2018-09-18T14:28:45Z</time>
      </trkpt>
      <trkpt lat="47.453952021896839" lon="10.244776038452983">
        <ele>825.42999999999995</ele>
        <time>2018-09-18T14:28:46Z</time>
      </trkpt>
      <trkpt lat="47.453839033842087" lon="10.244679981842637">
        <ele>825.90999999999997</ele>
        <time>2018-09-18T14:28:47Z</time>
      </trkpt>
      <trkpt lat="47.453731996938586" lon="10.244606975466013">
        <ele>826.38999999999999</ele>
        <time>2018-09-18T14:28:48Z</time>
      </trkpt>
      <trkpt lat="47.45363200083375" lon="10.244566993787885">
        <ele>826.38999999999999</ele>
        <time>2018-09-18T14:28:49Z</time>
      </trkpt>
      <trkpt lat="47.453548014163971" lon="10.244532963261008">
        <ele>826.38999999999999</ele>
        <time>2018-09-18T14:28:50Z</time>
      </trkpt>
      <trkpt lat="47.452778974547982" lon="10.244283014908433">
        <ele>828.78999999999996</ele>
        <time>2018-09-18T14:28:57Z</time>
      </trkpt>
      <trkpt lat="47.452261978760362" lon="10.244085034355521">
        <ele>830.72000000000003</ele>
        <time>2018-09-18T14:29:01Z</time>
      </trkpt>
      <trkpt lat="47.452143961563706" lon="10.243995012715459">
        <ele>831.67999999999995</ele>
        <time>2018-09-18T14:29:02Z</time>
      </trkpt>
      <trkpt lat="47.452028039842844" lon="10.243904991075397">
        <ele>832.15999999999997</ele>
        <time>2018-09-18T14:29:03Z</time>
      </trkpt>
      <trkpt lat="47.451931983232498" lon="10.243769958615303">
        <ele>833.12</ele>
        <time>2018-09-18T14:29:04Z</time>
      </trkpt>
      <trkpt lat="47.451837016269565" lon="10.243623023852706">
        <ele>833.60000000000002</ele>
        <time>2018-09-18T14:29:05Z</time>
      </trkpt>
      <trkpt lat="47.451751017943025" lon="10.243467958644032">
        <ele>834.08000000000004</ele>
        <time>2018-09-18T14:29:06Z</time>
      </trkpt>
      <trkpt lat="47.45167700573802" lon="10.243286993354559">
        <ele>835.03999999999996</ele>
        <time>2018-09-18T14:29:07Z</time>
      </trkpt>
      <trkpt lat="47.451599976047873" lon="10.243098987266421">
        <ele>835.51999999999998</ele>
        <time>2018-09-18T14:29:08Z</time>
      </trkpt>
      <trkpt lat="47.45152797549963" lon="10.242898995056748">
        <ele>836.48000000000002</ele>
        <time>2018-09-18T14:29:09Z</time>
      </trkpt>
      <trkpt lat="47.451282972469926" lon="10.242314022034407">
        <ele>837.45000000000005</ele>
        <time>2018-09-18T14:29:12Z</time>
      </trkpt>
      <trkpt lat="47.451186999678612" lon="10.242129033431411">
        <ele>837.92999999999995</ele>
        <time>2018-09-18T14:29:13Z</time>
      </trkpt>
      <trkpt lat="47.451088009402156" lon="10.241939015686512">
        <ele>838.40999999999997</ele>
        <time>2018-09-18T14:29:14Z</time>
      </trkpt>
      <trkpt lat="47.450957000255585" lon="10.24178403429687">
        <ele>838.88999999999999</ele>
        <time>2018-09-18T14:29:15Z</time>
      </trkpt>
      <trkpt lat="47.450821967795491" lon="10.241625029593706">
        <ele>839.37</ele>
        <time>2018-09-18T14:29:16Z</time>
      </trkpt>
      <trkpt lat="47.449688985943794" lon="10.24025802500546">
        <ele>846.10000000000002</ele>
        <time>2018-09-18T14:29:25Z</time>
      </trkpt>
      <trkpt lat="47.449612962082028" lon="10.240145958960056">
        <ele>847.05999999999995</ele>
        <time>2018-09-18T14:29:26Z</time>
      </trkpt>
      <trkpt lat="47.449502991512418" lon="10.239915959537029">
        <ele>848.01999999999998</ele>
        <time>2018-09-18T14:29:28Z</time>
      </trkpt>
      <trkpt lat="47.449419004842639" lon="10.23974203504622">
        <ele>848.98000000000002</ele>
        <time>2018-09-18T14:29:30Z</time>
      </trkpt>
      <trkpt lat="47.449382962659001" lon="10.239668022841215">
        <ele>849.46000000000004</ele>
        <time>2018-09-18T14:29:31Z</time>
      </trkpt>
      <trkpt lat="47.449351027607918" lon="10.239600967615843">
        <ele>849.94000000000005</ele>
        <time>2018-09-18T14:29:32Z</time>
      </trkpt>
      <trkpt lat="47.449272992089391" lon="10.239584958180785">
        <ele>850.41999999999996</ele>
        <time>2018-09-18T14:29:33Z</time>
      </trkpt>
      <trkpt lat="47.449199985712767" lon="10.239569032564759">
        <ele>850.89999999999998</ele>
        <time>2018-09-18T14:29:34Z</time>
      </trkpt>
      <trkpt lat="47.449122034013271" lon="10.239552017301321">
        <ele>851.38</ele>
        <time>2018-09-18T14:29:35Z</time>
      </trkpt>
      <trkpt lat="47.449040981009603" lon="10.239531984552741">
        <ele>851.38</ele>
        <time>2018-09-18T14:29:36Z</time>
      </trkpt>
      <trkpt lat="47.448961017653346" lon="10.239492002874613">
        <ele>851.38</ele>
        <time>2018-09-18T14:29:37Z</time>
      </trkpt>
      <trkpt lat="47.448878958821297" lon="10.239451015368104">
        <ele>851.38</ele>
        <time>2018-09-18T14:29:38Z</time>
      </trkpt>
      <trkpt lat="47.448470005765557" lon="10.239273989573121">
        <ele>851.87</ele>
        <time>2018-09-18T14:29:43Z</time>
      </trkpt>
      <trkpt lat="47.447737008333206" lon="10.239090006798506">
        <ele>851.87</ele>
        <time>2018-09-18T14:29:52Z</time>
      </trkpt>
      <trkpt lat="47.447650004178286" lon="10.239122025668621">
        <ele>851.38</ele>
        <time>2018-09-18T14:29:53Z</time>
      </trkpt>
      <trkpt lat="47.447570040822029" lon="10.239152032881975">
        <ele>851.38</ele>
        <time>2018-09-18T14:29:54Z</time>
      </trkpt>
      <trkpt lat="47.447496028617024" lon="10.239179022610188">
        <ele>850.89999999999998</ele>
        <time>2018-09-18T14:29:55Z</time>
      </trkpt>
      <trkpt lat="47.447426039725542" lon="10.239205006510019">
        <ele>850.89999999999998</ele>
        <time>2018-09-18T14:29:56Z</time>
      </trkpt>
      <trkpt lat="47.447370970621705" lon="10.239241970703006">
        <ele>850.89999999999998</ele>
        <time>2018-09-18T14:29:57Z</time>
      </trkpt>
      <trkpt lat="47.447320008650422" lon="10.23929301649332">
        <ele>850.89999999999998</ele>
        <time>2018-09-18T14:29:58Z</time>
      </trkpt>
      <trkpt lat="47.447274997830391" lon="10.239338027313352">
        <ele>850.89999999999998</ele>
        <time>2018-09-18T14:29:59Z</time>
      </trkpt>
      <trkpt lat="47.447239961475134" lon="10.239373985677958">
        <ele>850.41999999999996</ele>
        <time>2018-09-18T14:30:00Z</time>
      </trkpt>
      <trkpt lat="47.447126973420382" lon="10.239494014531374">
        <ele>848.98000000000002</ele>
        <time>2018-09-18T14:30:09Z</time>
      </trkpt>
      <trkpt lat="47.446937039494514" lon="10.239694006741047">
        <ele>847.53999999999996</ele>
        <time>2018-09-18T14:30:20Z</time>
      </trkpt>
      <trkpt lat="47.446710979565978" lon="10.239933980628848">
        <ele>847.53999999999996</ele>
        <time>2018-09-18T14:30:24Z</time>
      </trkpt>
      <trkpt lat="47.446179986000061" lon="10.240490036085248">
        <ele>846.58000000000004</ele>
        <time>2018-09-18T14:30:35Z</time>
      </trkpt>
      <trkpt lat="47.445992985740304" lon="10.24068801663816">
        <ele>843.69000000000005</ele>
        <time>2018-09-18T14:30:44Z</time>
      </trkpt>
      <trkpt lat="47.44576902128756" lon="10.241004014387727">
        <ele>841.28999999999996</ele>
        <time>2018-09-18T14:30:54Z</time>
      </trkpt>
      <trkpt lat="47.44576902128756" lon="10.241004014387727">
        <ele>841.28999999999996</ele>
        <time>2018-09-18T14:30:55Z</time>
      </trkpt>
      <trkpt lat="47.44576902128756" lon="10.241004014387727">
        <ele>840.33000000000004</ele>
        <time>2018-09-18T14:31:13Z</time>
      </trkpt>
      <trkpt lat="47.445615967735648" lon="10.241221021860838">
        <ele>839.37</ele>
        <time>2018-09-18T14:31:40Z</time>
      </trkpt>
      <trkpt lat="47.444941978901625" lon="10.242261970415711">
        <ele>838.40999999999997</ele>
        <time>2018-09-18T14:31:52Z</time>
      </trkpt>
      <trkpt lat="47.444812981411815" lon="10.24251401424408">
        <ele>837.45000000000005</ele>
        <time>2018-09-18T14:31:55Z</time>
      </trkpt>
      <trkpt lat="47.444665040820837" lon="10.242845015600324">
        <ele>836.48000000000002</ele>
        <time>2018-09-18T14:32:00Z</time>
      </trkpt>
      <trkpt lat="47.444513998925686" lon="10.242938976734877">
        <ele>835.51999999999998</ele>
        <time>2018-09-18T14:32:04Z</time>
      </trkpt>
      <trkpt lat="47.444487009197474" lon="10.242930008098483">
        <ele>835.51999999999998</ele>
        <time>2018-09-18T14:32:05Z</time>
      </trkpt>
      <trkpt lat="47.444416014477611" lon="10.242906035855412">
        <ele>835.51999999999998</ele>
        <time>2018-09-18T14:32:06Z</time>
      </trkpt>
      <trkpt lat="47.444416014477611" lon="10.242906035855412">
        <ele>835.51999999999998</ele>
        <time>2018-09-18T14:32:07Z</time>
      </trkpt>
      <trkpt lat="47.444414002820849" lon="10.242906035855412">
        <ele>835.51999999999998</ele>
        <time>2018-09-18T14:32:08Z</time>
      </trkpt>
      <trkpt lat="47.444386007264256" lon="10.242906035855412">
        <ele>835.51999999999998</ele>
        <time>2018-09-18T14:32:09Z</time>
      </trkpt>
      <trkpt lat="47.444349965080619" lon="10.242906035855412">
        <ele>835.51999999999998</ele>
        <time>2018-09-18T14:32:10Z</time>
      </trkpt>
      <trkpt lat="47.444306965917349" lon="10.242906035855412">
        <ele>835.03999999999996</ele>
        <time>2018-09-18T14:32:11Z</time>
      </trkpt>
      <trkpt lat="47.444257009774446" lon="10.242906035855412">
        <ele>835.03999999999996</ele>
        <time>2018-09-18T14:32:12Z</time>
      </trkpt>
      <trkpt lat="47.444207975640893" lon="10.242906035855412">
        <ele>835.03999999999996</ele>
        <time>2018-09-18T14:32:13Z</time>
      </trkpt>
      <trkpt lat="47.444161958992481" lon="10.242906035855412">
        <ele>834.55999999999995</ele>
        <time>2018-09-18T14:32:14Z</time>
      </trkpt>
      <trkpt lat="47.444083001464605" lon="10.242840992286801">
        <ele>834.08000000000004</ele>
        <time>2018-09-18T14:32:15Z</time>
      </trkpt>
      <trkpt lat="47.444051988422871" lon="10.242779972031713">
        <ele>834.08000000000004</ele>
        <time>2018-09-18T14:32:16Z</time>
      </trkpt>
      <trkpt lat="47.444022987037897" lon="10.242721969261765">
        <ele>834.08000000000004</ele>
        <time>2018-09-18T14:32:17Z</time>
      </trkpt>
      <trkpt lat="47.443999014794827" lon="10.242674024775624">
        <ele>833.60000000000002</ele>
        <time>2018-09-18T14:32:18Z</time>
      </trkpt>
      <trkpt lat="47.443981999531388" lon="10.242638988420367">
        <ele>833.12</ele>
        <time>2018-09-18T14:32:19Z</time>
      </trkpt>
      <trkpt lat="47.443969007581472" lon="10.242614010348916">
        <ele>833.12</ele>
        <time>2018-09-18T14:32:20Z</time>
      </trkpt>
      <trkpt lat="47.443948974832892" lon="10.242574028670788">
        <ele>833.12</ele>
        <time>2018-09-18T14:32:31Z</time>
      </trkpt>
      <trkpt lat="47.443911004811525" lon="10.242498004809022">
        <ele>833.12</ele>
        <time>2018-09-18T14:32:34Z</time>
      </trkpt>
      <trkpt lat="47.443911004811525" lon="10.242498004809022">
        <ele>833.60000000000002</ele>
        <time>2018-09-18T14:32:35Z</time>
      </trkpt>
      <trkpt lat="47.443911004811525" lon="10.242498004809022">
        <ele>834.08000000000004</ele>
        <time>2018-09-18T14:32:48Z</time>
      </trkpt>
      <trkpt lat="47.443909998983145" lon="10.242505967617035">
        <ele>833.60000000000002</ele>
        <time>2018-09-18T14:33:00Z</time>
      </trkpt>
      <trkpt lat="47.443911004811525" lon="10.242513008415699">
        <ele>834.08000000000004</ele>
        <time>2018-09-18T14:33:54Z</time>
      </trkpt>
      <trkpt lat="47.444040002301335" lon="10.242754993960261">
        <ele>833.60000000000002</ele>
        <time>2018-09-18T14:34:18Z</time>
      </trkpt>
      <trkpt lat="47.444077972322702" lon="10.242831017822027">
        <ele>833.60000000000002</ele>
        <time>2018-09-18T14:34:19Z</time>
      </trkpt>
      <trkpt lat="47.444143015891314" lon="10.242906035855412">
        <ele>833.12</ele>
        <time>2018-09-18T14:34:20Z</time>
      </trkpt>
      <trkpt lat="47.44420001283288" lon="10.242906035855412">
        <ele>833.12</ele>
        <time>2018-09-18T14:34:21Z</time>
      </trkpt>
      <trkpt lat="47.444259021431208" lon="10.242906035855412">
        <ele>832.63999999999999</ele>
        <time>2018-09-18T14:34:22Z</time>
      </trkpt>
      <trkpt lat="47.444318030029535" lon="10.242906035855412">
        <ele>832.15999999999997</ele>
        <time>2018-09-18T14:34:23Z</time>
      </trkpt>
      <trkpt lat="47.444429006427526" lon="10.242909975349903">
        <ele>831.67999999999995</ele>
        <time>2018-09-18T14:34:25Z</time>
      </trkpt>
      <trkpt lat="47.444468988105655" lon="10.242922967299819">
        <ele>831.67999999999995</ele>
        <time>2018-09-18T14:34:26Z</time>
      </trkpt>
      <trkpt lat="47.444502012804151" lon="10.242935037240386">
        <ele>831.20000000000005</ele>
        <time>2018-09-18T14:34:27Z</time>
      </trkpt>
      <trkpt lat="47.444567978382111" lon="10.243079960346222">
        <ele>831.20000000000005</ele>
        <time>2018-09-18T14:34:28Z</time>
      </trkpt>
      <trkpt lat="47.444550041109324" lon="10.243128994479775">
        <ele>830.72000000000003</ele>
        <time>2018-09-18T14:34:29Z</time>
      </trkpt>
      <trkpt lat="47.444526990875602" lon="10.243192026391625">
        <ele>830.72000000000003</ele>
        <time>2018-09-18T14:34:30Z</time>
      </trkpt>
      <trkpt lat="47.444497989490628" lon="10.243271989747882">
        <ele>830.72000000000003</ele>
        <time>2018-09-18T14:34:31Z</time>
      </trkpt>
      <trkpt lat="47.444463036954403" lon="10.243366034701467">
        <ele>830.24000000000001</ele>
        <time>2018-09-18T14:34:32Z</time>
      </trkpt>
      <trkpt lat="47.444301014766097" lon="10.243657976388931">
        <ele>828.78999999999996</ele>
        <time>2018-09-18T14:34:35Z</time>
      </trkpt>
      <trkpt lat="47.443614033982158" lon="10.244725998491049">
        <ele>824.47000000000003</ele>
        <time>2018-09-18T14:34:46Z</time>
      </trkpt>
      <trkpt lat="47.443571034818888" lon="10.244782995432615">
        <ele>823.99000000000001</ele>
        <time>2018-09-18T14:34:47Z</time>
      </trkpt>
      <trkpt lat="47.443535998463631" lon="10.244829012081027">
        <ele>823.99000000000001</ele>
        <time>2018-09-18T14:34:48Z</time>
      </trkpt>
      <trkpt lat="47.443554019555449" lon="10.244949040934443">
        <ele>823.99000000000001</ele>
        <time>2018-09-18T14:34:49Z</time>
      </trkpt>
      <trkpt lat="47.443582015112042" lon="10.245014000684023">
        <ele>823.99000000000001</ele>
        <time>2018-09-18T14:34:50Z</time>
      </trkpt>
      <trkpt lat="47.443615039810538" lon="10.245088012889028">
        <ele>823.99000000000001</ele>
        <time>2018-09-18T14:34:51Z</time>
      </trkpt>
      <trkpt lat="47.443664995953441" lon="10.245202006772161">
        <ele>823.99000000000001</ele>
        <time>2018-09-18T14:34:52Z</time>
      </trkpt>
      <trkpt lat="47.443699026480317" lon="10.245234025642276">
        <ele>823.99000000000001</ele>
        <time>2018-09-18T14:34:53Z</time>
      </trkpt>
      <trkpt lat="47.443754011765122" lon="10.245284987613559">
        <ele>823.99000000000001</ele>
        <time>2018-09-18T14:34:54Z</time>
      </trkpt>
      <trkpt lat="47.443806985393167" lon="10.245335027575493">
        <ele>823.99000000000001</ele>
        <time>2018-09-18T14:34:55Z</time>
      </trkpt>
      <trkpt lat="47.443908993154764" lon="10.245429994538426">
        <ele>823.99000000000001</ele>
        <time>2018-09-18T14:34:57Z</time>
      </trkpt>
      <trkpt lat="47.443954003974795" lon="10.245472993701696">
        <ele>823.50999999999999</ele>
        <time>2018-09-18T14:34:58Z</time>
      </trkpt>
      <trkpt lat="47.443994991481304" lon="10.245510963723063">
        <ele>823.50999999999999</ele>
        <time>2018-09-18T14:34:59Z</time>
      </trkpt>
      <trkpt lat="47.443999014794827" lon="10.24558799341321">
        <ele>823.02999999999997</ele>
        <time>2018-09-18T14:35:00Z</time>
      </trkpt>
      <trkpt lat="47.443987028673291" lon="10.245669968426228">
        <ele>823.02999999999997</ele>
        <time>2018-09-18T14:35:01Z</time>
      </trkpt>
      <trkpt lat="47.443974036723375" lon="10.24575999006629">
        <ele>823.02999999999997</ele>
        <time>2018-09-18T14:35:02Z</time>
      </trkpt>
      <trkpt lat="47.443952998146415" lon="10.245849005877972">
        <ele>822.54999999999995</ele>
        <time>2018-09-18T14:35:03Z</time>
      </trkpt>
      <trkpt lat="47.443917961791158" lon="10.245925029739738">
        <ele>822.54999999999995</ele>
        <time>2018-09-18T14:35:04Z</time>
      </trkpt>
      <trkpt lat="47.443885020911694" lon="10.24599501863122">
        <ele>822.54999999999995</ele>
        <time>2018-09-18T14:35:05Z</time>
      </trkpt>
      <trkpt lat="47.443853002041578" lon="10.246062995865941">
        <ele>823.02999999999997</ele>
        <time>2018-09-18T14:35:06Z</time>
      </trkpt>
      <trkpt lat="47.443821988999844" lon="10.246129967272282">
        <ele>823.02999999999997</ele>
        <time>2018-09-18T14:35:07Z</time>
      </trkpt>
      <trkpt lat="47.443687962368131" lon="10.246414029970765">
        <ele>824.47000000000003</ele>
        <time>2018-09-18T14:35:11Z</time>
      </trkpt>
      <trkpt lat="47.443657033145428" lon="10.246479995548725">
        <ele>824.47000000000003</ele>
        <time>2018-09-18T14:35:12Z</time>
      </trkpt>
      <trkpt lat="47.443584026768804" lon="10.246501034125686">
        <ele>824.47000000000003</ele>
        <time>2018-09-18T14:35:13Z</time>
      </trkpt>
      <trkpt lat="47.443514037877321" lon="10.246488964185119">
        <ele>824.47000000000003</ele>
        <time>2018-09-18T14:35:14Z</time>
      </trkpt>
      <trkpt lat="47.443461986258626" lon="10.246494999155402">
        <ele>824.95000000000005</ele>
        <time>2018-09-18T14:35:15Z</time>
      </trkpt>
      <trkpt lat="47.443399038165808" lon="10.246501034125686">
        <ele>824.95000000000005</ele>
        <time>2018-09-18T14:35:16Z</time>
      </trkpt>
      <trkpt lat="47.443336006253958" lon="10.246507991105318">
        <ele>824.47000000000003</ele>
        <time>2018-09-18T14:35:17Z</time>
      </trkpt>
      <trkpt lat="47.443272974342108" lon="10.246515031903982">
        <ele>824.47000000000003</ele>
        <time>2018-09-18T14:35:18Z</time>
      </trkpt>
      <trkpt lat="47.443207008764148" lon="10.246520983055234">
        <ele>824.47000000000003</ele>
        <time>2018-09-18T14:35:19Z</time>
      </trkpt>
      <trkpt lat="47.44314699433744" lon="10.246528023853898">
        <ele>823.99000000000001</ele>
        <time>2018-09-18T14:35:20Z</time>
      </trkpt>
      <trkpt lat="47.44308396242559" lon="10.246547972783446">
        <ele>823.99000000000001</ele>
        <time>2018-09-18T14:35:21Z</time>
      </trkpt>
      <trkpt lat="47.443033000454307" lon="10.246585020795465">
        <ele>823.99000000000001</ele>
        <time>2018-09-18T14:35:22Z</time>
      </trkpt>
      <trkpt lat="47.442799983546138" lon="10.246822983026505">
        <ele>823.50999999999999</ele>
        <time>2018-09-18T14:35:27Z</time>
      </trkpt>
      <trkpt lat="47.442686995491385" lon="10.247015012428164">
        <ele>823.50999999999999</ele>
        <time>2018-09-18T14:35:30Z</time>
      </trkpt>
    </trkseg>
  </trk>

</gpx>